<?xml version='1.0' encoding='UTF-8'?><gpx version="1.1" creator="JPX - https://github.com/jenetics/jpx" xmlns="http://www.topografix.com/GPX/1/1"><trk><trkseg><trkpt lat="44.3487038" lon="7.7640806"><ele>534.0</ele><time>2026-04-28T06:23:27.443Z</time></trkpt><trkpt lat="44.3486968" lon="7.7641731"><ele>534.0</ele><time>2026-04-28T06:23:28.444Z</time></trkpt><trkpt lat="44.3486831" lon="7.7642889"><ele>534.0</ele><time>2026-04-28T06:23:29.443Z</time></trkpt><trkpt lat="44.3486627" lon="7.76441"><ele>534.0</ele><time>2026-04-28T06:23:30.443Z</time></trkpt><trkpt lat="44.3486405" lon="7.7645585"><ele>534.0</ele><time>2026-04-28T06:23:31.444Z</time></trkpt><trkpt lat="44.3486136" lon="7.7647158"><ele>533.75</ele><time>2026-04-28T06:23:32.444Z</time></trkpt><trkpt lat="44.3485898" lon="7.76488"><ele>533.5</ele><time>2026-04-28T06:23:33.443Z</time></trkpt><trkpt lat="44.3485593" lon="7.7650547"><ele>533.25</ele><time>2026-04-28T06:23:34.443Z</time></trkpt><trkpt lat="44.3485366" lon="7.7652154"><ele>533.0</ele><time>2026-04-28T06:23:35.443Z</time></trkpt><trkpt lat="44.3485135" lon="7.7653626"><ele>533.0</ele><time>2026-04-28T06:23:36.444Z</time></trkpt><trkpt lat="44.3484795" lon="7.7655038"><ele>533.0</ele><time>2026-04-28T06:23:37.443Z</time></trkpt><trkpt lat="44.3484369" lon="7.7656251"><ele>533.0</ele><time>2026-04-28T06:23:38.444Z</time></trkpt><trkpt lat="44.3483863" lon="7.7657341"><ele>533.0</ele><time>2026-04-28T06:23:39.444Z</time></trkpt><trkpt lat="44.3483471" lon="7.765845"><ele>533.0</ele><time>2026-04-28T06:23:40.442Z</time></trkpt><trkpt lat="44.3483687" lon="7.7659508"><ele>532.6666666666666</ele><time>2026-04-28T06:23:41.444Z</time></trkpt><trkpt lat="44.3483723" lon="7.7660471"><ele>532.3333333333333</ele><time>2026-04-28T06:23:42.444Z</time></trkpt><trkpt lat="44.3483805" lon="7.7661735"><ele>532.0</ele><time>2026-04-28T06:23:45.444Z</time></trkpt><trkpt lat="44.3483759" lon="7.7663286"><ele>531.6666666666666</ele><time>2026-04-28T06:23:48.444Z</time></trkpt><trkpt lat="44.3483745" lon="7.7664233"><ele>531.3333333333334</ele><time>2026-04-28T06:23:49.444Z</time></trkpt><trkpt lat="44.348378" lon="7.7665152"><ele>531.0</ele><time>2026-04-28T06:23:50.444Z</time></trkpt><trkpt lat="44.3483758" lon="7.7666085"><ele>531.0</ele><time>2026-04-28T06:23:51.443Z</time></trkpt><trkpt lat="44.3483678" lon="7.7666971"><ele>531.0</ele><time>2026-04-28T06:23:52.443Z</time></trkpt><trkpt lat="44.3483436" lon="7.766829"><ele>531.0</ele><time>2026-04-28T06:23:54.442Z</time></trkpt><trkpt lat="44.3483045" lon="7.7669808"><ele>531.0</ele><time>2026-04-28T06:23:56.444Z</time></trkpt><trkpt lat="44.3482728" lon="7.7670764"><ele>531.0</ele><time>2026-04-28T06:23:57.444Z</time></trkpt><trkpt lat="44.3482314" lon="7.7671905"><ele>531.0</ele><time>2026-04-28T06:23:58.444Z</time></trkpt><trkpt lat="44.3481959" lon="7.767307"><ele>530.5</ele><time>2026-04-28T06:23:59.442Z</time></trkpt><trkpt lat="44.348163" lon="7.7674414"><ele>530.0</ele><time>2026-04-28T06:24:00.443Z</time></trkpt><trkpt lat="44.3481406" lon="7.7675965"><ele>529.5</ele><time>2026-04-28T06:24:01.443Z</time></trkpt><trkpt lat="44.3481111" lon="7.7677683"><ele>529.0</ele><time>2026-04-28T06:24:02.444Z</time></trkpt><trkpt lat="44.3480876" lon="7.7679405"><ele>528.0</ele><time>2026-04-28T06:24:03.444Z</time></trkpt><trkpt lat="44.3480636" lon="7.7681112"><ele>527.0</ele><time>2026-04-28T06:24:04.444Z</time></trkpt><trkpt lat="44.3480396" lon="7.7682835"><ele>526.0</ele><time>2026-04-28T06:24:05.443Z</time></trkpt><trkpt lat="44.3480131" lon="7.7684519"><ele>525.0</ele><time>2026-04-28T06:24:06.444Z</time></trkpt><trkpt lat="44.347985" lon="7.7686236"><ele>523.5</ele><time>2026-04-28T06:24:07.444Z</time></trkpt><trkpt lat="44.3479596" lon="7.7687942"><ele>522.0</ele><time>2026-04-28T06:24:08.444Z</time></trkpt><trkpt lat="44.3479321" lon="7.7689513"><ele>520.5</ele><time>2026-04-28T06:24:09.443Z</time></trkpt><trkpt lat="44.3479083" lon="7.769108"><ele>519.0</ele><time>2026-04-28T06:24:10.442Z</time></trkpt><trkpt lat="44.3478881" lon="7.7692596"><ele>518.4</ele><time>2026-04-28T06:24:11.443Z</time></trkpt><trkpt lat="44.3478696" lon="7.7694099"><ele>517.8</ele><time>2026-04-28T06:24:12.444Z</time></trkpt><trkpt lat="44.3478459" lon="7.7695463"><ele>517.2</ele><time>2026-04-28T06:24:13.444Z</time></trkpt><trkpt lat="44.3478266" lon="7.769675"><ele>516.6</ele><time>2026-04-28T06:24:14.444Z</time></trkpt><trkpt lat="44.3478094" lon="7.7697757"><ele>516.0</ele><time>2026-04-28T06:24:15.444Z</time></trkpt><trkpt lat="44.3477676" lon="7.7699142"><ele>516.0</ele><time>2026-04-28T06:24:17.443Z</time></trkpt><trkpt lat="44.3477267" lon="7.7700225"><ele>516.0</ele><time>2026-04-28T06:24:19.444Z</time></trkpt><trkpt lat="44.34766" lon="7.7700946"><ele>516.0</ele><time>2026-04-28T06:24:22.443Z</time></trkpt><trkpt lat="44.3475758" lon="7.7701401"><ele>516.0</ele><time>2026-04-28T06:24:24.443Z</time></trkpt><trkpt lat="44.3474824" lon="7.7702468"><ele>516.0</ele><time>2026-04-28T06:24:26.444Z</time></trkpt><trkpt lat="44.3475005" lon="7.7703455"><ele>515.5</ele><time>2026-04-28T06:24:27.444Z</time></trkpt><trkpt lat="44.3475825" lon="7.7705006"><ele>515.0</ele><time>2026-04-28T06:24:29.442Z</time></trkpt><trkpt lat="44.3476366" lon="7.7705784"><ele>514.5</ele><time>2026-04-28T06:24:30.444Z</time></trkpt><trkpt lat="44.3476879" lon="7.7706647"><ele>514.0</ele><time>2026-04-28T06:24:31.443Z</time></trkpt><trkpt lat="44.3477266" lon="7.7707614"><ele>513.5</ele><time>2026-04-28T06:24:32.443Z</time></trkpt><trkpt lat="44.3477498" lon="7.770858"><ele>513.0</ele><time>2026-04-28T06:24:33.444Z</time></trkpt><trkpt lat="44.3477727" lon="7.7709577"><ele>512.3333333333334</ele><time>2026-04-28T06:24:34.444Z</time></trkpt><trkpt lat="44.3477859" lon="7.7710464"><ele>511.66666666666663</ele><time>2026-04-28T06:24:35.444Z</time></trkpt><trkpt lat="44.347787" lon="7.7711385"><ele>511.0</ele><time>2026-04-28T06:24:36.443Z</time></trkpt><trkpt lat="44.3477809" lon="7.7712419"><ele>510.3333333333333</ele><time>2026-04-28T06:24:37.443Z</time></trkpt><trkpt lat="44.347764" lon="7.7713675"><ele>509.66666666666663</ele><time>2026-04-28T06:24:38.444Z</time></trkpt><trkpt lat="44.3477407" lon="7.7715035"><ele>509.0</ele><time>2026-04-28T06:24:39.444Z</time></trkpt><trkpt lat="44.3477098" lon="7.7716409"><ele>509.0</ele><time>2026-04-28T06:24:40.444Z</time></trkpt><trkpt lat="44.3476658" lon="7.7717912"><ele>509.0</ele><time>2026-04-28T06:24:41.444Z</time></trkpt><trkpt lat="44.3476193" lon="7.771944"><ele>509.0</ele><time>2026-04-28T06:24:42.444Z</time></trkpt><trkpt lat="44.3475749" lon="7.7720809"><ele>509.0</ele><time>2026-04-28T06:24:43.443Z</time></trkpt><trkpt lat="44.34753" lon="7.7722113"><ele>509.0</ele><time>2026-04-28T06:24:44.443Z</time></trkpt><trkpt lat="44.3474946" lon="7.7723626"><ele>508.75</ele><time>2026-04-28T06:24:45.443Z</time></trkpt><trkpt lat="44.3474642" lon="7.7725243"><ele>508.5</ele><time>2026-04-28T06:24:46.443Z</time></trkpt><trkpt lat="44.3474234" lon="7.7726994"><ele>508.25</ele><time>2026-04-28T06:24:47.444Z</time></trkpt><trkpt lat="44.3473739" lon="7.7728937"><ele>508.0</ele><time>2026-04-28T06:24:48.443Z</time></trkpt><trkpt lat="44.347321" lon="7.7730818"><ele>507.6666666666667</ele><time>2026-04-28T06:24:49.444Z</time></trkpt><trkpt lat="44.3472588" lon="7.7732855"><ele>507.33333333333337</ele><time>2026-04-28T06:24:50.444Z</time></trkpt><trkpt lat="44.3472042" lon="7.7734985"><ele>507.0</ele><time>2026-04-28T06:24:51.443Z</time></trkpt><trkpt lat="44.3471387" lon="7.7737108"><ele>507.0</ele><time>2026-04-28T06:24:52.444Z</time></trkpt><trkpt lat="44.3470728" lon="7.7739321"><ele>507.0</ele><time>2026-04-28T06:24:53.444Z</time></trkpt><trkpt lat="44.346997" lon="7.7741564"><ele>507.0</ele><time>2026-04-28T06:24:54.443Z</time></trkpt><trkpt lat="44.3469065" lon="7.7743614"><ele>507.0</ele><time>2026-04-28T06:24:55.444Z</time></trkpt><trkpt lat="44.3468072" lon="7.7745591"><ele>507.0</ele><time>2026-04-28T06:24:56.444Z</time></trkpt><trkpt lat="44.3467058" lon="7.7747484"><ele>507.0</ele><time>2026-04-28T06:24:57.444Z</time></trkpt><trkpt lat="44.3465912" lon="7.7749315"><ele>507.0</ele><time>2026-04-28T06:24:58.444Z</time></trkpt><trkpt lat="44.3464712" lon="7.7750998"><ele>507.0</ele><time>2026-04-28T06:24:59.444Z</time></trkpt><trkpt lat="44.346345" lon="7.7752739"><ele>507.0</ele><time>2026-04-28T06:25:00.443Z</time></trkpt><trkpt lat="44.3462145" lon="7.7754306"><ele>507.33333333333337</ele><time>2026-04-28T06:25:01.444Z</time></trkpt><trkpt lat="44.3460748" lon="7.7755896"><ele>507.6666666666667</ele><time>2026-04-28T06:25:02.442Z</time></trkpt><trkpt lat="44.3459279" lon="7.7757419"><ele>508.0</ele><time>2026-04-28T06:25:03.444Z</time></trkpt><trkpt lat="44.3457779" lon="7.7758804"><ele>508.0</ele><time>2026-04-28T06:25:04.443Z</time></trkpt><trkpt lat="44.3456367" lon="7.7760129"><ele>508.0</ele><time>2026-04-28T06:25:05.444Z</time></trkpt><trkpt lat="44.3454982" lon="7.7761334"><ele>508.0</ele><time>2026-04-28T06:25:06.444Z</time></trkpt><trkpt lat="44.3453679" lon="7.7762469"><ele>507.5</ele><time>2026-04-28T06:25:07.444Z</time></trkpt><trkpt lat="44.3452397" lon="7.7763614"><ele>507.0</ele><time>2026-04-28T06:25:08.443Z</time></trkpt><trkpt lat="44.345112" lon="7.7764664"><ele>506.5</ele><time>2026-04-28T06:25:09.444Z</time></trkpt><trkpt lat="44.3449885" lon="7.7765706"><ele>506.0</ele><time>2026-04-28T06:25:10.444Z</time></trkpt><trkpt lat="44.3448645" lon="7.7766676"><ele>506.0</ele><time>2026-04-28T06:25:11.444Z</time></trkpt><trkpt lat="44.344742" lon="7.7767586"><ele>506.0</ele><time>2026-04-28T06:25:12.444Z</time></trkpt><trkpt lat="44.3446197" lon="7.7768438"><ele>506.0</ele><time>2026-04-28T06:25:13.442Z</time></trkpt><trkpt lat="44.3444944" lon="7.7769252"><ele>506.0</ele><time>2026-04-28T06:25:14.443Z</time></trkpt><trkpt lat="44.3443616" lon="7.7770029"><ele>503.3333333333333</ele><time>2026-04-28T06:25:15.443Z</time></trkpt><trkpt lat="44.3442176" lon="7.7770793"><ele>500.66666666666663</ele><time>2026-04-28T06:25:16.444Z</time></trkpt><trkpt lat="44.3440638" lon="7.777151"><ele>498.0</ele><time>2026-04-28T06:25:17.444Z</time></trkpt><trkpt lat="44.3439046" lon="7.7772181"><ele>497.0</ele><time>2026-04-28T06:25:18.444Z</time></trkpt><trkpt lat="44.3437401" lon="7.7772822"><ele>496.0</ele><time>2026-04-28T06:25:19.442Z</time></trkpt><trkpt lat="44.3435719" lon="7.7773398"><ele>495.0</ele><time>2026-04-28T06:25:20.443Z</time></trkpt><trkpt lat="44.3434014" lon="7.7773836"><ele>495.0</ele><time>2026-04-28T06:25:21.444Z</time></trkpt><trkpt lat="44.3432294" lon="7.7774143"><ele>495.0</ele><time>2026-04-28T06:25:22.444Z</time></trkpt><trkpt lat="44.3430599" lon="7.7774369"><ele>495.0</ele><time>2026-04-28T06:25:23.444Z</time></trkpt><trkpt lat="44.3428942" lon="7.7774599"><ele>495.33333333333337</ele><time>2026-04-28T06:25:24.442Z</time></trkpt><trkpt lat="44.3427341" lon="7.7774867"><ele>495.6666666666667</ele><time>2026-04-28T06:25:25.444Z</time></trkpt><trkpt lat="44.3425785" lon="7.7775121"><ele>496.0</ele><time>2026-04-28T06:25:26.443Z</time></trkpt><trkpt lat="44.3424254" lon="7.7775361"><ele>496.0</ele><time>2026-04-28T06:25:27.444Z</time></trkpt><trkpt lat="44.3422728" lon="7.7775626"><ele>496.0</ele><time>2026-04-28T06:25:28.443Z</time></trkpt><trkpt lat="44.3421194" lon="7.7775892"><ele>496.0</ele><time>2026-04-28T06:25:29.444Z</time></trkpt><trkpt lat="44.3419661" lon="7.7776139"><ele>495.25</ele><time>2026-04-28T06:25:30.444Z</time></trkpt><trkpt lat="44.3418155" lon="7.7776353"><ele>494.5</ele><time>2026-04-28T06:25:31.443Z</time></trkpt><trkpt lat="44.3416672" lon="7.777657"><ele>493.75</ele><time>2026-04-28T06:25:32.443Z</time></trkpt><trkpt lat="44.3415222" lon="7.7776783"><ele>493.0</ele><time>2026-04-28T06:25:33.444Z</time></trkpt><trkpt lat="44.341378" lon="7.777699"><ele>492.0</ele><time>2026-04-28T06:25:34.444Z</time></trkpt><trkpt lat="44.3412356" lon="7.7777207"><ele>491.0</ele><time>2026-04-28T06:25:35.444Z</time></trkpt><trkpt lat="44.3410975" lon="7.7777433"><ele>490.0</ele><time>2026-04-28T06:25:36.444Z</time></trkpt><trkpt lat="44.3409614" lon="7.7777624"><ele>489.0</ele><time>2026-04-28T06:25:37.444Z</time></trkpt><trkpt lat="44.3408274" lon="7.7777808"><ele>489.0</ele><time>2026-04-28T06:25:38.444Z</time></trkpt><trkpt lat="44.3406986" lon="7.777801"><ele>489.0</ele><time>2026-04-28T06:25:39.444Z</time></trkpt><trkpt lat="44.3405766" lon="7.7778215"><ele>489.0</ele><time>2026-04-28T06:25:40.443Z</time></trkpt><trkpt lat="44.3404608" lon="7.777841"><ele>489.0</ele><time>2026-04-28T06:25:41.444Z</time></trkpt><trkpt lat="44.3403516" lon="7.7778644"><ele>489.6</ele><time>2026-04-28T06:25:42.444Z</time></trkpt><trkpt lat="44.3402474" lon="7.7778878"><ele>490.2</ele><time>2026-04-28T06:25:43.444Z</time></trkpt><trkpt lat="44.3401457" lon="7.7779082"><ele>490.80000000000007</ele><time>2026-04-28T06:25:44.443Z</time></trkpt><trkpt lat="44.3400472" lon="7.7779211"><ele>491.40000000000003</ele><time>2026-04-28T06:25:45.444Z</time></trkpt><trkpt lat="44.3399532" lon="7.7779244"><ele>492.0</ele><time>2026-04-28T06:25:46.443Z</time></trkpt><trkpt lat="44.3398664" lon="7.7779217"><ele>492.0</ele><time>2026-04-28T06:25:47.444Z</time></trkpt><trkpt lat="44.3397865" lon="7.7779399"><ele>492.0</ele><time>2026-04-28T06:25:48.444Z</time></trkpt><trkpt lat="44.3397252" lon="7.7779984"><ele>492.0</ele><time>2026-04-28T06:25:49.444Z</time></trkpt><trkpt lat="44.3396803" lon="7.7780814"><ele>492.0</ele><time>2026-04-28T06:25:50.444Z</time></trkpt><trkpt lat="44.3396774" lon="7.7781746"><ele>492.0</ele><time>2026-04-28T06:25:51.444Z</time></trkpt><trkpt lat="44.3397053" lon="7.7782799"><ele>492.0</ele><time>2026-04-28T06:25:52.444Z</time></trkpt><trkpt lat="44.3397844" lon="7.778391"><ele>492.0</ele><time>2026-04-28T06:25:53.443Z</time></trkpt><trkpt lat="44.3399005" lon="7.7785173"><ele>492.0</ele><time>2026-04-28T06:25:54.444Z</time></trkpt><trkpt lat="44.3400029" lon="7.7786633"><ele>492.0</ele><time>2026-04-28T06:25:55.442Z</time></trkpt><trkpt lat="44.340101" lon="7.7788355"><ele>492.0</ele><time>2026-04-28T06:25:56.444Z</time></trkpt><trkpt lat="44.3402011" lon="7.7790307"><ele>492.0</ele><time>2026-04-28T06:25:57.443Z</time></trkpt><trkpt lat="44.3403093" lon="7.7792263"><ele>492.0</ele><time>2026-04-28T06:25:58.444Z</time></trkpt><trkpt lat="44.3404151" lon="7.7794149"><ele>491.66666666666663</ele><time>2026-04-28T06:25:59.443Z</time></trkpt><trkpt lat="44.3405299" lon="7.7796204"><ele>491.3333333333333</ele><time>2026-04-28T06:26:00.443Z</time></trkpt><trkpt lat="44.34065" lon="7.7798398"><ele>491.0</ele><time>2026-04-28T06:26:01.444Z</time></trkpt><trkpt lat="44.3407747" lon="7.7800699"><ele>490.66666666666663</ele><time>2026-04-28T06:26:02.444Z</time></trkpt><trkpt lat="44.3409049" lon="7.7803041"><ele>490.33333333333337</ele><time>2026-04-28T06:26:03.444Z</time></trkpt><trkpt lat="44.3410324" lon="7.7805357"><ele>490.0</ele><time>2026-04-28T06:26:04.444Z</time></trkpt><trkpt lat="44.3411538" lon="7.7807679"><ele>490.0</ele><time>2026-04-28T06:26:05.443Z</time></trkpt><trkpt lat="44.3412759" lon="7.7810134"><ele>490.0</ele><time>2026-04-28T06:26:06.444Z</time></trkpt><trkpt lat="44.3414002" lon="7.7812713"><ele>490.0</ele><time>2026-04-28T06:26:07.444Z</time></trkpt><trkpt lat="44.3415295" lon="7.7815302"><ele>490.5</ele><time>2026-04-28T06:26:08.444Z</time></trkpt><trkpt lat="44.3416656" lon="7.7817891"><ele>491.0</ele><time>2026-04-28T06:26:09.444Z</time></trkpt><trkpt lat="44.3418056" lon="7.7820471"><ele>491.0</ele><time>2026-04-28T06:26:10.444Z</time></trkpt><trkpt lat="44.3419485" lon="7.7823094"><ele>491.0</ele><time>2026-04-28T06:26:11.444Z</time></trkpt><trkpt lat="44.3420945" lon="7.7825717"><ele>490.5</ele><time>2026-04-28T06:26:12.443Z</time></trkpt><trkpt lat="44.3422354" lon="7.7828341"><ele>490.0</ele><time>2026-04-28T06:26:13.444Z</time></trkpt><trkpt lat="44.3423714" lon="7.7830933"><ele>490.0</ele><time>2026-04-28T06:26:14.443Z</time></trkpt><trkpt lat="44.3425047" lon="7.783348"><ele>490.0</ele><time>2026-04-28T06:26:15.444Z</time></trkpt><trkpt lat="44.3426337" lon="7.7835989"><ele>490.0</ele><time>2026-04-28T06:26:16.443Z</time></trkpt><trkpt lat="44.342764" lon="7.7838515"><ele>490.0</ele><time>2026-04-28T06:26:17.443Z</time></trkpt><trkpt lat="44.3428988" lon="7.7841062"><ele>490.0</ele><time>2026-04-28T06:26:18.444Z</time></trkpt><trkpt lat="44.3430351" lon="7.7843604"><ele>488.5</ele><time>2026-04-28T06:26:19.443Z</time></trkpt><trkpt lat="44.3431709" lon="7.784617"><ele>487.0</ele><time>2026-04-28T06:26:20.443Z</time></trkpt><trkpt lat="44.3433018" lon="7.7848719"><ele>487.0</ele><time>2026-04-28T06:26:21.444Z</time></trkpt><trkpt lat="44.343437" lon="7.7851309"><ele>487.0</ele><time>2026-04-28T06:26:22.443Z</time></trkpt><trkpt lat="44.3435752" lon="7.7853902"><ele>486.5</ele><time>2026-04-28T06:26:23.443Z</time></trkpt><trkpt lat="44.3437148" lon="7.7856493"><ele>486.0</ele><time>2026-04-28T06:26:24.443Z</time></trkpt><trkpt lat="44.3438542" lon="7.7859079"><ele>485.0</ele><time>2026-04-28T06:26:25.444Z</time></trkpt><trkpt lat="44.3439946" lon="7.7861654"><ele>484.0</ele><time>2026-04-28T06:26:26.444Z</time></trkpt><trkpt lat="44.3441364" lon="7.7864221"><ele>484.0</ele><time>2026-04-28T06:26:27.444Z</time></trkpt><trkpt lat="44.3442822" lon="7.7866793"><ele>484.0</ele><time>2026-04-28T06:26:28.444Z</time></trkpt><trkpt lat="44.344426" lon="7.7869371"><ele>483.5</ele><time>2026-04-28T06:26:29.444Z</time></trkpt><trkpt lat="44.34457" lon="7.7871961"><ele>483.0</ele><time>2026-04-28T06:26:30.444Z</time></trkpt><trkpt lat="44.3447098" lon="7.787456"><ele>482.5</ele><time>2026-04-28T06:26:31.443Z</time></trkpt><trkpt lat="44.3448477" lon="7.7877212"><ele>482.0</ele><time>2026-04-28T06:26:32.444Z</time></trkpt><trkpt lat="44.3449854" lon="7.7879886"><ele>482.0</ele><time>2026-04-28T06:26:33.443Z</time></trkpt><trkpt lat="44.3451233" lon="7.7882558"><ele>482.0</ele><time>2026-04-28T06:26:34.444Z</time></trkpt><trkpt lat="44.3452655" lon="7.7885247"><ele>481.5</ele><time>2026-04-28T06:26:35.443Z</time></trkpt><trkpt lat="44.34541" lon="7.7887947"><ele>481.0</ele><time>2026-04-28T06:26:36.443Z</time></trkpt><trkpt lat="44.3455531" lon="7.7890671"><ele>480.5</ele><time>2026-04-28T06:26:37.444Z</time></trkpt><trkpt lat="44.345697" lon="7.7893405"><ele>480.0</ele><time>2026-04-28T06:26:38.443Z</time></trkpt><trkpt lat="44.3458425" lon="7.7896158"><ele>480.0</ele><time>2026-04-28T06:26:39.443Z</time></trkpt><trkpt lat="44.3459885" lon="7.7898897"><ele>480.0</ele><time>2026-04-28T06:26:40.444Z</time></trkpt><trkpt lat="44.3461395" lon="7.7901552"><ele>480.0</ele><time>2026-04-28T06:26:41.443Z</time></trkpt><trkpt lat="44.3462997" lon="7.7904113"><ele>480.0</ele><time>2026-04-28T06:26:42.443Z</time></trkpt><trkpt lat="44.3464708" lon="7.7906587"><ele>480.0</ele><time>2026-04-28T06:26:43.444Z</time></trkpt><trkpt lat="44.3466474" lon="7.7908964"><ele>480.0</ele><time>2026-04-28T06:26:44.444Z</time></trkpt><trkpt lat="44.3468288" lon="7.7911324"><ele>480.0</ele><time>2026-04-28T06:26:45.444Z</time></trkpt><trkpt lat="44.3470153" lon="7.7913616"><ele>480.0</ele><time>2026-04-28T06:26:46.443Z</time></trkpt><trkpt lat="44.34721" lon="7.7915823"><ele>478.5</ele><time>2026-04-28T06:26:47.443Z</time></trkpt><trkpt lat="44.3474071" lon="7.7917955"><ele>477.0</ele><time>2026-04-28T06:26:48.444Z</time></trkpt><trkpt lat="44.3476034" lon="7.7920122"><ele>476.0</ele><time>2026-04-28T06:26:49.443Z</time></trkpt><trkpt lat="44.347799" lon="7.7922283"><ele>475.0</ele><time>2026-04-28T06:26:50.443Z</time></trkpt><trkpt lat="44.3479941" lon="7.7924442"><ele>475.0</ele><time>2026-04-28T06:26:51.443Z</time></trkpt><trkpt lat="44.348188" lon="7.7926641"><ele>475.0</ele><time>2026-04-28T06:26:52.444Z</time></trkpt><trkpt lat="44.3483835" lon="7.7928861"><ele>474.5</ele><time>2026-04-28T06:26:53.444Z</time></trkpt><trkpt lat="44.3485766" lon="7.7931059"><ele>474.0</ele><time>2026-04-28T06:26:54.444Z</time></trkpt><trkpt lat="44.3487673" lon="7.7933331"><ele>473.0</ele><time>2026-04-28T06:26:55.443Z</time></trkpt><trkpt lat="44.3489552" lon="7.7935635"><ele>472.0</ele><time>2026-04-28T06:26:56.444Z</time></trkpt><trkpt lat="44.3491377" lon="7.7938038"><ele>472.0</ele><time>2026-04-28T06:26:57.443Z</time></trkpt><trkpt lat="44.3493154" lon="7.7940539"><ele>472.0</ele><time>2026-04-28T06:26:58.444Z</time></trkpt><trkpt lat="44.3494851" lon="7.7943149"><ele>472.0</ele><time>2026-04-28T06:26:59.443Z</time></trkpt><trkpt lat="44.3496484" lon="7.7945848"><ele>472.0</ele><time>2026-04-28T06:27:00.443Z</time></trkpt><trkpt lat="44.3498074" lon="7.7948572"><ele>472.0</ele><time>2026-04-28T06:27:01.443Z</time></trkpt><trkpt lat="44.3499627" lon="7.7951353"><ele>472.0</ele><time>2026-04-28T06:27:02.443Z</time></trkpt><trkpt lat="44.3501111" lon="7.7954167"><ele>471.0</ele><time>2026-04-28T06:27:03.443Z</time></trkpt><trkpt lat="44.3502538" lon="7.7957064"><ele>470.0</ele><time>2026-04-28T06:27:04.442Z</time></trkpt><trkpt lat="44.3503905" lon="7.7959978"><ele>469.0</ele><time>2026-04-28T06:27:05.444Z</time></trkpt><trkpt lat="44.3505196" lon="7.7962978"><ele>468.0</ele><time>2026-04-28T06:27:06.443Z</time></trkpt><trkpt lat="44.3506429" lon="7.7965994"><ele>468.5</ele><time>2026-04-28T06:27:07.443Z</time></trkpt><trkpt lat="44.3507683" lon="7.7969009"><ele>469.0</ele><time>2026-04-28T06:27:08.443Z</time></trkpt><trkpt lat="44.3508935" lon="7.7972011"><ele>469.0</ele><time>2026-04-28T06:27:09.444Z</time></trkpt><trkpt lat="44.3510213" lon="7.7975001"><ele>469.0</ele><time>2026-04-28T06:27:10.444Z</time></trkpt><trkpt lat="44.3511489" lon="7.7978003"><ele>469.0</ele><time>2026-04-28T06:27:11.444Z</time></trkpt><trkpt lat="44.3512765" lon="7.7980995"><ele>469.0</ele><time>2026-04-28T06:27:12.443Z</time></trkpt><trkpt lat="44.351404" lon="7.7983992"><ele>468.5</ele><time>2026-04-28T06:27:13.444Z</time></trkpt><trkpt lat="44.3515303" lon="7.798696"><ele>468.0</ele><time>2026-04-28T06:27:14.444Z</time></trkpt><trkpt lat="44.3516558" lon="7.7989946"><ele>468.0</ele><time>2026-04-28T06:27:15.444Z</time></trkpt><trkpt lat="44.3517813" lon="7.7992922"><ele>468.0</ele><time>2026-04-28T06:27:16.443Z</time></trkpt><trkpt lat="44.3519066" lon="7.7995885"><ele>467.0</ele><time>2026-04-28T06:27:17.444Z</time></trkpt><trkpt lat="44.3520322" lon="7.7998871"><ele>466.0</ele><time>2026-04-28T06:27:18.444Z</time></trkpt><trkpt lat="44.3521587" lon="7.800185"><ele>465.5</ele><time>2026-04-28T06:27:19.444Z</time></trkpt><trkpt lat="44.3522847" lon="7.8004811"><ele>465.0</ele><time>2026-04-28T06:27:20.444Z</time></trkpt><trkpt lat="44.3524112" lon="7.8007775"><ele>466.0</ele><time>2026-04-28T06:27:21.444Z</time></trkpt><trkpt lat="44.352537" lon="7.8010744"><ele>467.0</ele><time>2026-04-28T06:27:22.442Z</time></trkpt><trkpt lat="44.352663" lon="7.801371"><ele>467.0</ele><time>2026-04-28T06:27:23.444Z</time></trkpt><trkpt lat="44.3527889" lon="7.8016685"><ele>467.0</ele><time>2026-04-28T06:27:24.444Z</time></trkpt><trkpt lat="44.3529145" lon="7.8019655"><ele>466.5</ele><time>2026-04-28T06:27:25.443Z</time></trkpt><trkpt lat="44.3530388" lon="7.8022627"><ele>466.0</ele><time>2026-04-28T06:27:26.444Z</time></trkpt><trkpt lat="44.3531631" lon="7.8025609"><ele>465.5</ele><time>2026-04-28T06:27:27.443Z</time></trkpt><trkpt lat="44.3532873" lon="7.8028607"><ele>465.0</ele><time>2026-04-28T06:27:28.444Z</time></trkpt><trkpt lat="44.3534054" lon="7.8031639"><ele>465.0</ele><time>2026-04-28T06:27:29.444Z</time></trkpt><trkpt lat="44.3535147" lon="7.803474"><ele>465.0</ele><time>2026-04-28T06:27:30.444Z</time></trkpt><trkpt lat="44.3536106" lon="7.8037931"><ele>465.0</ele><time>2026-04-28T06:27:31.444Z</time></trkpt><trkpt lat="44.3536897" lon="7.8041196"><ele>465.0</ele><time>2026-04-28T06:27:32.442Z</time></trkpt><trkpt lat="44.3537571" lon="7.8044524"><ele>465.0</ele><time>2026-04-28T06:27:33.444Z</time></trkpt><trkpt lat="44.353812" lon="7.8047884"><ele>465.0</ele><time>2026-04-28T06:27:34.444Z</time></trkpt><trkpt lat="44.3538561" lon="7.8051264"><ele>463.5</ele><time>2026-04-28T06:27:35.443Z</time></trkpt><trkpt lat="44.3538945" lon="7.8054664"><ele>462.0</ele><time>2026-04-28T06:27:36.444Z</time></trkpt><trkpt lat="44.3539328" lon="7.8058055"><ele>464.0</ele><time>2026-04-28T06:27:37.444Z</time></trkpt><trkpt lat="44.3539745" lon="7.8061413"><ele>466.0</ele><time>2026-04-28T06:27:38.443Z</time></trkpt><trkpt lat="44.354016" lon="7.8064756"><ele>466.0</ele><time>2026-04-28T06:27:39.442Z</time></trkpt><trkpt lat="44.3540556" lon="7.8068057"><ele>466.0</ele><time>2026-04-28T06:27:40.443Z</time></trkpt><trkpt lat="44.3540899" lon="7.8071312"><ele>469.0</ele><time>2026-04-28T06:27:41.444Z</time></trkpt><trkpt lat="44.3541136" lon="7.8074547"><ele>472.0</ele><time>2026-04-28T06:27:42.444Z</time></trkpt><trkpt lat="44.3541206" lon="7.807782"><ele>473.5</ele><time>2026-04-28T06:27:43.444Z</time></trkpt><trkpt lat="44.3541103" lon="7.808112"><ele>475.0</ele><time>2026-04-28T06:27:44.443Z</time></trkpt><trkpt lat="44.3540842" lon="7.8084434"><ele>478.5</ele><time>2026-04-28T06:27:45.444Z</time></trkpt><trkpt lat="44.3540428" lon="7.8087724"><ele>482.0</ele><time>2026-04-28T06:27:46.444Z</time></trkpt><trkpt lat="44.3539886" lon="7.8090988"><ele>483.5</ele><time>2026-04-28T06:27:47.444Z</time></trkpt><trkpt lat="44.3539241" lon="7.8094221"><ele>485.0</ele><time>2026-04-28T06:27:48.444Z</time></trkpt><trkpt lat="44.3538571" lon="7.8097457"><ele>485.0</ele><time>2026-04-28T06:27:49.444Z</time></trkpt><trkpt lat="44.3537913" lon="7.8100702"><ele>485.0</ele><time>2026-04-28T06:27:50.443Z</time></trkpt><trkpt lat="44.3537286" lon="7.8103979"><ele>482.5</ele><time>2026-04-28T06:27:51.444Z</time></trkpt><trkpt lat="44.3536644" lon="7.810721"><ele>480.0</ele><time>2026-04-28T06:27:52.443Z</time></trkpt><trkpt lat="44.3536026" lon="7.8110437"><ele>479.5</ele><time>2026-04-28T06:27:53.444Z</time></trkpt><trkpt lat="44.353537" lon="7.8113719"><ele>479.0</ele><time>2026-04-28T06:27:54.444Z</time></trkpt><trkpt lat="44.3534677" lon="7.8117021"><ele>480.0</ele><time>2026-04-28T06:27:55.444Z</time></trkpt><trkpt lat="44.3533996" lon="7.8120343"><ele>481.0</ele><time>2026-04-28T06:27:56.444Z</time></trkpt><trkpt lat="44.3533259" lon="7.8123663"><ele>485.0</ele><time>2026-04-28T06:27:57.443Z</time></trkpt><trkpt lat="44.3532586" lon="7.8127007"><ele>489.0</ele><time>2026-04-28T06:27:58.443Z</time></trkpt><trkpt lat="44.3531891" lon="7.8130329"><ele>489.0</ele><time>2026-04-28T06:27:59.444Z</time></trkpt><trkpt lat="44.3531186" lon="7.8133644"><ele>489.0</ele><time>2026-04-28T06:28:00.444Z</time></trkpt><trkpt lat="44.3530489" lon="7.8136986"><ele>486.0</ele><time>2026-04-28T06:28:01.443Z</time></trkpt><trkpt lat="44.352981" lon="7.8140333"><ele>483.0</ele><time>2026-04-28T06:28:02.444Z</time></trkpt><trkpt lat="44.3529151" lon="7.8143682"><ele>483.0</ele><time>2026-04-28T06:28:03.444Z</time></trkpt><trkpt lat="44.3528522" lon="7.8147023"><ele>483.0</ele><time>2026-04-28T06:28:04.444Z</time></trkpt><trkpt lat="44.3527858" lon="7.8150325"><ele>485.5</ele><time>2026-04-28T06:28:05.444Z</time></trkpt><trkpt lat="44.3527205" lon="7.8153615"><ele>488.0</ele><time>2026-04-28T06:28:06.444Z</time></trkpt><trkpt lat="44.3526546" lon="7.8156875"><ele>488.5</ele><time>2026-04-28T06:28:07.444Z</time></trkpt><trkpt lat="44.3525919" lon="7.8160084"><ele>489.0</ele><time>2026-04-28T06:28:08.444Z</time></trkpt><trkpt lat="44.3525319" lon="7.8163221"><ele>489.0</ele><time>2026-04-28T06:28:09.442Z</time></trkpt><trkpt lat="44.3524695" lon="7.8166268"><ele>489.0</ele><time>2026-04-28T06:28:10.444Z</time></trkpt><trkpt lat="44.3523971" lon="7.8169192"><ele>489.0</ele><time>2026-04-28T06:28:11.443Z</time></trkpt><trkpt lat="44.3523072" lon="7.8171957"><ele>488.33333333333337</ele><time>2026-04-28T06:28:12.444Z</time></trkpt><trkpt lat="44.3521925" lon="7.8174511"><ele>487.6666666666667</ele><time>2026-04-28T06:28:13.444Z</time></trkpt><trkpt lat="44.3520527" lon="7.8176811"><ele>487.0</ele><time>2026-04-28T06:28:14.443Z</time></trkpt><trkpt lat="44.3518972" lon="7.8178836"><ele>488.6666666666667</ele><time>2026-04-28T06:28:15.444Z</time></trkpt><trkpt lat="44.3517398" lon="7.8180789"><ele>490.33333333333337</ele><time>2026-04-28T06:28:16.443Z</time></trkpt><trkpt lat="44.3515876" lon="7.8182871"><ele>492.0</ele><time>2026-04-28T06:28:17.443Z</time></trkpt><trkpt lat="44.3514357" lon="7.818502"><ele>492.0</ele><time>2026-04-28T06:28:18.443Z</time></trkpt><trkpt lat="44.3512718" lon="7.8187074"><ele>492.0</ele><time>2026-04-28T06:28:19.442Z</time></trkpt><trkpt lat="44.3510986" lon="7.8188984"><ele>492.0</ele><time>2026-04-28T06:28:20.443Z</time></trkpt><trkpt lat="44.3509081" lon="7.8190589"><ele>492.0</ele><time>2026-04-28T06:28:21.444Z</time></trkpt><trkpt lat="44.3506984" lon="7.8191699"><ele>492.0</ele><time>2026-04-28T06:28:22.444Z</time></trkpt><trkpt lat="44.3504824" lon="7.8192484"><ele>492.0</ele><time>2026-04-28T06:28:23.444Z</time></trkpt><trkpt lat="44.3502673" lon="7.8193235"><ele>497.33333333333337</ele><time>2026-04-28T06:28:24.444Z</time></trkpt><trkpt lat="44.3500517" lon="7.8194019"><ele>502.6666666666667</ele><time>2026-04-28T06:28:25.444Z</time></trkpt><trkpt lat="44.3498355" lon="7.819484"><ele>508.0</ele><time>2026-04-28T06:28:26.443Z</time></trkpt><trkpt lat="44.3496186" lon="7.8195695"><ele>508.0</ele><time>2026-04-28T06:28:27.443Z</time></trkpt><trkpt lat="44.3494016" lon="7.8196531"><ele>508.0</ele><time>2026-04-28T06:28:28.443Z</time></trkpt><trkpt lat="44.3491844" lon="7.8197303"><ele>508.0</ele><time>2026-04-28T06:28:29.444Z</time></trkpt><trkpt lat="44.3489675" lon="7.8198112"><ele>507.0</ele><time>2026-04-28T06:28:30.443Z</time></trkpt><trkpt lat="44.3487503" lon="7.8198975"><ele>506.0</ele><time>2026-04-28T06:28:31.443Z</time></trkpt><trkpt lat="44.3485342" lon="7.8199901"><ele>506.0</ele><time>2026-04-28T06:28:32.443Z</time></trkpt><trkpt lat="44.348325" lon="7.8201026"><ele>506.0</ele><time>2026-04-28T06:28:33.443Z</time></trkpt><trkpt lat="44.3481319" lon="7.8202406"><ele>506.0</ele><time>2026-04-28T06:28:34.442Z</time></trkpt><trkpt lat="44.3479592" lon="7.8204022"><ele>506.66666666666663</ele><time>2026-04-28T06:28:35.444Z</time></trkpt><trkpt lat="44.3477973" lon="7.8205716"><ele>507.33333333333337</ele><time>2026-04-28T06:28:36.444Z</time></trkpt><trkpt lat="44.3476442" lon="7.8207419"><ele>508.0</ele><time>2026-04-28T06:28:37.444Z</time></trkpt><trkpt lat="44.3474949" lon="7.8209095"><ele>507.33333333333337</ele><time>2026-04-28T06:28:38.444Z</time></trkpt><trkpt lat="44.347343" lon="7.8210714"><ele>506.66666666666663</ele><time>2026-04-28T06:28:39.444Z</time></trkpt><trkpt lat="44.3471921" lon="7.8212276"><ele>506.0</ele><time>2026-04-28T06:28:40.443Z</time></trkpt><trkpt lat="44.3470498" lon="7.8213755"><ele>506.0</ele><time>2026-04-28T06:28:41.443Z</time></trkpt><trkpt lat="44.3469206" lon="7.8215104"><ele>506.0</ele><time>2026-04-28T06:28:42.444Z</time></trkpt><trkpt lat="44.3468056" lon="7.8216286"><ele>506.0</ele><time>2026-04-28T06:28:43.443Z</time></trkpt><trkpt lat="44.3467092" lon="7.8217276"><ele>506.0</ele><time>2026-04-28T06:28:44.444Z</time></trkpt><trkpt lat="44.3466269" lon="7.8218188"><ele>506.8</ele><time>2026-04-28T06:28:45.444Z</time></trkpt><trkpt lat="44.3465559" lon="7.8219073"><ele>507.6</ele><time>2026-04-28T06:28:46.444Z</time></trkpt><trkpt lat="44.3465012" lon="7.8220027"><ele>508.4</ele><time>2026-04-28T06:28:47.443Z</time></trkpt><trkpt lat="44.3464784" lon="7.8220927"><ele>509.2</ele><time>2026-04-28T06:28:48.444Z</time></trkpt><trkpt lat="44.3464654" lon="7.8222215"><ele>510.0</ele><time>2026-04-28T06:28:50.444Z</time></trkpt><trkpt lat="44.3465114" lon="7.822359"><ele>510.0</ele><time>2026-04-28T06:28:52.443Z</time></trkpt><trkpt lat="44.3465825" lon="7.822453"><ele>510.0</ele><time>2026-04-28T06:28:53.444Z</time></trkpt><trkpt lat="44.3466787" lon="7.8225474"><ele>510.0</ele><time>2026-04-28T06:28:54.442Z</time></trkpt><trkpt lat="44.3467897" lon="7.8226394"><ele>510.0</ele><time>2026-04-28T06:28:55.443Z</time></trkpt><trkpt lat="44.3469199" lon="7.8227378"><ele>510.66666666666663</ele><time>2026-04-28T06:28:56.444Z</time></trkpt><trkpt lat="44.3470669" lon="7.822848"><ele>511.3333333333333</ele><time>2026-04-28T06:28:57.444Z</time></trkpt><trkpt lat="44.3472239" lon="7.8229646"><ele>512.0</ele><time>2026-04-28T06:28:58.443Z</time></trkpt><trkpt lat="44.3473894" lon="7.8230813"><ele>514.0</ele><time>2026-04-28T06:28:59.444Z</time></trkpt><trkpt lat="44.3475625" lon="7.8232022"><ele>516.0</ele><time>2026-04-28T06:29:00.444Z</time></trkpt><trkpt lat="44.3477442" lon="7.8233241"><ele>518.0</ele><time>2026-04-28T06:29:01.443Z</time></trkpt><trkpt lat="44.3479329" lon="7.8234457"><ele>519.0</ele><time>2026-04-28T06:29:02.443Z</time></trkpt><trkpt lat="44.3481286" lon="7.8235453"><ele>520.0</ele><time>2026-04-28T06:29:03.444Z</time></trkpt><trkpt lat="44.3483375" lon="7.8235829"><ele>521.0</ele><time>2026-04-28T06:29:04.444Z</time></trkpt><trkpt lat="44.34855" lon="7.8235701"><ele>521.0</ele><time>2026-04-28T06:29:05.443Z</time></trkpt><trkpt lat="44.348759" lon="7.8235188"><ele>521.0</ele><time>2026-04-28T06:29:06.443Z</time></trkpt><trkpt lat="44.3489623" lon="7.8234417"><ele>521.0</ele><time>2026-04-28T06:29:07.444Z</time></trkpt><trkpt lat="44.3491595" lon="7.8233783"><ele>522.0</ele><time>2026-04-28T06:29:08.443Z</time></trkpt><trkpt lat="44.3493462" lon="7.8233431"><ele>523.0</ele><time>2026-04-28T06:29:09.442Z</time></trkpt><trkpt lat="44.3495236" lon="7.8233826"><ele>524.0</ele><time>2026-04-28T06:29:10.444Z</time></trkpt><trkpt lat="44.3496924" lon="7.8234615"><ele>527.3333333333333</ele><time>2026-04-28T06:29:11.443Z</time></trkpt><trkpt lat="44.3498407" lon="7.8235858"><ele>530.6666666666666</ele><time>2026-04-28T06:29:12.444Z</time></trkpt><trkpt lat="44.3499814" lon="7.8237346"><ele>534.0</ele><time>2026-04-28T06:29:13.444Z</time></trkpt><trkpt lat="44.3501127" lon="7.8238995"><ele>534.0</ele><time>2026-04-28T06:29:14.444Z</time></trkpt><trkpt lat="44.3502463" lon="7.824085"><ele>534.0</ele><time>2026-04-28T06:29:15.443Z</time></trkpt><trkpt lat="44.3503746" lon="7.8242697"><ele>534.0</ele><time>2026-04-28T06:29:16.444Z</time></trkpt><trkpt lat="44.3505018" lon="7.8244642"><ele>537.0</ele><time>2026-04-28T06:29:17.443Z</time></trkpt><trkpt lat="44.3506247" lon="7.8246701"><ele>540.0</ele><time>2026-04-28T06:29:18.444Z</time></trkpt><trkpt lat="44.3507349" lon="7.8248873"><ele>543.0</ele><time>2026-04-28T06:29:19.444Z</time></trkpt><trkpt lat="44.3508475" lon="7.8250977"><ele>546.3333333333334</ele><time>2026-04-28T06:29:20.443Z</time></trkpt><trkpt lat="44.3509659" lon="7.825304"><ele>549.6666666666667</ele><time>2026-04-28T06:29:21.444Z</time></trkpt><trkpt lat="44.3510904" lon="7.8254991"><ele>553.0</ele><time>2026-04-28T06:29:22.443Z</time></trkpt><trkpt lat="44.3512183" lon="7.825657"><ele>553.0</ele><time>2026-04-28T06:29:23.443Z</time></trkpt><trkpt lat="44.3513488" lon="7.8257863"><ele>553.0</ele><time>2026-04-28T06:29:24.444Z</time></trkpt><trkpt lat="44.3514707" lon="7.8258968"><ele>553.0</ele><time>2026-04-28T06:29:25.443Z</time></trkpt><trkpt lat="44.3515786" lon="7.8259832"><ele>553.0</ele><time>2026-04-28T06:29:26.443Z</time></trkpt><trkpt lat="44.3516727" lon="7.8260459"><ele>553.0</ele><time>2026-04-28T06:29:27.444Z</time></trkpt><trkpt lat="44.3517416" lon="7.8260989"><ele>553.0</ele><time>2026-04-28T06:29:28.444Z</time></trkpt><trkpt lat="44.351793" lon="7.8261686"><ele>553.0</ele><time>2026-04-28T06:29:29.444Z</time></trkpt><trkpt lat="44.3518346" lon="7.8262643"><ele>553.0</ele><time>2026-04-28T06:29:30.443Z</time></trkpt><trkpt lat="44.3518816" lon="7.8263813"><ele>553.0</ele><time>2026-04-28T06:29:31.443Z</time></trkpt><trkpt lat="44.3519405" lon="7.8264964"><ele>553.0</ele><time>2026-04-28T06:29:32.443Z</time></trkpt><trkpt lat="44.3520281" lon="7.8265909"><ele>553.0</ele><time>2026-04-28T06:29:33.444Z</time></trkpt><trkpt lat="44.352146" lon="7.8266644"><ele>553.0</ele><time>2026-04-28T06:29:34.444Z</time></trkpt><trkpt lat="44.3522843" lon="7.8267181"><ele>553.0</ele><time>2026-04-28T06:29:35.444Z</time></trkpt><trkpt lat="44.3524362" lon="7.8267698"><ele>553.0</ele><time>2026-04-28T06:29:36.443Z</time></trkpt><trkpt lat="44.3525931" lon="7.8268059"><ele>548.0</ele><time>2026-04-28T06:29:37.444Z</time></trkpt><trkpt lat="44.3527505" lon="7.8268489"><ele>543.0</ele><time>2026-04-28T06:29:38.444Z</time></trkpt><trkpt lat="44.3529146" lon="7.826903"><ele>538.0</ele><time>2026-04-28T06:29:39.443Z</time></trkpt><trkpt lat="44.3530737" lon="7.8269569"><ele>538.0</ele><time>2026-04-28T06:29:40.442Z</time></trkpt><trkpt lat="44.3532213" lon="7.8269919"><ele>538.0</ele><time>2026-04-28T06:29:41.444Z</time></trkpt><trkpt lat="44.3533614" lon="7.827009"><ele>538.0</ele><time>2026-04-28T06:29:42.443Z</time></trkpt><trkpt lat="44.3534845" lon="7.8269466"><ele>538.0</ele><time>2026-04-28T06:29:43.444Z</time></trkpt><trkpt lat="44.3535904" lon="7.8268635"><ele>541.5</ele><time>2026-04-28T06:29:44.443Z</time></trkpt><trkpt lat="44.3536771" lon="7.826745"><ele>545.0</ele><time>2026-04-28T06:29:45.443Z</time></trkpt><trkpt lat="44.3537518" lon="7.8266279"><ele>548.5</ele><time>2026-04-28T06:29:46.444Z</time></trkpt><trkpt lat="44.3538157" lon="7.8264958"><ele>552.0</ele><time>2026-04-28T06:29:47.444Z</time></trkpt><trkpt lat="44.3538293" lon="7.8262829"><ele>552.0</ele><time>2026-04-28T06:29:48.443Z</time></trkpt><trkpt lat="44.3538441" lon="7.8260554"><ele>552.0</ele><time>2026-04-28T06:29:49.443Z</time></trkpt><trkpt lat="44.3538822" lon="7.8258403"><ele>552.0</ele><time>2026-04-28T06:29:50.444Z</time></trkpt><trkpt lat="44.3539343" lon="7.8256283"><ele>551.0</ele><time>2026-04-28T06:29:51.444Z</time></trkpt><trkpt lat="44.3539949" lon="7.8254284"><ele>550.0</ele><time>2026-04-28T06:29:52.443Z</time></trkpt><trkpt lat="44.3540727" lon="7.8252492"><ele>549.0</ele><time>2026-04-28T06:29:53.444Z</time></trkpt><trkpt lat="44.3541736" lon="7.8251063"><ele>548.0</ele><time>2026-04-28T06:29:54.444Z</time></trkpt><trkpt lat="44.3543004" lon="7.8250175"><ele>548.0</ele><time>2026-04-28T06:29:55.444Z</time></trkpt><trkpt lat="44.3544406" lon="7.8249762"><ele>548.0</ele><time>2026-04-28T06:29:56.444Z</time></trkpt><trkpt lat="44.354579" lon="7.8249456"><ele>548.0</ele><time>2026-04-28T06:29:57.443Z</time></trkpt><trkpt lat="44.3547096" lon="7.824921"><ele>548.0</ele><time>2026-04-28T06:29:58.443Z</time></trkpt><trkpt lat="44.3548264" lon="7.8248975"><ele>547.6666666666666</ele><time>2026-04-28T06:29:59.444Z</time></trkpt><trkpt lat="44.3549324" lon="7.8248848"><ele>547.3333333333333</ele><time>2026-04-28T06:30:00.443Z</time></trkpt><trkpt lat="44.3550208" lon="7.8248903"><ele>547.0</ele><time>2026-04-28T06:30:01.444Z</time></trkpt><trkpt lat="44.3550958" lon="7.8249189"><ele>546.6666666666666</ele><time>2026-04-28T06:30:02.444Z</time></trkpt><trkpt lat="44.3551656" lon="7.8249708"><ele>546.3333333333334</ele><time>2026-04-28T06:30:03.444Z</time></trkpt><trkpt lat="44.3552266" lon="7.8250619"><ele>546.0</ele><time>2026-04-28T06:30:04.443Z</time></trkpt><trkpt lat="44.3552754" lon="7.8251945"><ele>544.0</ele><time>2026-04-28T06:30:05.444Z</time></trkpt><trkpt lat="44.3553051" lon="7.8253438"><ele>542.0</ele><time>2026-04-28T06:30:06.444Z</time></trkpt><trkpt lat="44.3553158" lon="7.8255032"><ele>540.0</ele><time>2026-04-28T06:30:07.444Z</time></trkpt><trkpt lat="44.3553119" lon="7.8256678"><ele>538.0</ele><time>2026-04-28T06:30:08.444Z</time></trkpt><trkpt lat="44.3553077" lon="7.8258337"><ele>536.25</ele><time>2026-04-28T06:30:09.443Z</time></trkpt><trkpt lat="44.3553146" lon="7.8260024"><ele>534.5</ele><time>2026-04-28T06:30:10.444Z</time></trkpt><trkpt lat="44.3553365" lon="7.8261695"><ele>532.75</ele><time>2026-04-28T06:30:11.444Z</time></trkpt><trkpt lat="44.3553881" lon="7.8263433"><ele>531.0</ele><time>2026-04-28T06:30:12.444Z</time></trkpt><trkpt lat="44.3554687" lon="7.8265423"><ele>531.6666666666666</ele><time>2026-04-28T06:30:13.443Z</time></trkpt><trkpt lat="44.3555519" lon="7.8267639"><ele>532.3333333333333</ele><time>2026-04-28T06:30:14.444Z</time></trkpt><trkpt lat="44.3556342" lon="7.827"><ele>533.0</ele><time>2026-04-28T06:30:15.444Z</time></trkpt><trkpt lat="44.355711" lon="7.8272368"><ele>533.0</ele><time>2026-04-28T06:30:16.444Z</time></trkpt><trkpt lat="44.3557922" lon="7.8274803"><ele>533.0</ele><time>2026-04-28T06:30:17.444Z</time></trkpt><trkpt lat="44.3558731" lon="7.8277106"><ele>533.0</ele><time>2026-04-28T06:30:18.442Z</time></trkpt><trkpt lat="44.3559468" lon="7.8279303"><ele>531.8</ele><time>2026-04-28T06:30:19.442Z</time></trkpt><trkpt lat="44.3560052" lon="7.8281236"><ele>530.5999999999999</ele><time>2026-04-28T06:30:20.444Z</time></trkpt><trkpt lat="44.3560537" lon="7.828284"><ele>529.4000000000001</ele><time>2026-04-28T06:30:21.444Z</time></trkpt><trkpt lat="44.3560993" lon="7.8283998"><ele>528.2</ele><time>2026-04-28T06:30:22.444Z</time></trkpt><trkpt lat="44.3561579" lon="7.8284707"><ele>527.0</ele><time>2026-04-28T06:30:23.442Z</time></trkpt><trkpt lat="44.3562418" lon="7.8285023"><ele>527.0</ele><time>2026-04-28T06:30:24.443Z</time></trkpt><trkpt lat="44.3563255" lon="7.8284755"><ele>527.0</ele><time>2026-04-28T06:30:25.444Z</time></trkpt><trkpt lat="44.3563939" lon="7.8283964"><ele>527.0</ele><time>2026-04-28T06:30:26.443Z</time></trkpt><trkpt lat="44.3564268" lon="7.8282771"><ele>527.0</ele><time>2026-04-28T06:30:27.442Z</time></trkpt><trkpt lat="44.3564252" lon="7.8281225"><ele>527.0</ele><time>2026-04-28T06:30:28.444Z</time></trkpt><trkpt lat="44.3564224" lon="7.8279571"><ele>526.5</ele><time>2026-04-28T06:30:29.444Z</time></trkpt><trkpt lat="44.3564595" lon="7.8278025"><ele>526.0</ele><time>2026-04-28T06:30:30.444Z</time></trkpt><trkpt lat="44.3565285" lon="7.8276578"><ele>525.5</ele><time>2026-04-28T06:30:31.444Z</time></trkpt><trkpt lat="44.3566212" lon="7.8275164"><ele>525.0</ele><time>2026-04-28T06:30:32.444Z</time></trkpt><trkpt lat="44.356742" lon="7.8273788"><ele>525.0</ele><time>2026-04-28T06:30:33.443Z</time></trkpt><trkpt lat="44.3568771" lon="7.8272512"><ele>525.0</ele><time>2026-04-28T06:30:34.442Z</time></trkpt><trkpt lat="44.3569979" lon="7.8271252"><ele>525.0</ele><time>2026-04-28T06:30:35.444Z</time></trkpt><trkpt lat="44.3571039" lon="7.8270062"><ele>525.0</ele><time>2026-04-28T06:30:36.444Z</time></trkpt><trkpt lat="44.3571953" lon="7.826918"><ele>525.0</ele><time>2026-04-28T06:30:37.444Z</time></trkpt><trkpt lat="44.3572738" lon="7.8268646"><ele>525.0</ele><time>2026-04-28T06:30:38.444Z</time></trkpt><trkpt lat="44.3573579" lon="7.8268519"><ele>525.0</ele><time>2026-04-28T06:30:39.443Z</time></trkpt><trkpt lat="44.3574429" lon="7.8268919"><ele>525.0</ele><time>2026-04-28T06:30:40.443Z</time></trkpt><trkpt lat="44.3575055" lon="7.8269851"><ele>523.0</ele><time>2026-04-28T06:30:41.444Z</time></trkpt><trkpt lat="44.3575468" lon="7.8271124"><ele>521.0</ele><time>2026-04-28T06:30:42.443Z</time></trkpt><trkpt lat="44.3575628" lon="7.8272788"><ele>519.0</ele><time>2026-04-28T06:30:43.444Z</time></trkpt><trkpt lat="44.3575448" lon="7.82748"><ele>517.0</ele><time>2026-04-28T06:30:44.443Z</time></trkpt><trkpt lat="44.3575166" lon="7.8277001"><ele>515.3333333333334</ele><time>2026-04-28T06:30:45.443Z</time></trkpt><trkpt lat="44.3574917" lon="7.8279266"><ele>513.6666666666666</ele><time>2026-04-28T06:30:46.444Z</time></trkpt><trkpt lat="44.3574761" lon="7.8281754"><ele>512.0</ele><time>2026-04-28T06:30:47.444Z</time></trkpt><trkpt lat="44.3574653" lon="7.8284317"><ele>510.0</ele><time>2026-04-28T06:30:48.444Z</time></trkpt><trkpt lat="44.3574638" lon="7.8286995"><ele>508.0</ele><time>2026-04-28T06:30:49.444Z</time></trkpt><trkpt lat="44.3574736" lon="7.82898"><ele>506.0</ele><time>2026-04-28T06:30:50.443Z</time></trkpt><trkpt lat="44.357502" lon="7.8292686"><ele>503.3333333333333</ele><time>2026-04-28T06:30:51.444Z</time></trkpt><trkpt lat="44.357538" lon="7.8295431"><ele>500.66666666666663</ele><time>2026-04-28T06:30:52.442Z</time></trkpt><trkpt lat="44.3575926" lon="7.8298259"><ele>498.0</ele><time>2026-04-28T06:30:53.442Z</time></trkpt><trkpt lat="44.3576549" lon="7.8301038"><ele>496.33333333333337</ele><time>2026-04-28T06:30:54.444Z</time></trkpt><trkpt lat="44.3577361" lon="7.8303706"><ele>494.6666666666667</ele><time>2026-04-28T06:30:55.444Z</time></trkpt><trkpt lat="44.357844" lon="7.8306266"><ele>493.0</ele><time>2026-04-28T06:30:56.444Z</time></trkpt><trkpt lat="44.35797" lon="7.8308636"><ele>491.33333333333337</ele><time>2026-04-28T06:30:57.444Z</time></trkpt><trkpt lat="44.3581152" lon="7.8310866"><ele>489.66666666666663</ele><time>2026-04-28T06:30:58.444Z</time></trkpt><trkpt lat="44.3582673" lon="7.8313099"><ele>488.0</ele><time>2026-04-28T06:30:59.443Z</time></trkpt><trkpt lat="44.3584192" lon="7.8315295"><ele>488.0</ele><time>2026-04-28T06:31:00.442Z</time></trkpt><trkpt lat="44.358563" lon="7.8317584"><ele>488.0</ele><time>2026-04-28T06:31:01.444Z</time></trkpt><trkpt lat="44.3586988" lon="7.8319956"><ele>488.0</ele><time>2026-04-28T06:31:02.443Z</time></trkpt><trkpt lat="44.3588344" lon="7.8322379"><ele>486.66666666666663</ele><time>2026-04-28T06:31:03.443Z</time></trkpt><trkpt lat="44.3589637" lon="7.8324729"><ele>485.33333333333337</ele><time>2026-04-28T06:31:04.444Z</time></trkpt><trkpt lat="44.3590871" lon="7.8327023"><ele>484.0</ele><time>2026-04-28T06:31:05.444Z</time></trkpt><trkpt lat="44.3592101" lon="7.8329318"><ele>482.6666666666667</ele><time>2026-04-28T06:31:06.442Z</time></trkpt><trkpt lat="44.359326" lon="7.8331472"><ele>481.33333333333337</ele><time>2026-04-28T06:31:07.443Z</time></trkpt><trkpt lat="44.3594413" lon="7.8333619"><ele>480.0</ele><time>2026-04-28T06:31:08.444Z</time></trkpt><trkpt lat="44.3595513" lon="7.8335683"><ele>479.33333333333337</ele><time>2026-04-28T06:31:09.443Z</time></trkpt><trkpt lat="44.3596609" lon="7.8337647"><ele>478.6666666666667</ele><time>2026-04-28T06:31:10.444Z</time></trkpt><trkpt lat="44.3597578" lon="7.8339399"><ele>478.0</ele><time>2026-04-28T06:31:11.444Z</time></trkpt><trkpt lat="44.3598419" lon="7.8340952"><ele>477.4</ele><time>2026-04-28T06:31:12.442Z</time></trkpt><trkpt lat="44.3599013" lon="7.8342178"><ele>476.79999999999995</ele><time>2026-04-28T06:31:13.443Z</time></trkpt><trkpt lat="44.3599182" lon="7.8343603"><ele>476.2</ele><time>2026-04-28T06:31:15.443Z</time></trkpt><trkpt lat="44.3598307" lon="7.8344525"><ele>475.6</ele><time>2026-04-28T06:31:17.443Z</time></trkpt><trkpt lat="44.3597448" lon="7.8344943"><ele>475.0</ele><time>2026-04-28T06:31:18.444Z</time></trkpt><trkpt lat="44.359635" lon="7.834547"><ele>474.75</ele><time>2026-04-28T06:31:19.443Z</time></trkpt><trkpt lat="44.359505" lon="7.8346116"><ele>474.5</ele><time>2026-04-28T06:31:20.444Z</time></trkpt><trkpt lat="44.3593607" lon="7.8346682"><ele>474.25</ele><time>2026-04-28T06:31:21.444Z</time></trkpt><trkpt lat="44.359224" lon="7.8347282"><ele>474.0</ele><time>2026-04-28T06:31:22.443Z</time></trkpt><trkpt lat="44.3590667" lon="7.8348011"><ele>474.0</ele><time>2026-04-28T06:31:23.443Z</time></trkpt><trkpt lat="44.3589058" lon="7.8348851"><ele>474.0</ele><time>2026-04-28T06:31:24.444Z</time></trkpt><trkpt lat="44.358753" lon="7.8349971"><ele>474.0</ele><time>2026-04-28T06:31:25.444Z</time></trkpt><trkpt lat="44.3586208" lon="7.8351507"><ele>472.66666666666663</ele><time>2026-04-28T06:31:26.443Z</time></trkpt><trkpt lat="44.3585042" lon="7.8353382"><ele>471.3333333333333</ele><time>2026-04-28T06:31:27.444Z</time></trkpt><trkpt lat="44.3583826" lon="7.8355447"><ele>470.0</ele><time>2026-04-28T06:31:28.444Z</time></trkpt><trkpt lat="44.3583049" lon="7.8358152"><ele>470.0</ele><time>2026-04-28T06:31:29.444Z</time></trkpt><trkpt lat="44.358241" lon="7.8361053"><ele>470.0</ele><time>2026-04-28T06:31:30.444Z</time></trkpt><trkpt lat="44.3581581" lon="7.8363923"><ele>470.0</ele><time>2026-04-28T06:31:31.443Z</time></trkpt><trkpt lat="44.3580708" lon="7.8366835"><ele>471.0</ele><time>2026-04-28T06:31:32.444Z</time></trkpt><trkpt lat="44.3579793" lon="7.8369762"><ele>472.0</ele><time>2026-04-28T06:31:33.442Z</time></trkpt><trkpt lat="44.357887" lon="7.8372708"><ele>472.0</ele><time>2026-04-28T06:31:34.444Z</time></trkpt><trkpt lat="44.3577971" lon="7.8375639"><ele>472.0</ele><time>2026-04-28T06:31:35.443Z</time></trkpt><trkpt lat="44.3577086" lon="7.8378542"><ele>474.5</ele><time>2026-04-28T06:31:36.444Z</time></trkpt><trkpt lat="44.3576165" lon="7.8381501"><ele>477.0</ele><time>2026-04-28T06:31:37.444Z</time></trkpt><trkpt lat="44.3575169" lon="7.8384373"><ele>478.0</ele><time>2026-04-28T06:31:38.443Z</time></trkpt><trkpt lat="44.3574194" lon="7.8387295"><ele>479.0</ele><time>2026-04-28T06:31:39.444Z</time></trkpt><trkpt lat="44.3573199" lon="7.8390217"><ele>478.0</ele><time>2026-04-28T06:31:40.443Z</time></trkpt><trkpt lat="44.3572171" lon="7.8393216"><ele>477.0</ele><time>2026-04-28T06:31:41.444Z</time></trkpt><trkpt lat="44.3571194" lon="7.8396223"><ele>477.0</ele><time>2026-04-28T06:31:42.444Z</time></trkpt><trkpt lat="44.3570174" lon="7.8399199"><ele>477.0</ele><time>2026-04-28T06:31:43.443Z</time></trkpt><trkpt lat="44.3569103" lon="7.8402289"><ele>478.5</ele><time>2026-04-28T06:31:44.443Z</time></trkpt><trkpt lat="44.3568071" lon="7.8405374"><ele>480.0</ele><time>2026-04-28T06:31:45.443Z</time></trkpt><trkpt lat="44.3567044" lon="7.840846"><ele>483.5</ele><time>2026-04-28T06:31:46.443Z</time></trkpt><trkpt lat="44.3565942" lon="7.8411534"><ele>487.0</ele><time>2026-04-28T06:31:47.444Z</time></trkpt><trkpt lat="44.3564962" lon="7.8414607"><ele>487.0</ele><time>2026-04-28T06:31:48.444Z</time></trkpt><trkpt lat="44.3564088" lon="7.8417853"><ele>487.0</ele><time>2026-04-28T06:31:49.444Z</time></trkpt><trkpt lat="44.3563529" lon="7.8421142"><ele>485.5</ele><time>2026-04-28T06:31:50.443Z</time></trkpt><trkpt lat="44.3563281" lon="7.8424453"><ele>484.0</ele><time>2026-04-28T06:31:51.442Z</time></trkpt><trkpt lat="44.3563457" lon="7.8427817"><ele>487.5</ele><time>2026-04-28T06:31:52.443Z</time></trkpt><trkpt lat="44.3563959" lon="7.8431071"><ele>491.0</ele><time>2026-04-28T06:31:53.444Z</time></trkpt><trkpt lat="44.3564717" lon="7.8434304"><ele>491.0</ele><time>2026-04-28T06:31:54.443Z</time></trkpt><trkpt lat="44.356558" lon="7.8437465"><ele>491.0</ele><time>2026-04-28T06:31:55.444Z</time></trkpt><trkpt lat="44.3566474" lon="7.8440584"><ele>490.0</ele><time>2026-04-28T06:31:56.444Z</time></trkpt><trkpt lat="44.3567343" lon="7.8443756"><ele>489.0</ele><time>2026-04-28T06:31:57.444Z</time></trkpt><trkpt lat="44.3568229" lon="7.8446945"><ele>489.0</ele><time>2026-04-28T06:31:58.444Z</time></trkpt><trkpt lat="44.3569161" lon="7.8450161"><ele>489.0</ele><time>2026-04-28T06:31:59.444Z</time></trkpt><trkpt lat="44.3570078" lon="7.845338"><ele>489.5</ele><time>2026-04-28T06:32:00.444Z</time></trkpt><trkpt lat="44.3571003" lon="7.8456586"><ele>490.0</ele><time>2026-04-28T06:32:01.444Z</time></trkpt><trkpt lat="44.3571932" lon="7.8459797"><ele>490.5</ele><time>2026-04-28T06:32:02.443Z</time></trkpt><trkpt lat="44.3572866" lon="7.8463077"><ele>491.0</ele><time>2026-04-28T06:32:03.444Z</time></trkpt><trkpt lat="44.3573857" lon="7.8466316"><ele>490.5</ele><time>2026-04-28T06:32:04.443Z</time></trkpt><trkpt lat="44.3574828" lon="7.8469545"><ele>490.0</ele><time>2026-04-28T06:32:05.444Z</time></trkpt><trkpt lat="44.3575813" lon="7.8472832"><ele>490.0</ele><time>2026-04-28T06:32:06.444Z</time></trkpt><trkpt lat="44.3576762" lon="7.8476094"><ele>490.0</ele><time>2026-04-28T06:32:07.444Z</time></trkpt><trkpt lat="44.3577727" lon="7.8479361"><ele>489.5</ele><time>2026-04-28T06:32:08.443Z</time></trkpt><trkpt lat="44.3578675" lon="7.8482654"><ele>489.0</ele><time>2026-04-28T06:32:09.443Z</time></trkpt><trkpt lat="44.3579631" lon="7.8485961"><ele>492.0</ele><time>2026-04-28T06:32:10.443Z</time></trkpt><trkpt lat="44.3580596" lon="7.8489237"><ele>495.0</ele><time>2026-04-28T06:32:11.443Z</time></trkpt><trkpt lat="44.3581515" lon="7.8492526"><ele>494.5</ele><time>2026-04-28T06:32:12.444Z</time></trkpt><trkpt lat="44.358245" lon="7.849579"><ele>494.0</ele><time>2026-04-28T06:32:13.444Z</time></trkpt><trkpt lat="44.3583378" lon="7.8499026"><ele>494.0</ele><time>2026-04-28T06:32:14.443Z</time></trkpt><trkpt lat="44.3584306" lon="7.8502253"><ele>494.0</ele><time>2026-04-28T06:32:15.444Z</time></trkpt><trkpt lat="44.3585222" lon="7.8505461"><ele>494.0</ele><time>2026-04-28T06:32:16.442Z</time></trkpt><trkpt lat="44.3586128" lon="7.8508639"><ele>494.0</ele><time>2026-04-28T06:32:17.443Z</time></trkpt><trkpt lat="44.3587061" lon="7.8511781"><ele>494.0</ele><time>2026-04-28T06:32:18.443Z</time></trkpt><trkpt lat="44.3587964" lon="7.8514933"><ele>494.0</ele><time>2026-04-28T06:32:19.444Z</time></trkpt><trkpt lat="44.3588866" lon="7.8518067"><ele>497.5</ele><time>2026-04-28T06:32:20.444Z</time></trkpt><trkpt lat="44.3589771" lon="7.8521178"><ele>501.0</ele><time>2026-04-28T06:32:21.443Z</time></trkpt><trkpt lat="44.359067" lon="7.8524282"><ele>499.5</ele><time>2026-04-28T06:32:22.444Z</time></trkpt><trkpt lat="44.3591562" lon="7.8527367"><ele>498.0</ele><time>2026-04-28T06:32:23.444Z</time></trkpt><trkpt lat="44.3592456" lon="7.8530441"><ele>498.0</ele><time>2026-04-28T06:32:24.443Z</time></trkpt><trkpt lat="44.3593356" lon="7.8533494"><ele>498.0</ele><time>2026-04-28T06:32:25.444Z</time></trkpt><trkpt lat="44.3594233" lon="7.8536544"><ele>498.5</ele><time>2026-04-28T06:32:26.443Z</time></trkpt><trkpt lat="44.3595106" lon="7.8539587"><ele>499.0</ele><time>2026-04-28T06:32:27.444Z</time></trkpt><trkpt lat="44.3595967" lon="7.8542627"><ele>499.5</ele><time>2026-04-28T06:32:28.443Z</time></trkpt><trkpt lat="44.3596825" lon="7.8545647"><ele>500.0</ele><time>2026-04-28T06:32:29.444Z</time></trkpt><trkpt lat="44.3597694" lon="7.8548627"><ele>500.5</ele><time>2026-04-28T06:32:30.443Z</time></trkpt><trkpt lat="44.3598557" lon="7.8551583"><ele>501.0</ele><time>2026-04-28T06:32:31.444Z</time></trkpt><trkpt lat="44.3599407" lon="7.8554515"><ele>501.0</ele><time>2026-04-28T06:32:32.443Z</time></trkpt><trkpt lat="44.3600243" lon="7.8557424"><ele>501.0</ele><time>2026-04-28T06:32:33.443Z</time></trkpt><trkpt lat="44.3601042" lon="7.8560286"><ele>501.0</ele><time>2026-04-28T06:32:34.443Z</time></trkpt><trkpt lat="44.3601814" lon="7.8563135"><ele>501.66666666666663</ele><time>2026-04-28T06:32:35.444Z</time></trkpt><trkpt lat="44.3602573" lon="7.8565929"><ele>502.3333333333333</ele><time>2026-04-28T06:32:36.443Z</time></trkpt><trkpt lat="44.3603343" lon="7.8568687"><ele>503.0</ele><time>2026-04-28T06:32:37.444Z</time></trkpt><trkpt lat="44.360412" lon="7.8571409"><ele>503.3333333333333</ele><time>2026-04-28T06:32:38.443Z</time></trkpt><trkpt lat="44.360491" lon="7.8574091"><ele>503.66666666666663</ele><time>2026-04-28T06:32:39.444Z</time></trkpt><trkpt lat="44.3605668" lon="7.857673"><ele>504.0</ele><time>2026-04-28T06:32:40.443Z</time></trkpt><trkpt lat="44.3606409" lon="7.8579293"><ele>504.66666666666663</ele><time>2026-04-28T06:32:41.443Z</time></trkpt><trkpt lat="44.3607127" lon="7.8581773"><ele>505.3333333333333</ele><time>2026-04-28T06:32:42.444Z</time></trkpt><trkpt lat="44.3607818" lon="7.8584165"><ele>506.0</ele><time>2026-04-28T06:32:43.443Z</time></trkpt><trkpt lat="44.3608503" lon="7.858654"><ele>506.0</ele><time>2026-04-28T06:32:44.443Z</time></trkpt><trkpt lat="44.3609193" lon="7.8588917"><ele>506.0</ele><time>2026-04-28T06:32:45.444Z</time></trkpt><trkpt lat="44.3609897" lon="7.8591336"><ele>506.0</ele><time>2026-04-28T06:32:46.444Z</time></trkpt><trkpt lat="44.3610616" lon="7.8593751"><ele>506.0</ele><time>2026-04-28T06:32:47.443Z</time></trkpt><trkpt lat="44.3611354" lon="7.8596117"><ele>506.0</ele><time>2026-04-28T06:32:48.443Z</time></trkpt><trkpt lat="44.3612067" lon="7.8598375"><ele>506.0</ele><time>2026-04-28T06:32:49.444Z</time></trkpt><trkpt lat="44.3612738" lon="7.8600482"><ele>506.75</ele><time>2026-04-28T06:32:50.442Z</time></trkpt><trkpt lat="44.3613362" lon="7.8602458"><ele>507.5</ele><time>2026-04-28T06:32:51.444Z</time></trkpt><trkpt lat="44.361391" lon="7.8604327"><ele>508.25</ele><time>2026-04-28T06:32:52.444Z</time></trkpt><trkpt lat="44.3614341" lon="7.8606116"><ele>509.0</ele><time>2026-04-28T06:32:53.443Z</time></trkpt><trkpt lat="44.3614558" lon="7.8607825"><ele>509.2</ele><time>2026-04-28T06:32:54.444Z</time></trkpt><trkpt lat="44.3614589" lon="7.860942"><ele>509.4</ele><time>2026-04-28T06:32:55.444Z</time></trkpt><trkpt lat="44.3614578" lon="7.8610876"><ele>509.6</ele><time>2026-04-28T06:32:56.443Z</time></trkpt><trkpt lat="44.3614718" lon="7.8612288"><ele>509.8</ele><time>2026-04-28T06:32:57.443Z</time></trkpt><trkpt lat="44.3615127" lon="7.8613764"><ele>510.0</ele><time>2026-04-28T06:32:58.444Z</time></trkpt><trkpt lat="44.3615711" lon="7.8615351"><ele>510.0</ele><time>2026-04-28T06:32:59.443Z</time></trkpt><trkpt lat="44.3616421" lon="7.8617057"><ele>510.0</ele><time>2026-04-28T06:33:00.444Z</time></trkpt><trkpt lat="44.361718" lon="7.8618867"><ele>510.0</ele><time>2026-04-28T06:33:01.444Z</time></trkpt><trkpt lat="44.3617939" lon="7.8620789"><ele>510.0</ele><time>2026-04-28T06:33:02.445Z</time></trkpt><trkpt lat="44.3618552" lon="7.862294"><ele>511.33333333333337</ele><time>2026-04-28T06:33:03.444Z</time></trkpt><trkpt lat="44.3619019" lon="7.8625382"><ele>512.6666666666667</ele><time>2026-04-28T06:33:04.444Z</time></trkpt><trkpt lat="44.3619421" lon="7.8628068"><ele>514.0</ele><time>2026-04-28T06:33:05.445Z</time></trkpt><trkpt lat="44.3619787" lon="7.8630954"><ele>517.6666666666667</ele><time>2026-04-28T06:33:06.445Z</time></trkpt><trkpt lat="44.3620056" lon="7.8633904"><ele>521.3333333333334</ele><time>2026-04-28T06:33:07.444Z</time></trkpt><trkpt lat="44.3620319" lon="7.8636852"><ele>525.0</ele><time>2026-04-28T06:33:08.444Z</time></trkpt><trkpt lat="44.3620663" lon="7.8639836"><ele>530.5</ele><time>2026-04-28T06:33:09.445Z</time></trkpt><trkpt lat="44.3621222" lon="7.8642861"><ele>536.0</ele><time>2026-04-28T06:33:10.445Z</time></trkpt><trkpt lat="44.3621967" lon="7.8645896"><ele>528.5</ele><time>2026-04-28T06:33:11.445Z</time></trkpt><trkpt lat="44.3622839" lon="7.8648918"><ele>521.0</ele><time>2026-04-28T06:33:12.445Z</time></trkpt><trkpt lat="44.3623725" lon="7.8651877"><ele>520.6666666666666</ele><time>2026-04-28T06:33:13.444Z</time></trkpt><trkpt lat="44.3624601" lon="7.865474"><ele>520.3333333333334</ele><time>2026-04-28T06:33:14.444Z</time></trkpt><trkpt lat="44.3625431" lon="7.8657584"><ele>520.0</ele><time>2026-04-28T06:33:15.445Z</time></trkpt><trkpt lat="44.3626216" lon="7.8660301"><ele>519.3333333333334</ele><time>2026-04-28T06:33:16.445Z</time></trkpt><trkpt lat="44.3626989" lon="7.8662896"><ele>518.6666666666666</ele><time>2026-04-28T06:33:17.445Z</time></trkpt><trkpt lat="44.3627836" lon="7.8665345"><ele>518.0</ele><time>2026-04-28T06:33:18.445Z</time></trkpt><trkpt lat="44.362879" lon="7.8667684"><ele>518.0</ele><time>2026-04-28T06:33:19.444Z</time></trkpt><trkpt lat="44.3629829" lon="7.8669942"><ele>518.0</ele><time>2026-04-28T06:33:20.444Z</time></trkpt><trkpt lat="44.3631098" lon="7.8671916"><ele>518.0</ele><time>2026-04-28T06:33:21.443Z</time></trkpt><trkpt lat="44.3632622" lon="7.8673618"><ele>518.0</ele><time>2026-04-28T06:33:22.444Z</time></trkpt><trkpt lat="44.3634182" lon="7.8675205"><ele>518.0</ele><time>2026-04-28T06:33:23.443Z</time></trkpt><trkpt lat="44.3635635" lon="7.8676913"><ele>518.0</ele><time>2026-04-28T06:33:24.444Z</time></trkpt><trkpt lat="44.3637113" lon="7.8678593"><ele>519.0</ele><time>2026-04-28T06:33:25.444Z</time></trkpt><trkpt lat="44.3638676" lon="7.8680132"><ele>520.0</ele><time>2026-04-28T06:33:26.445Z</time></trkpt><trkpt lat="44.3640205" lon="7.8681624"><ele>521.0</ele><time>2026-04-28T06:33:27.444Z</time></trkpt><trkpt lat="44.3641703" lon="7.8683159"><ele>525.3333333333333</ele><time>2026-04-28T06:33:28.444Z</time></trkpt><trkpt lat="44.3643181" lon="7.8684638"><ele>529.6666666666666</ele><time>2026-04-28T06:33:29.445Z</time></trkpt><trkpt lat="44.3644505" lon="7.8685978"><ele>534.0</ele><time>2026-04-28T06:33:30.445Z</time></trkpt><trkpt lat="44.3645801" lon="7.8687317"><ele>531.0</ele><time>2026-04-28T06:33:31.445Z</time></trkpt><trkpt lat="44.3647067" lon="7.8688589"><ele>528.0</ele><time>2026-04-28T06:33:32.444Z</time></trkpt><trkpt lat="44.3648287" lon="7.8689771"><ele>525.0</ele><time>2026-04-28T06:33:33.444Z</time></trkpt><trkpt lat="44.3649476" lon="7.8690872"><ele>522.0</ele><time>2026-04-28T06:33:34.445Z</time></trkpt><trkpt lat="44.3650581" lon="7.8691732"><ele>522.0</ele><time>2026-04-28T06:33:35.445Z</time></trkpt><trkpt lat="44.3651661" lon="7.8692488"><ele>522.0</ele><time>2026-04-28T06:33:36.445Z</time></trkpt><trkpt lat="44.3652637" lon="7.8693159"><ele>522.0</ele><time>2026-04-28T06:33:37.445Z</time></trkpt><trkpt lat="44.3653454" lon="7.8693843"><ele>522.0</ele><time>2026-04-28T06:33:38.445Z</time></trkpt><trkpt lat="44.365418" lon="7.869457"><ele>522.0</ele><time>2026-04-28T06:33:39.444Z</time></trkpt><trkpt lat="44.3654729" lon="7.8695379"><ele>522.5</ele><time>2026-04-28T06:33:40.445Z</time></trkpt><trkpt lat="44.3655179" lon="7.8696158"><ele>523.0</ele><time>2026-04-28T06:33:41.444Z</time></trkpt><trkpt lat="44.3655782" lon="7.8696805"><ele>523.5</ele><time>2026-04-28T06:33:42.444Z</time></trkpt><trkpt lat="44.3656484" lon="7.8697197"><ele>524.0</ele><time>2026-04-28T06:33:43.445Z</time></trkpt><trkpt lat="44.3657328" lon="7.8697374"><ele>524.5</ele><time>2026-04-28T06:33:44.445Z</time></trkpt><trkpt lat="44.3658267" lon="7.869764"><ele>525.0</ele><time>2026-04-28T06:33:45.445Z</time></trkpt><trkpt lat="44.3659167" lon="7.8698301"><ele>524.0</ele><time>2026-04-28T06:33:46.445Z</time></trkpt><trkpt lat="44.365995" lon="7.8699438"><ele>523.0</ele><time>2026-04-28T06:33:47.444Z</time></trkpt><trkpt lat="44.3660576" lon="7.870078"><ele>522.0</ele><time>2026-04-28T06:33:48.445Z</time></trkpt><trkpt lat="44.3661179" lon="7.8702219"><ele>521.0</ele><time>2026-04-28T06:33:49.445Z</time></trkpt><trkpt lat="44.366168" lon="7.8703755"><ele>521.0</ele><time>2026-04-28T06:33:50.445Z</time></trkpt><trkpt lat="44.3662194" lon="7.870535"><ele>521.0</ele><time>2026-04-28T06:33:51.444Z</time></trkpt><trkpt lat="44.36627" lon="7.8706939"><ele>521.0</ele><time>2026-04-28T06:33:52.445Z</time></trkpt><trkpt lat="44.3663389" lon="7.8708549"><ele>521.0</ele><time>2026-04-28T06:33:53.444Z</time></trkpt><trkpt lat="44.3663963" lon="7.8710234"><ele>523.0</ele><time>2026-04-28T06:33:54.444Z</time></trkpt><trkpt lat="44.3664536" lon="7.8711918"><ele>525.0</ele><time>2026-04-28T06:33:55.445Z</time></trkpt><trkpt lat="44.3665054" lon="7.8713414"><ele>527.0</ele><time>2026-04-28T06:33:56.444Z</time></trkpt><trkpt lat="44.3665556" lon="7.8714904"><ele>529.0</ele><time>2026-04-28T06:33:57.444Z</time></trkpt><trkpt lat="44.3666042" lon="7.8716272"><ele>529.0</ele><time>2026-04-28T06:33:58.445Z</time></trkpt><trkpt lat="44.3666503" lon="7.8717554"><ele>529.0</ele><time>2026-04-28T06:33:59.444Z</time></trkpt><trkpt lat="44.3666982" lon="7.8718966"><ele>529.0</ele><time>2026-04-28T06:34:00.445Z</time></trkpt><trkpt lat="44.3667492" lon="7.8720434"><ele>529.0</ele><time>2026-04-28T06:34:01.444Z</time></trkpt><trkpt lat="44.3668019" lon="7.8722017"><ele>529.5</ele><time>2026-04-28T06:34:02.443Z</time></trkpt><trkpt lat="44.3668524" lon="7.8723643"><ele>530.0</ele><time>2026-04-28T06:34:03.445Z</time></trkpt><trkpt lat="44.3669141" lon="7.8725327"><ele>530.5</ele><time>2026-04-28T06:34:04.445Z</time></trkpt><trkpt lat="44.3669758" lon="7.8727119"><ele>531.0</ele><time>2026-04-28T06:34:05.445Z</time></trkpt><trkpt lat="44.367042" lon="7.8729001"><ele>531.3333333333334</ele><time>2026-04-28T06:34:06.444Z</time></trkpt><trkpt lat="44.367111" lon="7.873093"><ele>531.6666666666667</ele><time>2026-04-28T06:34:07.444Z</time></trkpt><trkpt lat="44.3671791" lon="7.8732826"><ele>532.0</ele><time>2026-04-28T06:34:08.444Z</time></trkpt><trkpt lat="44.3672431" lon="7.8734779"><ele>536.3333333333334</ele><time>2026-04-28T06:34:09.444Z</time></trkpt><trkpt lat="44.3673103" lon="7.8736748"><ele>540.6666666666666</ele><time>2026-04-28T06:34:10.445Z</time></trkpt><trkpt lat="44.3673816" lon="7.87388"><ele>545.0</ele><time>2026-04-28T06:34:11.444Z</time></trkpt><trkpt lat="44.3674552" lon="7.8740909"><ele>548.6666666666666</ele><time>2026-04-28T06:34:12.444Z</time></trkpt><trkpt lat="44.367532" lon="7.8743099"><ele>552.3333333333334</ele><time>2026-04-28T06:34:13.445Z</time></trkpt><trkpt lat="44.3676066" lon="7.8745309"><ele>556.0</ele><time>2026-04-28T06:34:14.444Z</time></trkpt><trkpt lat="44.36768" lon="7.8747521"><ele>540.0</ele><time>2026-04-28T06:34:15.444Z</time></trkpt><trkpt lat="44.3683333" lon="7.876748"><ele>535.6666666666666</ele><time>2026-04-28T06:34:23.445Z</time></trkpt><trkpt lat="44.3684126" lon="7.8768676"><ele>531.3333333333333</ele><time>2026-04-28T06:34:24.444Z</time></trkpt><trkpt lat="44.3684922" lon="7.8770864"><ele>527.0</ele><time>2026-04-28T06:34:25.444Z</time></trkpt><trkpt lat="44.3685405" lon="7.8773352"><ele>527.0</ele><time>2026-04-28T06:34:26.445Z</time></trkpt><trkpt lat="44.3686362" lon="7.8775376"><ele>527.0</ele><time>2026-04-28T06:34:27.444Z</time></trkpt><trkpt lat="44.3686989" lon="7.8777549"><ele>527.0</ele><time>2026-04-28T06:34:28.445Z</time></trkpt><trkpt lat="44.3687757" lon="7.8779713"><ele>525.3333333333333</ele><time>2026-04-28T06:34:29.445Z</time></trkpt><trkpt lat="44.3688553" lon="7.8781735"><ele>523.6666666666666</ele><time>2026-04-28T06:34:30.445Z</time></trkpt><trkpt lat="44.3689228" lon="7.87837"><ele>522.0</ele><time>2026-04-28T06:34:31.445Z</time></trkpt><trkpt lat="44.3689924" lon="7.8785612"><ele>521.75</ele><time>2026-04-28T06:34:32.444Z</time></trkpt><trkpt lat="44.3690566" lon="7.8787522"><ele>521.5</ele><time>2026-04-28T06:34:33.445Z</time></trkpt><trkpt lat="44.3691071" lon="7.8789226"><ele>521.25</ele><time>2026-04-28T06:34:34.445Z</time></trkpt><trkpt lat="44.3691416" lon="7.8790891"><ele>521.0</ele><time>2026-04-28T06:34:35.444Z</time></trkpt><trkpt lat="44.3691423" lon="7.8792439"><ele>522.0</ele><time>2026-04-28T06:34:36.445Z</time></trkpt><trkpt lat="44.3691271" lon="7.879383"><ele>523.0</ele><time>2026-04-28T06:34:37.445Z</time></trkpt><trkpt lat="44.3691207" lon="7.8794975"><ele>524.0</ele><time>2026-04-28T06:34:38.444Z</time></trkpt><trkpt lat="44.3691827" lon="7.8796037"><ele>525.0</ele><time>2026-04-28T06:34:40.445Z</time></trkpt><trkpt lat="44.3692508" lon="7.8795991"><ele>526.0</ele><time>2026-04-28T06:34:41.443Z</time></trkpt><trkpt lat="44.3693201" lon="7.879589"><ele>527.0</ele><time>2026-04-28T06:34:42.444Z</time></trkpt><trkpt lat="44.3694379" lon="7.8794876"><ele>527.0</ele><time>2026-04-28T06:34:43.445Z</time></trkpt><trkpt lat="44.3695361" lon="7.8794139"><ele>527.0</ele><time>2026-04-28T06:34:44.445Z</time></trkpt><trkpt lat="44.3696572" lon="7.8793176"><ele>527.0</ele><time>2026-04-28T06:34:45.444Z</time></trkpt><trkpt lat="44.3697757" lon="7.8792148"><ele>527.0</ele><time>2026-04-28T06:34:46.443Z</time></trkpt><trkpt lat="44.3699005" lon="7.8791164"><ele>529.0</ele><time>2026-04-28T06:34:47.444Z</time></trkpt><trkpt lat="44.3700262" lon="7.8790106"><ele>531.0</ele><time>2026-04-28T06:34:48.444Z</time></trkpt><trkpt lat="44.3701531" lon="7.8788803"><ele>533.0</ele><time>2026-04-28T06:34:49.444Z</time></trkpt><trkpt lat="44.3702936" lon="7.8787577"><ele>533.0</ele><time>2026-04-28T06:34:50.444Z</time></trkpt><trkpt lat="44.370446" lon="7.8786456"><ele>533.0</ele><time>2026-04-28T06:34:51.445Z</time></trkpt><trkpt lat="44.3705987" lon="7.878526"><ele>533.0</ele><time>2026-04-28T06:34:52.445Z</time></trkpt><trkpt lat="44.3707636" lon="7.8783993"><ele>534.6666666666666</ele><time>2026-04-28T06:34:53.444Z</time></trkpt><trkpt lat="44.3709285" lon="7.8782866"><ele>536.3333333333334</ele><time>2026-04-28T06:34:54.444Z</time></trkpt><trkpt lat="44.3710949" lon="7.8781932"><ele>538.0</ele><time>2026-04-28T06:34:55.444Z</time></trkpt><trkpt lat="44.3712599" lon="7.8781055"><ele>540.3333333333334</ele><time>2026-04-28T06:34:56.445Z</time></trkpt><trkpt lat="44.371425" lon="7.8780356"><ele>542.6666666666666</ele><time>2026-04-28T06:34:57.445Z</time></trkpt><trkpt lat="44.3715814" lon="7.8779787"><ele>545.0</ele><time>2026-04-28T06:34:58.445Z</time></trkpt><trkpt lat="44.3717374" lon="7.8779239"><ele>545.0</ele><time>2026-04-28T06:34:59.444Z</time></trkpt><trkpt lat="44.3718844" lon="7.8778533"><ele>545.0</ele><time>2026-04-28T06:35:00.445Z</time></trkpt><trkpt lat="44.3720309" lon="7.8777598"><ele>545.0</ele><time>2026-04-28T06:35:01.445Z</time></trkpt><trkpt lat="44.3721614" lon="7.8776312"><ele>544.6666666666666</ele><time>2026-04-28T06:35:02.445Z</time></trkpt><trkpt lat="44.3722766" lon="7.8774789"><ele>544.3333333333334</ele><time>2026-04-28T06:35:03.443Z</time></trkpt><trkpt lat="44.3724011" lon="7.8773297"><ele>544.0</ele><time>2026-04-28T06:35:04.445Z</time></trkpt><trkpt lat="44.3725161" lon="7.8771698"><ele>544.0</ele><time>2026-04-28T06:35:05.445Z</time></trkpt><trkpt lat="44.372625" lon="7.8770005"><ele>544.0</ele><time>2026-04-28T06:35:06.444Z</time></trkpt><trkpt lat="44.372729" lon="7.8768236"><ele>544.0</ele><time>2026-04-28T06:35:07.444Z</time></trkpt><trkpt lat="44.3728269" lon="7.876647"><ele>544.6666666666667</ele><time>2026-04-28T06:35:08.445Z</time></trkpt><trkpt lat="44.3729171" lon="7.8764612"><ele>545.3333333333334</ele><time>2026-04-28T06:35:09.444Z</time></trkpt><trkpt lat="44.3730112" lon="7.8762911"><ele>546.0</ele><time>2026-04-28T06:35:10.445Z</time></trkpt><trkpt lat="44.3730981" lon="7.8761136"><ele>548.6666666666666</ele><time>2026-04-28T06:35:11.444Z</time></trkpt><trkpt lat="44.3731816" lon="7.8759334"><ele>551.3333333333333</ele><time>2026-04-28T06:35:12.444Z</time></trkpt><trkpt lat="44.3732541" lon="7.8757466"><ele>554.0</ele><time>2026-04-28T06:35:13.444Z</time></trkpt><trkpt lat="44.3734469" lon="7.8751524"><ele>556.3333333333333</ele><time>2026-04-28T06:35:16.443Z</time></trkpt><trkpt lat="44.3735043" lon="7.8749443"><ele>558.6666666666666</ele><time>2026-04-28T06:35:17.442Z</time></trkpt><trkpt lat="44.3735554" lon="7.8747359"><ele>561.0</ele><time>2026-04-28T06:35:18.444Z</time></trkpt><trkpt lat="44.3735976" lon="7.8745336"><ele>561.0</ele><time>2026-04-28T06:35:19.443Z</time></trkpt><trkpt lat="44.3736347" lon="7.8743459"><ele>561.0</ele><time>2026-04-28T06:35:20.444Z</time></trkpt><trkpt lat="44.3736602" lon="7.8741582"><ele>561.0</ele><time>2026-04-28T06:35:21.444Z</time></trkpt><trkpt lat="44.3736764" lon="7.8739816"><ele>561.0</ele><time>2026-04-28T06:35:22.444Z</time></trkpt><trkpt lat="44.3736805" lon="7.8738232"><ele>561.0</ele><time>2026-04-28T06:35:23.444Z</time></trkpt><trkpt lat="44.3736807" lon="7.8736822"><ele>561.0</ele><time>2026-04-28T06:35:24.444Z</time></trkpt><trkpt lat="44.3736679" lon="7.8735751"><ele>561.0</ele><time>2026-04-28T06:35:25.443Z</time></trkpt><trkpt lat="44.3736835" lon="7.8734483"><ele>561.0</ele><time>2026-04-28T06:35:27.442Z</time></trkpt><trkpt lat="44.373769" lon="7.8734204"><ele>561.0</ele><time>2026-04-28T06:35:29.444Z</time></trkpt><trkpt lat="44.3738383" lon="7.8734145"><ele>561.0</ele><time>2026-04-28T06:35:30.444Z</time></trkpt><trkpt lat="44.3739398" lon="7.8734068"><ele>559.0</ele><time>2026-04-28T06:35:31.443Z</time></trkpt><trkpt lat="44.3740744" lon="7.8733945"><ele>557.0</ele><time>2026-04-28T06:35:32.443Z</time></trkpt><trkpt lat="44.3742246" lon="7.8733837"><ele>555.0</ele><time>2026-04-28T06:35:33.443Z</time></trkpt><trkpt lat="44.3743834" lon="7.8733682"><ele>553.0</ele><time>2026-04-28T06:35:34.443Z</time></trkpt><trkpt lat="44.3745584" lon="7.8733468"><ele>548.6666666666667</ele><time>2026-04-28T06:35:35.444Z</time></trkpt><trkpt lat="44.3747403" lon="7.8733213"><ele>544.3333333333334</ele><time>2026-04-28T06:35:36.444Z</time></trkpt><trkpt lat="44.3749325" lon="7.8732939"><ele>540.0</ele><time>2026-04-28T06:35:37.444Z</time></trkpt><trkpt lat="44.3751336" lon="7.8732668"><ele>540.0</ele><time>2026-04-28T06:35:38.444Z</time></trkpt><trkpt lat="44.3753298" lon="7.8732527"><ele>540.0</ele><time>2026-04-28T06:35:39.444Z</time></trkpt><trkpt lat="44.375526" lon="7.8732643"><ele>540.0</ele><time>2026-04-28T06:35:40.444Z</time></trkpt><trkpt lat="44.3757257" lon="7.873322"><ele>537.3333333333334</ele><time>2026-04-28T06:35:41.444Z</time></trkpt><trkpt lat="44.3759259" lon="7.873413"><ele>534.6666666666667</ele><time>2026-04-28T06:35:42.443Z</time></trkpt><trkpt lat="44.3761263" lon="7.8735199"><ele>532.0</ele><time>2026-04-28T06:35:43.443Z</time></trkpt><trkpt lat="44.3763276" lon="7.8736373"><ele>534.0</ele><time>2026-04-28T06:35:44.444Z</time></trkpt><trkpt lat="44.3765245" lon="7.8737516"><ele>536.0</ele><time>2026-04-28T06:35:45.444Z</time></trkpt><trkpt lat="44.3767215" lon="7.8738642"><ele>538.0</ele><time>2026-04-28T06:35:46.444Z</time></trkpt><trkpt lat="44.3769168" lon="7.8739873"><ele>538.0</ele><time>2026-04-28T06:35:47.443Z</time></trkpt><trkpt lat="44.3771051" lon="7.874125"><ele>538.0</ele><time>2026-04-28T06:35:48.444Z</time></trkpt><trkpt lat="44.377288" lon="7.8742737"><ele>538.0</ele><time>2026-04-28T06:35:49.442Z</time></trkpt><trkpt lat="44.3774685" lon="7.8744347"><ele>536.6666666666667</ele><time>2026-04-28T06:35:50.442Z</time></trkpt><trkpt lat="44.3776453" lon="7.8746003"><ele>535.3333333333334</ele><time>2026-04-28T06:35:51.444Z</time></trkpt><trkpt lat="44.3778243" lon="7.8747644"><ele>534.0</ele><time>2026-04-28T06:35:52.443Z</time></trkpt><trkpt lat="44.378003" lon="7.8749266"><ele>533.0</ele><time>2026-04-28T06:35:53.443Z</time></trkpt><trkpt lat="44.3781716" lon="7.8750894"><ele>532.0</ele><time>2026-04-28T06:35:54.443Z</time></trkpt><trkpt lat="44.3783324" lon="7.8752292"><ele>531.0</ele><time>2026-04-28T06:35:55.443Z</time></trkpt><trkpt lat="44.3784981" lon="7.8753329"><ele>531.0</ele><time>2026-04-28T06:35:56.443Z</time></trkpt><trkpt lat="44.3786814" lon="7.8754094"><ele>531.0</ele><time>2026-04-28T06:35:57.443Z</time></trkpt><trkpt lat="44.3788789" lon="7.8754631"><ele>531.0</ele><time>2026-04-28T06:35:58.443Z</time></trkpt><trkpt lat="44.3790832" lon="7.8755025"><ele>533.3333333333334</ele><time>2026-04-28T06:35:59.444Z</time></trkpt><trkpt lat="44.3792916" lon="7.8755294"><ele>535.6666666666667</ele><time>2026-04-28T06:36:00.444Z</time></trkpt><trkpt lat="44.379508" lon="7.8755328"><ele>538.0</ele><time>2026-04-28T06:36:01.444Z</time></trkpt><trkpt lat="44.3797195" lon="7.8755097"><ele>540.0</ele><time>2026-04-28T06:36:02.442Z</time></trkpt><trkpt lat="44.3799236" lon="7.8754749"><ele>542.0</ele><time>2026-04-28T06:36:03.444Z</time></trkpt><trkpt lat="44.3801139" lon="7.8754395"><ele>544.0</ele><time>2026-04-28T06:36:04.444Z</time></trkpt><trkpt lat="44.3802884" lon="7.8754303"><ele>544.0</ele><time>2026-04-28T06:36:05.443Z</time></trkpt><trkpt lat="44.3804447" lon="7.8754679"><ele>544.0</ele><time>2026-04-28T06:36:06.444Z</time></trkpt><trkpt lat="44.3805788" lon="7.8755593"><ele>544.0</ele><time>2026-04-28T06:36:07.443Z</time></trkpt><trkpt lat="44.3806799" lon="7.8757157"><ele>543.3333333333334</ele><time>2026-04-28T06:36:08.444Z</time></trkpt><trkpt lat="44.3807752" lon="7.8758781"><ele>542.6666666666666</ele><time>2026-04-28T06:36:09.443Z</time></trkpt><trkpt lat="44.3808662" lon="7.8760612"><ele>542.0</ele><time>2026-04-28T06:36:10.444Z</time></trkpt><trkpt lat="44.3809598" lon="7.8762555"><ele>541.0</ele><time>2026-04-28T06:36:11.443Z</time></trkpt><trkpt lat="44.3811717" lon="7.8766744"><ele>540.0</ele><time>2026-04-28T06:36:14.348Z</time></trkpt><trkpt lat="44.3813719" lon="7.8769107"><ele>538.0</ele><time>2026-04-28T06:36:15.444Z</time></trkpt><trkpt lat="44.3815249" lon="7.8770165"><ele>536.0</ele><time>2026-04-28T06:36:16.444Z</time></trkpt><trkpt lat="44.381683" lon="7.8771118"><ele>534.0</ele><time>2026-04-28T06:36:17.444Z</time></trkpt><trkpt lat="44.3818362" lon="7.8772085"><ele>534.0</ele><time>2026-04-28T06:36:18.444Z</time></trkpt><trkpt lat="44.3819806" lon="7.8773018"><ele>534.0</ele><time>2026-04-28T06:36:19.444Z</time></trkpt><trkpt lat="44.382141" lon="7.8773955"><ele>534.0</ele><time>2026-04-28T06:36:20.444Z</time></trkpt><trkpt lat="44.3822898" lon="7.8775034"><ele>533.3333333333334</ele><time>2026-04-28T06:36:21.444Z</time></trkpt><trkpt lat="44.3824277" lon="7.8776406"><ele>532.6666666666667</ele><time>2026-04-28T06:36:22.443Z</time></trkpt><trkpt lat="44.382543" lon="7.8778129"><ele>532.0</ele><time>2026-04-28T06:36:23.444Z</time></trkpt><trkpt lat="44.3826411" lon="7.8780106"><ele>532.0</ele><time>2026-04-28T06:36:24.444Z</time></trkpt><trkpt lat="44.382732" lon="7.8782315"><ele>532.0</ele><time>2026-04-28T06:36:25.444Z</time></trkpt><trkpt lat="44.3828191" lon="7.8784693"><ele>532.0</ele><time>2026-04-28T06:36:26.445Z</time></trkpt><trkpt lat="44.382898" lon="7.8787108"><ele>531.6666666666667</ele><time>2026-04-28T06:36:27.445Z</time></trkpt><trkpt lat="44.3829763" lon="7.8789542"><ele>531.3333333333334</ele><time>2026-04-28T06:36:28.445Z</time></trkpt><trkpt lat="44.3830505" lon="7.8791815"><ele>531.0</ele><time>2026-04-28T06:36:29.445Z</time></trkpt><trkpt lat="44.3831252" lon="7.8794076"><ele>533.6666666666666</ele><time>2026-04-28T06:36:30.445Z</time></trkpt><trkpt lat="44.383203" lon="7.879607"><ele>536.3333333333333</ele><time>2026-04-28T06:36:31.443Z</time></trkpt><trkpt lat="44.3832857" lon="7.8798013"><ele>539.0</ele><time>2026-04-28T06:36:32.444Z</time></trkpt><trkpt lat="44.383377" lon="7.8799912"><ele>541.6666666666666</ele><time>2026-04-28T06:36:33.445Z</time></trkpt><trkpt lat="44.3834716" lon="7.8801785"><ele>544.3333333333334</ele><time>2026-04-28T06:36:34.444Z</time></trkpt><trkpt lat="44.3835691" lon="7.8803752"><ele>547.0</ele><time>2026-04-28T06:36:35.445Z</time></trkpt><trkpt lat="44.3836595" lon="7.8805735"><ele>547.0</ele><time>2026-04-28T06:36:36.444Z</time></trkpt><trkpt lat="44.3837333" lon="7.8807683"><ele>547.0</ele><time>2026-04-28T06:36:37.445Z</time></trkpt><trkpt lat="44.3837935" lon="7.8809496"><ele>547.0</ele><time>2026-04-28T06:36:38.444Z</time></trkpt><trkpt lat="44.3838562" lon="7.8811207"><ele>547.0</ele><time>2026-04-28T06:36:39.445Z</time></trkpt><trkpt lat="44.3839043" lon="7.8812871"><ele>547.25</ele><time>2026-04-28T06:36:40.445Z</time></trkpt><trkpt lat="44.3839394" lon="7.8814704"><ele>547.5</ele><time>2026-04-28T06:36:41.444Z</time></trkpt><trkpt lat="44.383964" lon="7.8816595"><ele>547.75</ele><time>2026-04-28T06:36:42.443Z</time></trkpt><trkpt lat="44.3839783" lon="7.8818614"><ele>548.0</ele><time>2026-04-28T06:36:43.444Z</time></trkpt><trkpt lat="44.3839878" lon="7.8820677"><ele>548.0</ele><time>2026-04-28T06:36:44.444Z</time></trkpt><trkpt lat="44.3840006" lon="7.8822633"><ele>548.0</ele><time>2026-04-28T06:36:45.445Z</time></trkpt><trkpt lat="44.3840147" lon="7.8824492"><ele>548.0</ele><time>2026-04-28T06:36:46.445Z</time></trkpt><trkpt lat="44.3840382" lon="7.8826418"><ele>548.0</ele><time>2026-04-28T06:36:47.445Z</time></trkpt><trkpt lat="44.3840842" lon="7.8828321"><ele>544.3333333333333</ele><time>2026-04-28T06:36:48.445Z</time></trkpt><trkpt lat="44.3841653" lon="7.8830143"><ele>540.6666666666666</ele><time>2026-04-28T06:36:49.443Z</time></trkpt><trkpt lat="44.3842758" lon="7.8831764"><ele>537.0</ele><time>2026-04-28T06:36:50.445Z</time></trkpt><trkpt lat="44.3844175" lon="7.8833165"><ele>538.6666666666666</ele><time>2026-04-28T06:36:51.445Z</time></trkpt><trkpt lat="44.3845695" lon="7.8834507"><ele>540.3333333333333</ele><time>2026-04-28T06:36:52.443Z</time></trkpt><trkpt lat="44.3847212" lon="7.8835921"><ele>542.0</ele><time>2026-04-28T06:36:53.445Z</time></trkpt><trkpt lat="44.3848793" lon="7.8837371"><ele>542.0</ele><time>2026-04-28T06:36:54.444Z</time></trkpt><trkpt lat="44.3850495" lon="7.8838812"><ele>542.0</ele><time>2026-04-28T06:36:55.445Z</time></trkpt><trkpt lat="44.3852198" lon="7.8840277"><ele>542.0</ele><time>2026-04-28T06:36:56.444Z</time></trkpt><trkpt lat="44.3853758" lon="7.8841795"><ele>543.0</ele><time>2026-04-28T06:36:57.444Z</time></trkpt><trkpt lat="44.3855217" lon="7.8843221"><ele>544.0</ele><time>2026-04-28T06:36:58.444Z</time></trkpt><trkpt lat="44.3856506" lon="7.8844516"><ele>545.0</ele><time>2026-04-28T06:36:59.444Z</time></trkpt><trkpt lat="44.385757" lon="7.8845588"><ele>545.0</ele><time>2026-04-28T06:37:00.444Z</time></trkpt><trkpt lat="44.3858468" lon="7.8846429"><ele>545.0</ele><time>2026-04-28T06:37:01.445Z</time></trkpt><trkpt lat="44.3859218" lon="7.8847082"><ele>545.0</ele><time>2026-04-28T06:37:02.445Z</time></trkpt><trkpt lat="44.3859814" lon="7.8847593"><ele>545.0</ele><time>2026-04-28T06:37:03.445Z</time></trkpt><trkpt lat="44.3860376" lon="7.8848067"><ele>545.0</ele><time>2026-04-28T06:37:04.444Z</time></trkpt><trkpt lat="44.3861026" lon="7.8848671"><ele>545.0</ele><time>2026-04-28T06:37:05.445Z</time></trkpt><trkpt lat="44.3861776" lon="7.8849489"><ele>545.0</ele><time>2026-04-28T06:37:06.445Z</time></trkpt><trkpt lat="44.3862667" lon="7.8850408"><ele>545.0</ele><time>2026-04-28T06:37:07.445Z</time></trkpt><trkpt lat="44.3863694" lon="7.8851368"><ele>545.0</ele><time>2026-04-28T06:37:08.444Z</time></trkpt><trkpt lat="44.3864811" lon="7.8852436"><ele>545.0</ele><time>2026-04-28T06:37:09.445Z</time></trkpt><trkpt lat="44.386606" lon="7.8853626"><ele>549.6666666666666</ele><time>2026-04-28T06:37:10.444Z</time></trkpt><trkpt lat="44.3867278" lon="7.8854964"><ele>554.3333333333334</ele><time>2026-04-28T06:37:11.444Z</time></trkpt><trkpt lat="44.3868316" lon="7.8856566"><ele>559.0</ele><time>2026-04-28T06:37:12.445Z</time></trkpt><trkpt lat="44.386906" lon="7.8858266"><ele>560.25</ele><time>2026-04-28T06:37:13.445Z</time></trkpt><trkpt lat="44.3869187" lon="7.8860157"><ele>561.5</ele><time>2026-04-28T06:37:14.444Z</time></trkpt><trkpt lat="44.3868892" lon="7.8862112"><ele>562.75</ele><time>2026-04-28T06:37:15.444Z</time></trkpt><trkpt lat="44.386837" lon="7.8864055"><ele>564.0</ele><time>2026-04-28T06:37:16.444Z</time></trkpt><trkpt lat="44.3867771" lon="7.8866045"><ele>567.3333333333334</ele><time>2026-04-28T06:37:17.445Z</time></trkpt><trkpt lat="44.3867166" lon="7.8868093"><ele>570.6666666666667</ele><time>2026-04-28T06:37:18.445Z</time></trkpt><trkpt lat="44.3866574" lon="7.8870204"><ele>574.0</ele><time>2026-04-28T06:37:19.445Z</time></trkpt><trkpt lat="44.3866011" lon="7.8872381"><ele>574.0</ele><time>2026-04-28T06:37:20.444Z</time></trkpt><trkpt lat="44.3865591" lon="7.8874562"><ele>574.0</ele><time>2026-04-28T06:37:21.444Z</time></trkpt><trkpt lat="44.3865371" lon="7.8876793"><ele>574.0</ele><time>2026-04-28T06:37:22.444Z</time></trkpt><trkpt lat="44.3865272" lon="7.8879082"><ele>572.6666666666667</ele><time>2026-04-28T06:37:23.445Z</time></trkpt><trkpt lat="44.3865198" lon="7.8881364"><ele>571.3333333333334</ele><time>2026-04-28T06:37:24.444Z</time></trkpt><trkpt lat="44.3865047" lon="7.8883873"><ele>570.0</ele><time>2026-04-28T06:37:25.445Z</time></trkpt><trkpt lat="44.3864752" lon="7.8886457"><ele>568.0</ele><time>2026-04-28T06:37:26.445Z</time></trkpt><trkpt lat="44.3864347" lon="7.8889049"><ele>566.0</ele><time>2026-04-28T06:37:27.444Z</time></trkpt><trkpt lat="44.3863888" lon="7.8891597"><ele>564.0</ele><time>2026-04-28T06:37:28.445Z</time></trkpt><trkpt lat="44.3863503" lon="7.8894073"><ele>563.0</ele><time>2026-04-28T06:37:29.445Z</time></trkpt><trkpt lat="44.3863193" lon="7.8896497"><ele>562.0</ele><time>2026-04-28T06:37:30.445Z</time></trkpt><trkpt lat="44.3862908" lon="7.8898862"><ele>561.0</ele><time>2026-04-28T06:37:31.445Z</time></trkpt><trkpt lat="44.386264" lon="7.8901152"><ele>560.3333333333334</ele><time>2026-04-28T06:37:32.443Z</time></trkpt><trkpt lat="44.3862432" lon="7.8903388"><ele>559.6666666666667</ele><time>2026-04-28T06:37:33.445Z</time></trkpt><trkpt lat="44.3862334" lon="7.8905593"><ele>559.0</ele><time>2026-04-28T06:37:34.444Z</time></trkpt><trkpt lat="44.3862412" lon="7.8907728"><ele>557.75</ele><time>2026-04-28T06:37:35.444Z</time></trkpt><trkpt lat="44.3862675" lon="7.8909784"><ele>556.5</ele><time>2026-04-28T06:37:36.444Z</time></trkpt><trkpt lat="44.3862979" lon="7.8911784"><ele>555.25</ele><time>2026-04-28T06:37:37.445Z</time></trkpt><trkpt lat="44.3863262" lon="7.8913687"><ele>554.0</ele><time>2026-04-28T06:37:38.443Z</time></trkpt><trkpt lat="44.3863566" lon="7.8915408"><ele>554.0</ele><time>2026-04-28T06:37:39.445Z</time></trkpt><trkpt lat="44.3863925" lon="7.89169"><ele>554.0</ele><time>2026-04-28T06:37:40.444Z</time></trkpt><trkpt lat="44.3864501" lon="7.8918044"><ele>554.0</ele><time>2026-04-28T06:37:41.445Z</time></trkpt><trkpt lat="44.3865421" lon="7.8918676"><ele>554.0</ele><time>2026-04-28T06:37:42.445Z</time></trkpt><trkpt lat="44.3866502" lon="7.8918771"><ele>554.0</ele><time>2026-04-28T06:37:43.444Z</time></trkpt><trkpt lat="44.3867584" lon="7.8918437"><ele>554.0</ele><time>2026-04-28T06:37:44.445Z</time></trkpt><trkpt lat="44.386872" lon="7.8917513"><ele>554.0</ele><time>2026-04-28T06:37:45.445Z</time></trkpt><trkpt lat="44.38699" lon="7.8916123"><ele>554.0</ele><time>2026-04-28T06:37:46.444Z</time></trkpt><trkpt lat="44.3871167" lon="7.891446"><ele>550.0</ele><time>2026-04-28T06:37:47.445Z</time></trkpt><trkpt lat="44.3872495" lon="7.8912712"><ele>546.0</ele><time>2026-04-28T06:37:48.445Z</time></trkpt><trkpt lat="44.3873923" lon="7.8911044"><ele>542.0</ele><time>2026-04-28T06:37:49.445Z</time></trkpt><trkpt lat="44.3875525" lon="7.8909689"><ele>543.0</ele><time>2026-04-28T06:37:50.445Z</time></trkpt><trkpt lat="44.3877238" lon="7.8908698"><ele>544.0</ele><time>2026-04-28T06:37:51.444Z</time></trkpt><trkpt lat="44.3879138" lon="7.8908219"><ele>545.0</ele><time>2026-04-28T06:37:52.444Z</time></trkpt><trkpt lat="44.3881158" lon="7.8908366"><ele>542.0</ele><time>2026-04-28T06:37:53.444Z</time></trkpt><trkpt lat="44.3883225" lon="7.8908848"><ele>539.0</ele><time>2026-04-28T06:37:54.444Z</time></trkpt><trkpt lat="44.3885317" lon="7.8909306"><ele>536.0</ele><time>2026-04-28T06:37:55.443Z</time></trkpt><trkpt lat="44.3887428" lon="7.8909756"><ele>532.3333333333333</ele><time>2026-04-28T06:37:56.445Z</time></trkpt><trkpt lat="44.3889484" lon="7.8910153"><ele>528.6666666666666</ele><time>2026-04-28T06:37:57.445Z</time></trkpt><trkpt lat="44.3891445" lon="7.8910648"><ele>525.0</ele><time>2026-04-28T06:37:58.444Z</time></trkpt><trkpt lat="44.3893316" lon="7.8911395"><ele>525.0</ele><time>2026-04-28T06:37:59.445Z</time></trkpt><trkpt lat="44.389508" lon="7.8912533"><ele>525.0</ele><time>2026-04-28T06:38:00.444Z</time></trkpt><trkpt lat="44.3896744" lon="7.8914014"><ele>525.0</ele><time>2026-04-28T06:38:01.445Z</time></trkpt><trkpt lat="44.3898213" lon="7.8915953"><ele>522.0</ele><time>2026-04-28T06:38:02.445Z</time></trkpt><trkpt lat="44.3899568" lon="7.8918278"><ele>519.0</ele><time>2026-04-28T06:38:03.445Z</time></trkpt><trkpt lat="44.3900861" lon="7.8920646"><ele>516.0</ele><time>2026-04-28T06:38:04.444Z</time></trkpt><trkpt lat="44.3902167" lon="7.8922948"><ele>516.0</ele><time>2026-04-28T06:38:05.444Z</time></trkpt><trkpt lat="44.3903456" lon="7.8925104"><ele>516.0</ele><time>2026-04-28T06:38:06.444Z</time></trkpt><trkpt lat="44.3904724" lon="7.8927186"><ele>516.0</ele><time>2026-04-28T06:38:07.444Z</time></trkpt><trkpt lat="44.3906015" lon="7.8929183"><ele>514.3333333333334</ele><time>2026-04-28T06:38:08.445Z</time></trkpt><trkpt lat="44.3907346" lon="7.8931078"><ele>512.6666666666667</ele><time>2026-04-28T06:38:09.443Z</time></trkpt><trkpt lat="44.3908722" lon="7.8932868"><ele>511.0</ele><time>2026-04-28T06:38:10.444Z</time></trkpt><trkpt lat="44.3910101" lon="7.8934577"><ele>509.0</ele><time>2026-04-28T06:38:11.445Z</time></trkpt><trkpt lat="44.3911479" lon="7.8936259"><ele>507.0</ele><time>2026-04-28T06:38:12.444Z</time></trkpt><trkpt lat="44.3912821" lon="7.8937891"><ele>505.0</ele><time>2026-04-28T06:38:13.445Z</time></trkpt><trkpt lat="44.3914071" lon="7.8939542"><ele>505.0</ele><time>2026-04-28T06:38:14.443Z</time></trkpt><trkpt lat="44.3915114" lon="7.8941404"><ele>505.0</ele><time>2026-04-28T06:38:15.444Z</time></trkpt><trkpt lat="44.3915897" lon="7.8943551"><ele>505.0</ele><time>2026-04-28T06:38:16.445Z</time></trkpt><trkpt lat="44.3916465" lon="7.8946034"><ele>503.0</ele><time>2026-04-28T06:38:17.444Z</time></trkpt><trkpt lat="44.3916868" lon="7.8948745"><ele>501.0</ele><time>2026-04-28T06:38:18.445Z</time></trkpt><trkpt lat="44.3917226" lon="7.8951538"><ele>499.0</ele><time>2026-04-28T06:38:19.444Z</time></trkpt><trkpt lat="44.3917546" lon="7.895437"><ele>498.33333333333337</ele><time>2026-04-28T06:38:20.445Z</time></trkpt><trkpt lat="44.3917877" lon="7.8957247"><ele>497.66666666666663</ele><time>2026-04-28T06:38:21.444Z</time></trkpt><trkpt lat="44.3918184" lon="7.896013"><ele>497.0</ele><time>2026-04-28T06:38:22.444Z</time></trkpt><trkpt lat="44.3918512" lon="7.8962957"><ele>495.66666666666663</ele><time>2026-04-28T06:38:23.445Z</time></trkpt><trkpt lat="44.3918855" lon="7.8965764"><ele>494.33333333333337</ele><time>2026-04-28T06:38:24.444Z</time></trkpt><trkpt lat="44.391918" lon="7.8968496"><ele>493.0</ele><time>2026-04-28T06:38:25.445Z</time></trkpt><trkpt lat="44.3919519" lon="7.8971182"><ele>492.33333333333337</ele><time>2026-04-28T06:38:26.444Z</time></trkpt><trkpt lat="44.3919845" lon="7.8973807"><ele>491.66666666666663</ele><time>2026-04-28T06:38:27.444Z</time></trkpt><trkpt lat="44.3920297" lon="7.8976366"><ele>491.0</ele><time>2026-04-28T06:38:28.444Z</time></trkpt><trkpt lat="44.3920944" lon="7.8978772"><ele>490.0</ele><time>2026-04-28T06:38:29.445Z</time></trkpt><trkpt lat="44.3921704" lon="7.8981065"><ele>489.0</ele><time>2026-04-28T06:38:30.445Z</time></trkpt><trkpt lat="44.3922366" lon="7.8983417"><ele>488.0</ele><time>2026-04-28T06:38:31.443Z</time></trkpt><trkpt lat="44.3922824" lon="7.8985814"><ele>492.3333333333333</ele><time>2026-04-28T06:38:32.444Z</time></trkpt><trkpt lat="44.3922904" lon="7.8988269"><ele>496.66666666666663</ele><time>2026-04-28T06:38:33.444Z</time></trkpt><trkpt lat="44.3922597" lon="7.8990774"><ele>501.0</ele><time>2026-04-28T06:38:34.445Z</time></trkpt><trkpt lat="44.3922072" lon="7.8993188"><ele>497.66666666666663</ele><time>2026-04-28T06:38:35.443Z</time></trkpt><trkpt lat="44.3921575" lon="7.8995548"><ele>494.3333333333333</ele><time>2026-04-28T06:38:36.444Z</time></trkpt><trkpt lat="44.3921302" lon="7.8997931"><ele>491.0</ele><time>2026-04-28T06:38:37.443Z</time></trkpt><trkpt lat="44.3921131" lon="7.9000306"><ele>489.66666666666663</ele><time>2026-04-28T06:38:38.445Z</time></trkpt><trkpt lat="44.3921103" lon="7.9002682"><ele>488.33333333333337</ele><time>2026-04-28T06:38:39.444Z</time></trkpt><trkpt lat="44.3921124" lon="7.9005053"><ele>487.0</ele><time>2026-04-28T06:38:40.445Z</time></trkpt><trkpt lat="44.3921175" lon="7.9007373"><ele>488.0</ele><time>2026-04-28T06:38:41.444Z</time></trkpt><trkpt lat="44.3921447" lon="7.9009762"><ele>489.0</ele><time>2026-04-28T06:38:42.445Z</time></trkpt><trkpt lat="44.3922058" lon="7.9012253"><ele>490.0</ele><time>2026-04-28T06:38:43.444Z</time></trkpt><trkpt lat="44.3922826" lon="7.9014832"><ele>490.0</ele><time>2026-04-28T06:38:44.443Z</time></trkpt><trkpt lat="44.3923649" lon="7.9017423"><ele>490.0</ele><time>2026-04-28T06:38:45.444Z</time></trkpt><trkpt lat="44.3924402" lon="7.9020001"><ele>490.0</ele><time>2026-04-28T06:38:46.444Z</time></trkpt><trkpt lat="44.3925156" lon="7.9022489"><ele>486.0</ele><time>2026-04-28T06:38:47.445Z</time></trkpt><trkpt lat="44.3926043" lon="7.902481"><ele>482.0</ele><time>2026-04-28T06:38:48.443Z</time></trkpt><trkpt lat="44.3927235" lon="7.9026975"><ele>478.0</ele><time>2026-04-28T06:38:49.445Z</time></trkpt><trkpt lat="44.392863" lon="7.9029099"><ele>476.33333333333337</ele><time>2026-04-28T06:38:50.445Z</time></trkpt><trkpt lat="44.3930056" lon="7.9031194"><ele>474.66666666666663</ele><time>2026-04-28T06:38:51.444Z</time></trkpt><trkpt lat="44.3931542" lon="7.9033347"><ele>473.0</ele><time>2026-04-28T06:38:52.444Z</time></trkpt><trkpt lat="44.3933061" lon="7.9035573"><ele>470.3333333333333</ele><time>2026-04-28T06:38:53.444Z</time></trkpt><trkpt lat="44.3934572" lon="7.9037841"><ele>467.66666666666663</ele><time>2026-04-28T06:38:54.445Z</time></trkpt><trkpt lat="44.3936088" lon="7.9040103"><ele>465.0</ele><time>2026-04-28T06:38:55.445Z</time></trkpt><trkpt lat="44.3937641" lon="7.904238"><ele>463.0</ele><time>2026-04-28T06:38:56.445Z</time></trkpt><trkpt lat="44.3939224" lon="7.9044693"><ele>461.0</ele><time>2026-04-28T06:38:57.444Z</time></trkpt><trkpt lat="44.394081" lon="7.9047007"><ele>461.0</ele><time>2026-04-28T06:38:58.444Z</time></trkpt><trkpt lat="44.3942433" lon="7.9049355"><ele>461.0</ele><time>2026-04-28T06:38:59.445Z</time></trkpt><trkpt lat="44.3944061" lon="7.9051683"><ele>457.5</ele><time>2026-04-28T06:39:00.445Z</time></trkpt><trkpt lat="44.3945703" lon="7.9054046"><ele>454.0</ele><time>2026-04-28T06:39:01.444Z</time></trkpt><trkpt lat="44.3947357" lon="7.9056441"><ele>454.0</ele><time>2026-04-28T06:39:02.444Z</time></trkpt><trkpt lat="44.3949037" lon="7.9058802"><ele>454.0</ele><time>2026-04-28T06:39:03.444Z</time></trkpt><trkpt lat="44.3950708" lon="7.906115"><ele>450.0</ele><time>2026-04-28T06:39:04.445Z</time></trkpt><trkpt lat="44.3952372" lon="7.9063421"><ele>446.0</ele><time>2026-04-28T06:39:05.444Z</time></trkpt><trkpt lat="44.3953953" lon="7.9065626"><ele>444.66666666666663</ele><time>2026-04-28T06:39:06.443Z</time></trkpt><trkpt lat="44.3955516" lon="7.9067786"><ele>443.33333333333337</ele><time>2026-04-28T06:39:07.444Z</time></trkpt><trkpt lat="44.3957072" lon="7.906992"><ele>442.0</ele><time>2026-04-28T06:39:08.444Z</time></trkpt><trkpt lat="44.3958596" lon="7.9072051"><ele>442.0</ele><time>2026-04-28T06:39:09.445Z</time></trkpt><trkpt lat="44.3959937" lon="7.9074283"><ele>442.0</ele><time>2026-04-28T06:39:10.444Z</time></trkpt><trkpt lat="44.396099" lon="7.9076697"><ele>442.0</ele><time>2026-04-28T06:39:11.444Z</time></trkpt><trkpt lat="44.3961839" lon="7.9079359"><ele>440.6666666666667</ele><time>2026-04-28T06:39:12.444Z</time></trkpt><trkpt lat="44.3962455" lon="7.9082248"><ele>439.33333333333337</ele><time>2026-04-28T06:39:13.444Z</time></trkpt><trkpt lat="44.3962949" lon="7.9085271"><ele>438.0</ele><time>2026-04-28T06:39:14.445Z</time></trkpt><trkpt lat="44.3963479" lon="7.9088336"><ele>436.5</ele><time>2026-04-28T06:39:15.444Z</time></trkpt><trkpt lat="44.3964088" lon="7.9091395"><ele>435.0</ele><time>2026-04-28T06:39:16.444Z</time></trkpt><trkpt lat="44.3964722" lon="7.9094487"><ele>435.0</ele><time>2026-04-28T06:39:17.445Z</time></trkpt><trkpt lat="44.3965339" lon="7.909756"><ele>435.0</ele><time>2026-04-28T06:39:18.444Z</time></trkpt><trkpt lat="44.3965937" lon="7.9100613"><ele>437.33333333333337</ele><time>2026-04-28T06:39:19.444Z</time></trkpt><trkpt lat="44.3966532" lon="7.9103609"><ele>439.6666666666667</ele><time>2026-04-28T06:39:20.444Z</time></trkpt><trkpt lat="44.396723" lon="7.9106518"><ele>442.0</ele><time>2026-04-28T06:39:21.445Z</time></trkpt><trkpt lat="44.3968178" lon="7.9109231"><ele>442.6666666666667</ele><time>2026-04-28T06:39:22.445Z</time></trkpt><trkpt lat="44.396939" lon="7.9111684"><ele>443.33333333333337</ele><time>2026-04-28T06:39:23.444Z</time></trkpt><trkpt lat="44.3970748" lon="7.9113956"><ele>444.0</ele><time>2026-04-28T06:39:24.445Z</time></trkpt><trkpt lat="44.3972075" lon="7.9116164"><ele>448.33333333333337</ele><time>2026-04-28T06:39:25.445Z</time></trkpt><trkpt lat="44.3973226" lon="7.9118552"><ele>452.6666666666667</ele><time>2026-04-28T06:39:26.445Z</time></trkpt><trkpt lat="44.3974164" lon="7.9121117"><ele>457.0</ele><time>2026-04-28T06:39:27.445Z</time></trkpt><trkpt lat="44.3974862" lon="7.9123799"><ele>461.0</ele><time>2026-04-28T06:39:28.445Z</time></trkpt><trkpt lat="44.3975391" lon="7.912656"><ele>465.0</ele><time>2026-04-28T06:39:29.443Z</time></trkpt><trkpt lat="44.3975858" lon="7.9129312"><ele>469.0</ele><time>2026-04-28T06:39:30.444Z</time></trkpt><trkpt lat="44.3976279" lon="7.9132029"><ele>473.0</ele><time>2026-04-28T06:39:31.445Z</time></trkpt><trkpt lat="44.3976669" lon="7.913471"><ele>477.0</ele><time>2026-04-28T06:39:32.445Z</time></trkpt><trkpt lat="44.3977046" lon="7.9137308"><ele>481.0</ele><time>2026-04-28T06:39:33.445Z</time></trkpt><trkpt lat="44.3977426" lon="7.9139942"><ele>482.33333333333337</ele><time>2026-04-28T06:39:34.444Z</time></trkpt><trkpt lat="44.3977803" lon="7.9142649"><ele>483.66666666666663</ele><time>2026-04-28T06:39:35.445Z</time></trkpt><trkpt lat="44.397821" lon="7.9145379"><ele>485.0</ele><time>2026-04-28T06:39:36.443Z</time></trkpt><trkpt lat="44.397865" lon="7.914816"><ele>484.3333333333333</ele><time>2026-04-28T06:39:37.444Z</time></trkpt><trkpt lat="44.3979129" lon="7.9150979"><ele>483.66666666666663</ele><time>2026-04-28T06:39:38.444Z</time></trkpt><trkpt lat="44.3979682" lon="7.9153618"><ele>483.0</ele><time>2026-04-28T06:39:39.444Z</time></trkpt><trkpt lat="44.398037" lon="7.9155916"><ele>480.33333333333337</ele><time>2026-04-28T06:39:40.444Z</time></trkpt><trkpt lat="44.3981272" lon="7.9158083"><ele>477.6666666666667</ele><time>2026-04-28T06:39:41.445Z</time></trkpt><trkpt lat="44.3982346" lon="7.9160147"><ele>475.0</ele><time>2026-04-28T06:39:42.445Z</time></trkpt><trkpt lat="44.3983586" lon="7.9162122"><ele>475.0</ele><time>2026-04-28T06:39:43.445Z</time></trkpt><trkpt lat="44.3985061" lon="7.9163968"><ele>475.0</ele><time>2026-04-28T06:39:44.444Z</time></trkpt><trkpt lat="44.3986794" lon="7.9165656"><ele>475.0</ele><time>2026-04-28T06:39:45.445Z</time></trkpt><trkpt lat="44.398865" lon="7.9167287"><ele>470.5</ele><time>2026-04-28T06:39:46.443Z</time></trkpt><trkpt lat="44.399065" lon="7.9168886"><ele>466.0</ele><time>2026-04-28T06:39:47.445Z</time></trkpt><trkpt lat="44.399267" lon="7.9170494"><ele>466.0</ele><time>2026-04-28T06:39:48.444Z</time></trkpt><trkpt lat="44.3994708" lon="7.9172149"><ele>466.0</ele><time>2026-04-28T06:39:49.445Z</time></trkpt><trkpt lat="44.3996779" lon="7.9173834"><ele>465.5</ele><time>2026-04-28T06:39:50.443Z</time></trkpt><trkpt lat="44.3998909" lon="7.9175555"><ele>465.0</ele><time>2026-04-28T06:39:51.444Z</time></trkpt><trkpt lat="44.4001058" lon="7.9177305"><ele>464.0</ele><time>2026-04-28T06:39:52.443Z</time></trkpt><trkpt lat="44.4003223" lon="7.9179089"><ele>463.0</ele><time>2026-04-28T06:39:53.444Z</time></trkpt><trkpt lat="44.4005396" lon="7.9180879"><ele>460.5</ele><time>2026-04-28T06:39:54.444Z</time></trkpt><trkpt lat="44.4007547" lon="7.918269"><ele>458.0</ele><time>2026-04-28T06:39:55.445Z</time></trkpt><trkpt lat="44.4009688" lon="7.9184481"><ele>458.0</ele><time>2026-04-28T06:39:56.444Z</time></trkpt><trkpt lat="44.4011828" lon="7.9186249"><ele>458.0</ele><time>2026-04-28T06:39:57.445Z</time></trkpt><trkpt lat="44.401396" lon="7.9187987"><ele>455.0</ele><time>2026-04-28T06:39:58.445Z</time></trkpt><trkpt lat="44.4016061" lon="7.9189721"><ele>452.0</ele><time>2026-04-28T06:39:59.445Z</time></trkpt><trkpt lat="44.4018124" lon="7.9191468"><ele>451.0</ele><time>2026-04-28T06:40:00.444Z</time></trkpt><trkpt lat="44.4020164" lon="7.9193182"><ele>450.0</ele><time>2026-04-28T06:40:01.445Z</time></trkpt><trkpt lat="44.4022135" lon="7.9194835"><ele>450.0</ele><time>2026-04-28T06:40:02.444Z</time></trkpt><trkpt lat="44.4024" lon="7.9196406"><ele>450.0</ele><time>2026-04-28T06:40:03.444Z</time></trkpt><trkpt lat="44.4025747" lon="7.919793"><ele>450.0</ele><time>2026-04-28T06:40:04.444Z</time></trkpt><trkpt lat="44.4027375" lon="7.9199469"><ele>450.0</ele><time>2026-04-28T06:40:05.444Z</time></trkpt><trkpt lat="44.4028868" lon="7.9201261"><ele>450.0</ele><time>2026-04-28T06:40:06.445Z</time></trkpt><trkpt lat="44.4030179" lon="7.9203437"><ele>450.0</ele><time>2026-04-28T06:40:07.445Z</time></trkpt><trkpt lat="44.4031283" lon="7.9205894"><ele>447.66666666666663</ele><time>2026-04-28T06:40:08.444Z</time></trkpt><trkpt lat="44.4032207" lon="7.9208471"><ele>445.3333333333333</ele><time>2026-04-28T06:40:09.443Z</time></trkpt><trkpt lat="44.4032859" lon="7.9211138"><ele>443.0</ele><time>2026-04-28T06:40:10.445Z</time></trkpt><trkpt lat="44.4033072" lon="7.9214013"><ele>442.0</ele><time>2026-04-28T06:40:11.445Z</time></trkpt><trkpt lat="44.4033014" lon="7.9216987"><ele>441.0</ele><time>2026-04-28T06:40:12.445Z</time></trkpt><trkpt lat="44.403295" lon="7.9220029"><ele>440.0</ele><time>2026-04-28T06:40:13.445Z</time></trkpt><trkpt lat="44.4032957" lon="7.922315"><ele>436.66666666666663</ele><time>2026-04-28T06:40:14.445Z</time></trkpt><trkpt lat="44.4033021" lon="7.9226268"><ele>433.33333333333337</ele><time>2026-04-28T06:40:15.444Z</time></trkpt><trkpt lat="44.4033085" lon="7.9229338"><ele>430.0</ele><time>2026-04-28T06:40:16.444Z</time></trkpt><trkpt lat="44.403315" lon="7.9232311"><ele>428.33333333333337</ele><time>2026-04-28T06:40:17.444Z</time></trkpt><trkpt lat="44.4033226" lon="7.9235196"><ele>426.66666666666663</ele><time>2026-04-28T06:40:18.444Z</time></trkpt><trkpt lat="44.4033288" lon="7.923801"><ele>425.0</ele><time>2026-04-28T06:40:19.445Z</time></trkpt><trkpt lat="44.4033325" lon="7.9240749"><ele>424.0</ele><time>2026-04-28T06:40:20.443Z</time></trkpt><trkpt lat="44.4033332" lon="7.9243409"><ele>423.0</ele><time>2026-04-28T06:40:21.445Z</time></trkpt><trkpt lat="44.4033346" lon="7.9246014"><ele>422.0</ele><time>2026-04-28T06:40:22.445Z</time></trkpt><trkpt lat="44.4033396" lon="7.9248619"><ele>422.3333333333333</ele><time>2026-04-28T06:40:23.445Z</time></trkpt><trkpt lat="44.4033438" lon="7.925128"><ele>422.66666666666663</ele><time>2026-04-28T06:40:24.443Z</time></trkpt><trkpt lat="44.4033433" lon="7.9253999"><ele>423.0</ele><time>2026-04-28T06:40:25.445Z</time></trkpt><trkpt lat="44.4033415" lon="7.9256801"><ele>422.66666666666663</ele><time>2026-04-28T06:40:26.445Z</time></trkpt><trkpt lat="44.4033436" lon="7.9259574"><ele>422.3333333333333</ele><time>2026-04-28T06:40:27.444Z</time></trkpt><trkpt lat="44.403361" lon="7.9262219"><ele>422.0</ele><time>2026-04-28T06:40:28.445Z</time></trkpt><trkpt lat="44.4034016" lon="7.9264553"><ele>422.0</ele><time>2026-04-28T06:40:29.444Z</time></trkpt><trkpt lat="44.4034586" lon="7.9266631"><ele>422.0</ele><time>2026-04-28T06:40:30.444Z</time></trkpt><trkpt lat="44.4035293" lon="7.926856"><ele>422.0</ele><time>2026-04-28T06:40:31.445Z</time></trkpt><trkpt lat="44.4036377" lon="7.9270146"><ele>421.0</ele><time>2026-04-28T06:40:32.445Z</time></trkpt><trkpt lat="44.4037645" lon="7.9271643"><ele>420.0</ele><time>2026-04-28T06:40:33.444Z</time></trkpt><trkpt lat="44.4039304" lon="7.9272869"><ele>419.0</ele><time>2026-04-28T06:40:34.444Z</time></trkpt><trkpt lat="44.4040754" lon="7.9274014"><ele>419.0</ele><time>2026-04-28T06:40:35.445Z</time></trkpt><trkpt lat="44.4042031" lon="7.9275164"><ele>419.0</ele><time>2026-04-28T06:40:36.445Z</time></trkpt><trkpt lat="44.4043166" lon="7.9276257"><ele>419.0</ele><time>2026-04-28T06:40:37.445Z</time></trkpt><trkpt lat="44.40442" lon="7.9277337"><ele>419.0</ele><time>2026-04-28T06:40:38.445Z</time></trkpt><trkpt lat="44.4045132" lon="7.9278378"><ele>418.79999999999995</ele><time>2026-04-28T06:40:39.444Z</time></trkpt><trkpt lat="44.4046023" lon="7.9279356"><ele>418.59999999999997</ele><time>2026-04-28T06:40:40.444Z</time></trkpt><trkpt lat="44.4046928" lon="7.9280139"><ele>418.4</ele><time>2026-04-28T06:40:41.445Z</time></trkpt><trkpt lat="44.4047859" lon="7.9280677"><ele>418.2</ele><time>2026-04-28T06:40:42.445Z</time></trkpt><trkpt lat="44.4048717" lon="7.9281032"><ele>418.0</ele><time>2026-04-28T06:40:43.444Z</time></trkpt><trkpt lat="44.4049623" lon="7.9281333"><ele>418.00000000000006</ele><time>2026-04-28T06:40:44.444Z</time></trkpt><trkpt lat="44.4050492" lon="7.9281576"><ele>418.0</ele><time>2026-04-28T06:40:45.445Z</time></trkpt><trkpt lat="44.4051315" lon="7.9281827"><ele>418.0</ele><time>2026-04-28T06:40:46.445Z</time></trkpt><trkpt lat="44.405196" lon="7.9282145"><ele>418.0</ele><time>2026-04-28T06:40:47.443Z</time></trkpt><trkpt lat="44.4052507" lon="7.9283324"><ele>418.00000000000006</ele><time>2026-04-28T06:40:49.445Z</time></trkpt><trkpt lat="44.40523" lon="7.9284312"><ele>418.0</ele><time>2026-04-28T06:40:50.445Z</time></trkpt><trkpt lat="44.4051906" lon="7.9285477"><ele>418.25</ele><time>2026-04-28T06:40:51.444Z</time></trkpt><trkpt lat="44.4051438" lon="7.9286849"><ele>418.5</ele><time>2026-04-28T06:40:52.445Z</time></trkpt><trkpt lat="44.4050822" lon="7.9288405"><ele>418.75</ele><time>2026-04-28T06:40:53.445Z</time></trkpt><trkpt lat="44.4050173" lon="7.9289976"><ele>419.0</ele><time>2026-04-28T06:40:54.445Z</time></trkpt><trkpt lat="44.4049657" lon="7.9291559"><ele>418.5</ele><time>2026-04-28T06:40:55.445Z</time></trkpt><trkpt lat="44.404927" lon="7.9293394"><ele>418.0</ele><time>2026-04-28T06:40:56.444Z</time></trkpt><trkpt lat="44.4049034" lon="7.9295361"><ele>417.5</ele><time>2026-04-28T06:40:57.445Z</time></trkpt><trkpt lat="44.4048857" lon="7.9297358"><ele>417.0</ele><time>2026-04-28T06:40:58.444Z</time></trkpt><trkpt lat="44.4048641" lon="7.929939"><ele>416.25</ele><time>2026-04-28T06:40:59.445Z</time></trkpt><trkpt lat="44.4048339" lon="7.9301367"><ele>415.5</ele><time>2026-04-28T06:41:00.445Z</time></trkpt><trkpt lat="44.4047987" lon="7.9303239"><ele>414.75</ele><time>2026-04-28T06:41:01.445Z</time></trkpt><trkpt lat="44.4047656" lon="7.9304987"><ele>414.0</ele><time>2026-04-28T06:41:02.445Z</time></trkpt><trkpt lat="44.4047367" lon="7.930657"><ele>414.00000000000006</ele><time>2026-04-28T06:41:03.445Z</time></trkpt><trkpt lat="44.4047195" lon="7.9307784"><ele>414.0</ele><time>2026-04-28T06:41:04.445Z</time></trkpt><trkpt lat="44.4047123" lon="7.9308694"><ele>414.0</ele><time>2026-04-28T06:41:05.445Z</time></trkpt><trkpt lat="44.4047022" lon="7.930958"><ele>414.0</ele><time>2026-04-28T06:41:06.445Z</time></trkpt><trkpt lat="44.4046963" lon="7.9310509"><ele>414.0</ele><time>2026-04-28T06:41:07.445Z</time></trkpt><trkpt lat="44.4047089" lon="7.9311398"><ele>414.00000000000006</ele><time>2026-04-28T06:41:08.445Z</time></trkpt><trkpt lat="44.4047566" lon="7.9312268"><ele>414.0</ele><time>2026-04-28T06:41:09.445Z</time></trkpt><trkpt lat="44.4048345" lon="7.9313158"><ele>414.33333333333337</ele><time>2026-04-28T06:41:10.445Z</time></trkpt><trkpt lat="44.4049398" lon="7.9314324"><ele>414.6666666666667</ele><time>2026-04-28T06:41:11.443Z</time></trkpt><trkpt lat="44.4050754" lon="7.9315951"><ele>415.0</ele><time>2026-04-28T06:41:12.444Z</time></trkpt><trkpt lat="44.4051751" lon="7.9317383"><ele>415.33333333333337</ele><time>2026-04-28T06:41:13.445Z</time></trkpt><trkpt lat="44.4052753" lon="7.9319157"><ele>415.66666666666663</ele><time>2026-04-28T06:41:14.445Z</time></trkpt><trkpt lat="44.4053758" lon="7.9321234"><ele>416.0</ele><time>2026-04-28T06:41:15.445Z</time></trkpt><trkpt lat="44.4054658" lon="7.9323625"><ele>416.0</ele><time>2026-04-28T06:41:16.445Z</time></trkpt><trkpt lat="44.405535" lon="7.9326037"><ele>416.0</ele><time>2026-04-28T06:41:17.443Z</time></trkpt><trkpt lat="44.4056004" lon="7.9328678"><ele>416.0</ele><time>2026-04-28T06:41:18.444Z</time></trkpt><trkpt lat="44.4056593" lon="7.9331275"><ele>416.0</ele><time>2026-04-28T06:41:19.444Z</time></trkpt><trkpt lat="44.4057172" lon="7.9333816"><ele>416.0</ele><time>2026-04-28T06:41:20.445Z</time></trkpt><trkpt lat="44.4057756" lon="7.933613"><ele>416.0</ele><time>2026-04-28T06:41:21.444Z</time></trkpt><trkpt lat="44.4058307" lon="7.9338318"><ele>416.0</ele><time>2026-04-28T06:41:22.444Z</time></trkpt><trkpt lat="44.4058821" lon="7.9340258"><ele>416.0</ele><time>2026-04-28T06:41:23.444Z</time></trkpt><trkpt lat="44.4059161" lon="7.9342049"><ele>416.0</ele><time>2026-04-28T06:41:24.444Z</time></trkpt><trkpt lat="44.4059304" lon="7.9343529"><ele>416.0</ele><time>2026-04-28T06:41:25.444Z</time></trkpt><trkpt lat="44.4059438" lon="7.9344935"><ele>415.99999999999994</ele><time>2026-04-28T06:41:26.445Z</time></trkpt><trkpt lat="44.4059801" lon="7.9346007"><ele>416.0</ele><time>2026-04-28T06:41:27.444Z</time></trkpt><trkpt lat="44.4060335" lon="7.9346707"><ele>416.0</ele><time>2026-04-28T06:41:28.444Z</time></trkpt><trkpt lat="44.4061054" lon="7.9346793"><ele>416.0</ele><time>2026-04-28T06:41:29.445Z</time></trkpt><trkpt lat="44.4061789" lon="7.9346861"><ele>415.99999999999994</ele><time>2026-04-28T06:41:30.444Z</time></trkpt><trkpt lat="44.406289" lon="7.9346614"><ele>416.0</ele><time>2026-04-28T06:41:31.444Z</time></trkpt><trkpt lat="44.406393" lon="7.9347052"><ele>416.0</ele><time>2026-04-28T06:41:32.444Z</time></trkpt><trkpt lat="44.4065" lon="7.9347873"><ele>416.0</ele><time>2026-04-28T06:41:33.444Z</time></trkpt><trkpt lat="44.4066115" lon="7.9349023"><ele>416.0</ele><time>2026-04-28T06:41:34.444Z</time></trkpt><trkpt lat="44.4067291" lon="7.93504"><ele>416.0</ele><time>2026-04-28T06:41:35.444Z</time></trkpt><trkpt lat="44.406855" lon="7.9352005"><ele>416.3333333333333</ele><time>2026-04-28T06:41:36.445Z</time></trkpt><trkpt lat="44.4070005" lon="7.9353812"><ele>416.66666666666663</ele><time>2026-04-28T06:41:37.444Z</time></trkpt><trkpt lat="44.4071452" lon="7.9355547"><ele>417.0</ele><time>2026-04-28T06:41:38.445Z</time></trkpt><trkpt lat="44.4072977" lon="7.9357386"><ele>417.66666666666663</ele><time>2026-04-28T06:41:39.444Z</time></trkpt><trkpt lat="44.4074624" lon="7.935933"><ele>418.3333333333333</ele><time>2026-04-28T06:41:40.445Z</time></trkpt><trkpt lat="44.4076382" lon="7.9361422"><ele>419.0</ele><time>2026-04-28T06:41:41.445Z</time></trkpt><trkpt lat="44.4078207" lon="7.9363505"><ele>418.66666666666663</ele><time>2026-04-28T06:41:42.444Z</time></trkpt><trkpt lat="44.407997" lon="7.9365437"><ele>418.33333333333337</ele><time>2026-04-28T06:41:43.445Z</time></trkpt><trkpt lat="44.4081795" lon="7.9367276"><ele>418.0</ele><time>2026-04-28T06:41:44.444Z</time></trkpt><trkpt lat="44.4083683" lon="7.9368823"><ele>418.0</ele><time>2026-04-28T06:41:45.444Z</time></trkpt><trkpt lat="44.4085637" lon="7.9370235"><ele>418.0</ele><time>2026-04-28T06:41:46.445Z</time></trkpt><trkpt lat="44.4087611" lon="7.9371668"><ele>418.0</ele><time>2026-04-28T06:41:47.444Z</time></trkpt><trkpt lat="44.4089557" lon="7.9373157"><ele>418.0</ele><time>2026-04-28T06:41:48.445Z</time></trkpt><trkpt lat="44.4091482" lon="7.9374796"><ele>418.0</ele><time>2026-04-28T06:41:49.445Z</time></trkpt><trkpt lat="44.4093351" lon="7.9376558"><ele>417.0</ele><time>2026-04-28T06:41:50.445Z</time></trkpt><trkpt lat="44.4095166" lon="7.9378488"><ele>416.0</ele><time>2026-04-28T06:41:51.444Z</time></trkpt><trkpt lat="44.4096862" lon="7.9380722"><ele>411.5</ele><time>2026-04-28T06:41:52.445Z</time></trkpt><trkpt lat="44.4098594" lon="7.9382862"><ele>407.0</ele><time>2026-04-28T06:41:53.445Z</time></trkpt><trkpt lat="44.4100314" lon="7.9385166"><ele>405.5</ele><time>2026-04-28T06:41:54.445Z</time></trkpt><trkpt lat="44.4101947" lon="7.938754"><ele>404.0</ele><time>2026-04-28T06:41:55.444Z</time></trkpt><trkpt lat="44.4103577" lon="7.938988"><ele>402.5</ele><time>2026-04-28T06:41:56.445Z</time></trkpt><trkpt lat="44.4105092" lon="7.9392395"><ele>401.0</ele><time>2026-04-28T06:41:57.444Z</time></trkpt><trkpt lat="44.4106605" lon="7.9394998"><ele>401.0</ele><time>2026-04-28T06:41:58.444Z</time></trkpt><trkpt lat="44.4108108" lon="7.9397596"><ele>401.0</ele><time>2026-04-28T06:41:59.445Z</time></trkpt><trkpt lat="44.4109597" lon="7.9400236"><ele>401.5</ele><time>2026-04-28T06:42:00.443Z</time></trkpt><trkpt lat="44.4111125" lon="7.9402802"><ele>402.0</ele><time>2026-04-28T06:42:01.445Z</time></trkpt><trkpt lat="44.411263" lon="7.9405368"><ele>402.0</ele><time>2026-04-28T06:42:02.445Z</time></trkpt><trkpt lat="44.4114142" lon="7.9407981"><ele>402.0</ele><time>2026-04-28T06:42:03.444Z</time></trkpt><trkpt lat="44.4115688" lon="7.9410545"><ele>402.0</ele><time>2026-04-28T06:42:04.445Z</time></trkpt><trkpt lat="44.4117234" lon="7.9413046"><ele>402.0</ele><time>2026-04-28T06:42:05.444Z</time></trkpt><trkpt lat="44.4118843" lon="7.9415534"><ele>402.0</ele><time>2026-04-28T06:42:06.445Z</time></trkpt><trkpt lat="44.4120525" lon="7.9417894"><ele>402.0</ele><time>2026-04-28T06:42:07.445Z</time></trkpt><trkpt lat="44.4122284" lon="7.9420092"><ele>402.0</ele><time>2026-04-28T06:42:08.445Z</time></trkpt><trkpt lat="44.4124123" lon="7.9422227"><ele>402.0</ele><time>2026-04-28T06:42:09.445Z</time></trkpt><trkpt lat="44.412599" lon="7.9424269"><ele>401.5</ele><time>2026-04-28T06:42:10.444Z</time></trkpt><trkpt lat="44.4127883" lon="7.9426315"><ele>401.0</ele><time>2026-04-28T06:42:11.444Z</time></trkpt><trkpt lat="44.4129835" lon="7.9428327"><ele>399.5</ele><time>2026-04-28T06:42:12.444Z</time></trkpt><trkpt lat="44.4131833" lon="7.943033"><ele>398.0</ele><time>2026-04-28T06:42:13.445Z</time></trkpt><trkpt lat="44.4133803" lon="7.9432371"><ele>398.0</ele><time>2026-04-28T06:42:14.444Z</time></trkpt><trkpt lat="44.4135756" lon="7.9434454"><ele>398.0</ele><time>2026-04-28T06:42:15.445Z</time></trkpt><trkpt lat="44.4137698" lon="7.9436528"><ele>397.5</ele><time>2026-04-28T06:42:16.444Z</time></trkpt><trkpt lat="44.4139634" lon="7.9438542"><ele>397.0</ele><time>2026-04-28T06:42:17.444Z</time></trkpt><trkpt lat="44.4141561" lon="7.9440515"><ele>397.5</ele><time>2026-04-28T06:42:18.445Z</time></trkpt><trkpt lat="44.4143542" lon="7.9442393"><ele>398.0</ele><time>2026-04-28T06:42:19.445Z</time></trkpt><trkpt lat="44.4145597" lon="7.9444132"><ele>397.0</ele><time>2026-04-28T06:42:20.444Z</time></trkpt><trkpt lat="44.4147706" lon="7.9445776"><ele>396.0</ele><time>2026-04-28T06:42:21.445Z</time></trkpt><trkpt lat="44.4149877" lon="7.9447278"><ele>396.0</ele><time>2026-04-28T06:42:22.445Z</time></trkpt><trkpt lat="44.415208" lon="7.9448698"><ele>396.0</ele><time>2026-04-28T06:42:23.445Z</time></trkpt><trkpt lat="44.4154273" lon="7.945012"><ele>394.0</ele><time>2026-04-28T06:42:24.444Z</time></trkpt><trkpt lat="44.4156483" lon="7.9451523"><ele>392.0</ele><time>2026-04-28T06:42:25.445Z</time></trkpt><trkpt lat="44.4158713" lon="7.9452934"><ele>392.0</ele><time>2026-04-28T06:42:26.444Z</time></trkpt><trkpt lat="44.4160956" lon="7.9454334"><ele>392.0</ele><time>2026-04-28T06:42:27.444Z</time></trkpt><trkpt lat="44.4163213" lon="7.9455702"><ele>391.0</ele><time>2026-04-28T06:42:28.444Z</time></trkpt><trkpt lat="44.4165452" lon="7.9457084"><ele>390.0</ele><time>2026-04-28T06:42:29.445Z</time></trkpt><trkpt lat="44.4167676" lon="7.9458506"><ele>390.5</ele><time>2026-04-28T06:42:30.444Z</time></trkpt><trkpt lat="44.41699" lon="7.9459937"><ele>391.0</ele><time>2026-04-28T06:42:31.445Z</time></trkpt><trkpt lat="44.4172074" lon="7.9461416"><ele>391.0</ele><time>2026-04-28T06:42:32.445Z</time></trkpt><trkpt lat="44.4174199" lon="7.946299"><ele>391.0</ele><time>2026-04-28T06:42:33.444Z</time></trkpt><trkpt lat="44.4176211" lon="7.94648"><ele>391.0</ele><time>2026-04-28T06:42:34.445Z</time></trkpt><trkpt lat="44.4178042" lon="7.9466945"><ele>391.0</ele><time>2026-04-28T06:42:35.444Z</time></trkpt><trkpt lat="44.4179664" lon="7.946943"><ele>389.5</ele><time>2026-04-28T06:42:36.445Z</time></trkpt><trkpt lat="44.4181151" lon="7.9472145"><ele>388.0</ele><time>2026-04-28T06:42:37.444Z</time></trkpt><trkpt lat="44.4182597" lon="7.9474964"><ele>385.5</ele><time>2026-04-28T06:42:38.445Z</time></trkpt><trkpt lat="44.4184033" lon="7.9477823"><ele>383.0</ele><time>2026-04-28T06:42:39.444Z</time></trkpt><trkpt lat="44.4185447" lon="7.9480692"><ele>383.0</ele><time>2026-04-28T06:42:40.444Z</time></trkpt><trkpt lat="44.4186752" lon="7.9483653"><ele>383.0</ele><time>2026-04-28T06:42:41.444Z</time></trkpt><trkpt lat="44.4187971" lon="7.9486664"><ele>382.0</ele><time>2026-04-28T06:42:42.444Z</time></trkpt><trkpt lat="44.4189104" lon="7.9489737"><ele>381.0</ele><time>2026-04-28T06:42:43.445Z</time></trkpt><trkpt lat="44.4190134" lon="7.949285"><ele>380.5</ele><time>2026-04-28T06:42:44.443Z</time></trkpt><trkpt lat="44.4191163" lon="7.9495976"><ele>380.0</ele><time>2026-04-28T06:42:45.445Z</time></trkpt><trkpt lat="44.4192182" lon="7.9499094"><ele>380.5</ele><time>2026-04-28T06:42:46.444Z</time></trkpt><trkpt lat="44.4193209" lon="7.9502208"><ele>381.0</ele><time>2026-04-28T06:42:47.445Z</time></trkpt><trkpt lat="44.4194238" lon="7.9505325"><ele>381.0</ele><time>2026-04-28T06:42:48.445Z</time></trkpt><trkpt lat="44.4195273" lon="7.9508438"><ele>381.0</ele><time>2026-04-28T06:42:49.444Z</time></trkpt><trkpt lat="44.4196334" lon="7.9511516"><ele>381.5</ele><time>2026-04-28T06:42:50.445Z</time></trkpt><trkpt lat="44.4197372" lon="7.9514625"><ele>382.0</ele><time>2026-04-28T06:42:51.445Z</time></trkpt><trkpt lat="44.4198393" lon="7.9517724"><ele>382.0</ele><time>2026-04-28T06:42:52.445Z</time></trkpt><trkpt lat="44.4199372" lon="7.9520806"><ele>382.0</ele><time>2026-04-28T06:42:53.444Z</time></trkpt><trkpt lat="44.4200443" lon="7.9523811"><ele>382.5</ele><time>2026-04-28T06:42:54.444Z</time></trkpt><trkpt lat="44.4201736" lon="7.9526614"><ele>383.0</ele><time>2026-04-28T06:42:55.445Z</time></trkpt><trkpt lat="44.4203311" lon="7.9529078"><ele>381.0</ele><time>2026-04-28T06:42:56.445Z</time></trkpt><trkpt lat="44.4205127" lon="7.9531199"><ele>379.0</ele><time>2026-04-28T06:42:57.445Z</time></trkpt><trkpt lat="44.4207149" lon="7.953303"><ele>380.0</ele><time>2026-04-28T06:42:58.445Z</time></trkpt><trkpt lat="44.4209178" lon="7.9534787"><ele>381.0</ele><time>2026-04-28T06:42:59.445Z</time></trkpt><trkpt lat="44.4211198" lon="7.9536569"><ele>378.0</ele><time>2026-04-28T06:43:00.444Z</time></trkpt><trkpt lat="44.4213231" lon="7.9538377"><ele>375.0</ele><time>2026-04-28T06:43:01.445Z</time></trkpt><trkpt lat="44.4215264" lon="7.9540181"><ele>375.0</ele><time>2026-04-28T06:43:02.445Z</time></trkpt><trkpt lat="44.4217286" lon="7.9542043"><ele>375.0</ele><time>2026-04-28T06:43:03.444Z</time></trkpt><trkpt lat="44.4219196" lon="7.9544138"><ele>374.5</ele><time>2026-04-28T06:43:04.444Z</time></trkpt><trkpt lat="44.4220992" lon="7.954646"><ele>374.0</ele><time>2026-04-28T06:43:05.445Z</time></trkpt><trkpt lat="44.42226" lon="7.9549051"><ele>377.0</ele><time>2026-04-28T06:43:06.444Z</time></trkpt><trkpt lat="44.4224034" lon="7.9551875"><ele>380.0</ele><time>2026-04-28T06:43:07.445Z</time></trkpt><trkpt lat="44.4225286" lon="7.95549"><ele>380.0</ele><time>2026-04-28T06:43:08.445Z</time></trkpt><trkpt lat="44.4226319" lon="7.9558117"><ele>380.0</ele><time>2026-04-28T06:43:09.444Z</time></trkpt><trkpt lat="44.4227164" lon="7.9561463"><ele>381.0</ele><time>2026-04-28T06:43:10.445Z</time></trkpt><trkpt lat="44.4227844" lon="7.9564899"><ele>382.0</ele><time>2026-04-28T06:43:11.444Z</time></trkpt><trkpt lat="44.4228479" lon="7.9568407"><ele>383.5</ele><time>2026-04-28T06:43:12.445Z</time></trkpt><trkpt lat="44.4229149" lon="7.9571925"><ele>385.0</ele><time>2026-04-28T06:43:13.445Z</time></trkpt><trkpt lat="44.4229902" lon="7.9575411"><ele>380.0</ele><time>2026-04-28T06:43:14.443Z</time></trkpt><trkpt lat="44.4230712" lon="7.9578846"><ele>375.0</ele><time>2026-04-28T06:43:15.445Z</time></trkpt><trkpt lat="44.423153" lon="7.9582161"><ele>374.5</ele><time>2026-04-28T06:43:16.443Z</time></trkpt><trkpt lat="44.4232305" lon="7.9585301"><ele>374.0</ele><time>2026-04-28T06:43:17.444Z</time></trkpt><trkpt lat="44.4233147" lon="7.9588223"><ele>374.0</ele><time>2026-04-28T06:43:18.445Z</time></trkpt><trkpt lat="44.4234093" lon="7.9590947"><ele>374.0</ele><time>2026-04-28T06:43:19.445Z</time></trkpt><trkpt lat="44.423529" lon="7.9593223"><ele>374.0</ele><time>2026-04-28T06:43:20.444Z</time></trkpt><trkpt lat="44.4236809" lon="7.9594898"><ele>371.0</ele><time>2026-04-28T06:43:21.444Z</time></trkpt><trkpt lat="44.4238454" lon="7.9596026"><ele>368.0</ele><time>2026-04-28T06:43:22.445Z</time></trkpt><trkpt lat="44.4239951" lon="7.9596738"><ele>365.0</ele><time>2026-04-28T06:43:23.444Z</time></trkpt><trkpt lat="44.4241237" lon="7.9597479"><ele>365.0</ele><time>2026-04-28T06:43:24.444Z</time></trkpt><trkpt lat="44.4242216" lon="7.9598613"><ele>365.0</ele><time>2026-04-28T06:43:25.445Z</time></trkpt><trkpt lat="44.4242819" lon="7.9600097"><ele>365.0</ele><time>2026-04-28T06:43:26.445Z</time></trkpt><trkpt lat="44.4243035" lon="7.9601778"><ele>365.0</ele><time>2026-04-28T06:43:27.445Z</time></trkpt><trkpt lat="44.4242783" lon="7.960338"><ele>364.0</ele><time>2026-04-28T06:43:28.444Z</time></trkpt><trkpt lat="44.4242067" lon="7.9604828"><ele>363.0</ele><time>2026-04-28T06:43:29.444Z</time></trkpt><trkpt lat="44.424095" lon="7.9605887"><ele>362.0</ele><time>2026-04-28T06:43:30.444Z</time></trkpt><trkpt lat="44.4239522" lon="7.9606418"><ele>361.0</ele><time>2026-04-28T06:43:31.444Z</time></trkpt><trkpt lat="44.4237902" lon="7.9606768"><ele>359.66666666666663</ele><time>2026-04-28T06:43:32.444Z</time></trkpt><trkpt lat="44.4236123" lon="7.9607042"><ele>358.3333333333333</ele><time>2026-04-28T06:43:33.444Z</time></trkpt><trkpt lat="44.4234159" lon="7.9607231"><ele>357.0</ele><time>2026-04-28T06:43:34.444Z</time></trkpt><trkpt lat="44.423205" lon="7.9607336"><ele>357.0</ele><time>2026-04-28T06:43:35.445Z</time></trkpt><trkpt lat="44.4229934" lon="7.9607297"><ele>357.0</ele><time>2026-04-28T06:43:36.444Z</time></trkpt><trkpt lat="44.4227796" lon="7.9607097"><ele>357.0</ele><time>2026-04-28T06:43:37.445Z</time></trkpt><trkpt lat="44.422549" lon="7.9606708"><ele>356.0</ele><time>2026-04-28T06:43:38.444Z</time></trkpt><trkpt lat="44.4223077" lon="7.960619"><ele>355.0</ele><time>2026-04-28T06:43:39.444Z</time></trkpt><trkpt lat="44.4220628" lon="7.9605684"><ele>352.0</ele><time>2026-04-28T06:43:40.445Z</time></trkpt><trkpt lat="44.4218222" lon="7.9605172"><ele>349.0</ele><time>2026-04-28T06:43:41.444Z</time></trkpt><trkpt lat="44.4215791" lon="7.9604674"><ele>349.0</ele><time>2026-04-28T06:43:42.445Z</time></trkpt><trkpt lat="44.4213282" lon="7.9604169"><ele>349.0</ele><time>2026-04-28T06:43:43.444Z</time></trkpt><trkpt lat="44.42107" lon="7.9603652"><ele>346.5</ele><time>2026-04-28T06:43:44.444Z</time></trkpt><trkpt lat="44.4208134" lon="7.9603109"><ele>344.0</ele><time>2026-04-28T06:43:45.445Z</time></trkpt><trkpt lat="44.4205577" lon="7.960249"><ele>342.5</ele><time>2026-04-28T06:43:46.443Z</time></trkpt><trkpt lat="44.4203079" lon="7.9601878"><ele>341.0</ele><time>2026-04-28T06:43:47.445Z</time></trkpt><trkpt lat="44.4200558" lon="7.9601349"><ele>341.0</ele><time>2026-04-28T06:43:48.443Z</time></trkpt><trkpt lat="44.4198059" lon="7.9600851"><ele>341.0</ele><time>2026-04-28T06:43:49.445Z</time></trkpt><trkpt lat="44.4195563" lon="7.9600333"><ele>345.5</ele><time>2026-04-28T06:43:50.445Z</time></trkpt><trkpt lat="44.4193125" lon="7.9599852"><ele>350.0</ele><time>2026-04-28T06:43:51.444Z</time></trkpt><trkpt lat="44.4190887" lon="7.9599197"><ele>350.0</ele><time>2026-04-28T06:43:52.444Z</time></trkpt><trkpt lat="44.4188642" lon="7.95987"><ele>350.0</ele><time>2026-04-28T06:43:53.445Z</time></trkpt><trkpt lat="44.4186455" lon="7.9598373"><ele>350.0</ele><time>2026-04-28T06:43:54.443Z</time></trkpt><trkpt lat="44.4184096" lon="7.9598419"><ele>349.0</ele><time>2026-04-28T06:43:55.445Z</time></trkpt><trkpt lat="44.4181859" lon="7.9598648"><ele>348.0</ele><time>2026-04-28T06:43:56.445Z</time></trkpt><trkpt lat="44.4179606" lon="7.959931"><ele>348.0</ele><time>2026-04-28T06:43:57.445Z</time></trkpt><trkpt lat="44.4177343" lon="7.9600273"><ele>348.0</ele><time>2026-04-28T06:43:58.444Z</time></trkpt><trkpt lat="44.4175138" lon="7.9601468"><ele>346.5</ele><time>2026-04-28T06:43:59.444Z</time></trkpt><trkpt lat="44.417306" lon="7.9603035"><ele>345.0</ele><time>2026-04-28T06:44:00.444Z</time></trkpt><trkpt lat="44.4171087" lon="7.9604784"><ele>345.0</ele><time>2026-04-28T06:44:01.444Z</time></trkpt><trkpt lat="44.4169143" lon="7.9606662"><ele>345.0</ele><time>2026-04-28T06:44:02.445Z</time></trkpt><trkpt lat="44.4167169" lon="7.9608686"><ele>343.0</ele><time>2026-04-28T06:44:03.444Z</time></trkpt><trkpt lat="44.4165222" lon="7.9610664"><ele>341.0</ele><time>2026-04-28T06:44:04.445Z</time></trkpt><trkpt lat="44.4163286" lon="7.9612677"><ele>343.0</ele><time>2026-04-28T06:44:05.445Z</time></trkpt><trkpt lat="44.4161344" lon="7.9614649"><ele>345.0</ele><time>2026-04-28T06:44:06.445Z</time></trkpt><trkpt lat="44.4159379" lon="7.9616602"><ele>345.5</ele><time>2026-04-28T06:44:07.443Z</time></trkpt><trkpt lat="44.4157428" lon="7.9618622"><ele>346.0</ele><time>2026-04-28T06:44:08.445Z</time></trkpt><trkpt lat="44.4155514" lon="7.96206"><ele>354.5</ele><time>2026-04-28T06:44:09.444Z</time></trkpt><trkpt lat="44.415362" lon="7.9622543"><ele>363.0</ele><time>2026-04-28T06:44:10.444Z</time></trkpt><trkpt lat="44.4151689" lon="7.962452"><ele>359.0</ele><time>2026-04-28T06:44:11.445Z</time></trkpt><trkpt lat="44.414978" lon="7.9626512"><ele>355.0</ele><time>2026-04-28T06:44:12.445Z</time></trkpt><trkpt lat="44.4147848" lon="7.9628475"><ele>357.0</ele><time>2026-04-28T06:44:13.443Z</time></trkpt><trkpt lat="44.4145958" lon="7.9630409"><ele>359.0</ele><time>2026-04-28T06:44:14.444Z</time></trkpt><trkpt lat="44.4144054" lon="7.9632273"><ele>359.5</ele><time>2026-04-28T06:44:15.444Z</time></trkpt><trkpt lat="44.4142094" lon="7.9633996"><ele>360.0</ele><time>2026-04-28T06:44:16.445Z</time></trkpt><trkpt lat="44.4140048" lon="7.9635576"><ele>361.0</ele><time>2026-04-28T06:44:17.445Z</time></trkpt><trkpt lat="44.4137974" lon="7.9636948"><ele>362.0</ele><time>2026-04-28T06:44:18.444Z</time></trkpt><trkpt lat="44.4135961" lon="7.9637957"><ele>363.0</ele><time>2026-04-28T06:44:19.444Z</time></trkpt><trkpt lat="44.4133982" lon="7.9638643"><ele>363.0</ele><time>2026-04-28T06:44:20.444Z</time></trkpt><trkpt lat="44.4132127" lon="7.9639176"><ele>363.0</ele><time>2026-04-28T06:44:21.444Z</time></trkpt><trkpt lat="44.4130383" lon="7.9639455"><ele>363.0</ele><time>2026-04-28T06:44:22.445Z</time></trkpt><trkpt lat="44.4128711" lon="7.9639536"><ele>364.75</ele><time>2026-04-28T06:44:23.445Z</time></trkpt><trkpt lat="44.4127204" lon="7.9639549"><ele>366.5</ele><time>2026-04-28T06:44:24.446Z</time></trkpt><trkpt lat="44.412585" lon="7.9639406"><ele>368.25</ele><time>2026-04-28T06:44:25.446Z</time></trkpt><trkpt lat="44.4124524" lon="7.9639237"><ele>370.0</ele><time>2026-04-28T06:44:26.446Z</time></trkpt><trkpt lat="44.4123264" lon="7.9639062"><ele>370.0</ele><time>2026-04-28T06:44:27.446Z</time></trkpt><trkpt lat="44.4122046" lon="7.9638919"><ele>370.0</ele><time>2026-04-28T06:44:28.445Z</time></trkpt><trkpt lat="44.4120864" lon="7.963883"><ele>370.0</ele><time>2026-04-28T06:44:29.445Z</time></trkpt><trkpt lat="44.4119783" lon="7.9638648"><ele>370.0</ele><time>2026-04-28T06:44:30.445Z</time></trkpt><trkpt lat="44.4118905" lon="7.963825"><ele>370.0</ele><time>2026-04-28T06:44:31.446Z</time></trkpt><trkpt lat="44.4118197" lon="7.963775"><ele>370.0</ele><time>2026-04-28T06:44:32.445Z</time></trkpt><trkpt lat="44.4117283" lon="7.9637574"><ele>370.0</ele><time>2026-04-28T06:44:34.446Z</time></trkpt><trkpt lat="44.4117614" lon="7.9638501"><ele>370.0</ele><time>2026-04-28T06:44:36.446Z</time></trkpt><trkpt lat="44.4119043" lon="7.963919"><ele>370.0</ele><time>2026-04-28T06:44:38.445Z</time></trkpt><trkpt lat="44.4120224" lon="7.963927"><ele>370.0</ele><time>2026-04-28T06:44:39.446Z</time></trkpt><trkpt lat="44.4121626" lon="7.9639287"><ele>370.0</ele><time>2026-04-28T06:44:40.446Z</time></trkpt><trkpt lat="44.412311" lon="7.9639397"><ele>370.0</ele><time>2026-04-28T06:44:41.445Z</time></trkpt><trkpt lat="44.4124711" lon="7.9639581"><ele>370.0</ele><time>2026-04-28T06:44:42.446Z</time></trkpt><trkpt lat="44.4126323" lon="7.9639778"><ele>370.0</ele><time>2026-04-28T06:44:43.445Z</time></trkpt><trkpt lat="44.4128084" lon="7.9639937"><ele>370.0</ele><time>2026-04-28T06:44:44.446Z</time></trkpt><trkpt lat="44.4129981" lon="7.9640218"><ele>370.0</ele><time>2026-04-28T06:44:45.445Z</time></trkpt><trkpt lat="44.4131804" lon="7.9640687"><ele>367.66666666666663</ele><time>2026-04-28T06:44:46.446Z</time></trkpt><trkpt lat="44.4133537" lon="7.9641468"><ele>365.3333333333333</ele><time>2026-04-28T06:44:47.446Z</time></trkpt><trkpt lat="44.4135351" lon="7.9642497"><ele>363.0</ele><time>2026-04-28T06:44:48.445Z</time></trkpt><trkpt lat="44.4137241" lon="7.9643386"><ele>366.0</ele><time>2026-04-28T06:44:49.445Z</time></trkpt><trkpt lat="44.4139198" lon="7.964412"><ele>369.0</ele><time>2026-04-28T06:44:50.445Z</time></trkpt><trkpt lat="44.414113" lon="7.964493"><ele>372.0</ele><time>2026-04-28T06:44:51.445Z</time></trkpt><trkpt lat="44.4142974" lon="7.9645896"><ele>372.0</ele><time>2026-04-28T06:44:52.445Z</time></trkpt><trkpt lat="44.4144651" lon="7.9647121"><ele>372.0</ele><time>2026-04-28T06:44:53.446Z</time></trkpt><trkpt lat="44.4146111" lon="7.9648722"><ele>372.0</ele><time>2026-04-28T06:44:54.446Z</time></trkpt><trkpt lat="44.4147359" lon="7.965074"><ele>369.6666666666667</ele><time>2026-04-28T06:44:55.446Z</time></trkpt><trkpt lat="44.414831" lon="7.965311"><ele>367.33333333333337</ele><time>2026-04-28T06:44:56.446Z</time></trkpt><trkpt lat="44.4149085" lon="7.9655705"><ele>365.0</ele><time>2026-04-28T06:44:57.446Z</time></trkpt><trkpt lat="44.4149871" lon="7.9658315"><ele>368.0</ele><time>2026-04-28T06:44:58.445Z</time></trkpt><trkpt lat="44.415085" lon="7.9660842"><ele>371.0</ele><time>2026-04-28T06:44:59.445Z</time></trkpt><trkpt lat="44.4151915" lon="7.9663414"><ele>374.0</ele><time>2026-04-28T06:45:00.445Z</time></trkpt><trkpt lat="44.4153074" lon="7.9665893"><ele>371.33333333333337</ele><time>2026-04-28T06:45:01.446Z</time></trkpt><trkpt lat="44.4154333" lon="7.9668378"><ele>368.6666666666667</ele><time>2026-04-28T06:45:02.445Z</time></trkpt><trkpt lat="44.4155598" lon="7.9670873"><ele>366.0</ele><time>2026-04-28T06:45:03.445Z</time></trkpt><trkpt lat="44.4156912" lon="7.9673382"><ele>368.6666666666667</ele><time>2026-04-28T06:45:04.445Z</time></trkpt><trkpt lat="44.4158132" lon="7.9675917"><ele>371.33333333333337</ele><time>2026-04-28T06:45:05.445Z</time></trkpt><trkpt lat="44.4159194" lon="7.9678435"><ele>374.0</ele><time>2026-04-28T06:45:06.445Z</time></trkpt><trkpt lat="44.4160198" lon="7.9681113"><ele>373.0</ele><time>2026-04-28T06:45:07.446Z</time></trkpt><trkpt lat="44.4161" lon="7.9683758"><ele>372.0</ele><time>2026-04-28T06:45:08.446Z</time></trkpt><trkpt lat="44.416164" lon="7.9686249"><ele>371.0</ele><time>2026-04-28T06:45:09.446Z</time></trkpt><trkpt lat="44.4162204" lon="7.9688767"><ele>371.0</ele><time>2026-04-28T06:45:10.445Z</time></trkpt><trkpt lat="44.4162888" lon="7.9691066"><ele>371.0</ele><time>2026-04-28T06:45:11.446Z</time></trkpt><trkpt lat="44.4163601" lon="7.9693552"><ele>371.0</ele><time>2026-04-28T06:45:12.445Z</time></trkpt><trkpt lat="44.4164798" lon="7.969551"><ele>362.33333333333337</ele><time>2026-04-28T06:45:13.445Z</time></trkpt><trkpt lat="44.4166798" lon="7.9697232"><ele>353.6666666666667</ele><time>2026-04-28T06:45:14.444Z</time></trkpt><trkpt lat="44.4168292" lon="7.9699264"><ele>345.0</ele><time>2026-04-28T06:45:15.445Z</time></trkpt><trkpt lat="44.4169766" lon="7.9701334"><ele>344.0</ele><time>2026-04-28T06:45:16.445Z</time></trkpt><trkpt lat="44.4171188" lon="7.9703482"><ele>343.0</ele><time>2026-04-28T06:45:17.446Z</time></trkpt><trkpt lat="44.4172406" lon="7.9705829"><ele>342.0</ele><time>2026-04-28T06:45:18.446Z</time></trkpt><trkpt lat="44.4173422" lon="7.9708352"><ele>342.0</ele><time>2026-04-28T06:45:19.446Z</time></trkpt><trkpt lat="44.4174332" lon="7.9710945"><ele>342.0</ele><time>2026-04-28T06:45:20.445Z</time></trkpt><trkpt lat="44.4175134" lon="7.97136"><ele>342.0</ele><time>2026-04-28T06:45:21.446Z</time></trkpt><trkpt lat="44.4175905" lon="7.9716129"><ele>342.0</ele><time>2026-04-28T06:45:22.445Z</time></trkpt><trkpt lat="44.417663" lon="7.9718518"><ele>342.0</ele><time>2026-04-28T06:45:23.444Z</time></trkpt><trkpt lat="44.4177343" lon="7.9720817"><ele>342.0</ele><time>2026-04-28T06:45:24.445Z</time></trkpt><trkpt lat="44.4177992" lon="7.9722968"><ele>342.0</ele><time>2026-04-28T06:45:25.446Z</time></trkpt><trkpt lat="44.4178526" lon="7.9724815"><ele>342.0</ele><time>2026-04-28T06:45:26.446Z</time></trkpt><trkpt lat="44.4178785" lon="7.9726499"><ele>342.0</ele><time>2026-04-28T06:45:27.446Z</time></trkpt><trkpt lat="44.4178559" lon="7.9727912"><ele>342.0</ele><time>2026-04-28T06:45:28.446Z</time></trkpt><trkpt lat="44.4177942" lon="7.9729015"><ele>343.40000000000003</ele><time>2026-04-28T06:45:29.444Z</time></trkpt><trkpt lat="44.4177002" lon="7.9729777"><ele>344.8</ele><time>2026-04-28T06:45:30.446Z</time></trkpt><trkpt lat="44.4175988" lon="7.9730601"><ele>346.2</ele><time>2026-04-28T06:45:31.445Z</time></trkpt><trkpt lat="44.4174991" lon="7.973143"><ele>347.6</ele><time>2026-04-28T06:45:32.446Z</time></trkpt><trkpt lat="44.417418" lon="7.973228"><ele>349.0</ele><time>2026-04-28T06:45:33.445Z</time></trkpt><trkpt lat="44.4173713" lon="7.9733345"><ele>350.0</ele><time>2026-04-28T06:45:34.446Z</time></trkpt><trkpt lat="44.417327" lon="7.973408"><ele>351.0</ele><time>2026-04-28T06:45:35.445Z</time></trkpt><trkpt lat="44.4172996" lon="7.9734942"><ele>352.0</ele><time>2026-04-28T06:45:36.445Z</time></trkpt><trkpt lat="44.4174185" lon="7.9735646"><ele>353.0</ele><time>2026-04-28T06:45:37.445Z</time></trkpt><trkpt lat="44.4174751" lon="7.973638"><ele>354.0</ele><time>2026-04-28T06:45:39.445Z</time></trkpt><trkpt lat="44.4174995" lon="7.9737194"><ele>355.0</ele><time>2026-04-28T06:45:42.445Z</time></trkpt><trkpt lat="44.4176144" lon="7.9737638"><ele>355.0</ele><time>2026-04-28T06:45:47.444Z</time></trkpt><trkpt lat="44.4176808" lon="7.9738095"><ele>355.0</ele><time>2026-04-28T06:45:48.445Z</time></trkpt><trkpt lat="44.4177559" lon="7.9738691"><ele>355.0</ele><time>2026-04-28T06:45:49.445Z</time></trkpt><trkpt lat="44.4178218" lon="7.9739251"><ele>355.0</ele><time>2026-04-28T06:45:50.446Z</time></trkpt><trkpt lat="44.4178753" lon="7.973976"><ele>355.0</ele><time>2026-04-28T06:45:51.446Z</time></trkpt><trkpt lat="44.4179513" lon="7.9740474"><ele>355.0</ele><time>2026-04-28T06:45:53.446Z</time></trkpt><trkpt lat="44.4179227" lon="7.9741581"><ele>355.75</ele><time>2026-04-28T06:45:56.444Z</time></trkpt><trkpt lat="44.4178106" lon="7.9742838"><ele>356.5</ele><time>2026-04-28T06:45:58.445Z</time></trkpt><trkpt lat="44.4177253" lon="7.97437"><ele>357.25</ele><time>2026-04-28T06:45:59.444Z</time></trkpt><trkpt lat="44.4176281" lon="7.9744595"><ele>358.0</ele><time>2026-04-28T06:46:00.445Z</time></trkpt><trkpt lat="44.4175112" lon="7.974558"><ele>358.0</ele><time>2026-04-28T06:46:01.446Z</time></trkpt><trkpt lat="44.4173772" lon="7.9746641"><ele>358.0</ele><time>2026-04-28T06:46:02.445Z</time></trkpt><trkpt lat="44.4172356" lon="7.9747825"><ele>358.0</ele><time>2026-04-28T06:46:03.445Z</time></trkpt><trkpt lat="44.4170919" lon="7.9749157"><ele>358.3333333333333</ele><time>2026-04-28T06:46:04.446Z</time></trkpt><trkpt lat="44.4169427" lon="7.9750621"><ele>358.6666666666667</ele><time>2026-04-28T06:46:05.445Z</time></trkpt><trkpt lat="44.4167921" lon="7.975207"><ele>359.0</ele><time>2026-04-28T06:46:06.445Z</time></trkpt><trkpt lat="44.416642" lon="7.9753532"><ele>359.0</ele><time>2026-04-28T06:46:07.444Z</time></trkpt><trkpt lat="44.4164899" lon="7.9755028"><ele>359.0</ele><time>2026-04-28T06:46:08.445Z</time></trkpt><trkpt lat="44.4163354" lon="7.9756531"><ele>359.0</ele><time>2026-04-28T06:46:09.446Z</time></trkpt><trkpt lat="44.4161799" lon="7.9757981"><ele>358.33333333333337</ele><time>2026-04-28T06:46:10.445Z</time></trkpt><trkpt lat="44.4160254" lon="7.9759415"><ele>357.6666666666667</ele><time>2026-04-28T06:46:11.446Z</time></trkpt><trkpt lat="44.4158693" lon="7.976084"><ele>357.0</ele><time>2026-04-28T06:46:12.444Z</time></trkpt><trkpt lat="44.4157138" lon="7.9762261"><ele>357.0</ele><time>2026-04-28T06:46:13.445Z</time></trkpt><trkpt lat="44.415556" lon="7.976367"><ele>357.0</ele><time>2026-04-28T06:46:14.446Z</time></trkpt><trkpt lat="44.4154004" lon="7.9765093"><ele>357.0</ele><time>2026-04-28T06:46:15.445Z</time></trkpt><trkpt lat="44.4152472" lon="7.9766507"><ele>357.0</ele><time>2026-04-28T06:46:16.446Z</time></trkpt><trkpt lat="44.4150958" lon="7.9767915"><ele>357.0</ele><time>2026-04-28T06:46:17.445Z</time></trkpt><trkpt lat="44.4149483" lon="7.9769283"><ele>357.0</ele><time>2026-04-28T06:46:18.446Z</time></trkpt><trkpt lat="44.4148054" lon="7.9770587"><ele>357.0</ele><time>2026-04-28T06:46:19.444Z</time></trkpt><trkpt lat="44.4146655" lon="7.9771903"><ele>357.0</ele><time>2026-04-28T06:46:20.446Z</time></trkpt><trkpt lat="44.4145288" lon="7.9773268"><ele>357.0</ele><time>2026-04-28T06:46:21.445Z</time></trkpt><trkpt lat="44.4144045" lon="7.9774522"><ele>356.5</ele><time>2026-04-28T06:46:22.446Z</time></trkpt><trkpt lat="44.4142986" lon="7.9775533"><ele>356.0</ele><time>2026-04-28T06:46:23.444Z</time></trkpt><trkpt lat="44.4141782" lon="7.977658"><ele>355.5</ele><time>2026-04-28T06:46:24.446Z</time></trkpt><trkpt lat="44.4140361" lon="7.9777721"><ele>355.0</ele><time>2026-04-28T06:46:25.446Z</time></trkpt><trkpt lat="44.4138902" lon="7.9779004"><ele>354.0</ele><time>2026-04-28T06:46:26.444Z</time></trkpt><trkpt lat="44.4137419" lon="7.9780351"><ele>353.0</ele><time>2026-04-28T06:46:27.445Z</time></trkpt><trkpt lat="44.4135929" lon="7.9781711"><ele>352.0</ele><time>2026-04-28T06:46:28.446Z</time></trkpt><trkpt lat="44.4134557" lon="7.9782954"><ele>352.75</ele><time>2026-04-28T06:46:29.446Z</time></trkpt><trkpt lat="44.4133418" lon="7.9784217"><ele>353.5</ele><time>2026-04-28T06:46:30.446Z</time></trkpt><trkpt lat="44.4132484" lon="7.9785675"><ele>354.25</ele><time>2026-04-28T06:46:31.446Z</time></trkpt><trkpt lat="44.4131963" lon="7.9787622"><ele>355.0</ele><time>2026-04-28T06:46:32.445Z</time></trkpt><trkpt lat="44.4131592" lon="7.9789761"><ele>355.0</ele><time>2026-04-28T06:46:33.446Z</time></trkpt><trkpt lat="44.4131273" lon="7.9791792"><ele>355.0</ele><time>2026-04-28T06:46:34.446Z</time></trkpt><trkpt lat="44.4131044" lon="7.9793658"><ele>355.0</ele><time>2026-04-28T06:46:35.446Z</time></trkpt><trkpt lat="44.4131048" lon="7.9795321"><ele>355.0</ele><time>2026-04-28T06:46:36.445Z</time></trkpt><trkpt lat="44.4131444" lon="7.9796857"><ele>354.66666666666663</ele><time>2026-04-28T06:46:37.446Z</time></trkpt><trkpt lat="44.4132344" lon="7.9798358"><ele>354.3333333333333</ele><time>2026-04-28T06:46:38.445Z</time></trkpt><trkpt lat="44.4133414" lon="7.9799896"><ele>354.0</ele><time>2026-04-28T06:46:39.444Z</time></trkpt><trkpt lat="44.4134521" lon="7.9801535"><ele>353.0</ele><time>2026-04-28T06:46:40.446Z</time></trkpt><trkpt lat="44.4135609" lon="7.980335"><ele>352.0</ele><time>2026-04-28T06:46:41.445Z</time></trkpt><trkpt lat="44.4136622" lon="7.980539"><ele>351.0</ele><time>2026-04-28T06:46:42.446Z</time></trkpt><trkpt lat="44.413751" lon="7.9807647"><ele>350.6666666666667</ele><time>2026-04-28T06:46:43.446Z</time></trkpt><trkpt lat="44.4138208" lon="7.9810198"><ele>350.33333333333337</ele><time>2026-04-28T06:46:44.445Z</time></trkpt><trkpt lat="44.4138726" lon="7.9812962"><ele>350.0</ele><time>2026-04-28T06:46:45.446Z</time></trkpt><trkpt lat="44.4139134" lon="7.9815802"><ele>355.33333333333337</ele><time>2026-04-28T06:46:46.445Z</time></trkpt><trkpt lat="44.4139482" lon="7.9818559"><ele>360.6666666666667</ele><time>2026-04-28T06:46:47.445Z</time></trkpt><trkpt lat="44.4139814" lon="7.9821372"><ele>366.0</ele><time>2026-04-28T06:46:48.446Z</time></trkpt><trkpt lat="44.4140006" lon="7.9824279"><ele>366.0</ele><time>2026-04-28T06:46:49.446Z</time></trkpt><trkpt lat="44.414003" lon="7.9827236"><ele>366.0</ele><time>2026-04-28T06:46:50.446Z</time></trkpt><trkpt lat="44.4139878" lon="7.9830229"><ele>366.0</ele><time>2026-04-28T06:46:51.445Z</time></trkpt><trkpt lat="44.4139692" lon="7.9833185"><ele>367.3333333333333</ele><time>2026-04-28T06:46:52.446Z</time></trkpt><trkpt lat="44.4139573" lon="7.9835991"><ele>368.66666666666663</ele><time>2026-04-28T06:46:53.446Z</time></trkpt><trkpt lat="44.4139461" lon="7.9838639"><ele>370.0</ele><time>2026-04-28T06:46:54.446Z</time></trkpt><trkpt lat="44.413909" lon="7.9841196"><ele>373.66666666666663</ele><time>2026-04-28T06:46:55.445Z</time></trkpt><trkpt lat="44.4138389" lon="7.9843723"><ele>377.3333333333333</ele><time>2026-04-28T06:46:56.446Z</time></trkpt><trkpt lat="44.413764" lon="7.98463"><ele>381.0</ele><time>2026-04-28T06:46:57.445Z</time></trkpt><trkpt lat="44.4136895" lon="7.9848925"><ele>373.3333333333333</ele><time>2026-04-28T06:46:58.445Z</time></trkpt><trkpt lat="44.4136107" lon="7.9851565"><ele>365.66666666666663</ele><time>2026-04-28T06:46:59.445Z</time></trkpt><trkpt lat="44.4135239" lon="7.9854156"><ele>358.0</ele><time>2026-04-28T06:47:00.446Z</time></trkpt><trkpt lat="44.4134317" lon="7.9856676"><ele>361.3333333333333</ele><time>2026-04-28T06:47:01.446Z</time></trkpt><trkpt lat="44.4133441" lon="7.9859139"><ele>364.6666666666667</ele><time>2026-04-28T06:47:02.444Z</time></trkpt><trkpt lat="44.4132645" lon="7.9861455"><ele>368.0</ele><time>2026-04-28T06:47:03.445Z</time></trkpt><trkpt lat="44.4131939" lon="7.9863557"><ele>368.0</ele><time>2026-04-28T06:47:04.446Z</time></trkpt><trkpt lat="44.4131289" lon="7.9865397"><ele>368.0</ele><time>2026-04-28T06:47:05.446Z</time></trkpt><trkpt lat="44.4130755" lon="7.9866911"><ele>368.0</ele><time>2026-04-28T06:47:06.444Z</time></trkpt><trkpt lat="44.4130343" lon="7.9868336"><ele>368.0</ele><time>2026-04-28T06:47:07.446Z</time></trkpt><trkpt lat="44.4130035" lon="7.9869705"><ele>366.79999999999995</ele><time>2026-04-28T06:47:08.445Z</time></trkpt><trkpt lat="44.4129889" lon="7.9870981"><ele>365.6</ele><time>2026-04-28T06:47:09.445Z</time></trkpt><trkpt lat="44.4129679" lon="7.9872154"><ele>364.4</ele><time>2026-04-28T06:47:10.446Z</time></trkpt><trkpt lat="44.4129477" lon="7.9873097"><ele>363.20000000000005</ele><time>2026-04-28T06:47:11.445Z</time></trkpt><trkpt lat="44.4129133" lon="7.9874262"><ele>362.0</ele><time>2026-04-28T06:47:13.446Z</time></trkpt><trkpt lat="44.4111062" lon="7.9916378"><ele>364.0</ele><time>2026-04-28T06:48:07.445Z</time></trkpt><trkpt lat="44.4110217" lon="7.9918626"><ele>366.0</ele><time>2026-04-28T06:48:08.445Z</time></trkpt><trkpt lat="44.4109142" lon="7.9920468"><ele>368.0</ele><time>2026-04-28T06:48:09.445Z</time></trkpt><trkpt lat="44.4108032" lon="7.9922388"><ele>368.0</ele><time>2026-04-28T06:48:10.445Z</time></trkpt><trkpt lat="44.410713" lon="7.9924332"><ele>368.0</ele><time>2026-04-28T06:48:11.445Z</time></trkpt><trkpt lat="44.4106165" lon="7.9926232"><ele>368.0</ele><time>2026-04-28T06:48:12.446Z</time></trkpt><trkpt lat="44.4105117" lon="7.9928118"><ele>365.6666666666667</ele><time>2026-04-28T06:48:13.445Z</time></trkpt><trkpt lat="44.4104239" lon="7.993011"><ele>363.3333333333333</ele><time>2026-04-28T06:48:14.446Z</time></trkpt><trkpt lat="44.4103307" lon="7.9932079"><ele>361.0</ele><time>2026-04-28T06:48:15.445Z</time></trkpt><trkpt lat="44.4102402" lon="7.9933993"><ele>361.0</ele><time>2026-04-28T06:48:16.445Z</time></trkpt><trkpt lat="44.4101513" lon="7.9935684"><ele>361.0</ele><time>2026-04-28T06:48:17.446Z</time></trkpt><trkpt lat="44.4100824" lon="7.9937207"><ele>361.0</ele><time>2026-04-28T06:48:18.446Z</time></trkpt><trkpt lat="44.4100427" lon="7.9938432"><ele>361.0</ele><time>2026-04-28T06:48:19.446Z</time></trkpt><trkpt lat="44.4100187" lon="7.9939533"><ele>361.0</ele><time>2026-04-28T06:48:20.445Z</time></trkpt><trkpt lat="44.4100044" lon="7.9940737"><ele>361.0</ele><time>2026-04-28T06:48:21.446Z</time></trkpt><trkpt lat="44.4099679" lon="7.9942037"><ele>361.0</ele><time>2026-04-28T06:48:22.446Z</time></trkpt><trkpt lat="44.4099205" lon="7.9943416"><ele>361.0</ele><time>2026-04-28T06:48:23.446Z</time></trkpt><trkpt lat="44.409881" lon="7.994459"><ele>361.0</ele><time>2026-04-28T06:48:24.445Z</time></trkpt><trkpt lat="44.4098539" lon="7.9945466"><ele>361.0</ele><time>2026-04-28T06:48:25.445Z</time></trkpt><trkpt lat="44.4098122" lon="7.9946303"><ele>361.0</ele><time>2026-04-28T06:48:27.445Z</time></trkpt><trkpt lat="44.4097311" lon="7.9946218"><ele>361.0</ele><time>2026-04-28T06:48:29.445Z</time></trkpt><trkpt lat="44.4096464" lon="7.9945615"><ele>361.0</ele><time>2026-04-28T06:48:31.446Z</time></trkpt><trkpt lat="44.4095878" lon="7.9944368"><ele>361.0</ele><time>2026-04-28T06:48:32.444Z</time></trkpt><trkpt lat="44.4095269" lon="7.994342"><ele>361.0</ele><time>2026-04-28T06:48:33.445Z</time></trkpt><trkpt lat="44.4094696" lon="7.9942862"><ele>360.4</ele><time>2026-04-28T06:48:34.446Z</time></trkpt><trkpt lat="44.4093986" lon="7.9943219"><ele>359.8</ele><time>2026-04-28T06:48:36.446Z</time></trkpt><trkpt lat="44.4093555" lon="7.994499"><ele>359.2</ele><time>2026-04-28T06:48:38.446Z</time></trkpt><trkpt lat="44.409338" lon="7.9946183"><ele>358.59999999999997</ele><time>2026-04-28T06:48:39.445Z</time></trkpt><trkpt lat="44.4093204" lon="7.994742"><ele>358.0</ele><time>2026-04-28T06:48:40.445Z</time></trkpt><trkpt lat="44.409298" lon="7.9948779"><ele>358.3333333333333</ele><time>2026-04-28T06:48:41.445Z</time></trkpt><trkpt lat="44.4092705" lon="7.9950176"><ele>358.66666666666663</ele><time>2026-04-28T06:48:42.446Z</time></trkpt><trkpt lat="44.4092471" lon="7.9951525"><ele>359.0</ele><time>2026-04-28T06:48:43.446Z</time></trkpt><trkpt lat="44.4092387" lon="7.9952687"><ele>359.3333333333333</ele><time>2026-04-28T06:48:44.446Z</time></trkpt><trkpt lat="44.409253" lon="7.9953549"><ele>359.6666666666667</ele><time>2026-04-28T06:48:45.446Z</time></trkpt><trkpt lat="44.4093011" lon="7.9954597"><ele>360.0</ele><time>2026-04-28T06:48:47.445Z</time></trkpt><trkpt lat="44.409403" lon="7.9955326"><ele>360.0</ele><time>2026-04-28T06:48:49.446Z</time></trkpt><trkpt lat="44.4094923" lon="7.9956087"><ele>360.0</ele><time>2026-04-28T06:48:50.446Z</time></trkpt><trkpt lat="44.4095796" lon="7.9957014"><ele>360.0</ele><time>2026-04-28T06:48:51.446Z</time></trkpt><trkpt lat="44.4096627" lon="7.9958022"><ele>360.0</ele><time>2026-04-28T06:48:52.446Z</time></trkpt><trkpt lat="44.4097496" lon="7.9959055"><ele>360.0</ele><time>2026-04-28T06:48:53.446Z</time></trkpt><trkpt lat="44.4098261" lon="7.9960204"><ele>362.8</ele><time>2026-04-28T06:48:54.446Z</time></trkpt><trkpt lat="44.4098822" lon="7.9961235"><ele>365.6</ele><time>2026-04-28T06:48:55.445Z</time></trkpt><trkpt lat="44.4098993" lon="7.9962523"><ele>368.4</ele><time>2026-04-28T06:48:57.446Z</time></trkpt><trkpt lat="44.4098474" lon="7.9960874"><ele>371.2</ele><time>2026-04-28T06:49:04.446Z</time></trkpt><trkpt lat="44.4097976" lon="7.9959741"><ele>374.0</ele><time>2026-04-28T06:49:05.446Z</time></trkpt><trkpt lat="44.4097314" lon="7.9958712"><ele>371.2</ele><time>2026-04-28T06:49:06.446Z</time></trkpt><trkpt lat="44.4096548" lon="7.9957808"><ele>368.4</ele><time>2026-04-28T06:49:07.445Z</time></trkpt><trkpt lat="44.4095778" lon="7.9956938"><ele>365.6</ele><time>2026-04-28T06:49:08.445Z</time></trkpt><trkpt lat="44.4095028" lon="7.9956172"><ele>362.8</ele><time>2026-04-28T06:49:09.446Z</time></trkpt><trkpt lat="44.4094333" lon="7.9955539"><ele>360.0</ele><time>2026-04-28T06:49:10.446Z</time></trkpt><trkpt lat="44.4093438" lon="7.9954864"><ele>360.0</ele><time>2026-04-28T06:49:12.445Z</time></trkpt><trkpt lat="44.4092806" lon="7.9955179"><ele>360.0</ele><time>2026-04-28T06:49:14.445Z</time></trkpt><trkpt lat="44.4092045" lon="7.9956816"><ele>360.0</ele><time>2026-04-28T06:49:16.446Z</time></trkpt><trkpt lat="44.4091447" lon="7.995836"><ele>360.0</ele><time>2026-04-28T06:49:17.446Z</time></trkpt><trkpt lat="44.4090592" lon="7.9960156"><ele>359.0</ele><time>2026-04-28T06:49:18.445Z</time></trkpt><trkpt lat="44.4089661" lon="7.9962116"><ele>358.0</ele><time>2026-04-28T06:49:19.445Z</time></trkpt><trkpt lat="44.4088658" lon="7.9964278"><ele>357.0</ele><time>2026-04-28T06:49:20.445Z</time></trkpt><trkpt lat="44.408772" lon="7.9966407"><ele>357.3333333333333</ele><time>2026-04-28T06:49:21.445Z</time></trkpt><trkpt lat="44.4087029" lon="7.9968034"><ele>357.6666666666667</ele><time>2026-04-28T06:49:22.445Z</time></trkpt><trkpt lat="44.4086478" lon="7.9969192"><ele>358.0</ele><time>2026-04-28T06:49:23.445Z</time></trkpt><trkpt lat="44.4086068" lon="7.9969964"><ele>358.33333333333337</ele><time>2026-04-28T06:49:24.446Z</time></trkpt><trkpt lat="44.4085664" lon="7.9970743"><ele>358.6666666666667</ele><time>2026-04-28T06:49:25.446Z</time></trkpt><trkpt lat="44.4085301" lon="7.9971512"><ele>359.0</ele><time>2026-04-28T06:49:26.444Z</time></trkpt><trkpt lat="44.4084885" lon="7.9972271"><ele>359.0</ele><time>2026-04-28T06:49:27.445Z</time></trkpt><trkpt lat="44.4084465" lon="7.9973219"><ele>359.0</ele><time>2026-04-28T06:49:28.445Z</time></trkpt><trkpt lat="44.4083961" lon="7.9974228"><ele>359.0</ele><time>2026-04-28T06:49:29.445Z</time></trkpt><trkpt lat="44.4083401" lon="7.9975372"><ele>359.0</ele><time>2026-04-28T06:49:30.445Z</time></trkpt><trkpt lat="44.4082799" lon="7.9976681"><ele>359.0</ele><time>2026-04-28T06:49:31.446Z</time></trkpt><trkpt lat="44.4081975" lon="7.9978341"><ele>359.33333333333337</ele><time>2026-04-28T06:49:32.445Z</time></trkpt><trkpt lat="44.4081041" lon="7.9980324"><ele>359.6666666666667</ele><time>2026-04-28T06:49:33.446Z</time></trkpt><trkpt lat="44.408012" lon="7.9982389"><ele>360.0</ele><time>2026-04-28T06:49:34.445Z</time></trkpt><trkpt lat="44.4079071" lon="7.9984718"><ele>359.6666666666667</ele><time>2026-04-28T06:49:35.445Z</time></trkpt><trkpt lat="44.4077941" lon="7.9987161"><ele>359.33333333333337</ele><time>2026-04-28T06:49:36.445Z</time></trkpt><trkpt lat="44.4076839" lon="7.9989521"><ele>359.0</ele><time>2026-04-28T06:49:37.446Z</time></trkpt><trkpt lat="44.4075797" lon="7.9991685"><ele>359.0</ele><time>2026-04-28T06:49:38.446Z</time></trkpt><trkpt lat="44.4074885" lon="7.9993686"><ele>359.0</ele><time>2026-04-28T06:49:39.445Z</time></trkpt><trkpt lat="44.4074046" lon="7.999556"><ele>359.0</ele><time>2026-04-28T06:49:40.445Z</time></trkpt><trkpt lat="44.4073188" lon="7.9997415"><ele>359.0</ele><time>2026-04-28T06:49:41.445Z</time></trkpt><trkpt lat="44.4072381" lon="7.999923"><ele>359.0</ele><time>2026-04-28T06:49:42.445Z</time></trkpt><trkpt lat="44.4071636" lon="8.0000974"><ele>359.0</ele><time>2026-04-28T06:49:43.446Z</time></trkpt><trkpt lat="44.4070793" lon="8.0002704"><ele>359.0</ele><time>2026-04-28T06:49:44.445Z</time></trkpt><trkpt lat="44.4069948" lon="8.0004374"><ele>358.0</ele><time>2026-04-28T06:49:45.444Z</time></trkpt><trkpt lat="44.406923" lon="8.0005996"><ele>357.0</ele><time>2026-04-28T06:49:46.446Z</time></trkpt><trkpt lat="44.4068535" lon="8.0007574"><ele>356.0</ele><time>2026-04-28T06:49:47.445Z</time></trkpt><trkpt lat="44.4067825" lon="8.000921"><ele>355.0</ele><time>2026-04-28T06:49:48.444Z</time></trkpt><trkpt lat="44.4067083" lon="8.001082"><ele>354.75</ele><time>2026-04-28T06:49:49.446Z</time></trkpt><trkpt lat="44.4066458" lon="8.0012321"><ele>354.5</ele><time>2026-04-28T06:49:50.445Z</time></trkpt><trkpt lat="44.4065824" lon="8.0013751"><ele>354.25</ele><time>2026-04-28T06:49:51.445Z</time></trkpt><trkpt lat="44.4065118" lon="8.001523"><ele>354.0</ele><time>2026-04-28T06:49:52.445Z</time></trkpt><trkpt lat="44.4064464" lon="8.0016698"><ele>354.0</ele><time>2026-04-28T06:49:53.445Z</time></trkpt><trkpt lat="44.4063789" lon="8.001816"><ele>354.0</ele><time>2026-04-28T06:49:54.444Z</time></trkpt><trkpt lat="44.4063062" lon="8.001971"><ele>354.0</ele><time>2026-04-28T06:49:55.444Z</time></trkpt><trkpt lat="44.4062263" lon="8.0021302"><ele>354.0</ele><time>2026-04-28T06:49:56.446Z</time></trkpt><trkpt lat="44.4061432" lon="8.0022951"><ele>354.0</ele><time>2026-04-28T06:49:57.445Z</time></trkpt><trkpt lat="44.4060624" lon="8.0024707"><ele>354.0</ele><time>2026-04-28T06:49:58.445Z</time></trkpt><trkpt lat="44.4059849" lon="8.0026469"><ele>354.0</ele><time>2026-04-28T06:49:59.446Z</time></trkpt><trkpt lat="44.4059058" lon="8.0028241"><ele>354.0</ele><time>2026-04-28T06:50:00.446Z</time></trkpt><trkpt lat="44.4058322" lon="8.0029903"><ele>355.0</ele><time>2026-04-28T06:50:01.445Z</time></trkpt><trkpt lat="44.4057628" lon="8.0031448"><ele>356.0</ele><time>2026-04-28T06:50:02.446Z</time></trkpt><trkpt lat="44.4057006" lon="8.0032899"><ele>357.0</ele><time>2026-04-28T06:50:03.446Z</time></trkpt><trkpt lat="44.4056357" lon="8.0034423"><ele>358.0</ele><time>2026-04-28T06:50:04.446Z</time></trkpt><trkpt lat="44.4055764" lon="8.0035981"><ele>358.25</ele><time>2026-04-28T06:50:05.446Z</time></trkpt><trkpt lat="44.4055107" lon="8.003759"><ele>358.5</ele><time>2026-04-28T06:50:06.446Z</time></trkpt><trkpt lat="44.4054372" lon="8.0039241"><ele>358.75</ele><time>2026-04-28T06:50:07.446Z</time></trkpt><trkpt lat="44.4053642" lon="8.0040924"><ele>359.0</ele><time>2026-04-28T06:50:08.446Z</time></trkpt><trkpt lat="44.4052922" lon="8.0042561"><ele>361.75</ele><time>2026-04-28T06:50:09.446Z</time></trkpt><trkpt lat="44.4052085" lon="8.0044101"><ele>364.5</ele><time>2026-04-28T06:50:10.446Z</time></trkpt><trkpt lat="44.4051213" lon="8.0045588"><ele>367.25</ele><time>2026-04-28T06:50:11.445Z</time></trkpt><trkpt lat="44.4050457" lon="8.0047158"><ele>370.0</ele><time>2026-04-28T06:50:12.445Z</time></trkpt><trkpt lat="44.4049689" lon="8.004866"><ele>369.25</ele><time>2026-04-28T06:50:13.445Z</time></trkpt><trkpt lat="44.4048961" lon="8.0050047"><ele>368.5</ele><time>2026-04-28T06:50:14.444Z</time></trkpt><trkpt lat="44.4048242" lon="8.0051365"><ele>367.75</ele><time>2026-04-28T06:50:15.446Z</time></trkpt><trkpt lat="44.4047516" lon="8.0052696"><ele>367.0</ele><time>2026-04-28T06:50:16.445Z</time></trkpt><trkpt lat="44.4046877" lon="8.0053942"><ele>368.20000000000005</ele><time>2026-04-28T06:50:17.445Z</time></trkpt><trkpt lat="44.4046448" lon="8.0054927"><ele>369.4</ele><time>2026-04-28T06:50:18.445Z</time></trkpt><trkpt lat="44.4046073" lon="8.0055686"><ele>370.6</ele><time>2026-04-28T06:50:19.444Z</time></trkpt><trkpt lat="44.4045355" lon="8.0057282"><ele>371.79999999999995</ele><time>2026-04-28T06:50:21.446Z</time></trkpt><trkpt lat="44.4044906" lon="8.0058469"><ele>373.0</ele><time>2026-04-28T06:50:22.446Z</time></trkpt><trkpt lat="44.4044416" lon="8.0059704"><ele>373.0</ele><time>2026-04-28T06:50:23.446Z</time></trkpt><trkpt lat="44.4043864" lon="8.0060937"><ele>373.0</ele><time>2026-04-28T06:50:24.445Z</time></trkpt><trkpt lat="44.4043308" lon="8.0062084"><ele>373.0</ele><time>2026-04-28T06:50:25.445Z</time></trkpt><trkpt lat="44.404274" lon="8.0063211"><ele>373.0</ele><time>2026-04-28T06:50:26.444Z</time></trkpt><trkpt lat="44.404219" lon="8.006442"><ele>373.0</ele><time>2026-04-28T06:50:27.446Z</time></trkpt><trkpt lat="44.4041625" lon="8.0065716"><ele>371.25</ele><time>2026-04-28T06:50:28.446Z</time></trkpt><trkpt lat="44.4041004" lon="8.006707"><ele>369.5</ele><time>2026-04-28T06:50:29.446Z</time></trkpt><trkpt lat="44.4040264" lon="8.0068437"><ele>367.75</ele><time>2026-04-28T06:50:30.445Z</time></trkpt><trkpt lat="44.4039422" lon="8.0069743"><ele>366.0</ele><time>2026-04-28T06:50:31.446Z</time></trkpt><trkpt lat="44.4038483" lon="8.007099"><ele>365.25</ele><time>2026-04-28T06:50:32.445Z</time></trkpt><trkpt lat="44.403756" lon="8.0072255"><ele>364.5</ele><time>2026-04-28T06:50:33.446Z</time></trkpt><trkpt lat="44.4036613" lon="8.0073511"><ele>363.75</ele><time>2026-04-28T06:50:34.446Z</time></trkpt><trkpt lat="44.4035622" lon="8.007474"><ele>363.0</ele><time>2026-04-28T06:50:35.445Z</time></trkpt><trkpt lat="44.4034644" lon="8.0075826"><ele>362.0</ele><time>2026-04-28T06:50:36.445Z</time></trkpt><trkpt lat="44.4033735" lon="8.0076799"><ele>361.0</ele><time>2026-04-28T06:50:37.444Z</time></trkpt><trkpt lat="44.4032903" lon="8.0077772"><ele>360.0</ele><time>2026-04-28T06:50:38.445Z</time></trkpt><trkpt lat="44.4032065" lon="8.0078784"><ele>359.0</ele><time>2026-04-28T06:50:39.446Z</time></trkpt><trkpt lat="44.4031232" lon="8.0079714"><ele>358.0</ele><time>2026-04-28T06:50:40.445Z</time></trkpt><trkpt lat="44.4030381" lon="8.0080546"><ele>358.2</ele><time>2026-04-28T06:50:41.446Z</time></trkpt><trkpt lat="44.4029564" lon="8.008143"><ele>358.4</ele><time>2026-04-28T06:50:42.444Z</time></trkpt><trkpt lat="44.402883" lon="8.0082387"><ele>358.59999999999997</ele><time>2026-04-28T06:50:43.445Z</time></trkpt><trkpt lat="44.4027982" lon="8.00834"><ele>358.79999999999995</ele><time>2026-04-28T06:50:44.445Z</time></trkpt><trkpt lat="44.4027111" lon="8.0084437"><ele>359.0</ele><time>2026-04-28T06:50:45.445Z</time></trkpt><trkpt lat="44.4026215" lon="8.0085489"><ele>359.75</ele><time>2026-04-28T06:50:46.444Z</time></trkpt><trkpt lat="44.402528" lon="8.0086527"><ele>360.5</ele><time>2026-04-28T06:50:47.445Z</time></trkpt><trkpt lat="44.4024372" lon="8.0087587"><ele>361.25</ele><time>2026-04-28T06:50:48.446Z</time></trkpt><trkpt lat="44.4023469" lon="8.0088647"><ele>362.0</ele><time>2026-04-28T06:50:49.445Z</time></trkpt><trkpt lat="44.402254" lon="8.0089657"><ele>361.8</ele><time>2026-04-28T06:50:50.444Z</time></trkpt><trkpt lat="44.4021617" lon="8.0090572"><ele>361.6</ele><time>2026-04-28T06:50:51.445Z</time></trkpt><trkpt lat="44.402078" lon="8.0091446"><ele>361.40000000000003</ele><time>2026-04-28T06:50:52.446Z</time></trkpt><trkpt lat="44.4020036" lon="8.009229"><ele>361.20000000000005</ele><time>2026-04-28T06:50:53.445Z</time></trkpt><trkpt lat="44.4019255" lon="8.0093047"><ele>361.0</ele><time>2026-04-28T06:50:54.445Z</time></trkpt><trkpt lat="44.4018525" lon="8.0093851"><ele>361.3333333333333</ele><time>2026-04-28T06:50:55.446Z</time></trkpt><trkpt lat="44.4018058" lon="8.0094624"><ele>361.66666666666663</ele><time>2026-04-28T06:50:56.445Z</time></trkpt><trkpt lat="44.4017608" lon="8.0095877"><ele>362.0</ele><time>2026-04-28T06:50:58.446Z</time></trkpt><trkpt lat="44.4017127" lon="8.0096938"><ele>362.3333333333333</ele><time>2026-04-28T06:51:00.446Z</time></trkpt><trkpt lat="44.4016498" lon="8.0097634"><ele>362.6666666666667</ele><time>2026-04-28T06:51:01.445Z</time></trkpt><trkpt lat="44.4015698" lon="8.0098425"><ele>363.0</ele><time>2026-04-28T06:51:02.445Z</time></trkpt><trkpt lat="44.4014818" lon="8.0099347"><ele>364.0</ele><time>2026-04-28T06:51:03.446Z</time></trkpt><trkpt lat="44.4013822" lon="8.0100492"><ele>365.0</ele><time>2026-04-28T06:51:04.446Z</time></trkpt><trkpt lat="44.4012717" lon="8.0101662"><ele>366.0</ele><time>2026-04-28T06:51:05.446Z</time></trkpt><trkpt lat="44.4011606" lon="8.0102833"><ele>367.0</ele><time>2026-04-28T06:51:06.445Z</time></trkpt><trkpt lat="44.4010417" lon="8.010406"><ele>367.0</ele><time>2026-04-28T06:51:07.446Z</time></trkpt><trkpt lat="44.4009211" lon="8.0105432"><ele>367.0</ele><time>2026-04-28T06:51:08.446Z</time></trkpt><trkpt lat="44.4008002" lon="8.010685"><ele>367.0</ele><time>2026-04-28T06:51:09.445Z</time></trkpt><trkpt lat="44.4006844" lon="8.0108315"><ele>366.66666666666663</ele><time>2026-04-28T06:51:10.445Z</time></trkpt><trkpt lat="44.4005687" lon="8.0109878"><ele>366.3333333333333</ele><time>2026-04-28T06:51:11.446Z</time></trkpt><trkpt lat="44.4004509" lon="8.0111548"><ele>366.0</ele><time>2026-04-28T06:51:12.445Z</time></trkpt><trkpt lat="44.4003338" lon="8.0113319"><ele>366.0</ele><time>2026-04-28T06:51:13.446Z</time></trkpt><trkpt lat="44.400226" lon="8.0115256"><ele>366.0</ele><time>2026-04-28T06:51:14.445Z</time></trkpt><trkpt lat="44.4001326" lon="8.01173"><ele>366.0</ele><time>2026-04-28T06:51:15.444Z</time></trkpt><trkpt lat="44.4000479" lon="8.0119264"><ele>366.6</ele><time>2026-04-28T06:51:16.446Z</time></trkpt><trkpt lat="44.3999808" lon="8.0120999"><ele>367.20000000000005</ele><time>2026-04-28T06:51:17.446Z</time></trkpt><trkpt lat="44.3999326" lon="8.0122348"><ele>367.79999999999995</ele><time>2026-04-28T06:51:18.445Z</time></trkpt><trkpt lat="44.3998928" lon="8.012326"><ele>368.4</ele><time>2026-04-28T06:51:19.445Z</time></trkpt><trkpt lat="44.3998269" lon="8.0124324"><ele>369.0</ele><time>2026-04-28T06:51:21.445Z</time></trkpt><trkpt lat="44.3997772" lon="8.0124961"><ele>369.25</ele><time>2026-04-28T06:51:22.445Z</time></trkpt><trkpt lat="44.3997149" lon="8.0125784"><ele>369.5</ele><time>2026-04-28T06:51:23.446Z</time></trkpt><trkpt lat="44.3996517" lon="8.0126949"><ele>369.75</ele><time>2026-04-28T06:51:24.446Z</time></trkpt><trkpt lat="44.3995972" lon="8.012848"><ele>370.0</ele><time>2026-04-28T06:51:25.445Z</time></trkpt><trkpt lat="44.3995527" lon="8.0130307"><ele>368.0</ele><time>2026-04-28T06:51:26.446Z</time></trkpt><trkpt lat="44.399512" lon="8.0132354"><ele>366.0</ele><time>2026-04-28T06:51:27.446Z</time></trkpt><trkpt lat="44.3994675" lon="8.0134483"><ele>364.0</ele><time>2026-04-28T06:51:28.445Z</time></trkpt><trkpt lat="44.3994185" lon="8.0136603"><ele>364.0</ele><time>2026-04-28T06:51:29.446Z</time></trkpt><trkpt lat="44.3993693" lon="8.0138663"><ele>364.0</ele><time>2026-04-28T06:51:30.445Z</time></trkpt><trkpt lat="44.3993168" lon="8.0140798"><ele>364.0</ele><time>2026-04-28T06:51:31.444Z</time></trkpt><trkpt lat="44.3992669" lon="8.0142966"><ele>364.0</ele><time>2026-04-28T06:51:32.445Z</time></trkpt><trkpt lat="44.3992183" lon="8.0145158"><ele>364.0</ele><time>2026-04-28T06:51:33.445Z</time></trkpt><trkpt lat="44.3991715" lon="8.0147383"><ele>364.0</ele><time>2026-04-28T06:51:34.445Z</time></trkpt><trkpt lat="44.3991263" lon="8.0149606"><ele>365.0</ele><time>2026-04-28T06:51:35.445Z</time></trkpt><trkpt lat="44.3990771" lon="8.0151851"><ele>366.0</ele><time>2026-04-28T06:51:36.445Z</time></trkpt><trkpt lat="44.3990179" lon="8.0154207"><ele>367.0</ele><time>2026-04-28T06:51:37.446Z</time></trkpt><trkpt lat="44.3989524" lon="8.015667"><ele>364.66666666666663</ele><time>2026-04-28T06:51:38.446Z</time></trkpt><trkpt lat="44.3988912" lon="8.0159087"><ele>362.3333333333333</ele><time>2026-04-28T06:51:39.446Z</time></trkpt><trkpt lat="44.3988335" lon="8.0161561"><ele>360.0</ele><time>2026-04-28T06:51:40.445Z</time></trkpt><trkpt lat="44.3987748" lon="8.0164076"><ele>360.6666666666667</ele><time>2026-04-28T06:51:41.445Z</time></trkpt><trkpt lat="44.3987214" lon="8.0166534"><ele>361.33333333333337</ele><time>2026-04-28T06:51:42.445Z</time></trkpt><trkpt lat="44.3986693" lon="8.0168957"><ele>362.0</ele><time>2026-04-28T06:51:43.444Z</time></trkpt><trkpt lat="44.3986257" lon="8.0171234"><ele>362.0</ele><time>2026-04-28T06:51:44.445Z</time></trkpt><trkpt lat="44.3985841" lon="8.0173513"><ele>362.0</ele><time>2026-04-28T06:51:45.445Z</time></trkpt><trkpt lat="44.3985393" lon="8.0175753"><ele>362.0</ele><time>2026-04-28T06:51:46.445Z</time></trkpt><trkpt lat="44.3984963" lon="8.0178083"><ele>364.0</ele><time>2026-04-28T06:51:47.446Z</time></trkpt><trkpt lat="44.3984454" lon="8.0180476"><ele>366.0</ele><time>2026-04-28T06:51:48.446Z</time></trkpt><trkpt lat="44.3983901" lon="8.0182907"><ele>368.0</ele><time>2026-04-28T06:51:49.445Z</time></trkpt><trkpt lat="44.3983369" lon="8.0185391"><ele>370.0</ele><time>2026-04-28T06:51:50.446Z</time></trkpt><trkpt lat="44.3982827" lon="8.0187944"><ele>372.0</ele><time>2026-04-28T06:51:51.445Z</time></trkpt><trkpt lat="44.3982225" lon="8.0190499"><ele>374.0</ele><time>2026-04-28T06:51:52.445Z</time></trkpt><trkpt lat="44.3981504" lon="8.019308"><ele>371.6666666666667</ele><time>2026-04-28T06:51:53.446Z</time></trkpt><trkpt lat="44.3980726" lon="8.0195587"><ele>369.3333333333333</ele><time>2026-04-28T06:51:54.445Z</time></trkpt><trkpt lat="44.397992" lon="8.0198085"><ele>367.0</ele><time>2026-04-28T06:51:55.445Z</time></trkpt><trkpt lat="44.3979117" lon="8.0200528"><ele>367.0</ele><time>2026-04-28T06:51:56.446Z</time></trkpt><trkpt lat="44.3978341" lon="8.0203007"><ele>367.0</ele><time>2026-04-28T06:51:57.445Z</time></trkpt><trkpt lat="44.3977537" lon="8.0205394"><ele>367.0</ele><time>2026-04-28T06:51:58.446Z</time></trkpt><trkpt lat="44.3976663" lon="8.0207562"><ele>368.66666666666663</ele><time>2026-04-28T06:51:59.445Z</time></trkpt><trkpt lat="44.3975774" lon="8.0209509"><ele>370.3333333333333</ele><time>2026-04-28T06:52:00.446Z</time></trkpt><trkpt lat="44.3974646" lon="8.0211192"><ele>372.0</ele><time>2026-04-28T06:52:01.446Z</time></trkpt><trkpt lat="44.397339" lon="8.0212654"><ele>372.0</ele><time>2026-04-28T06:52:02.445Z</time></trkpt><trkpt lat="44.3972036" lon="8.0214172"><ele>372.0</ele><time>2026-04-28T06:52:03.446Z</time></trkpt><trkpt lat="44.3970825" lon="8.0215947"><ele>372.0</ele><time>2026-04-28T06:52:04.446Z</time></trkpt><trkpt lat="44.3969799" lon="8.0218008"><ele>370.0</ele><time>2026-04-28T06:52:05.445Z</time></trkpt><trkpt lat="44.3968771" lon="8.0220074"><ele>368.0</ele><time>2026-04-28T06:52:06.446Z</time></trkpt><trkpt lat="44.3967758" lon="8.0222162"><ele>366.0</ele><time>2026-04-28T06:52:07.445Z</time></trkpt><trkpt lat="44.3966696" lon="8.0224267"><ele>366.6666666666667</ele><time>2026-04-28T06:52:08.446Z</time></trkpt><trkpt lat="44.3965473" lon="8.0226209"><ele>367.33333333333337</ele><time>2026-04-28T06:52:09.445Z</time></trkpt><trkpt lat="44.3963972" lon="8.022791"><ele>368.0</ele><time>2026-04-28T06:52:10.446Z</time></trkpt><trkpt lat="44.3962445" lon="8.0229693"><ele>368.0</ele><time>2026-04-28T06:52:11.446Z</time></trkpt><trkpt lat="44.3960921" lon="8.0231488"><ele>368.0</ele><time>2026-04-28T06:52:12.445Z</time></trkpt><trkpt lat="44.3959344" lon="8.0233182"><ele>368.0</ele><time>2026-04-28T06:52:13.445Z</time></trkpt><trkpt lat="44.395768" lon="8.0234756"><ele>367.33333333333337</ele><time>2026-04-28T06:52:14.445Z</time></trkpt><trkpt lat="44.395591" lon="8.0236161"><ele>366.6666666666667</ele><time>2026-04-28T06:52:15.446Z</time></trkpt><trkpt lat="44.3954083" lon="8.0237247"><ele>366.0</ele><time>2026-04-28T06:52:16.445Z</time></trkpt><trkpt lat="44.3952339" lon="8.0237926"><ele>366.0</ele><time>2026-04-28T06:52:17.445Z</time></trkpt><trkpt lat="44.3950691" lon="8.023849"><ele>366.0</ele><time>2026-04-28T06:52:18.445Z</time></trkpt><trkpt lat="44.3949131" lon="8.0239"><ele>366.0</ele><time>2026-04-28T06:52:19.445Z</time></trkpt><trkpt lat="44.3947644" lon="8.0239406"><ele>366.25</ele><time>2026-04-28T06:52:20.445Z</time></trkpt><trkpt lat="44.3946196" lon="8.0239714"><ele>366.5</ele><time>2026-04-28T06:52:21.445Z</time></trkpt><trkpt lat="44.3944829" lon="8.0239866"><ele>366.75</ele><time>2026-04-28T06:52:22.445Z</time></trkpt><trkpt lat="44.3943395" lon="8.0239878"><ele>367.0</ele><time>2026-04-28T06:52:23.446Z</time></trkpt><trkpt lat="44.39419" lon="8.0239882"><ele>367.0</ele><time>2026-04-28T06:52:24.446Z</time></trkpt><trkpt lat="44.3940343" lon="8.0239747"><ele>367.0</ele><time>2026-04-28T06:52:25.446Z</time></trkpt><trkpt lat="44.3938763" lon="8.0239632"><ele>367.0</ele><time>2026-04-28T06:52:26.446Z</time></trkpt><trkpt lat="44.393706" lon="8.023937"><ele>367.66666666666663</ele><time>2026-04-28T06:52:27.445Z</time></trkpt><trkpt lat="44.3935249" lon="8.0238924"><ele>368.3333333333333</ele><time>2026-04-28T06:52:28.445Z</time></trkpt><trkpt lat="44.393346" lon="8.02385"><ele>369.0</ele><time>2026-04-28T06:52:29.445Z</time></trkpt><trkpt lat="44.3931718" lon="8.0237997"><ele>371.0</ele><time>2026-04-28T06:52:30.446Z</time></trkpt><trkpt lat="44.3930018" lon="8.0237446"><ele>373.0</ele><time>2026-04-28T06:52:31.446Z</time></trkpt><trkpt lat="44.392851" lon="8.0236939"><ele>375.0</ele><time>2026-04-28T06:52:32.446Z</time></trkpt><trkpt lat="44.392708" lon="8.0236428"><ele>375.0</ele><time>2026-04-28T06:52:33.446Z</time></trkpt><trkpt lat="44.3925571" lon="8.0235969"><ele>375.0</ele><time>2026-04-28T06:52:34.445Z</time></trkpt><trkpt lat="44.3923993" lon="8.0235581"><ele>375.0</ele><time>2026-04-28T06:52:35.445Z</time></trkpt><trkpt lat="44.3922381" lon="8.0235175"><ele>376.3333333333333</ele><time>2026-04-28T06:52:36.445Z</time></trkpt><trkpt lat="44.3920773" lon="8.0234812"><ele>377.66666666666663</ele><time>2026-04-28T06:52:37.445Z</time></trkpt><trkpt lat="44.3919105" lon="8.023445"><ele>379.0</ele><time>2026-04-28T06:52:38.445Z</time></trkpt><trkpt lat="44.3917458" lon="8.0234078"><ele>379.0</ele><time>2026-04-28T06:52:39.446Z</time></trkpt><trkpt lat="44.3915756" lon="8.0234227"><ele>379.0</ele><time>2026-04-28T06:52:40.446Z</time></trkpt><trkpt lat="44.3914049" lon="8.0234354"><ele>379.0</ele><time>2026-04-28T06:52:41.446Z</time></trkpt><trkpt lat="44.3912441" lon="8.0234693"><ele>377.3333333333333</ele><time>2026-04-28T06:52:42.445Z</time></trkpt><trkpt lat="44.3910903" lon="8.0235186"><ele>375.6666666666667</ele><time>2026-04-28T06:52:43.446Z</time></trkpt><trkpt lat="44.3909393" lon="8.0235896"><ele>374.0</ele><time>2026-04-28T06:52:44.446Z</time></trkpt><trkpt lat="44.3907989" lon="8.0236666"><ele>374.0</ele><time>2026-04-28T06:52:45.445Z</time></trkpt><trkpt lat="44.3906557" lon="8.0237528"><ele>374.0</ele><time>2026-04-28T06:52:46.445Z</time></trkpt><trkpt lat="44.3905235" lon="8.0238553"><ele>374.0</ele><time>2026-04-28T06:52:47.446Z</time></trkpt><trkpt lat="44.3904085" lon="8.0239723"><ele>374.0</ele><time>2026-04-28T06:52:48.446Z</time></trkpt><trkpt lat="44.3903068" lon="8.0241206"><ele>374.75</ele><time>2026-04-28T06:52:49.445Z</time></trkpt><trkpt lat="44.3902231" lon="8.0242916"><ele>375.5</ele><time>2026-04-28T06:52:50.446Z</time></trkpt><trkpt lat="44.3901515" lon="8.0244716"><ele>376.25</ele><time>2026-04-28T06:52:51.446Z</time></trkpt><trkpt lat="44.39009" lon="8.0246521"><ele>377.0</ele><time>2026-04-28T06:52:52.445Z</time></trkpt><trkpt lat="44.3900355" lon="8.0248231"><ele>378.0</ele><time>2026-04-28T06:52:53.445Z</time></trkpt><trkpt lat="44.3899979" lon="8.0249832"><ele>379.0</ele><time>2026-04-28T06:52:54.446Z</time></trkpt><trkpt lat="44.3899787" lon="8.0251334"><ele>380.0</ele><time>2026-04-28T06:52:55.446Z</time></trkpt><trkpt lat="44.3899655" lon="8.025278"><ele>381.0</ele><time>2026-04-28T06:52:56.445Z</time></trkpt><trkpt lat="44.3899555" lon="8.0254109"><ele>382.0</ele><time>2026-04-28T06:52:57.445Z</time></trkpt><trkpt lat="44.3899497" lon="8.0255319"><ele>382.0</ele><time>2026-04-28T06:52:58.446Z</time></trkpt><trkpt lat="44.3899536" lon="8.0256569"><ele>382.0</ele><time>2026-04-28T06:52:59.446Z</time></trkpt><trkpt lat="44.3899608" lon="8.0258043"><ele>382.0</ele><time>2026-04-28T06:53:00.446Z</time></trkpt><trkpt lat="44.3899631" lon="8.0259752"><ele>382.0</ele><time>2026-04-28T06:53:01.446Z</time></trkpt><trkpt lat="44.3899588" lon="8.0261628"><ele>383.0</ele><time>2026-04-28T06:53:02.446Z</time></trkpt><trkpt lat="44.3899453" lon="8.0263699"><ele>384.0</ele><time>2026-04-28T06:53:03.445Z</time></trkpt><trkpt lat="44.389915" lon="8.0265978"><ele>385.0</ele><time>2026-04-28T06:53:04.445Z</time></trkpt><trkpt lat="44.3898713" lon="8.0268261"><ele>385.6666666666667</ele><time>2026-04-28T06:53:05.446Z</time></trkpt><trkpt lat="44.3898172" lon="8.0270501"><ele>386.33333333333337</ele><time>2026-04-28T06:53:06.445Z</time></trkpt><trkpt lat="44.3897482" lon="8.0272759"><ele>387.0</ele><time>2026-04-28T06:53:07.445Z</time></trkpt><trkpt lat="44.3896627" lon="8.0274802"><ele>383.75</ele><time>2026-04-28T06:53:08.445Z</time></trkpt><trkpt lat="44.3895672" lon="8.0276558"><ele>380.5</ele><time>2026-04-28T06:53:09.444Z</time></trkpt><trkpt lat="44.3894818" lon="8.0278243"><ele>377.25</ele><time>2026-04-28T06:53:10.445Z</time></trkpt><trkpt lat="44.3894284" lon="8.028009"><ele>374.0</ele><time>2026-04-28T06:53:11.446Z</time></trkpt><trkpt lat="44.3894121" lon="8.0282174"><ele>374.6666666666667</ele><time>2026-04-28T06:53:12.445Z</time></trkpt><trkpt lat="44.3894156" lon="8.0284386"><ele>375.3333333333333</ele><time>2026-04-28T06:53:13.445Z</time></trkpt><trkpt lat="44.3894359" lon="8.0286667"><ele>376.0</ele><time>2026-04-28T06:53:14.445Z</time></trkpt><trkpt lat="44.3894567" lon="8.0289035"><ele>375.66666666666663</ele><time>2026-04-28T06:53:15.445Z</time></trkpt><trkpt lat="44.3894741" lon="8.0291429"><ele>375.3333333333333</ele><time>2026-04-28T06:53:16.444Z</time></trkpt><trkpt lat="44.3894909" lon="8.0293814"><ele>375.0</ele><time>2026-04-28T06:53:17.446Z</time></trkpt><trkpt lat="44.3895134" lon="8.0296081"><ele>375.0</ele><time>2026-04-28T06:53:18.445Z</time></trkpt><trkpt lat="44.3895339" lon="8.0298204"><ele>375.0</ele><time>2026-04-28T06:53:19.445Z</time></trkpt><trkpt lat="44.3895457" lon="8.0300227"><ele>375.0</ele><time>2026-04-28T06:53:20.444Z</time></trkpt><trkpt lat="44.3895437" lon="8.030219"><ele>375.0</ele><time>2026-04-28T06:53:21.445Z</time></trkpt><trkpt lat="44.3895269" lon="8.0304038"><ele>375.0</ele><time>2026-04-28T06:53:22.445Z</time></trkpt><trkpt lat="44.3895024" lon="8.0305667"><ele>375.0</ele><time>2026-04-28T06:53:23.444Z</time></trkpt><trkpt lat="44.3894714" lon="8.0306883"><ele>375.0</ele><time>2026-04-28T06:53:24.445Z</time></trkpt><trkpt lat="44.3894249" lon="8.0307747"><ele>375.0</ele><time>2026-04-28T06:53:25.444Z</time></trkpt><trkpt lat="44.3893625" lon="8.0308373"><ele>375.0</ele><time>2026-04-28T06:53:26.445Z</time></trkpt><trkpt lat="44.3892921" lon="8.030869"><ele>375.0</ele><time>2026-04-28T06:53:27.444Z</time></trkpt><trkpt lat="44.389208" lon="8.0308905"><ele>375.6</ele><time>2026-04-28T06:53:28.445Z</time></trkpt><trkpt lat="44.3891075" lon="8.0309019"><ele>376.2</ele><time>2026-04-28T06:53:29.446Z</time></trkpt><trkpt lat="44.3890019" lon="8.0309014"><ele>376.79999999999995</ele><time>2026-04-28T06:53:30.446Z</time></trkpt><trkpt lat="44.388886" lon="8.0308993"><ele>377.4</ele><time>2026-04-28T06:53:31.445Z</time></trkpt><trkpt lat="44.3887598" lon="8.0309032"><ele>378.0</ele><time>2026-04-28T06:53:32.445Z</time></trkpt><trkpt lat="44.3886467" lon="8.0309182"><ele>378.0</ele><time>2026-04-28T06:53:33.444Z</time></trkpt><trkpt lat="44.3885553" lon="8.030933"><ele>378.0</ele><time>2026-04-28T06:53:34.446Z</time></trkpt><trkpt lat="44.3884815" lon="8.0309438"><ele>378.0</ele><time>2026-04-28T06:53:35.446Z</time></trkpt><trkpt lat="44.3883793" lon="8.0309672"><ele>378.0</ele><time>2026-04-28T06:53:37.446Z</time></trkpt><trkpt lat="44.3883394" lon="8.0310427"><ele>378.0</ele><time>2026-04-28T06:53:39.446Z</time></trkpt><trkpt lat="44.3883471" lon="8.0312297"><ele>378.0</ele><time>2026-04-28T06:53:41.446Z</time></trkpt><trkpt lat="44.3883394" lon="8.0313744"><ele>378.0</ele><time>2026-04-28T06:53:42.446Z</time></trkpt><trkpt lat="44.3883149" lon="8.031545"><ele>378.0</ele><time>2026-04-28T06:53:43.445Z</time></trkpt><trkpt lat="44.3882826" lon="8.0317258"><ele>378.0</ele><time>2026-04-28T06:53:44.445Z</time></trkpt><trkpt lat="44.3882499" lon="8.031905"><ele>378.25</ele><time>2026-04-28T06:53:45.445Z</time></trkpt><trkpt lat="44.3882187" lon="8.0320903"><ele>378.5</ele><time>2026-04-28T06:53:46.446Z</time></trkpt><trkpt lat="44.3881886" lon="8.032277"><ele>378.75</ele><time>2026-04-28T06:53:47.446Z</time></trkpt><trkpt lat="44.3881481" lon="8.0324543"><ele>379.0</ele><time>2026-04-28T06:53:48.446Z</time></trkpt><trkpt lat="44.3881102" lon="8.0326212"><ele>378.25</ele><time>2026-04-28T06:53:49.445Z</time></trkpt><trkpt lat="44.3880746" lon="8.0327871"><ele>377.5</ele><time>2026-04-28T06:53:50.446Z</time></trkpt><trkpt lat="44.3880425" lon="8.0329516"><ele>376.75</ele><time>2026-04-28T06:53:51.446Z</time></trkpt><trkpt lat="44.3880161" lon="8.0331173"><ele>376.0</ele><time>2026-04-28T06:53:52.445Z</time></trkpt><trkpt lat="44.387984" lon="8.033277"><ele>378.5</ele><time>2026-04-28T06:53:53.444Z</time></trkpt><trkpt lat="44.3879539" lon="8.033442"><ele>381.0</ele><time>2026-04-28T06:53:54.445Z</time></trkpt><trkpt lat="44.3879213" lon="8.033598"><ele>383.5</ele><time>2026-04-28T06:53:55.444Z</time></trkpt><trkpt lat="44.3878932" lon="8.0337522"><ele>386.0</ele><time>2026-04-28T06:53:56.445Z</time></trkpt><trkpt lat="44.3878476" lon="8.0338985"><ele>386.0</ele><time>2026-04-28T06:53:57.446Z</time></trkpt><trkpt lat="44.3878154" lon="8.0340476"><ele>386.0</ele><time>2026-04-28T06:53:58.445Z</time></trkpt><trkpt lat="44.3877643" lon="8.0341852"><ele>386.0</ele><time>2026-04-28T06:53:59.445Z</time></trkpt><trkpt lat="44.3877112" lon="8.0343155"><ele>386.0</ele><time>2026-04-28T06:54:00.445Z</time></trkpt><trkpt lat="44.3876605" lon="8.0344266"><ele>386.0</ele><time>2026-04-28T06:54:01.445Z</time></trkpt><trkpt lat="44.3876069" lon="8.0345261"><ele>385.16666666666663</ele><time>2026-04-28T06:54:02.446Z</time></trkpt><trkpt lat="44.3875545" lon="8.0346174"><ele>384.3333333333333</ele><time>2026-04-28T06:54:03.446Z</time></trkpt><trkpt lat="44.3875013" lon="8.0347074"><ele>383.5</ele><time>2026-04-28T06:54:04.444Z</time></trkpt><trkpt lat="44.3874512" lon="8.0347928"><ele>382.66666666666663</ele><time>2026-04-28T06:54:05.445Z</time></trkpt><trkpt lat="44.3874006" lon="8.0348832"><ele>381.8333333333333</ele><time>2026-04-28T06:54:06.445Z</time></trkpt><trkpt lat="44.3873512" lon="8.0349737"><ele>381.0</ele><time>2026-04-28T06:54:07.445Z</time></trkpt><trkpt lat="44.3873021" lon="8.0350696"><ele>381.0</ele><time>2026-04-28T06:54:08.445Z</time></trkpt><trkpt lat="44.3872607" lon="8.0351537"><ele>381.0</ele><time>2026-04-28T06:54:09.446Z</time></trkpt><trkpt lat="44.3872239" lon="8.0352394"><ele>381.0</ele><time>2026-04-28T06:54:10.446Z</time></trkpt><trkpt lat="44.3871896" lon="8.0353194"><ele>381.0</ele><time>2026-04-28T06:54:11.446Z</time></trkpt><trkpt lat="44.3871551" lon="8.0354055"><ele>381.0</ele><time>2026-04-28T06:54:12.445Z</time></trkpt><trkpt lat="44.3871209" lon="8.0354886"><ele>381.0</ele><time>2026-04-28T06:54:13.446Z</time></trkpt><trkpt lat="44.3870942" lon="8.0355691"><ele>381.0</ele><time>2026-04-28T06:54:14.445Z</time></trkpt><trkpt lat="44.3870664" lon="8.0356511"><ele>381.20000000000005</ele><time>2026-04-28T06:54:15.446Z</time></trkpt><trkpt lat="44.3870329" lon="8.0357425"><ele>381.40000000000003</ele><time>2026-04-28T06:54:16.446Z</time></trkpt><trkpt lat="44.3869962" lon="8.0358447"><ele>381.6</ele><time>2026-04-28T06:54:17.446Z</time></trkpt><trkpt lat="44.3869537" lon="8.0359568"><ele>381.8</ele><time>2026-04-28T06:54:18.446Z</time></trkpt><trkpt lat="44.3869114" lon="8.03609"><ele>382.0</ele><time>2026-04-28T06:54:19.445Z</time></trkpt><trkpt lat="44.3868544" lon="8.0362437"><ele>382.0</ele><time>2026-04-28T06:54:20.445Z</time></trkpt><trkpt lat="44.3867959" lon="8.0364035"><ele>382.0</ele><time>2026-04-28T06:54:21.445Z</time></trkpt><trkpt lat="44.3867333" lon="8.0365288"><ele>382.0</ele><time>2026-04-28T06:54:22.446Z</time></trkpt><trkpt lat="44.3866831" lon="8.0366684"><ele>382.0</ele><time>2026-04-28T06:54:23.445Z</time></trkpt><trkpt lat="44.3866337" lon="8.0368034"><ele>381.6</ele><time>2026-04-28T06:54:24.444Z</time></trkpt><trkpt lat="44.3865837" lon="8.0369334"><ele>381.20000000000005</ele><time>2026-04-28T06:54:25.445Z</time></trkpt><trkpt lat="44.386528" lon="8.0370597"><ele>380.8</ele><time>2026-04-28T06:54:26.445Z</time></trkpt><trkpt lat="44.3864659" lon="8.0371718"><ele>380.4</ele><time>2026-04-28T06:54:27.445Z</time></trkpt><trkpt lat="44.386391" lon="8.0372661"><ele>380.0</ele><time>2026-04-28T06:54:28.446Z</time></trkpt><trkpt lat="44.3863118" lon="8.0373546"><ele>380.0</ele><time>2026-04-28T06:54:29.445Z</time></trkpt><trkpt lat="44.3862299" lon="8.0374292"><ele>380.0</ele><time>2026-04-28T06:54:30.446Z</time></trkpt><trkpt lat="44.3861493" lon="8.0374943"><ele>380.0</ele><time>2026-04-28T06:54:31.445Z</time></trkpt><trkpt lat="44.3860764" lon="8.0375573"><ele>380.0</ele><time>2026-04-28T06:54:32.445Z</time></trkpt><trkpt lat="44.3860112" lon="8.0376126"><ele>380.0</ele><time>2026-04-28T06:54:33.446Z</time></trkpt><trkpt lat="44.3859445" lon="8.0376648"><ele>380.0</ele><time>2026-04-28T06:54:34.445Z</time></trkpt><trkpt lat="44.3858892" lon="8.0377154"><ele>380.2</ele><time>2026-04-28T06:54:35.445Z</time></trkpt><trkpt lat="44.3858345" lon="8.0377649"><ele>380.4</ele><time>2026-04-28T06:54:36.445Z</time></trkpt><trkpt lat="44.3857478" lon="8.0378695"><ele>380.6</ele><time>2026-04-28T06:54:38.446Z</time></trkpt><trkpt lat="44.3856604" lon="8.0379707"><ele>380.8</ele><time>2026-04-28T06:54:40.445Z</time></trkpt><trkpt lat="44.3855582" lon="8.0380473"><ele>381.0</ele><time>2026-04-28T06:54:42.447Z</time></trkpt><trkpt lat="44.3854984" lon="8.0380914"><ele>381.0</ele><time>2026-04-28T06:54:43.446Z</time></trkpt><trkpt lat="44.3854242" lon="8.0381286"><ele>381.0</ele><time>2026-04-28T06:54:44.447Z</time></trkpt><trkpt lat="44.3853376" lon="8.0381645"><ele>381.0</ele><time>2026-04-28T06:54:45.447Z</time></trkpt><trkpt lat="44.3852489" lon="8.0382233"><ele>381.0</ele><time>2026-04-28T06:54:46.446Z</time></trkpt><trkpt lat="44.3851679" lon="8.0383038"><ele>381.0</ele><time>2026-04-28T06:54:47.445Z</time></trkpt><trkpt lat="44.3850938" lon="8.0384049"><ele>381.25</ele><time>2026-04-28T06:54:48.446Z</time></trkpt><trkpt lat="44.3850152" lon="8.0385285"><ele>381.5</ele><time>2026-04-28T06:54:49.447Z</time></trkpt><trkpt lat="44.3849328" lon="8.0386554"><ele>381.75</ele><time>2026-04-28T06:54:50.446Z</time></trkpt><trkpt lat="44.3848295" lon="8.0387985"><ele>382.0</ele><time>2026-04-28T06:54:51.447Z</time></trkpt><trkpt lat="44.3847199" lon="8.0389326"><ele>382.66666666666663</ele><time>2026-04-28T06:54:52.447Z</time></trkpt><trkpt lat="44.3846004" lon="8.039077"><ele>383.3333333333333</ele><time>2026-04-28T06:54:53.447Z</time></trkpt><trkpt lat="44.3844732" lon="8.0392404"><ele>384.0</ele><time>2026-04-28T06:54:54.447Z</time></trkpt><trkpt lat="44.3843423" lon="8.0394171"><ele>384.0</ele><time>2026-04-28T06:54:55.447Z</time></trkpt><trkpt lat="44.3842193" lon="8.0395878"><ele>384.0</ele><time>2026-04-28T06:54:56.445Z</time></trkpt><trkpt lat="44.3840921" lon="8.0397621"><ele>384.0</ele><time>2026-04-28T06:54:57.447Z</time></trkpt><trkpt lat="44.3839566" lon="8.0399425"><ele>387.66666666666663</ele><time>2026-04-28T06:54:58.447Z</time></trkpt><trkpt lat="44.3838212" lon="8.0401356"><ele>391.3333333333333</ele><time>2026-04-28T06:54:59.446Z</time></trkpt><trkpt lat="44.3836841" lon="8.0403284"><ele>395.0</ele><time>2026-04-28T06:55:00.446Z</time></trkpt><trkpt lat="44.3835586" lon="8.0405079"><ele>395.0</ele><time>2026-04-28T06:55:01.446Z</time></trkpt><trkpt lat="44.3834326" lon="8.0406765"><ele>395.0</ele><time>2026-04-28T06:55:02.447Z</time></trkpt><trkpt lat="44.3833037" lon="8.0408116"><ele>395.0</ele><time>2026-04-28T06:55:03.447Z</time></trkpt><trkpt lat="44.3831628" lon="8.040905"><ele>393.3333333333333</ele><time>2026-04-28T06:55:04.447Z</time></trkpt><trkpt lat="44.3830055" lon="8.0409448"><ele>391.66666666666663</ele><time>2026-04-28T06:55:05.447Z</time></trkpt><trkpt lat="44.3828436" lon="8.0409366"><ele>390.0</ele><time>2026-04-28T06:55:06.447Z</time></trkpt><trkpt lat="44.3826775" lon="8.040894"><ele>390.0</ele><time>2026-04-28T06:55:07.447Z</time></trkpt><trkpt lat="44.3825214" lon="8.0408237"><ele>390.0</ele><time>2026-04-28T06:55:08.446Z</time></trkpt><trkpt lat="44.3823711" lon="8.0407239"><ele>390.0</ele><time>2026-04-28T06:55:09.446Z</time></trkpt><trkpt lat="44.3822303" lon="8.0405903"><ele>392.33333333333337</ele><time>2026-04-28T06:55:10.446Z</time></trkpt><trkpt lat="44.3821036" lon="8.0404304"><ele>394.6666666666667</ele><time>2026-04-28T06:55:11.445Z</time></trkpt><trkpt lat="44.3819889" lon="8.0402533"><ele>397.0</ele><time>2026-04-28T06:55:12.445Z</time></trkpt><trkpt lat="44.3818876" lon="8.0400508"><ele>399.33333333333337</ele><time>2026-04-28T06:55:13.447Z</time></trkpt><trkpt lat="44.3818134" lon="8.0398405"><ele>401.66666666666663</ele><time>2026-04-28T06:55:14.446Z</time></trkpt><trkpt lat="44.3817666" lon="8.0396196"><ele>404.0</ele><time>2026-04-28T06:55:15.446Z</time></trkpt><trkpt lat="44.3817208" lon="8.0394131"><ele>404.0</ele><time>2026-04-28T06:55:16.446Z</time></trkpt><trkpt lat="44.3816487" lon="8.0392223"><ele>404.0</ele><time>2026-04-28T06:55:17.447Z</time></trkpt><trkpt lat="44.3815505" lon="8.0390533"><ele>404.0</ele><time>2026-04-28T06:55:18.446Z</time></trkpt><trkpt lat="44.3814319" lon="8.0389113"><ele>411.66666666666663</ele><time>2026-04-28T06:55:19.447Z</time></trkpt><trkpt lat="44.3812974" lon="8.0387926"><ele>419.33333333333337</ele><time>2026-04-28T06:55:20.447Z</time></trkpt><trkpt lat="44.3811483" lon="8.0386982"><ele>427.0</ele><time>2026-04-28T06:55:21.447Z</time></trkpt><trkpt lat="44.3809887" lon="8.0386535"><ele>427.0</ele><time>2026-04-28T06:55:22.447Z</time></trkpt><trkpt lat="44.3808237" lon="8.0386217"><ele>427.0</ele><time>2026-04-28T06:55:23.447Z</time></trkpt><trkpt lat="44.3806575" lon="8.038647"><ele>427.0</ele><time>2026-04-28T06:55:24.446Z</time></trkpt><trkpt lat="44.3805116" lon="8.0387157"><ele>430.0</ele><time>2026-04-28T06:55:25.446Z</time></trkpt><trkpt lat="44.3803603" lon="8.0389586"><ele>433.0</ele><time>2026-04-28T06:55:26.446Z</time></trkpt><trkpt lat="44.3803939" lon="8.0393147"><ele>433.0</ele><time>2026-04-28T06:55:27.446Z</time></trkpt><trkpt lat="44.3803348" lon="8.0395478"><ele>433.0</ele><time>2026-04-28T06:55:28.446Z</time></trkpt><trkpt lat="44.3802955" lon="8.0397948"><ele>433.0</ele><time>2026-04-28T06:55:29.447Z</time></trkpt><trkpt lat="44.3802654" lon="8.0400582"><ele>433.0</ele><time>2026-04-28T06:55:30.446Z</time></trkpt><trkpt lat="44.3802401" lon="8.0403116"><ele>433.0</ele><time>2026-04-28T06:55:31.446Z</time></trkpt><trkpt lat="44.3802259" lon="8.0405636"><ele>433.0</ele><time>2026-04-28T06:55:32.446Z</time></trkpt><trkpt lat="44.3802141" lon="8.0410135"><ele>432.5</ele><time>2026-04-28T06:55:34.447Z</time></trkpt><trkpt lat="44.3801768" lon="8.041198"><ele>432.0</ele><time>2026-04-28T06:55:35.446Z</time></trkpt><trkpt lat="44.3801045" lon="8.0413328"><ele>431.5</ele><time>2026-04-28T06:55:36.446Z</time></trkpt><trkpt lat="44.3800121" lon="8.0414341"><ele>431.0</ele><time>2026-04-28T06:55:37.446Z</time></trkpt><trkpt lat="44.3799063" lon="8.0415195"><ele>431.0</ele><time>2026-04-28T06:55:38.446Z</time></trkpt><trkpt lat="44.3797878" lon="8.0416075"><ele>431.0</ele><time>2026-04-28T06:55:39.447Z</time></trkpt><trkpt lat="44.3796594" lon="8.0416966"><ele>431.0</ele><time>2026-04-28T06:55:40.446Z</time></trkpt><trkpt lat="44.3795263" lon="8.0417534"><ele>431.0</ele><time>2026-04-28T06:55:41.447Z</time></trkpt><trkpt lat="44.379387" lon="8.0417498"><ele>431.66666666666663</ele><time>2026-04-28T06:55:42.446Z</time></trkpt><trkpt lat="44.379252" lon="8.0417021"><ele>432.33333333333337</ele><time>2026-04-28T06:55:43.447Z</time></trkpt><trkpt lat="44.3791125" lon="8.0416344"><ele>433.0</ele><time>2026-04-28T06:55:44.445Z</time></trkpt><trkpt lat="44.3789587" lon="8.0415564"><ele>434.33333333333337</ele><time>2026-04-28T06:55:45.445Z</time></trkpt><trkpt lat="44.3788083" lon="8.0414836"><ele>435.66666666666663</ele><time>2026-04-28T06:55:46.446Z</time></trkpt><trkpt lat="44.3786581" lon="8.0414211"><ele>437.0</ele><time>2026-04-28T06:55:47.446Z</time></trkpt><trkpt lat="44.3785018" lon="8.0413607"><ele>437.0</ele><time>2026-04-28T06:55:48.446Z</time></trkpt><trkpt lat="44.3783474" lon="8.0413105"><ele>437.0</ele><time>2026-04-28T06:55:49.446Z</time></trkpt><trkpt lat="44.3781961" lon="8.0412709"><ele>437.0</ele><time>2026-04-28T06:55:50.447Z</time></trkpt><trkpt lat="44.3780601" lon="8.0412398"><ele>437.20000000000005</ele><time>2026-04-28T06:55:51.446Z</time></trkpt><trkpt lat="44.3779325" lon="8.0412044"><ele>437.40000000000003</ele><time>2026-04-28T06:55:52.446Z</time></trkpt><trkpt lat="44.3778236" lon="8.0411718"><ele>437.59999999999997</ele><time>2026-04-28T06:55:53.446Z</time></trkpt><trkpt lat="44.3777337" lon="8.0411294"><ele>437.79999999999995</ele><time>2026-04-28T06:55:54.447Z</time></trkpt><trkpt lat="44.377655" lon="8.0410737"><ele>438.0</ele><time>2026-04-28T06:55:55.446Z</time></trkpt><trkpt lat="44.3775872" lon="8.0410158"><ele>438.0</ele><time>2026-04-28T06:55:56.447Z</time></trkpt><trkpt lat="44.3775187" lon="8.040979"><ele>438.0</ele><time>2026-04-28T06:55:57.447Z</time></trkpt><trkpt lat="44.3774438" lon="8.040968"><ele>438.0</ele><time>2026-04-28T06:55:58.447Z</time></trkpt><trkpt lat="44.3773771" lon="8.0409878"><ele>438.0</ele><time>2026-04-28T06:55:59.447Z</time></trkpt><trkpt lat="44.3773151" lon="8.0410116"><ele>438.0</ele><time>2026-04-28T06:56:00.447Z</time></trkpt><trkpt lat="44.3772872" lon="8.0411058"><ele>438.0</ele><time>2026-04-28T06:56:01.447Z</time></trkpt><trkpt lat="44.3773442" lon="8.0412654"><ele>438.0</ele><time>2026-04-28T06:56:02.447Z</time></trkpt><trkpt lat="44.3773595" lon="8.0413942"><ele>437.99999999999994</ele><time>2026-04-28T06:56:03.446Z</time></trkpt><trkpt lat="44.3773616" lon="8.0415334"><ele>437.99999999999994</ele><time>2026-04-28T06:56:04.447Z</time></trkpt><trkpt lat="44.3773474" lon="8.0416936"><ele>438.0</ele><time>2026-04-28T06:56:05.447Z</time></trkpt><trkpt lat="44.3773138" lon="8.0418608"><ele>438.0</ele><time>2026-04-28T06:56:06.447Z</time></trkpt><trkpt lat="44.3772601" lon="8.0420434"><ele>438.33333333333337</ele><time>2026-04-28T06:56:07.446Z</time></trkpt><trkpt lat="44.3772062" lon="8.0422228"><ele>438.6666666666667</ele><time>2026-04-28T06:56:08.447Z</time></trkpt><trkpt lat="44.3771487" lon="8.0424178"><ele>439.0</ele><time>2026-04-28T06:56:09.447Z</time></trkpt><trkpt lat="44.3770859" lon="8.042627"><ele>439.6666666666667</ele><time>2026-04-28T06:56:10.446Z</time></trkpt><trkpt lat="44.377016" lon="8.0428447"><ele>440.33333333333337</ele><time>2026-04-28T06:56:11.447Z</time></trkpt><trkpt lat="44.3769546" lon="8.0430405"><ele>441.0</ele><time>2026-04-28T06:56:12.447Z</time></trkpt><trkpt lat="44.3768964" lon="8.0432181"><ele>441.0</ele><time>2026-04-28T06:56:13.447Z</time></trkpt><trkpt lat="44.3768464" lon="8.0433879"><ele>441.0</ele><time>2026-04-28T06:56:14.446Z</time></trkpt><trkpt lat="44.3768029" lon="8.0435359"><ele>441.0</ele><time>2026-04-28T06:56:15.445Z</time></trkpt><trkpt lat="44.3767664" lon="8.0436613"><ele>441.0</ele><time>2026-04-28T06:56:16.446Z</time></trkpt><trkpt lat="44.3767376" lon="8.0437538"><ele>441.0</ele><time>2026-04-28T06:56:17.446Z</time></trkpt><trkpt lat="44.3766516" lon="8.0438375"><ele>441.0</ele><time>2026-04-28T06:56:19.446Z</time></trkpt><trkpt lat="44.3765831" lon="8.0438276"><ele>441.0</ele><time>2026-04-28T06:56:20.447Z</time></trkpt><trkpt lat="44.376505" lon="8.0438036"><ele>441.0</ele><time>2026-04-28T06:56:21.447Z</time></trkpt><trkpt lat="44.3764209" lon="8.0437536"><ele>441.0</ele><time>2026-04-28T06:56:22.447Z</time></trkpt><trkpt lat="44.3763285" lon="8.0436963"><ele>441.0</ele><time>2026-04-28T06:56:23.447Z</time></trkpt><trkpt lat="44.3762286" lon="8.0436329"><ele>441.0</ele><time>2026-04-28T06:56:24.446Z</time></trkpt><trkpt lat="44.3761286" lon="8.0435736"><ele>441.0</ele><time>2026-04-28T06:56:25.447Z</time></trkpt><trkpt lat="44.3760441" lon="8.0435224"><ele>441.0</ele><time>2026-04-28T06:56:26.446Z</time></trkpt><trkpt lat="44.3759825" lon="8.0434766"><ele>441.0</ele><time>2026-04-28T06:56:27.446Z</time></trkpt><trkpt lat="44.3759137" lon="8.043427"><ele>441.0</ele><time>2026-04-28T06:56:29.446Z</time></trkpt><trkpt lat="44.3758088" lon="8.0434359"><ele>441.0</ele><time>2026-04-28T06:56:32.446Z</time></trkpt><trkpt lat="44.3757494" lon="8.0434846"><ele>441.0</ele><time>2026-04-28T06:56:33.446Z</time></trkpt><trkpt lat="44.3756816" lon="8.0435629"><ele>441.0</ele><time>2026-04-28T06:56:34.447Z</time></trkpt><trkpt lat="44.3756047" lon="8.0436569"><ele>441.0</ele><time>2026-04-28T06:56:35.445Z</time></trkpt><trkpt lat="44.3755156" lon="8.0437528"><ele>441.0</ele><time>2026-04-28T06:56:36.447Z</time></trkpt><trkpt lat="44.3754113" lon="8.0438672"><ele>441.33333333333337</ele><time>2026-04-28T06:56:37.447Z</time></trkpt><trkpt lat="44.3752949" lon="8.043997"><ele>441.6666666666667</ele><time>2026-04-28T06:56:38.447Z</time></trkpt><trkpt lat="44.3751727" lon="8.0441323"><ele>442.0</ele><time>2026-04-28T06:56:39.446Z</time></trkpt><trkpt lat="44.3750482" lon="8.0442688"><ele>442.0</ele><time>2026-04-28T06:56:40.446Z</time></trkpt><trkpt lat="44.3749184" lon="8.0444103"><ele>442.0</ele><time>2026-04-28T06:56:41.446Z</time></trkpt><trkpt lat="44.3747902" lon="8.0445608"><ele>442.0</ele><time>2026-04-28T06:56:42.447Z</time></trkpt><trkpt lat="44.3746571" lon="8.0447229"><ele>441.6666666666667</ele><time>2026-04-28T06:56:43.446Z</time></trkpt><trkpt lat="44.3745166" lon="8.0448891"><ele>441.33333333333337</ele><time>2026-04-28T06:56:44.446Z</time></trkpt><trkpt lat="44.3743869" lon="8.0450459"><ele>441.0</ele><time>2026-04-28T06:56:45.446Z</time></trkpt><trkpt lat="44.3742502" lon="8.0452079"><ele>441.66666666666663</ele><time>2026-04-28T06:56:46.447Z</time></trkpt><trkpt lat="44.3741157" lon="8.0453731"><ele>442.3333333333333</ele><time>2026-04-28T06:56:47.447Z</time></trkpt><trkpt lat="44.3739799" lon="8.0455413"><ele>443.0</ele><time>2026-04-28T06:56:48.447Z</time></trkpt><trkpt lat="44.3738384" lon="8.0457113"><ele>443.3333333333333</ele><time>2026-04-28T06:56:49.447Z</time></trkpt><trkpt lat="44.3736921" lon="8.0458905"><ele>443.66666666666663</ele><time>2026-04-28T06:56:50.446Z</time></trkpt><trkpt lat="44.373541" lon="8.0460645"><ele>444.0</ele><time>2026-04-28T06:56:51.446Z</time></trkpt><trkpt lat="44.3733895" lon="8.0462449"><ele>444.0</ele><time>2026-04-28T06:56:52.445Z</time></trkpt><trkpt lat="44.3732388" lon="8.0464285"><ele>444.0</ele><time>2026-04-28T06:56:53.447Z</time></trkpt><trkpt lat="44.3730827" lon="8.0466028"><ele>444.0</ele><time>2026-04-28T06:56:54.447Z</time></trkpt><trkpt lat="44.3729298" lon="8.0467781"><ele>444.66666666666663</ele><time>2026-04-28T06:56:55.446Z</time></trkpt><trkpt lat="44.3727675" lon="8.0469343"><ele>445.3333333333333</ele><time>2026-04-28T06:56:56.446Z</time></trkpt><trkpt lat="44.3725972" lon="8.0470833"><ele>446.0</ele><time>2026-04-28T06:56:57.446Z</time></trkpt><trkpt lat="44.3724241" lon="8.0472148"><ele>446.0</ele><time>2026-04-28T06:56:58.447Z</time></trkpt><trkpt lat="44.372241" lon="8.0473315"><ele>446.0</ele><time>2026-04-28T06:56:59.447Z</time></trkpt><trkpt lat="44.3720573" lon="8.0474449"><ele>446.0</ele><time>2026-04-28T06:57:00.447Z</time></trkpt><trkpt lat="44.3718874" lon="8.0475463"><ele>448.66666666666663</ele><time>2026-04-28T06:57:01.446Z</time></trkpt><trkpt lat="44.3717298" lon="8.047645"><ele>451.33333333333337</ele><time>2026-04-28T06:57:02.446Z</time></trkpt><trkpt lat="44.3715853" lon="8.0477334"><ele>454.0</ele><time>2026-04-28T06:57:03.445Z</time></trkpt><trkpt lat="44.3714591" lon="8.047828"><ele>454.0</ele><time>2026-04-28T06:57:04.446Z</time></trkpt><trkpt lat="44.3713636" lon="8.0479592"><ele>454.0</ele><time>2026-04-28T06:57:05.447Z</time></trkpt><trkpt lat="44.371263" lon="8.0480768"><ele>454.0</ele><time>2026-04-28T06:57:06.446Z</time></trkpt><trkpt lat="44.3712799" lon="8.0482795"><ele>454.0</ele><time>2026-04-28T06:57:07.447Z</time></trkpt><trkpt lat="44.3713148" lon="8.0484732"><ele>454.5</ele><time>2026-04-28T06:57:08.447Z</time></trkpt><trkpt lat="44.3713363" lon="8.0486483"><ele>455.0</ele><time>2026-04-28T06:57:09.447Z</time></trkpt><trkpt lat="44.3713601" lon="8.0488387"><ele>455.5</ele><time>2026-04-28T06:57:10.447Z</time></trkpt><trkpt lat="44.3713485" lon="8.0490154"><ele>456.0</ele><time>2026-04-28T06:57:11.447Z</time></trkpt><trkpt lat="44.3713114" lon="8.0491541"><ele>458.8</ele><time>2026-04-28T06:57:12.447Z</time></trkpt><trkpt lat="44.3712386" lon="8.0492553"><ele>461.6</ele><time>2026-04-28T06:57:13.446Z</time></trkpt><trkpt lat="44.3711422" lon="8.0493002"><ele>464.4</ele><time>2026-04-28T06:57:14.447Z</time></trkpt><trkpt lat="44.3710403" lon="8.0492737"><ele>467.2</ele><time>2026-04-28T06:57:15.446Z</time></trkpt><trkpt lat="44.3709558" lon="8.0492061"><ele>470.0</ele><time>2026-04-28T06:57:16.447Z</time></trkpt><trkpt lat="44.3708716" lon="8.0491055"><ele>470.0</ele><time>2026-04-28T06:57:17.447Z</time></trkpt><trkpt lat="44.3708081" lon="8.0489374"><ele>470.0</ele><time>2026-04-28T06:57:18.446Z</time></trkpt><trkpt lat="44.3707465" lon="8.0487438"><ele>470.0</ele><time>2026-04-28T06:57:19.447Z</time></trkpt><trkpt lat="44.3706675" lon="8.0485607"><ele>470.0</ele><time>2026-04-28T06:57:20.447Z</time></trkpt><trkpt lat="44.3705803" lon="8.0483659"><ele>475.3333333333333</ele><time>2026-04-28T06:57:21.446Z</time></trkpt><trkpt lat="44.3704924" lon="8.0481631"><ele>480.66666666666663</ele><time>2026-04-28T06:57:22.447Z</time></trkpt><trkpt lat="44.3704069" lon="8.0479515"><ele>486.0</ele><time>2026-04-28T06:57:23.446Z</time></trkpt><trkpt lat="44.3703333" lon="8.0477416"><ele>486.0</ele><time>2026-04-28T06:57:24.447Z</time></trkpt><trkpt lat="44.3702872" lon="8.0475315"><ele>486.0</ele><time>2026-04-28T06:57:25.447Z</time></trkpt><trkpt lat="44.3702817" lon="8.0473269"><ele>486.0</ele><time>2026-04-28T06:57:26.447Z</time></trkpt><trkpt lat="44.3703083" lon="8.0471446"><ele>486.0</ele><time>2026-04-28T06:57:27.446Z</time></trkpt><trkpt lat="44.3703339" lon="8.0469902"><ele>486.6</ele><time>2026-04-28T06:57:28.447Z</time></trkpt><trkpt lat="44.370315" lon="8.0468481"><ele>487.20000000000005</ele><time>2026-04-28T06:57:29.447Z</time></trkpt><trkpt lat="44.3702665" lon="8.0467201"><ele>487.79999999999995</ele><time>2026-04-28T06:57:30.447Z</time></trkpt><trkpt lat="44.3701777" lon="8.0466505"><ele>488.4</ele><time>2026-04-28T06:57:31.446Z</time></trkpt><trkpt lat="44.3700589" lon="8.0466455"><ele>489.0</ele><time>2026-04-28T06:57:32.447Z</time></trkpt><trkpt lat="44.3699556" lon="8.046705"><ele>489.0</ele><time>2026-04-28T06:57:33.446Z</time></trkpt><trkpt lat="44.3698592" lon="8.0468307"><ele>489.0</ele><time>2026-04-28T06:57:34.447Z</time></trkpt><trkpt lat="44.3697795" lon="8.046999"><ele>489.0</ele><time>2026-04-28T06:57:35.447Z</time></trkpt><trkpt lat="44.3697239" lon="8.0472022"><ele>489.0</ele><time>2026-04-28T06:57:36.446Z</time></trkpt><trkpt lat="44.3696715" lon="8.0474171"><ele>493.66666666666663</ele><time>2026-04-28T06:57:37.447Z</time></trkpt><trkpt lat="44.3696041" lon="8.047627"><ele>498.3333333333333</ele><time>2026-04-28T06:57:38.447Z</time></trkpt><trkpt lat="44.369528" lon="8.0478478"><ele>503.0</ele><time>2026-04-28T06:57:39.446Z</time></trkpt><trkpt lat="44.3694491" lon="8.0480827"><ele>503.3333333333333</ele><time>2026-04-28T06:57:40.447Z</time></trkpt><trkpt lat="44.3693842" lon="8.0483234"><ele>503.66666666666663</ele><time>2026-04-28T06:57:41.446Z</time></trkpt><trkpt lat="44.3693332" lon="8.0485579"><ele>504.0</ele><time>2026-04-28T06:57:42.446Z</time></trkpt><trkpt lat="44.369298" lon="8.0488089"><ele>504.0</ele><time>2026-04-28T06:57:43.446Z</time></trkpt><trkpt lat="44.3692731" lon="8.0490657"><ele>504.0</ele><time>2026-04-28T06:57:44.446Z</time></trkpt><trkpt lat="44.3692519" lon="8.049327"><ele>504.0</ele><time>2026-04-28T06:57:45.447Z</time></trkpt><trkpt lat="44.369226" lon="8.0495922"><ele>503.33333333333337</ele><time>2026-04-28T06:57:46.447Z</time></trkpt><trkpt lat="44.3691934" lon="8.049854"><ele>502.6666666666667</ele><time>2026-04-28T06:57:47.446Z</time></trkpt><trkpt lat="44.3691627" lon="8.0501171"><ele>502.0</ele><time>2026-04-28T06:57:48.446Z</time></trkpt><trkpt lat="44.3691298" lon="8.0503707"><ele>503.6666666666667</ele><time>2026-04-28T06:57:49.446Z</time></trkpt><trkpt lat="44.3690919" lon="8.0506182"><ele>505.33333333333337</ele><time>2026-04-28T06:57:50.447Z</time></trkpt><trkpt lat="44.369064" lon="8.0508546"><ele>507.0</ele><time>2026-04-28T06:57:51.447Z</time></trkpt><trkpt lat="44.3690679" lon="8.0510703"><ele>508.5</ele><time>2026-04-28T06:57:52.446Z</time></trkpt><trkpt lat="44.3691038" lon="8.0512526"><ele>510.0</ele><time>2026-04-28T06:57:53.446Z</time></trkpt><trkpt lat="44.3691512" lon="8.0514091"><ele>511.5</ele><time>2026-04-28T06:57:54.446Z</time></trkpt><trkpt lat="44.3692323" lon="8.0515213"><ele>513.0</ele><time>2026-04-28T06:57:55.446Z</time></trkpt><trkpt lat="44.3693129" lon="8.0516284"><ele>513.0</ele><time>2026-04-28T06:57:56.445Z</time></trkpt><trkpt lat="44.3693278" lon="8.0517317"><ele>513.0</ele><time>2026-04-28T06:57:57.446Z</time></trkpt><trkpt lat="44.3692661" lon="8.0517899"><ele>513.0</ele><time>2026-04-28T06:57:58.447Z</time></trkpt><trkpt lat="44.3691912" lon="8.051789"><ele>513.0</ele><time>2026-04-28T06:57:59.447Z</time></trkpt><trkpt lat="44.3691239" lon="8.0517193"><ele>513.0</ele><time>2026-04-28T06:58:00.447Z</time></trkpt><trkpt lat="44.3690468" lon="8.0515872"><ele>513.0</ele><time>2026-04-28T06:58:01.446Z</time></trkpt><trkpt lat="44.3689762" lon="8.0514544"><ele>513.0</ele><time>2026-04-28T06:58:02.446Z</time></trkpt><trkpt lat="44.3688922" lon="8.0513147"><ele>513.0</ele><time>2026-04-28T06:58:03.446Z</time></trkpt><trkpt lat="44.3687997" lon="8.0511693"><ele>513.0</ele><time>2026-04-28T06:58:04.445Z</time></trkpt><trkpt lat="44.3687093" lon="8.051036"><ele>513.0</ele><time>2026-04-28T06:58:05.447Z</time></trkpt><trkpt lat="44.3686059" lon="8.0509169"><ele>514.75</ele><time>2026-04-28T06:58:06.446Z</time></trkpt><trkpt lat="44.3684812" lon="8.0508363"><ele>516.5</ele><time>2026-04-28T06:58:07.446Z</time></trkpt><trkpt lat="44.3683403" lon="8.050808"><ele>518.25</ele><time>2026-04-28T06:58:08.446Z</time></trkpt><trkpt lat="44.3682022" lon="8.0508129"><ele>520.0</ele><time>2026-04-28T06:58:09.445Z</time></trkpt><trkpt lat="44.3680814" lon="8.0508806"><ele>516.0</ele><time>2026-04-28T06:58:10.447Z</time></trkpt><trkpt lat="44.3679837" lon="8.0510197"><ele>512.0</ele><time>2026-04-28T06:58:11.446Z</time></trkpt><trkpt lat="44.3679081" lon="8.0511682"><ele>508.0</ele><time>2026-04-28T06:58:12.447Z</time></trkpt><trkpt lat="44.3678617" lon="8.0513389"><ele>504.0</ele><time>2026-04-28T06:58:13.446Z</time></trkpt><trkpt lat="44.3678487" lon="8.0515159"><ele>503.5</ele><time>2026-04-28T06:58:14.446Z</time></trkpt><trkpt lat="44.3678651" lon="8.0517009"><ele>503.0</ele><time>2026-04-28T06:58:15.446Z</time></trkpt><trkpt lat="44.3678974" lon="8.0519026"><ele>502.5</ele><time>2026-04-28T06:58:16.446Z</time></trkpt><trkpt lat="44.3678826" lon="8.0521096"><ele>502.0</ele><time>2026-04-28T06:58:17.447Z</time></trkpt><trkpt lat="44.3678224" lon="8.0523187"><ele>504.33333333333337</ele><time>2026-04-28T06:58:18.446Z</time></trkpt><trkpt lat="44.3677427" lon="8.052513"><ele>506.66666666666663</ele><time>2026-04-28T06:58:19.446Z</time></trkpt><trkpt lat="44.3676575" lon="8.0526975"><ele>509.0</ele><time>2026-04-28T06:58:20.446Z</time></trkpt><trkpt lat="44.3675899" lon="8.0528976"><ele>509.0</ele><time>2026-04-28T06:58:21.446Z</time></trkpt><trkpt lat="44.3675579" lon="8.0531247"><ele>509.0</ele><time>2026-04-28T06:58:22.446Z</time></trkpt><trkpt lat="44.3675502" lon="8.0533681"><ele>509.0</ele><time>2026-04-28T06:58:23.447Z</time></trkpt><trkpt lat="44.3675325" lon="8.0536108"><ele>510.66666666666663</ele><time>2026-04-28T06:58:24.447Z</time></trkpt><trkpt lat="44.3675213" lon="8.0538658"><ele>512.3333333333334</ele><time>2026-04-28T06:58:25.447Z</time></trkpt><trkpt lat="44.3675038" lon="8.05413"><ele>514.0</ele><time>2026-04-28T06:58:26.447Z</time></trkpt><trkpt lat="44.3674705" lon="8.0543794"><ele>515.3333333333334</ele><time>2026-04-28T06:58:27.446Z</time></trkpt><trkpt lat="44.3674244" lon="8.0546306"><ele>516.6666666666666</ele><time>2026-04-28T06:58:28.447Z</time></trkpt><trkpt lat="44.3673677" lon="8.0548851"><ele>518.0</ele><time>2026-04-28T06:58:29.446Z</time></trkpt><trkpt lat="44.3673135" lon="8.0551395"><ele>520.3333333333333</ele><time>2026-04-28T06:58:30.447Z</time></trkpt><trkpt lat="44.3672748" lon="8.0554003"><ele>522.6666666666666</ele><time>2026-04-28T06:58:31.446Z</time></trkpt><trkpt lat="44.3672283" lon="8.0556613"><ele>525.0</ele><time>2026-04-28T06:58:32.446Z</time></trkpt><trkpt lat="44.3671531" lon="8.0559089"><ele>519.6666666666666</ele><time>2026-04-28T06:58:33.446Z</time></trkpt><trkpt lat="44.3670632" lon="8.0561457"><ele>514.3333333333333</ele><time>2026-04-28T06:58:34.446Z</time></trkpt><trkpt lat="44.3669794" lon="8.0563818"><ele>509.0</ele><time>2026-04-28T06:58:35.446Z</time></trkpt><trkpt lat="44.3669161" lon="8.0566286"><ele>509.0</ele><time>2026-04-28T06:58:36.447Z</time></trkpt><trkpt lat="44.3668541" lon="8.0568713"><ele>509.0</ele><time>2026-04-28T06:58:37.447Z</time></trkpt><trkpt lat="44.3667759" lon="8.0571129"><ele>509.0</ele><time>2026-04-28T06:58:38.447Z</time></trkpt><trkpt lat="44.3666686" lon="8.0573327"><ele>510.66666666666663</ele><time>2026-04-28T06:58:39.447Z</time></trkpt><trkpt lat="44.3665324" lon="8.0575239"><ele>512.3333333333334</ele><time>2026-04-28T06:58:40.446Z</time></trkpt><trkpt lat="44.3663772" lon="8.0577017"><ele>514.0</ele><time>2026-04-28T06:58:41.446Z</time></trkpt><trkpt lat="44.3662219" lon="8.057888"><ele>512.6666666666667</ele><time>2026-04-28T06:58:42.446Z</time></trkpt><trkpt lat="44.3660561" lon="8.0580658"><ele>511.33333333333337</ele><time>2026-04-28T06:58:43.446Z</time></trkpt><trkpt lat="44.3658935" lon="8.0582541"><ele>510.0</ele><time>2026-04-28T06:58:44.447Z</time></trkpt><trkpt lat="44.3657238" lon="8.0584346"><ele>510.0</ele><time>2026-04-28T06:58:45.447Z</time></trkpt><trkpt lat="44.3655412" lon="8.0585987"><ele>510.0</ele><time>2026-04-28T06:58:46.446Z</time></trkpt><trkpt lat="44.3653594" lon="8.0587459"><ele>510.0</ele><time>2026-04-28T06:58:47.446Z</time></trkpt><trkpt lat="44.3651701" lon="8.0588913"><ele>508.66666666666663</ele><time>2026-04-28T06:58:48.447Z</time></trkpt><trkpt lat="44.3649825" lon="8.0590411"><ele>507.3333333333333</ele><time>2026-04-28T06:58:49.445Z</time></trkpt><trkpt lat="44.3647974" lon="8.0591852"><ele>506.0</ele><time>2026-04-28T06:58:50.447Z</time></trkpt><trkpt lat="44.364623" lon="8.0593176"><ele>506.0</ele><time>2026-04-28T06:58:51.447Z</time></trkpt><trkpt lat="44.3644414" lon="8.0594163"><ele>506.0</ele><time>2026-04-28T06:58:52.446Z</time></trkpt><trkpt lat="44.3642677" lon="8.0595166"><ele>506.0</ele><time>2026-04-28T06:58:53.446Z</time></trkpt><trkpt lat="44.3641034" lon="8.0596057"><ele>506.0</ele><time>2026-04-28T06:58:54.446Z</time></trkpt><trkpt lat="44.3639927" lon="8.0597457"><ele>506.0</ele><time>2026-04-28T06:58:55.445Z</time></trkpt><trkpt lat="44.3638732" lon="8.0598979"><ele>506.0</ele><time>2026-04-28T06:58:56.446Z</time></trkpt><trkpt lat="44.3637648" lon="8.0600408"><ele>513.25</ele><time>2026-04-28T06:58:57.445Z</time></trkpt><trkpt lat="44.3636639" lon="8.060204"><ele>520.5</ele><time>2026-04-28T06:58:58.445Z</time></trkpt><trkpt lat="44.3635729" lon="8.0603701"><ele>527.75</ele><time>2026-04-28T06:58:59.447Z</time></trkpt><trkpt lat="44.3635035" lon="8.0605167"><ele>535.0</ele><time>2026-04-28T06:59:00.447Z</time></trkpt><trkpt lat="44.3634642" lon="8.0606786"><ele>535.0</ele><time>2026-04-28T06:59:01.446Z</time></trkpt><trkpt lat="44.3633758" lon="8.06078"><ele>535.0</ele><time>2026-04-28T06:59:02.446Z</time></trkpt><trkpt lat="44.3632866" lon="8.060848"><ele>535.0</ele><time>2026-04-28T06:59:03.446Z</time></trkpt><trkpt lat="44.3632157" lon="8.0609271"><ele>535.0</ele><time>2026-04-28T06:59:04.446Z</time></trkpt><trkpt lat="44.3631981" lon="8.0610415"><ele>535.0</ele><time>2026-04-28T06:59:05.447Z</time></trkpt><trkpt lat="44.3632185" lon="8.0611459"><ele>538.2</ele><time>2026-04-28T06:59:06.447Z</time></trkpt><trkpt lat="44.3632343" lon="8.0612463"><ele>541.4</ele><time>2026-04-28T06:59:07.447Z</time></trkpt><trkpt lat="44.3633341" lon="8.061363"><ele>544.6</ele><time>2026-04-28T06:59:08.447Z</time></trkpt><trkpt lat="44.3633915" lon="8.0614955"><ele>547.8</ele><time>2026-04-28T06:59:09.447Z</time></trkpt><trkpt lat="44.3634649" lon="8.0616491"><ele>551.0</ele><time>2026-04-28T06:59:10.447Z</time></trkpt><trkpt lat="44.3635322" lon="8.0618255"><ele>554.0</ele><time>2026-04-28T06:59:11.447Z</time></trkpt><trkpt lat="44.3635737" lon="8.0619848"><ele>557.0</ele><time>2026-04-28T06:59:12.447Z</time></trkpt><trkpt lat="44.3635959" lon="8.0621627"><ele>560.0</ele><time>2026-04-28T06:59:13.447Z</time></trkpt><trkpt lat="44.3636119" lon="8.0623525"><ele>563.0</ele><time>2026-04-28T06:59:14.447Z</time></trkpt><trkpt lat="44.3635739" lon="8.062531"><ele>566.75</ele><time>2026-04-28T06:59:15.446Z</time></trkpt><trkpt lat="44.3635176" lon="8.062696"><ele>570.5</ele><time>2026-04-28T06:59:16.447Z</time></trkpt><trkpt lat="44.3634685" lon="8.0628555"><ele>574.25</ele><time>2026-04-28T06:59:17.446Z</time></trkpt><trkpt lat="44.363414" lon="8.0629937"><ele>578.0</ele><time>2026-04-28T06:59:18.446Z</time></trkpt><trkpt lat="44.3633708" lon="8.0631498"><ele>578.0</ele><time>2026-04-28T06:59:19.447Z</time></trkpt><trkpt lat="44.3633086" lon="8.0632555"><ele>578.0</ele><time>2026-04-28T06:59:20.447Z</time></trkpt><trkpt lat="44.3632796" lon="8.0633681"><ele>578.0</ele><time>2026-04-28T06:59:21.447Z</time></trkpt><trkpt lat="44.3632802" lon="8.0634719"><ele>578.0</ele><time>2026-04-28T06:59:22.447Z</time></trkpt><trkpt lat="44.3632758" lon="8.0635688"><ele>578.0</ele><time>2026-04-28T06:59:23.446Z</time></trkpt><trkpt lat="44.3634102" lon="8.0636111"><ele>578.0</ele><time>2026-04-28T06:59:25.446Z</time></trkpt><trkpt lat="44.3635296" lon="8.0633783"><ele>578.0</ele><time>2026-04-28T06:59:26.446Z</time></trkpt><trkpt lat="44.3635879" lon="8.0633289"><ele>578.0</ele><time>2026-04-28T06:59:27.446Z</time></trkpt><trkpt lat="44.3636926" lon="8.063342"><ele>578.0</ele><time>2026-04-28T06:59:29.447Z</time></trkpt><trkpt lat="44.3637527" lon="8.0633818"><ele>578.0</ele><time>2026-04-28T06:59:30.447Z</time></trkpt><trkpt lat="44.3636185" lon="8.0635028"><ele>578.0</ele><time>2026-04-28T06:59:31.446Z</time></trkpt><trkpt lat="44.3635708" lon="8.0635811"><ele>578.0</ele><time>2026-04-28T06:59:32.446Z</time></trkpt><trkpt lat="44.3635268" lon="8.0636657"><ele>578.0</ele><time>2026-04-28T06:59:33.447Z</time></trkpt><trkpt lat="44.3634845" lon="8.0637964"><ele>578.0</ele><time>2026-04-28T06:59:35.447Z</time></trkpt><trkpt lat="44.3633974" lon="8.0638134"><ele>578.0</ele><time>2026-04-28T06:59:37.447Z</time></trkpt><trkpt lat="44.3633399" lon="8.0637558"><ele>578.0</ele><time>2026-04-28T06:59:38.446Z</time></trkpt><trkpt lat="44.3632684" lon="8.0637246"><ele>578.0</ele><time>2026-04-28T06:59:39.446Z</time></trkpt><trkpt lat="44.3631988" lon="8.0636941"><ele>578.0</ele><time>2026-04-28T06:59:40.446Z</time></trkpt><trkpt lat="44.3631034" lon="8.0638065"><ele>578.0</ele><time>2026-04-28T06:59:41.446Z</time></trkpt><trkpt lat="44.3630265" lon="8.0638947"><ele>578.0</ele><time>2026-04-28T06:59:42.446Z</time></trkpt><trkpt lat="44.3629516" lon="8.0640301"><ele>578.0</ele><time>2026-04-28T06:59:43.445Z</time></trkpt><trkpt lat="44.3628614" lon="8.0641698"><ele>581.1999999999999</ele><time>2026-04-28T06:59:44.446Z</time></trkpt><trkpt lat="44.3627639" lon="8.0643116"><ele>584.4</ele><time>2026-04-28T06:59:45.447Z</time></trkpt><trkpt lat="44.362675" lon="8.064425"><ele>587.5999999999999</ele><time>2026-04-28T06:59:46.447Z</time></trkpt><trkpt lat="44.3625843" lon="8.0644799"><ele>590.8</ele><time>2026-04-28T06:59:47.446Z</time></trkpt><trkpt lat="44.3625113" lon="8.064509"><ele>594.0</ele><time>2026-04-28T06:59:48.447Z</time></trkpt><trkpt lat="44.3624164" lon="8.0645098"><ele>594.0</ele><time>2026-04-28T06:59:49.446Z</time></trkpt><trkpt lat="44.3624646" lon="8.0642976"><ele>594.0</ele><time>2026-04-28T06:59:50.447Z</time></trkpt><trkpt lat="44.3624519" lon="8.0641799"><ele>594.0</ele><time>2026-04-28T06:59:51.446Z</time></trkpt><trkpt lat="44.3625009" lon="8.0640113"><ele>594.0</ele><time>2026-04-28T06:59:52.446Z</time></trkpt><trkpt lat="44.3625488" lon="8.0638323"><ele>594.5</ele><time>2026-04-28T06:59:53.446Z</time></trkpt><trkpt lat="44.3626068" lon="8.0636473"><ele>595.0</ele><time>2026-04-28T06:59:54.446Z</time></trkpt><trkpt lat="44.3626726" lon="8.0634602"><ele>595.5</ele><time>2026-04-28T06:59:55.446Z</time></trkpt><trkpt lat="44.3627483" lon="8.0632816"><ele>596.0</ele><time>2026-04-28T06:59:56.445Z</time></trkpt><trkpt lat="44.3628438" lon="8.0631713"><ele>596.0</ele><time>2026-04-28T06:59:57.447Z</time></trkpt><trkpt lat="44.3629278" lon="8.0630373"><ele>596.0</ele><time>2026-04-28T06:59:58.447Z</time></trkpt><trkpt lat="44.3629736" lon="8.0628803"><ele>596.0</ele><time>2026-04-28T06:59:59.447Z</time></trkpt><trkpt lat="44.3629886" lon="8.0627099"><ele>596.0</ele><time>2026-04-28T07:00:00.447Z</time></trkpt><trkpt lat="44.3629969" lon="8.0625681"><ele>596.0</ele><time>2026-04-28T07:00:01.447Z</time></trkpt><trkpt lat="44.3629925" lon="8.0624394"><ele>596.0</ele><time>2026-04-28T07:00:02.446Z</time></trkpt><trkpt lat="44.3629154" lon="8.0623485"><ele>596.0</ele><time>2026-04-28T07:00:03.447Z</time></trkpt><trkpt lat="44.3628229" lon="8.0622999"><ele>596.0</ele><time>2026-04-28T07:00:04.446Z</time></trkpt><trkpt lat="44.3626604" lon="8.0625365"><ele>596.0</ele><time>2026-04-28T07:00:05.446Z</time></trkpt><trkpt lat="44.3625613" lon="8.0627519"><ele>596.0</ele><time>2026-04-28T07:00:06.447Z</time></trkpt><trkpt lat="44.3624555" lon="8.0629243"><ele>596.0</ele><time>2026-04-28T07:00:07.445Z</time></trkpt><trkpt lat="44.3623399" lon="8.0630747"><ele>596.0</ele><time>2026-04-28T07:00:08.447Z</time></trkpt><trkpt lat="44.3622208" lon="8.0632128"><ele>596.0</ele><time>2026-04-28T07:00:09.447Z</time></trkpt><trkpt lat="44.3620927" lon="8.063345"><ele>596.0</ele><time>2026-04-28T07:00:10.447Z</time></trkpt><trkpt lat="44.361957" lon="8.0634808"><ele>601.6666666666666</ele><time>2026-04-28T07:00:11.445Z</time></trkpt><trkpt lat="44.3618197" lon="8.0636269"><ele>607.3333333333334</ele><time>2026-04-28T07:00:12.447Z</time></trkpt><trkpt lat="44.3616952" lon="8.0637906"><ele>613.0</ele><time>2026-04-28T07:00:13.445Z</time></trkpt><trkpt lat="44.3615783" lon="8.0639582"><ele>613.3333333333334</ele><time>2026-04-28T07:00:14.446Z</time></trkpt><trkpt lat="44.3614651" lon="8.0641165"><ele>613.6666666666666</ele><time>2026-04-28T07:00:15.445Z</time></trkpt><trkpt lat="44.3613433" lon="8.064269"><ele>614.0</ele><time>2026-04-28T07:00:16.446Z</time></trkpt><trkpt lat="44.3612085" lon="8.0644103"><ele>618.3333333333333</ele><time>2026-04-28T07:00:17.447Z</time></trkpt><trkpt lat="44.3610641" lon="8.064545"><ele>622.6666666666666</ele><time>2026-04-28T07:00:18.446Z</time></trkpt><trkpt lat="44.3609155" lon="8.0646838"><ele>627.0</ele><time>2026-04-28T07:00:19.446Z</time></trkpt><trkpt lat="44.3607732" lon="8.06484"><ele>626.0</ele><time>2026-04-28T07:00:20.446Z</time></trkpt><trkpt lat="44.3606419" lon="8.0650239"><ele>625.0</ele><time>2026-04-28T07:00:21.447Z</time></trkpt><trkpt lat="44.3605326" lon="8.0652286"><ele>624.0</ele><time>2026-04-28T07:00:22.446Z</time></trkpt><trkpt lat="44.3604455" lon="8.0654398"><ele>628.3333333333334</ele><time>2026-04-28T07:00:23.446Z</time></trkpt><trkpt lat="44.3603786" lon="8.0656508"><ele>632.6666666666667</ele><time>2026-04-28T07:00:24.445Z</time></trkpt><trkpt lat="44.3603258" lon="8.0658462"><ele>637.0</ele><time>2026-04-28T07:00:25.447Z</time></trkpt><trkpt lat="44.360265" lon="8.0660159"><ele>637.0</ele><time>2026-04-28T07:00:26.447Z</time></trkpt><trkpt lat="44.3601706" lon="8.066149"><ele>637.0</ele><time>2026-04-28T07:00:27.447Z</time></trkpt><trkpt lat="44.3600389" lon="8.0662447"><ele>637.0</ele><time>2026-04-28T07:00:28.446Z</time></trkpt><trkpt lat="44.359888" lon="8.0663184"><ele>637.0</ele><time>2026-04-28T07:00:29.446Z</time></trkpt><trkpt lat="44.3597383" lon="8.0663945"><ele>638.5</ele><time>2026-04-28T07:00:30.447Z</time></trkpt><trkpt lat="44.3595904" lon="8.0664709"><ele>640.0</ele><time>2026-04-28T07:00:31.447Z</time></trkpt><trkpt lat="44.3594541" lon="8.0665497"><ele>641.5</ele><time>2026-04-28T07:00:32.446Z</time></trkpt><trkpt lat="44.3593455" lon="8.0666593"><ele>643.0</ele><time>2026-04-28T07:00:33.447Z</time></trkpt><trkpt lat="44.3592713" lon="8.0668261"><ele>643.0</ele><time>2026-04-28T07:00:34.447Z</time></trkpt><trkpt lat="44.3592087" lon="8.0670102"><ele>643.0</ele><time>2026-04-28T07:00:35.447Z</time></trkpt><trkpt lat="44.3591205" lon="8.0671692"><ele>643.0</ele><time>2026-04-28T07:00:36.446Z</time></trkpt><trkpt lat="44.3589946" lon="8.0672574"><ele>643.0</ele><time>2026-04-28T07:00:37.446Z</time></trkpt><trkpt lat="44.3588643" lon="8.0672614"><ele>645.25</ele><time>2026-04-28T07:00:38.446Z</time></trkpt><trkpt lat="44.3587426" lon="8.0672251"><ele>647.5</ele><time>2026-04-28T07:00:39.446Z</time></trkpt><trkpt lat="44.3586114" lon="8.0671777"><ele>649.75</ele><time>2026-04-28T07:00:40.445Z</time></trkpt><trkpt lat="44.358467" lon="8.0671131"><ele>652.0</ele><time>2026-04-28T07:00:41.446Z</time></trkpt><trkpt lat="44.3583193" lon="8.0670732"><ele>652.0</ele><time>2026-04-28T07:00:42.447Z</time></trkpt><trkpt lat="44.3581762" lon="8.0670592"><ele>652.0</ele><time>2026-04-28T07:00:43.447Z</time></trkpt><trkpt lat="44.3580498" lon="8.067092"><ele>652.0</ele><time>2026-04-28T07:00:44.446Z</time></trkpt><trkpt lat="44.3579291" lon="8.0671609"><ele>652.0</ele><time>2026-04-28T07:00:45.445Z</time></trkpt><trkpt lat="44.3578109" lon="8.0672332"><ele>653.75</ele><time>2026-04-28T07:00:46.445Z</time></trkpt><trkpt lat="44.3577173" lon="8.0673643"><ele>655.5</ele><time>2026-04-28T07:00:47.447Z</time></trkpt><trkpt lat="44.3576489" lon="8.0675303"><ele>657.25</ele><time>2026-04-28T07:00:48.446Z</time></trkpt><trkpt lat="44.3575776" lon="8.0676902"><ele>659.0</ele><time>2026-04-28T07:00:49.446Z</time></trkpt><trkpt lat="44.3574905" lon="8.0678452"><ele>659.0</ele><time>2026-04-28T07:00:50.447Z</time></trkpt><trkpt lat="44.3573929" lon="8.0680034"><ele>659.0</ele><time>2026-04-28T07:00:51.446Z</time></trkpt><trkpt lat="44.3572946" lon="8.0681583"><ele>659.0</ele><time>2026-04-28T07:00:52.446Z</time></trkpt><trkpt lat="44.3571977" lon="8.0682933"><ele>659.0</ele><time>2026-04-28T07:00:53.447Z</time></trkpt><trkpt lat="44.357106" lon="8.0684107"><ele>659.0</ele><time>2026-04-28T07:00:54.447Z</time></trkpt><trkpt lat="44.3570526" lon="8.0685329"><ele>659.0</ele><time>2026-04-28T07:00:55.447Z</time></trkpt><trkpt lat="44.3570127" lon="8.0686436"><ele>659.0</ele><time>2026-04-28T07:00:56.447Z</time></trkpt><trkpt lat="44.3569918" lon="8.0687618"><ele>659.0</ele><time>2026-04-28T07:00:57.447Z</time></trkpt><trkpt lat="44.3569978" lon="8.0688782"><ele>659.0</ele><time>2026-04-28T07:00:58.447Z</time></trkpt><trkpt lat="44.3570527" lon="8.0689676"><ele>659.0</ele><time>2026-04-28T07:00:59.445Z</time></trkpt><trkpt lat="44.357279" lon="8.0689636"><ele>659.0</ele><time>2026-04-28T07:01:00.445Z</time></trkpt><trkpt lat="44.3575038" lon="8.0689875"><ele>659.0</ele><time>2026-04-28T07:01:01.447Z</time></trkpt><trkpt lat="44.3576976" lon="8.0690233"><ele>659.0</ele><time>2026-04-28T07:01:02.447Z</time></trkpt><trkpt lat="44.3578746" lon="8.0690601"><ele>658.6666666666666</ele><time>2026-04-28T07:01:03.447Z</time></trkpt><trkpt lat="44.3580394" lon="8.0691003"><ele>658.3333333333334</ele><time>2026-04-28T07:01:04.447Z</time></trkpt><trkpt lat="44.3581879" lon="8.0691584"><ele>658.0</ele><time>2026-04-28T07:01:05.447Z</time></trkpt><trkpt lat="44.3583014" lon="8.0692669"><ele>658.0</ele><time>2026-04-28T07:01:06.446Z</time></trkpt><trkpt lat="44.35839" lon="8.0694215"><ele>658.0</ele><time>2026-04-28T07:01:07.446Z</time></trkpt><trkpt lat="44.3584627" lon="8.0696017"><ele>658.0</ele><time>2026-04-28T07:01:08.447Z</time></trkpt><trkpt lat="44.3585306" lon="8.0697971"><ele>658.0</ele><time>2026-04-28T07:01:09.447Z</time></trkpt><trkpt lat="44.3586088" lon="8.0699848"><ele>662.25</ele><time>2026-04-28T07:01:10.447Z</time></trkpt><trkpt lat="44.3587011" lon="8.0701639"><ele>666.5</ele><time>2026-04-28T07:01:11.447Z</time></trkpt><trkpt lat="44.358783" lon="8.0703317"><ele>670.75</ele><time>2026-04-28T07:01:12.446Z</time></trkpt><trkpt lat="44.3588216" lon="8.0705138"><ele>675.0</ele><time>2026-04-28T07:01:13.446Z</time></trkpt><trkpt lat="44.3588144" lon="8.0707137"><ele>677.3333333333334</ele><time>2026-04-28T07:01:14.447Z</time></trkpt><trkpt lat="44.3587795" lon="8.0709167"><ele>679.6666666666667</ele><time>2026-04-28T07:01:15.447Z</time></trkpt><trkpt lat="44.3587241" lon="8.0711245"><ele>682.0</ele><time>2026-04-28T07:01:16.446Z</time></trkpt><trkpt lat="44.358653" lon="8.0713359"><ele>682.0</ele><time>2026-04-28T07:01:17.446Z</time></trkpt><trkpt lat="44.3585775" lon="8.07154"><ele>682.0</ele><time>2026-04-28T07:01:18.447Z</time></trkpt><trkpt lat="44.3584967" lon="8.0717141"><ele>682.0</ele><time>2026-04-28T07:01:19.447Z</time></trkpt><trkpt lat="44.3583856" lon="8.0718428"><ele>681.0</ele><time>2026-04-28T07:01:20.447Z</time></trkpt><trkpt lat="44.3582374" lon="8.0719236"><ele>680.0</ele><time>2026-04-28T07:01:21.446Z</time></trkpt><trkpt lat="44.3580737" lon="8.0719833"><ele>679.0</ele><time>2026-04-28T07:01:22.446Z</time></trkpt><trkpt lat="44.3579108" lon="8.0720613"><ele>678.6666666666667</ele><time>2026-04-28T07:01:23.446Z</time></trkpt><trkpt lat="44.3577491" lon="8.0721647"><ele>678.3333333333334</ele><time>2026-04-28T07:01:24.446Z</time></trkpt><trkpt lat="44.3575952" lon="8.0722944"><ele>678.0</ele><time>2026-04-28T07:01:25.446Z</time></trkpt><trkpt lat="44.3574612" lon="8.0724534"><ele>678.0</ele><time>2026-04-28T07:01:26.447Z</time></trkpt><trkpt lat="44.3573244" lon="8.0726056"><ele>678.0</ele><time>2026-04-28T07:01:27.447Z</time></trkpt><trkpt lat="44.3571592" lon="8.0726932"><ele>678.0</ele><time>2026-04-28T07:01:28.446Z</time></trkpt><trkpt lat="44.3569815" lon="8.0727534"><ele>683.6666666666666</ele><time>2026-04-28T07:01:29.445Z</time></trkpt><trkpt lat="44.3568014" lon="8.0728038"><ele>689.3333333333333</ele><time>2026-04-28T07:01:30.447Z</time></trkpt><trkpt lat="44.3566208" lon="8.0728367"><ele>695.0</ele><time>2026-04-28T07:01:31.446Z</time></trkpt><trkpt lat="44.356444" lon="8.0728639"><ele>698.6666666666666</ele><time>2026-04-28T07:01:32.446Z</time></trkpt><trkpt lat="44.356278" lon="8.0729136"><ele>702.3333333333334</ele><time>2026-04-28T07:01:33.447Z</time></trkpt><trkpt lat="44.3561242" lon="8.072979"><ele>706.0</ele><time>2026-04-28T07:01:34.447Z</time></trkpt><trkpt lat="44.355976" lon="8.0730375"><ele>706.0</ele><time>2026-04-28T07:01:35.447Z</time></trkpt><trkpt lat="44.3558498" lon="8.0730904"><ele>706.0</ele><time>2026-04-28T07:01:36.447Z</time></trkpt><trkpt lat="44.3557465" lon="8.0731821"><ele>706.0</ele><time>2026-04-28T07:01:37.447Z</time></trkpt><trkpt lat="44.3556632" lon="8.0733332"><ele>706.0</ele><time>2026-04-28T07:01:38.447Z</time></trkpt><trkpt lat="44.3556012" lon="8.0735151"><ele>704.5</ele><time>2026-04-28T07:01:39.446Z</time></trkpt><trkpt lat="44.3555203" lon="8.0736772"><ele>703.0</ele><time>2026-04-28T07:01:40.446Z</time></trkpt><trkpt lat="44.3553899" lon="8.0737447"><ele>701.5</ele><time>2026-04-28T07:01:41.446Z</time></trkpt><trkpt lat="44.3552547" lon="8.073735"><ele>700.0</ele><time>2026-04-28T07:01:42.446Z</time></trkpt><trkpt lat="44.3551238" lon="8.0736756"><ele>700.0</ele><time>2026-04-28T07:01:43.445Z</time></trkpt><trkpt lat="44.3549917" lon="8.0736039"><ele>700.0</ele><time>2026-04-28T07:01:44.446Z</time></trkpt><trkpt lat="44.3548604" lon="8.0735874"><ele>700.0</ele><time>2026-04-28T07:01:45.446Z</time></trkpt><trkpt lat="44.3547279" lon="8.0736215"><ele>700.0</ele><time>2026-04-28T07:01:46.447Z</time></trkpt><trkpt lat="44.3546003" lon="8.0736744"><ele>702.3333333333334</ele><time>2026-04-28T07:01:47.447Z</time></trkpt><trkpt lat="44.3544666" lon="8.0738472"><ele>704.6666666666666</ele><time>2026-04-28T07:01:48.447Z</time></trkpt><trkpt lat="44.3543104" lon="8.0739606"><ele>707.0</ele><time>2026-04-28T07:01:49.447Z</time></trkpt><trkpt lat="44.354152" lon="8.0740418"><ele>707.0</ele><time>2026-04-28T07:01:50.447Z</time></trkpt><trkpt lat="44.3539953" lon="8.074078"><ele>707.0</ele><time>2026-04-28T07:01:51.446Z</time></trkpt><trkpt lat="44.3538455" lon="8.0740695"><ele>707.0</ele><time>2026-04-28T07:01:52.446Z</time></trkpt><trkpt lat="44.3537116" lon="8.0740345"><ele>707.0</ele><time>2026-04-28T07:01:53.446Z</time></trkpt><trkpt lat="44.3535772" lon="8.0739805"><ele>705.0</ele><time>2026-04-28T07:01:54.446Z</time></trkpt><trkpt lat="44.3534647" lon="8.0738572"><ele>703.0</ele><time>2026-04-28T07:01:55.446Z</time></trkpt><trkpt lat="44.353334" lon="8.073788"><ele>701.0</ele><time>2026-04-28T07:01:56.446Z</time></trkpt><trkpt lat="44.3531911" lon="8.0737395"><ele>699.0</ele><time>2026-04-28T07:01:57.446Z</time></trkpt><trkpt lat="44.3530347" lon="8.0736937"><ele>697.3333333333334</ele><time>2026-04-28T07:01:58.446Z</time></trkpt><trkpt lat="44.3528791" lon="8.0736479"><ele>695.6666666666667</ele><time>2026-04-28T07:01:59.445Z</time></trkpt><trkpt lat="44.352731" lon="8.0736068"><ele>694.0</ele><time>2026-04-28T07:02:00.447Z</time></trkpt><trkpt lat="44.3525894" lon="8.0735453"><ele>694.0</ele><time>2026-04-28T07:02:01.447Z</time></trkpt><trkpt lat="44.3524495" lon="8.0734335"><ele>694.0</ele><time>2026-04-28T07:02:02.447Z</time></trkpt><trkpt lat="44.3523148" lon="8.0732997"><ele>694.0</ele><time>2026-04-28T07:02:03.446Z</time></trkpt><trkpt lat="44.3521773" lon="8.0731697"><ele>698.3333333333334</ele><time>2026-04-28T07:02:04.445Z</time></trkpt><trkpt lat="44.3520302" lon="8.0730513"><ele>702.6666666666666</ele><time>2026-04-28T07:02:05.446Z</time></trkpt><trkpt lat="44.3518839" lon="8.0729334"><ele>707.0</ele><time>2026-04-28T07:02:06.446Z</time></trkpt><trkpt lat="44.3517352" lon="8.0728157"><ele>707.0</ele><time>2026-04-28T07:02:07.446Z</time></trkpt><trkpt lat="44.3515832" lon="8.0726974"><ele>707.0</ele><time>2026-04-28T07:02:08.446Z</time></trkpt><trkpt lat="44.3514256" lon="8.0725904"><ele>707.0</ele><time>2026-04-28T07:02:09.447Z</time></trkpt><trkpt lat="44.3512594" lon="8.0725063"><ele>704.6666666666666</ele><time>2026-04-28T07:02:10.447Z</time></trkpt><trkpt lat="44.3510868" lon="8.0724477"><ele>702.3333333333334</ele><time>2026-04-28T07:02:11.447Z</time></trkpt><trkpt lat="44.3509111" lon="8.0723951"><ele>700.0</ele><time>2026-04-28T07:02:12.447Z</time></trkpt><trkpt lat="44.3507362" lon="8.0723359"><ele>700.0</ele><time>2026-04-28T07:02:13.447Z</time></trkpt><trkpt lat="44.3505565" lon="8.0722773"><ele>700.0</ele><time>2026-04-28T07:02:14.446Z</time></trkpt><trkpt lat="44.3503763" lon="8.0722244"><ele>700.0</ele><time>2026-04-28T07:02:15.446Z</time></trkpt><trkpt lat="44.3502003" lon="8.0721835"><ele>700.0</ele><time>2026-04-28T07:02:16.447Z</time></trkpt><trkpt lat="44.3500282" lon="8.072152"><ele>700.0</ele><time>2026-04-28T07:02:17.447Z</time></trkpt><trkpt lat="44.3498601" lon="8.0721452"><ele>700.0</ele><time>2026-04-28T07:02:18.446Z</time></trkpt><trkpt lat="44.3496917" lon="8.0721836"><ele>699.0</ele><time>2026-04-28T07:02:19.446Z</time></trkpt><trkpt lat="44.3495267" lon="8.0722513"><ele>698.0</ele><time>2026-04-28T07:02:20.446Z</time></trkpt><trkpt lat="44.3493578" lon="8.0723265"><ele>697.0</ele><time>2026-04-28T07:02:21.447Z</time></trkpt><trkpt lat="44.3491891" lon="8.0724073"><ele>699.3333333333334</ele><time>2026-04-28T07:02:22.447Z</time></trkpt><trkpt lat="44.3490218" lon="8.0724927"><ele>701.6666666666666</ele><time>2026-04-28T07:02:23.446Z</time></trkpt><trkpt lat="44.348852" lon="8.0725752"><ele>704.0</ele><time>2026-04-28T07:02:24.446Z</time></trkpt><trkpt lat="44.3486812" lon="8.0726485"><ele>704.6666666666666</ele><time>2026-04-28T07:02:25.447Z</time></trkpt><trkpt lat="44.3485135" lon="8.0727098"><ele>705.3333333333334</ele><time>2026-04-28T07:02:26.446Z</time></trkpt><trkpt lat="44.3483473" lon="8.0727657"><ele>706.0</ele><time>2026-04-28T07:02:27.447Z</time></trkpt><trkpt lat="44.3481832" lon="8.0728268"><ele>710.3333333333334</ele><time>2026-04-28T07:02:28.445Z</time></trkpt><trkpt lat="44.3480179" lon="8.0728903"><ele>714.6666666666666</ele><time>2026-04-28T07:02:29.446Z</time></trkpt><trkpt lat="44.3478551" lon="8.0729624"><ele>719.0</ele><time>2026-04-28T07:02:30.446Z</time></trkpt><trkpt lat="44.3477016" lon="8.0730491"><ele>719.0</ele><time>2026-04-28T07:02:31.446Z</time></trkpt><trkpt lat="44.347564" lon="8.0731651"><ele>719.0</ele><time>2026-04-28T07:02:32.446Z</time></trkpt><trkpt lat="44.3474509" lon="8.0733085"><ele>719.0</ele><time>2026-04-28T07:02:33.447Z</time></trkpt><trkpt lat="44.3473448" lon="8.0734377"><ele>719.5</ele><time>2026-04-28T07:02:34.446Z</time></trkpt><trkpt lat="44.3472189" lon="8.0735066"><ele>720.0</ele><time>2026-04-28T07:02:35.446Z</time></trkpt><trkpt lat="44.3470777" lon="8.0735116"><ele>720.5</ele><time>2026-04-28T07:02:36.446Z</time></trkpt><trkpt lat="44.3469337" lon="8.0734928"><ele>721.0</ele><time>2026-04-28T07:02:37.447Z</time></trkpt><trkpt lat="44.3467888" lon="8.0734768"><ele>721.0</ele><time>2026-04-28T07:02:38.447Z</time></trkpt><trkpt lat="44.3466426" lon="8.0734748"><ele>721.0</ele><time>2026-04-28T07:02:39.447Z</time></trkpt><trkpt lat="44.3464948" lon="8.0735304"><ele>721.0</ele><time>2026-04-28T07:02:40.447Z</time></trkpt><trkpt lat="44.3463447" lon="8.0736071"><ele>722.3333333333334</ele><time>2026-04-28T07:02:41.447Z</time></trkpt><trkpt lat="44.346194" lon="8.0736744"><ele>723.6666666666666</ele><time>2026-04-28T07:02:42.447Z</time></trkpt><trkpt lat="44.3460488" lon="8.073709"><ele>725.0</ele><time>2026-04-28T07:02:43.446Z</time></trkpt><trkpt lat="44.345901" lon="8.0737157"><ele>725.0</ele><time>2026-04-28T07:02:44.445Z</time></trkpt><trkpt lat="44.3457711" lon="8.0736329"><ele>725.0</ele><time>2026-04-28T07:02:45.446Z</time></trkpt><trkpt lat="44.345659" lon="8.073494"><ele>725.0</ele><time>2026-04-28T07:02:46.447Z</time></trkpt><trkpt lat="44.3455491" lon="8.073336"><ele>723.6666666666666</ele><time>2026-04-28T07:02:47.446Z</time></trkpt><trkpt lat="44.3454355" lon="8.0731702"><ele>722.3333333333334</ele><time>2026-04-28T07:02:48.446Z</time></trkpt><trkpt lat="44.345316" lon="8.0730037"><ele>721.0</ele><time>2026-04-28T07:02:49.446Z</time></trkpt><trkpt lat="44.3451896" lon="8.0728382"><ele>721.0</ele><time>2026-04-28T07:02:50.446Z</time></trkpt><trkpt lat="44.3450637" lon="8.0726864"><ele>721.0</ele><time>2026-04-28T07:02:51.446Z</time></trkpt><trkpt lat="44.3449372" lon="8.0725566"><ele>721.0</ele><time>2026-04-28T07:02:52.446Z</time></trkpt><trkpt lat="44.3447997" lon="8.0724589"><ele>713.6666666666667</ele><time>2026-04-28T07:02:53.445Z</time></trkpt><trkpt lat="44.3446478" lon="8.0724053"><ele>706.3333333333334</ele><time>2026-04-28T07:02:54.446Z</time></trkpt><trkpt lat="44.3444886" lon="8.0723704"><ele>699.0</ele><time>2026-04-28T07:02:55.446Z</time></trkpt><trkpt lat="44.3443054" lon="8.0724141"><ele>700.6666666666666</ele><time>2026-04-28T07:02:56.446Z</time></trkpt><trkpt lat="44.3441146" lon="8.0724815"><ele>702.3333333333333</ele><time>2026-04-28T07:02:57.446Z</time></trkpt><trkpt lat="44.3439255" lon="8.0725234"><ele>704.0</ele><time>2026-04-28T07:02:58.445Z</time></trkpt><trkpt lat="44.3437414" lon="8.0725389"><ele>704.0</ele><time>2026-04-28T07:02:59.446Z</time></trkpt><trkpt lat="44.3435677" lon="8.0725562"><ele>704.0</ele><time>2026-04-28T07:03:00.446Z</time></trkpt><trkpt lat="44.3433973" lon="8.0725772"><ele>704.0</ele><time>2026-04-28T07:03:01.446Z</time></trkpt><trkpt lat="44.3432318" lon="8.072602"><ele>704.0</ele><time>2026-04-28T07:03:02.446Z</time></trkpt><trkpt lat="44.3430892" lon="8.0726385"><ele>704.0</ele><time>2026-04-28T07:03:03.446Z</time></trkpt><trkpt lat="44.3429539" lon="8.0726837"><ele>704.0</ele><time>2026-04-28T07:03:04.446Z</time></trkpt><trkpt lat="44.3428248" lon="8.0727424"><ele>704.0</ele><time>2026-04-28T07:03:05.446Z</time></trkpt><trkpt lat="44.3427927" lon="8.0729428"><ele>703.5</ele><time>2026-04-28T07:03:06.446Z</time></trkpt><trkpt lat="44.3427647" lon="8.0731413"><ele>703.0</ele><time>2026-04-28T07:03:07.446Z</time></trkpt><trkpt lat="44.3426967" lon="8.0732741"><ele>702.5</ele><time>2026-04-28T07:03:08.446Z</time></trkpt><trkpt lat="44.3426155" lon="8.0733877"><ele>702.0</ele><time>2026-04-28T07:03:09.447Z</time></trkpt><trkpt lat="44.3424973" lon="8.0734497"><ele>702.0</ele><time>2026-04-28T07:03:10.447Z</time></trkpt><trkpt lat="44.3423436" lon="8.0735193"><ele>702.0</ele><time>2026-04-28T07:03:11.447Z</time></trkpt><trkpt lat="44.3421982" lon="8.0736233"><ele>702.0</ele><time>2026-04-28T07:03:12.447Z</time></trkpt><trkpt lat="44.3420764" lon="8.0737433"><ele>697.0</ele><time>2026-04-28T07:03:13.447Z</time></trkpt><trkpt lat="44.3419489" lon="8.0738213"><ele>692.0</ele><time>2026-04-28T07:03:14.447Z</time></trkpt><trkpt lat="44.3418314" lon="8.0738632"><ele>687.0</ele><time>2026-04-28T07:03:15.447Z</time></trkpt><trkpt lat="44.3417315" lon="8.0739395"><ele>682.0</ele><time>2026-04-28T07:03:16.446Z</time></trkpt><trkpt lat="44.3416497" lon="8.0740922"><ele>680.3333333333334</ele><time>2026-04-28T07:03:17.447Z</time></trkpt><trkpt lat="44.3415711" lon="8.0742543"><ele>678.6666666666666</ele><time>2026-04-28T07:03:18.447Z</time></trkpt><trkpt lat="44.3414386" lon="8.074354"><ele>677.0</ele><time>2026-04-28T07:03:19.447Z</time></trkpt><trkpt lat="44.3412818" lon="8.0744439"><ele>677.0</ele><time>2026-04-28T07:03:20.447Z</time></trkpt><trkpt lat="44.3411418" lon="8.0745582"><ele>677.0</ele><time>2026-04-28T07:03:21.447Z</time></trkpt><trkpt lat="44.340985" lon="8.0746356"><ele>677.0</ele><time>2026-04-28T07:03:22.447Z</time></trkpt><trkpt lat="44.3408148" lon="8.0746837"><ele>677.0</ele><time>2026-04-28T07:03:23.447Z</time></trkpt><trkpt lat="44.3406395" lon="8.0747546"><ele>677.0</ele><time>2026-04-28T07:03:24.447Z</time></trkpt><trkpt lat="44.3404585" lon="8.0748139"><ele>677.0</ele><time>2026-04-28T07:03:25.447Z</time></trkpt><trkpt lat="44.3402715" lon="8.0748447"><ele>673.6666666666666</ele><time>2026-04-28T07:03:26.446Z</time></trkpt><trkpt lat="44.3400812" lon="8.0748394"><ele>670.3333333333334</ele><time>2026-04-28T07:03:27.445Z</time></trkpt><trkpt lat="44.3399043" lon="8.0747998"><ele>667.0</ele><time>2026-04-28T07:03:28.446Z</time></trkpt><trkpt lat="44.3397394" lon="8.074734"><ele>665.6666666666667</ele><time>2026-04-28T07:03:29.445Z</time></trkpt><trkpt lat="44.3395816" lon="8.0746631"><ele>664.3333333333334</ele><time>2026-04-28T07:03:30.446Z</time></trkpt><trkpt lat="44.3394243" lon="8.0746362"><ele>663.0</ele><time>2026-04-28T07:03:31.446Z</time></trkpt><trkpt lat="44.3392655" lon="8.0746862"><ele>663.0</ele><time>2026-04-28T07:03:32.445Z</time></trkpt><trkpt lat="44.3391086" lon="8.074796"><ele>663.0</ele><time>2026-04-28T07:03:33.446Z</time></trkpt><trkpt lat="44.3389492" lon="8.0749141"><ele>663.0</ele><time>2026-04-28T07:03:34.447Z</time></trkpt><trkpt lat="44.338783" lon="8.0750105"><ele>665.6666666666666</ele><time>2026-04-28T07:03:35.447Z</time></trkpt><trkpt lat="44.3386126" lon="8.0750796"><ele>668.3333333333333</ele><time>2026-04-28T07:03:36.447Z</time></trkpt><trkpt lat="44.3384408" lon="8.0751127"><ele>671.0</ele><time>2026-04-28T07:03:37.446Z</time></trkpt><trkpt lat="44.3382717" lon="8.0750939"><ele>671.0</ele><time>2026-04-28T07:03:38.446Z</time></trkpt><trkpt lat="44.3381064" lon="8.0750176"><ele>671.0</ele><time>2026-04-28T07:03:39.446Z</time></trkpt><trkpt lat="44.3379448" lon="8.0749241"><ele>671.0</ele><time>2026-04-28T07:03:40.446Z</time></trkpt><trkpt lat="44.3377806" lon="8.0748762"><ele>661.3333333333333</ele><time>2026-04-28T07:03:41.446Z</time></trkpt><trkpt lat="44.3376178" lon="8.0748851"><ele>651.6666666666666</ele><time>2026-04-28T07:03:42.447Z</time></trkpt><trkpt lat="44.3374579" lon="8.0749034"><ele>642.0</ele><time>2026-04-28T07:03:43.447Z</time></trkpt><trkpt lat="44.3373031" lon="8.0748773"><ele>643.25</ele><time>2026-04-28T07:03:44.447Z</time></trkpt><trkpt lat="44.3371618" lon="8.0748099"><ele>644.5</ele><time>2026-04-28T07:03:45.447Z</time></trkpt><trkpt lat="44.3370313" lon="8.0747274"><ele>645.75</ele><time>2026-04-28T07:03:46.447Z</time></trkpt><trkpt lat="44.3369029" lon="8.0746515"><ele>647.0</ele><time>2026-04-28T07:03:47.447Z</time></trkpt><trkpt lat="44.3367853" lon="8.0746116"><ele>647.0</ele><time>2026-04-28T07:03:48.447Z</time></trkpt><trkpt lat="44.3366915" lon="8.0746149"><ele>647.0</ele><time>2026-04-28T07:03:49.447Z</time></trkpt><trkpt lat="44.3366137" lon="8.0746517"><ele>647.0</ele><time>2026-04-28T07:03:50.446Z</time></trkpt><trkpt lat="44.3365466" lon="8.0747199"><ele>647.0</ele><time>2026-04-28T07:03:51.447Z</time></trkpt><trkpt lat="44.3364617" lon="8.0748018"><ele>647.0</ele><time>2026-04-28T07:03:52.445Z</time></trkpt><trkpt lat="44.3363488" lon="8.0748728"><ele>646.6666666666666</ele><time>2026-04-28T07:03:53.446Z</time></trkpt><trkpt lat="44.336219" lon="8.0749358"><ele>646.3333333333334</ele><time>2026-04-28T07:03:54.447Z</time></trkpt><trkpt lat="44.3360666" lon="8.074985"><ele>646.0</ele><time>2026-04-28T07:03:55.447Z</time></trkpt><trkpt lat="44.3358997" lon="8.0750405"><ele>646.0</ele><time>2026-04-28T07:03:56.447Z</time></trkpt><trkpt lat="44.3357365" lon="8.0751131"><ele>646.0</ele><time>2026-04-28T07:03:57.446Z</time></trkpt><trkpt lat="44.3355778" lon="8.0751978"><ele>646.0</ele><time>2026-04-28T07:03:58.446Z</time></trkpt><trkpt lat="44.3354238" lon="8.0752824"><ele>645.5</ele><time>2026-04-28T07:03:59.446Z</time></trkpt><trkpt lat="44.3352801" lon="8.0753606"><ele>645.0</ele><time>2026-04-28T07:04:00.446Z</time></trkpt><trkpt lat="44.335146" lon="8.0754254"><ele>644.5</ele><time>2026-04-28T07:04:01.447Z</time></trkpt><trkpt lat="44.3350188" lon="8.0754543"><ele>644.0</ele><time>2026-04-28T07:04:02.447Z</time></trkpt><trkpt lat="44.3348803" lon="8.0754329"><ele>644.0</ele><time>2026-04-28T07:04:03.447Z</time></trkpt><trkpt lat="44.3347275" lon="8.0753854"><ele>644.0</ele><time>2026-04-28T07:04:04.446Z</time></trkpt><trkpt lat="44.3345584" lon="8.0753636"><ele>644.0</ele><time>2026-04-28T07:04:05.446Z</time></trkpt><trkpt lat="44.3343799" lon="8.0753791"><ele>644.0</ele><time>2026-04-28T07:04:06.446Z</time></trkpt><trkpt lat="44.3341997" lon="8.0754314"><ele>644.0</ele><time>2026-04-28T07:04:07.447Z</time></trkpt><trkpt lat="44.3340268" lon="8.0755322"><ele>644.0</ele><time>2026-04-28T07:04:08.447Z</time></trkpt><trkpt lat="44.3338669" lon="8.0756528"><ele>640.6666666666666</ele><time>2026-04-28T07:04:09.446Z</time></trkpt><trkpt lat="44.333709" lon="8.0757712"><ele>637.3333333333334</ele><time>2026-04-28T07:04:10.445Z</time></trkpt><trkpt lat="44.33354" lon="8.0758741"><ele>634.0</ele><time>2026-04-28T07:04:11.445Z</time></trkpt><trkpt lat="44.3333674" lon="8.0759682"><ele>634.0</ele><time>2026-04-28T07:04:12.446Z</time></trkpt><trkpt lat="44.3332014" lon="8.0760782"><ele>634.0</ele><time>2026-04-28T07:04:13.447Z</time></trkpt><trkpt lat="44.3330424" lon="8.0762055"><ele>634.0</ele><time>2026-04-28T07:04:14.447Z</time></trkpt><trkpt lat="44.3328921" lon="8.0763464"><ele>635.3333333333334</ele><time>2026-04-28T07:04:15.446Z</time></trkpt><trkpt lat="44.3327465" lon="8.0765002"><ele>636.6666666666666</ele><time>2026-04-28T07:04:16.447Z</time></trkpt><trkpt lat="44.3326025" lon="8.0766488"><ele>638.0</ele><time>2026-04-28T07:04:17.447Z</time></trkpt><trkpt lat="44.3324564" lon="8.0767842"><ele>635.0</ele><time>2026-04-28T07:04:18.447Z</time></trkpt><trkpt lat="44.332311" lon="8.076927"><ele>632.0</ele><time>2026-04-28T07:04:19.446Z</time></trkpt><trkpt lat="44.3321693" lon="8.0770928"><ele>629.0</ele><time>2026-04-28T07:04:20.446Z</time></trkpt><trkpt lat="44.332033" lon="8.0772746"><ele>625.0</ele><time>2026-04-28T07:04:21.446Z</time></trkpt><trkpt lat="44.3318998" lon="8.0774712"><ele>621.0</ele><time>2026-04-28T07:04:22.446Z</time></trkpt><trkpt lat="44.3317725" lon="8.0776759"><ele>617.0</ele><time>2026-04-28T07:04:23.445Z</time></trkpt><trkpt lat="44.3316478" lon="8.0778847"><ele>617.0</ele><time>2026-04-28T07:04:24.446Z</time></trkpt><trkpt lat="44.3315194" lon="8.0780926"><ele>617.0</ele><time>2026-04-28T07:04:25.446Z</time></trkpt><trkpt lat="44.331384" lon="8.0782986"><ele>617.0</ele><time>2026-04-28T07:04:26.447Z</time></trkpt><trkpt lat="44.3312465" lon="8.0785073"><ele>614.3333333333333</ele><time>2026-04-28T07:04:27.447Z</time></trkpt><trkpt lat="44.3311091" lon="8.078713"><ele>611.6666666666666</ele><time>2026-04-28T07:04:28.446Z</time></trkpt><trkpt lat="44.3309691" lon="8.0789089"><ele>609.0</ele><time>2026-04-28T07:04:29.446Z</time></trkpt><trkpt lat="44.3308176" lon="8.0790899"><ele>610.3333333333334</ele><time>2026-04-28T07:04:30.445Z</time></trkpt><trkpt lat="44.3306545" lon="8.0792465"><ele>611.6666666666667</ele><time>2026-04-28T07:04:31.446Z</time></trkpt><trkpt lat="44.3304844" lon="8.0793821"><ele>613.0</ele><time>2026-04-28T07:04:32.446Z</time></trkpt><trkpt lat="44.3303176" lon="8.0795155"><ele>613.6666666666667</ele><time>2026-04-28T07:04:33.445Z</time></trkpt><trkpt lat="44.3301583" lon="8.0796468"><ele>614.3333333333334</ele><time>2026-04-28T07:04:34.446Z</time></trkpt><trkpt lat="44.3300068" lon="8.0797723"><ele>615.0</ele><time>2026-04-28T07:04:35.446Z</time></trkpt><trkpt lat="44.3298704" lon="8.0798911"><ele>615.8</ele><time>2026-04-28T07:04:36.445Z</time></trkpt><trkpt lat="44.3297606" lon="8.0799961"><ele>616.6</ele><time>2026-04-28T07:04:37.447Z</time></trkpt><trkpt lat="44.3296914" lon="8.080067"><ele>617.4</ele><time>2026-04-28T07:04:38.447Z</time></trkpt><trkpt lat="44.3296053" lon="8.0801114"><ele>618.2</ele><time>2026-04-28T07:04:40.447Z</time></trkpt><trkpt lat="44.3295013" lon="8.0801733"><ele>619.0</ele><time>2026-04-28T07:04:42.447Z</time></trkpt><trkpt lat="44.3294401" lon="8.0802027"><ele>619.0</ele><time>2026-04-28T07:04:43.447Z</time></trkpt><trkpt lat="44.3293766" lon="8.0802085"><ele>619.0</ele><time>2026-04-28T07:04:44.447Z</time></trkpt><trkpt lat="44.3293134" lon="8.0801851"><ele>619.0</ele><time>2026-04-28T07:04:45.446Z</time></trkpt><trkpt lat="44.3291943" lon="8.0801562"><ele>619.0</ele><time>2026-04-28T07:04:47.447Z</time></trkpt><trkpt lat="44.3290994" lon="8.0802092"><ele>619.0</ele><time>2026-04-28T07:04:49.447Z</time></trkpt><trkpt lat="44.3290446" lon="8.080256"><ele>619.0</ele><time>2026-04-28T07:04:53.445Z</time></trkpt><trkpt lat="44.3290395" lon="8.0803999"><ele>619.0</ele><time>2026-04-28T07:04:55.446Z</time></trkpt><trkpt lat="44.3289688" lon="8.0805143"><ele>619.0</ele><time>2026-04-28T07:04:57.445Z</time></trkpt><trkpt lat="44.3289106" lon="8.0805593"><ele>619.0</ele><time>2026-04-28T07:04:58.447Z</time></trkpt><trkpt lat="44.3288545" lon="8.0806085"><ele>619.0</ele><time>2026-04-28T07:04:59.447Z</time></trkpt><trkpt lat="44.3288011" lon="8.0806691"><ele>619.0</ele><time>2026-04-28T07:05:00.447Z</time></trkpt><trkpt lat="44.3287421" lon="8.0807271"><ele>619.0</ele><time>2026-04-28T07:05:01.447Z</time></trkpt><trkpt lat="44.328677" lon="8.080787"><ele>620.6</ele><time>2026-04-28T07:05:02.447Z</time></trkpt><trkpt lat="44.3286101" lon="8.0808466"><ele>622.2</ele><time>2026-04-28T07:05:03.446Z</time></trkpt><trkpt lat="44.3285282" lon="8.0808996"><ele>623.8000000000001</ele><time>2026-04-28T07:05:04.447Z</time></trkpt><trkpt lat="44.3284386" lon="8.0809499"><ele>625.4</ele><time>2026-04-28T07:05:05.446Z</time></trkpt><trkpt lat="44.3283443" lon="8.0809981"><ele>627.0</ele><time>2026-04-28T07:05:06.446Z</time></trkpt><trkpt lat="44.3282523" lon="8.0810471"><ele>627.0</ele><time>2026-04-28T07:05:07.447Z</time></trkpt><trkpt lat="44.3281576" lon="8.0810797"><ele>627.0</ele><time>2026-04-28T07:05:08.446Z</time></trkpt><trkpt lat="44.3280743" lon="8.0811162"><ele>627.0</ele><time>2026-04-28T07:05:09.446Z</time></trkpt><trkpt lat="44.3279914" lon="8.0811498"><ele>627.0</ele><time>2026-04-28T07:05:10.446Z</time></trkpt><trkpt lat="44.3279247" lon="8.0811915"><ele>627.0</ele><time>2026-04-28T07:05:11.447Z</time></trkpt><trkpt lat="44.327851" lon="8.0812454"><ele>627.0</ele><time>2026-04-28T07:05:12.446Z</time></trkpt><trkpt lat="44.3277795" lon="8.0813031"><ele>627.25</ele><time>2026-04-28T07:05:13.447Z</time></trkpt><trkpt lat="44.3277058" lon="8.081394"><ele>627.5</ele><time>2026-04-28T07:05:14.446Z</time></trkpt><trkpt lat="44.3276261" lon="8.0815168"><ele>627.75</ele><time>2026-04-28T07:05:15.447Z</time></trkpt><trkpt lat="44.3275296" lon="8.08164"><ele>628.0</ele><time>2026-04-28T07:05:16.447Z</time></trkpt><trkpt lat="44.3274402" lon="8.0817691"><ele>628.0</ele><time>2026-04-28T07:05:17.447Z</time></trkpt><trkpt lat="44.327342" lon="8.0819043"><ele>628.0</ele><time>2026-04-28T07:05:18.447Z</time></trkpt><trkpt lat="44.3272472" lon="8.082044"><ele>628.0</ele><time>2026-04-28T07:05:19.446Z</time></trkpt><trkpt lat="44.3271522" lon="8.0821909"><ele>628.0</ele><time>2026-04-28T07:05:20.447Z</time></trkpt><trkpt lat="44.327071" lon="8.0823406"><ele>627.75</ele><time>2026-04-28T07:05:21.447Z</time></trkpt><trkpt lat="44.3269841" lon="8.082475"><ele>627.5</ele><time>2026-04-28T07:05:22.446Z</time></trkpt><trkpt lat="44.3268969" lon="8.0825891"><ele>627.25</ele><time>2026-04-28T07:05:23.447Z</time></trkpt><trkpt lat="44.3268122" lon="8.0826688"><ele>627.0</ele><time>2026-04-28T07:05:24.445Z</time></trkpt><trkpt lat="44.3267151" lon="8.0827103"><ele>627.0</ele><time>2026-04-28T07:05:25.445Z</time></trkpt><trkpt lat="44.3266146" lon="8.0827646"><ele>627.0</ele><time>2026-04-28T07:05:26.446Z</time></trkpt><trkpt lat="44.3265065" lon="8.0828441"><ele>627.0</ele><time>2026-04-28T07:05:27.446Z</time></trkpt><trkpt lat="44.3264008" lon="8.0829451"><ele>627.0</ele><time>2026-04-28T07:05:28.446Z</time></trkpt><trkpt lat="44.3262944" lon="8.0830444"><ele>626.75</ele><time>2026-04-28T07:05:29.447Z</time></trkpt><trkpt lat="44.3261821" lon="8.0831223"><ele>626.5</ele><time>2026-04-28T07:05:30.446Z</time></trkpt><trkpt lat="44.3260584" lon="8.0831824"><ele>626.25</ele><time>2026-04-28T07:05:31.446Z</time></trkpt><trkpt lat="44.3259225" lon="8.0832247"><ele>626.0</ele><time>2026-04-28T07:05:32.447Z</time></trkpt><trkpt lat="44.3257799" lon="8.0832711"><ele>626.0</ele><time>2026-04-28T07:05:33.447Z</time></trkpt><trkpt lat="44.3256483" lon="8.0833363"><ele>626.0</ele><time>2026-04-28T07:05:34.447Z</time></trkpt><trkpt lat="44.3255187" lon="8.0834169"><ele>626.0</ele><time>2026-04-28T07:05:35.447Z</time></trkpt><trkpt lat="44.3253913" lon="8.083505"><ele>626.0</ele><time>2026-04-28T07:05:36.446Z</time></trkpt><trkpt lat="44.3252661" lon="8.0835849"><ele>626.0</ele><time>2026-04-28T07:05:37.447Z</time></trkpt><trkpt lat="44.3251487" lon="8.0836554"><ele>626.0</ele><time>2026-04-28T07:05:38.445Z</time></trkpt><trkpt lat="44.3250308" lon="8.0837392"><ele>626.0</ele><time>2026-04-28T07:05:39.447Z</time></trkpt><trkpt lat="44.3249116" lon="8.0838498"><ele>626.0</ele><time>2026-04-28T07:05:40.447Z</time></trkpt><trkpt lat="44.3247951" lon="8.0839759"><ele>627.75</ele><time>2026-04-28T07:05:41.447Z</time></trkpt><trkpt lat="44.3246813" lon="8.0840967"><ele>629.5</ele><time>2026-04-28T07:05:42.446Z</time></trkpt><trkpt lat="44.3245629" lon="8.0842221"><ele>631.25</ele><time>2026-04-28T07:05:43.447Z</time></trkpt><trkpt lat="44.3244429" lon="8.0843482"><ele>633.0</ele><time>2026-04-28T07:05:44.447Z</time></trkpt><trkpt lat="44.3243203" lon="8.0844658"><ele>633.0</ele><time>2026-04-28T07:05:45.447Z</time></trkpt><trkpt lat="44.3241897" lon="8.0845572"><ele>633.0</ele><time>2026-04-28T07:05:46.447Z</time></trkpt><trkpt lat="44.3240588" lon="8.0846136"><ele>633.0</ele><time>2026-04-28T07:05:47.447Z</time></trkpt><trkpt lat="44.3239393" lon="8.0846795"><ele>633.0</ele><time>2026-04-28T07:05:48.447Z</time></trkpt><trkpt lat="44.323825" lon="8.0847665"><ele>633.0</ele><time>2026-04-28T07:05:49.447Z</time></trkpt><trkpt lat="44.3237282" lon="8.0848934"><ele>633.0</ele><time>2026-04-28T07:05:50.447Z</time></trkpt><trkpt lat="44.3236484" lon="8.0850435"><ele>633.0</ele><time>2026-04-28T07:05:51.446Z</time></trkpt><trkpt lat="44.3235686" lon="8.0851808"><ele>633.0</ele><time>2026-04-28T07:05:52.446Z</time></trkpt><trkpt lat="44.3235061" lon="8.0853171"><ele>633.0</ele><time>2026-04-28T07:05:53.447Z</time></trkpt><trkpt lat="44.3234463" lon="8.0854526"><ele>633.0</ele><time>2026-04-28T07:05:54.447Z</time></trkpt><trkpt lat="44.3233708" lon="8.0855842"><ele>633.0</ele><time>2026-04-28T07:05:55.447Z</time></trkpt><trkpt lat="44.3232837" lon="8.0857046"><ele>633.0</ele><time>2026-04-28T07:05:56.446Z</time></trkpt><trkpt lat="44.3231947" lon="8.085823"><ele>634.4</ele><time>2026-04-28T07:05:57.447Z</time></trkpt><trkpt lat="44.3231156" lon="8.0859295"><ele>635.8</ele><time>2026-04-28T07:05:58.447Z</time></trkpt><trkpt lat="44.3230378" lon="8.0860275"><ele>637.2</ele><time>2026-04-28T07:05:59.447Z</time></trkpt><trkpt lat="44.3229685" lon="8.0861323"><ele>638.6</ele><time>2026-04-28T07:06:00.447Z</time></trkpt><trkpt lat="44.3229105" lon="8.08625"><ele>640.0</ele><time>2026-04-28T07:06:01.446Z</time></trkpt><trkpt lat="44.3228589" lon="8.0863673"><ele>640.0</ele><time>2026-04-28T07:06:02.446Z</time></trkpt><trkpt lat="44.3227989" lon="8.0864603"><ele>640.0</ele><time>2026-04-28T07:06:03.446Z</time></trkpt><trkpt lat="44.3227272" lon="8.08652"><ele>640.0</ele><time>2026-04-28T07:06:04.447Z</time></trkpt><trkpt lat="44.3226489" lon="8.0865551"><ele>640.0</ele><time>2026-04-28T07:06:05.447Z</time></trkpt><trkpt lat="44.3225602" lon="8.0865842"><ele>640.0</ele><time>2026-04-28T07:06:06.447Z</time></trkpt><trkpt lat="44.3224664" lon="8.0866235"><ele>640.0</ele><time>2026-04-28T07:06:07.446Z</time></trkpt><trkpt lat="44.3223935" lon="8.0866947"><ele>640.2</ele><time>2026-04-28T07:06:08.446Z</time></trkpt><trkpt lat="44.3223499" lon="8.0868036"><ele>640.4</ele><time>2026-04-28T07:06:09.446Z</time></trkpt><trkpt lat="44.3223001" lon="8.086927"><ele>640.5999999999999</ele><time>2026-04-28T07:06:10.447Z</time></trkpt><trkpt lat="44.3222775" lon="8.0870803"><ele>640.8</ele><time>2026-04-28T07:06:11.447Z</time></trkpt><trkpt lat="44.3222602" lon="8.0872561"><ele>641.0</ele><time>2026-04-28T07:06:12.446Z</time></trkpt><trkpt lat="44.3222204" lon="8.0874275"><ele>644.1666666666666</ele><time>2026-04-28T07:06:13.447Z</time></trkpt><trkpt lat="44.3221785" lon="8.0875871"><ele>647.3333333333333</ele><time>2026-04-28T07:06:14.445Z</time></trkpt><trkpt lat="44.3221498" lon="8.0877146"><ele>650.5</ele><time>2026-04-28T07:06:15.446Z</time></trkpt><trkpt lat="44.3221274" lon="8.0878016"><ele>653.6666666666666</ele><time>2026-04-28T07:06:16.446Z</time></trkpt><trkpt lat="44.3221262" lon="8.0879"><ele>656.8333333333334</ele><time>2026-04-28T07:06:19.447Z</time></trkpt><trkpt lat="44.3221351" lon="8.0880092"><ele>660.0</ele><time>2026-04-28T07:06:21.447Z</time></trkpt><trkpt lat="44.3221059" lon="8.0881666"><ele>659.0</ele><time>2026-04-28T07:06:23.447Z</time></trkpt><trkpt lat="44.32204" lon="8.0882979"><ele>658.0</ele><time>2026-04-28T07:06:25.447Z</time></trkpt><trkpt lat="44.3219709" lon="8.0883786"><ele>657.0</ele><time>2026-04-28T07:06:27.447Z</time></trkpt><trkpt lat="44.3219348" lon="8.0884728"><ele>656.0</ele><time>2026-04-28T07:06:31.447Z</time></trkpt><trkpt lat="44.3218996" lon="8.088549"><ele>655.0</ele><time>2026-04-28T07:06:34.447Z</time></trkpt><trkpt lat="44.3218684" lon="8.08864"><ele>654.0</ele><time>2026-04-28T07:06:36.447Z</time></trkpt><trkpt lat="44.3218421" lon="8.0887584"><ele>654.0</ele><time>2026-04-28T07:06:38.446Z</time></trkpt><trkpt lat="44.3218527" lon="8.0889399"><ele>654.0</ele><time>2026-04-28T07:06:40.447Z</time></trkpt><trkpt lat="44.3218635" lon="8.0890488"><ele>654.0</ele><time>2026-04-28T07:06:41.446Z</time></trkpt><trkpt lat="44.3218732" lon="8.0891562"><ele>654.0</ele><time>2026-04-28T07:06:42.446Z</time></trkpt><trkpt lat="44.3218804" lon="8.0892639"><ele>654.0</ele><time>2026-04-28T07:06:43.446Z</time></trkpt><trkpt lat="44.3218903" lon="8.0893701"><ele>654.0</ele><time>2026-04-28T07:06:44.446Z</time></trkpt><trkpt lat="44.3219002" lon="8.0894651"><ele>654.1666666666666</ele><time>2026-04-28T07:06:45.445Z</time></trkpt><trkpt lat="44.3219135" lon="8.0896374"><ele>654.3333333333334</ele><time>2026-04-28T07:06:47.447Z</time></trkpt><trkpt lat="44.3219177" lon="8.0897279"><ele>654.5</ele><time>2026-04-28T07:06:48.447Z</time></trkpt><trkpt lat="44.3219146" lon="8.0898222"><ele>654.6666666666667</ele><time>2026-04-28T07:06:49.446Z</time></trkpt><trkpt lat="44.3218919" lon="8.0899057"><ele>654.8333333333334</ele><time>2026-04-28T07:06:50.446Z</time></trkpt><trkpt lat="44.3218584" lon="8.0899825"><ele>655.0</ele><time>2026-04-28T07:06:51.447Z</time></trkpt><trkpt lat="44.3218118" lon="8.0901174"><ele>655.0</ele><time>2026-04-28T07:06:53.446Z</time></trkpt><trkpt lat="44.3218461" lon="8.0902435"><ele>655.0</ele><time>2026-04-28T07:06:57.446Z</time></trkpt><trkpt lat="44.3218617" lon="8.0903786"><ele>655.0</ele><time>2026-04-28T07:06:59.447Z</time></trkpt><trkpt lat="44.321872" lon="8.0905572"><ele>655.0</ele><time>2026-04-28T07:07:01.447Z</time></trkpt><trkpt lat="44.321877" lon="8.0906884"><ele>655.0</ele><time>2026-04-28T07:07:02.446Z</time></trkpt><trkpt lat="44.3218676" lon="8.0908253"><ele>657.5</ele><time>2026-04-28T07:07:03.447Z</time></trkpt><trkpt lat="44.3218628" lon="8.0909529"><ele>660.0</ele><time>2026-04-28T07:07:04.446Z</time></trkpt><trkpt lat="44.321872" lon="8.0910675"><ele>662.5</ele><time>2026-04-28T07:07:06.447Z</time></trkpt><trkpt lat="44.3219072" lon="8.0912211"><ele>665.0</ele><time>2026-04-28T07:07:08.446Z</time></trkpt><trkpt lat="44.321917" lon="8.0913393"><ele>667.5</ele><time>2026-04-28T07:07:10.447Z</time></trkpt><trkpt lat="44.3219536" lon="8.0914252"><ele>670.0</ele><time>2026-04-28T07:07:12.447Z</time></trkpt><trkpt lat="44.3220101" lon="8.0915007"><ele>670.0</ele><time>2026-04-28T07:07:14.447Z</time></trkpt><trkpt lat="44.3220793" lon="8.0915832"><ele>670.0</ele><time>2026-04-28T07:07:16.447Z</time></trkpt><trkpt lat="44.3221288" lon="8.0916764"><ele>670.0</ele><time>2026-04-28T07:07:18.447Z</time></trkpt><trkpt lat="44.3221617" lon="8.0917659"><ele>670.0</ele><time>2026-04-28T07:07:19.446Z</time></trkpt><trkpt lat="44.3222043" lon="8.0918542"><ele>670.0</ele><time>2026-04-28T07:07:21.446Z</time></trkpt><trkpt lat="44.3222364" lon="8.0919639"><ele>670.0</ele><time>2026-04-28T07:07:24.448Z</time></trkpt><trkpt lat="44.322246" lon="8.0920655"><ele>671.1666666666667</ele><time>2026-04-28T07:07:27.448Z</time></trkpt><trkpt lat="44.3222583" lon="8.0921926"><ele>672.3333333333334</ele><time>2026-04-28T07:07:30.448Z</time></trkpt><trkpt lat="44.3222734" lon="8.0922789"><ele>673.5</ele><time>2026-04-28T07:07:31.447Z</time></trkpt><trkpt lat="44.3222792" lon="8.0923756"><ele>674.6666666666666</ele><time>2026-04-28T07:07:32.447Z</time></trkpt><trkpt lat="44.3222482" lon="8.0925107"><ele>675.8333333333333</ele><time>2026-04-28T07:07:34.448Z</time></trkpt><trkpt lat="44.3221735" lon="8.0925714"><ele>677.0</ele><time>2026-04-28T07:07:36.448Z</time></trkpt><trkpt lat="44.3221121" lon="8.092536"><ele>680.8</ele><time>2026-04-28T07:07:39.447Z</time></trkpt><trkpt lat="44.3220364" lon="8.0924625"><ele>684.6</ele><time>2026-04-28T07:07:42.448Z</time></trkpt><trkpt lat="44.3219762" lon="8.0923723"><ele>688.4</ele><time>2026-04-28T07:07:45.448Z</time></trkpt><trkpt lat="44.3219138" lon="8.0923423"><ele>692.1999999999999</ele><time>2026-04-28T07:07:47.456Z</time></trkpt><trkpt lat="44.3218307" lon="8.0923022"><ele>696.0</ele><time>2026-04-28T07:07:49.447Z</time></trkpt><trkpt lat="44.3217064" lon="8.0922436"><ele>696.0</ele><time>2026-04-28T07:07:51.447Z</time></trkpt><trkpt lat="44.3215894" lon="8.0922075"><ele>696.0</ele><time>2026-04-28T07:07:53.448Z</time></trkpt><trkpt lat="44.3214981" lon="8.0922392"><ele>696.0</ele><time>2026-04-28T07:07:55.448Z</time></trkpt><trkpt lat="44.3214218" lon="8.0923107"><ele>696.0</ele><time>2026-04-28T07:07:57.447Z</time></trkpt><trkpt lat="44.321355" lon="8.0924088"><ele>696.0</ele><time>2026-04-28T07:07:59.447Z</time></trkpt><trkpt lat="44.3212916" lon="8.0925344"><ele>700.0</ele><time>2026-04-28T07:08:01.448Z</time></trkpt><trkpt lat="44.3212383" lon="8.0926817"><ele>704.0</ele><time>2026-04-28T07:08:03.448Z</time></trkpt><trkpt lat="44.3212151" lon="8.0928095"><ele>708.0</ele><time>2026-04-28T07:08:05.448Z</time></trkpt><trkpt lat="44.3211846" lon="8.0929452"><ele>712.0</ele><time>2026-04-28T07:08:07.446Z</time></trkpt><trkpt lat="44.3211517" lon="8.0931194"><ele>716.0</ele><time>2026-04-28T07:08:09.448Z</time></trkpt><trkpt lat="44.3211314" lon="8.0932088"><ele>719.1999999999999</ele><time>2026-04-28T07:08:10.447Z</time></trkpt><trkpt lat="44.3211115" lon="8.0932941"><ele>722.4</ele><time>2026-04-28T07:08:11.448Z</time></trkpt><trkpt lat="44.3210633" lon="8.0934519"><ele>725.6</ele><time>2026-04-28T07:08:13.447Z</time></trkpt><trkpt lat="44.320996" lon="8.093593"><ele>728.8</ele><time>2026-04-28T07:08:15.448Z</time></trkpt><trkpt lat="44.320911" lon="8.0937114"><ele>732.0</ele><time>2026-04-28T07:08:17.448Z</time></trkpt><trkpt lat="44.3208126" lon="8.0938086"><ele>732.0</ele><time>2026-04-28T07:08:19.447Z</time></trkpt><trkpt lat="44.3207189" lon="8.0938777"><ele>732.0</ele><time>2026-04-28T07:08:21.448Z</time></trkpt><trkpt lat="44.3206052" lon="8.0939757"><ele>732.0</ele><time>2026-04-28T07:08:23.447Z</time></trkpt><trkpt lat="44.320543" lon="8.0940237"><ele>732.0</ele><time>2026-04-28T07:08:24.448Z</time></trkpt><trkpt lat="44.3204872" lon="8.0940692"><ele>732.0</ele><time>2026-04-28T07:08:25.448Z</time></trkpt><trkpt lat="44.3203874" lon="8.0941622"><ele>734.1428571428571</ele><time>2026-04-28T07:08:27.447Z</time></trkpt><trkpt lat="44.3203376" lon="8.0942205"><ele>736.2857142857143</ele><time>2026-04-28T07:08:28.448Z</time></trkpt><trkpt lat="44.3202947" lon="8.0942898"><ele>738.4285714285713</ele><time>2026-04-28T07:08:29.448Z</time></trkpt><trkpt lat="44.3202455" lon="8.0943595"><ele>740.5714285714286</ele><time>2026-04-28T07:08:30.446Z</time></trkpt><trkpt lat="44.3201976" lon="8.0944263"><ele>742.7142857142857</ele><time>2026-04-28T07:08:31.448Z</time></trkpt><trkpt lat="44.3201435" lon="8.0944993"><ele>744.8571428571428</ele><time>2026-04-28T07:08:33.448Z</time></trkpt><trkpt lat="44.3200592" lon="8.0945231"><ele>747.0</ele><time>2026-04-28T07:08:35.447Z</time></trkpt><trkpt lat="44.3199536" lon="8.0945117"><ele>747.0</ele><time>2026-04-28T07:08:37.448Z</time></trkpt><trkpt lat="44.3198913" lon="8.0944778"><ele>747.0</ele><time>2026-04-28T07:08:38.448Z</time></trkpt><trkpt lat="44.3197858" lon="8.0944302"><ele>747.0</ele><time>2026-04-28T07:08:40.447Z</time></trkpt><trkpt lat="44.3196748" lon="8.0944017"><ele>747.0</ele><time>2026-04-28T07:08:42.447Z</time></trkpt><trkpt lat="44.319604" lon="8.094394"><ele>747.0</ele><time>2026-04-28T07:08:43.447Z</time></trkpt><trkpt lat="44.3195331" lon="8.094397"><ele>747.0</ele><time>2026-04-28T07:08:44.447Z</time></trkpt><trkpt lat="44.3194166" lon="8.0944495"><ele>749.3333333333334</ele><time>2026-04-28T07:08:46.448Z</time></trkpt><trkpt lat="44.3193544" lon="8.0944662"><ele>751.6666666666666</ele><time>2026-04-28T07:08:47.447Z</time></trkpt><trkpt lat="44.3192514" lon="8.0945274"><ele>754.0</ele><time>2026-04-28T07:08:49.447Z</time></trkpt><trkpt lat="44.3191491" lon="8.0946245"><ele>756.3333333333333</ele><time>2026-04-28T07:08:51.447Z</time></trkpt><trkpt lat="44.3190985" lon="8.0946786"><ele>758.6666666666666</ele><time>2026-04-28T07:08:52.448Z</time></trkpt><trkpt lat="44.3190484" lon="8.094733"><ele>761.0</ele><time>2026-04-28T07:08:53.448Z</time></trkpt><trkpt lat="44.3189849" lon="8.0948541"><ele>762.1999999999999</ele><time>2026-04-28T07:08:55.447Z</time></trkpt><trkpt lat="44.3189314" lon="8.0950058"><ele>763.4</ele><time>2026-04-28T07:08:57.448Z</time></trkpt><trkpt lat="44.3188952" lon="8.0951564"><ele>764.6</ele><time>2026-04-28T07:08:59.448Z</time></trkpt><trkpt lat="44.3188745" lon="8.0952428"><ele>765.8</ele><time>2026-04-28T07:09:00.447Z</time></trkpt><trkpt lat="44.3188553" lon="8.0953281"><ele>767.0</ele><time>2026-04-28T07:09:01.448Z</time></trkpt><trkpt lat="44.3188222" lon="8.0954586"><ele>767.0</ele><time>2026-04-28T07:09:03.447Z</time></trkpt><trkpt lat="44.3188106" lon="8.0956282"><ele>767.0</ele><time>2026-04-28T07:09:05.448Z</time></trkpt><trkpt lat="44.3188022" lon="8.095719"><ele>767.0</ele><time>2026-04-28T07:09:06.448Z</time></trkpt><trkpt lat="44.3187841" lon="8.0958298"><ele>767.0</ele><time>2026-04-28T07:09:08.447Z</time></trkpt><trkpt lat="44.318763" lon="8.0959672"><ele>767.0</ele><time>2026-04-28T07:09:10.447Z</time></trkpt><trkpt lat="44.3187676" lon="8.0960735"><ele>767.0</ele><time>2026-04-28T07:09:11.447Z</time></trkpt><trkpt lat="44.3187648" lon="8.0961828"><ele>767.5</ele><time>2026-04-28T07:09:12.447Z</time></trkpt><trkpt lat="44.3187549" lon="8.0962992"><ele>768.0</ele><time>2026-04-28T07:09:13.448Z</time></trkpt><trkpt lat="44.3187309" lon="8.0964173"><ele>768.5</ele><time>2026-04-28T07:09:14.446Z</time></trkpt><trkpt lat="44.3187039" lon="8.0965287"><ele>769.0</ele><time>2026-04-28T07:09:15.447Z</time></trkpt><trkpt lat="44.3186775" lon="8.0966409"><ele>769.5000000000001</ele><time>2026-04-28T07:09:16.446Z</time></trkpt><trkpt lat="44.3186671" lon="8.0967618"><ele>770.0</ele><time>2026-04-28T07:09:17.447Z</time></trkpt><trkpt lat="44.3186746" lon="8.0968977"><ele>771.0</ele><time>2026-04-28T07:09:18.448Z</time></trkpt><trkpt lat="44.3186849" lon="8.0970491"><ele>772.0</ele><time>2026-04-28T07:09:19.448Z</time></trkpt><trkpt lat="44.3186993" lon="8.0971989"><ele>773.0</ele><time>2026-04-28T07:09:20.448Z</time></trkpt><trkpt lat="44.3187216" lon="8.0973429"><ele>774.0</ele><time>2026-04-28T07:09:21.446Z</time></trkpt><trkpt lat="44.3187304" lon="8.097485"><ele>775.0</ele><time>2026-04-28T07:09:22.447Z</time></trkpt><trkpt lat="44.3187192" lon="8.0976062"><ele>775.8</ele><time>2026-04-28T07:09:23.448Z</time></trkpt><trkpt lat="44.3187012" lon="8.0977301"><ele>776.6</ele><time>2026-04-28T07:09:24.448Z</time></trkpt><trkpt lat="44.3186907" lon="8.0978621"><ele>777.4000000000001</ele><time>2026-04-28T07:09:25.448Z</time></trkpt><trkpt lat="44.3186899" lon="8.0979927"><ele>778.2</ele><time>2026-04-28T07:09:26.447Z</time></trkpt><trkpt lat="44.3186988" lon="8.098118"><ele>779.0</ele><time>2026-04-28T07:09:27.447Z</time></trkpt><trkpt lat="44.3187098" lon="8.098237"><ele>779.6666666666667</ele><time>2026-04-28T07:09:28.447Z</time></trkpt><trkpt lat="44.3187116" lon="8.0983385"><ele>780.3333333333334</ele><time>2026-04-28T07:09:29.447Z</time></trkpt><trkpt lat="44.3187067" lon="8.0984495"><ele>781.0</ele><time>2026-04-28T07:09:31.447Z</time></trkpt><trkpt lat="44.318693" lon="8.0985451"><ele>781.6666666666667</ele><time>2026-04-28T07:09:34.448Z</time></trkpt><trkpt lat="44.3186892" lon="8.0986505"><ele>782.3333333333334</ele><time>2026-04-28T07:09:37.447Z</time></trkpt><trkpt lat="44.3186839" lon="8.098757"><ele>783.0</ele><time>2026-04-28T07:09:39.447Z</time></trkpt><trkpt lat="44.3186714" lon="8.0988636"><ele>783.0</ele><time>2026-04-28T07:09:41.447Z</time></trkpt><trkpt lat="44.3186426" lon="8.098989"><ele>783.0</ele><time>2026-04-28T07:09:43.448Z</time></trkpt><trkpt lat="44.3186175" lon="8.0991379"><ele>783.0</ele><time>2026-04-28T07:09:45.448Z</time></trkpt><trkpt lat="44.3185988" lon="8.0992288"><ele>783.0</ele><time>2026-04-28T07:09:46.448Z</time></trkpt><trkpt lat="44.3185811" lon="8.0993209"><ele>783.0</ele><time>2026-04-28T07:09:47.448Z</time></trkpt><trkpt lat="44.3185722" lon="8.0994162"><ele>783.0</ele><time>2026-04-28T07:09:48.448Z</time></trkpt><trkpt lat="44.3185684" lon="8.0995178"><ele>783.8333333333334</ele><time>2026-04-28T07:09:49.446Z</time></trkpt><trkpt lat="44.3185765" lon="8.0996176"><ele>784.6666666666667</ele><time>2026-04-28T07:09:50.448Z</time></trkpt><trkpt lat="44.3185889" lon="8.0997216"><ele>785.5</ele><time>2026-04-28T07:09:51.448Z</time></trkpt><trkpt lat="44.3185794" lon="8.0998319"><ele>786.3333333333334</ele><time>2026-04-28T07:09:52.448Z</time></trkpt><trkpt lat="44.3185551" lon="8.0999448"><ele>787.1666666666667</ele><time>2026-04-28T07:09:53.447Z</time></trkpt><trkpt lat="44.3185203" lon="8.1000375"><ele>788.0</ele><time>2026-04-28T07:09:54.448Z</time></trkpt><trkpt lat="44.3184401" lon="8.100161"><ele>789.0000000000001</ele><time>2026-04-28T07:09:56.447Z</time></trkpt><trkpt lat="44.3183804" lon="8.1002729"><ele>790.0</ele><time>2026-04-28T07:09:58.447Z</time></trkpt><trkpt lat="44.3183475" lon="8.1003551"><ele>791.0</ele><time>2026-04-28T07:10:00.448Z</time></trkpt><trkpt lat="44.3183159" lon="8.1004614"><ele>792.0</ele><time>2026-04-28T07:10:02.447Z</time></trkpt><trkpt lat="44.3182987" lon="8.1005659"><ele>793.0000000000001</ele><time>2026-04-28T07:10:04.448Z</time></trkpt><trkpt lat="44.318302" lon="8.1006714"><ele>794.0</ele><time>2026-04-28T07:10:07.448Z</time></trkpt><trkpt lat="44.3182964" lon="8.100768"><ele>795.8333333333334</ele><time>2026-04-28T07:10:08.448Z</time></trkpt><trkpt lat="44.3182865" lon="8.1008654"><ele>797.6666666666667</ele><time>2026-04-28T07:10:09.447Z</time></trkpt><trkpt lat="44.3182721" lon="8.1009632"><ele>799.5</ele><time>2026-04-28T07:10:10.447Z</time></trkpt><trkpt lat="44.3182533" lon="8.1010575"><ele>801.3333333333333</ele><time>2026-04-28T07:10:11.448Z</time></trkpt><trkpt lat="44.318229" lon="8.1011408"><ele>803.1666666666666</ele><time>2026-04-28T07:10:12.448Z</time></trkpt><trkpt lat="44.3182046" lon="8.1013118"><ele>805.0</ele><time>2026-04-28T07:10:14.447Z</time></trkpt><trkpt lat="44.318201" lon="8.1014197"><ele>804.9999999999999</ele><time>2026-04-28T07:10:15.448Z</time></trkpt><trkpt lat="44.3181906" lon="8.1015244"><ele>805.0</ele><time>2026-04-28T07:10:16.448Z</time></trkpt><trkpt lat="44.318167" lon="8.101614"><ele>805.0</ele><time>2026-04-28T07:10:17.448Z</time></trkpt><trkpt lat="44.3180726" lon="8.1017157"><ele>805.0</ele><time>2026-04-28T07:10:19.447Z</time></trkpt><trkpt lat="44.3180003" lon="8.1017436"><ele>804.9999999999999</ele><time>2026-04-28T07:10:20.448Z</time></trkpt><trkpt lat="44.3179171" lon="8.1017885"><ele>805.0</ele><time>2026-04-28T07:10:21.448Z</time></trkpt><trkpt lat="44.3178359" lon="8.10186"><ele>803.6</ele><time>2026-04-28T07:10:22.448Z</time></trkpt><trkpt lat="44.3177794" lon="8.1019375"><ele>802.2</ele><time>2026-04-28T07:10:23.448Z</time></trkpt><trkpt lat="44.3177376" lon="8.1020119"><ele>800.8</ele><time>2026-04-28T07:10:24.448Z</time></trkpt><trkpt lat="44.317673" lon="8.102148"><ele>799.4</ele><time>2026-04-28T07:10:26.448Z</time></trkpt><trkpt lat="44.317585" lon="8.1021834"><ele>798.0</ele><time>2026-04-28T07:10:28.447Z</time></trkpt><trkpt lat="44.3174705" lon="8.1021787"><ele>798.0</ele><time>2026-04-28T07:10:30.448Z</time></trkpt><trkpt lat="44.3173836" lon="8.1022403"><ele>798.0</ele><time>2026-04-28T07:10:32.448Z</time></trkpt><trkpt lat="44.3173127" lon="8.1023663"><ele>798.0</ele><time>2026-04-28T07:10:34.447Z</time></trkpt><trkpt lat="44.3172995" lon="8.1024533"><ele>798.0</ele><time>2026-04-28T07:10:35.447Z</time></trkpt><trkpt lat="44.3172954" lon="8.1025514"><ele>798.0</ele><time>2026-04-28T07:10:36.447Z</time></trkpt><trkpt lat="44.3172774" lon="8.102721"><ele>799.0</ele><time>2026-04-28T07:10:38.447Z</time></trkpt><trkpt lat="44.3172653" lon="8.1028088"><ele>800.0</ele><time>2026-04-28T07:10:39.447Z</time></trkpt><trkpt lat="44.3172243" lon="8.1029608"><ele>801.0</ele><time>2026-04-28T07:10:41.448Z</time></trkpt><trkpt lat="44.3171794" lon="8.1030256"><ele>802.0</ele><time>2026-04-28T07:10:42.446Z</time></trkpt><trkpt lat="44.317116" lon="8.103071"><ele>803.0</ele><time>2026-04-28T07:10:43.448Z</time></trkpt><trkpt lat="44.3170505" lon="8.1031261"><ele>804.0</ele><time>2026-04-28T07:10:44.448Z</time></trkpt><trkpt lat="44.3169686" lon="8.1031874"><ele>808.2</ele><time>2026-04-28T07:10:45.448Z</time></trkpt><trkpt lat="44.3168769" lon="8.1032559"><ele>812.4000000000001</ele><time>2026-04-28T07:10:46.447Z</time></trkpt><trkpt lat="44.3167843" lon="8.1033211"><ele>816.6</ele><time>2026-04-28T07:10:47.447Z</time></trkpt><trkpt lat="44.3167002" lon="8.1033967"><ele>820.8</ele><time>2026-04-28T07:10:48.448Z</time></trkpt><trkpt lat="44.3166314" lon="8.1034796"><ele>825.0</ele><time>2026-04-28T07:10:49.448Z</time></trkpt><trkpt lat="44.3165621" lon="8.1035579"><ele>825.0</ele><time>2026-04-28T07:10:50.448Z</time></trkpt><trkpt lat="44.3164999" lon="8.1036436"><ele>825.0</ele><time>2026-04-28T07:10:51.446Z</time></trkpt><trkpt lat="44.3164456" lon="8.1037528"><ele>825.0</ele><time>2026-04-28T07:10:52.447Z</time></trkpt><trkpt lat="44.316393" lon="8.1038693"><ele>825.0</ele><time>2026-04-28T07:10:53.448Z</time></trkpt><trkpt lat="44.3163431" lon="8.1039832"><ele>825.0</ele><time>2026-04-28T07:10:54.448Z</time></trkpt><trkpt lat="44.3162876" lon="8.104066"><ele>824.0</ele><time>2026-04-28T07:10:55.448Z</time></trkpt><trkpt lat="44.3162291" lon="8.1041191"><ele>823.0</ele><time>2026-04-28T07:10:56.446Z</time></trkpt><trkpt lat="44.3161541" lon="8.1042246"><ele>822.0</ele><time>2026-04-28T07:10:58.447Z</time></trkpt><trkpt lat="44.316126" lon="8.1044031"><ele>821.0</ele><time>2026-04-28T07:11:00.446Z</time></trkpt><trkpt lat="44.31611" lon="8.1044987"><ele>820.0</ele><time>2026-04-28T07:11:01.448Z</time></trkpt><trkpt lat="44.3160777" lon="8.1045877"><ele>819.0</ele><time>2026-04-28T07:11:02.448Z</time></trkpt><trkpt lat="44.3160358" lon="8.1046627"><ele>819.0</ele><time>2026-04-28T07:11:03.448Z</time></trkpt><trkpt lat="44.3159522" lon="8.1047601"><ele>819.0</ele><time>2026-04-28T07:11:05.447Z</time></trkpt><trkpt lat="44.3159024" lon="8.1048947"><ele>819.0</ele><time>2026-04-28T07:11:07.447Z</time></trkpt><trkpt lat="44.3158645" lon="8.1050345"><ele>819.0</ele><time>2026-04-28T07:11:09.448Z</time></trkpt><trkpt lat="44.3158486" lon="8.1051612"><ele>819.0</ele><time>2026-04-28T07:11:11.447Z</time></trkpt><trkpt lat="44.3158859" lon="8.1053111"><ele>822.8000000000001</ele><time>2026-04-28T07:11:13.447Z</time></trkpt><trkpt lat="44.315921" lon="8.1054716"><ele>826.6</ele><time>2026-04-28T07:11:15.447Z</time></trkpt><trkpt lat="44.3159109" lon="8.1056467"><ele>830.4</ele><time>2026-04-28T07:11:17.447Z</time></trkpt><trkpt lat="44.3159175" lon="8.1057742"><ele>834.2</ele><time>2026-04-28T07:11:19.448Z</time></trkpt><trkpt lat="44.3159559" lon="8.1058909"><ele>838.0</ele><time>2026-04-28T07:11:21.448Z</time></trkpt><trkpt lat="44.3159469" lon="8.1059858"><ele>838.8333333333333</ele><time>2026-04-28T07:11:25.447Z</time></trkpt><trkpt lat="44.3158727" lon="8.1059813"><ele>839.6666666666666</ele><time>2026-04-28T07:11:27.448Z</time></trkpt><trkpt lat="44.3157463" lon="8.1059873"><ele>840.5</ele><time>2026-04-28T07:11:29.448Z</time></trkpt><trkpt lat="44.3156729" lon="8.1059927"><ele>841.3333333333333</ele><time>2026-04-28T07:11:30.447Z</time></trkpt><trkpt lat="44.3155928" lon="8.1060022"><ele>842.1666666666666</ele><time>2026-04-28T07:11:31.447Z</time></trkpt><trkpt lat="44.3155133" lon="8.1060218"><ele>843.0</ele><time>2026-04-28T07:11:32.448Z</time></trkpt><trkpt lat="44.3154427" lon="8.1060422"><ele>843.0</ele><time>2026-04-28T07:11:33.448Z</time></trkpt><trkpt lat="44.3153826" lon="8.1060703"><ele>843.0</ele><time>2026-04-28T07:11:34.448Z</time></trkpt><trkpt lat="44.3152904" lon="8.1061781"><ele>843.0</ele><time>2026-04-28T07:11:36.448Z</time></trkpt><trkpt lat="44.3152392" lon="8.1062564"><ele>843.0</ele><time>2026-04-28T07:11:37.447Z</time></trkpt><trkpt lat="44.3151849" lon="8.1063418"><ele>843.0</ele><time>2026-04-28T07:11:38.447Z</time></trkpt><trkpt lat="44.3151306" lon="8.1064315"><ele>843.0</ele><time>2026-04-28T07:11:39.447Z</time></trkpt><trkpt lat="44.3150631" lon="8.1065107"><ele>843.0</ele><time>2026-04-28T07:11:40.447Z</time></trkpt><trkpt lat="44.3149902" lon="8.1065765"><ele>843.0</ele><time>2026-04-28T07:11:41.448Z</time></trkpt><trkpt lat="44.3149198" lon="8.1066307"><ele>843.0</ele><time>2026-04-28T07:11:42.448Z</time></trkpt><trkpt lat="44.3148573" lon="8.106693"><ele>843.0</ele><time>2026-04-28T07:11:43.447Z</time></trkpt><trkpt lat="44.3147944" lon="8.1067627"><ele>843.0</ele><time>2026-04-28T07:11:44.447Z</time></trkpt><trkpt lat="44.3147272" lon="8.1068331"><ele>843.0</ele><time>2026-04-28T07:11:45.447Z</time></trkpt><trkpt lat="44.3146691" lon="8.1069058"><ele>843.8333333333334</ele><time>2026-04-28T07:11:46.447Z</time></trkpt><trkpt lat="44.3146297" lon="8.1069896"><ele>844.6666666666667</ele><time>2026-04-28T07:11:47.448Z</time></trkpt><trkpt lat="44.3146043" lon="8.1070802"><ele>845.5</ele><time>2026-04-28T07:11:48.447Z</time></trkpt><trkpt lat="44.314588" lon="8.1072257"><ele>846.3333333333334</ele><time>2026-04-28T07:11:50.447Z</time></trkpt><trkpt lat="44.3145651" lon="8.1073208"><ele>847.1666666666667</ele><time>2026-04-28T07:11:52.448Z</time></trkpt><trkpt lat="44.3145464" lon="8.1074713"><ele>848.0</ele><time>2026-04-28T07:11:54.448Z</time></trkpt><trkpt lat="44.3145241" lon="8.1075607"><ele>850.1666666666667</ele><time>2026-04-28T07:11:55.448Z</time></trkpt><trkpt lat="44.3144916" lon="8.1076469"><ele>852.3333333333334</ele><time>2026-04-28T07:11:56.448Z</time></trkpt><trkpt lat="44.3144505" lon="8.1077323"><ele>854.5</ele><time>2026-04-28T07:11:57.448Z</time></trkpt><trkpt lat="44.314394" lon="8.1078159"><ele>856.6666666666667</ele><time>2026-04-28T07:11:58.447Z</time></trkpt><trkpt lat="44.314333" lon="8.1078947"><ele>858.8333333333334</ele><time>2026-04-28T07:11:59.447Z</time></trkpt><trkpt lat="44.3142716" lon="8.1079598"><ele>861.0</ele><time>2026-04-28T07:12:00.447Z</time></trkpt><trkpt lat="44.3142202" lon="8.1080179"><ele>861.0</ele><time>2026-04-28T07:12:01.447Z</time></trkpt><trkpt lat="44.3141334" lon="8.1080953"><ele>860.9999999999999</ele><time>2026-04-28T07:12:03.446Z</time></trkpt><trkpt lat="44.3139961" lon="8.1081244"><ele>860.9999999999999</ele><time>2026-04-28T07:12:05.448Z</time></trkpt><trkpt lat="44.3139098" lon="8.1081287"><ele>861.0</ele><time>2026-04-28T07:12:06.448Z</time></trkpt><trkpt lat="44.3138206" lon="8.108136"><ele>861.0</ele><time>2026-04-28T07:12:07.447Z</time></trkpt><trkpt lat="44.3137357" lon="8.1081472"><ele>861.6666666666666</ele><time>2026-04-28T07:12:08.447Z</time></trkpt><trkpt lat="44.3136653" lon="8.1081721"><ele>862.3333333333333</ele><time>2026-04-28T07:12:09.447Z</time></trkpt><trkpt lat="44.3136059" lon="8.1082106"><ele>863.0</ele><time>2026-04-28T07:12:10.448Z</time></trkpt><trkpt lat="44.3135398" lon="8.1082441"><ele>863.6666666666666</ele><time>2026-04-28T07:12:11.448Z</time></trkpt><trkpt lat="44.3134795" lon="8.1082847"><ele>864.3333333333333</ele><time>2026-04-28T07:12:12.446Z</time></trkpt><trkpt lat="44.3133705" lon="8.1083337"><ele>865.0</ele><time>2026-04-28T07:12:14.448Z</time></trkpt><trkpt lat="44.3132727" lon="8.1083031"><ele>865.0</ele><time>2026-04-28T07:12:16.446Z</time></trkpt><trkpt lat="44.3132041" lon="8.108231"><ele>865.0</ele><time>2026-04-28T07:12:18.446Z</time></trkpt><trkpt lat="44.3131239" lon="8.1081464"><ele>865.0</ele><time>2026-04-28T07:12:20.448Z</time></trkpt><trkpt lat="44.313018" lon="8.1080937"><ele>865.0</ele><time>2026-04-28T07:12:22.447Z</time></trkpt><trkpt lat="44.3129448" lon="8.1080795"><ele>865.0</ele><time>2026-04-28T07:12:23.447Z</time></trkpt><trkpt lat="44.3128628" lon="8.1080625"><ele>866.6666666666666</ele><time>2026-04-28T07:12:24.448Z</time></trkpt><trkpt lat="44.3127854" lon="8.108036"><ele>868.3333333333333</ele><time>2026-04-28T07:12:25.448Z</time></trkpt><trkpt lat="44.3127245" lon="8.1079978"><ele>870.0</ele><time>2026-04-28T07:12:26.448Z</time></trkpt><trkpt lat="44.3126037" lon="8.1079526"><ele>871.6666666666667</ele><time>2026-04-28T07:12:28.447Z</time></trkpt><trkpt lat="44.3125294" lon="8.1079564"><ele>873.3333333333334</ele><time>2026-04-28T07:12:29.447Z</time></trkpt><trkpt lat="44.3124429" lon="8.1079682"><ele>875.0</ele><time>2026-04-28T07:12:30.447Z</time></trkpt><trkpt lat="44.3123641" lon="8.1079706"><ele>875.0000000000001</ele><time>2026-04-28T07:12:31.448Z</time></trkpt><trkpt lat="44.3122844" lon="8.1079856"><ele>875.0</ele><time>2026-04-28T07:12:32.448Z</time></trkpt><trkpt lat="44.3121988" lon="8.1080002"><ele>875.0</ele><time>2026-04-28T07:12:33.448Z</time></trkpt><trkpt lat="44.312114" lon="8.1080051"><ele>875.0</ele><time>2026-04-28T07:12:34.447Z</time></trkpt><trkpt lat="44.3120479" lon="8.1079958"><ele>875.0000000000001</ele><time>2026-04-28T07:12:36.447Z</time></trkpt><trkpt lat="44.3119351" lon="8.1079813"><ele>875.0</ele><time>2026-04-28T07:12:39.448Z</time></trkpt><trkpt lat="44.3118659" lon="8.1079734"><ele>877.1666666666667</ele><time>2026-04-28T07:12:40.448Z</time></trkpt><trkpt lat="44.3117887" lon="8.1079655"><ele>879.3333333333334</ele><time>2026-04-28T07:12:41.447Z</time></trkpt><trkpt lat="44.3117037" lon="8.1079579"><ele>881.5</ele><time>2026-04-28T07:12:42.447Z</time></trkpt><trkpt lat="44.3116231" lon="8.1079526"><ele>883.6666666666667</ele><time>2026-04-28T07:12:43.447Z</time></trkpt><trkpt lat="44.3115552" lon="8.10796"><ele>885.8333333333334</ele><time>2026-04-28T07:12:44.448Z</time></trkpt><trkpt lat="44.3114619" lon="8.1079629"><ele>888.0</ele><time>2026-04-28T07:12:46.448Z</time></trkpt><trkpt lat="44.3113332" lon="8.1079685"><ele>889.0</ele><time>2026-04-28T07:12:48.447Z</time></trkpt><trkpt lat="44.3112597" lon="8.1079804"><ele>890.0</ele><time>2026-04-28T07:12:49.448Z</time></trkpt><trkpt lat="44.3111835" lon="8.107994"><ele>891.0</ele><time>2026-04-28T07:12:50.447Z</time></trkpt><trkpt lat="44.3111135" lon="8.107999"><ele>892.0</ele><time>2026-04-28T07:12:51.448Z</time></trkpt><trkpt lat="44.3110479" lon="8.1079978"><ele>893.0</ele><time>2026-04-28T07:12:52.448Z</time></trkpt><trkpt lat="44.3109254" lon="8.1079678"><ele>894.0</ele><time>2026-04-28T07:12:54.447Z</time></trkpt><trkpt lat="44.3108461" lon="8.1079424"><ele>894.0</ele><time>2026-04-28T07:12:55.446Z</time></trkpt><trkpt lat="44.3107576" lon="8.1079186"><ele>894.0000000000001</ele><time>2026-04-28T07:12:56.447Z</time></trkpt><trkpt lat="44.3106646" lon="8.1078896"><ele>894.0000000000001</ele><time>2026-04-28T07:12:57.447Z</time></trkpt><trkpt lat="44.3105643" lon="8.1078654"><ele>894.0</ele><time>2026-04-28T07:12:58.448Z</time></trkpt><trkpt lat="44.3104589" lon="8.1078467"><ele>894.0</ele><time>2026-04-28T07:12:59.447Z</time></trkpt><trkpt lat="44.3103595" lon="8.1078299"><ele>892.6666666666666</ele><time>2026-04-28T07:13:00.447Z</time></trkpt><trkpt lat="44.3102647" lon="8.1078038"><ele>891.3333333333333</ele><time>2026-04-28T07:13:01.448Z</time></trkpt><trkpt lat="44.3101797" lon="8.1077944"><ele>890.0</ele><time>2026-04-28T07:13:02.448Z</time></trkpt><trkpt lat="44.3101134" lon="8.1077819"><ele>888.6666666666666</ele><time>2026-04-28T07:13:03.448Z</time></trkpt><trkpt lat="44.3100141" lon="8.1077879"><ele>887.3333333333333</ele><time>2026-04-28T07:13:05.448Z</time></trkpt><trkpt lat="44.3099446" lon="8.1078017"><ele>886.0</ele><time>2026-04-28T07:13:06.448Z</time></trkpt><trkpt lat="44.3098657" lon="8.1078148"><ele>886.0</ele><time>2026-04-28T07:13:07.447Z</time></trkpt><trkpt lat="44.3097776" lon="8.1078291"><ele>886.0</ele><time>2026-04-28T07:13:08.448Z</time></trkpt><trkpt lat="44.3096983" lon="8.107839"><ele>886.0</ele><time>2026-04-28T07:13:09.448Z</time></trkpt><trkpt lat="44.3096301" lon="8.1078491"><ele>886.0</ele><time>2026-04-28T07:13:10.446Z</time></trkpt><trkpt lat="44.3095595" lon="8.1078445"><ele>886.0</ele><time>2026-04-28T07:13:11.448Z</time></trkpt><trkpt lat="44.309486" lon="8.1078402"><ele>886.0</ele><time>2026-04-28T07:13:12.448Z</time></trkpt><trkpt lat="44.3094199" lon="8.1078458"><ele>886.0</ele><time>2026-04-28T07:13:13.447Z</time></trkpt><trkpt lat="44.30935" lon="8.1078313"><ele>885.3333333333333</ele><time>2026-04-28T07:13:14.447Z</time></trkpt><trkpt lat="44.3092755" lon="8.1078156"><ele>884.6666666666666</ele><time>2026-04-28T07:13:15.447Z</time></trkpt><trkpt lat="44.3091906" lon="8.1078058"><ele>884.0</ele><time>2026-04-28T07:13:16.447Z</time></trkpt><trkpt lat="44.3091" lon="8.1077917"><ele>883.3333333333333</ele><time>2026-04-28T07:13:17.448Z</time></trkpt><trkpt lat="44.3089997" lon="8.1077761"><ele>882.6666666666666</ele><time>2026-04-28T07:13:18.448Z</time></trkpt><trkpt lat="44.3089048" lon="8.1077589"><ele>882.0</ele><time>2026-04-28T07:13:19.448Z</time></trkpt><trkpt lat="44.3088148" lon="8.1077458"><ele>881.0</ele><time>2026-04-28T07:13:20.447Z</time></trkpt><trkpt lat="44.308718" lon="8.107746"><ele>880.0</ele><time>2026-04-28T07:13:21.447Z</time></trkpt><trkpt lat="44.3086216" lon="8.1077667"><ele>879.0</ele><time>2026-04-28T07:13:22.447Z</time></trkpt><trkpt lat="44.3085299" lon="8.1077907"><ele>878.0</ele><time>2026-04-28T07:13:23.447Z</time></trkpt><trkpt lat="44.3084314" lon="8.1078113"><ele>877.0</ele><time>2026-04-28T07:13:24.448Z</time></trkpt><trkpt lat="44.308326" lon="8.1078512"><ele>877.0</ele><time>2026-04-28T07:13:25.448Z</time></trkpt><trkpt lat="44.3082322" lon="8.1078921"><ele>877.0</ele><time>2026-04-28T07:13:26.447Z</time></trkpt><trkpt lat="44.3081485" lon="8.1079394"><ele>877.0</ele><time>2026-04-28T07:13:27.447Z</time></trkpt><trkpt lat="44.3080571" lon="8.1079715"><ele>877.0</ele><time>2026-04-28T07:13:28.447Z</time></trkpt><trkpt lat="44.3079755" lon="8.1080127"><ele>877.0</ele><time>2026-04-28T07:13:29.447Z</time></trkpt><trkpt lat="44.3078999" lon="8.1080533"><ele>876.3333333333333</ele><time>2026-04-28T07:13:30.447Z</time></trkpt><trkpt lat="44.3078123" lon="8.1080772"><ele>875.6666666666666</ele><time>2026-04-28T07:13:31.448Z</time></trkpt><trkpt lat="44.3077263" lon="8.1080857"><ele>875.0</ele><time>2026-04-28T07:13:32.448Z</time></trkpt><trkpt lat="44.3076376" lon="8.1080812"><ele>874.3333333333333</ele><time>2026-04-28T07:13:33.448Z</time></trkpt><trkpt lat="44.3075498" lon="8.1080672"><ele>873.6666666666666</ele><time>2026-04-28T07:13:34.448Z</time></trkpt><trkpt lat="44.307481" lon="8.1080323"><ele>873.0</ele><time>2026-04-28T07:13:35.447Z</time></trkpt><trkpt lat="44.3074205" lon="8.1079907"><ele>872.9999999999999</ele><time>2026-04-28T07:13:36.448Z</time></trkpt><trkpt lat="44.3073468" lon="8.1079414"><ele>873.0</ele><time>2026-04-28T07:13:37.448Z</time></trkpt><trkpt lat="44.3072726" lon="8.1079085"><ele>873.0</ele><time>2026-04-28T07:13:38.447Z</time></trkpt><trkpt lat="44.3072012" lon="8.1078903"><ele>873.0</ele><time>2026-04-28T07:13:39.447Z</time></trkpt><trkpt lat="44.3071378" lon="8.1078901"><ele>873.0</ele><time>2026-04-28T07:13:40.447Z</time></trkpt><trkpt lat="44.3070634" lon="8.1079042"><ele>872.9999999999999</ele><time>2026-04-28T07:13:41.448Z</time></trkpt><trkpt lat="44.3069949" lon="8.1079394"><ele>873.0</ele><time>2026-04-28T07:13:42.448Z</time></trkpt><trkpt lat="44.3069096" lon="8.1079692"><ele>871.5999999999999</ele><time>2026-04-28T07:13:43.448Z</time></trkpt><trkpt lat="44.3068127" lon="8.1079898"><ele>870.1999999999999</ele><time>2026-04-28T07:13:44.447Z</time></trkpt><trkpt lat="44.3067165" lon="8.1080039"><ele>868.8</ele><time>2026-04-28T07:13:45.447Z</time></trkpt><trkpt lat="44.3066268" lon="8.1080128"><ele>867.4</ele><time>2026-04-28T07:13:46.448Z</time></trkpt><trkpt lat="44.3065439" lon="8.1080112"><ele>866.0</ele><time>2026-04-28T07:13:47.448Z</time></trkpt><trkpt lat="44.3064563" lon="8.1079728"><ele>865.1666666666667</ele><time>2026-04-28T07:13:48.448Z</time></trkpt><trkpt lat="44.3063675" lon="8.1079202"><ele>864.3333333333334</ele><time>2026-04-28T07:13:49.448Z</time></trkpt><trkpt lat="44.3062902" lon="8.1078925"><ele>863.5</ele><time>2026-04-28T07:13:50.448Z</time></trkpt><trkpt lat="44.306211" lon="8.1078697"><ele>862.6666666666667</ele><time>2026-04-28T07:13:51.448Z</time></trkpt><trkpt lat="44.3061445" lon="8.107876"><ele>861.8333333333334</ele><time>2026-04-28T07:13:52.448Z</time></trkpt><trkpt lat="44.3060836" lon="8.1079023"><ele>861.0</ele><time>2026-04-28T07:13:53.448Z</time></trkpt><trkpt lat="44.306012" lon="8.1079252"><ele>861.0</ele><time>2026-04-28T07:13:54.448Z</time></trkpt><trkpt lat="44.3059273" lon="8.1079434"><ele>861.0</ele><time>2026-04-28T07:13:55.448Z</time></trkpt><trkpt lat="44.3058474" lon="8.1079515"><ele>861.0</ele><time>2026-04-28T07:13:56.448Z</time></trkpt><trkpt lat="44.3057624" lon="8.1079447"><ele>861.0</ele><time>2026-04-28T07:13:57.448Z</time></trkpt><trkpt lat="44.3056681" lon="8.107921"><ele>861.0</ele><time>2026-04-28T07:13:58.447Z</time></trkpt><trkpt lat="44.3055736" lon="8.1078911"><ele>861.0</ele><time>2026-04-28T07:13:59.447Z</time></trkpt><trkpt lat="44.3054877" lon="8.1078656"><ele>862.0</ele><time>2026-04-28T07:14:00.448Z</time></trkpt><trkpt lat="44.3054091" lon="8.1078608"><ele>862.9999999999999</ele><time>2026-04-28T07:14:01.448Z</time></trkpt><trkpt lat="44.3053255" lon="8.107869"><ele>863.9999999999999</ele><time>2026-04-28T07:14:02.448Z</time></trkpt><trkpt lat="44.3052314" lon="8.107897"><ele>865.0</ele><time>2026-04-28T07:14:03.448Z</time></trkpt><trkpt lat="44.3051094" lon="8.107947"><ele>866.0</ele><time>2026-04-28T07:14:04.448Z</time></trkpt><trkpt lat="44.3049872" lon="8.1080003"><ele>866.0</ele><time>2026-04-28T07:14:05.448Z</time></trkpt><trkpt lat="44.3048663" lon="8.1080535"><ele>865.9999999999999</ele><time>2026-04-28T07:14:06.446Z</time></trkpt><trkpt lat="44.3047629" lon="8.1081286"><ele>865.9999999999999</ele><time>2026-04-28T07:14:07.448Z</time></trkpt><trkpt lat="44.3046708" lon="8.1081978"><ele>866.0</ele><time>2026-04-28T07:14:08.448Z</time></trkpt><trkpt lat="44.3046179" lon="8.1082499"><ele>866.0</ele><time>2026-04-28T07:14:09.448Z</time></trkpt><trkpt lat="44.3045494" lon="8.1083076"><ele>863.5999999999999</ele><time>2026-04-28T07:14:11.448Z</time></trkpt><trkpt lat="44.3044474" lon="8.1083525"><ele>861.1999999999999</ele><time>2026-04-28T07:14:13.447Z</time></trkpt><trkpt lat="44.3043689" lon="8.1083722"><ele>858.8000000000001</ele><time>2026-04-28T07:14:14.447Z</time></trkpt><trkpt lat="44.3042737" lon="8.1083625"><ele>856.4000000000001</ele><time>2026-04-28T07:14:15.446Z</time></trkpt><trkpt lat="44.304184" lon="8.1083567"><ele>854.0</ele><time>2026-04-28T07:14:16.447Z</time></trkpt><trkpt lat="44.304092" lon="8.1083577"><ele>854.0</ele><time>2026-04-28T07:14:17.448Z</time></trkpt><trkpt lat="44.303991" lon="8.1083976"><ele>854.0000000000001</ele><time>2026-04-28T07:14:18.447Z</time></trkpt><trkpt lat="44.3038904" lon="8.1084644"><ele>854.0000000000001</ele><time>2026-04-28T07:14:19.448Z</time></trkpt><trkpt lat="44.3038046" lon="8.1085365"><ele>854.0</ele><time>2026-04-28T07:14:20.447Z</time></trkpt><trkpt lat="44.3037232" lon="8.1085885"><ele>854.0</ele><time>2026-04-28T07:14:21.447Z</time></trkpt><trkpt lat="44.3036413" lon="8.1086241"><ele>855.0</ele><time>2026-04-28T07:14:22.448Z</time></trkpt><trkpt lat="44.3035553" lon="8.1086487"><ele>856.0000000000001</ele><time>2026-04-28T07:14:23.448Z</time></trkpt><trkpt lat="44.3034627" lon="8.1086785"><ele>857.0000000000001</ele><time>2026-04-28T07:14:24.447Z</time></trkpt><trkpt lat="44.3033633" lon="8.1087031"><ele>858.0</ele><time>2026-04-28T07:14:25.447Z</time></trkpt><trkpt lat="44.3032687" lon="8.1087165"><ele>859.0</ele><time>2026-04-28T07:14:26.448Z</time></trkpt><trkpt lat="44.3031658" lon="8.1087319"><ele>857.8333333333333</ele><time>2026-04-28T07:14:27.448Z</time></trkpt><trkpt lat="44.3030696" lon="8.1087453"><ele>856.6666666666666</ele><time>2026-04-28T07:14:28.447Z</time></trkpt><trkpt lat="44.3029853" lon="8.1087562"><ele>855.5</ele><time>2026-04-28T07:14:29.448Z</time></trkpt><trkpt lat="44.3028993" lon="8.1087508"><ele>854.3333333333333</ele><time>2026-04-28T07:14:30.448Z</time></trkpt><trkpt lat="44.3028141" lon="8.1087211"><ele>853.1666666666666</ele><time>2026-04-28T07:14:31.446Z</time></trkpt><trkpt lat="44.3027375" lon="8.1086565"><ele>852.0</ele><time>2026-04-28T07:14:32.448Z</time></trkpt><trkpt lat="44.3026677" lon="8.1085782"><ele>852.0</ele><time>2026-04-28T07:14:33.448Z</time></trkpt><trkpt lat="44.3026003" lon="8.1084835"><ele>852.0</ele><time>2026-04-28T07:14:34.448Z</time></trkpt><trkpt lat="44.3025375" lon="8.1083734"><ele>852.0</ele><time>2026-04-28T07:14:35.448Z</time></trkpt><trkpt lat="44.3024752" lon="8.1082631"><ele>852.0</ele><time>2026-04-28T07:14:36.448Z</time></trkpt><trkpt lat="44.3024207" lon="8.1081498"><ele>852.0</ele><time>2026-04-28T07:14:37.447Z</time></trkpt><trkpt lat="44.302368" lon="8.1080365"><ele>854.5</ele><time>2026-04-28T07:14:38.448Z</time></trkpt><trkpt lat="44.302326" lon="8.1079171"><ele>857.0</ele><time>2026-04-28T07:14:39.448Z</time></trkpt><trkpt lat="44.3022989" lon="8.1078044"><ele>859.5</ele><time>2026-04-28T07:14:40.446Z</time></trkpt><trkpt lat="44.3022589" lon="8.1077076"><ele>862.0</ele><time>2026-04-28T07:14:41.446Z</time></trkpt><trkpt lat="44.3021926" lon="8.1076279"><ele>864.5</ele><time>2026-04-28T07:14:42.446Z</time></trkpt><trkpt lat="44.3021145" lon="8.1075645"><ele>867.0</ele><time>2026-04-28T07:14:43.448Z</time></trkpt><trkpt lat="44.3020297" lon="8.1075197"><ele>867.0</ele><time>2026-04-28T07:14:44.447Z</time></trkpt><trkpt lat="44.3019335" lon="8.1075043"><ele>867.0</ele><time>2026-04-28T07:14:45.447Z</time></trkpt><trkpt lat="44.3018338" lon="8.1075021"><ele>867.0</ele><time>2026-04-28T07:14:46.447Z</time></trkpt><trkpt lat="44.3017259" lon="8.1075308"><ele>867.0</ele><time>2026-04-28T07:14:47.448Z</time></trkpt><trkpt lat="44.3016097" lon="8.1075824"><ele>867.0</ele><time>2026-04-28T07:14:48.448Z</time></trkpt><trkpt lat="44.3014974" lon="8.1076435"><ele>867.0</ele><time>2026-04-28T07:14:49.448Z</time></trkpt><trkpt lat="44.3013976" lon="8.107696"><ele>867.0</ele><time>2026-04-28T07:14:50.448Z</time></trkpt><trkpt lat="44.3012984" lon="8.1077292"><ele>867.0</ele><time>2026-04-28T07:14:51.448Z</time></trkpt><trkpt lat="44.3011994" lon="8.1077273"><ele>867.0</ele><time>2026-04-28T07:14:52.448Z</time></trkpt><trkpt lat="44.3011028" lon="8.1077036"><ele>867.0</ele><time>2026-04-28T07:14:53.448Z</time></trkpt><trkpt lat="44.3010229" lon="8.1076566"><ele>867.0</ele><time>2026-04-28T07:14:54.448Z</time></trkpt><trkpt lat="44.3009578" lon="8.1075945"><ele>867.0</ele><time>2026-04-28T07:14:55.447Z</time></trkpt><trkpt lat="44.3008892" lon="8.107519"><ele>867.0</ele><time>2026-04-28T07:14:56.447Z</time></trkpt><trkpt lat="44.3008093" lon="8.1074515"><ele>867.0</ele><time>2026-04-28T07:14:57.447Z</time></trkpt><trkpt lat="44.3007233" lon="8.1074073"><ele>867.0</ele><time>2026-04-28T07:14:58.447Z</time></trkpt><trkpt lat="44.3006378" lon="8.1073764"><ele>867.0</ele><time>2026-04-28T07:14:59.447Z</time></trkpt><trkpt lat="44.3005584" lon="8.1073602"><ele>869.0</ele><time>2026-04-28T07:15:00.448Z</time></trkpt><trkpt lat="44.3004837" lon="8.1073371"><ele>871.0</ele><time>2026-04-28T07:15:01.447Z</time></trkpt><trkpt lat="44.3004059" lon="8.1073143"><ele>873.0</ele><time>2026-04-28T07:15:02.447Z</time></trkpt><trkpt lat="44.3003228" lon="8.1072895"><ele>875.0</ele><time>2026-04-28T07:15:03.448Z</time></trkpt><trkpt lat="44.3002458" lon="8.1072592"><ele>877.0</ele><time>2026-04-28T07:15:04.448Z</time></trkpt><trkpt lat="44.3001597" lon="8.1072157"><ele>879.0</ele><time>2026-04-28T07:15:05.448Z</time></trkpt><trkpt lat="44.3000741" lon="8.1071731"><ele>879.0</ele><time>2026-04-28T07:15:06.447Z</time></trkpt><trkpt lat="44.2999873" lon="8.1071284"><ele>879.0000000000001</ele><time>2026-04-28T07:15:07.447Z</time></trkpt><trkpt lat="44.2999094" lon="8.1070553"><ele>879.0000000000001</ele><time>2026-04-28T07:15:08.448Z</time></trkpt><trkpt lat="44.2998489" lon="8.1069579"><ele>879.0</ele><time>2026-04-28T07:15:09.448Z</time></trkpt><trkpt lat="44.2997963" lon="8.1068569"><ele>879.0</ele><time>2026-04-28T07:15:10.447Z</time></trkpt><trkpt lat="44.2997361" lon="8.1067762"><ele>876.8333333333334</ele><time>2026-04-28T07:15:11.448Z</time></trkpt><trkpt lat="44.2996607" lon="8.1067337"><ele>874.6666666666667</ele><time>2026-04-28T07:15:12.448Z</time></trkpt><trkpt lat="44.2995838" lon="8.1067454"><ele>872.5</ele><time>2026-04-28T07:15:13.448Z</time></trkpt><trkpt lat="44.2995054" lon="8.1067513"><ele>870.3333333333334</ele><time>2026-04-28T07:15:14.448Z</time></trkpt><trkpt lat="44.2994267" lon="8.1067452"><ele>868.1666666666667</ele><time>2026-04-28T07:15:15.448Z</time></trkpt><trkpt lat="44.2993414" lon="8.1067356"><ele>866.0</ele><time>2026-04-28T07:15:16.447Z</time></trkpt><trkpt lat="44.2992522" lon="8.1067037"><ele>866.0</ele><time>2026-04-28T07:15:17.447Z</time></trkpt><trkpt lat="44.2991737" lon="8.1066591"><ele>865.9999999999999</ele><time>2026-04-28T07:15:18.448Z</time></trkpt><trkpt lat="44.2990982" lon="8.1065782"><ele>865.9999999999999</ele><time>2026-04-28T07:15:19.448Z</time></trkpt><trkpt lat="44.2990213" lon="8.1064718"><ele>866.0</ele><time>2026-04-28T07:15:20.447Z</time></trkpt><trkpt lat="44.2989406" lon="8.1063505"><ele>866.0</ele><time>2026-04-28T07:15:21.448Z</time></trkpt><trkpt lat="44.2988463" lon="8.1062539"><ele>869.4</ele><time>2026-04-28T07:15:22.448Z</time></trkpt><trkpt lat="44.2987406" lon="8.1061945"><ele>872.8</ele><time>2026-04-28T07:15:23.448Z</time></trkpt><trkpt lat="44.2986397" lon="8.1061521"><ele>876.1999999999999</ele><time>2026-04-28T07:15:24.448Z</time></trkpt><trkpt lat="44.2985411" lon="8.1061135"><ele>879.5999999999999</ele><time>2026-04-28T07:15:25.448Z</time></trkpt><trkpt lat="44.2984485" lon="8.1060759"><ele>883.0</ele><time>2026-04-28T07:15:26.448Z</time></trkpt><trkpt lat="44.2983691" lon="8.1060333"><ele>882.9999999999999</ele><time>2026-04-28T07:15:27.448Z</time></trkpt><trkpt lat="44.2982951" lon="8.1060166"><ele>883.0</ele><time>2026-04-28T07:15:28.447Z</time></trkpt><trkpt lat="44.2982183" lon="8.1060207"><ele>883.0</ele><time>2026-04-28T07:15:29.448Z</time></trkpt><trkpt lat="44.2981318" lon="8.1060342"><ele>883.0</ele><time>2026-04-28T07:15:30.447Z</time></trkpt><trkpt lat="44.2980377" lon="8.1060332"><ele>882.9999999999999</ele><time>2026-04-28T07:15:31.447Z</time></trkpt><trkpt lat="44.2979404" lon="8.1060296"><ele>883.0</ele><time>2026-04-28T07:15:32.446Z</time></trkpt><trkpt lat="44.2978462" lon="8.1060228"><ele>881.8</ele><time>2026-04-28T07:15:33.448Z</time></trkpt><trkpt lat="44.2977583" lon="8.1060084"><ele>880.5999999999999</ele><time>2026-04-28T07:15:34.447Z</time></trkpt><trkpt lat="44.2976788" lon="8.1059801"><ele>879.4000000000001</ele><time>2026-04-28T07:15:35.448Z</time></trkpt><trkpt lat="44.2976007" lon="8.1059309"><ele>878.2</ele><time>2026-04-28T07:15:36.447Z</time></trkpt><trkpt lat="44.2975254" lon="8.1058626"><ele>877.0</ele><time>2026-04-28T07:15:37.447Z</time></trkpt><trkpt lat="44.2973577" lon="8.1057388"><ele>876.4999999999999</ele><time>2026-04-28T07:15:39.447Z</time></trkpt><trkpt lat="44.297281" lon="8.1056901"><ele>876.0</ele><time>2026-04-28T07:15:40.448Z</time></trkpt><trkpt lat="44.2972055" lon="8.1056271"><ele>875.5</ele><time>2026-04-28T07:15:41.447Z</time></trkpt><trkpt lat="44.2971375" lon="8.1055495"><ele>875.0</ele><time>2026-04-28T07:15:42.447Z</time></trkpt><trkpt lat="44.2970791" lon="8.1054707"><ele>874.4999999999999</ele><time>2026-04-28T07:15:44.448Z</time></trkpt><trkpt lat="44.2970268" lon="8.1053681"><ele>874.0</ele><time>2026-04-28T07:15:46.448Z</time></trkpt><trkpt lat="44.2969424" lon="8.1052522"><ele>873.9999999999999</ele><time>2026-04-28T07:15:48.447Z</time></trkpt><trkpt lat="44.2968909" lon="8.1051738"><ele>874.0</ele><time>2026-04-28T07:15:49.448Z</time></trkpt><trkpt lat="44.2968464" lon="8.1050697"><ele>874.0</ele><time>2026-04-28T07:15:50.448Z</time></trkpt><trkpt lat="44.2968127" lon="8.1049499"><ele>874.0</ele><time>2026-04-28T07:15:51.447Z</time></trkpt><trkpt lat="44.2967982" lon="8.1048323"><ele>873.9999999999999</ele><time>2026-04-28T07:15:52.447Z</time></trkpt><trkpt lat="44.2968037" lon="8.1047105"><ele>874.0</ele><time>2026-04-28T07:15:53.447Z</time></trkpt><trkpt lat="44.2968279" lon="8.1045925"><ele>875.8333333333333</ele><time>2026-04-28T07:15:54.447Z</time></trkpt><trkpt lat="44.2968613" lon="8.1044853"><ele>877.6666666666666</ele><time>2026-04-28T07:15:55.447Z</time></trkpt><trkpt lat="44.296902" lon="8.1043941"><ele>879.5</ele><time>2026-04-28T07:15:56.447Z</time></trkpt><trkpt lat="44.2969385" lon="8.1043173"><ele>881.3333333333333</ele><time>2026-04-28T07:15:57.448Z</time></trkpt><trkpt lat="44.2969585" lon="8.1041573"><ele>883.1666666666666</ele><time>2026-04-28T07:15:59.447Z</time></trkpt><trkpt lat="44.2968701" lon="8.1041012"><ele>885.0</ele><time>2026-04-28T07:16:01.448Z</time></trkpt><trkpt lat="44.2968027" lon="8.1041025"><ele>885.0</ele><time>2026-04-28T07:16:02.448Z</time></trkpt><trkpt lat="44.2967189" lon="8.1041031"><ele>885.0</ele><time>2026-04-28T07:16:03.448Z</time></trkpt><trkpt lat="44.2966241" lon="8.1040984"><ele>885.0</ele><time>2026-04-28T07:16:04.447Z</time></trkpt><trkpt lat="44.2965406" lon="8.1040877"><ele>885.0</ele><time>2026-04-28T07:16:05.448Z</time></trkpt><trkpt lat="44.2964682" lon="8.1040763"><ele>885.0</ele><time>2026-04-28T07:16:06.448Z</time></trkpt><trkpt lat="44.2963862" lon="8.1040572"><ele>885.0</ele><time>2026-04-28T07:16:07.448Z</time></trkpt><trkpt lat="44.2963095" lon="8.104023"><ele>884.2857142857142</ele><time>2026-04-28T07:16:08.448Z</time></trkpt><trkpt lat="44.2962444" lon="8.1039712"><ele>883.5714285714286</ele><time>2026-04-28T07:16:09.448Z</time></trkpt><trkpt lat="44.2961879" lon="8.1039065"><ele>882.8571428571429</ele><time>2026-04-28T07:16:10.448Z</time></trkpt><trkpt lat="44.2961347" lon="8.1038407"><ele>882.1428571428571</ele><time>2026-04-28T07:16:11.448Z</time></trkpt><trkpt lat="44.2960812" lon="8.1037738"><ele>881.4285714285714</ele><time>2026-04-28T07:16:12.448Z</time></trkpt><trkpt lat="44.2960306" lon="8.1036989"><ele>880.7142857142857</ele><time>2026-04-28T07:16:13.448Z</time></trkpt><trkpt lat="44.2959885" lon="8.103611"><ele>880.0</ele><time>2026-04-28T07:16:14.448Z</time></trkpt><trkpt lat="44.2959545" lon="8.1035128"><ele>879.9999999999999</ele><time>2026-04-28T07:16:15.446Z</time></trkpt><trkpt lat="44.2959247" lon="8.1034167"><ele>880.0</ele><time>2026-04-28T07:16:16.447Z</time></trkpt><trkpt lat="44.2958872" lon="8.1033299"><ele>880.0</ele><time>2026-04-28T07:16:17.448Z</time></trkpt><trkpt lat="44.2958482" lon="8.1032508"><ele>880.0</ele><time>2026-04-28T07:16:18.448Z</time></trkpt><trkpt lat="44.2957938" lon="8.1031783"><ele>879.9999999999999</ele><time>2026-04-28T07:16:19.448Z</time></trkpt><trkpt lat="44.2957308" lon="8.1030992"><ele>880.0</ele><time>2026-04-28T07:16:20.447Z</time></trkpt><trkpt lat="44.2956664" lon="8.1030136"><ele>878.8333333333333</ele><time>2026-04-28T07:16:21.447Z</time></trkpt><trkpt lat="44.2956017" lon="8.1029323"><ele>877.6666666666666</ele><time>2026-04-28T07:16:22.447Z</time></trkpt><trkpt lat="44.295539" lon="8.1028572"><ele>876.5</ele><time>2026-04-28T07:16:23.447Z</time></trkpt><trkpt lat="44.2954633" lon="8.1027957"><ele>875.3333333333333</ele><time>2026-04-28T07:16:24.448Z</time></trkpt><trkpt lat="44.2953837" lon="8.1027327"><ele>874.1666666666666</ele><time>2026-04-28T07:16:25.448Z</time></trkpt><trkpt lat="44.295316" lon="8.1026626"><ele>873.0</ele><time>2026-04-28T07:16:26.447Z</time></trkpt><trkpt lat="44.2952632" lon="8.1025747"><ele>873.0</ele><time>2026-04-28T07:16:27.448Z</time></trkpt><trkpt lat="44.2952153" lon="8.1024717"><ele>873.0</ele><time>2026-04-28T07:16:28.447Z</time></trkpt><trkpt lat="44.2951721" lon="8.10236"><ele>873.0</ele><time>2026-04-28T07:16:29.447Z</time></trkpt><trkpt lat="44.2951184" lon="8.1022568"><ele>873.0</ele><time>2026-04-28T07:16:30.448Z</time></trkpt><trkpt lat="44.2950575" lon="8.1021643"><ele>873.0</ele><time>2026-04-28T07:16:31.448Z</time></trkpt><trkpt lat="44.2949936" lon="8.1020815"><ele>873.0</ele><time>2026-04-28T07:16:32.448Z</time></trkpt><trkpt lat="44.2949325" lon="8.1020028"><ele>873.3333333333334</ele><time>2026-04-28T07:16:33.448Z</time></trkpt><trkpt lat="44.2948743" lon="8.1019276"><ele>873.6666666666667</ele><time>2026-04-28T07:16:34.448Z</time></trkpt><trkpt lat="44.2948194" lon="8.1018554"><ele>874.0</ele><time>2026-04-28T07:16:35.447Z</time></trkpt><trkpt lat="44.2947574" lon="8.1017866"><ele>874.3333333333334</ele><time>2026-04-28T07:16:36.447Z</time></trkpt><trkpt lat="44.2946909" lon="8.1017236"><ele>874.6666666666667</ele><time>2026-04-28T07:16:37.447Z</time></trkpt><trkpt lat="44.2946113" lon="8.1016794"><ele>875.0</ele><time>2026-04-28T07:16:38.447Z</time></trkpt><trkpt lat="44.2945261" lon="8.1016401"><ele>875.0</ele><time>2026-04-28T07:16:39.448Z</time></trkpt><trkpt lat="44.2944289" lon="8.1016065"><ele>875.0</ele><time>2026-04-28T07:16:40.448Z</time></trkpt><trkpt lat="44.2943327" lon="8.1015808"><ele>875.0</ele><time>2026-04-28T07:16:41.447Z</time></trkpt><trkpt lat="44.2942355" lon="8.101553"><ele>875.0</ele><time>2026-04-28T07:16:42.448Z</time></trkpt><trkpt lat="44.2941449" lon="8.1015101"><ele>875.0</ele><time>2026-04-28T07:16:43.447Z</time></trkpt><trkpt lat="44.2940563" lon="8.1014617"><ele>877.2</ele><time>2026-04-28T07:16:44.447Z</time></trkpt><trkpt lat="44.2939695" lon="8.1014109"><ele>879.4</ele><time>2026-04-28T07:16:45.447Z</time></trkpt><trkpt lat="44.2938786" lon="8.10136"><ele>881.5999999999999</ele><time>2026-04-28T07:16:46.447Z</time></trkpt><trkpt lat="44.2937836" lon="8.1013296"><ele>883.8</ele><time>2026-04-28T07:16:47.447Z</time></trkpt><trkpt lat="44.2936762" lon="8.1013153"><ele>886.0</ele><time>2026-04-28T07:16:48.448Z</time></trkpt><trkpt lat="44.293573" lon="8.101308"><ele>886.0</ele><time>2026-04-28T07:16:49.447Z</time></trkpt><trkpt lat="44.2934807" lon="8.1012994"><ele>885.9999999999999</ele><time>2026-04-28T07:16:50.448Z</time></trkpt><trkpt lat="44.2933904" lon="8.1012832"><ele>885.9999999999999</ele><time>2026-04-28T07:16:51.447Z</time></trkpt><trkpt lat="44.2932983" lon="8.1012422"><ele>886.0</ele><time>2026-04-28T07:16:52.448Z</time></trkpt><trkpt lat="44.2932066" lon="8.1011954"><ele>886.0</ele><time>2026-04-28T07:16:53.447Z</time></trkpt><trkpt lat="44.2931124" lon="8.1011394"><ele>884.5999999999999</ele><time>2026-04-28T07:16:54.448Z</time></trkpt><trkpt lat="44.2930474" lon="8.1010846"><ele>883.1999999999999</ele><time>2026-04-28T07:16:55.448Z</time></trkpt><trkpt lat="44.2929808" lon="8.1010173"><ele>881.8000000000001</ele><time>2026-04-28T07:16:56.448Z</time></trkpt><trkpt lat="44.2929032" lon="8.1009281"><ele>880.4000000000001</ele><time>2026-04-28T07:16:57.448Z</time></trkpt><trkpt lat="44.2928157" lon="8.1008559"><ele>879.0</ele><time>2026-04-28T07:16:58.446Z</time></trkpt><trkpt lat="44.2927172" lon="8.100802"><ele>879.0</ele><time>2026-04-28T07:16:59.447Z</time></trkpt><trkpt lat="44.2926152" lon="8.1007679"><ele>879.0000000000001</ele><time>2026-04-28T07:17:00.448Z</time></trkpt><trkpt lat="44.2925085" lon="8.100741"><ele>879.0000000000001</ele><time>2026-04-28T07:17:01.447Z</time></trkpt><trkpt lat="44.2923988" lon="8.1007134"><ele>879.0</ele><time>2026-04-28T07:17:02.447Z</time></trkpt><trkpt lat="44.2922955" lon="8.1006718"><ele>879.0</ele><time>2026-04-28T07:17:03.448Z</time></trkpt><trkpt lat="44.2921881" lon="8.1006204"><ele>880.2</ele><time>2026-04-28T07:17:04.447Z</time></trkpt><trkpt lat="44.2920955" lon="8.1005718"><ele>881.4000000000001</ele><time>2026-04-28T07:17:05.447Z</time></trkpt><trkpt lat="44.2920067" lon="8.1005242"><ele>882.6</ele><time>2026-04-28T07:17:06.448Z</time></trkpt><trkpt lat="44.2919164" lon="8.100482"><ele>883.8</ele><time>2026-04-28T07:17:07.447Z</time></trkpt><trkpt lat="44.2918197" lon="8.1004476"><ele>885.0</ele><time>2026-04-28T07:17:08.448Z</time></trkpt><trkpt lat="44.2917255" lon="8.1004016"><ele>885.0</ele><time>2026-04-28T07:17:09.448Z</time></trkpt><trkpt lat="44.2916457" lon="8.1003388"><ele>885.0</ele><time>2026-04-28T07:17:10.447Z</time></trkpt><trkpt lat="44.2915762" lon="8.1002614"><ele>885.0</ele><time>2026-04-28T07:17:11.446Z</time></trkpt><trkpt lat="44.2915064" lon="8.1001748"><ele>885.0</ele><time>2026-04-28T07:17:12.448Z</time></trkpt><trkpt lat="44.2914312" lon="8.1000936"><ele>885.0</ele><time>2026-04-28T07:17:13.448Z</time></trkpt><trkpt lat="44.2913733" lon="8.1000058"><ele>885.8333333333334</ele><time>2026-04-28T07:17:14.448Z</time></trkpt><trkpt lat="44.2913321" lon="8.0999139"><ele>886.6666666666667</ele><time>2026-04-28T07:17:15.447Z</time></trkpt><trkpt lat="44.291292" lon="8.0998237"><ele>887.5</ele><time>2026-04-28T07:17:16.448Z</time></trkpt><trkpt lat="44.2912347" lon="8.0997292"><ele>888.3333333333334</ele><time>2026-04-28T07:17:17.448Z</time></trkpt><trkpt lat="44.2911608" lon="8.0996434"><ele>889.1666666666667</ele><time>2026-04-28T07:17:18.448Z</time></trkpt><trkpt lat="44.2910857" lon="8.099559"><ele>890.0</ele><time>2026-04-28T07:17:19.447Z</time></trkpt><trkpt lat="44.290995" lon="8.0994751"><ele>890.0</ele><time>2026-04-28T07:17:20.448Z</time></trkpt><trkpt lat="44.2908972" lon="8.0993946"><ele>890.0</ele><time>2026-04-28T07:17:21.448Z</time></trkpt><trkpt lat="44.2908251" lon="8.0993241"><ele>890.0</ele><time>2026-04-28T07:17:22.448Z</time></trkpt><trkpt lat="44.2907612" lon="8.09924"><ele>890.0</ele><time>2026-04-28T07:17:23.448Z</time></trkpt><trkpt lat="44.290693" lon="8.0991565"><ele>890.0</ele><time>2026-04-28T07:17:24.447Z</time></trkpt><trkpt lat="44.2906229" lon="8.0990852"><ele>889.3333333333334</ele><time>2026-04-28T07:17:25.448Z</time></trkpt><trkpt lat="44.290545" lon="8.0990304"><ele>888.6666666666667</ele><time>2026-04-28T07:17:26.448Z</time></trkpt><trkpt lat="44.2904629" lon="8.0989894"><ele>888.0</ele><time>2026-04-28T07:17:27.447Z</time></trkpt><trkpt lat="44.290383" lon="8.0989627"><ele>887.3333333333333</ele><time>2026-04-28T07:17:28.448Z</time></trkpt><trkpt lat="44.2903049" lon="8.098935"><ele>886.6666666666666</ele><time>2026-04-28T07:17:29.448Z</time></trkpt><trkpt lat="44.2902242" lon="8.0989006"><ele>886.0</ele><time>2026-04-28T07:17:30.447Z</time></trkpt><trkpt lat="44.2901482" lon="8.0988589"><ele>885.9999999999999</ele><time>2026-04-28T07:17:31.447Z</time></trkpt><trkpt lat="44.2900697" lon="8.0988006"><ele>886.0</ele><time>2026-04-28T07:17:32.448Z</time></trkpt><trkpt lat="44.2899942" lon="8.0987428"><ele>886.0</ele><time>2026-04-28T07:17:33.447Z</time></trkpt><trkpt lat="44.2899369" lon="8.0986886"><ele>886.0</ele><time>2026-04-28T07:17:34.447Z</time></trkpt><trkpt lat="44.2898847" lon="8.0986361"><ele>885.9999999999999</ele><time>2026-04-28T07:17:35.447Z</time></trkpt><trkpt lat="44.2898269" lon="8.0985822"><ele>886.0</ele><time>2026-04-28T07:17:36.448Z</time></trkpt><trkpt lat="44.2897564" lon="8.0985279"><ele>886.1999999999999</ele><time>2026-04-28T07:17:37.448Z</time></trkpt><trkpt lat="44.2896785" lon="8.0984654"><ele>886.3999999999999</ele><time>2026-04-28T07:17:38.447Z</time></trkpt><trkpt lat="44.2895943" lon="8.0983945"><ele>886.6</ele><time>2026-04-28T07:17:39.447Z</time></trkpt><trkpt lat="44.2895047" lon="8.098335"><ele>886.8</ele><time>2026-04-28T07:17:40.447Z</time></trkpt><trkpt lat="44.2894099" lon="8.098273"><ele>887.0</ele><time>2026-04-28T07:17:41.447Z</time></trkpt><trkpt lat="44.289317" lon="8.098212"><ele>887.0</ele><time>2026-04-28T07:17:42.447Z</time></trkpt><trkpt lat="44.2892345" lon="8.0981522"><ele>887.0</ele><time>2026-04-28T07:17:43.447Z</time></trkpt><trkpt lat="44.2891569" lon="8.0980884"><ele>887.0</ele><time>2026-04-28T07:17:44.447Z</time></trkpt><trkpt lat="44.289071" lon="8.0980326"><ele>887.0</ele><time>2026-04-28T07:17:45.447Z</time></trkpt><trkpt lat="44.2889809" lon="8.097987"><ele>887.0</ele><time>2026-04-28T07:17:46.448Z</time></trkpt><trkpt lat="44.2888871" lon="8.0979492"><ele>888.0</ele><time>2026-04-28T07:17:47.447Z</time></trkpt><trkpt lat="44.2887938" lon="8.0979193"><ele>889.0</ele><time>2026-04-28T07:17:48.448Z</time></trkpt><trkpt lat="44.2887031" lon="8.0978767"><ele>890.0</ele><time>2026-04-28T07:17:49.447Z</time></trkpt><trkpt lat="44.2886191" lon="8.0978137"><ele>891.0</ele><time>2026-04-28T07:17:50.448Z</time></trkpt><trkpt lat="44.2885363" lon="8.0977361"><ele>892.0</ele><time>2026-04-28T07:17:51.447Z</time></trkpt><trkpt lat="44.2884517" lon="8.0976518"><ele>892.0</ele><time>2026-04-28T07:17:52.447Z</time></trkpt><trkpt lat="44.2883755" lon="8.097572"><ele>892.0</ele><time>2026-04-28T07:17:53.447Z</time></trkpt><trkpt lat="44.28831" lon="8.0975011"><ele>892.0</ele><time>2026-04-28T07:17:54.447Z</time></trkpt><trkpt lat="44.2882219" lon="8.0974675"><ele>892.0</ele><time>2026-04-28T07:17:55.447Z</time></trkpt><trkpt lat="44.2881224" lon="8.0974546"><ele>892.0</ele><time>2026-04-28T07:17:56.446Z</time></trkpt><trkpt lat="44.2880231" lon="8.0974303"><ele>890.4000000000001</ele><time>2026-04-28T07:17:57.447Z</time></trkpt><trkpt lat="44.2879307" lon="8.0973848"><ele>888.8000000000001</ele><time>2026-04-28T07:17:58.447Z</time></trkpt><trkpt lat="44.2878419" lon="8.0973247"><ele>887.2</ele><time>2026-04-28T07:17:59.448Z</time></trkpt><trkpt lat="44.2877532" lon="8.0972533"><ele>885.6</ele><time>2026-04-28T07:18:00.447Z</time></trkpt><trkpt lat="44.2876625" lon="8.0971726"><ele>884.0</ele><time>2026-04-28T07:18:01.447Z</time></trkpt><trkpt lat="44.287581" lon="8.0970922"><ele>884.0</ele><time>2026-04-28T07:18:02.447Z</time></trkpt><trkpt lat="44.2874969" lon="8.0970168"><ele>884.0</ele><time>2026-04-28T07:18:03.447Z</time></trkpt><trkpt lat="44.2874045" lon="8.0969471"><ele>884.0</ele><time>2026-04-28T07:18:04.447Z</time></trkpt><trkpt lat="44.2872945" lon="8.0968856"><ele>884.0</ele><time>2026-04-28T07:18:05.448Z</time></trkpt><trkpt lat="44.2871698" lon="8.0968191"><ele>884.4000000000001</ele><time>2026-04-28T07:18:06.447Z</time></trkpt><trkpt lat="44.2870537" lon="8.0967438"><ele>884.8000000000001</ele><time>2026-04-28T07:18:07.448Z</time></trkpt><trkpt lat="44.2869646" lon="8.0966669"><ele>885.1999999999999</ele><time>2026-04-28T07:18:08.448Z</time></trkpt><trkpt lat="44.2868833" lon="8.0965869"><ele>885.5999999999999</ele><time>2026-04-28T07:18:09.447Z</time></trkpt><trkpt lat="44.2868094" lon="8.0965128"><ele>886.0</ele><time>2026-04-28T07:18:10.448Z</time></trkpt><trkpt lat="44.2867343" lon="8.0964412"><ele>886.0</ele><time>2026-04-28T07:18:11.448Z</time></trkpt><trkpt lat="44.2866557" lon="8.0963822"><ele>885.9999999999999</ele><time>2026-04-28T07:18:12.447Z</time></trkpt><trkpt lat="44.2865656" lon="8.096328"><ele>885.9999999999999</ele><time>2026-04-28T07:18:13.448Z</time></trkpt><trkpt lat="44.2864683" lon="8.0962741"><ele>886.0</ele><time>2026-04-28T07:18:14.448Z</time></trkpt><trkpt lat="44.2863718" lon="8.0962241"><ele>886.0</ele><time>2026-04-28T07:18:15.448Z</time></trkpt><trkpt lat="44.2862877" lon="8.0961884"><ele>888.8333333333333</ele><time>2026-04-28T07:18:16.447Z</time></trkpt><trkpt lat="44.2862096" lon="8.0961535"><ele>891.6666666666666</ele><time>2026-04-28T07:18:17.447Z</time></trkpt><trkpt lat="44.2861394" lon="8.0961212"><ele>894.5</ele><time>2026-04-28T07:18:18.446Z</time></trkpt><trkpt lat="44.2860771" lon="8.0960864"><ele>897.3333333333333</ele><time>2026-04-28T07:18:19.448Z</time></trkpt><trkpt lat="44.2859884" lon="8.0960315"><ele>900.1666666666666</ele><time>2026-04-28T07:18:21.448Z</time></trkpt><trkpt lat="44.2859392" lon="8.0959709"><ele>903.0</ele><time>2026-04-28T07:18:23.448Z</time></trkpt><trkpt lat="44.2858159" lon="8.0959294"><ele>903.0</ele><time>2026-04-28T07:18:25.447Z</time></trkpt><trkpt lat="44.2857134" lon="8.0959257"><ele>903.0</ele><time>2026-04-28T07:18:26.448Z</time></trkpt><trkpt lat="44.2855989" lon="8.0959172"><ele>903.0</ele><time>2026-04-28T07:18:27.448Z</time></trkpt><trkpt lat="44.2854885" lon="8.0959003"><ele>903.0</ele><time>2026-04-28T07:18:28.447Z</time></trkpt><trkpt lat="44.2853622" lon="8.0958823"><ele>905.5</ele><time>2026-04-28T07:18:29.448Z</time></trkpt><trkpt lat="44.2852239" lon="8.0958721"><ele>908.0</ele><time>2026-04-28T07:18:30.448Z</time></trkpt><trkpt lat="44.2850827" lon="8.0958727"><ele>910.5</ele><time>2026-04-28T07:18:31.448Z</time></trkpt><trkpt lat="44.284942" lon="8.0958886"><ele>913.0</ele><time>2026-04-28T07:18:32.448Z</time></trkpt><trkpt lat="44.2847876" lon="8.0959123"><ele>913.6666666666666</ele><time>2026-04-28T07:18:33.448Z</time></trkpt><trkpt lat="44.2846239" lon="8.095929"><ele>914.3333333333333</ele><time>2026-04-28T07:18:34.447Z</time></trkpt><trkpt lat="44.2844492" lon="8.0959443"><ele>915.0</ele><time>2026-04-28T07:18:35.448Z</time></trkpt><trkpt lat="44.284273" lon="8.0959533"><ele>915.0</ele><time>2026-04-28T07:18:36.447Z</time></trkpt><trkpt lat="44.2840945" lon="8.0959486"><ele>915.0</ele><time>2026-04-28T07:18:37.448Z</time></trkpt><trkpt lat="44.28391" lon="8.0959335"><ele>915.0</ele><time>2026-04-28T07:18:38.448Z</time></trkpt><trkpt lat="44.283722" lon="8.095904"><ele>914.3333333333333</ele><time>2026-04-28T07:18:39.447Z</time></trkpt><trkpt lat="44.2835334" lon="8.0958714"><ele>913.6666666666666</ele><time>2026-04-28T07:18:40.448Z</time></trkpt><trkpt lat="44.283346" lon="8.0958335"><ele>913.0</ele><time>2026-04-28T07:18:41.447Z</time></trkpt><trkpt lat="44.2831584" lon="8.0957855"><ele>924.0</ele><time>2026-04-28T07:18:42.448Z</time></trkpt><trkpt lat="44.2829703" lon="8.0957331"><ele>935.0</ele><time>2026-04-28T07:18:43.448Z</time></trkpt><trkpt lat="44.2827853" lon="8.0956821"><ele>946.0</ele><time>2026-04-28T07:18:44.448Z</time></trkpt><trkpt lat="44.2826061" lon="8.0956304"><ele>946.0</ele><time>2026-04-28T07:18:45.447Z</time></trkpt><trkpt lat="44.2824296" lon="8.095592"><ele>946.0</ele><time>2026-04-28T07:18:46.448Z</time></trkpt><trkpt lat="44.2822491" lon="8.0955829"><ele>946.0</ele><time>2026-04-28T07:18:47.447Z</time></trkpt><trkpt lat="44.2820656" lon="8.0956005"><ele>947.6666666666666</ele><time>2026-04-28T07:18:48.447Z</time></trkpt><trkpt lat="44.2818793" lon="8.0956174"><ele>949.3333333333333</ele><time>2026-04-28T07:18:49.447Z</time></trkpt><trkpt lat="44.2816918" lon="8.0956291"><ele>951.0</ele><time>2026-04-28T07:18:50.447Z</time></trkpt><trkpt lat="44.2815036" lon="8.0956434"><ele>952.6666666666667</ele><time>2026-04-28T07:18:51.447Z</time></trkpt><trkpt lat="44.2813158" lon="8.0956593"><ele>954.3333333333334</ele><time>2026-04-28T07:18:52.448Z</time></trkpt><trkpt lat="44.2811253" lon="8.0956704"><ele>956.0</ele><time>2026-04-28T07:18:53.448Z</time></trkpt><trkpt lat="44.2809317" lon="8.0956731"><ele>956.0</ele><time>2026-04-28T07:18:54.447Z</time></trkpt><trkpt lat="44.2807405" lon="8.0956791"><ele>956.0</ele><time>2026-04-28T07:18:55.448Z</time></trkpt><trkpt lat="44.2805565" lon="8.0956868"><ele>956.0</ele><time>2026-04-28T07:18:56.448Z</time></trkpt><trkpt lat="44.2803801" lon="8.0957074"><ele>947.6666666666667</ele><time>2026-04-28T07:18:57.448Z</time></trkpt><trkpt lat="44.280201" lon="8.0957759"><ele>939.3333333333333</ele><time>2026-04-28T07:18:58.448Z</time></trkpt><trkpt lat="44.2800251" lon="8.0958799"><ele>931.0</ele><time>2026-04-28T07:18:59.448Z</time></trkpt><trkpt lat="44.2798618" lon="8.0959835"><ele>928.0</ele><time>2026-04-28T07:19:00.448Z</time></trkpt><trkpt lat="44.2796947" lon="8.0960787"><ele>925.0</ele><time>2026-04-28T07:19:01.447Z</time></trkpt><trkpt lat="44.2795357" lon="8.0961573"><ele>922.0</ele><time>2026-04-28T07:19:02.447Z</time></trkpt><trkpt lat="44.2793841" lon="8.0962275"><ele>922.0</ele><time>2026-04-28T07:19:03.447Z</time></trkpt><trkpt lat="44.2792408" lon="8.0962985"><ele>922.0</ele><time>2026-04-28T07:19:04.447Z</time></trkpt><trkpt lat="44.2791042" lon="8.0963739"><ele>922.0</ele><time>2026-04-28T07:19:05.448Z</time></trkpt><trkpt lat="44.2789698" lon="8.0964768"><ele>916.0</ele><time>2026-04-28T07:19:06.447Z</time></trkpt><trkpt lat="44.2788316" lon="8.0966054"><ele>910.0</ele><time>2026-04-28T07:19:07.447Z</time></trkpt><trkpt lat="44.2786913" lon="8.0967381"><ele>904.0</ele><time>2026-04-28T07:19:08.447Z</time></trkpt><trkpt lat="44.2785485" lon="8.0968506"><ele>904.0</ele><time>2026-04-28T07:19:09.447Z</time></trkpt><trkpt lat="44.2783997" lon="8.0969484"><ele>904.0</ele><time>2026-04-28T07:19:10.447Z</time></trkpt><trkpt lat="44.2782484" lon="8.0970406"><ele>904.0</ele><time>2026-04-28T07:19:11.447Z</time></trkpt><trkpt lat="44.2780974" lon="8.0971427"><ele>896.3333333333333</ele><time>2026-04-28T07:19:12.447Z</time></trkpt><trkpt lat="44.2779443" lon="8.0972228"><ele>888.6666666666667</ele><time>2026-04-28T07:19:13.447Z</time></trkpt><trkpt lat="44.2777829" lon="8.0973029"><ele>881.0</ele><time>2026-04-28T07:19:14.448Z</time></trkpt><trkpt lat="44.2776571" lon="8.0973917"><ele>885.4</ele><time>2026-04-28T07:19:15.448Z</time></trkpt><trkpt lat="44.2775457" lon="8.0974651"><ele>889.8</ele><time>2026-04-28T07:19:16.448Z</time></trkpt><trkpt lat="44.2774458" lon="8.0975489"><ele>894.1999999999999</ele><time>2026-04-28T07:19:17.448Z</time></trkpt><trkpt lat="44.2773974" lon="8.0976846"><ele>898.5999999999999</ele><time>2026-04-28T07:19:18.448Z</time></trkpt><trkpt lat="44.2773727" lon="8.0978206"><ele>903.0</ele><time>2026-04-28T07:19:19.448Z</time></trkpt><trkpt lat="44.2773573" lon="8.0979385"><ele>903.0</ele><time>2026-04-28T07:19:20.448Z</time></trkpt><trkpt lat="44.2773253" lon="8.098056"><ele>903.0</ele><time>2026-04-28T07:19:21.448Z</time></trkpt><trkpt lat="44.2772751" lon="8.098172"><ele>903.0</ele><time>2026-04-28T07:19:22.447Z</time></trkpt><trkpt lat="44.2772091" lon="8.0982731"><ele>903.0</ele><time>2026-04-28T07:19:23.447Z</time></trkpt><trkpt lat="44.2771172" lon="8.0983368"><ele>903.0</ele><time>2026-04-28T07:19:24.448Z</time></trkpt><trkpt lat="44.2769971" lon="8.0983692"><ele>900.75</ele><time>2026-04-28T07:19:25.448Z</time></trkpt><trkpt lat="44.2768541" lon="8.098475"><ele>898.5</ele><time>2026-04-28T07:19:26.448Z</time></trkpt><trkpt lat="44.2767447" lon="8.0985924"><ele>896.25</ele><time>2026-04-28T07:19:27.448Z</time></trkpt><trkpt lat="44.2766293" lon="8.0986735"><ele>894.0</ele><time>2026-04-28T07:19:28.448Z</time></trkpt><trkpt lat="44.2765035" lon="8.0987212"><ele>889.5</ele><time>2026-04-28T07:19:29.447Z</time></trkpt><trkpt lat="44.2763731" lon="8.0987553"><ele>885.0</ele><time>2026-04-28T07:19:30.447Z</time></trkpt><trkpt lat="44.2762213" lon="8.0987762"><ele>880.5</ele><time>2026-04-28T07:19:31.448Z</time></trkpt><trkpt lat="44.2760608" lon="8.0987952"><ele>876.0</ele><time>2026-04-28T07:19:32.447Z</time></trkpt><trkpt lat="44.2758888" lon="8.0988382"><ele>876.0</ele><time>2026-04-28T07:19:33.448Z</time></trkpt><trkpt lat="44.275713" lon="8.0988789"><ele>876.0</ele><time>2026-04-28T07:19:34.448Z</time></trkpt><trkpt lat="44.2755365" lon="8.0989282"><ele>876.0</ele><time>2026-04-28T07:19:35.448Z</time></trkpt><trkpt lat="44.2753602" lon="8.0989889"><ele>881.0</ele><time>2026-04-28T07:19:36.448Z</time></trkpt><trkpt lat="44.275182" lon="8.0990531"><ele>886.0</ele><time>2026-04-28T07:19:37.447Z</time></trkpt><trkpt lat="44.2750061" lon="8.0991346"><ele>891.0</ele><time>2026-04-28T07:19:38.447Z</time></trkpt><trkpt lat="44.2748363" lon="8.0992183"><ele>883.6666666666667</ele><time>2026-04-28T07:19:39.448Z</time></trkpt><trkpt lat="44.2746665" lon="8.0992706"><ele>876.3333333333334</ele><time>2026-04-28T07:19:40.447Z</time></trkpt><trkpt lat="44.2744998" lon="8.0993042"><ele>869.0</ele><time>2026-04-28T07:19:41.446Z</time></trkpt><trkpt lat="44.274336" lon="8.0993398"><ele>869.0</ele><time>2026-04-28T07:19:42.447Z</time></trkpt><trkpt lat="44.2741746" lon="8.0994073"><ele>869.0</ele><time>2026-04-28T07:19:43.447Z</time></trkpt><trkpt lat="44.2740082" lon="8.0994954"><ele>869.0</ele><time>2026-04-28T07:19:44.447Z</time></trkpt><trkpt lat="44.2738941" lon="8.0996822"><ele>864.0</ele><time>2026-04-28T07:19:45.447Z</time></trkpt><trkpt lat="44.2737769" lon="8.0998512"><ele>859.0</ele><time>2026-04-28T07:19:46.447Z</time></trkpt><trkpt lat="44.2736486" lon="8.1000093"><ele>854.0</ele><time>2026-04-28T07:19:47.448Z</time></trkpt><trkpt lat="44.2735761" lon="8.1001486"><ele>854.0</ele><time>2026-04-28T07:19:48.448Z</time></trkpt><trkpt lat="44.2735098" lon="8.1002962"><ele>854.0</ele><time>2026-04-28T07:19:49.447Z</time></trkpt><trkpt lat="44.2735056" lon="8.1005095"><ele>854.0</ele><time>2026-04-28T07:19:50.448Z</time></trkpt><trkpt lat="44.2734908" lon="8.1007293"><ele>854.0</ele><time>2026-04-28T07:19:51.447Z</time></trkpt><trkpt lat="44.2734526" lon="8.1009431"><ele>857.6666666666667</ele><time>2026-04-28T07:19:52.447Z</time></trkpt><trkpt lat="44.2733953" lon="8.1011526"><ele>861.3333333333333</ele><time>2026-04-28T07:19:53.447Z</time></trkpt><trkpt lat="44.273337" lon="8.1013533"><ele>865.0</ele><time>2026-04-28T07:19:54.448Z</time></trkpt><trkpt lat="44.2732842" lon="8.1015563"><ele>866.75</ele><time>2026-04-28T07:19:55.447Z</time></trkpt><trkpt lat="44.27324" lon="8.1017557"><ele>868.5</ele><time>2026-04-28T07:19:56.447Z</time></trkpt><trkpt lat="44.2732055" lon="8.1019331"><ele>870.25</ele><time>2026-04-28T07:19:57.447Z</time></trkpt><trkpt lat="44.2731505" lon="8.1020769"><ele>872.0</ele><time>2026-04-28T07:19:58.448Z</time></trkpt><trkpt lat="44.2730717" lon="8.1021967"><ele>866.5</ele><time>2026-04-28T07:19:59.448Z</time></trkpt><trkpt lat="44.2729831" lon="8.1022938"><ele>861.0</ele><time>2026-04-28T07:20:00.448Z</time></trkpt><trkpt lat="44.2728849" lon="8.1023753"><ele>855.5</ele><time>2026-04-28T07:20:01.447Z</time></trkpt><trkpt lat="44.272783" lon="8.1025044"><ele>850.0</ele><time>2026-04-28T07:20:02.448Z</time></trkpt><trkpt lat="44.2726856" lon="8.1026338"><ele>850.0</ele><time>2026-04-28T07:20:03.447Z</time></trkpt><trkpt lat="44.2725948" lon="8.1027818"><ele>850.0</ele><time>2026-04-28T07:20:04.446Z</time></trkpt><trkpt lat="44.2725142" lon="8.1029557"><ele>850.0</ele><time>2026-04-28T07:20:05.448Z</time></trkpt><trkpt lat="44.2724408" lon="8.1031134"><ele>850.0</ele><time>2026-04-28T07:20:06.448Z</time></trkpt><trkpt lat="44.272374" lon="8.1032695"><ele>850.75</ele><time>2026-04-28T07:20:07.448Z</time></trkpt><trkpt lat="44.2723282" lon="8.1034374"><ele>851.5</ele><time>2026-04-28T07:20:08.446Z</time></trkpt><trkpt lat="44.272352" lon="8.1036034"><ele>852.25</ele><time>2026-04-28T07:20:09.447Z</time></trkpt><trkpt lat="44.2724175" lon="8.1037563"><ele>853.0</ele><time>2026-04-28T07:20:10.446Z</time></trkpt><trkpt lat="44.2725693" lon="8.1038791"><ele>853.0</ele><time>2026-04-28T07:20:11.447Z</time></trkpt><trkpt lat="44.2726983" lon="8.1040309"><ele>853.0</ele><time>2026-04-28T07:20:12.448Z</time></trkpt><trkpt lat="44.2727983" lon="8.1042014"><ele>853.0</ele><time>2026-04-28T07:20:13.448Z</time></trkpt><trkpt lat="44.2728526" lon="8.1043987"><ele>850.3333333333333</ele><time>2026-04-28T07:20:14.447Z</time></trkpt><trkpt lat="44.2728716" lon="8.1046189"><ele>847.6666666666667</ele><time>2026-04-28T07:20:15.448Z</time></trkpt><trkpt lat="44.2728713" lon="8.1048419"><ele>845.0</ele><time>2026-04-28T07:20:16.447Z</time></trkpt><trkpt lat="44.2728842" lon="8.1050495"><ele>843.4</ele><time>2026-04-28T07:20:17.448Z</time></trkpt><trkpt lat="44.2729187" lon="8.1052278"><ele>841.8</ele><time>2026-04-28T07:20:18.448Z</time></trkpt><trkpt lat="44.2729653" lon="8.1053587"><ele>840.2</ele><time>2026-04-28T07:20:19.448Z</time></trkpt><trkpt lat="44.2729866" lon="8.1054541"><ele>838.6</ele><time>2026-04-28T07:20:20.447Z</time></trkpt><trkpt lat="44.27291" lon="8.1055423"><ele>837.0</ele><time>2026-04-28T07:20:22.447Z</time></trkpt><trkpt lat="44.272803" lon="8.1055154"><ele>837.0</ele><time>2026-04-28T07:20:24.448Z</time></trkpt><trkpt lat="44.2727683" lon="8.1053359"><ele>837.0</ele><time>2026-04-28T07:20:25.448Z</time></trkpt><trkpt lat="44.2727359" lon="8.1051067"><ele>837.0</ele><time>2026-04-28T07:20:26.448Z</time></trkpt><trkpt lat="44.2726905" lon="8.1048757"><ele>839.6666666666667</ele><time>2026-04-28T07:20:27.448Z</time></trkpt><trkpt lat="44.2726268" lon="8.1046609"><ele>842.3333333333334</ele><time>2026-04-28T07:20:28.448Z</time></trkpt><trkpt lat="44.2725294" lon="8.104461"><ele>845.0</ele><time>2026-04-28T07:20:29.447Z</time></trkpt><trkpt lat="44.2724012" lon="8.104299"><ele>841.0</ele><time>2026-04-28T07:20:30.448Z</time></trkpt><trkpt lat="44.2722584" lon="8.1041774"><ele>837.0</ele><time>2026-04-28T07:20:31.447Z</time></trkpt><trkpt lat="44.2721165" lon="8.1040545"><ele>833.0</ele><time>2026-04-28T07:20:32.447Z</time></trkpt><trkpt lat="44.2719932" lon="8.1039064"><ele>833.0</ele><time>2026-04-28T07:20:33.447Z</time></trkpt><trkpt lat="44.2718915" lon="8.1037432"><ele>833.0</ele><time>2026-04-28T07:20:34.446Z</time></trkpt><trkpt lat="44.2718019" lon="8.1035776"><ele>833.0</ele><time>2026-04-28T07:20:35.447Z</time></trkpt><trkpt lat="44.2717299" lon="8.1034069"><ele>833.0</ele><time>2026-04-28T07:20:36.446Z</time></trkpt><trkpt lat="44.2716798" lon="8.1032482"><ele>830.4</ele><time>2026-04-28T07:20:37.448Z</time></trkpt><trkpt lat="44.2716135" lon="8.1031472"><ele>827.8</ele><time>2026-04-28T07:20:38.448Z</time></trkpt><trkpt lat="44.2715285" lon="8.1031083"><ele>825.2</ele><time>2026-04-28T07:20:39.447Z</time></trkpt><trkpt lat="44.2714317" lon="8.1031529"><ele>822.6</ele><time>2026-04-28T07:20:40.448Z</time></trkpt><trkpt lat="44.2713471" lon="8.1032271"><ele>820.0</ele><time>2026-04-28T07:20:41.447Z</time></trkpt><trkpt lat="44.271281" lon="8.1033079"><ele>817.0</ele><time>2026-04-28T07:20:42.448Z</time></trkpt><trkpt lat="44.2712664" lon="8.1034317"><ele>814.0</ele><time>2026-04-28T07:20:43.448Z</time></trkpt><trkpt lat="44.2713143" lon="8.1035561"><ele>811.0</ele><time>2026-04-28T07:20:44.448Z</time></trkpt><trkpt lat="44.2716326" lon="8.103802"><ele>816.3333333333333</ele><time>2026-04-28T07:20:45.448Z</time></trkpt><trkpt lat="44.2717521" lon="8.1039661"><ele>821.6666666666667</ele><time>2026-04-28T07:20:46.448Z</time></trkpt><trkpt lat="44.2718713" lon="8.1041379"><ele>827.0</ele><time>2026-04-28T07:20:47.448Z</time></trkpt><trkpt lat="44.2719895" lon="8.1042997"><ele>827.0</ele><time>2026-04-28T07:20:48.448Z</time></trkpt><trkpt lat="44.2720873" lon="8.1044736"><ele>827.0</ele><time>2026-04-28T07:20:49.447Z</time></trkpt><trkpt lat="44.2721461" lon="8.104684"><ele>827.0</ele><time>2026-04-28T07:20:50.447Z</time></trkpt><trkpt lat="44.2721987" lon="8.1049112"><ele>830.3333333333334</ele><time>2026-04-28T07:20:51.448Z</time></trkpt><trkpt lat="44.2722266" lon="8.1051627"><ele>833.6666666666667</ele><time>2026-04-28T07:20:52.448Z</time></trkpt><trkpt lat="44.2722564" lon="8.1054155"><ele>837.0</ele><time>2026-04-28T07:20:53.447Z</time></trkpt><trkpt lat="44.2722783" lon="8.1056822"><ele>834.0</ele><time>2026-04-28T07:20:54.447Z</time></trkpt><trkpt lat="44.2723091" lon="8.1059504"><ele>831.0</ele><time>2026-04-28T07:20:55.447Z</time></trkpt><trkpt lat="44.2723341" lon="8.1062027"><ele>828.0</ele><time>2026-04-28T07:20:56.448Z</time></trkpt><trkpt lat="44.2723376" lon="8.1064466"><ele>824.3333333333333</ele><time>2026-04-28T07:20:57.448Z</time></trkpt><trkpt lat="44.2723118" lon="8.1066712"><ele>820.6666666666666</ele><time>2026-04-28T07:20:58.448Z</time></trkpt><trkpt lat="44.2722608" lon="8.1068774"><ele>817.0</ele><time>2026-04-28T07:20:59.447Z</time></trkpt><trkpt lat="44.272206" lon="8.1070708"><ele>813.25</ele><time>2026-04-28T07:21:00.448Z</time></trkpt><trkpt lat="44.2721692" lon="8.107278"><ele>809.5</ele><time>2026-04-28T07:21:01.448Z</time></trkpt><trkpt lat="44.2721487" lon="8.1074647"><ele>805.75</ele><time>2026-04-28T07:21:02.448Z</time></trkpt><trkpt lat="44.2721257" lon="8.1076516"><ele>802.0</ele><time>2026-04-28T07:21:03.448Z</time></trkpt><trkpt lat="44.2720879" lon="8.1078495"><ele>802.0</ele><time>2026-04-28T07:21:04.448Z</time></trkpt><trkpt lat="44.2720343" lon="8.1080273"><ele>802.0</ele><time>2026-04-28T07:21:05.448Z</time></trkpt><trkpt lat="44.2719181" lon="8.1082085"><ele>802.0</ele><time>2026-04-28T07:21:06.448Z</time></trkpt><trkpt lat="44.2718066" lon="8.1083236"><ele>802.5</ele><time>2026-04-28T07:21:07.448Z</time></trkpt><trkpt lat="44.2716988" lon="8.1084679"><ele>803.0</ele><time>2026-04-28T07:21:08.447Z</time></trkpt><trkpt lat="44.2716147" lon="8.1086267"><ele>803.5</ele><time>2026-04-28T07:21:09.447Z</time></trkpt><trkpt lat="44.2715396" lon="8.1087869"><ele>804.0</ele><time>2026-04-28T07:21:10.447Z</time></trkpt><trkpt lat="44.2715272" lon="8.1089598"><ele>804.8000000000001</ele><time>2026-04-28T07:21:11.447Z</time></trkpt><trkpt lat="44.2714941" lon="8.1091257"><ele>805.6</ele><time>2026-04-28T07:21:12.447Z</time></trkpt><trkpt lat="44.2714775" lon="8.1092704"><ele>806.4</ele><time>2026-04-28T07:21:13.447Z</time></trkpt><trkpt lat="44.2714038" lon="8.1093582"><ele>807.2</ele><time>2026-04-28T07:21:14.448Z</time></trkpt><trkpt lat="44.2713047" lon="8.1094301"><ele>808.0</ele><time>2026-04-28T07:21:15.448Z</time></trkpt><trkpt lat="44.271203" lon="8.109486"><ele>804.5</ele><time>2026-04-28T07:21:16.448Z</time></trkpt><trkpt lat="44.2710702" lon="8.1095771"><ele>801.0</ele><time>2026-04-28T07:21:17.447Z</time></trkpt><trkpt lat="44.2709415" lon="8.109642"><ele>797.5</ele><time>2026-04-28T07:21:18.447Z</time></trkpt><trkpt lat="44.2708152" lon="8.1097831"><ele>794.0</ele><time>2026-04-28T07:21:19.448Z</time></trkpt><trkpt lat="44.2706881" lon="8.1099225"><ele>783.6666666666667</ele><time>2026-04-28T07:21:20.448Z</time></trkpt><trkpt lat="44.2706022" lon="8.1101033"><ele>773.3333333333334</ele><time>2026-04-28T07:21:21.448Z</time></trkpt><trkpt lat="44.2705839" lon="8.1103222"><ele>763.0</ele><time>2026-04-28T07:21:22.447Z</time></trkpt><trkpt lat="44.2706042" lon="8.1105231"><ele>763.0</ele><time>2026-04-28T07:21:23.448Z</time></trkpt><trkpt lat="44.270614" lon="8.1106704"><ele>763.0</ele><time>2026-04-28T07:21:24.448Z</time></trkpt><trkpt lat="44.2705711" lon="8.1107501"><ele>763.0</ele><time>2026-04-28T07:21:25.448Z</time></trkpt><trkpt lat="44.2704802" lon="8.1107766"><ele>763.0</ele><time>2026-04-28T07:21:27.447Z</time></trkpt><trkpt lat="44.2704406" lon="8.110702"><ele>763.0</ele><time>2026-04-28T07:21:28.448Z</time></trkpt><trkpt lat="44.2704335" lon="8.1105417"><ele>763.0</ele><time>2026-04-28T07:21:29.448Z</time></trkpt><trkpt lat="44.2704367" lon="8.1103518"><ele>763.0</ele><time>2026-04-28T07:21:30.448Z</time></trkpt><trkpt lat="44.2704353" lon="8.110151"><ele>763.0</ele><time>2026-04-28T07:21:31.448Z</time></trkpt><trkpt lat="44.2704442" lon="8.1099499"><ele>763.0</ele><time>2026-04-28T07:21:32.448Z</time></trkpt><trkpt lat="44.2704826" lon="8.109769"><ele>766.5</ele><time>2026-04-28T07:21:33.447Z</time></trkpt><trkpt lat="44.270536" lon="8.1096057"><ele>770.0</ele><time>2026-04-28T07:21:34.447Z</time></trkpt><trkpt lat="44.270625" lon="8.1094377"><ele>773.5</ele><time>2026-04-28T07:21:35.448Z</time></trkpt><trkpt lat="44.2707482" lon="8.1092877"><ele>777.0</ele><time>2026-04-28T07:21:36.448Z</time></trkpt><trkpt lat="44.27087" lon="8.1091778"><ele>777.0</ele><time>2026-04-28T07:21:37.447Z</time></trkpt><trkpt lat="44.2709846" lon="8.1090935"><ele>777.0</ele><time>2026-04-28T07:21:38.448Z</time></trkpt><trkpt lat="44.2710684" lon="8.1090052"><ele>777.0</ele><time>2026-04-28T07:21:39.448Z</time></trkpt><trkpt lat="44.2711301" lon="8.1088967"><ele>777.0</ele><time>2026-04-28T07:21:40.447Z</time></trkpt><trkpt lat="44.2711846" lon="8.1087747"><ele>777.0</ele><time>2026-04-28T07:21:41.447Z</time></trkpt><trkpt lat="44.2711674" lon="8.1085393"><ele>776.0</ele><time>2026-04-28T07:21:42.448Z</time></trkpt><trkpt lat="44.2711441" lon="8.1082798"><ele>775.0</ele><time>2026-04-28T07:21:43.448Z</time></trkpt><trkpt lat="44.2711366" lon="8.1080464"><ele>774.0</ele><time>2026-04-28T07:21:44.448Z</time></trkpt><trkpt lat="44.2711198" lon="8.1078374"><ele>774.0</ele><time>2026-04-28T07:21:45.446Z</time></trkpt><trkpt lat="44.2710703" lon="8.1076563"><ele>774.0</ele><time>2026-04-28T07:21:46.447Z</time></trkpt><trkpt lat="44.2709852" lon="8.1075077"><ele>774.0</ele><time>2026-04-28T07:21:47.447Z</time></trkpt><trkpt lat="44.2708731" lon="8.1073887"><ele>774.0</ele><time>2026-04-28T07:21:48.446Z</time></trkpt><trkpt lat="44.2707375" lon="8.1072986"><ele>773.4000000000001</ele><time>2026-04-28T07:21:49.448Z</time></trkpt><trkpt lat="44.2706262" lon="8.1072147"><ele>772.8</ele><time>2026-04-28T07:21:50.448Z</time></trkpt><trkpt lat="44.2705275" lon="8.107152"><ele>772.2</ele><time>2026-04-28T07:21:51.448Z</time></trkpt><trkpt lat="44.2704327" lon="8.1071566"><ele>771.5999999999999</ele><time>2026-04-28T07:21:52.448Z</time></trkpt><trkpt lat="44.2703617" lon="8.1072314"><ele>771.0</ele><time>2026-04-28T07:21:53.447Z</time></trkpt><trkpt lat="44.2703087" lon="8.1073281"><ele>771.75</ele><time>2026-04-28T07:21:54.448Z</time></trkpt><trkpt lat="44.2702685" lon="8.1074162"><ele>772.5</ele><time>2026-04-28T07:21:55.448Z</time></trkpt><trkpt lat="44.2703272" lon="8.1074781"><ele>773.25</ele><time>2026-04-28T07:21:56.448Z</time></trkpt><trkpt lat="44.2705113" lon="8.107581"><ele>774.0</ele><time>2026-04-28T07:21:57.447Z</time></trkpt><trkpt lat="44.2706831" lon="8.1077144"><ele>774.0</ele><time>2026-04-28T07:21:58.448Z</time></trkpt><trkpt lat="44.2707886" lon="8.1078643"><ele>774.0</ele><time>2026-04-28T07:21:59.448Z</time></trkpt><trkpt lat="44.2708379" lon="8.1080506"><ele>774.0</ele><time>2026-04-28T07:22:00.448Z</time></trkpt><trkpt lat="44.2708394" lon="8.108257"><ele>774.0</ele><time>2026-04-28T07:22:01.448Z</time></trkpt><trkpt lat="44.2708175" lon="8.1084569"><ele>772.0</ele><time>2026-04-28T07:22:02.448Z</time></trkpt><trkpt lat="44.2707722" lon="8.1086244"><ele>770.0</ele><time>2026-04-28T07:22:03.448Z</time></trkpt><trkpt lat="44.2706914" lon="8.1087591"><ele>768.0</ele><time>2026-04-28T07:22:04.447Z</time></trkpt><trkpt lat="44.2705705" lon="8.1088663"><ele>766.0</ele><time>2026-04-28T07:22:05.448Z</time></trkpt><trkpt lat="44.2704195" lon="8.108954"><ele>759.6666666666667</ele><time>2026-04-28T07:22:06.448Z</time></trkpt><trkpt lat="44.2702635" lon="8.1090485"><ele>753.3333333333334</ele><time>2026-04-28T07:22:07.447Z</time></trkpt><trkpt lat="44.270109" lon="8.1091441"><ele>747.0</ele><time>2026-04-28T07:22:08.448Z</time></trkpt><trkpt lat="44.269955" lon="8.1092486"><ele>747.0</ele><time>2026-04-28T07:22:09.447Z</time></trkpt><trkpt lat="44.2698076" lon="8.1093417"><ele>747.0</ele><time>2026-04-28T07:22:10.447Z</time></trkpt><trkpt lat="44.2696688" lon="8.1094162"><ele>747.0</ele><time>2026-04-28T07:22:11.447Z</time></trkpt><trkpt lat="44.2695573" lon="8.1094746"><ele>747.0</ele><time>2026-04-28T07:22:12.447Z</time></trkpt><trkpt lat="44.2694828" lon="8.1095512"><ele>743.0</ele><time>2026-04-28T07:22:13.447Z</time></trkpt><trkpt lat="44.2694513" lon="8.1096588"><ele>739.0</ele><time>2026-04-28T07:22:14.447Z</time></trkpt><trkpt lat="44.2694653" lon="8.1097734"><ele>735.0</ele><time>2026-04-28T07:22:15.448Z</time></trkpt><trkpt lat="44.2694963" lon="8.1098743"><ele>731.0</ele><time>2026-04-28T07:22:16.447Z</time></trkpt><trkpt lat="44.2695774" lon="8.10999"><ele>727.0</ele><time>2026-04-28T07:22:17.448Z</time></trkpt><trkpt lat="44.2696709" lon="8.1101256"><ele>727.0</ele><time>2026-04-28T07:22:18.447Z</time></trkpt><trkpt lat="44.2697026" lon="8.110266"><ele>727.0</ele><time>2026-04-28T07:22:19.446Z</time></trkpt><trkpt lat="44.2697046" lon="8.1104126"><ele>727.0</ele><time>2026-04-28T07:22:20.448Z</time></trkpt><trkpt lat="44.2696776" lon="8.1105845"><ele>727.0</ele><time>2026-04-28T07:22:21.448Z</time></trkpt><trkpt lat="44.2696353" lon="8.1108098"><ele>723.6666666666667</ele><time>2026-04-28T07:22:22.448Z</time></trkpt><trkpt lat="44.2696211" lon="8.111035"><ele>720.3333333333334</ele><time>2026-04-28T07:22:23.447Z</time></trkpt><trkpt lat="44.2696319" lon="8.1112427"><ele>717.0</ele><time>2026-04-28T07:22:24.447Z</time></trkpt><trkpt lat="44.269665" lon="8.1114474"><ele>715.25</ele><time>2026-04-28T07:22:25.447Z</time></trkpt><trkpt lat="44.2697281" lon="8.111647"><ele>713.5</ele><time>2026-04-28T07:22:26.448Z</time></trkpt><trkpt lat="44.2697877" lon="8.1118204"><ele>711.75</ele><time>2026-04-28T07:22:27.448Z</time></trkpt><trkpt lat="44.2698389" lon="8.1119715"><ele>710.0</ele><time>2026-04-28T07:22:28.447Z</time></trkpt><trkpt lat="44.2698916" lon="8.1121041"><ele>719.75</ele><time>2026-04-28T07:22:29.447Z</time></trkpt><trkpt lat="44.2699424" lon="8.1122193"><ele>729.5</ele><time>2026-04-28T07:22:30.448Z</time></trkpt><trkpt lat="44.2700832" lon="8.1121866"><ele>739.25</ele><time>2026-04-28T07:22:32.448Z</time></trkpt><trkpt lat="44.270248" lon="8.1120698"><ele>749.0</ele><time>2026-04-28T07:22:33.448Z</time></trkpt><trkpt lat="44.2703958" lon="8.1119929"><ele>749.0</ele><time>2026-04-28T07:22:34.447Z</time></trkpt><trkpt lat="44.2705214" lon="8.1119541"><ele>749.0</ele><time>2026-04-28T07:22:35.447Z</time></trkpt><trkpt lat="44.270613" lon="8.1120155"><ele>749.0</ele><time>2026-04-28T07:22:36.447Z</time></trkpt><trkpt lat="44.2706684" lon="8.1121315"><ele>749.0</ele><time>2026-04-28T07:22:37.447Z</time></trkpt><trkpt lat="44.2706682" lon="8.1123339"><ele>747.6666666666666</ele><time>2026-04-28T07:22:38.448Z</time></trkpt><trkpt lat="44.2706536" lon="8.1125556"><ele>746.3333333333334</ele><time>2026-04-28T07:22:39.448Z</time></trkpt><trkpt lat="44.2706363" lon="8.1127834"><ele>745.0</ele><time>2026-04-28T07:22:40.448Z</time></trkpt><trkpt lat="44.2706169" lon="8.1130115"><ele>739.0</ele><time>2026-04-28T07:22:41.448Z</time></trkpt><trkpt lat="44.2706052" lon="8.1132274"><ele>733.0</ele><time>2026-04-28T07:22:42.448Z</time></trkpt><trkpt lat="44.2705935" lon="8.1134404"><ele>727.0</ele><time>2026-04-28T07:22:43.447Z</time></trkpt><trkpt lat="44.2706256" lon="8.1135711"><ele>721.0</ele><time>2026-04-28T07:22:44.447Z</time></trkpt><trkpt lat="44.2706446" lon="8.1136591"><ele>721.0</ele><time>2026-04-28T07:22:45.448Z</time></trkpt><trkpt lat="44.270659" lon="8.1137952"><ele>721.0</ele><time>2026-04-28T07:22:47.447Z</time></trkpt><trkpt lat="44.270601" lon="8.1137025"><ele>721.0</ele><time>2026-04-28T07:22:48.447Z</time></trkpt><trkpt lat="44.2705644" lon="8.1135555"><ele>721.0</ele><time>2026-04-28T07:22:49.447Z</time></trkpt><trkpt lat="44.2705409" lon="8.1133928"><ele>721.0</ele><time>2026-04-28T07:22:50.447Z</time></trkpt><trkpt lat="44.2705213" lon="8.1132097"><ele>721.0</ele><time>2026-04-28T07:22:51.448Z</time></trkpt><trkpt lat="44.2704975" lon="8.1130102"><ele>721.0</ele><time>2026-04-28T07:22:52.448Z</time></trkpt><trkpt lat="44.2704761" lon="8.1128117"><ele>721.0</ele><time>2026-04-28T07:22:53.448Z</time></trkpt><trkpt lat="44.2704577" lon="8.11263"><ele>721.0</ele><time>2026-04-28T07:22:54.447Z</time></trkpt><trkpt lat="44.2704328" lon="8.1124751"><ele>726.5999999999999</ele><time>2026-04-28T07:22:55.447Z</time></trkpt><trkpt lat="44.2703867" lon="8.1123545"><ele>732.2</ele><time>2026-04-28T07:22:56.446Z</time></trkpt><trkpt lat="44.270319" lon="8.1122446"><ele>737.8</ele><time>2026-04-28T07:22:57.446Z</time></trkpt><trkpt lat="44.2702331" lon="8.1122091"><ele>743.4000000000001</ele><time>2026-04-28T07:22:58.447Z</time></trkpt><trkpt lat="44.2701362" lon="8.112285"><ele>749.0</ele><time>2026-04-28T07:22:59.447Z</time></trkpt><trkpt lat="44.2700257" lon="8.1123927"><ele>742.0</ele><time>2026-04-28T07:23:00.448Z</time></trkpt><trkpt lat="44.2699121" lon="8.1124852"><ele>735.0</ele><time>2026-04-28T07:23:01.448Z</time></trkpt><trkpt lat="44.2697708" lon="8.1124899"><ele>728.0</ele><time>2026-04-28T07:23:02.448Z</time></trkpt><trkpt lat="44.2696402" lon="8.1124988"><ele>721.0</ele><time>2026-04-28T07:23:03.448Z</time></trkpt><trkpt lat="44.2694995" lon="8.1124549"><ele>718.25</ele><time>2026-04-28T07:23:04.448Z</time></trkpt><trkpt lat="44.2693659" lon="8.1123966"><ele>715.5</ele><time>2026-04-28T07:23:05.446Z</time></trkpt><trkpt lat="44.2692581" lon="8.1123367"><ele>712.75</ele><time>2026-04-28T07:23:06.448Z</time></trkpt><trkpt lat="44.2692003" lon="8.1122171"><ele>710.0</ele><time>2026-04-28T07:23:07.448Z</time></trkpt><trkpt lat="44.269189" lon="8.1120462"><ele>710.0</ele><time>2026-04-28T07:23:08.448Z</time></trkpt><trkpt lat="44.2691864" lon="8.1118518"><ele>710.0</ele><time>2026-04-28T07:23:09.447Z</time></trkpt><trkpt lat="44.2691735" lon="8.1116576"><ele>710.0</ele><time>2026-04-28T07:23:10.448Z</time></trkpt><trkpt lat="44.2691331" lon="8.1114775"><ele>710.0</ele><time>2026-04-28T07:23:11.448Z</time></trkpt><trkpt lat="44.2690511" lon="8.1113169"><ele>711.75</ele><time>2026-04-28T07:23:12.448Z</time></trkpt><trkpt lat="44.2689733" lon="8.1111631"><ele>713.5</ele><time>2026-04-28T07:23:13.447Z</time></trkpt><trkpt lat="44.2689494" lon="8.110994"><ele>715.25</ele><time>2026-04-28T07:23:14.446Z</time></trkpt><trkpt lat="44.2689694" lon="8.1108277"><ele>717.0</ele><time>2026-04-28T07:23:15.447Z</time></trkpt><trkpt lat="44.2689938" lon="8.1106889"><ele>719.0</ele><time>2026-04-28T07:23:16.448Z</time></trkpt><trkpt lat="44.2689894" lon="8.1105866"><ele>721.0</ele><time>2026-04-28T07:23:17.448Z</time></trkpt><trkpt lat="44.26891" lon="8.1105363"><ele>723.0</ele><time>2026-04-28T07:23:19.448Z</time></trkpt><trkpt lat="44.2688663" lon="8.1106061"><ele>725.0</ele><time>2026-04-28T07:23:20.448Z</time></trkpt><trkpt lat="44.2688532" lon="8.1107558"><ele>727.0</ele><time>2026-04-28T07:23:21.447Z</time></trkpt><trkpt lat="44.2688469" lon="8.110933"><ele>722.75</ele><time>2026-04-28T07:23:22.447Z</time></trkpt><trkpt lat="44.2688519" lon="8.1111152"><ele>718.5</ele><time>2026-04-28T07:23:23.447Z</time></trkpt><trkpt lat="44.2688608" lon="8.1112929"><ele>714.25</ele><time>2026-04-28T07:23:24.447Z</time></trkpt><trkpt lat="44.2689292" lon="8.1114629"><ele>710.0</ele><time>2026-04-28T07:23:25.446Z</time></trkpt><trkpt lat="44.2689865" lon="8.1116287"><ele>710.0</ele><time>2026-04-28T07:23:26.447Z</time></trkpt><trkpt lat="44.269008" lon="8.1117969"><ele>710.0</ele><time>2026-04-28T07:23:27.447Z</time></trkpt><trkpt lat="44.2689843" lon="8.1119768"><ele>710.0</ele><time>2026-04-28T07:23:28.447Z</time></trkpt><trkpt lat="44.2689414" lon="8.1121551"><ele>710.0</ele><time>2026-04-28T07:23:29.448Z</time></trkpt><trkpt lat="44.2689124" lon="8.1123289"><ele>706.5</ele><time>2026-04-28T07:23:30.447Z</time></trkpt><trkpt lat="44.2688981" lon="8.1124973"><ele>703.0</ele><time>2026-04-28T07:23:31.448Z</time></trkpt><trkpt lat="44.2689723" lon="8.1126346"><ele>699.5</ele><time>2026-04-28T07:23:32.448Z</time></trkpt><trkpt lat="44.2690999" lon="8.1127516"><ele>696.0</ele><time>2026-04-28T07:23:33.448Z</time></trkpt><trkpt lat="44.2692938" lon="8.1128279"><ele>696.0</ele><time>2026-04-28T07:23:34.447Z</time></trkpt><trkpt lat="44.2694108" lon="8.1129348"><ele>696.0</ele><time>2026-04-28T07:23:35.447Z</time></trkpt><trkpt lat="44.269534" lon="8.113038"><ele>696.0</ele><time>2026-04-28T07:23:36.446Z</time></trkpt><trkpt lat="44.2696144" lon="8.113163"><ele>696.0</ele><time>2026-04-28T07:23:37.448Z</time></trkpt><trkpt lat="44.2696834" lon="8.1133087"><ele>692.0</ele><time>2026-04-28T07:23:38.448Z</time></trkpt><trkpt lat="44.2697507" lon="8.1134303"><ele>688.0</ele><time>2026-04-28T07:23:39.448Z</time></trkpt><trkpt lat="44.2697348" lon="8.1136156"><ele>684.0</ele><time>2026-04-28T07:23:40.446Z</time></trkpt><trkpt lat="44.2697573" lon="8.1137629"><ele>680.0</ele><time>2026-04-28T07:23:41.448Z</time></trkpt><trkpt lat="44.2697138" lon="8.1139878"><ele>677.5</ele><time>2026-04-28T07:23:42.448Z</time></trkpt><trkpt lat="44.2697055" lon="8.1141647"><ele>675.0</ele><time>2026-04-28T07:23:43.447Z</time></trkpt><trkpt lat="44.2696991" lon="8.1143241"><ele>672.5</ele><time>2026-04-28T07:23:44.448Z</time></trkpt><trkpt lat="44.269736" lon="8.1145095"><ele>670.0</ele><time>2026-04-28T07:23:45.448Z</time></trkpt><trkpt lat="44.2697709" lon="8.1146837"><ele>672.0</ele><time>2026-04-28T07:23:46.447Z</time></trkpt><trkpt lat="44.2698622" lon="8.1148276"><ele>674.0</ele><time>2026-04-28T07:23:47.447Z</time></trkpt><trkpt lat="44.2699274" lon="8.1149542"><ele>676.0</ele><time>2026-04-28T07:23:48.448Z</time></trkpt><trkpt lat="44.2699659" lon="8.11506"><ele>678.0</ele><time>2026-04-28T07:23:49.446Z</time></trkpt><trkpt lat="44.2699058" lon="8.1151695"><ele>680.0</ele><time>2026-04-28T07:23:51.448Z</time></trkpt><trkpt lat="44.2697865" lon="8.1150994"><ele>677.5</ele><time>2026-04-28T07:23:53.448Z</time></trkpt><trkpt lat="44.2697232" lon="8.115036"><ele>675.0</ele><time>2026-04-28T07:23:54.448Z</time></trkpt><trkpt lat="44.2696406" lon="8.1148772"><ele>672.5</ele><time>2026-04-28T07:23:55.447Z</time></trkpt><trkpt lat="44.2695138" lon="8.1147692"><ele>670.0</ele><time>2026-04-28T07:23:56.448Z</time></trkpt><trkpt lat="44.2693893" lon="8.1146066"><ele>670.0</ele><time>2026-04-28T07:23:57.448Z</time></trkpt><trkpt lat="44.2692755" lon="8.1144382"><ele>670.0</ele><time>2026-04-28T07:23:58.447Z</time></trkpt><trkpt lat="44.2691734" lon="8.1142428"><ele>670.0</ele><time>2026-04-28T07:23:59.447Z</time></trkpt><trkpt lat="44.2690803" lon="8.1140435"><ele>673.3333333333334</ele><time>2026-04-28T07:24:00.448Z</time></trkpt><trkpt lat="44.2689798" lon="8.1138279"><ele>676.6666666666666</ele><time>2026-04-28T07:24:01.448Z</time></trkpt><trkpt lat="44.2688761" lon="8.1136198"><ele>680.0</ele><time>2026-04-28T07:24:02.446Z</time></trkpt><trkpt lat="44.2687698" lon="8.113423"><ele>673.6666666666666</ele><time>2026-04-28T07:24:03.448Z</time></trkpt><trkpt lat="44.2686653" lon="8.1132307"><ele>667.3333333333334</ele><time>2026-04-28T07:24:04.447Z</time></trkpt><trkpt lat="44.26856" lon="8.1130402"><ele>661.0</ele><time>2026-04-28T07:24:05.447Z</time></trkpt><trkpt lat="44.2684907" lon="8.1128392"><ele>661.0</ele><time>2026-04-28T07:24:06.446Z</time></trkpt><trkpt lat="44.2684237" lon="8.1126292"><ele>661.0</ele><time>2026-04-28T07:24:07.447Z</time></trkpt><trkpt lat="44.268369" lon="8.1124176"><ele>661.0</ele><time>2026-04-28T07:24:08.448Z</time></trkpt><trkpt lat="44.2683501" lon="8.112228"><ele>662.4</ele><time>2026-04-28T07:24:09.448Z</time></trkpt><trkpt lat="44.2683541" lon="8.1120555"><ele>663.8</ele><time>2026-04-28T07:24:10.448Z</time></trkpt><trkpt lat="44.268337" lon="8.1118951"><ele>665.1999999999999</ele><time>2026-04-28T07:24:11.448Z</time></trkpt><trkpt lat="44.2683159" lon="8.1117614"><ele>666.5999999999999</ele><time>2026-04-28T07:24:12.448Z</time></trkpt><trkpt lat="44.2682608" lon="8.1116265"><ele>668.0</ele><time>2026-04-28T07:24:13.447Z</time></trkpt><trkpt lat="44.2681096" lon="8.1114913"><ele>659.3333333333333</ele><time>2026-04-28T07:24:14.448Z</time></trkpt><trkpt lat="44.2680222" lon="8.111308"><ele>650.6666666666666</ele><time>2026-04-28T07:24:15.448Z</time></trkpt><trkpt lat="44.2679297" lon="8.1111142"><ele>642.0</ele><time>2026-04-28T07:24:16.448Z</time></trkpt><trkpt lat="44.2678251" lon="8.1109276"><ele>642.0</ele><time>2026-04-28T07:24:17.448Z</time></trkpt><trkpt lat="44.2677381" lon="8.1107441"><ele>642.0</ele><time>2026-04-28T07:24:18.446Z</time></trkpt><trkpt lat="44.2676699" lon="8.1105868"><ele>642.0</ele><time>2026-04-28T07:24:19.447Z</time></trkpt><trkpt lat="44.267613" lon="8.1104756"><ele>642.0</ele><time>2026-04-28T07:24:20.447Z</time></trkpt><trkpt lat="44.267553" lon="8.1103823"><ele>642.0</ele><time>2026-04-28T07:24:21.448Z</time></trkpt><trkpt lat="44.2674866" lon="8.1103505"><ele>642.0</ele><time>2026-04-28T07:24:22.447Z</time></trkpt><trkpt lat="44.2674282" lon="8.1104245"><ele>642.0</ele><time>2026-04-28T07:24:23.448Z</time></trkpt><trkpt lat="44.2673669" lon="8.1105607"><ele>642.0</ele><time>2026-04-28T07:24:25.447Z</time></trkpt><trkpt lat="44.2673961" lon="8.1107074"><ele>642.0</ele><time>2026-04-28T07:24:26.446Z</time></trkpt><trkpt lat="44.2675454" lon="8.1110036"><ele>642.0</ele><time>2026-04-28T07:24:27.447Z</time></trkpt><trkpt lat="44.2675954" lon="8.1111803"><ele>642.0</ele><time>2026-04-28T07:24:28.448Z</time></trkpt><trkpt lat="44.2676576" lon="8.1113985"><ele>642.0</ele><time>2026-04-28T07:24:29.448Z</time></trkpt><trkpt lat="44.2677224" lon="8.1116094"><ele>640.6666666666666</ele><time>2026-04-28T07:24:30.448Z</time></trkpt><trkpt lat="44.267785" lon="8.1118107"><ele>639.3333333333333</ele><time>2026-04-28T07:24:31.448Z</time></trkpt><trkpt lat="44.2678365" lon="8.1120124"><ele>638.0</ele><time>2026-04-28T07:24:32.448Z</time></trkpt><trkpt lat="44.2678564" lon="8.112218"><ele>636.0</ele><time>2026-04-28T07:24:33.447Z</time></trkpt><trkpt lat="44.2678453" lon="8.1124207"><ele>634.0</ele><time>2026-04-28T07:24:34.446Z</time></trkpt><trkpt lat="44.2678201" lon="8.1126278"><ele>632.0</ele><time>2026-04-28T07:24:35.448Z</time></trkpt><trkpt lat="44.2677897" lon="8.1128495"><ele>632.0</ele><time>2026-04-28T07:24:36.447Z</time></trkpt><trkpt lat="44.2677549" lon="8.1130836"><ele>632.0</ele><time>2026-04-28T07:24:37.447Z</time></trkpt><trkpt lat="44.2677082" lon="8.1133223"><ele>632.0</ele><time>2026-04-28T07:24:38.448Z</time></trkpt><trkpt lat="44.2676538" lon="8.1135586"><ele>630.6666666666666</ele><time>2026-04-28T07:24:39.448Z</time></trkpt><trkpt lat="44.2675969" lon="8.1138009"><ele>629.3333333333334</ele><time>2026-04-28T07:24:40.448Z</time></trkpt><trkpt lat="44.2675347" lon="8.1140411"><ele>628.0</ele><time>2026-04-28T07:24:41.447Z</time></trkpt><trkpt lat="44.2674734" lon="8.1142827"><ele>627.6666666666667</ele><time>2026-04-28T07:24:42.447Z</time></trkpt><trkpt lat="44.2674042" lon="8.1145362"><ele>627.3333333333334</ele><time>2026-04-28T07:24:43.447Z</time></trkpt><trkpt lat="44.2673283" lon="8.1147955"><ele>627.0</ele><time>2026-04-28T07:24:44.448Z</time></trkpt><trkpt lat="44.2672459" lon="8.1150551"><ele>626.0</ele><time>2026-04-28T07:24:45.447Z</time></trkpt><trkpt lat="44.2671553" lon="8.1153082"><ele>625.0</ele><time>2026-04-28T07:24:46.448Z</time></trkpt><trkpt lat="44.2670695" lon="8.1155508"><ele>624.0</ele><time>2026-04-28T07:24:47.447Z</time></trkpt><trkpt lat="44.266986" lon="8.1157856"><ele>624.0</ele><time>2026-04-28T07:24:48.447Z</time></trkpt><trkpt lat="44.266904" lon="8.1160084"><ele>624.0</ele><time>2026-04-28T07:24:49.447Z</time></trkpt><trkpt lat="44.2668235" lon="8.1162277"><ele>624.0</ele><time>2026-04-28T07:24:50.448Z</time></trkpt><trkpt lat="44.2667513" lon="8.1164466"><ele>623.0</ele><time>2026-04-28T07:24:51.447Z</time></trkpt><trkpt lat="44.2666844" lon="8.1166598"><ele>622.0</ele><time>2026-04-28T07:24:52.448Z</time></trkpt><trkpt lat="44.2666123" lon="8.1168536"><ele>621.0</ele><time>2026-04-28T07:24:53.446Z</time></trkpt><trkpt lat="44.2665367" lon="8.1170624"><ele>621.0</ele><time>2026-04-28T07:24:54.448Z</time></trkpt><trkpt lat="44.2664626" lon="8.1172395"><ele>621.0</ele><time>2026-04-28T07:24:55.447Z</time></trkpt><trkpt lat="44.2663841" lon="8.1174248"><ele>621.0</ele><time>2026-04-28T07:24:56.448Z</time></trkpt><trkpt lat="44.2663052" lon="8.1175962"><ele>621.0</ele><time>2026-04-28T07:24:57.448Z</time></trkpt><trkpt lat="44.2662031" lon="8.1177196"><ele>624.3333333333334</ele><time>2026-04-28T07:24:58.448Z</time></trkpt><trkpt lat="44.2660718" lon="8.1177999"><ele>627.6666666666667</ele><time>2026-04-28T07:24:59.446Z</time></trkpt><trkpt lat="44.2659239" lon="8.1178437"><ele>631.0</ele><time>2026-04-28T07:25:00.447Z</time></trkpt><trkpt lat="44.2657619" lon="8.1178648"><ele>632.3333333333334</ele><time>2026-04-28T07:25:01.448Z</time></trkpt><trkpt lat="44.2655953" lon="8.1178831"><ele>633.6666666666666</ele><time>2026-04-28T07:25:02.447Z</time></trkpt><trkpt lat="44.2654202" lon="8.1178936"><ele>635.0</ele><time>2026-04-28T07:25:03.448Z</time></trkpt><trkpt lat="44.2652345" lon="8.1179155"><ele>635.0</ele><time>2026-04-28T07:25:04.447Z</time></trkpt><trkpt lat="44.26505" lon="8.1179538"><ele>635.0</ele><time>2026-04-28T07:25:05.448Z</time></trkpt><trkpt lat="44.2648645" lon="8.1180151"><ele>635.0</ele><time>2026-04-28T07:25:06.448Z</time></trkpt><trkpt lat="44.2646833" lon="8.1180945"><ele>638.0</ele><time>2026-04-28T07:25:07.447Z</time></trkpt><trkpt lat="44.2644986" lon="8.1181865"><ele>641.0</ele><time>2026-04-28T07:25:08.448Z</time></trkpt><trkpt lat="44.2643091" lon="8.1182797"><ele>644.0</ele><time>2026-04-28T07:25:09.447Z</time></trkpt><trkpt lat="44.2641276" lon="8.1183627"><ele>640.0</ele><time>2026-04-28T07:25:10.448Z</time></trkpt><trkpt lat="44.2639451" lon="8.1184507"><ele>636.0</ele><time>2026-04-28T07:25:11.448Z</time></trkpt><trkpt lat="44.2637609" lon="8.1185434"><ele>632.0</ele><time>2026-04-28T07:25:12.448Z</time></trkpt><trkpt lat="44.2635919" lon="8.1186354"><ele>632.0</ele><time>2026-04-28T07:25:13.448Z</time></trkpt><trkpt lat="44.2634275" lon="8.1187148"><ele>632.0</ele><time>2026-04-28T07:25:14.449Z</time></trkpt><trkpt lat="44.2632644" lon="8.1187858"><ele>632.0</ele><time>2026-04-28T07:25:15.448Z</time></trkpt><trkpt lat="44.2631146" lon="8.1188427"><ele>635.0</ele><time>2026-04-28T07:25:16.449Z</time></trkpt><trkpt lat="44.262967" lon="8.1189041"><ele>638.0</ele><time>2026-04-28T07:25:17.449Z</time></trkpt><trkpt lat="44.2628201" lon="8.118951"><ele>641.0</ele><time>2026-04-28T07:25:18.447Z</time></trkpt><trkpt lat="44.2626686" lon="8.1189752"><ele>641.0</ele><time>2026-04-28T07:25:19.449Z</time></trkpt><trkpt lat="44.2625109" lon="8.119009"><ele>641.0</ele><time>2026-04-28T07:25:20.449Z</time></trkpt><trkpt lat="44.262353" lon="8.1190606"><ele>641.0</ele><time>2026-04-28T07:25:21.449Z</time></trkpt><trkpt lat="44.2621965" lon="8.1191386"><ele>639.6666666666666</ele><time>2026-04-28T07:25:22.448Z</time></trkpt><trkpt lat="44.2620394" lon="8.1192222"><ele>638.3333333333334</ele><time>2026-04-28T07:25:23.448Z</time></trkpt><trkpt lat="44.2618754" lon="8.1192906"><ele>637.0</ele><time>2026-04-28T07:25:24.449Z</time></trkpt><trkpt lat="44.2617018" lon="8.1193251"><ele>637.0</ele><time>2026-04-28T07:25:25.447Z</time></trkpt><trkpt lat="44.2615202" lon="8.1193235"><ele>637.0</ele><time>2026-04-28T07:25:26.448Z</time></trkpt><trkpt lat="44.2613322" lon="8.1193142"><ele>637.0</ele><time>2026-04-28T07:25:27.448Z</time></trkpt><trkpt lat="44.2611423" lon="8.1193288"><ele>636.6666666666667</ele><time>2026-04-28T07:25:28.448Z</time></trkpt><trkpt lat="44.2609543" lon="8.1193864"><ele>636.3333333333334</ele><time>2026-04-28T07:25:29.448Z</time></trkpt><trkpt lat="44.2607699" lon="8.1194868"><ele>636.0</ele><time>2026-04-28T07:25:30.448Z</time></trkpt><trkpt lat="44.2605908" lon="8.1196174"><ele>634.3333333333334</ele><time>2026-04-28T07:25:31.449Z</time></trkpt><trkpt lat="44.2604144" lon="8.1197607"><ele>632.6666666666667</ele><time>2026-04-28T07:25:32.448Z</time></trkpt><trkpt lat="44.2602392" lon="8.1199054"><ele>631.0</ele><time>2026-04-28T07:25:33.449Z</time></trkpt><trkpt lat="44.2600694" lon="8.1200498"><ele>631.0</ele><time>2026-04-28T07:25:34.448Z</time></trkpt><trkpt lat="44.2599108" lon="8.1201826"><ele>631.0</ele><time>2026-04-28T07:25:35.449Z</time></trkpt><trkpt lat="44.2597584" lon="8.1202996"><ele>631.0</ele><time>2026-04-28T07:25:36.448Z</time></trkpt><trkpt lat="44.2596061" lon="8.1203813"><ele>631.0</ele><time>2026-04-28T07:25:37.449Z</time></trkpt><trkpt lat="44.259446" lon="8.1204023"><ele>631.0</ele><time>2026-04-28T07:25:38.448Z</time></trkpt><trkpt lat="44.2592859" lon="8.1203522"><ele>631.0</ele><time>2026-04-28T07:25:39.449Z</time></trkpt><trkpt lat="44.259148" lon="8.1202445"><ele>631.0</ele><time>2026-04-28T07:25:40.448Z</time></trkpt><trkpt lat="44.2590499" lon="8.1201248"><ele>631.0</ele><time>2026-04-28T07:25:41.448Z</time></trkpt><trkpt lat="44.2589488" lon="8.1200508"><ele>631.0</ele><time>2026-04-28T07:25:42.448Z</time></trkpt><trkpt lat="44.2588233" lon="8.1200372"><ele>631.0</ele><time>2026-04-28T07:25:43.448Z</time></trkpt><trkpt lat="44.2586775" lon="8.1200718"><ele>627.6666666666667</ele><time>2026-04-28T07:25:44.449Z</time></trkpt><trkpt lat="44.2585139" lon="8.1201155"><ele>624.3333333333334</ele><time>2026-04-28T07:25:45.449Z</time></trkpt><trkpt lat="44.2583527" lon="8.1201428"><ele>621.0</ele><time>2026-04-28T07:25:46.449Z</time></trkpt><trkpt lat="44.2581978" lon="8.1201434"><ele>623.0</ele><time>2026-04-28T07:25:47.449Z</time></trkpt><trkpt lat="44.2580612" lon="8.1201001"><ele>625.0</ele><time>2026-04-28T07:25:48.449Z</time></trkpt><trkpt lat="44.2579457" lon="8.1199968"><ele>627.0</ele><time>2026-04-28T07:25:49.448Z</time></trkpt><trkpt lat="44.2578555" lon="8.1198385"><ele>629.0</ele><time>2026-04-28T07:25:50.448Z</time></trkpt><trkpt lat="44.2577809" lon="8.1196413"><ele>629.3333333333333</ele><time>2026-04-28T07:25:51.449Z</time></trkpt><trkpt lat="44.2577101" lon="8.119424"><ele>629.6666666666666</ele><time>2026-04-28T07:25:52.449Z</time></trkpt><trkpt lat="44.2576282" lon="8.1191982"><ele>630.0</ele><time>2026-04-28T07:25:53.449Z</time></trkpt><trkpt lat="44.2575553" lon="8.118968"><ele>630.3333333333334</ele><time>2026-04-28T07:25:54.448Z</time></trkpt><trkpt lat="44.2574933" lon="8.1187253"><ele>630.6666666666667</ele><time>2026-04-28T07:25:55.448Z</time></trkpt><trkpt lat="44.2574425" lon="8.1184643"><ele>631.0</ele><time>2026-04-28T07:25:56.449Z</time></trkpt><trkpt lat="44.2574031" lon="8.1181889"><ele>629.3333333333334</ele><time>2026-04-28T07:25:57.447Z</time></trkpt><trkpt lat="44.257367" lon="8.117916"><ele>627.6666666666666</ele><time>2026-04-28T07:25:58.449Z</time></trkpt><trkpt lat="44.2573176" lon="8.1176613"><ele>626.0</ele><time>2026-04-28T07:25:59.449Z</time></trkpt><trkpt lat="44.2572247" lon="8.1174185"><ele>631.0</ele><time>2026-04-28T07:26:00.449Z</time></trkpt><trkpt lat="44.2570901" lon="8.1171933"><ele>636.0</ele><time>2026-04-28T07:26:01.448Z</time></trkpt><trkpt lat="44.2569574" lon="8.1169727"><ele>641.0</ele><time>2026-04-28T07:26:02.449Z</time></trkpt><trkpt lat="44.2568363" lon="8.1167352"><ele>636.6666666666666</ele><time>2026-04-28T07:26:03.448Z</time></trkpt><trkpt lat="44.2567262" lon="8.116487"><ele>632.3333333333334</ele><time>2026-04-28T07:26:04.449Z</time></trkpt><trkpt lat="44.256618" lon="8.1162381"><ele>628.0</ele><time>2026-04-28T07:26:05.447Z</time></trkpt><trkpt lat="44.2565101" lon="8.1159979"><ele>627.6666666666667</ele><time>2026-04-28T07:26:06.448Z</time></trkpt><trkpt lat="44.25638" lon="8.1157858"><ele>627.3333333333334</ele><time>2026-04-28T07:26:07.448Z</time></trkpt><trkpt lat="44.2562308" lon="8.1156004"><ele>627.0</ele><time>2026-04-28T07:26:08.449Z</time></trkpt><trkpt lat="44.2560806" lon="8.1154116"><ele>627.0</ele><time>2026-04-28T07:26:09.449Z</time></trkpt><trkpt lat="44.2558909" lon="8.1153237"><ele>627.0</ele><time>2026-04-28T07:26:10.449Z</time></trkpt><trkpt lat="44.2556949" lon="8.115264"><ele>627.0</ele><time>2026-04-28T07:26:11.449Z</time></trkpt><trkpt lat="44.2555144" lon="8.1152092"><ele>627.3333333333334</ele><time>2026-04-28T07:26:12.449Z</time></trkpt><trkpt lat="44.2553463" lon="8.1151669"><ele>627.6666666666667</ele><time>2026-04-28T07:26:13.448Z</time></trkpt><trkpt lat="44.2551897" lon="8.115156"><ele>628.0</ele><time>2026-04-28T07:26:14.449Z</time></trkpt><trkpt lat="44.2550394" lon="8.115227"><ele>628.0</ele><time>2026-04-28T07:26:15.449Z</time></trkpt><trkpt lat="44.254889" lon="8.1153586"><ele>628.0</ele><time>2026-04-28T07:26:16.449Z</time></trkpt><trkpt lat="44.2547312" lon="8.1154754"><ele>628.0</ele><time>2026-04-28T07:26:17.449Z</time></trkpt><trkpt lat="44.2545708" lon="8.1155949"><ele>634.3333333333334</ele><time>2026-04-28T07:26:18.449Z</time></trkpt><trkpt lat="44.2544181" lon="8.1157259"><ele>640.6666666666666</ele><time>2026-04-28T07:26:19.449Z</time></trkpt><trkpt lat="44.2542862" lon="8.1158872"><ele>647.0</ele><time>2026-04-28T07:26:20.449Z</time></trkpt><trkpt lat="44.2541638" lon="8.1160608"><ele>647.0</ele><time>2026-04-28T07:26:21.449Z</time></trkpt><trkpt lat="44.2540501" lon="8.1162485"><ele>647.0</ele><time>2026-04-28T07:26:22.447Z</time></trkpt><trkpt lat="44.2542261" lon="8.1165696"><ele>645.0</ele><time>2026-04-28T07:26:23.449Z</time></trkpt><trkpt lat="44.2542374" lon="8.1167966"><ele>643.0</ele><time>2026-04-28T07:26:24.449Z</time></trkpt><trkpt lat="44.2543045" lon="8.1170269"><ele>641.0</ele><time>2026-04-28T07:26:25.448Z</time></trkpt><trkpt lat="44.2543563" lon="8.1172453"><ele>640.5</ele><time>2026-04-28T07:26:26.448Z</time></trkpt><trkpt lat="44.2543951" lon="8.1174507"><ele>640.0</ele><time>2026-04-28T07:26:27.448Z</time></trkpt><trkpt lat="44.2544" lon="8.1176393"><ele>639.5</ele><time>2026-04-28T07:26:28.448Z</time></trkpt><trkpt lat="44.2543655" lon="8.1177965"><ele>639.0</ele><time>2026-04-28T07:26:29.449Z</time></trkpt><trkpt lat="44.2543342" lon="8.1179374"><ele>639.0</ele><time>2026-04-28T07:26:30.449Z</time></trkpt><trkpt lat="44.2541888" lon="8.1179052"><ele>639.0</ele><time>2026-04-28T07:26:31.449Z</time></trkpt><trkpt lat="44.2540851" lon="8.117865"><ele>639.0</ele><time>2026-04-28T07:26:32.449Z</time></trkpt><trkpt lat="44.2539724" lon="8.1177932"><ele>639.0</ele><time>2026-04-28T07:26:33.447Z</time></trkpt><trkpt lat="44.2538425" lon="8.117708"><ele>640.0</ele><time>2026-04-28T07:26:34.447Z</time></trkpt><trkpt lat="44.2536931" lon="8.1176117"><ele>641.0</ele><time>2026-04-28T07:26:35.448Z</time></trkpt><trkpt lat="44.2535335" lon="8.1175033"><ele>642.0</ele><time>2026-04-28T07:26:36.448Z</time></trkpt><trkpt lat="44.2533745" lon="8.1174008"><ele>649.3333333333334</ele><time>2026-04-28T07:26:37.448Z</time></trkpt><trkpt lat="44.2531948" lon="8.1173204"><ele>656.6666666666667</ele><time>2026-04-28T07:26:38.448Z</time></trkpt><trkpt lat="44.253014" lon="8.117279"><ele>664.0</ele><time>2026-04-28T07:26:39.447Z</time></trkpt><trkpt lat="44.2528129" lon="8.1172905"><ele>664.3333333333334</ele><time>2026-04-28T07:26:40.449Z</time></trkpt><trkpt lat="44.2526149" lon="8.1172992"><ele>664.6666666666666</ele><time>2026-04-28T07:26:41.449Z</time></trkpt><trkpt lat="44.252418" lon="8.1172492"><ele>665.0</ele><time>2026-04-28T07:26:42.449Z</time></trkpt><trkpt lat="44.2522208" lon="8.1171864"><ele>659.0</ele><time>2026-04-28T07:26:43.449Z</time></trkpt><trkpt lat="44.2520318" lon="8.1170954"><ele>653.0</ele><time>2026-04-28T07:26:44.449Z</time></trkpt><trkpt lat="44.2518409" lon="8.1169783"><ele>647.0</ele><time>2026-04-28T07:26:45.449Z</time></trkpt><trkpt lat="44.2516572" lon="8.1168386"><ele>647.0</ele><time>2026-04-28T07:26:46.448Z</time></trkpt><trkpt lat="44.2514823" lon="8.1166828"><ele>647.0</ele><time>2026-04-28T07:26:47.449Z</time></trkpt><trkpt lat="44.251312" lon="8.1165196"><ele>647.0</ele><time>2026-04-28T07:26:48.449Z</time></trkpt><trkpt lat="44.2511393" lon="8.116348"><ele>648.6666666666666</ele><time>2026-04-28T07:26:49.447Z</time></trkpt><trkpt lat="44.2509653" lon="8.1161818"><ele>650.3333333333334</ele><time>2026-04-28T07:26:50.449Z</time></trkpt><trkpt lat="44.2507886" lon="8.1160145"><ele>652.0</ele><time>2026-04-28T07:26:51.449Z</time></trkpt><trkpt lat="44.2505883" lon="8.1158882"><ele>648.3333333333334</ele><time>2026-04-28T07:26:52.449Z</time></trkpt><trkpt lat="44.2503921" lon="8.115759"><ele>644.6666666666666</ele><time>2026-04-28T07:26:53.449Z</time></trkpt><trkpt lat="44.2501852" lon="8.115667"><ele>641.0</ele><time>2026-04-28T07:26:54.448Z</time></trkpt><trkpt lat="44.2499712" lon="8.1156168"><ele>653.0</ele><time>2026-04-28T07:26:55.449Z</time></trkpt><trkpt lat="44.2497577" lon="8.1155901"><ele>665.0</ele><time>2026-04-28T07:26:56.448Z</time></trkpt><trkpt lat="44.2495381" lon="8.1155956"><ele>677.0</ele><time>2026-04-28T07:26:57.448Z</time></trkpt><trkpt lat="44.2493276" lon="8.1156116"><ele>677.0</ele><time>2026-04-28T07:26:58.449Z</time></trkpt><trkpt lat="44.2491069" lon="8.1156416"><ele>677.0</ele><time>2026-04-28T07:26:59.449Z</time></trkpt><trkpt lat="44.2488881" lon="8.1156693"><ele>677.0</ele><time>2026-04-28T07:27:00.448Z</time></trkpt><trkpt lat="44.2486753" lon="8.1156742"><ele>676.0</ele><time>2026-04-28T07:27:01.447Z</time></trkpt><trkpt lat="44.2484687" lon="8.1156447"><ele>675.0</ele><time>2026-04-28T07:27:02.449Z</time></trkpt><trkpt lat="44.2482647" lon="8.1155839"><ele>674.0</ele><time>2026-04-28T07:27:03.449Z</time></trkpt><trkpt lat="44.2480718" lon="8.1154891"><ele>666.0</ele><time>2026-04-28T07:27:04.449Z</time></trkpt><trkpt lat="44.2478852" lon="8.1153608"><ele>658.0</ele><time>2026-04-28T07:27:05.447Z</time></trkpt><trkpt lat="44.2477007" lon="8.1152374"><ele>650.0</ele><time>2026-04-28T07:27:06.447Z</time></trkpt><trkpt lat="44.247523" lon="8.1150784"><ele>650.0</ele><time>2026-04-28T07:27:07.449Z</time></trkpt><trkpt lat="44.2473461" lon="8.1149091"><ele>650.0</ele><time>2026-04-28T07:27:08.448Z</time></trkpt><trkpt lat="44.2471638" lon="8.1147409"><ele>650.0</ele><time>2026-04-28T07:27:09.448Z</time></trkpt><trkpt lat="44.2469825" lon="8.1145764"><ele>646.3333333333333</ele><time>2026-04-28T07:27:10.448Z</time></trkpt><trkpt lat="44.2468021" lon="8.1144021"><ele>642.6666666666666</ele><time>2026-04-28T07:27:11.448Z</time></trkpt><trkpt lat="44.246618" lon="8.114223"><ele>639.0</ele><time>2026-04-28T07:27:12.449Z</time></trkpt><trkpt lat="44.2464325" lon="8.1140475"><ele>637.5</ele><time>2026-04-28T07:27:13.449Z</time></trkpt><trkpt lat="44.2462459" lon="8.1138697"><ele>636.0</ele><time>2026-04-28T07:27:14.449Z</time></trkpt><trkpt lat="44.2460547" lon="8.1136938"><ele>636.0</ele><time>2026-04-28T07:27:15.449Z</time></trkpt><trkpt lat="44.2458675" lon="8.1135289"><ele>636.0</ele><time>2026-04-28T07:27:16.449Z</time></trkpt><trkpt lat="44.2456715" lon="8.1133729"><ele>636.0</ele><time>2026-04-28T07:27:17.449Z</time></trkpt><trkpt lat="44.2454709" lon="8.1132451"><ele>636.6666666666666</ele><time>2026-04-28T07:27:18.448Z</time></trkpt><trkpt lat="44.2452674" lon="8.1131434"><ele>637.3333333333333</ele><time>2026-04-28T07:27:19.448Z</time></trkpt><trkpt lat="44.2450566" lon="8.1130635"><ele>638.0</ele><time>2026-04-28T07:27:20.449Z</time></trkpt><trkpt lat="44.244848" lon="8.1129918"><ele>638.3333333333333</ele><time>2026-04-28T07:27:21.449Z</time></trkpt><trkpt lat="44.2446433" lon="8.1129184"><ele>638.6666666666666</ele><time>2026-04-28T07:27:22.448Z</time></trkpt><trkpt lat="44.244441" lon="8.1128438"><ele>639.0</ele><time>2026-04-28T07:27:23.447Z</time></trkpt><trkpt lat="44.2442398" lon="8.112773"><ele>639.0</ele><time>2026-04-28T07:27:24.449Z</time></trkpt><trkpt lat="44.2440423" lon="8.112703"><ele>639.0</ele><time>2026-04-28T07:27:25.449Z</time></trkpt><trkpt lat="44.2438414" lon="8.1126336"><ele>639.0</ele><time>2026-04-28T07:27:26.449Z</time></trkpt><trkpt lat="44.2436451" lon="8.1125659"><ele>639.6666666666666</ele><time>2026-04-28T07:27:27.447Z</time></trkpt><trkpt lat="44.2434506" lon="8.1125004"><ele>640.3333333333333</ele><time>2026-04-28T07:27:28.448Z</time></trkpt><trkpt lat="44.2432525" lon="8.1124507"><ele>641.0</ele><time>2026-04-28T07:27:29.448Z</time></trkpt><trkpt lat="44.2430516" lon="8.1124374"><ele>641.0</ele><time>2026-04-28T07:27:30.449Z</time></trkpt><trkpt lat="44.2428473" lon="8.1124558"><ele>641.0</ele><time>2026-04-28T07:27:31.449Z</time></trkpt><trkpt lat="44.2426467" lon="8.1125081"><ele>641.0</ele><time>2026-04-28T07:27:32.448Z</time></trkpt><trkpt lat="44.242446" lon="8.1125723"><ele>641.6666666666666</ele><time>2026-04-28T07:27:33.448Z</time></trkpt><trkpt lat="44.2422457" lon="8.1126338"><ele>642.3333333333334</ele><time>2026-04-28T07:27:34.449Z</time></trkpt><trkpt lat="44.2420426" lon="8.1126944"><ele>643.0</ele><time>2026-04-28T07:27:35.447Z</time></trkpt><trkpt lat="44.2418425" lon="8.1127599"><ele>643.0</ele><time>2026-04-28T07:27:36.449Z</time></trkpt><trkpt lat="44.2416376" lon="8.1128296"><ele>643.0</ele><time>2026-04-28T07:27:37.448Z</time></trkpt><trkpt lat="44.2414305" lon="8.1128928"><ele>643.0</ele><time>2026-04-28T07:27:38.449Z</time></trkpt><trkpt lat="44.2412225" lon="8.1129561"><ele>643.6666666666667</ele><time>2026-04-28T07:27:39.447Z</time></trkpt><trkpt lat="44.2410128" lon="8.1130153"><ele>644.3333333333334</ele><time>2026-04-28T07:27:40.449Z</time></trkpt><trkpt lat="44.2408072" lon="8.1130787"><ele>645.0</ele><time>2026-04-28T07:27:41.448Z</time></trkpt><trkpt lat="44.2405965" lon="8.1131434"><ele>645.6666666666666</ele><time>2026-04-28T07:27:42.448Z</time></trkpt><trkpt lat="44.2403869" lon="8.1132138"><ele>646.3333333333333</ele><time>2026-04-28T07:27:43.447Z</time></trkpt><trkpt lat="44.2401777" lon="8.1132808"><ele>647.0</ele><time>2026-04-28T07:27:44.449Z</time></trkpt><trkpt lat="44.2399678" lon="8.1133579"><ele>645.6666666666666</ele><time>2026-04-28T07:27:45.449Z</time></trkpt><trkpt lat="44.2397608" lon="8.1134483"><ele>644.3333333333334</ele><time>2026-04-28T07:27:46.448Z</time></trkpt><trkpt lat="44.2395555" lon="8.1135493"><ele>643.0</ele><time>2026-04-28T07:27:47.449Z</time></trkpt><trkpt lat="44.2393567" lon="8.1136631"><ele>643.0</ele><time>2026-04-28T07:27:48.448Z</time></trkpt><trkpt lat="44.2391602" lon="8.113787"><ele>643.0</ele><time>2026-04-28T07:27:49.448Z</time></trkpt><trkpt lat="44.2389651" lon="8.1139183"><ele>643.0</ele><time>2026-04-28T07:27:50.449Z</time></trkpt><trkpt lat="44.2387714" lon="8.1140569"><ele>642.3333333333334</ele><time>2026-04-28T07:27:51.448Z</time></trkpt><trkpt lat="44.2385816" lon="8.1142104"><ele>641.6666666666666</ele><time>2026-04-28T07:27:52.449Z</time></trkpt><trkpt lat="44.2383996" lon="8.1143723"><ele>641.0</ele><time>2026-04-28T07:27:53.449Z</time></trkpt><trkpt lat="44.2382129" lon="8.1145379"><ele>641.3333333333333</ele><time>2026-04-28T07:27:54.449Z</time></trkpt><trkpt lat="44.2380569" lon="8.1147068"><ele>641.6666666666666</ele><time>2026-04-28T07:27:55.448Z</time></trkpt><trkpt lat="44.2379066" lon="8.114873"><ele>642.0</ele><time>2026-04-28T07:27:56.449Z</time></trkpt><trkpt lat="44.2377676" lon="8.1150363"><ele>642.0</ele><time>2026-04-28T07:27:57.449Z</time></trkpt><trkpt lat="44.2376417" lon="8.1151988"><ele>642.0</ele><time>2026-04-28T07:27:58.449Z</time></trkpt><trkpt lat="44.2375267" lon="8.1153535"><ele>642.0</ele><time>2026-04-28T07:27:59.448Z</time></trkpt><trkpt lat="44.2374273" lon="8.1154892"><ele>642.0</ele><time>2026-04-28T07:28:00.449Z</time></trkpt><trkpt lat="44.2373349" lon="8.1156148"><ele>642.0</ele><time>2026-04-28T07:28:01.449Z</time></trkpt><trkpt lat="44.2372411" lon="8.1157146"><ele>642.0</ele><time>2026-04-28T07:28:02.449Z</time></trkpt><trkpt lat="44.2371613" lon="8.115795"><ele>642.0</ele><time>2026-04-28T07:28:03.447Z</time></trkpt><trkpt lat="44.2371019" lon="8.1158485"><ele>642.0</ele><time>2026-04-28T07:28:04.449Z</time></trkpt><trkpt lat="44.2370254" lon="8.1159059"><ele>642.2</ele><time>2026-04-28T07:28:06.449Z</time></trkpt><trkpt lat="44.2369568" lon="8.1159265"><ele>642.4000000000001</ele><time>2026-04-28T07:28:08.448Z</time></trkpt><trkpt lat="44.2368671" lon="8.1159469"><ele>642.5999999999999</ele><time>2026-04-28T07:28:10.448Z</time></trkpt><trkpt lat="44.2367714" lon="8.1158213"><ele>642.8</ele><time>2026-04-28T07:28:12.448Z</time></trkpt><trkpt lat="44.2367363" lon="8.1157137"><ele>643.0</ele><time>2026-04-28T07:28:13.449Z</time></trkpt><trkpt lat="44.2366984" lon="8.1155843"><ele>643.4</ele><time>2026-04-28T07:28:14.449Z</time></trkpt><trkpt lat="44.236665" lon="8.115451"><ele>643.8</ele><time>2026-04-28T07:28:15.447Z</time></trkpt><trkpt lat="44.2366303" lon="8.1152936"><ele>644.2</ele><time>2026-04-28T07:28:16.448Z</time></trkpt><trkpt lat="44.2365926" lon="8.1151482"><ele>644.6</ele><time>2026-04-28T07:28:17.448Z</time></trkpt><trkpt lat="44.2365613" lon="8.1150136"><ele>645.0</ele><time>2026-04-28T07:28:18.449Z</time></trkpt><trkpt lat="44.2365317" lon="8.1148836"><ele>645.6666666666666</ele><time>2026-04-28T07:28:19.449Z</time></trkpt><trkpt lat="44.2365084" lon="8.1147649"><ele>646.3333333333334</ele><time>2026-04-28T07:28:20.448Z</time></trkpt><trkpt lat="44.2364857" lon="8.114653"><ele>647.0</ele><time>2026-04-28T07:28:21.448Z</time></trkpt><trkpt lat="44.23647" lon="8.1145442"><ele>647.6666666666667</ele><time>2026-04-28T07:28:22.449Z</time></trkpt><trkpt lat="44.2364569" lon="8.1144445"><ele>648.3333333333334</ele><time>2026-04-28T07:28:23.448Z</time></trkpt><trkpt lat="44.2364542" lon="8.1143031"><ele>649.0</ele><time>2026-04-28T07:28:25.448Z</time></trkpt><trkpt lat="44.2364848" lon="8.1141887"><ele>649.0</ele><time>2026-04-28T07:28:27.449Z</time></trkpt><trkpt lat="44.2365672" lon="8.1140514"><ele>649.0</ele><time>2026-04-28T07:28:29.448Z</time></trkpt><trkpt lat="44.2366368" lon="8.1139404"><ele>649.0</ele><time>2026-04-28T07:28:31.449Z</time></trkpt><trkpt lat="44.2366067" lon="8.114045"><ele>649.0</ele><time>2026-04-28T07:28:45.448Z</time></trkpt><trkpt lat="44.2365547" lon="8.1141138"><ele>649.0</ele><time>2026-04-28T07:28:46.449Z</time></trkpt><trkpt lat="44.2365005" lon="8.1141749"><ele>649.0</ele><time>2026-04-28T07:28:47.449Z</time></trkpt><trkpt lat="44.2364359" lon="8.1142715"><ele>649.0</ele><time>2026-04-28T07:28:49.449Z</time></trkpt><trkpt lat="44.2364308" lon="8.1143752"><ele>649.0</ele><time>2026-04-28T07:28:52.449Z</time></trkpt><trkpt lat="44.2364975" lon="8.1143975"><ele>649.0</ele><time>2026-04-28T07:28:54.449Z</time></trkpt><trkpt lat="44.2365325" lon="8.1143206"><ele>649.0</ele><time>2026-04-28T07:28:57.449Z</time></trkpt><trkpt lat="44.236456" lon="8.1143362"><ele>649.0</ele><time>2026-04-28T07:29:46.449Z</time></trkpt><trkpt lat="44.2363833" lon="8.1143665"><ele>650.1428571428571</ele><time>2026-04-28T07:29:50.448Z</time></trkpt><trkpt lat="44.2363099" lon="8.1143831"><ele>651.2857142857142</ele><time>2026-04-28T07:29:56.449Z</time></trkpt><trkpt lat="44.2362518" lon="8.1144366"><ele>652.4285714285713</ele><time>2026-04-28T07:30:01.449Z</time></trkpt><trkpt lat="44.2361918" lon="8.1144997"><ele>653.5714285714286</ele><time>2026-04-28T07:30:07.448Z</time></trkpt><trkpt lat="44.2361331" lon="8.1145349"><ele>654.7142857142858</ele><time>2026-04-28T07:30:11.338Z</time></trkpt><trkpt lat="44.2360698" lon="8.1145519"><ele>655.8571428571428</ele><time>2026-04-28T07:30:16.449Z</time></trkpt><trkpt lat="44.2359973" lon="8.1145964"><ele>657.0</ele><time>2026-04-28T07:30:22.449Z</time></trkpt><trkpt lat="44.2359168" lon="8.1146267"><ele>657.0</ele><time>2026-04-28T07:30:28.449Z</time></trkpt><trkpt lat="44.2358465" lon="8.1146567"><ele>657.0</ele><time>2026-04-28T07:30:34.449Z</time></trkpt><trkpt lat="44.2357723" lon="8.114695"><ele>657.0</ele><time>2026-04-28T07:30:40.448Z</time></trkpt><trkpt lat="44.2357123" lon="8.1147414"><ele>657.0</ele><time>2026-04-28T07:30:47.448Z</time></trkpt><trkpt lat="44.2356726" lon="8.1148125"><ele>657.0</ele><time>2026-04-28T07:30:52.449Z</time></trkpt><trkpt lat="44.2355964" lon="8.1148388"><ele>657.0</ele><time>2026-04-28T07:33:24.448Z</time></trkpt><trkpt lat="44.2355406" lon="8.1148819"><ele>657.0</ele><time>2026-04-28T07:33:37.517Z</time></trkpt><trkpt lat="44.2354657" lon="8.1148477"><ele>656.3333333333334</ele><time>2026-04-28T07:33:41.607Z</time></trkpt><trkpt lat="44.2354015" lon="8.1148591"><ele>655.6666666666666</ele><time>2026-04-28T07:33:46.496Z</time></trkpt><trkpt lat="44.2353539" lon="8.1149263"><ele>655.0</ele><time>2026-04-28T07:33:56.448Z</time></trkpt><trkpt lat="44.2352225" lon="8.1148519"><ele>654.3333333333333</ele><time>2026-04-28T07:34:52.449Z</time></trkpt><trkpt lat="44.2352867" lon="8.1149433"><ele>653.6666666666666</ele><time>2026-04-28T07:35:31.448Z</time></trkpt><trkpt lat="44.2353632" lon="8.1148998"><ele>653.0</ele><time>2026-04-28T07:35:34.448Z</time></trkpt><trkpt lat="44.2354204" lon="8.114848"><ele>653.5714285714287</ele><time>2026-04-28T07:35:40.448Z</time></trkpt><trkpt lat="44.2354935" lon="8.1148441"><ele>654.1428571428571</ele><time>2026-04-28T07:35:44.551Z</time></trkpt><trkpt lat="44.2355659" lon="8.1148264"><ele>654.7142857142858</ele><time>2026-04-28T07:35:50.543Z</time></trkpt><trkpt lat="44.2356489" lon="8.1148142"><ele>655.2857142857143</ele><time>2026-04-28T07:35:54.449Z</time></trkpt><trkpt lat="44.2357205" lon="8.1147865"><ele>655.8571428571429</ele><time>2026-04-28T07:36:00.449Z</time></trkpt><trkpt lat="44.2357791" lon="8.1147357"><ele>656.4285714285714</ele><time>2026-04-28T07:36:06.449Z</time></trkpt><trkpt lat="44.2357646" lon="8.1146372"><ele>657.0</ele><time>2026-04-28T07:36:15.845Z</time></trkpt><trkpt lat="44.235874" lon="8.1147404"><ele>657.0</ele><time>2026-04-28T07:41:03.371Z</time></trkpt><trkpt lat="44.2359184" lon="8.1146571"><ele>657.0</ele><time>2026-04-28T07:41:09.925Z</time></trkpt><trkpt lat="44.2359751" lon="8.1146154"><ele>657.0</ele><time>2026-04-28T07:41:16.049Z</time></trkpt><trkpt lat="44.2360463" lon="8.1145767"><ele>657.0</ele><time>2026-04-28T07:41:20.52Z</time></trkpt><trkpt lat="44.2361126" lon="8.1145276"><ele>657.0</ele><time>2026-04-28T07:41:23.928Z</time></trkpt><trkpt lat="44.2361786" lon="8.1145016"><ele>657.0</ele><time>2026-04-28T07:41:27.514Z</time></trkpt><trkpt lat="44.236247" lon="8.1144809"><ele>657.0</ele><time>2026-04-28T07:41:32.583Z</time></trkpt><trkpt lat="44.23631" lon="8.1144873"><ele>657.0</ele><time>2026-04-28T07:41:36.556Z</time></trkpt><trkpt lat="44.2364008" lon="8.114449"><ele>657.0</ele><time>2026-04-28T07:41:45.449Z</time></trkpt><trkpt lat="44.2364634" lon="8.1144039"><ele>657.0</ele><time>2026-04-28T07:42:16.449Z</time></trkpt><trkpt lat="44.2364747" lon="8.1145743"><ele>657.0</ele><time>2026-04-28T07:45:26.45Z</time></trkpt><trkpt lat="44.2364902" lon="8.1146835"><ele>657.0</ele><time>2026-04-28T07:45:27.449Z</time></trkpt><trkpt lat="44.236516" lon="8.1147999"><ele>654.6</ele><time>2026-04-28T07:45:28.449Z</time></trkpt><trkpt lat="44.2365398" lon="8.1149217"><ele>652.2</ele><time>2026-04-28T07:45:29.45Z</time></trkpt><trkpt lat="44.2365631" lon="8.1150467"><ele>649.8</ele><time>2026-04-28T07:45:30.45Z</time></trkpt><trkpt lat="44.23659" lon="8.1151725"><ele>647.4</ele><time>2026-04-28T07:45:31.45Z</time></trkpt><trkpt lat="44.2366193" lon="8.1152951"><ele>645.0</ele><time>2026-04-28T07:45:32.45Z</time></trkpt><trkpt lat="44.236649" lon="8.1154048"><ele>645.0</ele><time>2026-04-28T07:45:33.45Z</time></trkpt><trkpt lat="44.2366779" lon="8.115507"><ele>645.0</ele><time>2026-04-28T07:45:34.448Z</time></trkpt><trkpt lat="44.2367055" lon="8.1156016"><ele>645.0</ele><time>2026-04-28T07:45:35.45Z</time></trkpt><trkpt lat="44.23673" lon="8.1156952"><ele>645.0</ele><time>2026-04-28T07:45:36.45Z</time></trkpt><trkpt lat="44.2367554" lon="8.1157876"><ele>645.0</ele><time>2026-04-28T07:45:37.449Z</time></trkpt><trkpt lat="44.2367784" lon="8.1158773"><ele>645.0</ele><time>2026-04-28T07:45:38.449Z</time></trkpt><trkpt lat="44.2367912" lon="8.1159719"><ele>645.0</ele><time>2026-04-28T07:45:39.449Z</time></trkpt><trkpt lat="44.2367991" lon="8.1160761"><ele>645.2</ele><time>2026-04-28T07:45:40.45Z</time></trkpt><trkpt lat="44.236798" lon="8.1161854"><ele>645.4</ele><time>2026-04-28T07:45:41.45Z</time></trkpt><trkpt lat="44.2367716" lon="8.1162839"><ele>645.5999999999999</ele><time>2026-04-28T07:45:42.45Z</time></trkpt><trkpt lat="44.2367037" lon="8.1163957"><ele>645.8</ele><time>2026-04-28T07:45:43.45Z</time></trkpt><trkpt lat="44.2366209" lon="8.1164965"><ele>646.0</ele><time>2026-04-28T07:45:44.449Z</time></trkpt><trkpt lat="44.236521" lon="8.116591"><ele>645.75</ele><time>2026-04-28T07:45:45.449Z</time></trkpt><trkpt lat="44.2364182" lon="8.1166796"><ele>645.5</ele><time>2026-04-28T07:45:46.449Z</time></trkpt><trkpt lat="44.2363071" lon="8.116771"><ele>645.25</ele><time>2026-04-28T07:45:47.449Z</time></trkpt><trkpt lat="44.2361893" lon="8.1168673"><ele>645.0</ele><time>2026-04-28T07:45:48.45Z</time></trkpt><trkpt lat="44.2360624" lon="8.116966"><ele>645.0</ele><time>2026-04-28T07:45:49.45Z</time></trkpt><trkpt lat="44.2359326" lon="8.117067"><ele>645.0</ele><time>2026-04-28T07:45:50.449Z</time></trkpt><trkpt lat="44.2358053" lon="8.1171681"><ele>645.0</ele><time>2026-04-28T07:45:51.45Z</time></trkpt><trkpt lat="44.2356795" lon="8.1172705"><ele>645.0</ele><time>2026-04-28T07:45:52.449Z</time></trkpt><trkpt lat="44.2355508" lon="8.1173776"><ele>645.5</ele><time>2026-04-28T07:45:53.45Z</time></trkpt><trkpt lat="44.2354223" lon="8.1174868"><ele>646.0</ele><time>2026-04-28T07:45:54.45Z</time></trkpt><trkpt lat="44.2352962" lon="8.1175872"><ele>646.5</ele><time>2026-04-28T07:45:55.448Z</time></trkpt><trkpt lat="44.2351629" lon="8.1176631"><ele>647.0</ele><time>2026-04-28T07:45:56.45Z</time></trkpt><trkpt lat="44.2350162" lon="8.1177012"><ele>647.0</ele><time>2026-04-28T07:45:57.449Z</time></trkpt><trkpt lat="44.2348643" lon="8.1176974"><ele>647.0</ele><time>2026-04-28T07:45:58.45Z</time></trkpt><trkpt lat="44.2347067" lon="8.1176658"><ele>647.0</ele><time>2026-04-28T07:45:59.45Z</time></trkpt><trkpt lat="44.2345463" lon="8.1176251"><ele>647.3333333333333</ele><time>2026-04-28T07:46:00.449Z</time></trkpt><trkpt lat="44.2343789" lon="8.1175863"><ele>647.6666666666666</ele><time>2026-04-28T07:46:01.45Z</time></trkpt><trkpt lat="44.2342041" lon="8.1175646"><ele>648.0</ele><time>2026-04-28T07:46:02.45Z</time></trkpt><trkpt lat="44.2340196" lon="8.1175621"><ele>648.3333333333334</ele><time>2026-04-28T07:46:03.449Z</time></trkpt><trkpt lat="44.2338324" lon="8.1175768"><ele>648.6666666666667</ele><time>2026-04-28T07:46:04.45Z</time></trkpt><trkpt lat="44.2336407" lon="8.1176089"><ele>649.0</ele><time>2026-04-28T07:46:05.45Z</time></trkpt><trkpt lat="44.2334487" lon="8.1176459"><ele>649.0</ele><time>2026-04-28T07:46:06.45Z</time></trkpt><trkpt lat="44.2332584" lon="8.117692"><ele>649.0</ele><time>2026-04-28T07:46:07.45Z</time></trkpt><trkpt lat="44.2330658" lon="8.1177404"><ele>649.0</ele><time>2026-04-28T07:46:08.45Z</time></trkpt><trkpt lat="44.23287" lon="8.11779"><ele>649.0</ele><time>2026-04-28T07:46:09.449Z</time></trkpt><trkpt lat="44.2326706" lon="8.117838"><ele>649.0</ele><time>2026-04-28T07:46:10.449Z</time></trkpt><trkpt lat="44.2324705" lon="8.1178797"><ele>649.0</ele><time>2026-04-28T07:46:11.45Z</time></trkpt><trkpt lat="44.2322685" lon="8.117917"><ele>649.0</ele><time>2026-04-28T07:46:12.45Z</time></trkpt><trkpt lat="44.2320662" lon="8.1179467"><ele>649.0</ele><time>2026-04-28T07:46:13.448Z</time></trkpt><trkpt lat="44.2318626" lon="8.1179806"><ele>649.0</ele><time>2026-04-28T07:46:14.45Z</time></trkpt><trkpt lat="44.2316555" lon="8.1180203"><ele>649.6666666666667</ele><time>2026-04-28T07:46:15.45Z</time></trkpt><trkpt lat="44.2314491" lon="8.118062"><ele>650.3333333333334</ele><time>2026-04-28T07:46:16.45Z</time></trkpt><trkpt lat="44.2312433" lon="8.1181053"><ele>651.0</ele><time>2026-04-28T07:46:17.45Z</time></trkpt><trkpt lat="44.231039" lon="8.1181478"><ele>651.0</ele><time>2026-04-28T07:46:18.45Z</time></trkpt><trkpt lat="44.230837" lon="8.1181925"><ele>651.0</ele><time>2026-04-28T07:46:19.449Z</time></trkpt><trkpt lat="44.2306345" lon="8.1182375"><ele>651.0</ele><time>2026-04-28T07:46:20.449Z</time></trkpt><trkpt lat="44.230435" lon="8.1182819"><ele>651.0</ele><time>2026-04-28T07:46:21.45Z</time></trkpt><trkpt lat="44.2302398" lon="8.1183223"><ele>651.0</ele><time>2026-04-28T07:46:22.449Z</time></trkpt><trkpt lat="44.2300513" lon="8.1183501"><ele>651.0</ele><time>2026-04-28T07:46:23.45Z</time></trkpt><trkpt lat="44.2298703" lon="8.1183506"><ele>651.6666666666666</ele><time>2026-04-28T07:46:24.45Z</time></trkpt><trkpt lat="44.2296916" lon="8.1183196"><ele>652.3333333333333</ele><time>2026-04-28T07:46:25.45Z</time></trkpt><trkpt lat="44.229509" lon="8.118276"><ele>653.0</ele><time>2026-04-28T07:46:26.45Z</time></trkpt><trkpt lat="44.2293238" lon="8.118238"><ele>653.0</ele><time>2026-04-28T07:46:27.449Z</time></trkpt><trkpt lat="44.2291358" lon="8.1182104"><ele>653.0</ele><time>2026-04-28T07:46:28.45Z</time></trkpt><trkpt lat="44.2289451" lon="8.1181965"><ele>653.0</ele><time>2026-04-28T07:46:29.449Z</time></trkpt><trkpt lat="44.2287521" lon="8.1181876"><ele>653.6666666666666</ele><time>2026-04-28T07:46:30.45Z</time></trkpt><trkpt lat="44.2285587" lon="8.1181759"><ele>654.3333333333334</ele><time>2026-04-28T07:46:31.45Z</time></trkpt><trkpt lat="44.2283633" lon="8.1181685"><ele>655.0</ele><time>2026-04-28T07:46:32.45Z</time></trkpt><trkpt lat="44.2281655" lon="8.1181574"><ele>656.3333333333334</ele><time>2026-04-28T07:46:33.45Z</time></trkpt><trkpt lat="44.2279666" lon="8.1181537"><ele>657.6666666666666</ele><time>2026-04-28T07:46:34.449Z</time></trkpt><trkpt lat="44.2277701" lon="8.1181728"><ele>659.0</ele><time>2026-04-28T07:46:35.45Z</time></trkpt><trkpt lat="44.2275812" lon="8.1182333"><ele>657.3333333333333</ele><time>2026-04-28T07:46:36.449Z</time></trkpt><trkpt lat="44.2274044" lon="8.1183413"><ele>655.6666666666666</ele><time>2026-04-28T07:46:37.45Z</time></trkpt><trkpt lat="44.2272353" lon="8.1184823"><ele>654.0</ele><time>2026-04-28T07:46:38.45Z</time></trkpt><trkpt lat="44.2270701" lon="8.1186439"><ele>654.0</ele><time>2026-04-28T07:46:39.45Z</time></trkpt><trkpt lat="44.2269081" lon="8.118817"><ele>654.0</ele><time>2026-04-28T07:46:40.449Z</time></trkpt><trkpt lat="44.2267425" lon="8.1189881"><ele>654.0</ele><time>2026-04-28T07:46:41.45Z</time></trkpt><trkpt lat="44.226575" lon="8.1191555"><ele>653.6666666666666</ele><time>2026-04-28T07:46:42.449Z</time></trkpt><trkpt lat="44.2264042" lon="8.1193194"><ele>653.3333333333333</ele><time>2026-04-28T07:46:43.45Z</time></trkpt><trkpt lat="44.2262388" lon="8.1194901"><ele>653.0</ele><time>2026-04-28T07:46:44.449Z</time></trkpt><trkpt lat="44.2260887" lon="8.1196725"><ele>653.0</ele><time>2026-04-28T07:46:45.45Z</time></trkpt><trkpt lat="44.2259639" lon="8.1198688"><ele>653.0</ele><time>2026-04-28T07:46:46.449Z</time></trkpt><trkpt lat="44.225857" lon="8.1200634"><ele>653.0</ele><time>2026-04-28T07:46:47.449Z</time></trkpt><trkpt lat="44.2257348" lon="8.1202259"><ele>654.0</ele><time>2026-04-28T07:46:48.45Z</time></trkpt><trkpt lat="44.2255825" lon="8.1203303"><ele>655.0</ele><time>2026-04-28T07:46:49.45Z</time></trkpt><trkpt lat="44.2254104" lon="8.1203862"><ele>656.0</ele><time>2026-04-28T07:46:50.45Z</time></trkpt><trkpt lat="44.2252334" lon="8.120389"><ele>656.0</ele><time>2026-04-28T07:46:51.449Z</time></trkpt><trkpt lat="44.2250566" lon="8.1203352"><ele>656.0</ele><time>2026-04-28T07:46:52.45Z</time></trkpt><trkpt lat="44.2248817" lon="8.1202399"><ele>656.0</ele><time>2026-04-28T07:46:53.45Z</time></trkpt><trkpt lat="44.2247116" lon="8.1201235"><ele>656.6666666666666</ele><time>2026-04-28T07:46:54.45Z</time></trkpt><trkpt lat="44.2245379" lon="8.1200032"><ele>657.3333333333334</ele><time>2026-04-28T07:46:55.448Z</time></trkpt><trkpt lat="44.2243607" lon="8.1198791"><ele>658.0</ele><time>2026-04-28T07:46:56.449Z</time></trkpt><trkpt lat="44.2241781" lon="8.1197564"><ele>658.0</ele><time>2026-04-28T07:46:57.45Z</time></trkpt><trkpt lat="44.2239972" lon="8.1196323"><ele>658.0</ele><time>2026-04-28T07:46:58.449Z</time></trkpt><trkpt lat="44.2238138" lon="8.1195123"><ele>658.0</ele><time>2026-04-28T07:46:59.45Z</time></trkpt><trkpt lat="44.223628" lon="8.1193916"><ele>658.6666666666667</ele><time>2026-04-28T07:47:00.449Z</time></trkpt><trkpt lat="44.2234416" lon="8.1192697"><ele>659.3333333333334</ele><time>2026-04-28T07:47:01.45Z</time></trkpt><trkpt lat="44.2232541" lon="8.1191465"><ele>660.0</ele><time>2026-04-28T07:47:02.449Z</time></trkpt><trkpt lat="44.2230632" lon="8.1190208"><ele>660.0</ele><time>2026-04-28T07:47:03.449Z</time></trkpt><trkpt lat="44.2228708" lon="8.1188937"><ele>660.0</ele><time>2026-04-28T07:47:04.448Z</time></trkpt><trkpt lat="44.2226794" lon="8.1187662"><ele>660.0</ele><time>2026-04-28T07:47:05.45Z</time></trkpt><trkpt lat="44.222489" lon="8.1186384"><ele>663.0</ele><time>2026-04-28T07:47:06.45Z</time></trkpt><trkpt lat="44.2222982" lon="8.1185072"><ele>666.0</ele><time>2026-04-28T07:47:07.45Z</time></trkpt><trkpt lat="44.2221092" lon="8.1183775"><ele>669.0</ele><time>2026-04-28T07:47:08.45Z</time></trkpt><trkpt lat="44.2219219" lon="8.1182458"><ele>667.0</ele><time>2026-04-28T07:47:09.45Z</time></trkpt><trkpt lat="44.221743" lon="8.1180964"><ele>665.0</ele><time>2026-04-28T07:47:10.45Z</time></trkpt><trkpt lat="44.2215826" lon="8.1179212"><ele>663.0</ele><time>2026-04-28T07:47:11.449Z</time></trkpt><trkpt lat="44.2214377" lon="8.1177243"><ele>666.0</ele><time>2026-04-28T07:47:12.45Z</time></trkpt><trkpt lat="44.221305" lon="8.117508"><ele>669.0</ele><time>2026-04-28T07:47:13.45Z</time></trkpt><trkpt lat="44.2211842" lon="8.1172798"><ele>672.0</ele><time>2026-04-28T07:47:14.45Z</time></trkpt><trkpt lat="44.221074" lon="8.1170379"><ele>672.0</ele><time>2026-04-28T07:47:15.45Z</time></trkpt><trkpt lat="44.220973" lon="8.1167833"><ele>672.0</ele><time>2026-04-28T07:47:16.45Z</time></trkpt><trkpt lat="44.2208775" lon="8.1165256"><ele>672.0</ele><time>2026-04-28T07:47:17.449Z</time></trkpt><trkpt lat="44.2207801" lon="8.1162729"><ele>672.0</ele><time>2026-04-28T07:47:18.448Z</time></trkpt><trkpt lat="44.2206699" lon="8.1160329"><ele>672.0</ele><time>2026-04-28T07:47:19.45Z</time></trkpt><trkpt lat="44.2205444" lon="8.1158053"><ele>672.0</ele><time>2026-04-28T07:47:20.449Z</time></trkpt><trkpt lat="44.2204042" lon="8.115589"><ele>669.6666666666666</ele><time>2026-04-28T07:47:21.448Z</time></trkpt><trkpt lat="44.220254" lon="8.1153836"><ele>667.3333333333333</ele><time>2026-04-28T07:47:22.45Z</time></trkpt><trkpt lat="44.2200936" lon="8.115202"><ele>665.0</ele><time>2026-04-28T07:47:23.45Z</time></trkpt><trkpt lat="44.2199526" lon="8.1150208"><ele>664.0</ele><time>2026-04-28T07:47:24.45Z</time></trkpt><trkpt lat="44.219806" lon="8.114863"><ele>663.0</ele><time>2026-04-28T07:47:25.448Z</time></trkpt><trkpt lat="44.2196641" lon="8.114775"><ele>662.0</ele><time>2026-04-28T07:47:26.45Z</time></trkpt><trkpt lat="44.2195277" lon="8.1147539"><ele>662.0</ele><time>2026-04-28T07:47:27.449Z</time></trkpt><trkpt lat="44.2193671" lon="8.1148028"><ele>662.0</ele><time>2026-04-28T07:47:28.45Z</time></trkpt><trkpt lat="44.2191976" lon="8.1149207"><ele>662.0</ele><time>2026-04-28T07:47:29.449Z</time></trkpt><trkpt lat="44.219033" lon="8.115042"><ele>663.3333333333333</ele><time>2026-04-28T07:47:30.45Z</time></trkpt><trkpt lat="44.2188617" lon="8.115157"><ele>664.6666666666666</ele><time>2026-04-28T07:47:31.45Z</time></trkpt><trkpt lat="44.2186865" lon="8.1152776"><ele>666.0</ele><time>2026-04-28T07:47:32.449Z</time></trkpt><trkpt lat="44.2185057" lon="8.1154046"><ele>666.0</ele><time>2026-04-28T07:47:33.45Z</time></trkpt><trkpt lat="44.2183312" lon="8.1155212"><ele>666.0</ele><time>2026-04-28T07:47:34.45Z</time></trkpt><trkpt lat="44.2181495" lon="8.1156391"><ele>666.0</ele><time>2026-04-28T07:47:35.45Z</time></trkpt><trkpt lat="44.2179691" lon="8.1157639"><ele>667.6666666666666</ele><time>2026-04-28T07:47:36.449Z</time></trkpt><trkpt lat="44.2177859" lon="8.1158889"><ele>669.3333333333333</ele><time>2026-04-28T07:47:37.449Z</time></trkpt><trkpt lat="44.2175996" lon="8.116018"><ele>671.0</ele><time>2026-04-28T07:47:38.449Z</time></trkpt><trkpt lat="44.2174127" lon="8.1161357"><ele>669.6666666666666</ele><time>2026-04-28T07:47:39.449Z</time></trkpt><trkpt lat="44.2172258" lon="8.1162318"><ele>668.3333333333334</ele><time>2026-04-28T07:47:40.45Z</time></trkpt><trkpt lat="44.2170146" lon="8.1162547"><ele>667.0</ele><time>2026-04-28T07:47:41.45Z</time></trkpt><trkpt lat="44.2168084" lon="8.1162661"><ele>667.0</ele><time>2026-04-28T07:47:42.45Z</time></trkpt><trkpt lat="44.2165983" lon="8.1162555"><ele>667.0</ele><time>2026-04-28T07:47:43.45Z</time></trkpt><trkpt lat="44.2163893" lon="8.1162243"><ele>667.0</ele><time>2026-04-28T07:47:44.449Z</time></trkpt><trkpt lat="44.216179" lon="8.1161748"><ele>668.3333333333334</ele><time>2026-04-28T07:47:45.449Z</time></trkpt><trkpt lat="44.2159736" lon="8.1161187"><ele>669.6666666666666</ele><time>2026-04-28T07:47:46.45Z</time></trkpt><trkpt lat="44.2157639" lon="8.1160664"><ele>671.0</ele><time>2026-04-28T07:47:47.449Z</time></trkpt><trkpt lat="44.2155547" lon="8.1160287"><ele>671.0</ele><time>2026-04-28T07:47:48.449Z</time></trkpt><trkpt lat="44.2153478" lon="8.116023"><ele>671.0</ele><time>2026-04-28T07:47:49.45Z</time></trkpt><trkpt lat="44.2151451" lon="8.1160321"><ele>671.0</ele><time>2026-04-28T07:47:50.448Z</time></trkpt><trkpt lat="44.2149455" lon="8.1160592"><ele>674.0</ele><time>2026-04-28T07:47:51.45Z</time></trkpt><trkpt lat="44.2147405" lon="8.1160684"><ele>677.0</ele><time>2026-04-28T07:47:52.449Z</time></trkpt><trkpt lat="44.2145489" lon="8.1160329"><ele>680.0</ele><time>2026-04-28T07:47:53.449Z</time></trkpt><trkpt lat="44.2143676" lon="8.1159531"><ele>680.0</ele><time>2026-04-28T07:47:54.449Z</time></trkpt><trkpt lat="44.2141988" lon="8.1158224"><ele>680.0</ele><time>2026-04-28T07:47:55.448Z</time></trkpt><trkpt lat="44.2140396" lon="8.1156677"><ele>680.0</ele><time>2026-04-28T07:47:56.45Z</time></trkpt><trkpt lat="44.2138819" lon="8.1154875"><ele>678.6666666666666</ele><time>2026-04-28T07:47:57.449Z</time></trkpt><trkpt lat="44.2137269" lon="8.1153099"><ele>677.3333333333334</ele><time>2026-04-28T07:47:58.45Z</time></trkpt><trkpt lat="44.2135636" lon="8.1151264"><ele>676.0</ele><time>2026-04-28T07:47:59.449Z</time></trkpt><trkpt lat="44.2134008" lon="8.114951"><ele>675.0</ele><time>2026-04-28T07:48:00.45Z</time></trkpt><trkpt lat="44.2132411" lon="8.1147769"><ele>674.0</ele><time>2026-04-28T07:48:01.45Z</time></trkpt><trkpt lat="44.2130697" lon="8.1146107"><ele>673.0</ele><time>2026-04-28T07:48:02.449Z</time></trkpt><trkpt lat="44.2128882" lon="8.1144632"><ele>673.0</ele><time>2026-04-28T07:48:03.45Z</time></trkpt><trkpt lat="44.2126996" lon="8.1143373"><ele>673.0</ele><time>2026-04-28T07:48:04.449Z</time></trkpt><trkpt lat="44.2125062" lon="8.1142254"><ele>673.0</ele><time>2026-04-28T07:48:05.45Z</time></trkpt><trkpt lat="44.2123122" lon="8.1141158"><ele>673.0</ele><time>2026-04-28T07:48:06.45Z</time></trkpt><trkpt lat="44.2121166" lon="8.1140081"><ele>673.0</ele><time>2026-04-28T07:48:07.449Z</time></trkpt><trkpt lat="44.2119159" lon="8.1139072"><ele>673.0</ele><time>2026-04-28T07:48:08.449Z</time></trkpt><trkpt lat="44.2117094" lon="8.1138165"><ele>673.0</ele><time>2026-04-28T07:48:09.45Z</time></trkpt><trkpt lat="44.2115061" lon="8.1137409"><ele>673.0</ele><time>2026-04-28T07:48:10.449Z</time></trkpt><trkpt lat="44.2113021" lon="8.1136715"><ele>673.0</ele><time>2026-04-28T07:48:11.449Z</time></trkpt><trkpt lat="44.2110985" lon="8.1136019"><ele>674.0</ele><time>2026-04-28T07:48:12.45Z</time></trkpt><trkpt lat="44.2108838" lon="8.113535"><ele>675.0</ele><time>2026-04-28T07:48:13.45Z</time></trkpt><trkpt lat="44.210674" lon="8.1134768"><ele>676.0</ele><time>2026-04-28T07:48:14.449Z</time></trkpt><trkpt lat="44.2104595" lon="8.1134295"><ele>677.0</ele><time>2026-04-28T07:48:15.45Z</time></trkpt><trkpt lat="44.2102479" lon="8.1133975"><ele>678.0</ele><time>2026-04-28T07:48:16.449Z</time></trkpt><trkpt lat="44.2100326" lon="8.1133655"><ele>679.0</ele><time>2026-04-28T07:48:17.449Z</time></trkpt><trkpt lat="44.2098122" lon="8.1133326"><ele>679.0</ele><time>2026-04-28T07:48:18.449Z</time></trkpt><trkpt lat="44.2095925" lon="8.1132998"><ele>679.0</ele><time>2026-04-28T07:48:19.45Z</time></trkpt><trkpt lat="44.2093768" lon="8.1132625"><ele>679.0</ele><time>2026-04-28T07:48:20.449Z</time></trkpt><trkpt lat="44.2091595" lon="8.1132232"><ele>678.3333333333334</ele><time>2026-04-28T07:48:21.449Z</time></trkpt><trkpt lat="44.2089429" lon="8.1132219"><ele>677.6666666666666</ele><time>2026-04-28T07:48:22.45Z</time></trkpt><trkpt lat="44.2087268" lon="8.1132456"><ele>677.0</ele><time>2026-04-28T07:48:23.45Z</time></trkpt><trkpt lat="44.2085125" lon="8.1132903"><ele>677.0</ele><time>2026-04-28T07:48:24.448Z</time></trkpt><trkpt lat="44.2083391" lon="8.1134448"><ele>677.0</ele><time>2026-04-28T07:48:25.449Z</time></trkpt><trkpt lat="44.2081588" lon="8.1135844"><ele>677.0</ele><time>2026-04-28T07:48:26.45Z</time></trkpt><trkpt lat="44.2079775" lon="8.1137361"><ele>676.3333333333333</ele><time>2026-04-28T07:48:27.45Z</time></trkpt><trkpt lat="44.2077949" lon="8.1138861"><ele>675.6666666666666</ele><time>2026-04-28T07:48:28.449Z</time></trkpt><trkpt lat="44.2076024" lon="8.1140259"><ele>675.0</ele><time>2026-04-28T07:48:29.45Z</time></trkpt><trkpt lat="44.2074146" lon="8.1141307"><ele>677.3333333333334</ele><time>2026-04-28T07:48:30.45Z</time></trkpt><trkpt lat="44.2072108" lon="8.1141745"><ele>679.6666666666667</ele><time>2026-04-28T07:48:31.45Z</time></trkpt><trkpt lat="44.2070036" lon="8.1141785"><ele>682.0</ele><time>2026-04-28T07:48:32.45Z</time></trkpt><trkpt lat="44.206791" lon="8.1141858"><ele>682.0</ele><time>2026-04-28T07:48:33.449Z</time></trkpt><trkpt lat="44.2065818" lon="8.1142296"><ele>682.0</ele><time>2026-04-28T07:48:34.45Z</time></trkpt><trkpt lat="44.2063696" lon="8.1142922"><ele>682.0</ele><time>2026-04-28T07:48:35.45Z</time></trkpt><trkpt lat="44.206161" lon="8.1143522"><ele>680.3333333333334</ele><time>2026-04-28T07:48:36.45Z</time></trkpt><trkpt lat="44.2059472" lon="8.1144113"><ele>678.6666666666666</ele><time>2026-04-28T07:48:37.45Z</time></trkpt><trkpt lat="44.2057283" lon="8.1144757"><ele>677.0</ele><time>2026-04-28T07:48:38.45Z</time></trkpt><trkpt lat="44.2055082" lon="8.1145506"><ele>677.0</ele><time>2026-04-28T07:48:39.449Z</time></trkpt><trkpt lat="44.2052866" lon="8.1146253"><ele>677.0</ele><time>2026-04-28T07:48:40.449Z</time></trkpt><trkpt lat="44.2050624" lon="8.1147053"><ele>677.0</ele><time>2026-04-28T07:48:41.449Z</time></trkpt><trkpt lat="44.2048393" lon="8.1148051"><ele>677.0</ele><time>2026-04-28T07:48:42.449Z</time></trkpt><trkpt lat="44.2046206" lon="8.1149104"><ele>679.0</ele><time>2026-04-28T07:48:43.45Z</time></trkpt><trkpt lat="44.2044172" lon="8.1150148"><ele>681.0</ele><time>2026-04-28T07:48:44.448Z</time></trkpt><trkpt lat="44.2042254" lon="8.1151112"><ele>683.0</ele><time>2026-04-28T07:48:45.449Z</time></trkpt><trkpt lat="44.2040493" lon="8.1151949"><ele>681.6666666666666</ele><time>2026-04-28T07:48:46.449Z</time></trkpt><trkpt lat="44.2038756" lon="8.1152801"><ele>680.3333333333334</ele><time>2026-04-28T07:48:47.449Z</time></trkpt><trkpt lat="44.2037221" lon="8.1153953"><ele>679.0</ele><time>2026-04-28T07:48:48.449Z</time></trkpt><trkpt lat="44.2035735" lon="8.1155067"><ele>679.0</ele><time>2026-04-28T07:48:49.45Z</time></trkpt><trkpt lat="44.2034952" lon="8.1157363"><ele>679.0</ele><time>2026-04-28T07:48:50.449Z</time></trkpt><trkpt lat="44.2034454" lon="8.1159753"><ele>679.0</ele><time>2026-04-28T07:48:51.45Z</time></trkpt><trkpt lat="44.2033964" lon="8.1162156"><ele>681.0</ele><time>2026-04-28T07:48:52.449Z</time></trkpt><trkpt lat="44.2033494" lon="8.1164617"><ele>683.0</ele><time>2026-04-28T07:48:53.45Z</time></trkpt><trkpt lat="44.2033209" lon="8.1167181"><ele>685.0</ele><time>2026-04-28T07:48:54.449Z</time></trkpt><trkpt lat="44.2033156" lon="8.1169892"><ele>685.3333333333334</ele><time>2026-04-28T07:48:55.45Z</time></trkpt><trkpt lat="44.2033284" lon="8.1172602"><ele>685.6666666666666</ele><time>2026-04-28T07:48:56.449Z</time></trkpt><trkpt lat="44.2033364" lon="8.1175471"><ele>686.0</ele><time>2026-04-28T07:48:57.45Z</time></trkpt><trkpt lat="44.2033146" lon="8.1178337"><ele>685.0</ele><time>2026-04-28T07:48:58.45Z</time></trkpt><trkpt lat="44.203251" lon="8.1181087"><ele>684.0</ele><time>2026-04-28T07:48:59.45Z</time></trkpt><trkpt lat="44.2031755" lon="8.1183635"><ele>683.0</ele><time>2026-04-28T07:49:00.45Z</time></trkpt><trkpt lat="44.203105" lon="8.1186225"><ele>683.0</ele><time>2026-04-28T07:49:01.45Z</time></trkpt><trkpt lat="44.203051" lon="8.1188959"><ele>683.0</ele><time>2026-04-28T07:49:02.45Z</time></trkpt><trkpt lat="44.2030113" lon="8.1191745"><ele>683.0</ele><time>2026-04-28T07:49:03.449Z</time></trkpt><trkpt lat="44.2029657" lon="8.1194614"><ele>683.3333333333333</ele><time>2026-04-28T07:49:04.45Z</time></trkpt><trkpt lat="44.202888" lon="8.1197252"><ele>683.6666666666666</ele><time>2026-04-28T07:49:05.448Z</time></trkpt><trkpt lat="44.2028055" lon="8.1199939"><ele>684.0</ele><time>2026-04-28T07:49:06.448Z</time></trkpt><trkpt lat="44.2026304" lon="8.1201748"><ele>685.6666666666666</ele><time>2026-04-28T07:49:07.449Z</time></trkpt><trkpt lat="44.2025095" lon="8.1204224"><ele>687.3333333333333</ele><time>2026-04-28T07:49:08.45Z</time></trkpt><trkpt lat="44.2024157" lon="8.1206758"><ele>689.0</ele><time>2026-04-28T07:49:09.449Z</time></trkpt><trkpt lat="44.2023601" lon="8.1209516"><ele>687.6666666666666</ele><time>2026-04-28T07:49:10.45Z</time></trkpt><trkpt lat="44.202327" lon="8.1212509"><ele>686.3333333333334</ele><time>2026-04-28T07:49:11.449Z</time></trkpt><trkpt lat="44.2022674" lon="8.1215422"><ele>685.0</ele><time>2026-04-28T07:49:12.449Z</time></trkpt><trkpt lat="44.2021929" lon="8.121823"><ele>685.0</ele><time>2026-04-28T07:49:13.45Z</time></trkpt><trkpt lat="44.2020773" lon="8.1220826"><ele>685.0</ele><time>2026-04-28T07:49:14.45Z</time></trkpt><trkpt lat="44.2019347" lon="8.1223198"><ele>685.0</ele><time>2026-04-28T07:49:15.449Z</time></trkpt><trkpt lat="44.2017857" lon="8.122548"><ele>685.0</ele><time>2026-04-28T07:49:16.449Z</time></trkpt><trkpt lat="44.2016146" lon="8.122751"><ele>685.0</ele><time>2026-04-28T07:49:17.45Z</time></trkpt><trkpt lat="44.2014312" lon="8.1229313"><ele>685.0</ele><time>2026-04-28T07:49:18.449Z</time></trkpt><trkpt lat="44.2012365" lon="8.1230964"><ele>687.0</ele><time>2026-04-28T07:49:19.449Z</time></trkpt><trkpt lat="44.20104" lon="8.1232508"><ele>689.0</ele><time>2026-04-28T07:49:20.45Z</time></trkpt><trkpt lat="44.2008419" lon="8.1234108"><ele>687.5</ele><time>2026-04-28T07:49:21.45Z</time></trkpt><trkpt lat="44.2006461" lon="8.1235796"><ele>686.0</ele><time>2026-04-28T07:49:22.448Z</time></trkpt><trkpt lat="44.2004487" lon="8.1237419"><ele>686.0</ele><time>2026-04-28T07:49:23.449Z</time></trkpt><trkpt lat="44.2002529" lon="8.1239063"><ele>686.0</ele><time>2026-04-28T07:49:24.45Z</time></trkpt><trkpt lat="44.2000579" lon="8.1240689"><ele>686.3333333333333</ele><time>2026-04-28T07:49:25.45Z</time></trkpt><trkpt lat="44.1998644" lon="8.1242332"><ele>686.6666666666666</ele><time>2026-04-28T07:49:26.448Z</time></trkpt><trkpt lat="44.1996738" lon="8.124392"><ele>687.0</ele><time>2026-04-28T07:49:27.45Z</time></trkpt><trkpt lat="44.1994803" lon="8.1245519"><ele>687.0</ele><time>2026-04-28T07:49:28.449Z</time></trkpt><trkpt lat="44.1992836" lon="8.1246967"><ele>687.0</ele><time>2026-04-28T07:49:29.45Z</time></trkpt><trkpt lat="44.1990825" lon="8.1248351"><ele>687.0</ele><time>2026-04-28T07:49:30.449Z</time></trkpt><trkpt lat="44.1988827" lon="8.1249691"><ele>688.6666666666666</ele><time>2026-04-28T07:49:31.45Z</time></trkpt><trkpt lat="44.1986775" lon="8.125087"><ele>690.3333333333333</ele><time>2026-04-28T07:49:32.449Z</time></trkpt><trkpt lat="44.198476" lon="8.1252092"><ele>692.0</ele><time>2026-04-28T07:49:33.45Z</time></trkpt><trkpt lat="44.1982747" lon="8.1253326"><ele>691.3333333333333</ele><time>2026-04-28T07:49:34.449Z</time></trkpt><trkpt lat="44.198073" lon="8.1254572"><ele>690.6666666666666</ele><time>2026-04-28T07:49:35.45Z</time></trkpt><trkpt lat="44.1978714" lon="8.1255813"><ele>690.0</ele><time>2026-04-28T07:49:36.449Z</time></trkpt><trkpt lat="44.1976709" lon="8.1257014"><ele>690.3333333333334</ele><time>2026-04-28T07:49:37.45Z</time></trkpt><trkpt lat="44.1974697" lon="8.1258065"><ele>690.6666666666667</ele><time>2026-04-28T07:49:38.449Z</time></trkpt><trkpt lat="44.1972648" lon="8.1258954"><ele>691.0</ele><time>2026-04-28T07:49:39.45Z</time></trkpt><trkpt lat="44.1970549" lon="8.125967"><ele>691.0</ele><time>2026-04-28T07:49:40.45Z</time></trkpt><trkpt lat="44.1968419" lon="8.1260331"><ele>691.0</ele><time>2026-04-28T07:49:41.449Z</time></trkpt><trkpt lat="44.1966322" lon="8.126105"><ele>691.0</ele><time>2026-04-28T07:49:42.45Z</time></trkpt><trkpt lat="44.1964276" lon="8.1261719"><ele>691.6666666666667</ele><time>2026-04-28T07:49:43.45Z</time></trkpt><trkpt lat="44.1962237" lon="8.1262386"><ele>692.3333333333334</ele><time>2026-04-28T07:49:44.449Z</time></trkpt><trkpt lat="44.1960235" lon="8.1263083"><ele>693.0</ele><time>2026-04-28T07:49:45.449Z</time></trkpt><trkpt lat="44.1958388" lon="8.1264179"><ele>692.6666666666666</ele><time>2026-04-28T07:49:46.449Z</time></trkpt><trkpt lat="44.1956548" lon="8.126541"><ele>692.3333333333333</ele><time>2026-04-28T07:49:47.45Z</time></trkpt><trkpt lat="44.1954763" lon="8.1266922"><ele>692.0</ele><time>2026-04-28T07:49:48.45Z</time></trkpt><trkpt lat="44.1953089" lon="8.1268539"><ele>694.0</ele><time>2026-04-28T07:49:49.449Z</time></trkpt><trkpt lat="44.195131" lon="8.12698"><ele>696.0</ele><time>2026-04-28T07:49:50.45Z</time></trkpt><trkpt lat="44.1949447" lon="8.1270615"><ele>698.0</ele><time>2026-04-28T07:49:51.45Z</time></trkpt><trkpt lat="44.1947533" lon="8.1270833"><ele>700.0</ele><time>2026-04-28T07:49:52.449Z</time></trkpt><trkpt lat="44.1945629" lon="8.1270602"><ele>702.0</ele><time>2026-04-28T07:49:53.45Z</time></trkpt><trkpt lat="44.1943743" lon="8.1269976"><ele>704.0</ele><time>2026-04-28T07:49:54.449Z</time></trkpt><trkpt lat="44.1941878" lon="8.1269081"><ele>704.6666666666666</ele><time>2026-04-28T07:49:55.449Z</time></trkpt><trkpt lat="44.1939992" lon="8.1268037"><ele>705.3333333333334</ele><time>2026-04-28T07:49:56.45Z</time></trkpt><trkpt lat="44.1938121" lon="8.1266949"><ele>706.0</ele><time>2026-04-28T07:49:57.45Z</time></trkpt><trkpt lat="44.1936285" lon="8.1265895"><ele>702.3333333333334</ele><time>2026-04-28T07:49:58.448Z</time></trkpt><trkpt lat="44.1934572" lon="8.1265037"><ele>698.6666666666666</ele><time>2026-04-28T07:49:59.448Z</time></trkpt><trkpt lat="44.1932927" lon="8.1264901"><ele>695.0</ele><time>2026-04-28T07:50:00.449Z</time></trkpt><trkpt lat="44.1931391" lon="8.1264661"><ele>695.0</ele><time>2026-04-28T07:50:01.45Z</time></trkpt><trkpt lat="44.1930079" lon="8.1265182"><ele>695.0</ele><time>2026-04-28T07:50:02.45Z</time></trkpt><trkpt lat="44.1928433" lon="8.1267202"><ele>695.0</ele><time>2026-04-28T07:50:03.45Z</time></trkpt><trkpt lat="44.1926726" lon="8.1268123"><ele>696.3333333333333</ele><time>2026-04-28T07:50:04.449Z</time></trkpt><trkpt lat="44.192505" lon="8.1269233"><ele>697.6666666666666</ele><time>2026-04-28T07:50:05.449Z</time></trkpt><trkpt lat="44.1923431" lon="8.1270518"><ele>699.0</ele><time>2026-04-28T07:50:06.45Z</time></trkpt><trkpt lat="44.192186" lon="8.1272016"><ele>699.0</ele><time>2026-04-28T07:50:07.449Z</time></trkpt><trkpt lat="44.1920273" lon="8.1273582"><ele>699.0</ele><time>2026-04-28T07:50:08.45Z</time></trkpt><trkpt lat="44.191857" lon="8.1275133"><ele>699.0</ele><time>2026-04-28T07:50:09.45Z</time></trkpt><trkpt lat="44.1916899" lon="8.127669"><ele>699.3333333333334</ele><time>2026-04-28T07:50:10.45Z</time></trkpt><trkpt lat="44.1915164" lon="8.127811"><ele>699.6666666666667</ele><time>2026-04-28T07:50:11.449Z</time></trkpt><trkpt lat="44.191348" lon="8.1279606"><ele>700.0</ele><time>2026-04-28T07:50:12.45Z</time></trkpt><trkpt lat="44.1911834" lon="8.1281032"><ele>701.0</ele><time>2026-04-28T07:50:13.45Z</time></trkpt><trkpt lat="44.1910313" lon="8.1282331"><ele>702.0</ele><time>2026-04-28T07:50:14.449Z</time></trkpt><trkpt lat="44.1908796" lon="8.1283559"><ele>703.0</ele><time>2026-04-28T07:50:15.45Z</time></trkpt><trkpt lat="44.1907224" lon="8.1284468"><ele>702.6666666666667</ele><time>2026-04-28T07:50:16.449Z</time></trkpt><trkpt lat="44.1905497" lon="8.128517"><ele>702.3333333333334</ele><time>2026-04-28T07:50:17.449Z</time></trkpt><trkpt lat="44.1903687" lon="8.1285654"><ele>702.0</ele><time>2026-04-28T07:50:18.449Z</time></trkpt><trkpt lat="44.1901838" lon="8.1286121"><ele>702.0</ele><time>2026-04-28T07:50:19.449Z</time></trkpt><trkpt lat="44.1899951" lon="8.1286611"><ele>702.0</ele><time>2026-04-28T07:50:20.45Z</time></trkpt><trkpt lat="44.1897996" lon="8.1287094"><ele>702.0</ele><time>2026-04-28T07:50:21.449Z</time></trkpt><trkpt lat="44.1895993" lon="8.1287637"><ele>702.0</ele><time>2026-04-28T07:50:22.449Z</time></trkpt><trkpt lat="44.189401" lon="8.1288117"><ele>702.0</ele><time>2026-04-28T07:50:23.448Z</time></trkpt><trkpt lat="44.1892037" lon="8.1288603"><ele>702.0</ele><time>2026-04-28T07:50:24.448Z</time></trkpt><trkpt lat="44.189005" lon="8.1289067"><ele>702.0</ele><time>2026-04-28T07:50:25.45Z</time></trkpt><trkpt lat="44.1888039" lon="8.1289582"><ele>702.0</ele><time>2026-04-28T07:50:26.45Z</time></trkpt><trkpt lat="44.1886054" lon="8.1290183"><ele>702.0</ele><time>2026-04-28T07:50:27.449Z</time></trkpt><trkpt lat="44.1884115" lon="8.1290652"><ele>702.3333333333334</ele><time>2026-04-28T07:50:28.449Z</time></trkpt><trkpt lat="44.1882173" lon="8.1291023"><ele>702.6666666666667</ele><time>2026-04-28T07:50:29.448Z</time></trkpt><trkpt lat="44.188019" lon="8.1291369"><ele>703.0</ele><time>2026-04-28T07:50:30.45Z</time></trkpt><trkpt lat="44.1878258" lon="8.1291816"><ele>703.0</ele><time>2026-04-28T07:50:31.45Z</time></trkpt><trkpt lat="44.1876387" lon="8.1292242"><ele>703.0</ele><time>2026-04-28T07:50:32.449Z</time></trkpt><trkpt lat="44.1874629" lon="8.1292628"><ele>703.0</ele><time>2026-04-28T07:50:33.45Z</time></trkpt><trkpt lat="44.187293" lon="8.129297"><ele>704.0</ele><time>2026-04-28T07:50:34.449Z</time></trkpt><trkpt lat="44.1871324" lon="8.1292997"><ele>705.0</ele><time>2026-04-28T07:50:35.45Z</time></trkpt><trkpt lat="44.1869917" lon="8.129248"><ele>706.0</ele><time>2026-04-28T07:50:36.45Z</time></trkpt><trkpt lat="44.1868731" lon="8.1291177"><ele>705.0</ele><time>2026-04-28T07:50:37.45Z</time></trkpt><trkpt lat="44.1867613" lon="8.1289557"><ele>704.0</ele><time>2026-04-28T07:50:38.449Z</time></trkpt><trkpt lat="44.1866513" lon="8.1287946"><ele>703.0</ele><time>2026-04-28T07:50:39.45Z</time></trkpt><trkpt lat="44.1865415" lon="8.1286543"><ele>703.5</ele><time>2026-04-28T07:50:40.449Z</time></trkpt><trkpt lat="44.1864359" lon="8.1285294"><ele>704.0</ele><time>2026-04-28T07:50:41.45Z</time></trkpt><trkpt lat="44.1863231" lon="8.1284044"><ele>704.5</ele><time>2026-04-28T07:50:42.449Z</time></trkpt><trkpt lat="44.1861817" lon="8.1283357"><ele>705.0</ele><time>2026-04-28T07:50:43.449Z</time></trkpt><trkpt lat="44.1860198" lon="8.1283129"><ele>705.0</ele><time>2026-04-28T07:50:44.45Z</time></trkpt><trkpt lat="44.1858247" lon="8.1284034"><ele>705.0</ele><time>2026-04-28T07:50:45.45Z</time></trkpt><trkpt lat="44.1856449" lon="8.1286941"><ele>705.3333333333334</ele><time>2026-04-28T07:50:46.45Z</time></trkpt><trkpt lat="44.1854714" lon="8.1288268"><ele>705.6666666666667</ele><time>2026-04-28T07:50:47.448Z</time></trkpt><trkpt lat="44.1853061" lon="8.1289529"><ele>706.0</ele><time>2026-04-28T07:50:48.449Z</time></trkpt><trkpt lat="44.1851259" lon="8.1290817"><ele>708.0</ele><time>2026-04-28T07:50:49.45Z</time></trkpt><trkpt lat="44.1849312" lon="8.1291831"><ele>710.0</ele><time>2026-04-28T07:50:50.45Z</time></trkpt><trkpt lat="44.184735" lon="8.1292489"><ele>712.0</ele><time>2026-04-28T07:50:51.449Z</time></trkpt><trkpt lat="44.1845324" lon="8.1293038"><ele>712.0</ele><time>2026-04-28T07:50:52.449Z</time></trkpt><trkpt lat="44.1843279" lon="8.1293524"><ele>712.0</ele><time>2026-04-28T07:50:53.45Z</time></trkpt><trkpt lat="44.1841292" lon="8.1293856"><ele>712.0</ele><time>2026-04-28T07:50:54.45Z</time></trkpt><trkpt lat="44.1839225" lon="8.1294353"><ele>712.6666666666667</ele><time>2026-04-28T07:50:55.449Z</time></trkpt><trkpt lat="44.1837098" lon="8.1294765"><ele>713.3333333333334</ele><time>2026-04-28T07:50:56.45Z</time></trkpt><trkpt lat="44.1835045" lon="8.1295314"><ele>714.0</ele><time>2026-04-28T07:50:57.449Z</time></trkpt><trkpt lat="44.1832996" lon="8.1295897"><ele>713.0</ele><time>2026-04-28T07:50:58.45Z</time></trkpt><trkpt lat="44.1830851" lon="8.1296452"><ele>712.0</ele><time>2026-04-28T07:50:59.45Z</time></trkpt><trkpt lat="44.1828813" lon="8.1297012"><ele>711.0</ele><time>2026-04-28T07:51:00.449Z</time></trkpt><trkpt lat="44.1826727" lon="8.1297556"><ele>711.0</ele><time>2026-04-28T07:51:01.449Z</time></trkpt><trkpt lat="44.1824716" lon="8.1298068"><ele>711.0</ele><time>2026-04-28T07:51:02.45Z</time></trkpt><trkpt lat="44.1822828" lon="8.1298723"><ele>711.0</ele><time>2026-04-28T07:51:03.449Z</time></trkpt><trkpt lat="44.1821098" lon="8.129941"><ele>712.0</ele><time>2026-04-28T07:51:04.449Z</time></trkpt><trkpt lat="44.1819522" lon="8.1300353"><ele>713.0</ele><time>2026-04-28T07:51:05.449Z</time></trkpt><trkpt lat="44.181799" lon="8.1301578"><ele>714.0</ele><time>2026-04-28T07:51:06.45Z</time></trkpt><trkpt lat="44.1816418" lon="8.1303003"><ele>714.3333333333334</ele><time>2026-04-28T07:51:07.45Z</time></trkpt><trkpt lat="44.1815075" lon="8.1304632"><ele>714.6666666666667</ele><time>2026-04-28T07:51:08.45Z</time></trkpt><trkpt lat="44.1814007" lon="8.1307228"><ele>715.0</ele><time>2026-04-28T07:51:09.448Z</time></trkpt><trkpt lat="44.18126" lon="8.130891"><ele>715.0</ele><time>2026-04-28T07:51:10.45Z</time></trkpt><trkpt lat="44.1810948" lon="8.131025"><ele>715.0</ele><time>2026-04-28T07:51:11.449Z</time></trkpt><trkpt lat="44.180925" lon="8.1311642"><ele>715.0</ele><time>2026-04-28T07:51:12.45Z</time></trkpt><trkpt lat="44.1807562" lon="8.1313083"><ele>715.3333333333334</ele><time>2026-04-28T07:51:13.45Z</time></trkpt><trkpt lat="44.180596" lon="8.1314537"><ele>715.6666666666666</ele><time>2026-04-28T07:51:14.449Z</time></trkpt><trkpt lat="44.1804474" lon="8.1316094"><ele>716.0</ele><time>2026-04-28T07:51:15.45Z</time></trkpt><trkpt lat="44.1803563" lon="8.1317861"><ele>716.0</ele><time>2026-04-28T07:51:16.448Z</time></trkpt><trkpt lat="44.1802761" lon="8.1320162"><ele>716.0</ele><time>2026-04-28T07:51:17.448Z</time></trkpt><trkpt lat="44.1801813" lon="8.1322184"><ele>716.0</ele><time>2026-04-28T07:51:18.45Z</time></trkpt><trkpt lat="44.180069" lon="8.1324061"><ele>716.6666666666666</ele><time>2026-04-28T07:51:19.449Z</time></trkpt><trkpt lat="44.1799676" lon="8.1325887"><ele>717.3333333333334</ele><time>2026-04-28T07:51:20.45Z</time></trkpt><trkpt lat="44.1797611" lon="8.1326691"><ele>718.0</ele><time>2026-04-28T07:51:21.449Z</time></trkpt><trkpt lat="44.1795804" lon="8.1327652"><ele>718.0</ele><time>2026-04-28T07:51:22.45Z</time></trkpt><trkpt lat="44.1794083" lon="8.1328423"><ele>718.0</ele><time>2026-04-28T07:51:23.45Z</time></trkpt><trkpt lat="44.1792281" lon="8.1328995"><ele>718.0</ele><time>2026-04-28T07:51:24.45Z</time></trkpt><trkpt lat="44.1790513" lon="8.1329516"><ele>717.3333333333334</ele><time>2026-04-28T07:51:25.449Z</time></trkpt><trkpt lat="44.178893" lon="8.1330085"><ele>716.6666666666666</ele><time>2026-04-28T07:51:26.45Z</time></trkpt><trkpt lat="44.1787379" lon="8.1331258"><ele>716.0</ele><time>2026-04-28T07:51:27.45Z</time></trkpt><trkpt lat="44.1785816" lon="8.1332476"><ele>718.3333333333333</ele><time>2026-04-28T07:51:28.449Z</time></trkpt><trkpt lat="44.1784139" lon="8.1333295"><ele>720.6666666666666</ele><time>2026-04-28T07:51:29.449Z</time></trkpt><trkpt lat="44.1782381" lon="8.1333708"><ele>723.0</ele><time>2026-04-28T07:51:30.45Z</time></trkpt><trkpt lat="44.1780576" lon="8.1333834"><ele>723.0</ele><time>2026-04-28T07:51:31.45Z</time></trkpt><trkpt lat="44.1778879" lon="8.1334154"><ele>723.0</ele><time>2026-04-28T07:51:32.449Z</time></trkpt><trkpt lat="44.1777139" lon="8.1334593"><ele>723.0</ele><time>2026-04-28T07:51:33.448Z</time></trkpt><trkpt lat="44.1775617" lon="8.1336335"><ele>723.0</ele><time>2026-04-28T07:51:34.45Z</time></trkpt><trkpt lat="44.1773889" lon="8.1337776"><ele>723.0</ele><time>2026-04-28T07:51:35.45Z</time></trkpt><trkpt lat="44.1772292" lon="8.1339232"><ele>723.0</ele><time>2026-04-28T07:51:36.45Z</time></trkpt><trkpt lat="44.1770586" lon="8.1340641"><ele>724.0</ele><time>2026-04-28T07:51:37.449Z</time></trkpt><trkpt lat="44.176876" lon="8.1341992"><ele>725.0</ele><time>2026-04-28T07:51:38.449Z</time></trkpt><trkpt lat="44.1767063" lon="8.1343237"><ele>726.0</ele><time>2026-04-28T07:51:39.45Z</time></trkpt><trkpt lat="44.1765186" lon="8.1344264"><ele>726.0</ele><time>2026-04-28T07:51:40.45Z</time></trkpt><trkpt lat="44.1763216" lon="8.1345036"><ele>726.0</ele><time>2026-04-28T07:51:41.449Z</time></trkpt><trkpt lat="44.1761382" lon="8.1345337"><ele>726.0</ele><time>2026-04-28T07:51:42.45Z</time></trkpt><trkpt lat="44.1759609" lon="8.1345436"><ele>726.0</ele><time>2026-04-28T07:51:43.449Z</time></trkpt><trkpt lat="44.1757855" lon="8.1345802"><ele>726.0</ele><time>2026-04-28T07:51:44.448Z</time></trkpt><trkpt lat="44.1756333" lon="8.134644"><ele>726.0</ele><time>2026-04-28T07:51:45.449Z</time></trkpt><trkpt lat="44.1754931" lon="8.1347446"><ele>726.0</ele><time>2026-04-28T07:51:46.449Z</time></trkpt><trkpt lat="44.1753973" lon="8.1350052"><ele>726.0</ele><time>2026-04-28T07:51:47.449Z</time></trkpt><trkpt lat="44.1752456" lon="8.1351393"><ele>726.0</ele><time>2026-04-28T07:51:48.45Z</time></trkpt><trkpt lat="44.1751007" lon="8.1352499"><ele>726.0</ele><time>2026-04-28T07:51:49.449Z</time></trkpt><trkpt lat="44.1749552" lon="8.1353419"><ele>726.0</ele><time>2026-04-28T07:51:50.45Z</time></trkpt><trkpt lat="44.1748077" lon="8.1353482"><ele>726.0</ele><time>2026-04-28T07:51:51.45Z</time></trkpt><trkpt lat="44.1746808" lon="8.1352739"><ele>726.0</ele><time>2026-04-28T07:51:52.449Z</time></trkpt><trkpt lat="44.1745687" lon="8.1351568"><ele>728.5</ele><time>2026-04-28T07:51:53.448Z</time></trkpt><trkpt lat="44.1744522" lon="8.1350477"><ele>731.0</ele><time>2026-04-28T07:51:54.45Z</time></trkpt><trkpt lat="44.1744132" lon="8.1348647"><ele>733.5</ele><time>2026-04-28T07:51:55.45Z</time></trkpt><trkpt lat="44.1743144" lon="8.1347608"><ele>736.0</ele><time>2026-04-28T07:51:56.45Z</time></trkpt><trkpt lat="44.1742239" lon="8.1346512"><ele>736.75</ele><time>2026-04-28T07:51:57.449Z</time></trkpt><trkpt lat="44.174141" lon="8.1346"><ele>737.5</ele><time>2026-04-28T07:51:58.45Z</time></trkpt><trkpt lat="44.1740454" lon="8.1345229"><ele>738.25</ele><time>2026-04-28T07:51:59.449Z</time></trkpt><trkpt lat="44.1739137" lon="8.1345332"><ele>739.0</ele><time>2026-04-28T07:52:00.449Z</time></trkpt><trkpt lat="44.1738121" lon="8.134384"><ele>739.0</ele><time>2026-04-28T07:52:01.449Z</time></trkpt><trkpt lat="44.1737225" lon="8.134294"><ele>739.0</ele><time>2026-04-28T07:52:02.448Z</time></trkpt><trkpt lat="44.1736545" lon="8.1341551"><ele>739.0</ele><time>2026-04-28T07:52:03.449Z</time></trkpt><trkpt lat="44.1735709" lon="8.134039"><ele>739.0</ele><time>2026-04-28T07:52:04.45Z</time></trkpt><trkpt lat="44.1734636" lon="8.1339592"><ele>738.75</ele><time>2026-04-28T07:52:05.449Z</time></trkpt><trkpt lat="44.1733599" lon="8.1338916"><ele>738.5</ele><time>2026-04-28T07:52:06.45Z</time></trkpt><trkpt lat="44.1732581" lon="8.1338329"><ele>738.25</ele><time>2026-04-28T07:52:07.45Z</time></trkpt><trkpt lat="44.1731682" lon="8.1337564"><ele>738.0</ele><time>2026-04-28T07:52:08.449Z</time></trkpt><trkpt lat="44.1730783" lon="8.1336272"><ele>738.0</ele><time>2026-04-28T07:52:09.449Z</time></trkpt><trkpt lat="44.1729914" lon="8.1334778"><ele>738.0</ele><time>2026-04-28T07:52:10.449Z</time></trkpt><trkpt lat="44.1729001" lon="8.1333115"><ele>738.0</ele><time>2026-04-28T07:52:11.449Z</time></trkpt><trkpt lat="44.1728052" lon="8.1331444"><ele>738.0</ele><time>2026-04-28T07:52:12.449Z</time></trkpt><trkpt lat="44.1727054" lon="8.1329686"><ele>740.6666666666666</ele><time>2026-04-28T07:52:13.448Z</time></trkpt><trkpt lat="44.1726049" lon="8.1328005"><ele>743.3333333333333</ele><time>2026-04-28T07:52:14.45Z</time></trkpt><trkpt lat="44.1725089" lon="8.1326175"><ele>746.0</ele><time>2026-04-28T07:52:15.45Z</time></trkpt><trkpt lat="44.1724138" lon="8.1324472"><ele>747.75</ele><time>2026-04-28T07:52:16.45Z</time></trkpt><trkpt lat="44.1723158" lon="8.132283"><ele>749.5</ele><time>2026-04-28T07:52:17.45Z</time></trkpt><trkpt lat="44.172211" lon="8.1321438"><ele>751.25</ele><time>2026-04-28T07:52:18.449Z</time></trkpt><trkpt lat="44.1721081" lon="8.1320067"><ele>753.0</ele><time>2026-04-28T07:52:19.448Z</time></trkpt><trkpt lat="44.1719257" lon="8.132021"><ele>753.0</ele><time>2026-04-28T07:52:20.449Z</time></trkpt><trkpt lat="44.1717745" lon="8.1320035"><ele>753.0</ele><time>2026-04-28T07:52:21.449Z</time></trkpt><trkpt lat="44.1716164" lon="8.132011"><ele>753.0</ele><time>2026-04-28T07:52:22.449Z</time></trkpt><trkpt lat="44.1714556" lon="8.1320429"><ele>756.0</ele><time>2026-04-28T07:52:23.45Z</time></trkpt><trkpt lat="44.1712976" lon="8.1320787"><ele>759.0</ele><time>2026-04-28T07:52:24.449Z</time></trkpt><trkpt lat="44.1711428" lon="8.1321323"><ele>762.0</ele><time>2026-04-28T07:52:25.45Z</time></trkpt><trkpt lat="44.1709942" lon="8.1321721"><ele>762.0</ele><time>2026-04-28T07:52:26.45Z</time></trkpt><trkpt lat="44.1708443" lon="8.1322069"><ele>762.0</ele><time>2026-04-28T07:52:27.449Z</time></trkpt><trkpt lat="44.1706976" lon="8.1322251"><ele>762.0</ele><time>2026-04-28T07:52:28.449Z</time></trkpt><trkpt lat="44.1705634" lon="8.1322211"><ele>762.0</ele><time>2026-04-28T07:52:29.45Z</time></trkpt><trkpt lat="44.1704395" lon="8.1322011"><ele>759.75</ele><time>2026-04-28T07:52:30.449Z</time></trkpt><trkpt lat="44.1703489" lon="8.1320833"><ele>757.5</ele><time>2026-04-28T07:52:31.449Z</time></trkpt><trkpt lat="44.1702798" lon="8.1319264"><ele>755.25</ele><time>2026-04-28T07:52:32.45Z</time></trkpt><trkpt lat="44.1701865" lon="8.1317818"><ele>753.0</ele><time>2026-04-28T07:52:33.45Z</time></trkpt><trkpt lat="44.1700658" lon="8.1316341"><ele>753.3333333333334</ele><time>2026-04-28T07:52:34.45Z</time></trkpt><trkpt lat="44.1699365" lon="8.131487"><ele>753.6666666666667</ele><time>2026-04-28T07:52:35.449Z</time></trkpt><trkpt lat="44.1697889" lon="8.1313607"><ele>754.0</ele><time>2026-04-28T07:52:36.449Z</time></trkpt><trkpt lat="44.1696102" lon="8.1312881"><ele>754.0</ele><time>2026-04-28T07:52:37.449Z</time></trkpt><trkpt lat="44.1694361" lon="8.1312056"><ele>754.0</ele><time>2026-04-28T07:52:38.45Z</time></trkpt><trkpt lat="44.1692745" lon="8.1310946"><ele>754.0</ele><time>2026-04-28T07:52:39.45Z</time></trkpt><trkpt lat="44.169132" lon="8.1309484"><ele>751.0</ele><time>2026-04-28T07:52:40.449Z</time></trkpt><trkpt lat="44.1689753" lon="8.1308052"><ele>748.0</ele><time>2026-04-28T07:52:41.45Z</time></trkpt><trkpt lat="44.1688068" lon="8.1306637"><ele>745.0</ele><time>2026-04-28T07:52:42.449Z</time></trkpt><trkpt lat="44.1686214" lon="8.1305511"><ele>746.6666666666667</ele><time>2026-04-28T07:52:43.449Z</time></trkpt><trkpt lat="44.168439" lon="8.1304471"><ele>748.3333333333334</ele><time>2026-04-28T07:52:44.45Z</time></trkpt><trkpt lat="44.1682562" lon="8.1303467"><ele>750.0</ele><time>2026-04-28T07:52:45.449Z</time></trkpt><trkpt lat="44.1680854" lon="8.1302492"><ele>750.0</ele><time>2026-04-28T07:52:46.45Z</time></trkpt><trkpt lat="44.1679268" lon="8.1301159"><ele>750.0</ele><time>2026-04-28T07:52:47.449Z</time></trkpt><trkpt lat="44.1677821" lon="8.1299553"><ele>750.0</ele><time>2026-04-28T07:52:48.45Z</time></trkpt><trkpt lat="44.1676388" lon="8.1297885"><ele>750.3333333333334</ele><time>2026-04-28T07:52:49.45Z</time></trkpt><trkpt lat="44.1675033" lon="8.1296021"><ele>750.6666666666667</ele><time>2026-04-28T07:52:50.449Z</time></trkpt><trkpt lat="44.1673793" lon="8.129412"><ele>751.0</ele><time>2026-04-28T07:52:51.449Z</time></trkpt><trkpt lat="44.167278" lon="8.1292322"><ele>751.75</ele><time>2026-04-28T07:52:52.449Z</time></trkpt><trkpt lat="44.1672165" lon="8.129057"><ele>752.5</ele><time>2026-04-28T07:52:53.45Z</time></trkpt><trkpt lat="44.167209" lon="8.1288662"><ele>753.25</ele><time>2026-04-28T07:52:54.449Z</time></trkpt><trkpt lat="44.1672009" lon="8.1286876"><ele>754.0</ele><time>2026-04-28T07:52:55.45Z</time></trkpt><trkpt lat="44.1673034" lon="8.1285081"><ele>756.0</ele><time>2026-04-28T07:52:56.45Z</time></trkpt><trkpt lat="44.1673782" lon="8.1283352"><ele>758.0</ele><time>2026-04-28T07:52:57.449Z</time></trkpt><trkpt lat="44.1674917" lon="8.1281879"><ele>760.0</ele><time>2026-04-28T07:52:58.45Z</time></trkpt><trkpt lat="44.1675866" lon="8.1280342"><ele>762.0</ele><time>2026-04-28T07:52:59.448Z</time></trkpt><trkpt lat="44.1676327" lon="8.1278637"><ele>762.0</ele><time>2026-04-28T07:53:00.449Z</time></trkpt><trkpt lat="44.1676736" lon="8.1277096"><ele>762.0</ele><time>2026-04-28T07:53:01.45Z</time></trkpt><trkpt lat="44.1675984" lon="8.1275405"><ele>762.0</ele><time>2026-04-28T07:53:02.449Z</time></trkpt><trkpt lat="44.1675881" lon="8.1273518"><ele>762.0</ele><time>2026-04-28T07:53:03.45Z</time></trkpt><trkpt lat="44.1674356" lon="8.1273015"><ele>763.6666666666666</ele><time>2026-04-28T07:53:04.45Z</time></trkpt><trkpt lat="44.1672707" lon="8.1272791"><ele>765.3333333333333</ele><time>2026-04-28T07:53:05.449Z</time></trkpt><trkpt lat="44.1671277" lon="8.1272513"><ele>767.0</ele><time>2026-04-28T07:53:06.45Z</time></trkpt><trkpt lat="44.1669884" lon="8.1272102"><ele>767.0</ele><time>2026-04-28T07:53:07.45Z</time></trkpt><trkpt lat="44.1668274" lon="8.1271651"><ele>767.0</ele><time>2026-04-28T07:53:08.449Z</time></trkpt><trkpt lat="44.1666862" lon="8.1270705"><ele>767.0</ele><time>2026-04-28T07:53:09.45Z</time></trkpt><trkpt lat="44.1665663" lon="8.1269495"><ele>768.0</ele><time>2026-04-28T07:53:10.45Z</time></trkpt><trkpt lat="44.1664517" lon="8.126834"><ele>769.0</ele><time>2026-04-28T07:53:11.449Z</time></trkpt><trkpt lat="44.1664346" lon="8.1265808"><ele>770.0</ele><time>2026-04-28T07:53:12.449Z</time></trkpt><trkpt lat="44.1663732" lon="8.1264217"><ele>771.6</ele><time>2026-04-28T07:53:13.45Z</time></trkpt><trkpt lat="44.1663063" lon="8.1263109"><ele>773.2</ele><time>2026-04-28T07:53:14.449Z</time></trkpt><trkpt lat="44.1662229" lon="8.1262897"><ele>774.8</ele><time>2026-04-28T07:53:15.45Z</time></trkpt><trkpt lat="44.1661348" lon="8.1263285"><ele>776.4</ele><time>2026-04-28T07:53:16.449Z</time></trkpt><trkpt lat="44.1660572" lon="8.1263387"><ele>778.0</ele><time>2026-04-28T07:53:17.449Z</time></trkpt><trkpt lat="44.1659666" lon="8.1264322"><ele>776.0</ele><time>2026-04-28T07:53:18.45Z</time></trkpt><trkpt lat="44.1659378" lon="8.1266716"><ele>774.0</ele><time>2026-04-28T07:53:19.45Z</time></trkpt><trkpt lat="44.1658499" lon="8.126778"><ele>772.0</ele><time>2026-04-28T07:53:20.449Z</time></trkpt><trkpt lat="44.165777" lon="8.1269178"><ele>770.0</ele><time>2026-04-28T07:53:21.45Z</time></trkpt><trkpt lat="44.1657009" lon="8.1270171"><ele>770.3333333333334</ele><time>2026-04-28T07:53:22.45Z</time></trkpt><trkpt lat="44.1655819" lon="8.1270059"><ele>770.6666666666667</ele><time>2026-04-28T07:53:23.449Z</time></trkpt><trkpt lat="44.1654011" lon="8.1268563"><ele>771.0</ele><time>2026-04-28T07:53:24.45Z</time></trkpt><trkpt lat="44.1652828" lon="8.1267423"><ele>771.0</ele><time>2026-04-28T07:53:25.45Z</time></trkpt><trkpt lat="44.1651495" lon="8.1266417"><ele>771.0</ele><time>2026-04-28T07:53:26.45Z</time></trkpt><trkpt lat="44.1650089" lon="8.1265617"><ele>771.0</ele><time>2026-04-28T07:53:27.449Z</time></trkpt><trkpt lat="44.1648941" lon="8.1264268"><ele>772.0</ele><time>2026-04-28T07:53:28.45Z</time></trkpt><trkpt lat="44.1648018" lon="8.1262566"><ele>773.0</ele><time>2026-04-28T07:53:29.45Z</time></trkpt><trkpt lat="44.1647112" lon="8.1261073"><ele>774.0</ele><time>2026-04-28T07:53:30.449Z</time></trkpt><trkpt lat="44.1646436" lon="8.1259587"><ele>775.0</ele><time>2026-04-28T07:53:31.45Z</time></trkpt><trkpt lat="44.1646189" lon="8.1257919"><ele>778.4</ele><time>2026-04-28T07:53:32.449Z</time></trkpt><trkpt lat="44.1646477" lon="8.125635"><ele>781.8</ele><time>2026-04-28T07:53:33.449Z</time></trkpt><trkpt lat="44.1646449" lon="8.1254922"><ele>785.2</ele><time>2026-04-28T07:53:34.45Z</time></trkpt><trkpt lat="44.1645722" lon="8.1253826"><ele>788.6</ele><time>2026-04-28T07:53:35.45Z</time></trkpt><trkpt lat="44.1645037" lon="8.1253171"><ele>792.0</ele><time>2026-04-28T07:53:36.45Z</time></trkpt><trkpt lat="44.1644483" lon="8.1252344"><ele>792.0</ele><time>2026-04-28T07:53:37.449Z</time></trkpt><trkpt lat="44.1643405" lon="8.1252734"><ele>792.0</ele><time>2026-04-28T07:53:38.449Z</time></trkpt><trkpt lat="44.1642324" lon="8.1252818"><ele>792.0</ele><time>2026-04-28T07:53:39.448Z</time></trkpt><trkpt lat="44.1640651" lon="8.1253056"><ele>792.0</ele><time>2026-04-28T07:53:40.449Z</time></trkpt><trkpt lat="44.1639132" lon="8.1252909"><ele>790.0</ele><time>2026-04-28T07:53:41.449Z</time></trkpt><trkpt lat="44.163762" lon="8.1252652"><ele>788.0</ele><time>2026-04-28T07:53:42.45Z</time></trkpt><trkpt lat="44.1636292" lon="8.1252073"><ele>786.0</ele><time>2026-04-28T07:53:43.45Z</time></trkpt><trkpt lat="44.1635362" lon="8.1250873"><ele>784.0</ele><time>2026-04-28T07:53:44.45Z</time></trkpt><trkpt lat="44.1634717" lon="8.124926"><ele>787.0</ele><time>2026-04-28T07:53:45.449Z</time></trkpt><trkpt lat="44.1634241" lon="8.1247459"><ele>790.0</ele><time>2026-04-28T07:53:46.449Z</time></trkpt><trkpt lat="44.1633827" lon="8.1245559"><ele>793.0</ele><time>2026-04-28T07:53:47.45Z</time></trkpt><trkpt lat="44.1633432" lon="8.1243723"><ele>796.0</ele><time>2026-04-28T07:53:48.45Z</time></trkpt><trkpt lat="44.1632798" lon="8.1242105"><ele>795.75</ele><time>2026-04-28T07:53:49.448Z</time></trkpt><trkpt lat="44.1631687" lon="8.1240757"><ele>795.5</ele><time>2026-04-28T07:53:50.45Z</time></trkpt><trkpt lat="44.1630412" lon="8.1239616"><ele>795.25</ele><time>2026-04-28T07:53:51.449Z</time></trkpt><trkpt lat="44.1629259" lon="8.123836"><ele>795.0</ele><time>2026-04-28T07:53:52.45Z</time></trkpt><trkpt lat="44.1627938" lon="8.1236945"><ele>795.0</ele><time>2026-04-28T07:53:53.45Z</time></trkpt><trkpt lat="44.1626778" lon="8.1235499"><ele>795.0</ele><time>2026-04-28T07:53:54.45Z</time></trkpt><trkpt lat="44.1625576" lon="8.1233566"><ele>795.0</ele><time>2026-04-28T07:53:55.448Z</time></trkpt><trkpt lat="44.1624114" lon="8.1232113"><ele>795.3333333333333</ele><time>2026-04-28T07:53:56.45Z</time></trkpt><trkpt lat="44.1622856" lon="8.123056"><ele>795.6666666666666</ele><time>2026-04-28T07:53:57.449Z</time></trkpt><trkpt lat="44.1621595" lon="8.1228952"><ele>796.0</ele><time>2026-04-28T07:53:58.449Z</time></trkpt><trkpt lat="44.1620293" lon="8.1227527"><ele>796.0</ele><time>2026-04-28T07:53:59.45Z</time></trkpt><trkpt lat="44.1619253" lon="8.122604"><ele>796.0</ele><time>2026-04-28T07:54:00.45Z</time></trkpt><trkpt lat="44.1618692" lon="8.122416"><ele>796.0</ele><time>2026-04-28T07:54:01.45Z</time></trkpt><trkpt lat="44.1618417" lon="8.1222355"><ele>796.0</ele><time>2026-04-28T07:54:02.449Z</time></trkpt><trkpt lat="44.1618783" lon="8.122043"><ele>798.6666666666666</ele><time>2026-04-28T07:54:03.448Z</time></trkpt><trkpt lat="44.1619023" lon="8.1218437"><ele>801.3333333333333</ele><time>2026-04-28T07:54:04.45Z</time></trkpt><trkpt lat="44.1619211" lon="8.1216323"><ele>804.0</ele><time>2026-04-28T07:54:05.45Z</time></trkpt><trkpt lat="44.1619321" lon="8.1214196"><ele>806.3333333333333</ele><time>2026-04-28T07:54:06.45Z</time></trkpt><trkpt lat="44.1619441" lon="8.1212034"><ele>808.6666666666666</ele><time>2026-04-28T07:54:07.45Z</time></trkpt><trkpt lat="44.1619583" lon="8.1209858"><ele>811.0</ele><time>2026-04-28T07:54:08.45Z</time></trkpt><trkpt lat="44.1619691" lon="8.120772"><ele>812.75</ele><time>2026-04-28T07:54:09.45Z</time></trkpt><trkpt lat="44.1619595" lon="8.1205784"><ele>814.5</ele><time>2026-04-28T07:54:10.449Z</time></trkpt><trkpt lat="44.1619227" lon="8.1204024"><ele>816.25</ele><time>2026-04-28T07:54:11.448Z</time></trkpt><trkpt lat="44.1618938" lon="8.120225"><ele>818.0</ele><time>2026-04-28T07:54:12.45Z</time></trkpt><trkpt lat="44.1618551" lon="8.1201467"><ele>818.0</ele><time>2026-04-28T07:54:13.449Z</time></trkpt><trkpt lat="44.1617725" lon="8.1200773"><ele>818.0</ele><time>2026-04-28T07:54:14.45Z</time></trkpt><trkpt lat="44.1616212" lon="8.1201248"><ele>818.0</ele><time>2026-04-28T07:54:15.449Z</time></trkpt><trkpt lat="44.161438" lon="8.1202704"><ele>818.6666666666667</ele><time>2026-04-28T07:54:16.449Z</time></trkpt><trkpt lat="44.1612944" lon="8.1205677"><ele>819.3333333333333</ele><time>2026-04-28T07:54:17.45Z</time></trkpt><trkpt lat="44.1611719" lon="8.1207146"><ele>820.0</ele><time>2026-04-28T07:54:18.45Z</time></trkpt><trkpt lat="44.1610257" lon="8.1208939"><ele>820.0</ele><time>2026-04-28T07:54:19.45Z</time></trkpt><trkpt lat="44.1608844" lon="8.1210224"><ele>820.0</ele><time>2026-04-28T07:54:20.45Z</time></trkpt><trkpt lat="44.1607419" lon="8.1210832"><ele>820.0</ele><time>2026-04-28T07:54:21.449Z</time></trkpt><trkpt lat="44.1605745" lon="8.121098"><ele>820.0</ele><time>2026-04-28T07:54:22.449Z</time></trkpt><trkpt lat="44.1604116" lon="8.1210442"><ele>820.0</ele><time>2026-04-28T07:54:23.449Z</time></trkpt><trkpt lat="44.1602547" lon="8.1209405"><ele>820.0</ele><time>2026-04-28T07:54:24.45Z</time></trkpt><trkpt lat="44.1601083" lon="8.1208101"><ele>818.6666666666666</ele><time>2026-04-28T07:54:25.449Z</time></trkpt><trkpt lat="44.1599639" lon="8.1206825"><ele>817.3333333333333</ele><time>2026-04-28T07:54:26.45Z</time></trkpt><trkpt lat="44.1598298" lon="8.1205789"><ele>816.0</ele><time>2026-04-28T07:54:27.448Z</time></trkpt><trkpt lat="44.1597014" lon="8.1205114"><ele>812.4</ele><time>2026-04-28T07:54:28.449Z</time></trkpt><trkpt lat="44.1595778" lon="8.1204421"><ele>808.8</ele><time>2026-04-28T07:54:29.449Z</time></trkpt><trkpt lat="44.1594563" lon="8.1204327"><ele>805.1999999999999</ele><time>2026-04-28T07:54:30.449Z</time></trkpt><trkpt lat="44.1593728" lon="8.1204386"><ele>801.5999999999999</ele><time>2026-04-28T07:54:31.45Z</time></trkpt><trkpt lat="44.1593393" lon="8.1205705"><ele>798.0</ele><time>2026-04-28T07:54:32.45Z</time></trkpt><trkpt lat="44.1592778" lon="8.1209962"><ele>798.0</ele><time>2026-04-28T07:54:33.449Z</time></trkpt><trkpt lat="44.1591973" lon="8.1212267"><ele>798.0</ele><time>2026-04-28T07:54:34.449Z</time></trkpt><trkpt lat="44.1591212" lon="8.1214332"><ele>798.0</ele><time>2026-04-28T07:54:35.449Z</time></trkpt><trkpt lat="44.1590362" lon="8.1216335"><ele>791.3333333333333</ele><time>2026-04-28T07:54:36.45Z</time></trkpt><trkpt lat="44.1589334" lon="8.1218243"><ele>784.6666666666666</ele><time>2026-04-28T07:54:37.449Z</time></trkpt><trkpt lat="44.1588207" lon="8.1220086"><ele>778.0</ele><time>2026-04-28T07:54:38.45Z</time></trkpt><trkpt lat="44.1586943" lon="8.1221773"><ele>778.0</ele><time>2026-04-28T07:54:39.449Z</time></trkpt><trkpt lat="44.1585553" lon="8.1223451"><ele>778.0</ele><time>2026-04-28T07:54:40.449Z</time></trkpt><trkpt lat="44.1584061" lon="8.1224971"><ele>778.0</ele><time>2026-04-28T07:54:41.449Z</time></trkpt><trkpt lat="44.1582507" lon="8.1226279"><ele>775.6666666666666</ele><time>2026-04-28T07:54:42.449Z</time></trkpt><trkpt lat="44.1580907" lon="8.1227308"><ele>773.3333333333333</ele><time>2026-04-28T07:54:43.449Z</time></trkpt><trkpt lat="44.1579249" lon="8.1228321"><ele>771.0</ele><time>2026-04-28T07:54:44.45Z</time></trkpt><trkpt lat="44.1577651" lon="8.1229347"><ele>771.0</ele><time>2026-04-28T07:54:45.45Z</time></trkpt><trkpt lat="44.1576106" lon="8.1230407"><ele>771.0</ele><time>2026-04-28T07:54:46.449Z</time></trkpt><trkpt lat="44.1574587" lon="8.1231429"><ele>771.0</ele><time>2026-04-28T07:54:47.449Z</time></trkpt><trkpt lat="44.1573158" lon="8.1232513"><ele>768.0</ele><time>2026-04-28T07:54:48.449Z</time></trkpt><trkpt lat="44.1571809" lon="8.1233795"><ele>765.0</ele><time>2026-04-28T07:54:49.449Z</time></trkpt><trkpt lat="44.1570551" lon="8.123514"><ele>762.0</ele><time>2026-04-28T07:54:50.449Z</time></trkpt><trkpt lat="44.1569423" lon="8.123649"><ele>762.0</ele><time>2026-04-28T07:54:51.45Z</time></trkpt><trkpt lat="44.1568551" lon="8.1238054"><ele>762.0</ele><time>2026-04-28T07:54:52.449Z</time></trkpt><trkpt lat="44.1567935" lon="8.1239797"><ele>762.0</ele><time>2026-04-28T07:54:53.449Z</time></trkpt><trkpt lat="44.1567325" lon="8.12415"><ele>762.0</ele><time>2026-04-28T07:54:54.449Z</time></trkpt><trkpt lat="44.1566565" lon="8.1242987"><ele>765.2</ele><time>2026-04-28T07:54:55.449Z</time></trkpt><trkpt lat="44.1565686" lon="8.1243971"><ele>768.4000000000001</ele><time>2026-04-28T07:54:56.449Z</time></trkpt><trkpt lat="44.1564732" lon="8.1244191"><ele>771.5999999999999</ele><time>2026-04-28T07:54:57.449Z</time></trkpt><trkpt lat="44.1563734" lon="8.1243725"><ele>774.8</ele><time>2026-04-28T07:54:58.449Z</time></trkpt><trkpt lat="44.1562788" lon="8.1242768"><ele>778.0</ele><time>2026-04-28T07:54:59.449Z</time></trkpt><trkpt lat="44.1561738" lon="8.1241662"><ele>770.25</ele><time>2026-04-28T07:55:00.449Z</time></trkpt><trkpt lat="44.1560551" lon="8.1240507"><ele>762.5</ele><time>2026-04-28T07:55:01.45Z</time></trkpt><trkpt lat="44.1559237" lon="8.1239597"><ele>754.75</ele><time>2026-04-28T07:55:02.45Z</time></trkpt><trkpt lat="44.1557875" lon="8.1238816"><ele>747.0</ele><time>2026-04-28T07:55:03.45Z</time></trkpt><trkpt lat="44.155617" lon="8.1238828"><ele>747.0</ele><time>2026-04-28T07:55:04.45Z</time></trkpt><trkpt lat="44.1554559" lon="8.1239017"><ele>747.0</ele><time>2026-04-28T07:55:05.45Z</time></trkpt><trkpt lat="44.1552936" lon="8.1239703"><ele>747.0</ele><time>2026-04-28T07:55:06.45Z</time></trkpt><trkpt lat="44.1551271" lon="8.1240525"><ele>746.0</ele><time>2026-04-28T07:55:07.45Z</time></trkpt><trkpt lat="44.1549682" lon="8.1241378"><ele>745.0</ele><time>2026-04-28T07:55:08.45Z</time></trkpt><trkpt lat="44.15481" lon="8.1241963"><ele>744.0</ele><time>2026-04-28T07:55:09.45Z</time></trkpt><trkpt lat="44.1546753" lon="8.124269"><ele>744.0</ele><time>2026-04-28T07:55:10.449Z</time></trkpt><trkpt lat="44.1545498" lon="8.1243876"><ele>744.0</ele><time>2026-04-28T07:55:11.449Z</time></trkpt><trkpt lat="44.1544448" lon="8.1245563"><ele>744.0</ele><time>2026-04-28T07:55:12.448Z</time></trkpt><trkpt lat="44.1543481" lon="8.1247397"><ele>750.0</ele><time>2026-04-28T07:55:13.45Z</time></trkpt><trkpt lat="44.1542607" lon="8.1249361"><ele>756.0</ele><time>2026-04-28T07:55:14.45Z</time></trkpt><trkpt lat="44.154176" lon="8.1251471"><ele>762.0</ele><time>2026-04-28T07:55:15.449Z</time></trkpt><trkpt lat="44.15409" lon="8.1253662"><ele>753.3333333333334</ele><time>2026-04-28T07:55:16.449Z</time></trkpt><trkpt lat="44.1540113" lon="8.1255906"><ele>744.6666666666667</ele><time>2026-04-28T07:55:17.449Z</time></trkpt><trkpt lat="44.1539393" lon="8.1258013"><ele>736.0</ele><time>2026-04-28T07:55:18.449Z</time></trkpt><trkpt lat="44.1538872" lon="8.1260295"><ele>736.0</ele><time>2026-04-28T07:55:19.45Z</time></trkpt><trkpt lat="44.1538259" lon="8.1262184"><ele>736.0</ele><time>2026-04-28T07:55:20.45Z</time></trkpt><trkpt lat="44.1537431" lon="8.1263738"><ele>736.0</ele><time>2026-04-28T07:55:21.45Z</time></trkpt><trkpt lat="44.1536593" lon="8.1265296"><ele>736.0</ele><time>2026-04-28T07:55:22.45Z</time></trkpt><trkpt lat="44.1535257" lon="8.1265757"><ele>741.0</ele><time>2026-04-28T07:55:23.45Z</time></trkpt><trkpt lat="44.1534375" lon="8.1267338"><ele>746.0</ele><time>2026-04-28T07:55:24.448Z</time></trkpt><trkpt lat="44.1533642" lon="8.1269035"><ele>751.0</ele><time>2026-04-28T07:55:25.449Z</time></trkpt><trkpt lat="44.1533217" lon="8.1271504"><ele>751.0</ele><time>2026-04-28T07:55:26.449Z</time></trkpt><trkpt lat="44.1532576" lon="8.1273458"><ele>751.0</ele><time>2026-04-28T07:55:27.45Z</time></trkpt><trkpt lat="44.1531826" lon="8.1275638"><ele>751.0</ele><time>2026-04-28T07:55:28.45Z</time></trkpt><trkpt lat="44.1530906" lon="8.1277729"><ele>746.6666666666667</ele><time>2026-04-28T07:55:29.45Z</time></trkpt><trkpt lat="44.1529891" lon="8.1279833"><ele>742.3333333333334</ele><time>2026-04-28T07:55:30.449Z</time></trkpt><trkpt lat="44.1528786" lon="8.1281987"><ele>738.0</ele><time>2026-04-28T07:55:31.45Z</time></trkpt><trkpt lat="44.152763" lon="8.128399"><ele>738.0</ele><time>2026-04-28T07:55:32.449Z</time></trkpt><trkpt lat="44.1526439" lon="8.1285897"><ele>738.0</ele><time>2026-04-28T07:55:33.449Z</time></trkpt><trkpt lat="44.1525292" lon="8.1287759"><ele>738.0</ele><time>2026-04-28T07:55:34.45Z</time></trkpt><trkpt lat="44.1524143" lon="8.1289499"><ele>735.3333333333334</ele><time>2026-04-28T07:55:35.45Z</time></trkpt><trkpt lat="44.1523037" lon="8.1291142"><ele>732.6666666666667</ele><time>2026-04-28T07:55:36.449Z</time></trkpt><trkpt lat="44.1522138" lon="8.1292943"><ele>730.0</ele><time>2026-04-28T07:55:37.449Z</time></trkpt><trkpt lat="44.1521422" lon="8.1294754"><ele>730.0</ele><time>2026-04-28T07:55:38.449Z</time></trkpt><trkpt lat="44.1520763" lon="8.1296486"><ele>730.0</ele><time>2026-04-28T07:55:39.45Z</time></trkpt><trkpt lat="44.152002" lon="8.1297885"><ele>730.0</ele><time>2026-04-28T07:55:40.449Z</time></trkpt><trkpt lat="44.1519078" lon="8.129862"><ele>730.0</ele><time>2026-04-28T07:55:41.449Z</time></trkpt><trkpt lat="44.1518177" lon="8.1299386"><ele>730.0</ele><time>2026-04-28T07:55:42.45Z</time></trkpt><trkpt lat="44.1517128" lon="8.1298737"><ele>730.0</ele><time>2026-04-28T07:55:43.45Z</time></trkpt><trkpt lat="44.1515961" lon="8.1298399"><ele>730.0</ele><time>2026-04-28T07:55:44.45Z</time></trkpt><trkpt lat="44.1514314" lon="8.1296731"><ele>730.0</ele><time>2026-04-28T07:55:45.449Z</time></trkpt><trkpt lat="44.151283" lon="8.1295508"><ele>735.3333333333334</ele><time>2026-04-28T07:55:46.45Z</time></trkpt><trkpt lat="44.1511543" lon="8.1294126"><ele>740.6666666666666</ele><time>2026-04-28T07:55:47.449Z</time></trkpt><trkpt lat="44.1510231" lon="8.1292523"><ele>746.0</ele><time>2026-04-28T07:55:48.449Z</time></trkpt><trkpt lat="44.1509036" lon="8.1290738"><ele>740.3333333333333</ele><time>2026-04-28T07:55:49.45Z</time></trkpt><trkpt lat="44.1507941" lon="8.1288939"><ele>734.6666666666666</ele><time>2026-04-28T07:55:50.449Z</time></trkpt><trkpt lat="44.1506979" lon="8.1287151"><ele>729.0</ele><time>2026-04-28T07:55:51.449Z</time></trkpt><trkpt lat="44.1506061" lon="8.1285479"><ele>729.0</ele><time>2026-04-28T07:55:52.451Z</time></trkpt><trkpt lat="44.1505088" lon="8.1283918"><ele>729.0</ele><time>2026-04-28T07:55:53.45Z</time></trkpt><trkpt lat="44.1503969" lon="8.12831"><ele>729.0</ele><time>2026-04-28T07:55:54.451Z</time></trkpt><trkpt lat="44.1502778" lon="8.128248"><ele>729.0</ele><time>2026-04-28T07:55:55.451Z</time></trkpt><trkpt lat="44.1501378" lon="8.1282621"><ele>729.0</ele><time>2026-04-28T07:55:56.451Z</time></trkpt><trkpt lat="44.1499927" lon="8.1283177"><ele>729.0</ele><time>2026-04-28T07:55:57.451Z</time></trkpt><trkpt lat="44.149839" lon="8.1283971"><ele>729.0</ele><time>2026-04-28T07:55:58.451Z</time></trkpt><trkpt lat="44.1496758" lon="8.128488"><ele>724.6666666666666</ele><time>2026-04-28T07:55:59.45Z</time></trkpt><trkpt lat="44.149507" lon="8.1285942"><ele>720.3333333333333</ele><time>2026-04-28T07:56:00.451Z</time></trkpt><trkpt lat="44.1493467" lon="8.1287208"><ele>716.0</ele><time>2026-04-28T07:56:01.45Z</time></trkpt><trkpt lat="44.1491985" lon="8.1288887"><ele>714.6666666666666</ele><time>2026-04-28T07:56:02.449Z</time></trkpt><trkpt lat="44.1490538" lon="8.1290739"><ele>713.3333333333334</ele><time>2026-04-28T07:56:03.45Z</time></trkpt><trkpt lat="44.1489063" lon="8.1292582"><ele>712.0</ele><time>2026-04-28T07:56:04.451Z</time></trkpt><trkpt lat="44.1487597" lon="8.1294483"><ele>712.0</ele><time>2026-04-28T07:56:05.451Z</time></trkpt><trkpt lat="44.1486089" lon="8.1296399"><ele>712.0</ele><time>2026-04-28T07:56:06.451Z</time></trkpt><trkpt lat="44.1484583" lon="8.1298254"><ele>712.0</ele><time>2026-04-28T07:56:07.45Z</time></trkpt><trkpt lat="44.1483072" lon="8.1300087"><ele>708.6666666666667</ele><time>2026-04-28T07:56:08.45Z</time></trkpt><trkpt lat="44.148164" lon="8.1301939"><ele>705.3333333333334</ele><time>2026-04-28T07:56:09.451Z</time></trkpt><trkpt lat="44.1480338" lon="8.1303812"><ele>702.0</ele><time>2026-04-28T07:56:10.451Z</time></trkpt><trkpt lat="44.1479229" lon="8.1305955"><ele>704.0</ele><time>2026-04-28T07:56:11.451Z</time></trkpt><trkpt lat="44.1478172" lon="8.1308136"><ele>706.0</ele><time>2026-04-28T07:56:12.45Z</time></trkpt><trkpt lat="44.1477296" lon="8.1310423"><ele>708.0</ele><time>2026-04-28T07:56:13.45Z</time></trkpt><trkpt lat="44.1476431" lon="8.1312644"><ele>708.0</ele><time>2026-04-28T07:56:14.45Z</time></trkpt><trkpt lat="44.1475695" lon="8.1314893"><ele>708.0</ele><time>2026-04-28T07:56:15.451Z</time></trkpt><trkpt lat="44.1475077" lon="8.1317032"><ele>708.0</ele><time>2026-04-28T07:56:16.451Z</time></trkpt><trkpt lat="44.1474788" lon="8.1319298"><ele>711.3333333333334</ele><time>2026-04-28T07:56:17.45Z</time></trkpt><trkpt lat="44.1474574" lon="8.1321457"><ele>714.6666666666667</ele><time>2026-04-28T07:56:18.449Z</time></trkpt><trkpt lat="44.147435" lon="8.1323513"><ele>718.0</ele><time>2026-04-28T07:56:19.45Z</time></trkpt><trkpt lat="44.1473828" lon="8.1325421"><ele>713.75</ele><time>2026-04-28T07:56:20.45Z</time></trkpt><trkpt lat="44.1473157" lon="8.1327063"><ele>709.5</ele><time>2026-04-28T07:56:21.451Z</time></trkpt><trkpt lat="44.1472368" lon="8.1328581"><ele>705.25</ele><time>2026-04-28T07:56:22.45Z</time></trkpt><trkpt lat="44.1471539" lon="8.1329923"><ele>701.0</ele><time>2026-04-28T07:56:23.451Z</time></trkpt><trkpt lat="44.1470621" lon="8.1330895"><ele>701.0</ele><time>2026-04-28T07:56:24.451Z</time></trkpt><trkpt lat="44.1469568" lon="8.1331217"><ele>701.0</ele><time>2026-04-28T07:56:25.45Z</time></trkpt><trkpt lat="44.1468556" lon="8.1330896"><ele>701.0</ele><time>2026-04-28T07:56:26.451Z</time></trkpt><trkpt lat="44.1467699" lon="8.1329915"><ele>701.0</ele><time>2026-04-28T07:56:27.45Z</time></trkpt><trkpt lat="44.1467231" lon="8.1328592"><ele>701.0</ele><time>2026-04-28T07:56:28.451Z</time></trkpt><trkpt lat="44.1467358" lon="8.1327092"><ele>701.0</ele><time>2026-04-28T07:56:29.451Z</time></trkpt><trkpt lat="44.1468019" lon="8.1325621"><ele>701.0</ele><time>2026-04-28T07:56:30.45Z</time></trkpt><trkpt lat="44.146902" lon="8.1324148"><ele>701.0</ele><time>2026-04-28T07:56:31.45Z</time></trkpt><trkpt lat="44.1470035" lon="8.132257"><ele>701.0</ele><time>2026-04-28T07:56:32.45Z</time></trkpt><trkpt lat="44.1470849" lon="8.1320749"><ele>698.6666666666666</ele><time>2026-04-28T07:56:33.45Z</time></trkpt><trkpt lat="44.1471471" lon="8.1318527"><ele>696.3333333333334</ele><time>2026-04-28T07:56:34.451Z</time></trkpt><trkpt lat="44.1471942" lon="8.1316184"><ele>694.0</ele><time>2026-04-28T07:56:35.45Z</time></trkpt><trkpt lat="44.1472196" lon="8.1313645"><ele>691.0</ele><time>2026-04-28T07:56:36.45Z</time></trkpt><trkpt lat="44.1472515" lon="8.1311111"><ele>688.0</ele><time>2026-04-28T07:56:37.451Z</time></trkpt><trkpt lat="44.1472783" lon="8.1308582"><ele>685.0</ele><time>2026-04-28T07:56:38.451Z</time></trkpt><trkpt lat="44.147303" lon="8.1305986"><ele>682.6666666666667</ele><time>2026-04-28T07:56:39.45Z</time></trkpt><trkpt lat="44.1473302" lon="8.1303521"><ele>680.3333333333334</ele><time>2026-04-28T07:56:40.45Z</time></trkpt><trkpt lat="44.1473471" lon="8.1301125"><ele>678.0</ele><time>2026-04-28T07:56:41.449Z</time></trkpt><trkpt lat="44.147331" lon="8.1298874"><ele>676.75</ele><time>2026-04-28T07:56:42.45Z</time></trkpt><trkpt lat="44.1472962" lon="8.12968"><ele>675.5</ele><time>2026-04-28T07:56:43.45Z</time></trkpt><trkpt lat="44.1472717" lon="8.1294924"><ele>674.25</ele><time>2026-04-28T07:56:44.45Z</time></trkpt><trkpt lat="44.147289" lon="8.1293155"><ele>673.0</ele><time>2026-04-28T07:56:45.45Z</time></trkpt><trkpt lat="44.147341" lon="8.1291527"><ele>676.6666666666667</ele><time>2026-04-28T07:56:46.45Z</time></trkpt><trkpt lat="44.147406" lon="8.128971"><ele>680.3333333333334</ele><time>2026-04-28T07:56:47.451Z</time></trkpt><trkpt lat="44.1474812" lon="8.1287728"><ele>684.0</ele><time>2026-04-28T07:56:48.451Z</time></trkpt><trkpt lat="44.1475571" lon="8.1285776"><ele>684.0</ele><time>2026-04-28T07:56:49.451Z</time></trkpt><trkpt lat="44.1476249" lon="8.128383"><ele>684.0</ele><time>2026-04-28T07:56:50.451Z</time></trkpt><trkpt lat="44.1476942" lon="8.1281954"><ele>684.0</ele><time>2026-04-28T07:56:51.45Z</time></trkpt><trkpt lat="44.1477682" lon="8.1280231"><ele>679.75</ele><time>2026-04-28T07:56:52.451Z</time></trkpt><trkpt lat="44.1478618" lon="8.1278929"><ele>675.5</ele><time>2026-04-28T07:56:53.45Z</time></trkpt><trkpt lat="44.1479742" lon="8.1278002"><ele>671.25</ele><time>2026-04-28T07:56:54.451Z</time></trkpt><trkpt lat="44.1480922" lon="8.1277447"><ele>667.0</ele><time>2026-04-28T07:56:55.451Z</time></trkpt><trkpt lat="44.1481999" lon="8.1276472"><ele>668.75</ele><time>2026-04-28T07:56:56.451Z</time></trkpt><trkpt lat="44.1483059" lon="8.1275564"><ele>670.5</ele><time>2026-04-28T07:56:57.45Z</time></trkpt><trkpt lat="44.1483507" lon="8.1273296"><ele>672.25</ele><time>2026-04-28T07:56:58.45Z</time></trkpt><trkpt lat="44.1484121" lon="8.1271457"><ele>674.0</ele><time>2026-04-28T07:56:59.45Z</time></trkpt><trkpt lat="44.148454" lon="8.1269629"><ele>674.0</ele><time>2026-04-28T07:57:00.449Z</time></trkpt><trkpt lat="44.1484772" lon="8.1267765"><ele>674.0</ele><time>2026-04-28T07:57:01.45Z</time></trkpt><trkpt lat="44.148469" lon="8.1265733"><ele>674.0</ele><time>2026-04-28T07:57:02.449Z</time></trkpt><trkpt lat="44.1484493" lon="8.1263617"><ele>674.0</ele><time>2026-04-28T07:57:03.451Z</time></trkpt><trkpt lat="44.1484384" lon="8.1261404"><ele>673.6666666666666</ele><time>2026-04-28T07:57:04.451Z</time></trkpt><trkpt lat="44.1484355" lon="8.1259125"><ele>673.3333333333334</ele><time>2026-04-28T07:57:05.451Z</time></trkpt><trkpt lat="44.1484195" lon="8.1256898"><ele>673.0</ele><time>2026-04-28T07:57:06.451Z</time></trkpt><trkpt lat="44.1483967" lon="8.1254721"><ele>672.3333333333334</ele><time>2026-04-28T07:57:07.451Z</time></trkpt><trkpt lat="44.1483773" lon="8.1252329"><ele>671.6666666666666</ele><time>2026-04-28T07:57:08.451Z</time></trkpt><trkpt lat="44.1483629" lon="8.1249957"><ele>671.0</ele><time>2026-04-28T07:57:09.451Z</time></trkpt><trkpt lat="44.1483772" lon="8.1247586"><ele>670.3333333333333</ele><time>2026-04-28T07:57:10.45Z</time></trkpt><trkpt lat="44.1484061" lon="8.1245389"><ele>669.6666666666666</ele><time>2026-04-28T07:57:11.45Z</time></trkpt><trkpt lat="44.1484474" lon="8.1243218"><ele>669.0</ele><time>2026-04-28T07:57:12.449Z</time></trkpt><trkpt lat="44.1484937" lon="8.124139"><ele>667.75</ele><time>2026-04-28T07:57:13.45Z</time></trkpt><trkpt lat="44.1485304" lon="8.1239644"><ele>666.5</ele><time>2026-04-28T07:57:14.45Z</time></trkpt><trkpt lat="44.1485529" lon="8.123792"><ele>665.25</ele><time>2026-04-28T07:57:15.451Z</time></trkpt><trkpt lat="44.14852" lon="8.1236223"><ele>664.0</ele><time>2026-04-28T07:57:16.451Z</time></trkpt><trkpt lat="44.148489" lon="8.1234649"><ele>664.0</ele><time>2026-04-28T07:57:17.451Z</time></trkpt><trkpt lat="44.1483654" lon="8.1233992"><ele>664.0</ele><time>2026-04-28T07:57:18.451Z</time></trkpt><trkpt lat="44.148275" lon="8.1232787"><ele>664.0</ele><time>2026-04-28T07:57:19.451Z</time></trkpt><trkpt lat="44.1481488" lon="8.1233495"><ele>664.0</ele><time>2026-04-28T07:57:20.451Z</time></trkpt><trkpt lat="44.148008" lon="8.1234"><ele>662.75</ele><time>2026-04-28T07:57:21.451Z</time></trkpt><trkpt lat="44.1479044" lon="8.1235875"><ele>661.5</ele><time>2026-04-28T07:57:22.45Z</time></trkpt><trkpt lat="44.1478141" lon="8.1236692"><ele>660.25</ele><time>2026-04-28T07:57:23.45Z</time></trkpt><trkpt lat="44.1477417" lon="8.1237754"><ele>659.0</ele><time>2026-04-28T07:57:24.45Z</time></trkpt><trkpt lat="44.1477413" lon="8.1239183"><ele>659.0</ele><time>2026-04-28T07:57:25.45Z</time></trkpt><trkpt lat="44.1477439" lon="8.1240264"><ele>659.0</ele><time>2026-04-28T07:57:27.451Z</time></trkpt><trkpt lat="44.1477519" lon="8.1239056"><ele>659.0</ele><time>2026-04-28T07:57:31.451Z</time></trkpt><trkpt lat="44.1477881" lon="8.123749"><ele>659.0</ele><time>2026-04-28T07:57:33.45Z</time></trkpt><trkpt lat="44.1478328" lon="8.1236744"><ele>659.0</ele><time>2026-04-28T07:57:34.451Z</time></trkpt><trkpt lat="44.1478906" lon="8.123611"><ele>659.0</ele><time>2026-04-28T07:57:35.45Z</time></trkpt><trkpt lat="44.1479562" lon="8.1235472"><ele>659.0</ele><time>2026-04-28T07:57:36.451Z</time></trkpt><trkpt lat="44.1480273" lon="8.1234865"><ele>659.0</ele><time>2026-04-28T07:57:37.451Z</time></trkpt><trkpt lat="44.1481082" lon="8.1234299"><ele>659.0</ele><time>2026-04-28T07:57:38.45Z</time></trkpt><trkpt lat="44.1481872" lon="8.123389"><ele>659.0</ele><time>2026-04-28T07:57:39.451Z</time></trkpt><trkpt lat="44.1482673" lon="8.1233857"><ele>659.0</ele><time>2026-04-28T07:57:40.451Z</time></trkpt><trkpt lat="44.1483462" lon="8.1234199"><ele>659.0</ele><time>2026-04-28T07:57:41.45Z</time></trkpt><trkpt lat="44.148416" lon="8.1234553"><ele>659.7142857142858</ele><time>2026-04-28T07:57:42.45Z</time></trkpt><trkpt lat="44.1484641" lon="8.1235302"><ele>660.4285714285713</ele><time>2026-04-28T07:57:43.451Z</time></trkpt><trkpt lat="44.1484973" lon="8.1236368"><ele>661.1428571428571</ele><time>2026-04-28T07:57:45.451Z</time></trkpt><trkpt lat="44.1485123" lon="8.1237265"><ele>661.8571428571429</ele><time>2026-04-28T07:57:47.451Z</time></trkpt><trkpt lat="44.1485198" lon="8.1238162"><ele>662.5714285714287</ele><time>2026-04-28T07:57:50.45Z</time></trkpt><trkpt lat="44.1485259" lon="8.1237259"><ele>663.2857142857142</ele><time>2026-04-28T07:58:04.451Z</time></trkpt><trkpt lat="44.1485322" lon="8.1236103"><ele>664.0</ele><time>2026-04-28T07:58:07.451Z</time></trkpt><trkpt lat="44.1485637" lon="8.1235037"><ele>664.0</ele><time>2026-04-28T07:58:11.451Z</time></trkpt><trkpt lat="44.1486551" lon="8.1235244"><ele>664.0</ele><time>2026-04-28T07:58:15.45Z</time></trkpt><trkpt lat="44.1487094" lon="8.1236015"><ele>664.0</ele><time>2026-04-28T07:58:16.45Z</time></trkpt><trkpt lat="44.1487821" lon="8.1236992"><ele>664.0</ele><time>2026-04-28T07:58:18.451Z</time></trkpt><trkpt lat="44.148866" lon="8.1238298"><ele>664.0</ele><time>2026-04-28T07:58:20.451Z</time></trkpt><trkpt lat="44.148909" lon="8.123904"><ele>664.0</ele><time>2026-04-28T07:58:21.451Z</time></trkpt><trkpt lat="44.1489546" lon="8.1239681"><ele>664.0</ele><time>2026-04-28T07:58:22.451Z</time></trkpt><trkpt lat="44.1489944" lon="8.1240597"><ele>664.0</ele><time>2026-04-28T07:58:23.45Z</time></trkpt><trkpt lat="44.1490633" lon="8.1241861"><ele>664.0</ele><time>2026-04-28T07:58:25.45Z</time></trkpt><trkpt lat="44.1491334" lon="8.1243052"><ele>664.0</ele><time>2026-04-28T07:58:27.45Z</time></trkpt><trkpt lat="44.1491778" lon="8.1243684"><ele>664.0</ele><time>2026-04-28T07:58:28.45Z</time></trkpt><trkpt lat="44.1492312" lon="8.1244736"><ele>665.3333333333334</ele><time>2026-04-28T07:58:30.45Z</time></trkpt><trkpt lat="44.1493075" lon="8.1245554"><ele>666.6666666666667</ele><time>2026-04-28T07:58:32.451Z</time></trkpt><trkpt lat="44.1493659" lon="8.1246126"><ele>668.0</ele><time>2026-04-28T07:58:34.45Z</time></trkpt><trkpt lat="44.1494272" lon="8.1246842"><ele>669.3333333333334</ele><time>2026-04-28T07:58:36.45Z</time></trkpt><trkpt lat="44.1494859" lon="8.1247296"><ele>670.6666666666666</ele><time>2026-04-28T07:58:37.45Z</time></trkpt><trkpt lat="44.1495745" lon="8.1248258"><ele>672.0</ele><time>2026-04-28T07:58:39.451Z</time></trkpt><trkpt lat="44.1496513" lon="8.124958"><ele>673.2</ele><time>2026-04-28T07:58:41.451Z</time></trkpt><trkpt lat="44.149712" lon="8.1251212"><ele>674.4000000000001</ele><time>2026-04-28T07:58:43.451Z</time></trkpt><trkpt lat="44.1497326" lon="8.1252063"><ele>675.5999999999999</ele><time>2026-04-28T07:58:44.45Z</time></trkpt><trkpt lat="44.1497692" lon="8.125346"><ele>676.8</ele><time>2026-04-28T07:58:46.451Z</time></trkpt><trkpt lat="44.1498599" lon="8.1254147"><ele>678.0</ele><time>2026-04-28T07:58:48.45Z</time></trkpt><trkpt lat="44.1499177" lon="8.125452"><ele>675.75</ele><time>2026-04-28T07:58:49.451Z</time></trkpt><trkpt lat="44.1500025" lon="8.1255448"><ele>673.5</ele><time>2026-04-28T07:58:51.449Z</time></trkpt><trkpt lat="44.1501066" lon="8.1256346"><ele>671.25</ele><time>2026-04-28T07:58:53.45Z</time></trkpt><trkpt lat="44.1502195" lon="8.1257243"><ele>669.0</ele><time>2026-04-28T07:58:55.449Z</time></trkpt><trkpt lat="44.1503048" lon="8.1258134"><ele>669.0</ele><time>2026-04-28T07:58:57.45Z</time></trkpt><trkpt lat="44.1503724" lon="8.1259186"><ele>669.0</ele><time>2026-04-28T07:58:59.451Z</time></trkpt><trkpt lat="44.1504572" lon="8.1259808"><ele>669.0</ele><time>2026-04-28T07:59:01.451Z</time></trkpt><trkpt lat="44.1505294" lon="8.1260092"><ele>669.0</ele><time>2026-04-28T07:59:03.45Z</time></trkpt><trkpt lat="44.150621" lon="8.12606"><ele>669.0</ele><time>2026-04-28T07:59:05.451Z</time></trkpt><trkpt lat="44.1507347" lon="8.1260939"><ele>666.1666666666666</ele><time>2026-04-28T07:59:07.45Z</time></trkpt><trkpt lat="44.1508621" lon="8.1261182"><ele>663.3333333333334</ele><time>2026-04-28T07:59:09.45Z</time></trkpt><trkpt lat="44.1509243" lon="8.1261727"><ele>660.5</ele><time>2026-04-28T07:59:10.45Z</time></trkpt><trkpt lat="44.1509827" lon="8.1262153"><ele>657.6666666666667</ele><time>2026-04-28T07:59:11.451Z</time></trkpt><trkpt lat="44.1510282" lon="8.1263041"><ele>654.8333333333334</ele><time>2026-04-28T07:59:13.45Z</time></trkpt><trkpt lat="44.1510869" lon="8.1263766"><ele>652.0</ele><time>2026-04-28T07:59:16.451Z</time></trkpt><trkpt lat="44.1511555" lon="8.1262902"><ele>652.0</ele><time>2026-04-28T07:59:19.451Z</time></trkpt><trkpt lat="44.1511967" lon="8.1262232"><ele>652.0</ele><time>2026-04-28T07:59:20.45Z</time></trkpt><trkpt lat="44.1512512" lon="8.1261258"><ele>652.0</ele><time>2026-04-28T07:59:22.45Z</time></trkpt><trkpt lat="44.1512274" lon="8.1260149"><ele>652.0</ele><time>2026-04-28T07:59:24.451Z</time></trkpt><trkpt lat="44.1511933" lon="8.1258185"><ele>652.0</ele><time>2026-04-28T07:59:26.45Z</time></trkpt><trkpt lat="44.1512038" lon="8.1257237"><ele>652.0</ele><time>2026-04-28T07:59:27.45Z</time></trkpt><trkpt lat="44.1512041" lon="8.1256273"><ele>649.8333333333334</ele><time>2026-04-28T07:59:28.45Z</time></trkpt><trkpt lat="44.1512193" lon="8.1255361"><ele>647.6666666666667</ele><time>2026-04-28T07:59:29.45Z</time></trkpt><trkpt lat="44.1512329" lon="8.1254399"><ele>645.5</ele><time>2026-04-28T07:59:30.45Z</time></trkpt><trkpt lat="44.1512557" lon="8.1253481"><ele>643.3333333333334</ele><time>2026-04-28T07:59:31.451Z</time></trkpt><trkpt lat="44.1512826" lon="8.1251921"><ele>641.1666666666666</ele><time>2026-04-28T07:59:33.451Z</time></trkpt><trkpt lat="44.1513182" lon="8.1251091"><ele>639.0</ele><time>2026-04-28T07:59:34.451Z</time></trkpt><trkpt lat="44.1513547" lon="8.1250205"><ele>639.0</ele><time>2026-04-28T07:59:35.451Z</time></trkpt><trkpt lat="44.1514026" lon="8.1249476"><ele>639.0</ele><time>2026-04-28T07:59:36.45Z</time></trkpt><trkpt lat="44.1514531" lon="8.1248812"><ele>639.0</ele><time>2026-04-28T07:59:37.451Z</time></trkpt><trkpt lat="44.1515315" lon="8.1247612"><ele>639.0</ele><time>2026-04-28T07:59:39.451Z</time></trkpt><trkpt lat="44.1516087" lon="8.1246874"><ele>639.0</ele><time>2026-04-28T07:59:40.451Z</time></trkpt><trkpt lat="44.1516847" lon="8.1246136"><ele>639.0</ele><time>2026-04-28T07:59:41.451Z</time></trkpt><trkpt lat="44.1517559" lon="8.1245355"><ele>638.5</ele><time>2026-04-28T07:59:42.451Z</time></trkpt><trkpt lat="44.1518113" lon="8.1244563"><ele>638.0</ele><time>2026-04-28T07:59:43.451Z</time></trkpt><trkpt lat="44.1518542" lon="8.1243761"><ele>637.5</ele><time>2026-04-28T07:59:44.451Z</time></trkpt><trkpt lat="44.1518948" lon="8.1243025"><ele>637.0</ele><time>2026-04-28T07:59:45.45Z</time></trkpt><trkpt lat="44.1519364" lon="8.1242245"><ele>636.5</ele><time>2026-04-28T07:59:46.45Z</time></trkpt><trkpt lat="44.1519756" lon="8.1241441"><ele>636.0</ele><time>2026-04-28T07:59:47.451Z</time></trkpt><trkpt lat="44.1520134" lon="8.1239984"><ele>636.0</ele><time>2026-04-28T07:59:49.451Z</time></trkpt><trkpt lat="44.1520147" lon="8.1238815"><ele>636.0</ele><time>2026-04-28T07:59:50.451Z</time></trkpt><trkpt lat="44.1520245" lon="8.1237425"><ele>636.0</ele><time>2026-04-28T07:59:51.451Z</time></trkpt><trkpt lat="44.1520446" lon="8.1236079"><ele>636.0</ele><time>2026-04-28T07:59:52.451Z</time></trkpt><trkpt lat="44.1520597" lon="8.123491"><ele>636.0</ele><time>2026-04-28T07:59:53.451Z</time></trkpt><trkpt lat="44.1520594" lon="8.1233843"><ele>636.0</ele><time>2026-04-28T07:59:54.45Z</time></trkpt><trkpt lat="44.1520555" lon="8.1232709"><ele>634.0</ele><time>2026-04-28T07:59:55.451Z</time></trkpt><trkpt lat="44.1520417" lon="8.1231552"><ele>632.0</ele><time>2026-04-28T07:59:56.451Z</time></trkpt><trkpt lat="44.1520295" lon="8.1230374"><ele>630.0</ele><time>2026-04-28T07:59:57.45Z</time></trkpt><trkpt lat="44.1520018" lon="8.1229012"><ele>628.0</ele><time>2026-04-28T07:59:59.451Z</time></trkpt><trkpt lat="44.1520365" lon="8.1227706"><ele>626.0</ele><time>2026-04-28T08:00:01.451Z</time></trkpt><trkpt lat="44.1520789" lon="8.1226943"><ele>624.0</ele><time>2026-04-28T08:00:02.451Z</time></trkpt><trkpt lat="44.1521351" lon="8.1225993"><ele>624.0</ele><time>2026-04-28T08:00:03.45Z</time></trkpt><trkpt lat="44.1522059" lon="8.1225014"><ele>624.0</ele><time>2026-04-28T08:00:04.451Z</time></trkpt><trkpt lat="44.1522821" lon="8.1224082"><ele>624.0</ele><time>2026-04-28T08:00:05.451Z</time></trkpt><trkpt lat="44.1523473" lon="8.1223132"><ele>624.0</ele><time>2026-04-28T08:00:06.451Z</time></trkpt><trkpt lat="44.1524032" lon="8.1222217"><ele>624.0</ele><time>2026-04-28T08:00:07.45Z</time></trkpt><trkpt lat="44.1524511" lon="8.1221306"><ele>625.1666666666666</ele><time>2026-04-28T08:00:08.45Z</time></trkpt><trkpt lat="44.1524874" lon="8.1220172"><ele>626.3333333333334</ele><time>2026-04-28T08:00:09.449Z</time></trkpt><trkpt lat="44.1525181" lon="8.121894"><ele>627.5</ele><time>2026-04-28T08:00:10.45Z</time></trkpt><trkpt lat="44.1525319" lon="8.1217822"><ele>628.6666666666667</ele><time>2026-04-28T08:00:11.45Z</time></trkpt><trkpt lat="44.1525427" lon="8.1216931"><ele>629.8333333333334</ele><time>2026-04-28T08:00:12.451Z</time></trkpt><trkpt lat="44.1525667" lon="8.121535"><ele>631.0</ele><time>2026-04-28T08:00:14.45Z</time></trkpt><trkpt lat="44.1525682" lon="8.1214275"><ele>631.0</ele><time>2026-04-28T08:00:15.45Z</time></trkpt><trkpt lat="44.1525686" lon="8.1213326"><ele>631.0</ele><time>2026-04-28T08:00:16.451Z</time></trkpt><trkpt lat="44.1526336" lon="8.1211735"><ele>631.0</ele><time>2026-04-28T08:00:18.451Z</time></trkpt><trkpt lat="44.1526896" lon="8.1210966"><ele>631.0</ele><time>2026-04-28T08:00:19.451Z</time></trkpt><trkpt lat="44.152748" lon="8.1210362"><ele>631.0</ele><time>2026-04-28T08:00:20.451Z</time></trkpt><trkpt lat="44.1528088" lon="8.1209295"><ele>631.0</ele><time>2026-04-28T08:00:22.45Z</time></trkpt><trkpt lat="44.152809" lon="8.1208105"><ele>631.0</ele><time>2026-04-28T08:00:24.451Z</time></trkpt><trkpt lat="44.1527693" lon="8.1207421"><ele>631.0</ele><time>2026-04-28T08:00:25.451Z</time></trkpt><trkpt lat="44.1527228" lon="8.1206703"><ele>631.0</ele><time>2026-04-28T08:00:26.45Z</time></trkpt><trkpt lat="44.1526853" lon="8.1205873"><ele>631.0</ele><time>2026-04-28T08:00:27.451Z</time></trkpt><trkpt lat="44.1526641" lon="8.1204931"><ele>631.0</ele><time>2026-04-28T08:00:28.451Z</time></trkpt><trkpt lat="44.1526598" lon="8.1203963"><ele>631.0</ele><time>2026-04-28T08:00:29.451Z</time></trkpt><trkpt lat="44.1526537" lon="8.120235"><ele>631.0</ele><time>2026-04-28T08:00:31.451Z</time></trkpt><trkpt lat="44.1526274" lon="8.1200958"><ele>631.0</ele><time>2026-04-28T08:00:33.451Z</time></trkpt><trkpt lat="44.1526351" lon="8.119915"><ele>631.0</ele><time>2026-04-28T08:00:35.451Z</time></trkpt><trkpt lat="44.1526512" lon="8.1198049"><ele>631.0</ele><time>2026-04-28T08:00:36.451Z</time></trkpt><trkpt lat="44.152664" lon="8.119697"><ele>631.0</ele><time>2026-04-28T08:00:37.449Z</time></trkpt><trkpt lat="44.1526729" lon="8.1196001"><ele>630.1666666666667</ele><time>2026-04-28T08:00:38.45Z</time></trkpt><trkpt lat="44.1526669" lon="8.119464"><ele>629.3333333333334</ele><time>2026-04-28T08:00:40.451Z</time></trkpt><trkpt lat="44.1526482" lon="8.1193474"><ele>628.5</ele><time>2026-04-28T08:00:42.451Z</time></trkpt><trkpt lat="44.1526432" lon="8.119192"><ele>627.6666666666666</ele><time>2026-04-28T08:00:44.451Z</time></trkpt><trkpt lat="44.1526618" lon="8.1191071"><ele>626.8333333333333</ele><time>2026-04-28T08:00:45.449Z</time></trkpt><trkpt lat="44.1526998" lon="8.1190185"><ele>626.0</ele><time>2026-04-28T08:00:46.45Z</time></trkpt><trkpt lat="44.1527457" lon="8.1189193"><ele>624.0</ele><time>2026-04-28T08:00:47.45Z</time></trkpt><trkpt lat="44.1527881" lon="8.1188071"><ele>622.0</ele><time>2026-04-28T08:00:48.451Z</time></trkpt><trkpt lat="44.1528267" lon="8.1186872"><ele>620.0</ele><time>2026-04-28T08:00:49.451Z</time></trkpt><trkpt lat="44.1528715" lon="8.1185758"><ele>618.0</ele><time>2026-04-28T08:00:50.45Z</time></trkpt><trkpt lat="44.1529203" lon="8.1184896"><ele>616.0</ele><time>2026-04-28T08:00:51.451Z</time></trkpt><trkpt lat="44.1529781" lon="8.1183442"><ele>616.0</ele><time>2026-04-28T08:00:53.451Z</time></trkpt><trkpt lat="44.1529855" lon="8.1182542"><ele>616.0</ele><time>2026-04-28T08:00:54.451Z</time></trkpt><trkpt lat="44.1529866" lon="8.1181621"><ele>616.0</ele><time>2026-04-28T08:00:55.45Z</time></trkpt><trkpt lat="44.1529962" lon="8.1180673"><ele>616.0</ele><time>2026-04-28T08:00:56.451Z</time></trkpt><trkpt lat="44.1530283" lon="8.1179646"><ele>616.0</ele><time>2026-04-28T08:00:57.45Z</time></trkpt><trkpt lat="44.1530739" lon="8.1178615"><ele>616.0</ele><time>2026-04-28T08:00:58.45Z</time></trkpt><trkpt lat="44.1531367" lon="8.1177684"><ele>615.5</ele><time>2026-04-28T08:00:59.45Z</time></trkpt><trkpt lat="44.1532031" lon="8.1176961"><ele>615.0</ele><time>2026-04-28T08:01:00.45Z</time></trkpt><trkpt lat="44.1532756" lon="8.1176356"><ele>614.5</ele><time>2026-04-28T08:01:01.45Z</time></trkpt><trkpt lat="44.1533285" lon="8.1175786"><ele>614.0</ele><time>2026-04-28T08:01:02.45Z</time></trkpt><trkpt lat="44.153404" lon="8.1175301"><ele>613.5</ele><time>2026-04-28T08:01:04.45Z</time></trkpt><trkpt lat="44.1535051" lon="8.1175707"><ele>613.0</ele><time>2026-04-28T08:01:06.45Z</time></trkpt><trkpt lat="44.1536278" lon="8.1176192"><ele>613.0</ele><time>2026-04-28T08:01:08.451Z</time></trkpt><trkpt lat="44.1536921" lon="8.1176269"><ele>613.0</ele><time>2026-04-28T08:01:09.451Z</time></trkpt><trkpt lat="44.1537878" lon="8.1176302"><ele>613.0</ele><time>2026-04-28T08:01:11.45Z</time></trkpt><trkpt lat="44.1538599" lon="8.1176528"><ele>613.0</ele><time>2026-04-28T08:01:13.45Z</time></trkpt><trkpt lat="44.1539494" lon="8.1176788"><ele>613.0</ele><time>2026-04-28T08:01:15.45Z</time></trkpt><trkpt lat="44.1540298" lon="8.1176872"><ele>613.0</ele><time>2026-04-28T08:01:18.451Z</time></trkpt><trkpt lat="44.1540439" lon="8.1175756"><ele>611.6</ele><time>2026-04-28T08:01:21.451Z</time></trkpt><trkpt lat="44.1540734" lon="8.1174645"><ele>610.1999999999999</ele><time>2026-04-28T08:01:25.45Z</time></trkpt><trkpt lat="44.1540589" lon="8.1173669"><ele>608.8</ele><time>2026-04-28T08:01:27.451Z</time></trkpt><trkpt lat="44.1539519" lon="8.1173003"><ele>607.4</ele><time>2026-04-28T08:01:29.451Z</time></trkpt><trkpt lat="44.1538647" lon="8.1172038"><ele>606.0</ele><time>2026-04-28T08:01:31.451Z</time></trkpt><trkpt lat="44.1538295" lon="8.1171164"><ele>606.0</ele><time>2026-04-28T08:01:33.45Z</time></trkpt><trkpt lat="44.1539122" lon="8.1170378"><ele>606.0</ele><time>2026-04-28T08:01:36.45Z</time></trkpt><trkpt lat="44.1539871" lon="8.1170194"><ele>606.0</ele><time>2026-04-28T08:01:38.451Z</time></trkpt><trkpt lat="44.1540599" lon="8.1169686"><ele>606.0</ele><time>2026-04-28T08:01:42.451Z</time></trkpt><trkpt lat="44.1541377" lon="8.1167925"><ele>606.0</ele><time>2026-04-28T08:01:44.45Z</time></trkpt><trkpt lat="44.1541898" lon="8.1166958"><ele>609.3333333333334</ele><time>2026-04-28T08:01:45.451Z</time></trkpt><trkpt lat="44.1542335" lon="8.1166141"><ele>612.6666666666666</ele><time>2026-04-28T08:01:46.45Z</time></trkpt><trkpt lat="44.1542743" lon="8.1165425"><ele>616.0</ele><time>2026-04-28T08:01:47.45Z</time></trkpt><trkpt lat="44.1543664" lon="8.1164446"><ele>619.3333333333333</ele><time>2026-04-28T08:01:49.45Z</time></trkpt><trkpt lat="44.1544461" lon="8.1163645"><ele>622.6666666666666</ele><time>2026-04-28T08:01:51.451Z</time></trkpt><trkpt lat="44.1545242" lon="8.1163202"><ele>626.0</ele><time>2026-04-28T08:01:53.451Z</time></trkpt><trkpt lat="44.1546141" lon="8.1162576"><ele>626.3333333333333</ele><time>2026-04-28T08:01:55.451Z</time></trkpt><trkpt lat="44.1546766" lon="8.1162462"><ele>626.6666666666666</ele><time>2026-04-28T08:02:05.45Z</time></trkpt><trkpt lat="44.1547689" lon="8.1161838"><ele>627.0</ele><time>2026-04-28T08:02:12.451Z</time></trkpt><trkpt lat="44.1548101" lon="8.116079"><ele>627.3333333333334</ele><time>2026-04-28T08:02:13.451Z</time></trkpt><trkpt lat="44.1548485" lon="8.1160002"><ele>627.6666666666667</ele><time>2026-04-28T08:02:14.451Z</time></trkpt><trkpt lat="44.1549098" lon="8.1158889"><ele>628.0</ele><time>2026-04-28T08:02:16.451Z</time></trkpt><trkpt lat="44.1549682" lon="8.1157874"><ele>629.1999999999999</ele><time>2026-04-28T08:02:18.45Z</time></trkpt><trkpt lat="44.1549987" lon="8.1156811"><ele>630.4</ele><time>2026-04-28T08:02:20.451Z</time></trkpt><trkpt lat="44.1549871" lon="8.115583"><ele>631.5999999999999</ele><time>2026-04-28T08:02:22.45Z</time></trkpt><trkpt lat="44.1549924" lon="8.1154697"><ele>632.8</ele><time>2026-04-28T08:02:24.451Z</time></trkpt><trkpt lat="44.1549785" lon="8.1153207"><ele>634.0</ele><time>2026-04-28T08:02:26.451Z</time></trkpt><trkpt lat="44.1549499" lon="8.1151607"><ele>634.0</ele><time>2026-04-28T08:02:28.45Z</time></trkpt><trkpt lat="44.1549182" lon="8.1150332"><ele>634.0</ele><time>2026-04-28T08:02:30.45Z</time></trkpt><trkpt lat="44.1548801" lon="8.1149157"><ele>634.0</ele><time>2026-04-28T08:02:32.451Z</time></trkpt><trkpt lat="44.154851" lon="8.1147892"><ele>634.0</ele><time>2026-04-28T08:02:34.451Z</time></trkpt><trkpt lat="44.1548484" lon="8.1146664"><ele>634.0</ele><time>2026-04-28T08:02:36.45Z</time></trkpt><trkpt lat="44.1548485" lon="8.1144974"><ele>628.4</ele><time>2026-04-28T08:02:38.451Z</time></trkpt><trkpt lat="44.1548382" lon="8.1144017"><ele>622.8</ele><time>2026-04-28T08:02:39.45Z</time></trkpt><trkpt lat="44.1548317" lon="8.1143129"><ele>617.2</ele><time>2026-04-28T08:02:40.45Z</time></trkpt><trkpt lat="44.1547898" lon="8.1141571"><ele>611.6</ele><time>2026-04-28T08:02:42.45Z</time></trkpt><trkpt lat="44.1547328" lon="8.1140389"><ele>606.0</ele><time>2026-04-28T08:02:44.451Z</time></trkpt><trkpt lat="44.1546558" lon="8.1139118"><ele>603.5</ele><time>2026-04-28T08:02:46.451Z</time></trkpt><trkpt lat="44.1545795" lon="8.1138128"><ele>601.0</ele><time>2026-04-28T08:02:48.451Z</time></trkpt><trkpt lat="44.1545172" lon="8.1137073"><ele>598.5</ele><time>2026-04-28T08:02:50.45Z</time></trkpt><trkpt lat="44.1544585" lon="8.113618"><ele>596.0</ele><time>2026-04-28T08:02:52.451Z</time></trkpt><trkpt lat="44.1544075" lon="8.1135397"><ele>593.5</ele><time>2026-04-28T08:02:54.45Z</time></trkpt><trkpt lat="44.1544136" lon="8.1134385"><ele>591.0</ele><time>2026-04-28T08:02:56.451Z</time></trkpt><trkpt lat="44.1544611" lon="8.1132989"><ele>588.6666666666666</ele><time>2026-04-28T08:02:58.451Z</time></trkpt><trkpt lat="44.1544863" lon="8.1132177"><ele>586.3333333333334</ele><time>2026-04-28T08:02:59.451Z</time></trkpt><trkpt lat="44.1545088" lon="8.1131263"><ele>584.0</ele><time>2026-04-28T08:03:00.451Z</time></trkpt><trkpt lat="44.1545265" lon="8.1130376"><ele>581.6666666666667</ele><time>2026-04-28T08:03:01.45Z</time></trkpt><trkpt lat="44.1545552" lon="8.1128762"><ele>579.3333333333334</ele><time>2026-04-28T08:03:03.45Z</time></trkpt><trkpt lat="44.1546016" lon="8.1127433"><ele>577.0</ele><time>2026-04-28T08:03:05.45Z</time></trkpt><trkpt lat="44.1546469" lon="8.1126276"><ele>577.0</ele><time>2026-04-28T08:03:07.451Z</time></trkpt><trkpt lat="44.1546931" lon="8.1125151"><ele>577.0</ele><time>2026-04-28T08:03:09.451Z</time></trkpt><trkpt lat="44.1547406" lon="8.1123705"><ele>577.0</ele><time>2026-04-28T08:03:11.45Z</time></trkpt><trkpt lat="44.1547693" lon="8.1122877"><ele>577.0</ele><time>2026-04-28T08:03:12.45Z</time></trkpt><trkpt lat="44.1547886" lon="8.1122018"><ele>577.0</ele><time>2026-04-28T08:03:13.45Z</time></trkpt><trkpt lat="44.1548177" lon="8.1120446"><ele>580.4</ele><time>2026-04-28T08:03:15.45Z</time></trkpt><trkpt lat="44.1548753" lon="8.1119093"><ele>583.8000000000001</ele><time>2026-04-28T08:03:17.449Z</time></trkpt><trkpt lat="44.1549381" lon="8.1117721"><ele>587.2</ele><time>2026-04-28T08:03:19.45Z</time></trkpt><trkpt lat="44.1549696" lon="8.1116356"><ele>590.6</ele><time>2026-04-28T08:03:21.451Z</time></trkpt><trkpt lat="44.1549367" lon="8.1114822"><ele>594.0</ele><time>2026-04-28T08:03:23.449Z</time></trkpt><trkpt lat="44.1549148" lon="8.1113216"><ele>594.0</ele><time>2026-04-28T08:03:25.45Z</time></trkpt><trkpt lat="44.1549117" lon="8.1112119"><ele>594.0</ele><time>2026-04-28T08:03:27.45Z</time></trkpt><trkpt lat="44.154883" lon="8.1111157"><ele>594.0</ele><time>2026-04-28T08:03:29.45Z</time></trkpt><trkpt lat="44.1548545" lon="8.1110322"><ele>594.0</ele><time>2026-04-28T08:03:31.451Z</time></trkpt><trkpt lat="44.1547329" lon="8.1110121"><ele>594.0</ele><time>2026-04-28T08:03:39.451Z</time></trkpt><trkpt lat="44.1546798" lon="8.1109496"><ele>594.0</ele><time>2026-04-28T08:03:40.45Z</time></trkpt><trkpt lat="44.154643" lon="8.1108409"><ele>587.4</ele><time>2026-04-28T08:03:41.451Z</time></trkpt><trkpt lat="44.1546093" lon="8.1107091"><ele>580.8</ele><time>2026-04-28T08:03:42.451Z</time></trkpt><trkpt lat="44.1545635" lon="8.1105757"><ele>574.2</ele><time>2026-04-28T08:03:43.45Z</time></trkpt><trkpt lat="44.154521" lon="8.1104401"><ele>567.6</ele><time>2026-04-28T08:03:44.45Z</time></trkpt><trkpt lat="44.154485" lon="8.1103059"><ele>561.0</ele><time>2026-04-28T08:03:45.449Z</time></trkpt><trkpt lat="44.1544658" lon="8.1101698"><ele>561.0</ele><time>2026-04-28T08:03:46.451Z</time></trkpt><trkpt lat="44.1544764" lon="8.110029"><ele>561.0</ele><time>2026-04-28T08:03:47.45Z</time></trkpt><trkpt lat="44.1545121" lon="8.1098878"><ele>561.0</ele><time>2026-04-28T08:03:48.45Z</time></trkpt><trkpt lat="44.1545597" lon="8.1097445"><ele>561.0</ele><time>2026-04-28T08:03:49.451Z</time></trkpt><trkpt lat="44.1545958" lon="8.1095902"><ele>561.0</ele><time>2026-04-28T08:03:50.45Z</time></trkpt><trkpt lat="44.1546014" lon="8.1094139"><ele>560.5</ele><time>2026-04-28T08:03:51.451Z</time></trkpt><trkpt lat="44.1545588" lon="8.1092492"><ele>560.0</ele><time>2026-04-28T08:03:52.449Z</time></trkpt><trkpt lat="44.1544846" lon="8.1090951"><ele>559.5</ele><time>2026-04-28T08:03:53.451Z</time></trkpt><trkpt lat="44.1544354" lon="8.108947"><ele>559.0</ele><time>2026-04-28T08:03:54.449Z</time></trkpt><trkpt lat="44.1544118" lon="8.1087988"><ele>557.75</ele><time>2026-04-28T08:03:55.451Z</time></trkpt><trkpt lat="44.1544269" lon="8.1086456"><ele>556.5</ele><time>2026-04-28T08:03:56.451Z</time></trkpt><trkpt lat="44.1544605" lon="8.1085021"><ele>555.25</ele><time>2026-04-28T08:03:57.451Z</time></trkpt><trkpt lat="44.1545336" lon="8.108387"><ele>554.0</ele><time>2026-04-28T08:03:58.45Z</time></trkpt><trkpt lat="44.1546552" lon="8.1083077"><ele>554.0</ele><time>2026-04-28T08:03:59.451Z</time></trkpt><trkpt lat="44.1547718" lon="8.1082497"><ele>554.0</ele><time>2026-04-28T08:04:00.451Z</time></trkpt><trkpt lat="44.1548985" lon="8.1082215"><ele>554.0</ele><time>2026-04-28T08:04:01.451Z</time></trkpt><trkpt lat="44.1550401" lon="8.108215"><ele>554.0</ele><time>2026-04-28T08:04:02.451Z</time></trkpt><trkpt lat="44.1551706" lon="8.1081835"><ele>552.25</ele><time>2026-04-28T08:04:03.45Z</time></trkpt><trkpt lat="44.1552906" lon="8.1081238"><ele>550.5</ele><time>2026-04-28T08:04:04.45Z</time></trkpt><trkpt lat="44.1553964" lon="8.1080247"><ele>548.75</ele><time>2026-04-28T08:04:05.451Z</time></trkpt><trkpt lat="44.1554915" lon="8.1079107"><ele>547.0</ele><time>2026-04-28T08:04:06.45Z</time></trkpt><trkpt lat="44.1555764" lon="8.1077689"><ele>547.0</ele><time>2026-04-28T08:04:07.45Z</time></trkpt><trkpt lat="44.1556548" lon="8.1076186"><ele>547.0</ele><time>2026-04-28T08:04:08.45Z</time></trkpt><trkpt lat="44.1557293" lon="8.1074644"><ele>547.0</ele><time>2026-04-28T08:04:09.451Z</time></trkpt><trkpt lat="44.1558017" lon="8.1073231"><ele>547.0</ele><time>2026-04-28T08:04:10.451Z</time></trkpt><trkpt lat="44.1558569" lon="8.1071957"><ele>546.8333333333334</ele><time>2026-04-28T08:04:11.45Z</time></trkpt><trkpt lat="44.1558849" lon="8.1070856"><ele>546.6666666666667</ele><time>2026-04-28T08:04:12.45Z</time></trkpt><trkpt lat="44.1559031" lon="8.1069869"><ele>546.5</ele><time>2026-04-28T08:04:13.451Z</time></trkpt><trkpt lat="44.1559042" lon="8.1068836"><ele>546.3333333333334</ele><time>2026-04-28T08:04:14.451Z</time></trkpt><trkpt lat="44.1558868" lon="8.1067825"><ele>546.1666666666666</ele><time>2026-04-28T08:04:15.451Z</time></trkpt><trkpt lat="44.1558094" lon="8.1067191"><ele>546.0</ele><time>2026-04-28T08:04:16.451Z</time></trkpt><trkpt lat="44.1556949" lon="8.1066852"><ele>546.0</ele><time>2026-04-28T08:04:17.45Z</time></trkpt><trkpt lat="44.155596" lon="8.1066355"><ele>546.0</ele><time>2026-04-28T08:04:18.45Z</time></trkpt><trkpt lat="44.1555259" lon="8.1065538"><ele>546.0</ele><time>2026-04-28T08:04:19.449Z</time></trkpt><trkpt lat="44.1554841" lon="8.1064333"><ele>546.0</ele><time>2026-04-28T08:04:20.45Z</time></trkpt><trkpt lat="44.1554437" lon="8.1063019"><ele>546.0</ele><time>2026-04-28T08:04:21.45Z</time></trkpt><trkpt lat="44.155358" lon="8.1062102"><ele>549.0</ele><time>2026-04-28T08:04:22.451Z</time></trkpt><trkpt lat="44.1552554" lon="8.106175"><ele>552.0</ele><time>2026-04-28T08:04:23.45Z</time></trkpt><trkpt lat="44.1551501" lon="8.1061596"><ele>555.0</ele><time>2026-04-28T08:04:24.45Z</time></trkpt><trkpt lat="44.1550124" lon="8.10623"><ele>558.0</ele><time>2026-04-28T08:04:25.45Z</time></trkpt><trkpt lat="44.1548724" lon="8.1063159"><ele>555.6</ele><time>2026-04-28T08:04:26.45Z</time></trkpt><trkpt lat="44.1547428" lon="8.1063876"><ele>553.1999999999999</ele><time>2026-04-28T08:04:27.451Z</time></trkpt><trkpt lat="44.1546426" lon="8.1064247"><ele>550.8</ele><time>2026-04-28T08:04:28.45Z</time></trkpt><trkpt lat="44.1545747" lon="8.1064006"><ele>548.4</ele><time>2026-04-28T08:04:29.45Z</time></trkpt><trkpt lat="44.1545396" lon="8.1063146"><ele>546.0</ele><time>2026-04-28T08:04:30.45Z</time></trkpt><trkpt lat="44.154558" lon="8.106208"><ele>546.0</ele><time>2026-04-28T08:04:31.45Z</time></trkpt><trkpt lat="44.1546173" lon="8.1061098"><ele>546.0</ele><time>2026-04-28T08:04:32.451Z</time></trkpt><trkpt lat="44.1546712" lon="8.106018"><ele>546.0</ele><time>2026-04-28T08:04:33.451Z</time></trkpt><trkpt lat="44.154688" lon="8.105925"><ele>546.0</ele><time>2026-04-28T08:04:34.45Z</time></trkpt><trkpt lat="44.1546383" lon="8.1058052"><ele>546.0</ele><time>2026-04-28T08:04:36.45Z</time></trkpt><trkpt lat="44.154553" lon="8.1058337"><ele>546.0</ele><time>2026-04-28T08:04:37.45Z</time></trkpt><trkpt lat="44.1544576" lon="8.1058914"><ele>546.0</ele><time>2026-04-28T08:04:38.451Z</time></trkpt><trkpt lat="44.1543169" lon="8.1059528"><ele>546.0</ele><time>2026-04-28T08:04:39.451Z</time></trkpt><trkpt lat="44.1541715" lon="8.1059971"><ele>546.0</ele><time>2026-04-28T08:04:40.451Z</time></trkpt><trkpt lat="44.1540223" lon="8.106076"><ele>542.5</ele><time>2026-04-28T08:04:41.449Z</time></trkpt><trkpt lat="44.1539007" lon="8.1061254"><ele>539.0</ele><time>2026-04-28T08:04:42.45Z</time></trkpt><trkpt lat="44.1537929" lon="8.1062752"><ele>535.5</ele><time>2026-04-28T08:04:43.449Z</time></trkpt><trkpt lat="44.1536782" lon="8.1063724"><ele>532.0</ele><time>2026-04-28T08:04:44.451Z</time></trkpt><trkpt lat="44.153555" lon="8.1064447"><ele>532.0</ele><time>2026-04-28T08:04:45.451Z</time></trkpt><trkpt lat="44.1534378" lon="8.1064956"><ele>532.0</ele><time>2026-04-28T08:04:46.45Z</time></trkpt><trkpt lat="44.1533351" lon="8.1064877"><ele>532.0</ele><time>2026-04-28T08:04:47.45Z</time></trkpt><trkpt lat="44.1532557" lon="8.1064095"><ele>532.0</ele><time>2026-04-28T08:04:48.451Z</time></trkpt><trkpt lat="44.1531842" lon="8.1062974"><ele>532.0</ele><time>2026-04-28T08:04:49.451Z</time></trkpt><trkpt lat="44.1531105" lon="8.1061634"><ele>531.5</ele><time>2026-04-28T08:04:50.451Z</time></trkpt><trkpt lat="44.1530285" lon="8.1060191"><ele>531.0</ele><time>2026-04-28T08:04:51.451Z</time></trkpt><trkpt lat="44.152959" lon="8.1058609"><ele>530.5</ele><time>2026-04-28T08:04:52.451Z</time></trkpt><trkpt lat="44.1529124" lon="8.1057074"><ele>530.0</ele><time>2026-04-28T08:04:53.451Z</time></trkpt><trkpt lat="44.1528954" lon="8.1055621"><ele>530.0</ele><time>2026-04-28T08:04:54.45Z</time></trkpt><trkpt lat="44.152865" lon="8.1054406"><ele>530.0</ele><time>2026-04-28T08:04:55.451Z</time></trkpt><trkpt lat="44.1527971" lon="8.1053637"><ele>530.0</ele><time>2026-04-28T08:04:56.45Z</time></trkpt><trkpt lat="44.1527295" lon="8.1053505"><ele>530.0</ele><time>2026-04-28T08:04:57.451Z</time></trkpt><trkpt lat="44.1526267" lon="8.1053886"><ele>530.0</ele><time>2026-04-28T08:04:58.451Z</time></trkpt><trkpt lat="44.1525073" lon="8.1053969"><ele>530.0</ele><time>2026-04-28T08:04:59.45Z</time></trkpt><trkpt lat="44.1523885" lon="8.1053932"><ele>530.0</ele><time>2026-04-28T08:05:00.451Z</time></trkpt><trkpt lat="44.1522598" lon="8.1054183"><ele>530.0</ele><time>2026-04-28T08:05:01.451Z</time></trkpt><trkpt lat="44.1521444" lon="8.1054921"><ele>530.0</ele><time>2026-04-28T08:05:02.451Z</time></trkpt><trkpt lat="44.1520266" lon="8.1056304"><ele>526.25</ele><time>2026-04-28T08:05:03.45Z</time></trkpt><trkpt lat="44.1519149" lon="8.1057528"><ele>522.5</ele><time>2026-04-28T08:05:04.45Z</time></trkpt><trkpt lat="44.151816" lon="8.1058939"><ele>518.75</ele><time>2026-04-28T08:05:05.45Z</time></trkpt><trkpt lat="44.1517526" lon="8.1060536"><ele>515.0</ele><time>2026-04-28T08:05:06.451Z</time></trkpt><trkpt lat="44.1516829" lon="8.1061845"><ele>515.0</ele><time>2026-04-28T08:05:07.451Z</time></trkpt><trkpt lat="44.1515882" lon="8.1062972"><ele>515.0</ele><time>2026-04-28T08:05:08.45Z</time></trkpt><trkpt lat="44.1515056" lon="8.1063927"><ele>515.0</ele><time>2026-04-28T08:05:09.451Z</time></trkpt><trkpt lat="44.1513318" lon="8.1064088"><ele>515.0</ele><time>2026-04-28T08:05:10.451Z</time></trkpt><trkpt lat="44.1512196" lon="8.1065039"><ele>516.0</ele><time>2026-04-28T08:05:11.451Z</time></trkpt><trkpt lat="44.1511113" lon="8.1066684"><ele>517.0</ele><time>2026-04-28T08:05:12.451Z</time></trkpt><trkpt lat="44.1510237" lon="8.1068238"><ele>518.0</ele><time>2026-04-28T08:05:13.451Z</time></trkpt><trkpt lat="44.1509405" lon="8.1069965"><ele>518.0</ele><time>2026-04-28T08:05:14.451Z</time></trkpt><trkpt lat="44.1508473" lon="8.1071669"><ele>518.0</ele><time>2026-04-28T08:05:15.451Z</time></trkpt><trkpt lat="44.1507583" lon="8.1073287"><ele>518.0</ele><time>2026-04-28T08:05:16.451Z</time></trkpt><trkpt lat="44.150666" lon="8.1074666"><ele>518.0</ele><time>2026-04-28T08:05:17.45Z</time></trkpt><trkpt lat="44.1505778" lon="8.1075996"><ele>517.5</ele><time>2026-04-28T08:05:18.45Z</time></trkpt><trkpt lat="44.1504657" lon="8.107737"><ele>517.0</ele><time>2026-04-28T08:05:19.45Z</time></trkpt><trkpt lat="44.1503381" lon="8.1078516"><ele>516.5</ele><time>2026-04-28T08:05:20.45Z</time></trkpt><trkpt lat="44.1502056" lon="8.1079214"><ele>516.0</ele><time>2026-04-28T08:05:21.451Z</time></trkpt><trkpt lat="44.1500751" lon="8.1080088"><ele>516.0</ele><time>2026-04-28T08:05:22.451Z</time></trkpt><trkpt lat="44.1499433" lon="8.1080822"><ele>516.0</ele><time>2026-04-28T08:05:23.451Z</time></trkpt><trkpt lat="44.1498172" lon="8.1081589"><ele>516.0</ele><time>2026-04-28T08:05:24.451Z</time></trkpt><trkpt lat="44.149686" lon="8.108214"><ele>516.0</ele><time>2026-04-28T08:05:25.451Z</time></trkpt><trkpt lat="44.1495471" lon="8.1082477"><ele>513.25</ele><time>2026-04-28T08:05:26.45Z</time></trkpt><trkpt lat="44.1494127" lon="8.1082356"><ele>510.5</ele><time>2026-04-28T08:05:27.451Z</time></trkpt><trkpt lat="44.1492704" lon="8.1082337"><ele>507.75</ele><time>2026-04-28T08:05:28.451Z</time></trkpt><trkpt lat="44.1491293" lon="8.1082733"><ele>505.0</ele><time>2026-04-28T08:05:29.451Z</time></trkpt><trkpt lat="44.1489869" lon="8.1083317"><ele>505.0</ele><time>2026-04-28T08:05:30.45Z</time></trkpt><trkpt lat="44.1488525" lon="8.1084255"><ele>505.0</ele><time>2026-04-28T08:05:31.451Z</time></trkpt><trkpt lat="44.1487132" lon="8.108525"><ele>505.0</ele><time>2026-04-28T08:05:32.451Z</time></trkpt><trkpt lat="44.148554" lon="8.1086412"><ele>505.0</ele><time>2026-04-28T08:05:33.45Z</time></trkpt><trkpt lat="44.1484176" lon="8.1087536"><ele>505.0</ele><time>2026-04-28T08:05:34.45Z</time></trkpt><trkpt lat="44.1482871" lon="8.1088511"><ele>505.0</ele><time>2026-04-28T08:05:35.451Z</time></trkpt><trkpt lat="44.1481627" lon="8.1089531"><ele>511.6666666666667</ele><time>2026-04-28T08:05:36.45Z</time></trkpt><trkpt lat="44.1480154" lon="8.1090145"><ele>518.3333333333334</ele><time>2026-04-28T08:05:37.451Z</time></trkpt><trkpt lat="44.1478703" lon="8.1090653"><ele>525.0</ele><time>2026-04-28T08:05:38.451Z</time></trkpt><trkpt lat="44.1477129" lon="8.1091334"><ele>519.0</ele><time>2026-04-28T08:05:39.451Z</time></trkpt><trkpt lat="44.1475681" lon="8.1092059"><ele>513.0</ele><time>2026-04-28T08:05:40.45Z</time></trkpt><trkpt lat="44.1474382" lon="8.1093182"><ele>507.0</ele><time>2026-04-28T08:05:41.449Z</time></trkpt><trkpt lat="44.147315" lon="8.1094701"><ele>507.0</ele><time>2026-04-28T08:05:42.45Z</time></trkpt><trkpt lat="44.1471896" lon="8.109614"><ele>507.0</ele><time>2026-04-28T08:05:43.45Z</time></trkpt><trkpt lat="44.1470645" lon="8.1097662"><ele>507.0</ele><time>2026-04-28T08:05:44.45Z</time></trkpt><trkpt lat="44.1469445" lon="8.1099034"><ele>498.0</ele><time>2026-04-28T08:05:45.45Z</time></trkpt><trkpt lat="44.1468106" lon="8.1100445"><ele>489.0</ele><time>2026-04-28T08:05:46.45Z</time></trkpt><trkpt lat="44.1466705" lon="8.1101765"><ele>480.0</ele><time>2026-04-28T08:05:47.449Z</time></trkpt><trkpt lat="44.1465289" lon="8.1103073"><ele>480.0</ele><time>2026-04-28T08:05:48.451Z</time></trkpt><trkpt lat="44.1463915" lon="8.1104357"><ele>480.0</ele><time>2026-04-28T08:05:49.451Z</time></trkpt><trkpt lat="44.1462501" lon="8.1105494"><ele>480.0</ele><time>2026-04-28T08:05:50.45Z</time></trkpt><trkpt lat="44.1461068" lon="8.1106385"><ele>480.0</ele><time>2026-04-28T08:05:51.451Z</time></trkpt><trkpt lat="44.1459532" lon="8.1106821"><ele>480.0</ele><time>2026-04-28T08:05:52.451Z</time></trkpt><trkpt lat="44.1457885" lon="8.1106835"><ele>480.0</ele><time>2026-04-28T08:05:53.45Z</time></trkpt><trkpt lat="44.1456171" lon="8.1106735"><ele>483.33333333333337</ele><time>2026-04-28T08:05:54.451Z</time></trkpt><trkpt lat="44.1454501" lon="8.1106784"><ele>486.6666666666667</ele><time>2026-04-28T08:05:55.451Z</time></trkpt><trkpt lat="44.1452965" lon="8.110723"><ele>490.0</ele><time>2026-04-28T08:05:56.449Z</time></trkpt><trkpt lat="44.145156" lon="8.1108191"><ele>484.6666666666667</ele><time>2026-04-28T08:05:57.451Z</time></trkpt><trkpt lat="44.1450171" lon="8.1109201"><ele>479.33333333333337</ele><time>2026-04-28T08:05:58.45Z</time></trkpt><trkpt lat="44.1448639" lon="8.1110004"><ele>474.0</ele><time>2026-04-28T08:05:59.451Z</time></trkpt><trkpt lat="44.1447055" lon="8.1110635"><ele>474.0</ele><time>2026-04-28T08:06:00.451Z</time></trkpt><trkpt lat="44.1445586" lon="8.1111397"><ele>474.0</ele><time>2026-04-28T08:06:01.45Z</time></trkpt><trkpt lat="44.1444261" lon="8.1112373"><ele>474.0</ele><time>2026-04-28T08:06:02.449Z</time></trkpt><trkpt lat="44.1443045" lon="8.1113264"><ele>474.0</ele><time>2026-04-28T08:06:03.45Z</time></trkpt><trkpt lat="44.1441882" lon="8.111377"><ele>474.0</ele><time>2026-04-28T08:06:04.45Z</time></trkpt><trkpt lat="44.1440729" lon="8.1113722"><ele>474.0</ele><time>2026-04-28T08:06:05.45Z</time></trkpt><trkpt lat="44.1439575" lon="8.111332"><ele>474.0</ele><time>2026-04-28T08:06:06.451Z</time></trkpt><trkpt lat="44.143841" lon="8.1113219"><ele>474.0</ele><time>2026-04-28T08:06:07.45Z</time></trkpt><trkpt lat="44.1437242" lon="8.1113574"><ele>475.0</ele><time>2026-04-28T08:06:08.45Z</time></trkpt><trkpt lat="44.1435977" lon="8.111431"><ele>476.0</ele><time>2026-04-28T08:06:09.45Z</time></trkpt><trkpt lat="44.1434638" lon="8.1115115"><ele>477.0</ele><time>2026-04-28T08:06:10.45Z</time></trkpt><trkpt lat="44.1433211" lon="8.1115907"><ele>478.0</ele><time>2026-04-28T08:06:11.451Z</time></trkpt><trkpt lat="44.1431848" lon="8.1116689"><ele>462.75</ele><time>2026-04-28T08:06:12.451Z</time></trkpt><trkpt lat="44.1430621" lon="8.1117401"><ele>447.5</ele><time>2026-04-28T08:06:13.45Z</time></trkpt><trkpt lat="44.1429441" lon="8.1117977"><ele>432.25</ele><time>2026-04-28T08:06:14.451Z</time></trkpt><trkpt lat="44.1428353" lon="8.1118199"><ele>417.0</ele><time>2026-04-28T08:06:15.449Z</time></trkpt><trkpt lat="44.142737" lon="8.1117837"><ele>417.0</ele><time>2026-04-28T08:06:16.451Z</time></trkpt><trkpt lat="44.1426536" lon="8.1116887"><ele>417.0</ele><time>2026-04-28T08:06:17.45Z</time></trkpt><trkpt lat="44.1425815" lon="8.111559"><ele>417.0</ele><time>2026-04-28T08:06:18.45Z</time></trkpt><trkpt lat="44.1425077" lon="8.1114192"><ele>417.0</ele><time>2026-04-28T08:06:19.451Z</time></trkpt><trkpt lat="44.1424501" lon="8.1112715"><ele>420.5</ele><time>2026-04-28T08:06:20.451Z</time></trkpt><trkpt lat="44.1424332" lon="8.1111143"><ele>424.0</ele><time>2026-04-28T08:06:21.451Z</time></trkpt><trkpt lat="44.1424577" lon="8.1109514"><ele>427.5</ele><time>2026-04-28T08:06:22.451Z</time></trkpt><trkpt lat="44.1424958" lon="8.1107967"><ele>431.0</ele><time>2026-04-28T08:06:23.451Z</time></trkpt><trkpt lat="44.142566" lon="8.1106647"><ele>431.0</ele><time>2026-04-28T08:06:24.45Z</time></trkpt><trkpt lat="44.1426475" lon="8.1105443"><ele>431.0</ele><time>2026-04-28T08:06:25.45Z</time></trkpt><trkpt lat="44.1427047" lon="8.1104107"><ele>431.0</ele><time>2026-04-28T08:06:26.451Z</time></trkpt><trkpt lat="44.1427153" lon="8.1102537"><ele>431.0</ele><time>2026-04-28T08:06:27.451Z</time></trkpt><trkpt lat="44.1426813" lon="8.1101096"><ele>431.0</ele><time>2026-04-28T08:06:28.451Z</time></trkpt><trkpt lat="44.1426301" lon="8.1099834"><ele>431.0</ele><time>2026-04-28T08:06:29.451Z</time></trkpt><trkpt lat="44.1425398" lon="8.1098896"><ele>431.0</ele><time>2026-04-28T08:06:30.451Z</time></trkpt><trkpt lat="44.14246" lon="8.109771"><ele>431.0</ele><time>2026-04-28T08:06:31.451Z</time></trkpt><trkpt lat="44.1424053" lon="8.1096364"><ele>431.0</ele><time>2026-04-28T08:06:32.45Z</time></trkpt><trkpt lat="44.1423825" lon="8.1094928"><ele>431.0</ele><time>2026-04-28T08:06:33.451Z</time></trkpt><trkpt lat="44.1423916" lon="8.1093498"><ele>431.0</ele><time>2026-04-28T08:06:34.45Z</time></trkpt><trkpt lat="44.1424332" lon="8.1092124"><ele>431.0</ele><time>2026-04-28T08:06:35.45Z</time></trkpt><trkpt lat="44.1424875" lon="8.1090644"><ele>431.0</ele><time>2026-04-28T08:06:36.45Z</time></trkpt><trkpt lat="44.1425301" lon="8.1088978"><ele>432.5</ele><time>2026-04-28T08:06:37.45Z</time></trkpt><trkpt lat="44.142558" lon="8.108721"><ele>434.0</ele><time>2026-04-28T08:06:38.451Z</time></trkpt><trkpt lat="44.1425729" lon="8.1085518"><ele>435.5</ele><time>2026-04-28T08:06:39.45Z</time></trkpt><trkpt lat="44.1425619" lon="8.1083996"><ele>437.0</ele><time>2026-04-28T08:06:40.451Z</time></trkpt><trkpt lat="44.142536" lon="8.1082547"><ele>439.5</ele><time>2026-04-28T08:06:41.451Z</time></trkpt><trkpt lat="44.1425058" lon="8.1081115"><ele>442.0</ele><time>2026-04-28T08:06:42.451Z</time></trkpt><trkpt lat="44.14245" lon="8.1079894"><ele>444.5</ele><time>2026-04-28T08:06:43.45Z</time></trkpt><trkpt lat="44.1423235" lon="8.1080617"><ele>447.0</ele><time>2026-04-28T08:06:44.451Z</time></trkpt><trkpt lat="44.1421783" lon="8.1081377"><ele>447.0</ele><time>2026-04-28T08:06:45.451Z</time></trkpt><trkpt lat="44.1420426" lon="8.1081484"><ele>447.0</ele><time>2026-04-28T08:06:46.451Z</time></trkpt><trkpt lat="44.1419191" lon="8.1081114"><ele>447.0</ele><time>2026-04-28T08:06:47.451Z</time></trkpt><trkpt lat="44.1418051" lon="8.1080353"><ele>447.0</ele><time>2026-04-28T08:06:48.451Z</time></trkpt><trkpt lat="44.141695" lon="8.1079404"><ele>447.0</ele><time>2026-04-28T08:06:49.451Z</time></trkpt><trkpt lat="44.1415651" lon="8.1078552"><ele>447.0</ele><time>2026-04-28T08:06:50.45Z</time></trkpt><trkpt lat="44.1414196" lon="8.1078008"><ele>447.0</ele><time>2026-04-28T08:06:51.45Z</time></trkpt><trkpt lat="44.1412664" lon="8.1077565"><ele>439.0</ele><time>2026-04-28T08:06:52.451Z</time></trkpt><trkpt lat="44.1411129" lon="8.1077013"><ele>431.0</ele><time>2026-04-28T08:06:53.451Z</time></trkpt><trkpt lat="44.1409683" lon="8.1076237"><ele>423.0</ele><time>2026-04-28T08:06:54.45Z</time></trkpt><trkpt lat="44.1408261" lon="8.1075583"><ele>415.33333333333337</ele><time>2026-04-28T08:06:55.45Z</time></trkpt><trkpt lat="44.1406773" lon="8.1075162"><ele>407.6666666666667</ele><time>2026-04-28T08:06:56.45Z</time></trkpt><trkpt lat="44.1405257" lon="8.1074896"><ele>400.0</ele><time>2026-04-28T08:06:57.45Z</time></trkpt><trkpt lat="44.1403754" lon="8.1074865"><ele>400.0</ele><time>2026-04-28T08:06:58.45Z</time></trkpt><trkpt lat="44.1402322" lon="8.1074871"><ele>400.0</ele><time>2026-04-28T08:06:59.451Z</time></trkpt><trkpt lat="44.1400973" lon="8.1074785"><ele>400.0</ele><time>2026-04-28T08:07:00.451Z</time></trkpt><trkpt lat="44.139971" lon="8.1074532"><ele>400.0</ele><time>2026-04-28T08:07:01.451Z</time></trkpt><trkpt lat="44.1398477" lon="8.1074008"><ele>402.75</ele><time>2026-04-28T08:07:02.45Z</time></trkpt><trkpt lat="44.1397235" lon="8.1073408"><ele>405.5</ele><time>2026-04-28T08:07:03.451Z</time></trkpt><trkpt lat="44.1396019" lon="8.1072857"><ele>408.25</ele><time>2026-04-28T08:07:04.45Z</time></trkpt><trkpt lat="44.1394762" lon="8.1072193"><ele>411.0</ele><time>2026-04-28T08:07:05.45Z</time></trkpt><trkpt lat="44.1393521" lon="8.1071524"><ele>411.0</ele><time>2026-04-28T08:07:06.449Z</time></trkpt><trkpt lat="44.1392354" lon="8.1070822"><ele>411.0</ele><time>2026-04-28T08:07:07.451Z</time></trkpt><trkpt lat="44.1391265" lon="8.1070135"><ele>411.0</ele><time>2026-04-28T08:07:08.451Z</time></trkpt><trkpt lat="44.1387684" lon="8.1069447"><ele>407.20000000000005</ele><time>2026-04-28T08:07:11.451Z</time></trkpt><trkpt lat="44.138648" lon="8.106944"><ele>403.40000000000003</ele><time>2026-04-28T08:07:12.451Z</time></trkpt><trkpt lat="44.1385381" lon="8.106918"><ele>399.6</ele><time>2026-04-28T08:07:13.451Z</time></trkpt><trkpt lat="44.1384411" lon="8.1068608"><ele>395.8</ele><time>2026-04-28T08:07:14.451Z</time></trkpt><trkpt lat="44.1383534" lon="8.1067817"><ele>392.0</ele><time>2026-04-28T08:07:15.451Z</time></trkpt><trkpt lat="44.138276" lon="8.1067038"><ele>392.0</ele><time>2026-04-28T08:07:16.452Z</time></trkpt><trkpt lat="44.1382293" lon="8.1066281"><ele>392.0</ele><time>2026-04-28T08:07:17.452Z</time></trkpt><trkpt lat="44.1382745" lon="8.1064741"><ele>392.0</ele><time>2026-04-28T08:07:19.451Z</time></trkpt><trkpt lat="44.1383354" lon="8.1063946"><ele>392.0</ele><time>2026-04-28T08:07:20.451Z</time></trkpt><trkpt lat="44.1384023" lon="8.1063035"><ele>392.0</ele><time>2026-04-28T08:07:21.452Z</time></trkpt><trkpt lat="44.1384888" lon="8.1062082"><ele>389.5</ele><time>2026-04-28T08:07:22.452Z</time></trkpt><trkpt lat="44.1385806" lon="8.1061041"><ele>387.0</ele><time>2026-04-28T08:07:23.452Z</time></trkpt><trkpt lat="44.1386689" lon="8.1059855"><ele>384.5</ele><time>2026-04-28T08:07:24.452Z</time></trkpt><trkpt lat="44.1387592" lon="8.105846"><ele>382.0</ele><time>2026-04-28T08:07:25.452Z</time></trkpt><trkpt lat="44.1388518" lon="8.1057113"><ele>383.5</ele><time>2026-04-28T08:07:26.45Z</time></trkpt><trkpt lat="44.1389483" lon="8.1055843"><ele>385.0</ele><time>2026-04-28T08:07:27.452Z</time></trkpt><trkpt lat="44.1390399" lon="8.1054482"><ele>386.5</ele><time>2026-04-28T08:07:28.451Z</time></trkpt><trkpt lat="44.1391093" lon="8.1052972"><ele>388.0</ele><time>2026-04-28T08:07:29.452Z</time></trkpt><trkpt lat="44.1391718" lon="8.105157"><ele>388.0</ele><time>2026-04-28T08:07:30.452Z</time></trkpt><trkpt lat="44.1392507" lon="8.1050334"><ele>388.0</ele><time>2026-04-28T08:07:31.451Z</time></trkpt><trkpt lat="44.1393497" lon="8.1049146"><ele>388.0</ele><time>2026-04-28T08:07:32.452Z</time></trkpt><trkpt lat="44.1394617" lon="8.1047993"><ele>388.0</ele><time>2026-04-28T08:07:33.451Z</time></trkpt><trkpt lat="44.1395747" lon="8.1046819"><ele>389.25</ele><time>2026-04-28T08:07:34.452Z</time></trkpt><trkpt lat="44.1396884" lon="8.1045557"><ele>390.5</ele><time>2026-04-28T08:07:35.451Z</time></trkpt><trkpt lat="44.1398024" lon="8.1044276"><ele>391.75</ele><time>2026-04-28T08:07:36.452Z</time></trkpt><trkpt lat="44.1399117" lon="8.1042997"><ele>393.0</ele><time>2026-04-28T08:07:37.451Z</time></trkpt><trkpt lat="44.140008" lon="8.1041696"><ele>388.0</ele><time>2026-04-28T08:07:38.451Z</time></trkpt><trkpt lat="44.1400911" lon="8.1040281"><ele>383.0</ele><time>2026-04-28T08:07:39.451Z</time></trkpt><trkpt lat="44.1401592" lon="8.1038766"><ele>378.0</ele><time>2026-04-28T08:07:40.452Z</time></trkpt><trkpt lat="44.1402117" lon="8.1037053"><ele>373.0</ele><time>2026-04-28T08:07:41.451Z</time></trkpt><trkpt lat="44.1402554" lon="8.103517"><ele>373.0</ele><time>2026-04-28T08:07:42.451Z</time></trkpt><trkpt lat="44.1402965" lon="8.1033322"><ele>373.0</ele><time>2026-04-28T08:07:43.452Z</time></trkpt><trkpt lat="44.1403316" lon="8.1031581"><ele>373.0</ele><time>2026-04-28T08:07:44.452Z</time></trkpt><trkpt lat="44.140346" lon="8.1029871"><ele>373.0</ele><time>2026-04-28T08:07:45.452Z</time></trkpt><trkpt lat="44.1403272" lon="8.1028157"><ele>375.25</ele><time>2026-04-28T08:07:46.451Z</time></trkpt><trkpt lat="44.1402671" lon="8.1026653"><ele>377.5</ele><time>2026-04-28T08:07:47.452Z</time></trkpt><trkpt lat="44.1401738" lon="8.1025401"><ele>379.75</ele><time>2026-04-28T08:07:48.452Z</time></trkpt><trkpt lat="44.140065" lon="8.1024342"><ele>382.0</ele><time>2026-04-28T08:07:49.452Z</time></trkpt><trkpt lat="44.1399501" lon="8.1023258"><ele>375.5</ele><time>2026-04-28T08:07:50.452Z</time></trkpt><trkpt lat="44.1398398" lon="8.1022112"><ele>369.0</ele><time>2026-04-28T08:07:51.451Z</time></trkpt><trkpt lat="44.139735" lon="8.1021054"><ele>362.5</ele><time>2026-04-28T08:07:52.452Z</time></trkpt><trkpt lat="44.1396479" lon="8.1020015"><ele>356.0</ele><time>2026-04-28T08:07:53.451Z</time></trkpt><trkpt lat="44.1395941" lon="8.1018861"><ele>356.0</ele><time>2026-04-28T08:07:54.451Z</time></trkpt><trkpt lat="44.1395822" lon="8.101763"><ele>356.0</ele><time>2026-04-28T08:07:55.451Z</time></trkpt><trkpt lat="44.1396223" lon="8.1016516"><ele>356.0</ele><time>2026-04-28T08:07:56.451Z</time></trkpt><trkpt lat="44.1396999" lon="8.1015868"><ele>356.0</ele><time>2026-04-28T08:07:57.452Z</time></trkpt><trkpt lat="44.1397984" lon="8.101555"><ele>356.0</ele><time>2026-04-28T08:07:58.451Z</time></trkpt><trkpt lat="44.1399052" lon="8.1015271"><ele>362.5</ele><time>2026-04-28T08:07:59.452Z</time></trkpt><trkpt lat="44.1399975" lon="8.1014411"><ele>369.0</ele><time>2026-04-28T08:08:00.451Z</time></trkpt><trkpt lat="44.1400649" lon="8.1012868"><ele>375.5</ele><time>2026-04-28T08:08:01.452Z</time></trkpt><trkpt lat="44.1401249" lon="8.1011084"><ele>382.0</ele><time>2026-04-28T08:08:02.451Z</time></trkpt><trkpt lat="44.1401894" lon="8.100937"><ele>382.0</ele><time>2026-04-28T08:08:03.452Z</time></trkpt><trkpt lat="44.1402536" lon="8.1007839"><ele>382.0</ele><time>2026-04-28T08:08:04.451Z</time></trkpt><trkpt lat="44.1403186" lon="8.1006493"><ele>382.0</ele><time>2026-04-28T08:08:05.451Z</time></trkpt><trkpt lat="44.1403723" lon="8.1005346"><ele>382.0</ele><time>2026-04-28T08:08:06.452Z</time></trkpt><trkpt lat="44.1403796" lon="8.100436"><ele>382.0</ele><time>2026-04-28T08:08:07.452Z</time></trkpt><trkpt lat="44.1403751" lon="8.1003351"><ele>383.5</ele><time>2026-04-28T08:08:08.451Z</time></trkpt><trkpt lat="44.1403344" lon="8.1001782"><ele>385.0</ele><time>2026-04-28T08:08:10.452Z</time></trkpt><trkpt lat="44.1402215" lon="8.1002211"><ele>386.5</ele><time>2026-04-28T08:08:11.452Z</time></trkpt><trkpt lat="44.1400706" lon="8.1003135"><ele>388.0</ele><time>2026-04-28T08:08:12.452Z</time></trkpt><trkpt lat="44.1399286" lon="8.1004375"><ele>381.25</ele><time>2026-04-28T08:08:13.452Z</time></trkpt><trkpt lat="44.13981" lon="8.1005424"><ele>374.5</ele><time>2026-04-28T08:08:14.452Z</time></trkpt><trkpt lat="44.1396908" lon="8.100591"><ele>367.75</ele><time>2026-04-28T08:08:15.452Z</time></trkpt><trkpt lat="44.1395686" lon="8.1005832"><ele>361.0</ele><time>2026-04-28T08:08:16.451Z</time></trkpt><trkpt lat="44.1394547" lon="8.1005516"><ele>361.0</ele><time>2026-04-28T08:08:17.452Z</time></trkpt><trkpt lat="44.1393554" lon="8.1005047"><ele>361.0</ele><time>2026-04-28T08:08:18.452Z</time></trkpt><trkpt lat="44.1392837" lon="8.1004199"><ele>361.0</ele><time>2026-04-28T08:08:19.452Z</time></trkpt><trkpt lat="44.1392423" lon="8.1003098"><ele>361.0</ele><time>2026-04-28T08:08:20.452Z</time></trkpt><trkpt lat="44.1392506" lon="8.1001719"><ele>361.0</ele><time>2026-04-28T08:08:21.452Z</time></trkpt><trkpt lat="44.1392931" lon="8.1000034"><ele>359.25</ele><time>2026-04-28T08:08:22.452Z</time></trkpt><trkpt lat="44.1393397" lon="8.0998219"><ele>357.5</ele><time>2026-04-28T08:08:23.451Z</time></trkpt><trkpt lat="44.1393843" lon="8.0996228"><ele>355.75</ele><time>2026-04-28T08:08:24.451Z</time></trkpt><trkpt lat="44.1394184" lon="8.0994147"><ele>354.0</ele><time>2026-04-28T08:08:25.451Z</time></trkpt><trkpt lat="44.1394153" lon="8.0992051"><ele>352.25</ele><time>2026-04-28T08:08:26.452Z</time></trkpt><trkpt lat="44.139381" lon="8.0990002"><ele>350.5</ele><time>2026-04-28T08:08:27.451Z</time></trkpt><trkpt lat="44.1393445" lon="8.0988024"><ele>348.75</ele><time>2026-04-28T08:08:28.451Z</time></trkpt><trkpt lat="44.1393259" lon="8.0986075"><ele>347.0</ele><time>2026-04-28T08:08:29.452Z</time></trkpt><trkpt lat="44.1393287" lon="8.0984128"><ele>344.0</ele><time>2026-04-28T08:08:30.451Z</time></trkpt><trkpt lat="44.1393538" lon="8.0982181"><ele>341.0</ele><time>2026-04-28T08:08:31.452Z</time></trkpt><trkpt lat="44.1393934" lon="8.0980294"><ele>338.0</ele><time>2026-04-28T08:08:32.452Z</time></trkpt><trkpt lat="44.1394368" lon="8.09785"><ele>335.0</ele><time>2026-04-28T08:08:33.451Z</time></trkpt><trkpt lat="44.1394839" lon="8.0976939"><ele>335.0</ele><time>2026-04-28T08:08:34.452Z</time></trkpt><trkpt lat="44.1395485" lon="8.0975801"><ele>335.0</ele><time>2026-04-28T08:08:35.451Z</time></trkpt><trkpt lat="44.1396317" lon="8.0975124"><ele>335.0</ele><time>2026-04-28T08:08:36.451Z</time></trkpt><trkpt lat="44.139713" lon="8.097462"><ele>335.0</ele><time>2026-04-28T08:08:37.452Z</time></trkpt><trkpt lat="44.1397479" lon="8.097386"><ele>335.0</ele><time>2026-04-28T08:08:38.451Z</time></trkpt><trkpt lat="44.1397045" lon="8.097219"><ele>332.5</ele><time>2026-04-28T08:08:54.452Z</time></trkpt><trkpt lat="44.139729" lon="8.0970632"><ele>330.0</ele><time>2026-04-28T08:08:56.451Z</time></trkpt><trkpt lat="44.1397403" lon="8.096959"><ele>327.5</ele><time>2026-04-28T08:08:57.452Z</time></trkpt><trkpt lat="44.1397467" lon="8.0968586"><ele>325.0</ele><time>2026-04-28T08:08:58.451Z</time></trkpt><trkpt lat="44.139766" lon="8.0967438"><ele>322.5</ele><time>2026-04-28T08:08:59.452Z</time></trkpt><trkpt lat="44.1398053" lon="8.0966444"><ele>320.0</ele><time>2026-04-28T08:09:00.451Z</time></trkpt><trkpt lat="44.1398655" lon="8.0965664"><ele>321.2</ele><time>2026-04-28T08:09:01.452Z</time></trkpt><trkpt lat="44.1399476" lon="8.0965181"><ele>322.4</ele><time>2026-04-28T08:09:02.451Z</time></trkpt><trkpt lat="44.1400396" lon="8.0965137"><ele>323.6</ele><time>2026-04-28T08:09:03.451Z</time></trkpt><trkpt lat="44.1401284" lon="8.0965397"><ele>324.8</ele><time>2026-04-28T08:09:04.452Z</time></trkpt><trkpt lat="44.1402269" lon="8.0965992"><ele>326.0</ele><time>2026-04-28T08:09:05.451Z</time></trkpt><trkpt lat="44.1403391" lon="8.0966668"><ele>333.5</ele><time>2026-04-28T08:09:06.451Z</time></trkpt><trkpt lat="44.1404648" lon="8.0967369"><ele>341.0</ele><time>2026-04-28T08:09:07.452Z</time></trkpt><trkpt lat="44.1405904" lon="8.0967872"><ele>348.5</ele><time>2026-04-28T08:09:08.452Z</time></trkpt><trkpt lat="44.1407208" lon="8.0968102"><ele>356.0</ele><time>2026-04-28T08:09:09.451Z</time></trkpt><trkpt lat="44.1408499" lon="8.096837"><ele>356.75</ele><time>2026-04-28T08:09:10.452Z</time></trkpt><trkpt lat="44.1409785" lon="8.0968824"><ele>357.5</ele><time>2026-04-28T08:09:11.451Z</time></trkpt><trkpt lat="44.1411086" lon="8.096938"><ele>358.25</ele><time>2026-04-28T08:09:12.452Z</time></trkpt><trkpt lat="44.1412339" lon="8.0969937"><ele>359.0</ele><time>2026-04-28T08:09:13.452Z</time></trkpt><trkpt lat="44.141356" lon="8.097047"><ele>359.0</ele><time>2026-04-28T08:09:14.451Z</time></trkpt><trkpt lat="44.1414675" lon="8.0970772"><ele>359.0</ele><time>2026-04-28T08:09:15.45Z</time></trkpt><trkpt lat="44.1415715" lon="8.097055"><ele>359.0</ele><time>2026-04-28T08:09:16.451Z</time></trkpt><trkpt lat="44.14167" lon="8.0969761"><ele>359.0</ele><time>2026-04-28T08:09:17.451Z</time></trkpt><trkpt lat="44.1417563" lon="8.096867"><ele>359.0</ele><time>2026-04-28T08:09:18.452Z</time></trkpt><trkpt lat="44.1418431" lon="8.0967626"><ele>359.0</ele><time>2026-04-28T08:09:19.451Z</time></trkpt><trkpt lat="44.1419338" lon="8.0966684"><ele>359.0</ele><time>2026-04-28T08:09:20.452Z</time></trkpt><trkpt lat="44.1420222" lon="8.0965848"><ele>359.0</ele><time>2026-04-28T08:09:21.452Z</time></trkpt><trkpt lat="44.1420872" lon="8.0964775"><ele>359.0</ele><time>2026-04-28T08:09:22.451Z</time></trkpt><trkpt lat="44.1421314" lon="8.0963494"><ele>359.0</ele><time>2026-04-28T08:09:23.451Z</time></trkpt><trkpt lat="44.1421627" lon="8.0962175"><ele>358.0</ele><time>2026-04-28T08:09:24.451Z</time></trkpt><trkpt lat="44.1421272" lon="8.0960449"><ele>357.0</ele><time>2026-04-28T08:09:25.452Z</time></trkpt><trkpt lat="44.1420236" lon="8.0959584"><ele>356.0</ele><time>2026-04-28T08:09:26.45Z</time></trkpt><trkpt lat="44.1419708" lon="8.0958206"><ele>355.0</ele><time>2026-04-28T08:09:27.451Z</time></trkpt><trkpt lat="44.1419173" lon="8.0956777"><ele>354.75</ele><time>2026-04-28T08:09:28.452Z</time></trkpt><trkpt lat="44.1418413" lon="8.0955481"><ele>354.5</ele><time>2026-04-28T08:09:29.451Z</time></trkpt><trkpt lat="44.1417301" lon="8.0954385"><ele>354.25</ele><time>2026-04-28T08:09:30.451Z</time></trkpt><trkpt lat="44.1416193" lon="8.0953441"><ele>354.0</ele><time>2026-04-28T08:09:31.451Z</time></trkpt><trkpt lat="44.141518" lon="8.0952309"><ele>354.0</ele><time>2026-04-28T08:09:32.452Z</time></trkpt><trkpt lat="44.1414212" lon="8.0951147"><ele>354.0</ele><time>2026-04-28T08:09:33.45Z</time></trkpt><trkpt lat="44.1413248" lon="8.0949942"><ele>354.0</ele><time>2026-04-28T08:09:34.451Z</time></trkpt><trkpt lat="44.141222" lon="8.0948725"><ele>354.0</ele><time>2026-04-28T08:09:35.452Z</time></trkpt><trkpt lat="44.1411245" lon="8.0947514"><ele>360.0</ele><time>2026-04-28T08:09:36.452Z</time></trkpt><trkpt lat="44.1410217" lon="8.0946392"><ele>366.0</ele><time>2026-04-28T08:09:37.452Z</time></trkpt><trkpt lat="44.1409213" lon="8.0945425"><ele>372.0</ele><time>2026-04-28T08:09:38.451Z</time></trkpt><trkpt lat="44.1408343" lon="8.0944469"><ele>378.0</ele><time>2026-04-28T08:09:39.451Z</time></trkpt><trkpt lat="44.1407632" lon="8.0943541"><ele>372.2</ele><time>2026-04-28T08:09:40.452Z</time></trkpt><trkpt lat="44.1407011" lon="8.0942536"><ele>366.4</ele><time>2026-04-28T08:09:41.452Z</time></trkpt><trkpt lat="44.1406591" lon="8.094133"><ele>360.59999999999997</ele><time>2026-04-28T08:09:42.451Z</time></trkpt><trkpt lat="44.1406313" lon="8.0940108"><ele>354.79999999999995</ele><time>2026-04-28T08:09:43.452Z</time></trkpt><trkpt lat="44.140621" lon="8.0938781"><ele>349.0</ele><time>2026-04-28T08:09:44.451Z</time></trkpt><trkpt lat="44.1406278" lon="8.0937471"><ele>349.0</ele><time>2026-04-28T08:09:45.45Z</time></trkpt><trkpt lat="44.1406403" lon="8.0936263"><ele>349.0</ele><time>2026-04-28T08:09:46.451Z</time></trkpt><trkpt lat="44.1406561" lon="8.0935173"><ele>349.0</ele><time>2026-04-28T08:09:47.452Z</time></trkpt><trkpt lat="44.1406685" lon="8.093425"><ele>349.0</ele><time>2026-04-28T08:09:48.452Z</time></trkpt><trkpt lat="44.1406752" lon="8.0933335"><ele>349.0</ele><time>2026-04-28T08:09:49.451Z</time></trkpt><trkpt lat="44.1406797" lon="8.0932338"><ele>349.0</ele><time>2026-04-28T08:09:50.451Z</time></trkpt><trkpt lat="44.1406872" lon="8.0931253"><ele>351.3333333333333</ele><time>2026-04-28T08:09:51.451Z</time></trkpt><trkpt lat="44.1406711" lon="8.0930172"><ele>353.66666666666663</ele><time>2026-04-28T08:09:52.451Z</time></trkpt><trkpt lat="44.1406311" lon="8.0929179"><ele>356.0</ele><time>2026-04-28T08:09:53.452Z</time></trkpt><trkpt lat="44.1405683" lon="8.0928259"><ele>358.3333333333333</ele><time>2026-04-28T08:09:54.451Z</time></trkpt><trkpt lat="44.1405013" lon="8.0927414"><ele>360.6666666666667</ele><time>2026-04-28T08:09:55.45Z</time></trkpt><trkpt lat="44.1404266" lon="8.0926574"><ele>363.0</ele><time>2026-04-28T08:09:56.451Z</time></trkpt><trkpt lat="44.1403658" lon="8.0925689"><ele>363.0</ele><time>2026-04-28T08:09:57.451Z</time></trkpt><trkpt lat="44.1403296" lon="8.092475"><ele>363.0</ele><time>2026-04-28T08:09:58.452Z</time></trkpt><trkpt lat="44.1403138" lon="8.0923693"><ele>363.0</ele><time>2026-04-28T08:09:59.451Z</time></trkpt><trkpt lat="44.1403193" lon="8.0922586"><ele>363.0</ele><time>2026-04-28T08:10:00.452Z</time></trkpt><trkpt lat="44.1403327" lon="8.0921457"><ele>363.0</ele><time>2026-04-28T08:10:01.451Z</time></trkpt><trkpt lat="44.1403524" lon="8.0920442"><ele>363.0</ele><time>2026-04-28T08:10:02.451Z</time></trkpt><trkpt lat="44.1403677" lon="8.0918814"><ele>363.59999999999997</ele><time>2026-04-28T08:10:04.451Z</time></trkpt><trkpt lat="44.1403893" lon="8.0917082"><ele>364.2</ele><time>2026-04-28T08:10:06.451Z</time></trkpt><trkpt lat="44.1404336" lon="8.0916061"><ele>364.8</ele><time>2026-04-28T08:10:07.452Z</time></trkpt><trkpt lat="44.1404912" lon="8.0914984"><ele>365.4</ele><time>2026-04-28T08:10:08.452Z</time></trkpt><trkpt lat="44.1405558" lon="8.0913741"><ele>366.0</ele><time>2026-04-28T08:10:09.45Z</time></trkpt><trkpt lat="44.1406106" lon="8.0912516"><ele>366.0</ele><time>2026-04-28T08:10:10.451Z</time></trkpt><trkpt lat="44.1406579" lon="8.0911265"><ele>366.0</ele><time>2026-04-28T08:10:11.451Z</time></trkpt><trkpt lat="44.1406957" lon="8.0909999"><ele>366.0</ele><time>2026-04-28T08:10:12.452Z</time></trkpt><trkpt lat="44.1407316" lon="8.0908748"><ele>366.0</ele><time>2026-04-28T08:10:13.451Z</time></trkpt><trkpt lat="44.1406579" lon="8.0907815"><ele>366.0</ele><time>2026-04-28T08:10:15.452Z</time></trkpt><trkpt lat="44.1405966" lon="8.0907479"><ele>365.1666666666667</ele><time>2026-04-28T08:10:16.45Z</time></trkpt><trkpt lat="44.1405343" lon="8.090718"><ele>364.3333333333333</ele><time>2026-04-28T08:10:17.45Z</time></trkpt><trkpt lat="44.1404588" lon="8.0906892"><ele>363.5</ele><time>2026-04-28T08:10:18.452Z</time></trkpt><trkpt lat="44.1403845" lon="8.0906422"><ele>362.66666666666663</ele><time>2026-04-28T08:10:19.452Z</time></trkpt><trkpt lat="44.1403205" lon="8.090571"><ele>361.8333333333333</ele><time>2026-04-28T08:10:20.451Z</time></trkpt><trkpt lat="44.1402715" lon="8.0904869"><ele>361.0</ele><time>2026-04-28T08:10:21.451Z</time></trkpt><trkpt lat="44.1402462" lon="8.0903972"><ele>361.0</ele><time>2026-04-28T08:10:22.451Z</time></trkpt><trkpt lat="44.1402673" lon="8.0902353"><ele>361.0</ele><time>2026-04-28T08:10:24.451Z</time></trkpt><trkpt lat="44.1403055" lon="8.0901563"><ele>361.0</ele><time>2026-04-28T08:10:25.452Z</time></trkpt><trkpt lat="44.1403594" lon="8.0900682"><ele>361.0</ele><time>2026-04-28T08:10:26.452Z</time></trkpt><trkpt lat="44.1404219" lon="8.0899976"><ele>361.0</ele><time>2026-04-28T08:10:27.45Z</time></trkpt><trkpt lat="44.1404836" lon="8.0899345"><ele>361.0</ele><time>2026-04-28T08:10:28.45Z</time></trkpt><trkpt lat="44.1405407" lon="8.0898734"><ele>358.8571428571429</ele><time>2026-04-28T08:10:29.451Z</time></trkpt><trkpt lat="44.1405942" lon="8.0898051"><ele>356.71428571428567</ele><time>2026-04-28T08:10:30.452Z</time></trkpt><trkpt lat="44.1406475" lon="8.0897381"><ele>354.57142857142856</ele><time>2026-04-28T08:10:31.451Z</time></trkpt><trkpt lat="44.1407067" lon="8.0896915"><ele>352.42857142857144</ele><time>2026-04-28T08:10:32.451Z</time></trkpt><trkpt lat="44.1407701" lon="8.0896448"><ele>350.28571428571433</ele><time>2026-04-28T08:10:33.451Z</time></trkpt><trkpt lat="44.1408124" lon="8.0895679"><ele>348.1428571428571</ele><time>2026-04-28T08:10:34.452Z</time></trkpt><trkpt lat="44.1408466" lon="8.089473"><ele>346.0</ele><time>2026-04-28T08:10:35.451Z</time></trkpt><trkpt lat="44.1408652" lon="8.0893634"><ele>345.5</ele><time>2026-04-28T08:10:36.45Z</time></trkpt><trkpt lat="44.1408552" lon="8.0892605"><ele>345.0</ele><time>2026-04-28T08:10:37.452Z</time></trkpt><trkpt lat="44.1408279" lon="8.0891633"><ele>344.5</ele><time>2026-04-28T08:10:38.451Z</time></trkpt><trkpt lat="44.1407771" lon="8.0890624"><ele>344.0</ele><time>2026-04-28T08:10:39.452Z</time></trkpt><trkpt lat="44.1407287" lon="8.0889664"><ele>343.5</ele><time>2026-04-28T08:10:40.451Z</time></trkpt><trkpt lat="44.1406945" lon="8.088875"><ele>343.0</ele><time>2026-04-28T08:10:41.452Z</time></trkpt><trkpt lat="44.1406688" lon="8.0887001"><ele>343.0</ele><time>2026-04-28T08:10:43.452Z</time></trkpt><trkpt lat="44.1406737" lon="8.0885968"><ele>343.0</ele><time>2026-04-28T08:10:44.451Z</time></trkpt><trkpt lat="44.1406942" lon="8.0884187"><ele>343.0</ele><time>2026-04-28T08:10:45.451Z</time></trkpt><trkpt lat="44.1406878" lon="8.0882805"><ele>343.0</ele><time>2026-04-28T08:10:46.452Z</time></trkpt><trkpt lat="44.1406842" lon="8.0881559"><ele>343.0</ele><time>2026-04-28T08:10:47.45Z</time></trkpt><trkpt lat="44.1406908" lon="8.0880448"><ele>343.3333333333333</ele><time>2026-04-28T08:10:48.452Z</time></trkpt><trkpt lat="44.1406984" lon="8.0879486"><ele>343.66666666666663</ele><time>2026-04-28T08:10:49.452Z</time></trkpt><trkpt lat="44.1407153" lon="8.0878584"><ele>344.0</ele><time>2026-04-28T08:10:50.451Z</time></trkpt><trkpt lat="44.1407668" lon="8.0877208"><ele>344.3333333333333</ele><time>2026-04-28T08:10:52.452Z</time></trkpt><trkpt lat="44.1408232" lon="8.0876603"><ele>344.6666666666667</ele><time>2026-04-28T08:10:53.451Z</time></trkpt><trkpt lat="44.1408903" lon="8.0876228"><ele>345.0</ele><time>2026-04-28T08:10:54.451Z</time></trkpt><trkpt lat="44.1409579" lon="8.0875693"><ele>345.6666666666667</ele><time>2026-04-28T08:10:55.452Z</time></trkpt><trkpt lat="44.1410081" lon="8.0874764"><ele>346.3333333333333</ele><time>2026-04-28T08:10:56.451Z</time></trkpt><trkpt lat="44.1410657" lon="8.0873657"><ele>347.0</ele><time>2026-04-28T08:10:57.451Z</time></trkpt><trkpt lat="44.141121" lon="8.0872586"><ele>347.66666666666663</ele><time>2026-04-28T08:10:58.452Z</time></trkpt><trkpt lat="44.1411707" lon="8.0871501"><ele>348.3333333333333</ele><time>2026-04-28T08:10:59.451Z</time></trkpt><trkpt lat="44.141217" lon="8.0870632"><ele>349.0</ele><time>2026-04-28T08:11:00.452Z</time></trkpt><trkpt lat="44.1412567" lon="8.0869347"><ele>349.0</ele><time>2026-04-28T08:11:02.452Z</time></trkpt><trkpt lat="44.1411884" lon="8.0869442"><ele>349.0</ele><time>2026-04-28T08:11:04.452Z</time></trkpt><trkpt lat="44.1411195" lon="8.087051"><ele>349.0</ele><time>2026-04-28T08:11:06.451Z</time></trkpt><trkpt lat="44.1410429" lon="8.0871388"><ele>349.0</ele><time>2026-04-28T08:11:07.452Z</time></trkpt><trkpt lat="44.1409697" lon="8.0871811"><ele>349.0</ele><time>2026-04-28T08:11:08.451Z</time></trkpt><trkpt lat="44.1409039" lon="8.0871998"><ele>349.0</ele><time>2026-04-28T08:11:09.452Z</time></trkpt><trkpt lat="44.1408255" lon="8.0871828"><ele>349.0</ele><time>2026-04-28T08:11:10.451Z</time></trkpt><trkpt lat="44.1407359" lon="8.0871677"><ele>349.0</ele><time>2026-04-28T08:11:11.452Z</time></trkpt><trkpt lat="44.140656" lon="8.0871884"><ele>349.0</ele><time>2026-04-28T08:11:12.452Z</time></trkpt><trkpt lat="44.1405678" lon="8.0872057"><ele>349.0</ele><time>2026-04-28T08:11:13.451Z</time></trkpt><trkpt lat="44.1404834" lon="8.0872284"><ele>349.0</ele><time>2026-04-28T08:11:14.45Z</time></trkpt><trkpt lat="44.1404048" lon="8.0872458"><ele>349.0</ele><time>2026-04-28T08:11:15.452Z</time></trkpt><trkpt lat="44.1403272" lon="8.0873134"><ele>346.0</ele><time>2026-04-28T08:11:16.451Z</time></trkpt><trkpt lat="44.1402638" lon="8.0873691"><ele>343.0</ele><time>2026-04-28T08:11:17.451Z</time></trkpt><trkpt lat="44.1402036" lon="8.0874219"><ele>340.0</ele><time>2026-04-28T08:11:18.451Z</time></trkpt><trkpt lat="44.1401515" lon="8.0873543"><ele>337.0</ele><time>2026-04-28T08:11:21.451Z</time></trkpt><trkpt lat="44.1402096" lon="8.0871759"><ele>334.0</ele><time>2026-04-28T08:11:23.452Z</time></trkpt><trkpt lat="44.140243" lon="8.0870825"><ele>331.0</ele><time>2026-04-28T08:11:24.451Z</time></trkpt><trkpt lat="44.1402933" lon="8.0869761"><ele>331.0</ele><time>2026-04-28T08:11:25.451Z</time></trkpt><trkpt lat="44.1403457" lon="8.0869001"><ele>331.0</ele><time>2026-04-28T08:11:26.452Z</time></trkpt><trkpt lat="44.1404197" lon="8.0868599"><ele>331.0</ele><time>2026-04-28T08:11:27.452Z</time></trkpt><trkpt lat="44.1404986" lon="8.0868398"><ele>331.0</ele><time>2026-04-28T08:11:28.451Z</time></trkpt><trkpt lat="44.1405856" lon="8.0868281"><ele>331.0</ele><time>2026-04-28T08:11:29.45Z</time></trkpt><trkpt lat="44.140676" lon="8.0868165"><ele>331.0</ele><time>2026-04-28T08:11:30.452Z</time></trkpt><trkpt lat="44.1407536" lon="8.0868076"><ele>331.3333333333333</ele><time>2026-04-28T08:11:31.451Z</time></trkpt><trkpt lat="44.1408199" lon="8.0867627"><ele>331.66666666666663</ele><time>2026-04-28T08:11:32.451Z</time></trkpt><trkpt lat="44.1408731" lon="8.0866779"><ele>332.0</ele><time>2026-04-28T08:11:33.451Z</time></trkpt><trkpt lat="44.1409205" lon="8.0865726"><ele>332.3333333333333</ele><time>2026-04-28T08:11:34.451Z</time></trkpt><trkpt lat="44.1409489" lon="8.0864422"><ele>332.6666666666667</ele><time>2026-04-28T08:11:35.451Z</time></trkpt><trkpt lat="44.1409581" lon="8.086305"><ele>333.0</ele><time>2026-04-28T08:11:36.452Z</time></trkpt><trkpt lat="44.140972" lon="8.0861722"><ele>333.0</ele><time>2026-04-28T08:11:37.452Z</time></trkpt><trkpt lat="44.1410006" lon="8.086048"><ele>333.0</ele><time>2026-04-28T08:11:38.452Z</time></trkpt><trkpt lat="44.1410316" lon="8.0859435"><ele>333.0</ele><time>2026-04-28T08:11:39.451Z</time></trkpt><trkpt lat="44.1410745" lon="8.0858411"><ele>333.0</ele><time>2026-04-28T08:11:40.451Z</time></trkpt><trkpt lat="44.1411235" lon="8.0857502"><ele>333.0</ele><time>2026-04-28T08:11:41.451Z</time></trkpt><trkpt lat="44.1411689" lon="8.0856492"><ele>333.0</ele><time>2026-04-28T08:11:42.451Z</time></trkpt><trkpt lat="44.1412228" lon="8.085509"><ele>333.0</ele><time>2026-04-28T08:11:44.452Z</time></trkpt><trkpt lat="44.141171" lon="8.0853532"><ele>333.0</ele><time>2026-04-28T08:11:46.452Z</time></trkpt><trkpt lat="44.1411874" lon="8.0851737"><ele>333.0</ele><time>2026-04-28T08:11:48.452Z</time></trkpt><trkpt lat="44.1412317" lon="8.0850654"><ele>333.0</ele><time>2026-04-28T08:11:49.451Z</time></trkpt><trkpt lat="44.1412828" lon="8.0849597"><ele>333.0</ele><time>2026-04-28T08:11:50.452Z</time></trkpt><trkpt lat="44.1413422" lon="8.0848453"><ele>333.0</ele><time>2026-04-28T08:11:51.451Z</time></trkpt><trkpt lat="44.1414143" lon="8.0847264"><ele>333.0</ele><time>2026-04-28T08:11:52.451Z</time></trkpt><trkpt lat="44.1414941" lon="8.0846097"><ele>333.0</ele><time>2026-04-28T08:11:53.451Z</time></trkpt><trkpt lat="44.1415716" lon="8.0845067"><ele>333.0</ele><time>2026-04-28T08:11:54.452Z</time></trkpt><trkpt lat="44.1416418" lon="8.0844174"><ele>333.0</ele><time>2026-04-28T08:11:55.452Z</time></trkpt><trkpt lat="44.1417047" lon="8.0843536"><ele>333.0</ele><time>2026-04-28T08:11:56.451Z</time></trkpt><trkpt lat="44.1417784" lon="8.0842874"><ele>333.0</ele><time>2026-04-28T08:11:58.451Z</time></trkpt><trkpt lat="44.1416758" lon="8.0842542"><ele>333.0</ele><time>2026-04-28T08:12:01.451Z</time></trkpt><trkpt lat="44.1415758" lon="8.0843104"><ele>333.0</ele><time>2026-04-28T08:12:02.452Z</time></trkpt><trkpt lat="44.1414557" lon="8.0843478"><ele>333.0</ele><time>2026-04-28T08:12:03.451Z</time></trkpt><trkpt lat="44.141347" lon="8.0843625"><ele>333.0</ele><time>2026-04-28T08:12:04.452Z</time></trkpt><trkpt lat="44.1412493" lon="8.0844119"><ele>333.0</ele><time>2026-04-28T08:12:05.451Z</time></trkpt><trkpt lat="44.1411485" lon="8.0844849"><ele>333.0</ele><time>2026-04-28T08:12:06.452Z</time></trkpt><trkpt lat="44.1410398" lon="8.0845523"><ele>333.0</ele><time>2026-04-28T08:12:07.452Z</time></trkpt><trkpt lat="44.1409462" lon="8.0846066"><ele>333.0</ele><time>2026-04-28T08:12:08.451Z</time></trkpt><trkpt lat="44.1408605" lon="8.0846581"><ele>333.0</ele><time>2026-04-28T08:12:09.451Z</time></trkpt><trkpt lat="44.1407885" lon="8.0847143"><ele>333.0</ele><time>2026-04-28T08:12:10.451Z</time></trkpt><trkpt lat="44.1406937" lon="8.0847894"><ele>333.0</ele><time>2026-04-28T08:12:12.451Z</time></trkpt><trkpt lat="44.1406183" lon="8.0847479"><ele>333.0</ele><time>2026-04-28T08:12:14.451Z</time></trkpt><trkpt lat="44.1405593" lon="8.0846949"><ele>333.0</ele><time>2026-04-28T08:12:15.451Z</time></trkpt><trkpt lat="44.1404849" lon="8.0846274"><ele>333.0</ele><time>2026-04-28T08:12:16.452Z</time></trkpt><trkpt lat="44.1404309" lon="8.0845803"><ele>334.1666666666667</ele><time>2026-04-28T08:12:17.452Z</time></trkpt><trkpt lat="44.1403524" lon="8.084608"><ele>335.3333333333333</ele><time>2026-04-28T08:12:19.452Z</time></trkpt><trkpt lat="44.1403082" lon="8.084746"><ele>336.5</ele><time>2026-04-28T08:12:21.451Z</time></trkpt><trkpt lat="44.1402935" lon="8.0848383"><ele>337.66666666666663</ele><time>2026-04-28T08:12:22.452Z</time></trkpt><trkpt lat="44.1402712" lon="8.0849258"><ele>338.8333333333333</ele><time>2026-04-28T08:12:23.451Z</time></trkpt><trkpt lat="44.1402211" lon="8.0850305"><ele>340.0</ele><time>2026-04-28T08:12:24.452Z</time></trkpt><trkpt lat="44.1401566" lon="8.0851572"><ele>340.0</ele><time>2026-04-28T08:12:25.452Z</time></trkpt><trkpt lat="44.1400959" lon="8.0852835"><ele>340.0</ele><time>2026-04-28T08:12:26.452Z</time></trkpt><trkpt lat="44.1400375" lon="8.0853988"><ele>340.0</ele><time>2026-04-28T08:12:27.452Z</time></trkpt><trkpt lat="44.1399766" lon="8.085491"><ele>340.0</ele><time>2026-04-28T08:12:28.451Z</time></trkpt><trkpt lat="44.1399102" lon="8.0855809"><ele>340.0</ele><time>2026-04-28T08:12:29.452Z</time></trkpt><trkpt lat="44.1398359" lon="8.0856622"><ele>341.8571428571429</ele><time>2026-04-28T08:12:30.451Z</time></trkpt><trkpt lat="44.1397708" lon="8.085736"><ele>343.71428571428567</ele><time>2026-04-28T08:12:31.451Z</time></trkpt><trkpt lat="44.1397223" lon="8.0858167"><ele>345.57142857142856</ele><time>2026-04-28T08:12:32.451Z</time></trkpt><trkpt lat="44.1396773" lon="8.0858965"><ele>347.42857142857144</ele><time>2026-04-28T08:12:33.452Z</time></trkpt><trkpt lat="44.1396309" lon="8.0859713"><ele>349.28571428571433</ele><time>2026-04-28T08:12:34.451Z</time></trkpt><trkpt lat="44.1395841" lon="8.086031"><ele>351.1428571428571</ele><time>2026-04-28T08:12:35.452Z</time></trkpt><trkpt lat="44.1395118" lon="8.0860728"><ele>353.0</ele><time>2026-04-28T08:12:36.452Z</time></trkpt><trkpt lat="44.1394247" lon="8.0861095"><ele>353.0</ele><time>2026-04-28T08:12:37.452Z</time></trkpt><trkpt lat="44.1393436" lon="8.0861541"><ele>353.0</ele><time>2026-04-28T08:12:38.45Z</time></trkpt><trkpt lat="44.1392681" lon="8.0862085"><ele>353.0</ele><time>2026-04-28T08:12:39.452Z</time></trkpt><trkpt lat="44.1391891" lon="8.086266"><ele>353.0</ele><time>2026-04-28T08:12:40.452Z</time></trkpt><trkpt lat="44.1391121" lon="8.0863321"><ele>353.0</ele><time>2026-04-28T08:12:41.451Z</time></trkpt><trkpt lat="44.1390501" lon="8.0863836"><ele>353.0</ele><time>2026-04-28T08:12:42.451Z</time></trkpt><trkpt lat="44.1389892" lon="8.0864196"><ele>354.0</ele><time>2026-04-28T08:12:43.452Z</time></trkpt><trkpt lat="44.1389152" lon="8.0864445"><ele>355.0</ele><time>2026-04-28T08:12:44.451Z</time></trkpt><trkpt lat="44.1388426" lon="8.0864805"><ele>356.0</ele><time>2026-04-28T08:12:45.452Z</time></trkpt><trkpt lat="44.1387729" lon="8.0865321"><ele>357.0</ele><time>2026-04-28T08:12:46.452Z</time></trkpt><trkpt lat="44.1387091" lon="8.0865862"><ele>358.0</ele><time>2026-04-28T08:12:47.45Z</time></trkpt><trkpt lat="44.1386524" lon="8.0866365"><ele>359.0</ele><time>2026-04-28T08:12:48.452Z</time></trkpt><trkpt lat="44.1385908" lon="8.0866716"><ele>360.0</ele><time>2026-04-28T08:12:49.451Z</time></trkpt><trkpt lat="44.1385198" lon="8.0867067"><ele>360.0</ele><time>2026-04-28T08:12:50.452Z</time></trkpt><trkpt lat="44.1384485" lon="8.0867388"><ele>360.0</ele><time>2026-04-28T08:12:51.451Z</time></trkpt><trkpt lat="44.1383837" lon="8.0867746"><ele>360.0</ele><time>2026-04-28T08:12:52.452Z</time></trkpt><trkpt lat="44.1382883" lon="8.0868728"><ele>360.0</ele><time>2026-04-28T08:12:54.451Z</time></trkpt><trkpt lat="44.1382416" lon="8.0869408"><ele>360.0</ele><time>2026-04-28T08:12:55.451Z</time></trkpt><trkpt lat="44.1382152" lon="8.0870223"><ele>360.0</ele><time>2026-04-28T08:12:56.451Z</time></trkpt><trkpt lat="44.1381852" lon="8.0872136"><ele>359.6666666666667</ele><time>2026-04-28T08:12:58.451Z</time></trkpt><trkpt lat="44.1381852" lon="8.0873222"><ele>359.3333333333333</ele><time>2026-04-28T08:12:59.452Z</time></trkpt><trkpt lat="44.1381891" lon="8.0874183"><ele>359.0</ele><time>2026-04-28T08:13:00.452Z</time></trkpt><trkpt lat="44.1381753" lon="8.0875656"><ele>358.66666666666663</ele><time>2026-04-28T08:13:02.451Z</time></trkpt><trkpt lat="44.1380908" lon="8.0876092"><ele>358.3333333333333</ele><time>2026-04-28T08:13:04.451Z</time></trkpt><trkpt lat="44.1379902" lon="8.0875756"><ele>358.0</ele><time>2026-04-28T08:13:06.452Z</time></trkpt><trkpt lat="44.1379056" lon="8.0875632"><ele>358.0</ele><time>2026-04-28T08:13:08.452Z</time></trkpt><trkpt lat="44.1377783" lon="8.0875857"><ele>358.0</ele><time>2026-04-28T08:13:10.451Z</time></trkpt><trkpt lat="44.1377137" lon="8.0876157"><ele>358.0</ele><time>2026-04-28T08:13:11.451Z</time></trkpt><trkpt lat="44.1376523" lon="8.08766"><ele>358.0</ele><time>2026-04-28T08:13:12.451Z</time></trkpt><trkpt lat="44.1376122" lon="8.0877362"><ele>358.0</ele><time>2026-04-28T08:13:13.451Z</time></trkpt><trkpt lat="44.1375965" lon="8.087911"><ele>358.0</ele><time>2026-04-28T08:13:15.452Z</time></trkpt><trkpt lat="44.1375928" lon="8.0880104"><ele>358.0</ele><time>2026-04-28T08:13:16.451Z</time></trkpt><trkpt lat="44.1376272" lon="8.0881116"><ele>358.0</ele><time>2026-04-28T08:13:17.452Z</time></trkpt><trkpt lat="44.1376725" lon="8.0882242"><ele>358.0</ele><time>2026-04-28T08:13:18.452Z</time></trkpt><trkpt lat="44.137702" lon="8.0883411"><ele>358.0</ele><time>2026-04-28T08:13:19.452Z</time></trkpt><trkpt lat="44.1377225" lon="8.0884402"><ele>358.0</ele><time>2026-04-28T08:13:20.451Z</time></trkpt><trkpt lat="44.1377303" lon="8.0885274"><ele>356.59999999999997</ele><time>2026-04-28T08:13:21.451Z</time></trkpt><trkpt lat="44.1377318" lon="8.0886216"><ele>355.2</ele><time>2026-04-28T08:13:22.452Z</time></trkpt><trkpt lat="44.1377137" lon="8.0887766"><ele>353.8</ele><time>2026-04-28T08:13:24.452Z</time></trkpt><trkpt lat="44.1376438" lon="8.088862"><ele>352.4</ele><time>2026-04-28T08:13:26.452Z</time></trkpt><trkpt lat="44.1375305" lon="8.0889237"><ele>351.0</ele><time>2026-04-28T08:13:28.452Z</time></trkpt><trkpt lat="44.137488" lon="8.089002"><ele>349.6666666666667</ele><time>2026-04-28T08:13:29.451Z</time></trkpt><trkpt lat="44.137452" lon="8.0890932"><ele>348.3333333333333</ele><time>2026-04-28T08:13:30.452Z</time></trkpt><trkpt lat="44.1374504" lon="8.089181"><ele>347.0</ele><time>2026-04-28T08:13:31.452Z</time></trkpt><trkpt lat="44.1374579" lon="8.0893173"><ele>345.66666666666663</ele><time>2026-04-28T08:13:33.451Z</time></trkpt><trkpt lat="44.1373978" lon="8.0893992"><ele>344.3333333333333</ele><time>2026-04-28T08:13:35.451Z</time></trkpt><trkpt lat="44.1372898" lon="8.0894619"><ele>343.0</ele><time>2026-04-28T08:13:37.452Z</time></trkpt><trkpt lat="44.1371854" lon="8.0895523"><ele>347.8333333333333</ele><time>2026-04-28T08:13:39.451Z</time></trkpt><trkpt lat="44.1371381" lon="8.0896274"><ele>352.66666666666663</ele><time>2026-04-28T08:13:40.452Z</time></trkpt><trkpt lat="44.1370959" lon="8.0897112"><ele>357.5</ele><time>2026-04-28T08:13:41.452Z</time></trkpt><trkpt lat="44.1370461" lon="8.0897718"><ele>362.3333333333333</ele><time>2026-04-28T08:13:42.451Z</time></trkpt><trkpt lat="44.1369311" lon="8.0898004"><ele>367.1666666666667</ele><time>2026-04-28T08:13:44.452Z</time></trkpt><trkpt lat="44.1368191" lon="8.0898361"><ele>372.0</ele><time>2026-04-28T08:13:46.452Z</time></trkpt><trkpt lat="44.1367432" lon="8.0899416"><ele>372.0</ele><time>2026-04-28T08:13:48.452Z</time></trkpt><trkpt lat="44.1366665" lon="8.090064"><ele>372.0</ele><time>2026-04-28T08:13:50.452Z</time></trkpt><trkpt lat="44.1366271" lon="8.090205"><ele>372.0</ele><time>2026-04-28T08:13:52.451Z</time></trkpt><trkpt lat="44.1366144" lon="8.0903184"><ele>372.0</ele><time>2026-04-28T08:13:54.451Z</time></trkpt><trkpt lat="44.1365411" lon="8.0903032"><ele>372.0</ele><time>2026-04-28T08:13:57.452Z</time></trkpt><trkpt lat="44.1365062" lon="8.0901878"><ele>372.0</ele><time>2026-04-28T08:13:59.451Z</time></trkpt><trkpt lat="44.1365086" lon="8.0900505"><ele>372.0</ele><time>2026-04-28T08:14:01.451Z</time></trkpt><trkpt lat="44.1365722" lon="8.0899258"><ele>372.0</ele><time>2026-04-28T08:14:03.452Z</time></trkpt><trkpt lat="44.1366162" lon="8.0898441"><ele>372.0</ele><time>2026-04-28T08:14:04.452Z</time></trkpt><trkpt lat="44.1366643" lon="8.0897558"><ele>372.0</ele><time>2026-04-28T08:14:05.451Z</time></trkpt><trkpt lat="44.1367224" lon="8.0896653"><ele>372.0</ele><time>2026-04-28T08:14:06.451Z</time></trkpt><trkpt lat="44.1367694" lon="8.0895862"><ele>375.0</ele><time>2026-04-28T08:14:07.452Z</time></trkpt><trkpt lat="44.1367987" lon="8.0895039"><ele>378.0</ele><time>2026-04-28T08:14:08.452Z</time></trkpt><trkpt lat="44.1368243" lon="8.0894199"><ele>381.0</ele><time>2026-04-28T08:14:09.452Z</time></trkpt><trkpt lat="44.136854" lon="8.0893045"><ele>384.0</ele><time>2026-04-28T08:14:11.452Z</time></trkpt><trkpt lat="44.1367712" lon="8.0893092"><ele>387.0</ele><time>2026-04-28T08:14:14.452Z</time></trkpt><trkpt lat="44.1367196" lon="8.0894319"><ele>390.0</ele><time>2026-04-28T08:14:16.451Z</time></trkpt><trkpt lat="44.1366307" lon="8.0895525"><ele>390.0</ele><time>2026-04-28T08:14:18.452Z</time></trkpt><trkpt lat="44.1365739" lon="8.0896038"><ele>390.0</ele><time>2026-04-28T08:14:19.452Z</time></trkpt><trkpt lat="44.136512" lon="8.089652"><ele>390.0</ele><time>2026-04-28T08:14:20.452Z</time></trkpt><trkpt lat="44.1364421" lon="8.0896972"><ele>390.0</ele><time>2026-04-28T08:14:21.451Z</time></trkpt><trkpt lat="44.136381" lon="8.0897594"><ele>390.0</ele><time>2026-04-28T08:14:22.451Z</time></trkpt><trkpt lat="44.1363225" lon="8.0898328"><ele>390.0</ele><time>2026-04-28T08:14:23.451Z</time></trkpt><trkpt lat="44.1362661" lon="8.0899113"><ele>397.0</ele><time>2026-04-28T08:14:24.45Z</time></trkpt><trkpt lat="44.1362294" lon="8.0899966"><ele>404.0</ele><time>2026-04-28T08:14:25.452Z</time></trkpt><trkpt lat="44.1362329" lon="8.0901683"><ele>411.0</ele><time>2026-04-28T08:14:27.451Z</time></trkpt><trkpt lat="44.1362692" lon="8.0902665"><ele>418.0</ele><time>2026-04-28T08:14:28.452Z</time></trkpt><trkpt lat="44.1363013" lon="8.090387"><ele>425.0</ele><time>2026-04-28T08:14:29.451Z</time></trkpt><trkpt lat="44.1363261" lon="8.0905107"><ele>425.0</ele><time>2026-04-28T08:14:30.45Z</time></trkpt><trkpt lat="44.1363498" lon="8.0906049"><ele>425.0</ele><time>2026-04-28T08:14:31.451Z</time></trkpt><trkpt lat="44.1363801" lon="8.0907475"><ele>425.0</ele><time>2026-04-28T08:14:33.451Z</time></trkpt><trkpt lat="44.1363829" lon="8.0909327"><ele>425.0</ele><time>2026-04-28T08:14:35.45Z</time></trkpt><trkpt lat="44.1363622" lon="8.0910328"><ele>425.0</ele><time>2026-04-28T08:14:36.452Z</time></trkpt><trkpt lat="44.1363415" lon="8.0911204"><ele>422.8333333333333</ele><time>2026-04-28T08:14:37.452Z</time></trkpt><trkpt lat="44.1362741" lon="8.0912458"><ele>420.66666666666663</ele><time>2026-04-28T08:14:39.451Z</time></trkpt><trkpt lat="44.1362123" lon="8.0912883"><ele>418.5</ele><time>2026-04-28T08:14:40.452Z</time></trkpt><trkpt lat="44.1361546" lon="8.0913275"><ele>416.33333333333337</ele><time>2026-04-28T08:14:41.452Z</time></trkpt><trkpt lat="44.1360963" lon="8.0913782"><ele>414.1666666666667</ele><time>2026-04-28T08:14:42.452Z</time></trkpt><trkpt lat="44.1360286" lon="8.0914429"><ele>412.0</ele><time>2026-04-28T08:14:43.452Z</time></trkpt><trkpt lat="44.1359533" lon="8.0915099"><ele>412.00000000000006</ele><time>2026-04-28T08:14:44.452Z</time></trkpt><trkpt lat="44.135883" lon="8.091551"><ele>412.0</ele><time>2026-04-28T08:14:45.452Z</time></trkpt><trkpt lat="44.1358175" lon="8.0915853"><ele>412.0</ele><time>2026-04-28T08:14:46.451Z</time></trkpt><trkpt lat="44.1357497" lon="8.0916298"><ele>412.0</ele><time>2026-04-28T08:14:47.451Z</time></trkpt><trkpt lat="44.1356793" lon="8.0916839"><ele>412.00000000000006</ele><time>2026-04-28T08:14:48.451Z</time></trkpt><trkpt lat="44.1356228" lon="8.0917264"><ele>412.0</ele><time>2026-04-28T08:14:49.451Z</time></trkpt><trkpt lat="44.1355443" lon="8.0918287"><ele>413.50000000000006</ele><time>2026-04-28T08:14:51.452Z</time></trkpt><trkpt lat="44.1355427" lon="8.091944"><ele>415.0</ele><time>2026-04-28T08:14:53.451Z</time></trkpt><trkpt lat="44.1355897" lon="8.0920724"><ele>416.5</ele><time>2026-04-28T08:14:55.452Z</time></trkpt><trkpt lat="44.1356277" lon="8.0921761"><ele>418.0</ele><time>2026-04-28T08:14:56.45Z</time></trkpt><trkpt lat="44.1356609" lon="8.0922777"><ele>419.50000000000006</ele><time>2026-04-28T08:14:57.45Z</time></trkpt><trkpt lat="44.1356849" lon="8.0923819"><ele>421.0</ele><time>2026-04-28T08:14:58.451Z</time></trkpt><trkpt lat="44.1357181" lon="8.0925087"><ele>413.0</ele><time>2026-04-28T08:14:59.451Z</time></trkpt><trkpt lat="44.1357611" lon="8.0926517"><ele>405.0</ele><time>2026-04-28T08:15:00.452Z</time></trkpt><trkpt lat="44.1358079" lon="8.0927912"><ele>397.0</ele><time>2026-04-28T08:15:01.452Z</time></trkpt><trkpt lat="44.1358571" lon="8.0929043"><ele>389.0</ele><time>2026-04-28T08:15:02.452Z</time></trkpt><trkpt lat="44.1358852" lon="8.0930062"><ele>381.0</ele><time>2026-04-28T08:15:03.452Z</time></trkpt><trkpt lat="44.1359001" lon="8.093104"><ele>381.0</ele><time>2026-04-28T08:15:04.451Z</time></trkpt><trkpt lat="44.135915" lon="8.0931906"><ele>381.0</ele><time>2026-04-28T08:15:05.452Z</time></trkpt><trkpt lat="44.1359358" lon="8.0932778"><ele>381.0</ele><time>2026-04-28T08:15:06.452Z</time></trkpt><trkpt lat="44.1359841" lon="8.0933679"><ele>381.0</ele><time>2026-04-28T08:15:07.451Z</time></trkpt><trkpt lat="44.1360469" lon="8.093443"><ele>381.0</ele><time>2026-04-28T08:15:08.452Z</time></trkpt><trkpt lat="44.1361181" lon="8.0935182"><ele>381.0</ele><time>2026-04-28T08:15:09.452Z</time></trkpt><trkpt lat="44.1361877" lon="8.0935987"><ele>382.8333333333333</ele><time>2026-04-28T08:15:10.451Z</time></trkpt><trkpt lat="44.1362384" lon="8.0936762"><ele>384.66666666666663</ele><time>2026-04-28T08:15:11.451Z</time></trkpt><trkpt lat="44.1362935" lon="8.0938465"><ele>386.5</ele><time>2026-04-28T08:15:13.452Z</time></trkpt><trkpt lat="44.1363257" lon="8.0939421"><ele>388.3333333333333</ele><time>2026-04-28T08:15:14.452Z</time></trkpt><trkpt lat="44.1363421" lon="8.0940274"><ele>390.16666666666663</ele><time>2026-04-28T08:15:15.452Z</time></trkpt><trkpt lat="44.1363294" lon="8.0941633"><ele>392.0</ele><time>2026-04-28T08:15:17.452Z</time></trkpt><trkpt lat="44.1362746" lon="8.0943292"><ele>393.6</ele><time>2026-04-28T08:15:19.452Z</time></trkpt><trkpt lat="44.1362282" lon="8.0944228"><ele>395.20000000000005</ele><time>2026-04-28T08:15:20.452Z</time></trkpt><trkpt lat="44.136172" lon="8.0945333"><ele>396.8</ele><time>2026-04-28T08:15:21.451Z</time></trkpt><trkpt lat="44.1361161" lon="8.0946488"><ele>398.4</ele><time>2026-04-28T08:15:22.452Z</time></trkpt><trkpt lat="44.1360744" lon="8.0947571"><ele>400.0</ele><time>2026-04-28T08:15:23.451Z</time></trkpt><trkpt lat="44.136036" lon="8.094863"><ele>398.1666666666667</ele><time>2026-04-28T08:15:24.452Z</time></trkpt><trkpt lat="44.1360026" lon="8.0949636"><ele>396.33333333333337</ele><time>2026-04-28T08:15:25.452Z</time></trkpt><trkpt lat="44.1359752" lon="8.0950681"><ele>394.5</ele><time>2026-04-28T08:15:26.451Z</time></trkpt><trkpt lat="44.135951" lon="8.0951733"><ele>392.66666666666663</ele><time>2026-04-28T08:15:27.451Z</time></trkpt><trkpt lat="44.1359346" lon="8.0952626"><ele>390.8333333333333</ele><time>2026-04-28T08:15:28.452Z</time></trkpt><trkpt lat="44.1358484" lon="8.0953866"><ele>389.0</ele><time>2026-04-28T08:15:30.451Z</time></trkpt><trkpt lat="44.1357883" lon="8.0954169"><ele>391.66666666666663</ele><time>2026-04-28T08:15:31.451Z</time></trkpt><trkpt lat="44.1357182" lon="8.0954402"><ele>394.3333333333333</ele><time>2026-04-28T08:15:32.452Z</time></trkpt><trkpt lat="44.135647" lon="8.0954811"><ele>397.0</ele><time>2026-04-28T08:15:33.451Z</time></trkpt><trkpt lat="44.135589" lon="8.0955276"><ele>399.66666666666663</ele><time>2026-04-28T08:15:34.451Z</time></trkpt><trkpt lat="44.135499" lon="8.0956016"><ele>402.3333333333333</ele><time>2026-04-28T08:15:36.451Z</time></trkpt><trkpt lat="44.1354705" lon="8.0957378"><ele>405.0</ele><time>2026-04-28T08:15:38.451Z</time></trkpt><trkpt lat="44.1354767" lon="8.0958257"><ele>404.99999999999994</ele><time>2026-04-28T08:15:39.45Z</time></trkpt><trkpt lat="44.135485" lon="8.0959291"><ele>405.0</ele><time>2026-04-28T08:15:40.451Z</time></trkpt><trkpt lat="44.1354795" lon="8.0960286"><ele>405.0</ele><time>2026-04-28T08:15:41.451Z</time></trkpt><trkpt lat="44.1354696" lon="8.0961169"><ele>405.0</ele><time>2026-04-28T08:15:42.452Z</time></trkpt><trkpt lat="44.1354421" lon="8.0962174"><ele>405.0</ele><time>2026-04-28T08:15:43.451Z</time></trkpt><trkpt lat="44.1354131" lon="8.0963077"><ele>404.99999999999994</ele><time>2026-04-28T08:15:44.451Z</time></trkpt><trkpt lat="44.1353846" lon="8.0964054"><ele>405.0</ele><time>2026-04-28T08:15:45.452Z</time></trkpt><trkpt lat="44.1353529" lon="8.0965365"><ele>402.0</ele><time>2026-04-28T08:15:46.452Z</time></trkpt><trkpt lat="44.1353224" lon="8.0966806"><ele>399.0</ele><time>2026-04-28T08:15:47.452Z</time></trkpt><trkpt lat="44.1352936" lon="8.0968241"><ele>396.0</ele><time>2026-04-28T08:15:48.452Z</time></trkpt><trkpt lat="44.1352496" lon="8.09696"><ele>393.0</ele><time>2026-04-28T08:15:49.452Z</time></trkpt><trkpt lat="44.1352061" lon="8.0970874"><ele>390.0</ele><time>2026-04-28T08:15:50.451Z</time></trkpt><trkpt lat="44.1351706" lon="8.0972084"><ele>390.0</ele><time>2026-04-28T08:15:51.451Z</time></trkpt><trkpt lat="44.1351424" lon="8.0973226"><ele>390.0</ele><time>2026-04-28T08:15:52.452Z</time></trkpt><trkpt lat="44.1351196" lon="8.097433"><ele>390.0</ele><time>2026-04-28T08:15:53.452Z</time></trkpt><trkpt lat="44.1350947" lon="8.0975277"><ele>390.0</ele><time>2026-04-28T08:15:54.452Z</time></trkpt><trkpt lat="44.1350244" lon="8.0976749"><ele>390.0</ele><time>2026-04-28T08:15:56.452Z</time></trkpt><trkpt lat="44.134973" lon="8.0977465"><ele>390.0</ele><time>2026-04-28T08:15:57.452Z</time></trkpt><trkpt lat="44.1349068" lon="8.0978264"><ele>391.8</ele><time>2026-04-28T08:15:58.452Z</time></trkpt><trkpt lat="44.1348373" lon="8.0979155"><ele>393.6</ele><time>2026-04-28T08:15:59.451Z</time></trkpt><trkpt lat="44.1347729" lon="8.0980273"><ele>395.4</ele><time>2026-04-28T08:16:00.452Z</time></trkpt><trkpt lat="44.1347172" lon="8.0981487"><ele>397.2</ele><time>2026-04-28T08:16:01.452Z</time></trkpt><trkpt lat="44.1346759" lon="8.0982666"><ele>399.0</ele><time>2026-04-28T08:16:02.452Z</time></trkpt><trkpt lat="44.1346413" lon="8.0983703"><ele>399.0</ele><time>2026-04-28T08:16:03.451Z</time></trkpt><trkpt lat="44.1345846" lon="8.0984957"><ele>399.0</ele><time>2026-04-28T08:16:05.451Z</time></trkpt><trkpt lat="44.1345004" lon="8.0985859"><ele>399.0</ele><time>2026-04-28T08:16:07.451Z</time></trkpt><trkpt lat="44.1343918" lon="8.0987099"><ele>399.0</ele><time>2026-04-28T08:16:09.451Z</time></trkpt><trkpt lat="44.1343246" lon="8.0988024"><ele>399.0</ele><time>2026-04-28T08:16:10.452Z</time></trkpt><trkpt lat="44.1342496" lon="8.0988988"><ele>399.0</ele><time>2026-04-28T08:16:11.451Z</time></trkpt><trkpt lat="44.1341806" lon="8.0989941"><ele>399.0</ele><time>2026-04-28T08:16:12.451Z</time></trkpt><trkpt lat="44.1341227" lon="8.0990815"><ele>399.0</ele><time>2026-04-28T08:16:13.452Z</time></trkpt><trkpt lat="44.134069" lon="8.0991722"><ele>399.0</ele><time>2026-04-28T08:16:14.451Z</time></trkpt><trkpt lat="44.134032" lon="8.0992771"><ele>399.0</ele><time>2026-04-28T08:16:15.451Z</time></trkpt><trkpt lat="44.1339883" lon="8.0993758"><ele>399.0</ele><time>2026-04-28T08:16:16.452Z</time></trkpt><trkpt lat="44.1339343" lon="8.0994739"><ele>401.6</ele><time>2026-04-28T08:16:17.452Z</time></trkpt><trkpt lat="44.133874" lon="8.0995708"><ele>404.2</ele><time>2026-04-28T08:16:18.452Z</time></trkpt><trkpt lat="44.1338134" lon="8.099662"><ele>406.8</ele><time>2026-04-28T08:16:19.452Z</time></trkpt><trkpt lat="44.1337466" lon="8.099752"><ele>409.40000000000003</ele><time>2026-04-28T08:16:20.452Z</time></trkpt><trkpt lat="44.1336809" lon="8.0998498"><ele>412.0</ele><time>2026-04-28T08:16:21.45Z</time></trkpt><trkpt lat="44.1336095" lon="8.0999437"><ele>412.6666666666667</ele><time>2026-04-28T08:16:22.451Z</time></trkpt><trkpt lat="44.1335689" lon="8.1000306"><ele>413.33333333333337</ele><time>2026-04-28T08:16:23.452Z</time></trkpt><trkpt lat="44.1335262" lon="8.1001013"><ele>414.0</ele><time>2026-04-28T08:16:24.451Z</time></trkpt><trkpt lat="44.1334624" lon="8.1001492"><ele>414.66666666666663</ele><time>2026-04-28T08:16:25.451Z</time></trkpt><trkpt lat="44.1333911" lon="8.1001962"><ele>415.3333333333333</ele><time>2026-04-28T08:16:26.452Z</time></trkpt><trkpt lat="44.1333055" lon="8.1002591"><ele>416.0</ele><time>2026-04-28T08:16:27.451Z</time></trkpt><trkpt lat="44.1332132" lon="8.1003213"><ele>416.0</ele><time>2026-04-28T08:16:28.452Z</time></trkpt><trkpt lat="44.1331211" lon="8.1003947"><ele>416.0</ele><time>2026-04-28T08:16:29.451Z</time></trkpt><trkpt lat="44.1330409" lon="8.1004665"><ele>416.0</ele><time>2026-04-28T08:16:30.451Z</time></trkpt><trkpt lat="44.1329653" lon="8.1005353"><ele>416.0</ele><time>2026-04-28T08:16:31.452Z</time></trkpt><trkpt lat="44.1329066" lon="8.1005871"><ele>416.0</ele><time>2026-04-28T08:16:32.451Z</time></trkpt><trkpt lat="44.1327952" lon="8.1006707"><ele>408.6</ele><time>2026-04-28T08:16:34.452Z</time></trkpt><trkpt lat="44.1327303" lon="8.1007844"><ele>401.20000000000005</ele><time>2026-04-28T08:16:36.451Z</time></trkpt><trkpt lat="44.132689" lon="8.1009549"><ele>393.79999999999995</ele><time>2026-04-28T08:16:38.452Z</time></trkpt><trkpt lat="44.1326611" lon="8.101038"><ele>386.4</ele><time>2026-04-28T08:16:39.452Z</time></trkpt><trkpt lat="44.1326137" lon="8.101137"><ele>379.0</ele><time>2026-04-28T08:16:40.452Z</time></trkpt><trkpt lat="44.132566" lon="8.1012402"><ele>379.0</ele><time>2026-04-28T08:16:41.451Z</time></trkpt><trkpt lat="44.1325065" lon="8.1013102"><ele>379.0</ele><time>2026-04-28T08:16:42.452Z</time></trkpt><trkpt lat="44.1324433" lon="8.101385"><ele>379.0</ele><time>2026-04-28T08:16:43.451Z</time></trkpt><trkpt lat="44.1323812" lon="8.1014583"><ele>379.0</ele><time>2026-04-28T08:16:44.452Z</time></trkpt><trkpt lat="44.1323131" lon="8.1015253"><ele>379.0</ele><time>2026-04-28T08:16:45.451Z</time></trkpt><trkpt lat="44.1322482" lon="8.1016068"><ele>379.0</ele><time>2026-04-28T08:16:46.451Z</time></trkpt><trkpt lat="44.132194" lon="8.1016964"><ele>382.8333333333333</ele><time>2026-04-28T08:16:47.451Z</time></trkpt><trkpt lat="44.1321413" lon="8.101792"><ele>386.66666666666663</ele><time>2026-04-28T08:16:48.451Z</time></trkpt><trkpt lat="44.1321013" lon="8.1018914"><ele>390.5</ele><time>2026-04-28T08:16:49.452Z</time></trkpt><trkpt lat="44.1320643" lon="8.1019865"><ele>394.3333333333333</ele><time>2026-04-28T08:16:50.452Z</time></trkpt><trkpt lat="44.1320309" lon="8.1020854"><ele>398.1666666666667</ele><time>2026-04-28T08:16:51.452Z</time></trkpt><trkpt lat="44.1319947" lon="8.1021674"><ele>402.0</ele><time>2026-04-28T08:16:52.452Z</time></trkpt><trkpt lat="44.1319451" lon="8.102263"><ele>402.0</ele><time>2026-04-28T08:16:53.45Z</time></trkpt><trkpt lat="44.1318781" lon="8.102337"><ele>402.0</ele><time>2026-04-28T08:16:54.452Z</time></trkpt><trkpt lat="44.1318342" lon="8.1024282"><ele>402.0</ele><time>2026-04-28T08:16:55.452Z</time></trkpt><trkpt lat="44.13177" lon="8.1024971"><ele>402.0</ele><time>2026-04-28T08:16:56.451Z</time></trkpt><trkpt lat="44.1317075" lon="8.1025572"><ele>402.0</ele><time>2026-04-28T08:16:57.451Z</time></trkpt><trkpt lat="44.1316491" lon="8.1026108"><ele>402.0</ele><time>2026-04-28T08:16:58.451Z</time></trkpt><trkpt lat="44.1315798" lon="8.1026763"><ele>401.8333333333333</ele><time>2026-04-28T08:16:59.452Z</time></trkpt><trkpt lat="44.1315198" lon="8.1027359"><ele>401.66666666666663</ele><time>2026-04-28T08:17:00.452Z</time></trkpt><trkpt lat="44.1314551" lon="8.1028055"><ele>401.5</ele><time>2026-04-28T08:17:01.451Z</time></trkpt><trkpt lat="44.1313795" lon="8.1028564"><ele>401.3333333333333</ele><time>2026-04-28T08:17:02.451Z</time></trkpt><trkpt lat="44.1313071" lon="8.102908"><ele>401.16666666666663</ele><time>2026-04-28T08:17:03.451Z</time></trkpt><trkpt lat="44.1312348" lon="8.1029672"><ele>401.0</ele><time>2026-04-28T08:17:04.452Z</time></trkpt><trkpt lat="44.13116" lon="8.1030079"><ele>400.99999999999994</ele><time>2026-04-28T08:17:05.451Z</time></trkpt><trkpt lat="44.131086" lon="8.1030684"><ele>401.0</ele><time>2026-04-28T08:17:06.452Z</time></trkpt><trkpt lat="44.1310394" lon="8.1031463"><ele>401.0</ele><time>2026-04-28T08:17:07.452Z</time></trkpt><trkpt lat="44.1309905" lon="8.1032364"><ele>401.0</ele><time>2026-04-28T08:17:08.451Z</time></trkpt><trkpt lat="44.1309619" lon="8.1033194"><ele>400.99999999999994</ele><time>2026-04-28T08:17:09.452Z</time></trkpt><trkpt lat="44.130883" lon="8.1034585"><ele>401.0</ele><time>2026-04-28T08:17:11.451Z</time></trkpt><trkpt lat="44.1308185" lon="8.1035371"><ele>401.0</ele><time>2026-04-28T08:17:12.451Z</time></trkpt><trkpt lat="44.1307552" lon="8.103636"><ele>401.0</ele><time>2026-04-28T08:17:13.451Z</time></trkpt><trkpt lat="44.1306989" lon="8.1037301"><ele>401.0</ele><time>2026-04-28T08:17:14.452Z</time></trkpt><trkpt lat="44.1306444" lon="8.1038205"><ele>401.0</ele><time>2026-04-28T08:17:15.452Z</time></trkpt><trkpt lat="44.1306026" lon="8.1038913"><ele>401.0</ele><time>2026-04-28T08:17:16.452Z</time></trkpt><trkpt lat="44.1305048" lon="8.1039837"><ele>400.99999999999994</ele><time>2026-04-28T08:17:18.451Z</time></trkpt><trkpt lat="44.1304353" lon="8.1039922"><ele>401.0</ele><time>2026-04-28T08:17:19.452Z</time></trkpt><trkpt lat="44.1303639" lon="8.1040182"><ele>401.0</ele><time>2026-04-28T08:17:20.452Z</time></trkpt><trkpt lat="44.1302744" lon="8.1040407"><ele>401.0</ele><time>2026-04-28T08:17:21.451Z</time></trkpt><trkpt lat="44.1301861" lon="8.1040633"><ele>400.99999999999994</ele><time>2026-04-28T08:17:22.452Z</time></trkpt><trkpt lat="44.1300927" lon="8.104089"><ele>401.0</ele><time>2026-04-28T08:17:23.452Z</time></trkpt><trkpt lat="44.1299959" lon="8.1041032"><ele>400.6</ele><time>2026-04-28T08:17:24.451Z</time></trkpt><trkpt lat="44.1299019" lon="8.1041194"><ele>400.20000000000005</ele><time>2026-04-28T08:17:25.452Z</time></trkpt><trkpt lat="44.1298145" lon="8.1041451"><ele>399.79999999999995</ele><time>2026-04-28T08:17:26.452Z</time></trkpt><trkpt lat="44.1297315" lon="8.1041947"><ele>399.4</ele><time>2026-04-28T08:17:27.451Z</time></trkpt><trkpt lat="44.1296688" lon="8.1042393"><ele>399.0</ele><time>2026-04-28T08:17:28.452Z</time></trkpt><trkpt lat="44.1295891" lon="8.1043508"><ele>399.0</ele><time>2026-04-28T08:17:30.451Z</time></trkpt><trkpt lat="44.1294916" lon="8.1044418"><ele>399.0</ele><time>2026-04-28T08:17:32.451Z</time></trkpt><trkpt lat="44.1294266" lon="8.1044693"><ele>399.0</ele><time>2026-04-28T08:17:33.451Z</time></trkpt><trkpt lat="44.1293531" lon="8.1044888"><ele>399.0</ele><time>2026-04-28T08:17:34.452Z</time></trkpt><trkpt lat="44.1292779" lon="8.1045041"><ele>399.0</ele><time>2026-04-28T08:17:35.452Z</time></trkpt><trkpt lat="44.1291962" lon="8.1045221"><ele>399.0</ele><time>2026-04-28T08:17:36.452Z</time></trkpt><trkpt lat="44.1291111" lon="8.1045425"><ele>399.0</ele><time>2026-04-28T08:17:37.451Z</time></trkpt><trkpt lat="44.1290393" lon="8.1045499"><ele>399.0</ele><time>2026-04-28T08:17:38.452Z</time></trkpt><trkpt lat="44.128914" lon="8.1045225"><ele>399.0</ele><time>2026-04-28T08:17:40.452Z</time></trkpt><trkpt lat="44.128841" lon="8.1044928"><ele>399.0</ele><time>2026-04-28T08:17:41.45Z</time></trkpt><trkpt lat="44.128764" lon="8.1044692"><ele>399.0</ele><time>2026-04-28T08:17:42.452Z</time></trkpt><trkpt lat="44.1286879" lon="8.1044698"><ele>399.0</ele><time>2026-04-28T08:17:43.451Z</time></trkpt><trkpt lat="44.1286079" lon="8.104496"><ele>399.0</ele><time>2026-04-28T08:17:44.451Z</time></trkpt><trkpt lat="44.1285209" lon="8.1045157"><ele>399.0</ele><time>2026-04-28T08:17:45.451Z</time></trkpt><trkpt lat="44.1284413" lon="8.1045151"><ele>399.0</ele><time>2026-04-28T08:17:46.452Z</time></trkpt><trkpt lat="44.1283708" lon="8.104498"><ele>399.0</ele><time>2026-04-28T08:17:47.451Z</time></trkpt><trkpt lat="44.1282903" lon="8.1044853"><ele>399.0</ele><time>2026-04-28T08:17:48.45Z</time></trkpt><trkpt lat="44.1282075" lon="8.104495"><ele>399.0</ele><time>2026-04-28T08:17:49.45Z</time></trkpt><trkpt lat="44.1281304" lon="8.1045288"><ele>397.2</ele><time>2026-04-28T08:17:50.451Z</time></trkpt><trkpt lat="44.128072" lon="8.1045805"><ele>395.4</ele><time>2026-04-28T08:17:51.451Z</time></trkpt><trkpt lat="44.1279806" lon="8.1046025"><ele>393.6</ele><time>2026-04-28T08:17:53.451Z</time></trkpt><trkpt lat="44.1279131" lon="8.1045065"><ele>391.8</ele><time>2026-04-28T08:17:55.452Z</time></trkpt><trkpt lat="44.127859" lon="8.1043408"><ele>390.0</ele><time>2026-04-28T08:17:57.451Z</time></trkpt><trkpt lat="44.1278348" lon="8.1042555"><ele>390.0</ele><time>2026-04-28T08:17:58.452Z</time></trkpt><trkpt lat="44.127752" lon="8.104144"><ele>390.0</ele><time>2026-04-28T08:18:00.451Z</time></trkpt><trkpt lat="44.1276867" lon="8.1041142"><ele>390.0</ele><time>2026-04-28T08:18:01.451Z</time></trkpt><trkpt lat="44.1276081" lon="8.104083"><ele>390.0</ele><time>2026-04-28T08:18:02.451Z</time></trkpt><trkpt lat="44.1275251" lon="8.104047"><ele>390.0</ele><time>2026-04-28T08:18:03.452Z</time></trkpt><trkpt lat="44.1274432" lon="8.1040097"><ele>390.0</ele><time>2026-04-28T08:18:04.451Z</time></trkpt><trkpt lat="44.1273691" lon="8.1039625"><ele>388.3333333333333</ele><time>2026-04-28T08:18:05.452Z</time></trkpt><trkpt lat="44.1273018" lon="8.1038964"><ele>386.6666666666667</ele><time>2026-04-28T08:18:06.451Z</time></trkpt><trkpt lat="44.1272476" lon="8.1038318"><ele>385.0</ele><time>2026-04-28T08:18:07.451Z</time></trkpt><trkpt lat="44.1272027" lon="8.1037547"><ele>383.33333333333337</ele><time>2026-04-28T08:18:08.451Z</time></trkpt><trkpt lat="44.1271631" lon="8.1036571"><ele>381.6666666666667</ele><time>2026-04-28T08:18:09.452Z</time></trkpt><trkpt lat="44.1271204" lon="8.1035621"><ele>380.0</ele><time>2026-04-28T08:18:10.451Z</time></trkpt><trkpt lat="44.1270765" lon="8.1034745"><ele>380.0</ele><time>2026-04-28T08:18:11.452Z</time></trkpt><trkpt lat="44.1270392" lon="8.1033874"><ele>380.0</ele><time>2026-04-28T08:18:12.452Z</time></trkpt><trkpt lat="44.127002" lon="8.1032987"><ele>380.0</ele><time>2026-04-28T08:18:13.451Z</time></trkpt><trkpt lat="44.1269531" lon="8.1032306"><ele>380.0</ele><time>2026-04-28T08:18:14.452Z</time></trkpt><trkpt lat="44.1268949" lon="8.1031814"><ele>380.0</ele><time>2026-04-28T08:18:15.451Z</time></trkpt><trkpt lat="44.1268288" lon="8.1031393"><ele>380.0</ele><time>2026-04-28T08:18:16.451Z</time></trkpt><trkpt lat="44.1267614" lon="8.1030947"><ele>380.0</ele><time>2026-04-28T08:18:17.452Z</time></trkpt><trkpt lat="44.1266967" lon="8.1030328"><ele>382.0</ele><time>2026-04-28T08:18:18.451Z</time></trkpt><trkpt lat="44.1266328" lon="8.102959"><ele>384.0</ele><time>2026-04-28T08:18:19.452Z</time></trkpt><trkpt lat="44.1265834" lon="8.1028927"><ele>386.0</ele><time>2026-04-28T08:18:20.452Z</time></trkpt><trkpt lat="44.1265171" lon="8.1027763"><ele>388.0</ele><time>2026-04-28T08:18:22.451Z</time></trkpt><trkpt lat="44.1265045" lon="8.1026158"><ele>390.0</ele><time>2026-04-28T08:18:24.452Z</time></trkpt><trkpt lat="44.1265202" lon="8.1025072"><ele>390.8</ele><time>2026-04-28T08:18:25.451Z</time></trkpt><trkpt lat="44.1265439" lon="8.1023924"><ele>391.6</ele><time>2026-04-28T08:18:26.451Z</time></trkpt><trkpt lat="44.1265767" lon="8.102282"><ele>392.4</ele><time>2026-04-28T08:18:27.451Z</time></trkpt><trkpt lat="44.1266119" lon="8.1021905"><ele>393.2</ele><time>2026-04-28T08:18:28.452Z</time></trkpt><trkpt lat="44.1266546" lon="8.1020408"><ele>394.0</ele><time>2026-04-28T08:18:30.451Z</time></trkpt><trkpt lat="44.1266283" lon="8.1019017"><ele>394.0</ele><time>2026-04-28T08:18:32.451Z</time></trkpt><trkpt lat="44.1265929" lon="8.1017739"><ele>394.0</ele><time>2026-04-28T08:18:34.451Z</time></trkpt><trkpt lat="44.1265454" lon="8.1016469"><ele>394.0</ele><time>2026-04-28T08:18:36.452Z</time></trkpt><trkpt lat="44.1264774" lon="8.1015413"><ele>394.0</ele><time>2026-04-28T08:18:38.45Z</time></trkpt><trkpt lat="44.1264094" lon="8.1014287"><ele>394.0</ele><time>2026-04-28T08:18:40.452Z</time></trkpt><trkpt lat="44.1263518" lon="8.1013886"><ele>390.0</ele><time>2026-04-28T08:18:42.452Z</time></trkpt><trkpt lat="44.1263041" lon="8.1014874"><ele>386.0</ele><time>2026-04-28T08:18:45.45Z</time></trkpt><trkpt lat="44.1263548" lon="8.1016549"><ele>382.0</ele><time>2026-04-28T08:18:47.452Z</time></trkpt><trkpt lat="44.1263788" lon="8.1017405"><ele>378.0</ele><time>2026-04-28T08:18:48.451Z</time></trkpt><trkpt lat="44.1263739" lon="8.1019027"><ele>374.0</ele><time>2026-04-28T08:18:50.451Z</time></trkpt><trkpt lat="44.1263389" lon="8.1019805"><ele>371.0</ele><time>2026-04-28T08:18:51.451Z</time></trkpt><trkpt lat="44.1262893" lon="8.1020583"><ele>368.0</ele><time>2026-04-28T08:18:52.452Z</time></trkpt><trkpt lat="44.1262286" lon="8.1021463"><ele>365.0</ele><time>2026-04-28T08:18:53.451Z</time></trkpt><trkpt lat="44.1261696" lon="8.1022389"><ele>362.0</ele><time>2026-04-28T08:18:54.451Z</time></trkpt><trkpt lat="44.126121" lon="8.1023147"><ele>359.0</ele><time>2026-04-28T08:18:55.451Z</time></trkpt><trkpt lat="44.1260752" lon="8.1023796"><ele>356.0</ele><time>2026-04-28T08:18:56.451Z</time></trkpt><trkpt lat="44.1260354" lon="8.1024502"><ele>355.85714285714283</ele><time>2026-04-28T08:18:57.452Z</time></trkpt><trkpt lat="44.1260001" lon="8.1025319"><ele>355.7142857142857</ele><time>2026-04-28T08:18:58.452Z</time></trkpt><trkpt lat="44.1259719" lon="8.102626"><ele>355.57142857142856</ele><time>2026-04-28T08:18:59.452Z</time></trkpt><trkpt lat="44.1259531" lon="8.1027164"><ele>355.42857142857144</ele><time>2026-04-28T08:19:00.452Z</time></trkpt><trkpt lat="44.1259633" lon="8.1028386"><ele>355.2857142857143</ele><time>2026-04-28T08:19:02.452Z</time></trkpt><trkpt lat="44.1259739" lon="8.102928"><ele>355.1428571428571</ele><time>2026-04-28T08:19:05.451Z</time></trkpt><trkpt lat="44.1259004" lon="8.1029138"><ele>355.0</ele><time>2026-04-28T08:19:07.452Z</time></trkpt><trkpt lat="44.1258501" lon="8.1028175"><ele>355.0</ele><time>2026-04-28T08:19:09.452Z</time></trkpt><trkpt lat="44.1258336" lon="8.1027136"><ele>355.0</ele><time>2026-04-28T08:19:11.451Z</time></trkpt><trkpt lat="44.1258459" lon="8.1026029"><ele>355.0</ele><time>2026-04-28T08:19:13.452Z</time></trkpt><trkpt lat="44.1258783" lon="8.10245"><ele>355.0</ele><time>2026-04-28T08:19:15.451Z</time></trkpt><trkpt lat="44.1259285" lon="8.1022983"><ele>355.0</ele><time>2026-04-28T08:19:17.452Z</time></trkpt><trkpt lat="44.125964" lon="8.1021491"><ele>355.2</ele><time>2026-04-28T08:19:19.451Z</time></trkpt><trkpt lat="44.1259899" lon="8.1019757"><ele>355.4</ele><time>2026-04-28T08:19:21.45Z</time></trkpt><trkpt lat="44.1260316" lon="8.101858"><ele>355.6</ele><time>2026-04-28T08:19:23.452Z</time></trkpt><trkpt lat="44.1260165" lon="8.1017593"><ele>355.8</ele><time>2026-04-28T08:19:25.452Z</time></trkpt><trkpt lat="44.1260095" lon="8.1016708"><ele>356.0</ele><time>2026-04-28T08:19:26.451Z</time></trkpt><trkpt lat="44.1260047" lon="8.1015312"><ele>359.0</ele><time>2026-04-28T08:19:28.45Z</time></trkpt><trkpt lat="44.1259896" lon="8.1014165"><ele>362.0</ele><time>2026-04-28T08:19:29.452Z</time></trkpt><trkpt lat="44.1259721" lon="8.1013076"><ele>365.0</ele><time>2026-04-28T08:19:30.452Z</time></trkpt><trkpt lat="44.1259625" lon="8.1011955"><ele>368.0</ele><time>2026-04-28T08:19:31.452Z</time></trkpt><trkpt lat="44.125949" lon="8.1010905"><ele>371.0</ele><time>2026-04-28T08:19:32.451Z</time></trkpt><trkpt lat="44.1259091" lon="8.1009378"><ele>374.0</ele><time>2026-04-28T08:19:34.451Z</time></trkpt><trkpt lat="44.1258397" lon="8.1009189"><ele>374.0</ele><time>2026-04-28T08:19:36.452Z</time></trkpt><trkpt lat="44.1257411" lon="8.100928"><ele>374.0</ele><time>2026-04-28T08:19:38.452Z</time></trkpt><trkpt lat="44.1256465" lon="8.1009642"><ele>374.0</ele><time>2026-04-28T08:19:40.452Z</time></trkpt><trkpt lat="44.1255707" lon="8.1009951"><ele>374.0</ele><time>2026-04-28T08:19:42.451Z</time></trkpt><trkpt lat="44.1254783" lon="8.1010495"><ele>374.0</ele><time>2026-04-28T08:19:44.452Z</time></trkpt><trkpt lat="44.1253921" lon="8.101122"><ele>374.5</ele><time>2026-04-28T08:19:46.451Z</time></trkpt><trkpt lat="44.1253325" lon="8.1011815"><ele>375.0</ele><time>2026-04-28T08:19:48.451Z</time></trkpt><trkpt lat="44.1252457" lon="8.1012636"><ele>375.5</ele><time>2026-04-28T08:19:50.451Z</time></trkpt><trkpt lat="44.1251874" lon="8.1013351"><ele>376.0</ele><time>2026-04-28T08:19:52.452Z</time></trkpt><trkpt lat="44.1251371" lon="8.1013958"><ele>376.5</ele><time>2026-04-28T08:19:54.452Z</time></trkpt><trkpt lat="44.1250785" lon="8.101472"><ele>377.0</ele><time>2026-04-28T08:19:56.451Z</time></trkpt><trkpt lat="44.1250187" lon="8.1015136"><ele>376.99999999999994</ele><time>2026-04-28T08:19:58.45Z</time></trkpt><trkpt lat="44.1249375" lon="8.1015566"><ele>377.0</ele><time>2026-04-28T08:20:01.452Z</time></trkpt><trkpt lat="44.1248677" lon="8.1016158"><ele>377.0</ele><time>2026-04-28T08:20:04.451Z</time></trkpt><trkpt lat="44.1248131" lon="8.1016726"><ele>377.0</ele><time>2026-04-28T08:20:07.452Z</time></trkpt><trkpt lat="44.1247582" lon="8.101733"><ele>377.0</ele><time>2026-04-28T08:20:10.451Z</time></trkpt><trkpt lat="44.1247008" lon="8.1017733"><ele>376.99999999999994</ele><time>2026-04-28T08:20:12.451Z</time></trkpt><trkpt lat="44.1246396" lon="8.1018243"><ele>377.0</ele><time>2026-04-28T08:20:14.45Z</time></trkpt><trkpt lat="44.1245937" lon="8.1018923"><ele>371.0</ele><time>2026-04-28T08:20:17.452Z</time></trkpt><trkpt lat="44.1246401" lon="8.1019962"><ele>365.0</ele><time>2026-04-28T08:20:23.452Z</time></trkpt><trkpt lat="44.1247079" lon="8.1020436"><ele>359.0</ele><time>2026-04-28T08:20:26.452Z</time></trkpt><trkpt lat="44.1247702" lon="8.1020701"><ele>353.0</ele><time>2026-04-28T08:20:28.451Z</time></trkpt><trkpt lat="44.1248528" lon="8.1020813"><ele>347.0</ele><time>2026-04-28T08:20:31.459Z</time></trkpt><trkpt lat="44.1249372" lon="8.1020748"><ele>341.0</ele><time>2026-04-28T08:20:34.451Z</time></trkpt><trkpt lat="44.1250088" lon="8.1020925"><ele>341.0</ele><time>2026-04-28T08:20:35.452Z</time></trkpt><trkpt lat="44.1250574" lon="8.1021837"><ele>341.0</ele><time>2026-04-28T08:20:37.452Z</time></trkpt><trkpt lat="44.1250743" lon="8.1023025"><ele>341.0</ele><time>2026-04-28T08:20:39.451Z</time></trkpt><trkpt lat="44.1250112" lon="8.102312"><ele>341.0</ele><time>2026-04-28T08:20:40.452Z</time></trkpt><trkpt lat="44.1249355" lon="8.102296"><ele>341.0</ele><time>2026-04-28T08:20:43.452Z</time></trkpt><trkpt lat="44.1248672" lon="8.1022919"><ele>341.0</ele><time>2026-04-28T08:20:46.41Z</time></trkpt><trkpt lat="44.1248041" lon="8.1023261"><ele>341.0</ele><time>2026-04-28T08:20:49.452Z</time></trkpt><trkpt lat="44.1247533" lon="8.1023829"><ele>336.5</ele><time>2026-04-28T08:20:52.452Z</time></trkpt><trkpt lat="44.124703" lon="8.102437"><ele>332.0</ele><time>2026-04-28T08:20:55.47Z</time></trkpt><trkpt lat="44.1246326" lon="8.1024595"><ele>327.5</ele><time>2026-04-28T08:21:01.462Z</time></trkpt><trkpt lat="44.1245817" lon="8.1025654"><ele>323.0</ele><time>2026-04-28T08:21:25.451Z</time></trkpt><trkpt lat="44.1245448" lon="8.1026734"><ele>318.5</ele><time>2026-04-28T08:21:27.452Z</time></trkpt><trkpt lat="44.1245139" lon="8.102789"><ele>314.0</ele><time>2026-04-28T08:21:29.452Z</time></trkpt><trkpt lat="44.124483" lon="8.1029026"><ele>314.0</ele><time>2026-04-28T08:21:31.452Z</time></trkpt><trkpt lat="44.1244651" lon="8.1030034"><ele>314.0</ele><time>2026-04-28T08:21:33.451Z</time></trkpt><trkpt lat="44.1244619" lon="8.10314"><ele>314.0</ele><time>2026-04-28T08:21:36.451Z</time></trkpt><trkpt lat="44.1244465" lon="8.1032308"><ele>314.0</ele><time>2026-04-28T08:21:38.452Z</time></trkpt><trkpt lat="44.1243811" lon="8.1033203"><ele>314.0</ele><time>2026-04-28T08:21:40.452Z</time></trkpt><trkpt lat="44.1243075" lon="8.1033777"><ele>314.0</ele><time>2026-04-28T08:21:42.452Z</time></trkpt><trkpt lat="44.1242335" lon="8.1033998"><ele>310.59999999999997</ele><time>2026-04-28T08:21:44.451Z</time></trkpt><trkpt lat="44.1241765" lon="8.1034379"><ele>307.2</ele><time>2026-04-28T08:21:47.451Z</time></trkpt><trkpt lat="44.1241762" lon="8.1035774"><ele>303.79999999999995</ele><time>2026-04-28T08:21:51.452Z</time></trkpt><trkpt lat="44.1242113" lon="8.1036837"><ele>300.4</ele><time>2026-04-28T08:21:52.452Z</time></trkpt><trkpt lat="44.1242393" lon="8.1038563"><ele>297.0</ele><time>2026-04-28T08:21:54.451Z</time></trkpt><trkpt lat="44.1242745" lon="8.1039536"><ele>297.0</ele><time>2026-04-28T08:21:55.452Z</time></trkpt><trkpt lat="44.1242772" lon="8.1040564"><ele>297.0</ele><time>2026-04-28T08:21:56.452Z</time></trkpt><trkpt lat="44.1242798" lon="8.1041616"><ele>297.0</ele><time>2026-04-28T08:21:57.451Z</time></trkpt><trkpt lat="44.1242861" lon="8.1042685"><ele>297.0</ele><time>2026-04-28T08:21:58.451Z</time></trkpt><trkpt lat="44.1242903" lon="8.1043762"><ele>297.0</ele><time>2026-04-28T08:21:59.451Z</time></trkpt><trkpt lat="44.1242994" lon="8.104478"><ele>297.0</ele><time>2026-04-28T08:22:00.452Z</time></trkpt><trkpt lat="44.1243234" lon="8.1045643"><ele>297.0</ele><time>2026-04-28T08:22:01.451Z</time></trkpt><trkpt lat="44.1243309" lon="8.1046517"><ele>296.57142857142856</ele><time>2026-04-28T08:22:02.451Z</time></trkpt><trkpt lat="44.1243231" lon="8.1047425"><ele>296.14285714285717</ele><time>2026-04-28T08:22:03.451Z</time></trkpt><trkpt lat="44.1243027" lon="8.1048358"><ele>295.7142857142857</ele><time>2026-04-28T08:22:04.452Z</time></trkpt><trkpt lat="44.1242759" lon="8.1049281"><ele>295.2857142857143</ele><time>2026-04-28T08:22:05.452Z</time></trkpt><trkpt lat="44.1242736" lon="8.1050389"><ele>294.8571428571429</ele><time>2026-04-28T08:22:06.452Z</time></trkpt><trkpt lat="44.1242874" lon="8.1051465"><ele>294.42857142857144</ele><time>2026-04-28T08:22:07.452Z</time></trkpt><trkpt lat="44.1242889" lon="8.1052545"><ele>294.0</ele><time>2026-04-28T08:22:08.451Z</time></trkpt><trkpt lat="44.1242831" lon="8.1053626"><ele>294.0</ele><time>2026-04-28T08:22:09.45Z</time></trkpt><trkpt lat="44.1242654" lon="8.105481"><ele>294.0</ele><time>2026-04-28T08:22:10.452Z</time></trkpt><trkpt lat="44.1242547" lon="8.1056054"><ele>294.0</ele><time>2026-04-28T08:22:11.451Z</time></trkpt><trkpt lat="44.1242516" lon="8.1057385"><ele>294.0</ele><time>2026-04-28T08:22:12.451Z</time></trkpt><trkpt lat="44.1242526" lon="8.1058728"><ele>294.0</ele><time>2026-04-28T08:22:13.452Z</time></trkpt><trkpt lat="44.1242597" lon="8.1060021"><ele>293.0</ele><time>2026-04-28T08:22:14.452Z</time></trkpt><trkpt lat="44.1242611" lon="8.1061315"><ele>292.0</ele><time>2026-04-28T08:22:15.451Z</time></trkpt><trkpt lat="44.1242572" lon="8.1062554"><ele>291.0</ele><time>2026-04-28T08:22:16.451Z</time></trkpt><trkpt lat="44.1242585" lon="8.1063762"><ele>290.0</ele><time>2026-04-28T08:22:17.451Z</time></trkpt><trkpt lat="44.1242675" lon="8.1065033"><ele>289.0</ele><time>2026-04-28T08:22:18.452Z</time></trkpt><trkpt lat="44.1242678" lon="8.1066219"><ele>288.0</ele><time>2026-04-28T08:22:19.452Z</time></trkpt><trkpt lat="44.1242469" lon="8.1067389"><ele>287.3333333333333</ele><time>2026-04-28T08:22:20.452Z</time></trkpt><trkpt lat="44.1242095" lon="8.1068443"><ele>286.6666666666667</ele><time>2026-04-28T08:22:21.452Z</time></trkpt><trkpt lat="44.1241808" lon="8.1069343"><ele>286.0</ele><time>2026-04-28T08:22:22.452Z</time></trkpt><trkpt lat="44.1241675" lon="8.107022"><ele>285.33333333333337</ele><time>2026-04-28T08:22:23.452Z</time></trkpt><trkpt lat="44.1242123" lon="8.1071429"><ele>284.6666666666667</ele><time>2026-04-28T08:22:25.451Z</time></trkpt><trkpt lat="44.1243105" lon="8.1072545"><ele>284.0</ele><time>2026-04-28T08:22:27.452Z</time></trkpt><trkpt lat="44.1243721" lon="8.1073179"><ele>284.0</ele><time>2026-04-28T08:22:28.451Z</time></trkpt><trkpt lat="44.1244267" lon="8.107372"><ele>284.0</ele><time>2026-04-28T08:22:29.452Z</time></trkpt><trkpt lat="44.1244844" lon="8.1074297"><ele>284.0</ele><time>2026-04-28T08:22:30.451Z</time></trkpt><trkpt lat="44.1245425" lon="8.1075131"><ele>284.0</ele><time>2026-04-28T08:22:31.452Z</time></trkpt><trkpt lat="44.1245953" lon="8.107611"><ele>284.0</ele><time>2026-04-28T08:22:32.45Z</time></trkpt><trkpt lat="44.1246388" lon="8.1077074"><ele>284.0</ele><time>2026-04-28T08:22:33.451Z</time></trkpt><trkpt lat="44.1246645" lon="8.1078019"><ele>285.57142857142856</ele><time>2026-04-28T08:22:34.452Z</time></trkpt><trkpt lat="44.1246717" lon="8.1078986"><ele>287.1428571428571</ele><time>2026-04-28T08:22:35.452Z</time></trkpt><trkpt lat="44.1246619" lon="8.1079955"><ele>288.7142857142857</ele><time>2026-04-28T08:22:36.452Z</time></trkpt><trkpt lat="44.1246429" lon="8.1080853"><ele>290.2857142857143</ele><time>2026-04-28T08:22:37.451Z</time></trkpt><trkpt lat="44.1246218" lon="8.1081759"><ele>291.8571428571429</ele><time>2026-04-28T08:22:38.452Z</time></trkpt><trkpt lat="44.1245972" lon="8.108271"><ele>293.42857142857144</ele><time>2026-04-28T08:22:39.452Z</time></trkpt><trkpt lat="44.1245643" lon="8.1083918"><ele>295.0</ele><time>2026-04-28T08:22:41.45Z</time></trkpt><trkpt lat="44.1246167" lon="8.1085074"><ele>296.6</ele><time>2026-04-28T08:28:35.452Z</time></trkpt><trkpt lat="44.1246017" lon="8.1086455"><ele>298.2</ele><time>2026-04-28T08:28:36.452Z</time></trkpt><trkpt lat="44.1245951" lon="8.1087955"><ele>299.8</ele><time>2026-04-28T08:28:37.452Z</time></trkpt><trkpt lat="44.1245928" lon="8.108929"><ele>301.4</ele><time>2026-04-28T08:28:38.451Z</time></trkpt><trkpt lat="44.1245996" lon="8.1090425"><ele>303.0</ele><time>2026-04-28T08:28:39.451Z</time></trkpt><trkpt lat="44.1246008" lon="8.1091432"><ele>303.0</ele><time>2026-04-28T08:28:40.451Z</time></trkpt><trkpt lat="44.1246029" lon="8.109233"><ele>303.0</ele><time>2026-04-28T08:28:41.452Z</time></trkpt><trkpt lat="44.1246164" lon="8.1093786"><ele>303.0</ele><time>2026-04-28T08:28:43.451Z</time></trkpt><trkpt lat="44.1246298" lon="8.1095213"><ele>303.0</ele><time>2026-04-28T08:28:45.451Z</time></trkpt><trkpt lat="44.1246839" lon="8.1096397"><ele>303.0</ele><time>2026-04-28T08:28:47.452Z</time></trkpt><trkpt lat="44.1247214" lon="8.1097781"><ele>301.2</ele><time>2026-04-28T08:28:49.451Z</time></trkpt><trkpt lat="44.1247651" lon="8.1099212"><ele>299.4</ele><time>2026-04-28T08:28:51.452Z</time></trkpt><trkpt lat="44.1248024" lon="8.1100506"><ele>297.59999999999997</ele><time>2026-04-28T08:28:53.452Z</time></trkpt><trkpt lat="44.1247942" lon="8.1101875"><ele>295.8</ele><time>2026-04-28T08:28:55.451Z</time></trkpt><trkpt lat="44.1247409" lon="8.1103402"><ele>294.0</ele><time>2026-04-28T08:28:57.452Z</time></trkpt><trkpt lat="44.124686" lon="8.1104863"><ele>294.0</ele><time>2026-04-28T08:28:59.451Z</time></trkpt><trkpt lat="44.1246605" lon="8.1105672"><ele>294.0</ele><time>2026-04-28T08:29:00.452Z</time></trkpt><trkpt lat="44.124618" lon="8.1106434"><ele>294.0</ele><time>2026-04-28T08:29:01.452Z</time></trkpt><trkpt lat="44.124565" lon="8.1107144"><ele>294.0</ele><time>2026-04-28T08:29:02.452Z</time></trkpt><trkpt lat="44.1245079" lon="8.1107779"><ele>294.0</ele><time>2026-04-28T08:29:03.45Z</time></trkpt><trkpt lat="44.1243976" lon="8.1108455"><ele>294.0</ele><time>2026-04-28T08:29:05.452Z</time></trkpt><trkpt lat="44.1242976" lon="8.1108855"><ele>287.5</ele><time>2026-04-28T08:29:07.452Z</time></trkpt><trkpt lat="44.1242112" lon="8.1109548"><ele>281.0</ele><time>2026-04-28T08:29:09.452Z</time></trkpt><trkpt lat="44.1241002" lon="8.1109977"><ele>274.5</ele><time>2026-04-28T08:29:11.45Z</time></trkpt><trkpt lat="44.1240325" lon="8.1110078"><ele>268.0</ele><time>2026-04-28T08:29:12.451Z</time></trkpt><trkpt lat="44.1239616" lon="8.111014"><ele>261.5</ele><time>2026-04-28T08:29:13.452Z</time></trkpt><trkpt lat="44.1238886" lon="8.1110251"><ele>255.0</ele><time>2026-04-28T08:29:14.452Z</time></trkpt><trkpt lat="44.1238229" lon="8.1110287"><ele>254.5</ele><time>2026-04-28T08:29:15.452Z</time></trkpt><trkpt lat="44.1237084" lon="8.1110105"><ele>254.0</ele><time>2026-04-28T08:29:17.452Z</time></trkpt><trkpt lat="44.1235954" lon="8.1110323"><ele>253.5</ele><time>2026-04-28T08:29:19.452Z</time></trkpt><trkpt lat="44.1234801" lon="8.1110035"><ele>253.0</ele><time>2026-04-28T08:29:21.451Z</time></trkpt><trkpt lat="44.1233608" lon="8.1109471"><ele>253.0</ele><time>2026-04-28T08:29:23.452Z</time></trkpt><trkpt lat="44.1232514" lon="8.1108822"><ele>253.0</ele><time>2026-04-28T08:29:25.452Z</time></trkpt><trkpt lat="44.1231287" lon="8.1108346"><ele>253.0</ele><time>2026-04-28T08:29:27.451Z</time></trkpt><trkpt lat="44.123006" lon="8.1108067"><ele>253.0</ele><time>2026-04-28T08:29:29.452Z</time></trkpt><trkpt lat="44.122938" lon="8.1107913"><ele>253.0</ele><time>2026-04-28T08:29:30.451Z</time></trkpt><trkpt lat="44.1228175" lon="8.1107493"><ele>253.4</ele><time>2026-04-28T08:29:32.452Z</time></trkpt><trkpt lat="44.1227054" lon="8.1107352"><ele>253.8</ele><time>2026-04-28T08:29:34.451Z</time></trkpt><trkpt lat="44.1226213" lon="8.1106931"><ele>254.2</ele><time>2026-04-28T08:29:36.451Z</time></trkpt><trkpt lat="44.1225153" lon="8.1106838"><ele>254.6</ele><time>2026-04-28T08:29:38.452Z</time></trkpt><trkpt lat="44.1224209" lon="8.110747"><ele>255.0</ele><time>2026-04-28T08:29:40.452Z</time></trkpt><trkpt lat="44.1223239" lon="8.1107306"><ele>255.0</ele><time>2026-04-28T08:29:42.451Z</time></trkpt><trkpt lat="44.1222322" lon="8.110725"><ele>255.0</ele><time>2026-04-28T08:29:44.452Z</time></trkpt><trkpt lat="44.1221309" lon="8.1107001"><ele>255.0</ele><time>2026-04-28T08:29:46.452Z</time></trkpt><trkpt lat="44.1220468" lon="8.1106845"><ele>255.0</ele><time>2026-04-28T08:29:48.451Z</time></trkpt><trkpt lat="44.1219588" lon="8.110758"><ele>255.0</ele><time>2026-04-28T08:29:50.451Z</time></trkpt><trkpt lat="44.1218662" lon="8.1108354"><ele>248.2</ele><time>2026-04-28T08:29:52.452Z</time></trkpt><trkpt lat="44.1217674" lon="8.1108971"><ele>241.4</ele><time>2026-04-28T08:29:54.451Z</time></trkpt><trkpt lat="44.1217036" lon="8.1109281"><ele>234.60000000000002</ele><time>2026-04-28T08:29:55.45Z</time></trkpt><trkpt lat="44.1215779" lon="8.1109161"><ele>227.8</ele><time>2026-04-28T08:29:57.452Z</time></trkpt><trkpt lat="44.1214648" lon="8.1108821"><ele>221.0</ele><time>2026-04-28T08:29:59.452Z</time></trkpt><trkpt lat="44.1213453" lon="8.1108494"><ele>220.8</ele><time>2026-04-28T08:30:01.45Z</time></trkpt><trkpt lat="44.1212352" lon="8.1108375"><ele>220.60000000000002</ele><time>2026-04-28T08:30:03.452Z</time></trkpt><trkpt lat="44.1211714" lon="8.1109347"><ele>220.4</ele><time>2026-04-28T08:30:05.451Z</time></trkpt><trkpt lat="44.1210738" lon="8.1109901"><ele>220.2</ele><time>2026-04-28T08:30:07.452Z</time></trkpt><trkpt lat="44.1209577" lon="8.1109631"><ele>220.0</ele><time>2026-04-28T08:30:09.451Z</time></trkpt><trkpt lat="44.1208712" lon="8.1108947"><ele>220.0</ele><time>2026-04-28T08:30:11.451Z</time></trkpt><trkpt lat="44.1208122" lon="8.1108446"><ele>220.0</ele><time>2026-04-28T08:30:13.451Z</time></trkpt><trkpt lat="44.1207474" lon="8.1108473"><ele>220.0</ele><time>2026-04-28T08:30:15.452Z</time></trkpt><trkpt lat="44.1206714" lon="8.1109698"><ele>220.0</ele><time>2026-04-28T08:30:18.452Z</time></trkpt><trkpt lat="44.1206065" lon="8.1111071"><ele>220.0</ele><time>2026-04-28T08:30:20.45Z</time></trkpt><trkpt lat="44.1205448" lon="8.1112083"><ele>218.49999999999997</ele><time>2026-04-28T08:30:22.452Z</time></trkpt><trkpt lat="44.120503" lon="8.1112739"><ele>217.0</ele><time>2026-04-28T08:30:25.451Z</time></trkpt><trkpt lat="44.1204853" lon="8.1113864"><ele>215.5</ele><time>2026-04-28T08:31:00.452Z</time></trkpt><trkpt lat="44.1204345" lon="8.1114978"><ele>214.0</ele><time>2026-04-28T08:31:02.451Z</time></trkpt><trkpt lat="44.1203694" lon="8.1116083"><ele>212.49999999999997</ele><time>2026-04-28T08:31:04.452Z</time></trkpt><trkpt lat="44.1203022" lon="8.1116538"><ele>211.0</ele><time>2026-04-28T08:31:07.451Z</time></trkpt><trkpt lat="44.1203577" lon="8.1115452"><ele>218.75</ele><time>2026-04-28T08:31:16.452Z</time></trkpt><trkpt lat="44.1204187" lon="8.1114347"><ele>226.5</ele><time>2026-04-28T08:31:18.452Z</time></trkpt><trkpt lat="44.1204924" lon="8.111326"><ele>234.25</ele><time>2026-04-28T08:31:20.451Z</time></trkpt><trkpt lat="44.1205475" lon="8.1112518"><ele>242.0</ele><time>2026-04-28T08:31:21.452Z</time></trkpt><trkpt lat="44.1206732" lon="8.1109968"><ele>237.6</ele><time>2026-04-28T08:31:24.452Z</time></trkpt><trkpt lat="44.1207389" lon="8.1109054"><ele>233.2</ele><time>2026-04-28T08:31:26.451Z</time></trkpt><trkpt lat="44.1208042" lon="8.1108293"><ele>228.8</ele><time>2026-04-28T08:31:29.452Z</time></trkpt><trkpt lat="44.1208655" lon="8.1108605"><ele>224.4</ele><time>2026-04-28T08:31:31.452Z</time></trkpt><trkpt lat="44.1209252" lon="8.1109221"><ele>220.0</ele><time>2026-04-28T08:31:34.465Z</time></trkpt><trkpt lat="44.1210564" lon="8.1109515"><ele>219.99999999999997</ele><time>2026-04-28T08:31:36.451Z</time></trkpt><trkpt lat="44.1211292" lon="8.1109278"><ele>220.0</ele><time>2026-04-28T08:31:37.451Z</time></trkpt><trkpt lat="44.1211846" lon="8.1108812"><ele>220.0</ele><time>2026-04-28T08:31:38.452Z</time></trkpt><trkpt lat="44.1212726" lon="8.1107912"><ele>220.0</ele><time>2026-04-28T08:31:40.451Z</time></trkpt><trkpt lat="44.1213675" lon="8.1107958"><ele>219.99999999999997</ele><time>2026-04-28T08:31:42.452Z</time></trkpt><trkpt lat="44.1214593" lon="8.1108218"><ele>220.0</ele><time>2026-04-28T08:31:44.451Z</time></trkpt><trkpt lat="44.1215268" lon="8.1108034"><ele>225.33333333333331</ele><time>2026-04-28T08:31:46.452Z</time></trkpt><trkpt lat="44.121447" lon="8.1107365"><ele>230.66666666666666</ele><time>2026-04-28T08:31:49.451Z</time></trkpt><trkpt lat="44.1213686" lon="8.1106763"><ele>236.0</ele><time>2026-04-28T08:31:50.45Z</time></trkpt><trkpt lat="44.1212877" lon="8.1106346"><ele>241.33333333333331</ele><time>2026-04-28T08:31:51.451Z</time></trkpt><trkpt lat="44.1212136" lon="8.1105953"><ele>246.66666666666666</ele><time>2026-04-28T08:31:52.452Z</time></trkpt><trkpt lat="44.1211446" lon="8.1105639"><ele>252.0</ele><time>2026-04-28T08:31:53.452Z</time></trkpt><trkpt lat="44.121069" lon="8.1104676"><ele>252.0</ele><time>2026-04-28T08:31:55.451Z</time></trkpt><trkpt lat="44.1209959" lon="8.1104033"><ele>252.0</ele><time>2026-04-28T08:31:59.452Z</time></trkpt><trkpt lat="44.1209554" lon="8.1103304"><ele>252.0</ele><time>2026-04-28T08:32:01.371Z</time></trkpt><trkpt lat="44.1208678" lon="8.1102936"><ele>252.0</ele><time>2026-04-28T08:32:04.452Z</time></trkpt><trkpt lat="44.1207992" lon="8.110277"><ele>252.0</ele><time>2026-04-28T08:32:06.452Z</time></trkpt><trkpt lat="44.1207354" lon="8.1102513"><ele>252.0</ele><time>2026-04-28T08:32:08.402Z</time></trkpt><trkpt lat="44.1206623" lon="8.1102147"><ele>258.3333333333333</ele><time>2026-04-28T08:32:10.451Z</time></trkpt><trkpt lat="44.1205903" lon="8.1102716"><ele>264.6666666666667</ele><time>2026-04-28T08:32:13.41Z</time></trkpt><trkpt lat="44.1205336" lon="8.11032"><ele>271.0</ele><time>2026-04-28T08:32:14.452Z</time></trkpt><trkpt lat="44.1204765" lon="8.1103696"><ele>277.33333333333337</ele><time>2026-04-28T08:32:15.452Z</time></trkpt><trkpt lat="44.1203763" lon="8.1104263"><ele>283.6666666666667</ele><time>2026-04-28T08:32:17.451Z</time></trkpt><trkpt lat="44.1202871" lon="8.1104653"><ele>290.0</ele><time>2026-04-28T08:32:19.451Z</time></trkpt><trkpt lat="44.1202331" lon="8.1105217"><ele>290.0</ele><time>2026-04-28T08:32:21.45Z</time></trkpt><trkpt lat="44.1201552" lon="8.1105233"><ele>290.0</ele><time>2026-04-28T08:32:24.452Z</time></trkpt><trkpt lat="44.1200873" lon="8.1105174"><ele>290.0</ele><time>2026-04-28T08:32:27.452Z</time></trkpt><trkpt lat="44.1200094" lon="8.1105368"><ele>290.0</ele><time>2026-04-28T08:32:30.403Z</time></trkpt><trkpt lat="44.1199459" lon="8.1105953"><ele>290.0</ele><time>2026-04-28T08:32:33.258Z</time></trkpt><trkpt lat="44.1198897" lon="8.1106562"><ele>290.0</ele><time>2026-04-28T08:32:35.452Z</time></trkpt><trkpt lat="44.1198032" lon="8.1107214"><ele>287.0</ele><time>2026-04-28T08:32:38.451Z</time></trkpt><trkpt lat="44.1197559" lon="8.1107817"><ele>284.0</ele><time>2026-04-28T08:32:40.44Z</time></trkpt><trkpt lat="44.1196901" lon="8.1108306"><ele>281.0</ele><time>2026-04-28T08:32:42.452Z</time></trkpt><trkpt lat="44.1196068" lon="8.1108481"><ele>278.0</ele><time>2026-04-28T08:32:44.452Z</time></trkpt><trkpt lat="44.1195106" lon="8.1108423"><ele>275.0</ele><time>2026-04-28T08:32:46.452Z</time></trkpt><trkpt lat="44.1194305" lon="8.1108515"><ele>272.0</ele><time>2026-04-28T08:32:48.452Z</time></trkpt><trkpt lat="44.1193568" lon="8.1108449"><ele>272.0</ele><time>2026-04-28T08:32:50.451Z</time></trkpt><trkpt lat="44.1192924" lon="8.1108955"><ele>272.0</ele><time>2026-04-28T08:32:52.474Z</time></trkpt><trkpt lat="44.1192215" lon="8.1109661"><ele>272.0</ele><time>2026-04-28T08:32:54.451Z</time></trkpt><trkpt lat="44.1191206" lon="8.1110709"><ele>272.0</ele><time>2026-04-28T08:32:56.451Z</time></trkpt><trkpt lat="44.1190597" lon="8.1111445"><ele>272.0</ele><time>2026-04-28T08:32:57.452Z</time></trkpt><trkpt lat="44.1190093" lon="8.1112064"><ele>272.0</ele><time>2026-04-28T08:32:58.452Z</time></trkpt><trkpt lat="44.1189072" lon="8.1112624"><ele>269.33333333333337</ele><time>2026-04-28T08:33:00.452Z</time></trkpt><trkpt lat="44.1188059" lon="8.1112426"><ele>266.6666666666667</ele><time>2026-04-28T08:33:02.451Z</time></trkpt><trkpt lat="44.1187265" lon="8.1111395"><ele>264.0</ele><time>2026-04-28T08:33:04.451Z</time></trkpt><trkpt lat="44.1186994" lon="8.1110501"><ele>261.3333333333333</ele><time>2026-04-28T08:33:05.45Z</time></trkpt><trkpt lat="44.1186887" lon="8.1109583"><ele>258.66666666666663</ele><time>2026-04-28T08:33:06.451Z</time></trkpt><trkpt lat="44.1186856" lon="8.1108683"><ele>256.0</ele><time>2026-04-28T08:33:07.451Z</time></trkpt><trkpt lat="44.1186791" lon="8.1107762"><ele>258.7142857142857</ele><time>2026-04-28T08:33:08.452Z</time></trkpt><trkpt lat="44.1186657" lon="8.1106827"><ele>261.4285714285714</ele><time>2026-04-28T08:33:09.452Z</time></trkpt><trkpt lat="44.1186461" lon="8.1105782"><ele>264.1428571428571</ele><time>2026-04-28T08:33:10.451Z</time></trkpt><trkpt lat="44.1186258" lon="8.11047"><ele>266.85714285714283</ele><time>2026-04-28T08:33:11.452Z</time></trkpt><trkpt lat="44.1186073" lon="8.1103682"><ele>269.57142857142856</ele><time>2026-04-28T08:33:12.452Z</time></trkpt><trkpt lat="44.1185869" lon="8.1102755"><ele>272.2857142857143</ele><time>2026-04-28T08:33:13.452Z</time></trkpt><trkpt lat="44.1185684" lon="8.1101912"><ele>275.0</ele><time>2026-04-28T08:33:14.451Z</time></trkpt><trkpt lat="44.1185453" lon="8.1101084"><ele>275.0</ele><time>2026-04-28T08:33:15.451Z</time></trkpt><trkpt lat="44.1185105" lon="8.1100344"><ele>275.0</ele><time>2026-04-28T08:33:16.451Z</time></trkpt><trkpt lat="44.1184653" lon="8.1099672"><ele>275.0</ele><time>2026-04-28T08:33:17.452Z</time></trkpt><trkpt lat="44.1184138" lon="8.1099091"><ele>275.0</ele><time>2026-04-28T08:33:18.452Z</time></trkpt><trkpt lat="44.1183693" lon="8.1098439"><ele>275.0</ele><time>2026-04-28T08:33:19.45Z</time></trkpt><trkpt lat="44.1183397" lon="8.1097635"><ele>275.0</ele><time>2026-04-28T08:33:20.45Z</time></trkpt><trkpt lat="44.1183358" lon="8.1096314"><ele>275.0</ele><time>2026-04-28T08:33:22.451Z</time></trkpt><trkpt lat="44.1183503" lon="8.1095399"><ele>276.2857142857143</ele><time>2026-04-28T08:33:23.452Z</time></trkpt><trkpt lat="44.1183659" lon="8.1094291"><ele>277.57142857142856</ele><time>2026-04-28T08:33:24.452Z</time></trkpt><trkpt lat="44.1183734" lon="8.1093281"><ele>278.85714285714283</ele><time>2026-04-28T08:33:25.451Z</time></trkpt><trkpt lat="44.1183733" lon="8.1092282"><ele>280.1428571428571</ele><time>2026-04-28T08:33:26.451Z</time></trkpt><trkpt lat="44.1183734" lon="8.1091305"><ele>281.4285714285714</ele><time>2026-04-28T08:33:27.451Z</time></trkpt><trkpt lat="44.1183678" lon="8.1090366"><ele>282.7142857142857</ele><time>2026-04-28T08:33:28.452Z</time></trkpt><trkpt lat="44.1183659" lon="8.1089428"><ele>284.0</ele><time>2026-04-28T08:33:29.452Z</time></trkpt><trkpt lat="44.1183752" lon="8.108853"><ele>284.0</ele><time>2026-04-28T08:33:30.452Z</time></trkpt><trkpt lat="44.1183942" lon="8.1087669"><ele>284.0</ele><time>2026-04-28T08:33:31.451Z</time></trkpt><trkpt lat="44.1184105" lon="8.108636"><ele>284.0</ele><time>2026-04-28T08:33:33.451Z</time></trkpt><trkpt lat="44.1184272" lon="8.1084633"><ele>284.0</ele><time>2026-04-28T08:33:35.452Z</time></trkpt><trkpt lat="44.1184344" lon="8.1083709"><ele>284.0</ele><time>2026-04-28T08:33:36.451Z</time></trkpt><trkpt lat="44.1184376" lon="8.108275"><ele>284.0</ele><time>2026-04-28T08:33:37.45Z</time></trkpt><trkpt lat="44.1184472" lon="8.1081733"><ele>284.0</ele><time>2026-04-28T08:33:38.451Z</time></trkpt><trkpt lat="44.1184563" lon="8.1080627"><ele>284.0</ele><time>2026-04-28T08:33:39.452Z</time></trkpt><trkpt lat="44.1184626" lon="8.1079435"><ele>284.0</ele><time>2026-04-28T08:33:40.451Z</time></trkpt><trkpt lat="44.1184666" lon="8.1078236"><ele>284.0</ele><time>2026-04-28T08:33:41.45Z</time></trkpt><trkpt lat="44.1184704" lon="8.1077133"><ele>284.0</ele><time>2026-04-28T08:33:42.451Z</time></trkpt><trkpt lat="44.1184676" lon="8.1076166"><ele>284.0</ele><time>2026-04-28T08:33:43.452Z</time></trkpt><trkpt lat="44.1184549" lon="8.1075188"><ele>284.0</ele><time>2026-04-28T08:33:44.452Z</time></trkpt><trkpt lat="44.1184254" lon="8.1074325"><ele>284.0</ele><time>2026-04-28T08:33:45.451Z</time></trkpt><trkpt lat="44.1183886" lon="8.107358"><ele>284.0</ele><time>2026-04-28T08:33:46.452Z</time></trkpt><trkpt lat="44.1183623" lon="8.1072719"><ele>284.0</ele><time>2026-04-28T08:33:47.451Z</time></trkpt><trkpt lat="44.1183425" lon="8.1071838"><ele>284.0</ele><time>2026-04-28T08:33:48.452Z</time></trkpt><trkpt lat="44.1183391" lon="8.1070938"><ele>284.0</ele><time>2026-04-28T08:33:49.452Z</time></trkpt><trkpt lat="44.1183484" lon="8.1070017"><ele>284.0</ele><time>2026-04-28T08:33:50.452Z</time></trkpt><trkpt lat="44.11837" lon="8.1069152"><ele>284.0</ele><time>2026-04-28T08:33:51.451Z</time></trkpt><trkpt lat="44.1184057" lon="8.1068194"><ele>284.0</ele><time>2026-04-28T08:33:52.452Z</time></trkpt><trkpt lat="44.1184446" lon="8.1067112"><ele>284.0</ele><time>2026-04-28T08:33:53.451Z</time></trkpt><trkpt lat="44.1184745" lon="8.1065915"><ele>284.0</ele><time>2026-04-28T08:33:54.451Z</time></trkpt><trkpt lat="44.1184951" lon="8.106472"><ele>284.0</ele><time>2026-04-28T08:33:55.452Z</time></trkpt><trkpt lat="44.1185097" lon="8.106372"><ele>284.0</ele><time>2026-04-28T08:33:56.452Z</time></trkpt><trkpt lat="44.1185394" lon="8.1062829"><ele>284.0</ele><time>2026-04-28T08:33:57.451Z</time></trkpt><trkpt lat="44.1185867" lon="8.10619"><ele>284.0</ele><time>2026-04-28T08:33:58.452Z</time></trkpt><trkpt lat="44.1186397" lon="8.106098"><ele>284.0</ele><time>2026-04-28T08:33:59.452Z</time></trkpt><trkpt lat="44.1186973" lon="8.1060197"><ele>284.0</ele><time>2026-04-28T08:34:00.451Z</time></trkpt><trkpt lat="44.1187442" lon="8.1059537"><ele>284.0</ele><time>2026-04-28T08:34:01.451Z</time></trkpt><trkpt lat="44.1187875" lon="8.1058856"><ele>284.0</ele><time>2026-04-28T08:34:02.452Z</time></trkpt><trkpt lat="44.1188288" lon="8.1058021"><ele>286.4</ele><time>2026-04-28T08:34:03.451Z</time></trkpt><trkpt lat="44.1188656" lon="8.1057228"><ele>288.79999999999995</ele><time>2026-04-28T08:34:04.452Z</time></trkpt><trkpt lat="44.1189293" lon="8.1055911"><ele>291.20000000000005</ele><time>2026-04-28T08:34:06.451Z</time></trkpt><trkpt lat="44.1189757" lon="8.1054563"><ele>293.6</ele><time>2026-04-28T08:34:08.451Z</time></trkpt><trkpt lat="44.1189953" lon="8.1052845"><ele>296.0</ele><time>2026-04-28T08:34:10.451Z</time></trkpt><trkpt lat="44.1189964" lon="8.1051961"><ele>296.0</ele><time>2026-04-28T08:34:11.452Z</time></trkpt><trkpt lat="44.1189936" lon="8.1050271"><ele>296.0</ele><time>2026-04-28T08:34:13.451Z</time></trkpt><trkpt lat="44.1189983" lon="8.1048623"><ele>296.0</ele><time>2026-04-28T08:34:15.452Z</time></trkpt><trkpt lat="44.1189784" lon="8.1046865"><ele>296.0</ele><time>2026-04-28T08:34:17.452Z</time></trkpt><trkpt lat="44.1189757" lon="8.1045959"><ele>296.0</ele><time>2026-04-28T08:34:18.452Z</time></trkpt><trkpt lat="44.1189718" lon="8.1045068"><ele>301.4</ele><time>2026-04-28T08:34:19.451Z</time></trkpt><trkpt lat="44.1189703" lon="8.1044117"><ele>306.8</ele><time>2026-04-28T08:34:20.452Z</time></trkpt><trkpt lat="44.1189703" lon="8.1043176"><ele>312.2</ele><time>2026-04-28T08:34:21.452Z</time></trkpt><trkpt lat="44.1189815" lon="8.1041621"><ele>317.59999999999997</ele><time>2026-04-28T08:34:23.451Z</time></trkpt><trkpt lat="44.1190237" lon="8.1040115"><ele>323.0</ele><time>2026-04-28T08:34:25.452Z</time></trkpt><trkpt lat="44.1190822" lon="8.1038801"><ele>326.0</ele><time>2026-04-28T08:34:27.452Z</time></trkpt><trkpt lat="44.1191373" lon="8.1037636"><ele>329.0</ele><time>2026-04-28T08:34:29.451Z</time></trkpt><trkpt lat="44.1191686" lon="8.1036285"><ele>332.0</ele><time>2026-04-28T08:34:31.452Z</time></trkpt><trkpt lat="44.1191807" lon="8.1035075"><ele>335.0</ele><time>2026-04-28T08:34:33.452Z</time></trkpt><trkpt lat="44.1191692" lon="8.103394"><ele>338.0</ele><time>2026-04-28T08:34:35.45Z</time></trkpt><trkpt lat="44.1190834" lon="8.1033719"><ele>340.2</ele><time>2026-04-28T08:34:37.452Z</time></trkpt><trkpt lat="44.1189571" lon="8.1033936"><ele>342.4</ele><time>2026-04-28T08:34:39.451Z</time></trkpt><trkpt lat="44.1188847" lon="8.103395"><ele>344.59999999999997</ele><time>2026-04-28T08:34:40.452Z</time></trkpt><trkpt lat="44.1187743" lon="8.1034204"><ele>346.79999999999995</ele><time>2026-04-28T08:34:42.451Z</time></trkpt><trkpt lat="44.1187145" lon="8.1034668"><ele>349.0</ele><time>2026-04-28T08:34:43.451Z</time></trkpt><trkpt lat="44.1186527" lon="8.1035148"><ele>349.0</ele><time>2026-04-28T08:34:44.451Z</time></trkpt><trkpt lat="44.1185894" lon="8.1035687"><ele>349.0</ele><time>2026-04-28T08:34:45.452Z</time></trkpt><trkpt lat="44.1185344" lon="8.1036326"><ele>349.0</ele><time>2026-04-28T08:34:46.451Z</time></trkpt><trkpt lat="44.1184795" lon="8.10371"><ele>349.0</ele><time>2026-04-28T08:34:47.452Z</time></trkpt><trkpt lat="44.1184277" lon="8.1037906"><ele>349.0</ele><time>2026-04-28T08:34:48.452Z</time></trkpt><trkpt lat="44.1183568" lon="8.1038745"><ele>349.0</ele><time>2026-04-28T08:34:49.452Z</time></trkpt><trkpt lat="44.1182718" lon="8.1039583"><ele>347.2</ele><time>2026-04-28T08:34:50.451Z</time></trkpt><trkpt lat="44.1181813" lon="8.1040339"><ele>345.4</ele><time>2026-04-28T08:34:51.452Z</time></trkpt><trkpt lat="44.1180975" lon="8.104112"><ele>343.6</ele><time>2026-04-28T08:34:52.45Z</time></trkpt><trkpt lat="44.1180153" lon="8.1041855"><ele>341.8</ele><time>2026-04-28T08:34:53.451Z</time></trkpt><trkpt lat="44.117939" lon="8.1042525"><ele>340.0</ele><time>2026-04-28T08:34:54.452Z</time></trkpt><trkpt lat="44.1178683" lon="8.1043104"><ele>340.0</ele><time>2026-04-28T08:34:55.452Z</time></trkpt><trkpt lat="44.1178093" lon="8.1043664"><ele>340.0</ele><time>2026-04-28T08:34:56.451Z</time></trkpt><trkpt lat="44.1177417" lon="8.1044213"><ele>340.0</ele><time>2026-04-28T08:34:57.452Z</time></trkpt><trkpt lat="44.1176669" lon="8.1044653"><ele>340.0</ele><time>2026-04-28T08:34:58.452Z</time></trkpt><trkpt lat="44.1175881" lon="8.1045058"><ele>340.0</ele><time>2026-04-28T08:34:59.45Z</time></trkpt><trkpt lat="44.1175157" lon="8.1045409"><ele>340.0</ele><time>2026-04-28T08:35:00.452Z</time></trkpt><trkpt lat="44.1174449" lon="8.1045678"><ele>338.5</ele><time>2026-04-28T08:35:01.452Z</time></trkpt><trkpt lat="44.1173729" lon="8.1045917"><ele>337.0</ele><time>2026-04-28T08:35:02.452Z</time></trkpt><trkpt lat="44.1173003" lon="8.1046214"><ele>335.5</ele><time>2026-04-28T08:35:03.45Z</time></trkpt><trkpt lat="44.1172347" lon="8.1046533"><ele>334.0</ele><time>2026-04-28T08:35:04.451Z</time></trkpt><trkpt lat="44.1171697" lon="8.1046691"><ele>332.5</ele><time>2026-04-28T08:35:05.451Z</time></trkpt><trkpt lat="44.1170559" lon="8.104644"><ele>331.0</ele><time>2026-04-28T08:35:07.452Z</time></trkpt><trkpt lat="44.1170016" lon="8.1045836"><ele>331.0</ele><time>2026-04-28T08:35:08.451Z</time></trkpt><trkpt lat="44.1169372" lon="8.1045225"><ele>331.0</ele><time>2026-04-28T08:35:09.451Z</time></trkpt><trkpt lat="44.1168695" lon="8.1044693"><ele>331.0</ele><time>2026-04-28T08:35:10.451Z</time></trkpt><trkpt lat="44.1167913" lon="8.1044235"><ele>331.0</ele><time>2026-04-28T08:35:11.452Z</time></trkpt><trkpt lat="44.1167103" lon="8.1043846"><ele>331.0</ele><time>2026-04-28T08:35:12.451Z</time></trkpt><trkpt lat="44.1166467" lon="8.1043333"><ele>331.0</ele><time>2026-04-28T08:35:13.451Z</time></trkpt><trkpt lat="44.1165951" lon="8.1042686"><ele>328.0</ele><time>2026-04-28T08:35:14.451Z</time></trkpt><trkpt lat="44.1165445" lon="8.1041863"><ele>325.0</ele><time>2026-04-28T08:35:15.452Z</time></trkpt><trkpt lat="44.1165" lon="8.1041058"><ele>322.0</ele><time>2026-04-28T08:35:16.452Z</time></trkpt><trkpt lat="44.1164703" lon="8.1040244"><ele>319.0</ele><time>2026-04-28T08:35:17.452Z</time></trkpt><trkpt lat="44.1164507" lon="8.103937"><ele>316.0</ele><time>2026-04-28T08:35:18.451Z</time></trkpt><trkpt lat="44.1164385" lon="8.1038484"><ele>313.0</ele><time>2026-04-28T08:35:19.452Z</time></trkpt><trkpt lat="44.1164115" lon="8.1036948"><ele>313.0</ele><time>2026-04-28T08:35:21.452Z</time></trkpt><trkpt lat="44.1163914" lon="8.1035548"><ele>313.0</ele><time>2026-04-28T08:35:23.452Z</time></trkpt><trkpt lat="44.1163534" lon="8.1034124"><ele>313.0</ele><time>2026-04-28T08:35:25.45Z</time></trkpt><trkpt lat="44.1163352" lon="8.1033211"><ele>313.0</ele><time>2026-04-28T08:35:26.451Z</time></trkpt><trkpt lat="44.1163376" lon="8.1032284"><ele>313.0</ele><time>2026-04-28T08:35:27.451Z</time></trkpt><trkpt lat="44.1163726" lon="8.1030772"><ele>316.8333333333333</ele><time>2026-04-28T08:35:29.451Z</time></trkpt><trkpt lat="44.1163849" lon="8.1029326"><ele>320.66666666666663</ele><time>2026-04-28T08:35:31.452Z</time></trkpt><trkpt lat="44.1163353" lon="8.1027798"><ele>324.5</ele><time>2026-04-28T08:35:33.451Z</time></trkpt><trkpt lat="44.1163287" lon="8.1026802"><ele>328.3333333333333</ele><time>2026-04-28T08:35:34.452Z</time></trkpt><trkpt lat="44.1163288" lon="8.102587"><ele>332.1666666666667</ele><time>2026-04-28T08:35:35.451Z</time></trkpt><trkpt lat="44.1163088" lon="8.1024736"><ele>336.0</ele><time>2026-04-28T08:35:37.451Z</time></trkpt><trkpt lat="44.1162628" lon="8.1023755"><ele>342.1666666666667</ele><time>2026-04-28T08:35:39.452Z</time></trkpt><trkpt lat="44.1162039" lon="8.1022669"><ele>348.3333333333333</ele><time>2026-04-28T08:35:41.452Z</time></trkpt><trkpt lat="44.1161415" lon="8.1022047"><ele>354.5</ele><time>2026-04-28T08:35:43.452Z</time></trkpt><trkpt lat="44.1160508" lon="8.102187"><ele>360.66666666666663</ele><time>2026-04-28T08:35:45.451Z</time></trkpt><trkpt lat="44.1159433" lon="8.10218"><ele>366.8333333333333</ele><time>2026-04-28T08:35:47.452Z</time></trkpt><trkpt lat="44.1158831" lon="8.1021543"><ele>373.0</ele><time>2026-04-28T08:35:48.452Z</time></trkpt><trkpt lat="44.1158235" lon="8.1020981"><ele>373.0</ele><time>2026-04-28T08:35:49.452Z</time></trkpt><trkpt lat="44.1157701" lon="8.1020461"><ele>373.0</ele><time>2026-04-28T08:35:50.451Z</time></trkpt><trkpt lat="44.1156611" lon="8.1019658"><ele>373.0</ele><time>2026-04-28T08:35:52.452Z</time></trkpt><trkpt lat="44.1155928" lon="8.1019231"><ele>373.0</ele><time>2026-04-28T08:35:53.451Z</time></trkpt><trkpt lat="44.1155183" lon="8.1018883"><ele>373.0</ele><time>2026-04-28T08:35:54.451Z</time></trkpt><trkpt lat="44.1154411" lon="8.1018527"><ele>373.0</ele><time>2026-04-28T08:35:55.451Z</time></trkpt><trkpt lat="44.1153784" lon="8.1018152"><ele>369.2</ele><time>2026-04-28T08:35:56.452Z</time></trkpt><trkpt lat="44.1152771" lon="8.1017451"><ele>365.4</ele><time>2026-04-28T08:35:58.45Z</time></trkpt><trkpt lat="44.1151833" lon="8.1016802"><ele>361.59999999999997</ele><time>2026-04-28T08:36:00.452Z</time></trkpt><trkpt lat="44.1150812" lon="8.1016316"><ele>357.79999999999995</ele><time>2026-04-28T08:36:02.452Z</time></trkpt><trkpt lat="44.1150165" lon="8.1016129"><ele>354.0</ele><time>2026-04-28T08:36:03.451Z</time></trkpt><trkpt lat="44.1149528" lon="8.1015994"><ele>359.2</ele><time>2026-04-28T08:36:04.451Z</time></trkpt><trkpt lat="44.1148884" lon="8.10158"><ele>364.4</ele><time>2026-04-28T08:36:05.452Z</time></trkpt><trkpt lat="44.1147738" lon="8.1015449"><ele>369.6</ele><time>2026-04-28T08:36:07.451Z</time></trkpt><trkpt lat="44.1146771" lon="8.1015173"><ele>374.8</ele><time>2026-04-28T08:36:09.452Z</time></trkpt><trkpt lat="44.1146205" lon="8.1014416"><ele>380.0</ele><time>2026-04-28T08:36:11.452Z</time></trkpt><trkpt lat="44.1145598" lon="8.1013033"><ele>380.0</ele><time>2026-04-28T08:36:13.452Z</time></trkpt><trkpt lat="44.1145444" lon="8.1012089"><ele>380.0</ele><time>2026-04-28T08:36:14.452Z</time></trkpt><trkpt lat="44.114518" lon="8.1010724"><ele>380.0</ele><time>2026-04-28T08:36:16.451Z</time></trkpt><trkpt lat="44.1145066" lon="8.1009831"><ele>380.0</ele><time>2026-04-28T08:36:18.452Z</time></trkpt><trkpt lat="44.1144389" lon="8.1009962"><ele>380.0</ele><time>2026-04-28T08:36:21.452Z</time></trkpt><trkpt lat="44.1144116" lon="8.1011363"><ele>380.0</ele><time>2026-04-28T08:36:23.451Z</time></trkpt><trkpt lat="44.1143917" lon="8.1012305"><ele>380.0</ele><time>2026-04-28T08:36:24.452Z</time></trkpt><trkpt lat="44.1143776" lon="8.1013268"><ele>380.0</ele><time>2026-04-28T08:36:25.451Z</time></trkpt><trkpt lat="44.114335" lon="8.1014768"><ele>380.0</ele><time>2026-04-28T08:36:27.451Z</time></trkpt><trkpt lat="44.1143018" lon="8.1015543"><ele>380.0</ele><time>2026-04-28T08:36:28.451Z</time></trkpt><trkpt lat="44.1142613" lon="8.1016249"><ele>380.0</ele><time>2026-04-28T08:36:29.452Z</time></trkpt><trkpt lat="44.1142158" lon="8.1016991"><ele>380.0</ele><time>2026-04-28T08:36:30.451Z</time></trkpt><trkpt lat="44.1141648" lon="8.101793"><ele>377.5</ele><time>2026-04-28T08:36:31.452Z</time></trkpt><trkpt lat="44.114114" lon="8.1018925"><ele>375.0</ele><time>2026-04-28T08:36:32.451Z</time></trkpt><trkpt lat="44.114086" lon="8.1019968"><ele>372.5</ele><time>2026-04-28T08:36:33.451Z</time></trkpt><trkpt lat="44.1140797" lon="8.1020912"><ele>370.0</ele><time>2026-04-28T08:36:34.451Z</time></trkpt><trkpt lat="44.1140896" lon="8.1021941"><ele>367.5</ele><time>2026-04-28T08:36:35.451Z</time></trkpt><trkpt lat="44.1141107" lon="8.1023026"><ele>365.0</ele><time>2026-04-28T08:36:36.451Z</time></trkpt><trkpt lat="44.1141275" lon="8.1024009"><ele>363.4</ele><time>2026-04-28T08:36:37.452Z</time></trkpt><trkpt lat="44.1141484" lon="8.1025415"><ele>361.8</ele><time>2026-04-28T08:36:39.452Z</time></trkpt><trkpt lat="44.1141193" lon="8.1026487"><ele>360.20000000000005</ele><time>2026-04-28T08:36:41.452Z</time></trkpt><trkpt lat="44.1140634" lon="8.1027479"><ele>358.6</ele><time>2026-04-28T08:36:43.45Z</time></trkpt><trkpt lat="44.114017" lon="8.1028624"><ele>357.0</ele><time>2026-04-28T08:36:45.451Z</time></trkpt><trkpt lat="44.1139915" lon="8.1030327"><ele>356.1666666666667</ele><time>2026-04-28T08:36:47.452Z</time></trkpt><trkpt lat="44.1140005" lon="8.1031406"><ele>355.3333333333333</ele><time>2026-04-28T08:36:48.451Z</time></trkpt><trkpt lat="44.114013" lon="8.1032518"><ele>354.5</ele><time>2026-04-28T08:36:49.451Z</time></trkpt><trkpt lat="44.1140307" lon="8.1033673"><ele>353.66666666666663</ele><time>2026-04-28T08:36:50.451Z</time></trkpt><trkpt lat="44.1140519" lon="8.1034756"><ele>352.8333333333333</ele><time>2026-04-28T08:36:51.45Z</time></trkpt><trkpt lat="44.1140746" lon="8.1035638"><ele>352.0</ele><time>2026-04-28T08:36:52.452Z</time></trkpt><trkpt lat="44.1141169" lon="8.1036325"><ele>352.0</ele><time>2026-04-28T08:36:53.451Z</time></trkpt><trkpt lat="44.1141713" lon="8.1037443"><ele>352.0</ele><time>2026-04-28T08:36:55.451Z</time></trkpt><trkpt lat="44.114165" lon="8.1038761"><ele>352.0</ele><time>2026-04-28T08:36:57.452Z</time></trkpt><trkpt lat="44.1141298" lon="8.1039584"><ele>352.0</ele><time>2026-04-28T08:36:58.452Z</time></trkpt><trkpt lat="44.1140884" lon="8.1040414"><ele>352.0</ele><time>2026-04-28T08:36:59.451Z</time></trkpt><trkpt lat="44.1140387" lon="8.1041185"><ele>352.0</ele><time>2026-04-28T08:37:00.451Z</time></trkpt><trkpt lat="44.113987" lon="8.1041891"><ele>362.5</ele><time>2026-04-28T08:37:01.451Z</time></trkpt><trkpt lat="44.1139172" lon="8.1043247"><ele>373.0</ele><time>2026-04-28T08:37:03.451Z</time></trkpt><trkpt lat="44.1139004" lon="8.104411"><ele>383.5</ele><time>2026-04-28T08:37:04.451Z</time></trkpt><trkpt lat="44.113903" lon="8.1045115"><ele>394.0</ele><time>2026-04-28T08:37:05.452Z</time></trkpt><trkpt lat="44.1139175" lon="8.1046206"><ele>404.50000000000006</ele><time>2026-04-28T08:37:06.452Z</time></trkpt><trkpt lat="44.1139369" lon="8.1047302"><ele>415.0</ele><time>2026-04-28T08:37:07.45Z</time></trkpt><trkpt lat="44.1139528" lon="8.1048232"><ele>415.00000000000006</ele><time>2026-04-28T08:37:08.451Z</time></trkpt><trkpt lat="44.1139778" lon="8.1049068"><ele>415.0</ele><time>2026-04-28T08:37:09.451Z</time></trkpt><trkpt lat="44.1140168" lon="8.1050681"><ele>415.0</ele><time>2026-04-28T08:37:11.452Z</time></trkpt><trkpt lat="44.1140187" lon="8.1051694"><ele>415.0</ele><time>2026-04-28T08:37:12.452Z</time></trkpt><trkpt lat="44.1140108" lon="8.1052897"><ele>415.00000000000006</ele><time>2026-04-28T08:37:13.451Z</time></trkpt><trkpt lat="44.1139989" lon="8.1054127"><ele>415.0</ele><time>2026-04-28T08:37:14.451Z</time></trkpt><trkpt lat="44.1139881" lon="8.1055359"><ele>412.50000000000006</ele><time>2026-04-28T08:37:15.452Z</time></trkpt><trkpt lat="44.1139876" lon="8.1056546"><ele>410.0</ele><time>2026-04-28T08:37:16.451Z</time></trkpt><trkpt lat="44.1139932" lon="8.1057686"><ele>407.5</ele><time>2026-04-28T08:37:17.452Z</time></trkpt><trkpt lat="44.1140028" lon="8.1058798"><ele>405.0</ele><time>2026-04-28T08:37:18.452Z</time></trkpt><trkpt lat="44.1140077" lon="8.1059902"><ele>402.50000000000006</ele><time>2026-04-28T08:37:19.451Z</time></trkpt><trkpt lat="44.1140089" lon="8.1060841"><ele>400.0</ele><time>2026-04-28T08:37:20.452Z</time></trkpt><trkpt lat="44.1139998" lon="8.1061798"><ele>397.1666666666667</ele><time>2026-04-28T08:37:21.452Z</time></trkpt><trkpt lat="44.1139836" lon="8.1062781"><ele>394.33333333333337</ele><time>2026-04-28T08:37:22.452Z</time></trkpt><trkpt lat="44.1139677" lon="8.1063744"><ele>391.5</ele><time>2026-04-28T08:37:23.452Z</time></trkpt><trkpt lat="44.1139204" lon="8.1064381"><ele>388.6666666666667</ele><time>2026-04-28T08:37:24.45Z</time></trkpt><trkpt lat="44.1138393" lon="8.1064786"><ele>385.83333333333337</ele><time>2026-04-28T08:37:25.451Z</time></trkpt><trkpt lat="44.1137383" lon="8.106514"><ele>383.0</ele><time>2026-04-28T08:37:26.452Z</time></trkpt><trkpt lat="44.1136288" lon="8.1065696"><ele>384.4</ele><time>2026-04-28T08:37:27.451Z</time></trkpt><trkpt lat="44.1135097" lon="8.1066389"><ele>385.79999999999995</ele><time>2026-04-28T08:37:28.451Z</time></trkpt><trkpt lat="44.113409" lon="8.1067034"><ele>387.2</ele><time>2026-04-28T08:37:29.45Z</time></trkpt><trkpt lat="44.1133253" lon="8.1067541"><ele>388.6</ele><time>2026-04-28T08:37:30.452Z</time></trkpt><trkpt lat="44.1132509" lon="8.106789"><ele>390.0</ele><time>2026-04-28T08:37:31.452Z</time></trkpt><trkpt lat="44.1131827" lon="8.1068269"><ele>390.0</ele><time>2026-04-28T08:37:32.452Z</time></trkpt><trkpt lat="44.1130662" lon="8.1068813"><ele>390.0</ele><time>2026-04-28T08:37:34.451Z</time></trkpt><trkpt lat="44.113009" lon="8.1069332"><ele>390.0</ele><time>2026-04-28T08:37:35.452Z</time></trkpt><trkpt lat="44.1129545" lon="8.1070002"><ele>390.0</ele><time>2026-04-28T08:37:36.452Z</time></trkpt><trkpt lat="44.1129083" lon="8.107088"><ele>390.0</ele><time>2026-04-28T08:37:37.452Z</time></trkpt><trkpt lat="44.1128731" lon="8.1071792"><ele>390.0</ele><time>2026-04-28T08:37:38.451Z</time></trkpt><trkpt lat="44.1128359" lon="8.1072583"><ele>390.0</ele><time>2026-04-28T08:37:39.451Z</time></trkpt><trkpt lat="44.1127941" lon="8.1073329"><ele>390.0</ele><time>2026-04-28T08:37:40.451Z</time></trkpt><trkpt lat="44.1127328" lon="8.1074075"><ele>390.0</ele><time>2026-04-28T08:37:41.452Z</time></trkpt><trkpt lat="44.1126737" lon="8.1074811"><ele>390.0</ele><time>2026-04-28T08:37:42.452Z</time></trkpt><trkpt lat="44.1126084" lon="8.1075567"><ele>390.0</ele><time>2026-04-28T08:37:43.452Z</time></trkpt><trkpt lat="44.1125421" lon="8.1076357"><ele>390.0</ele><time>2026-04-28T08:37:44.451Z</time></trkpt><trkpt lat="44.1124725" lon="8.1077093"><ele>391.1666666666667</ele><time>2026-04-28T08:37:45.452Z</time></trkpt><trkpt lat="44.112401" lon="8.1077763"><ele>392.33333333333337</ele><time>2026-04-28T08:37:46.452Z</time></trkpt><trkpt lat="44.1123377" lon="8.1078476"><ele>393.5</ele><time>2026-04-28T08:37:47.452Z</time></trkpt><trkpt lat="44.1122842" lon="8.1079214"><ele>394.6666666666667</ele><time>2026-04-28T08:37:48.452Z</time></trkpt><trkpt lat="44.1122361" lon="8.1080001"><ele>395.83333333333337</ele><time>2026-04-28T08:37:49.452Z</time></trkpt><trkpt lat="44.1121766" lon="8.1080832"><ele>397.0</ele><time>2026-04-28T08:37:50.451Z</time></trkpt><trkpt lat="44.1121097" lon="8.1081552"><ele>397.00000000000006</ele><time>2026-04-28T08:37:51.452Z</time></trkpt><trkpt lat="44.112048" lon="8.1082278"><ele>397.0</ele><time>2026-04-28T08:37:52.451Z</time></trkpt><trkpt lat="44.1119778" lon="8.108299"><ele>397.0</ele><time>2026-04-28T08:37:53.452Z</time></trkpt><trkpt lat="44.1119105" lon="8.1083595"><ele>397.0</ele><time>2026-04-28T08:37:54.452Z</time></trkpt><trkpt lat="44.1118425" lon="8.1084108"><ele>397.00000000000006</ele><time>2026-04-28T08:37:55.45Z</time></trkpt><trkpt lat="44.1117729" lon="8.1084554"><ele>397.0</ele><time>2026-04-28T08:37:56.452Z</time></trkpt><trkpt lat="44.1117126" lon="8.1084926"><ele>395.20000000000005</ele><time>2026-04-28T08:37:57.451Z</time></trkpt><trkpt lat="44.1115839" lon="8.10852"><ele>393.4</ele><time>2026-04-28T08:37:59.452Z</time></trkpt><trkpt lat="44.1114831" lon="8.1085261"><ele>391.6</ele><time>2026-04-28T08:38:01.451Z</time></trkpt><trkpt lat="44.1114248" lon="8.1085912"><ele>389.79999999999995</ele><time>2026-04-28T08:39:38.452Z</time></trkpt><trkpt lat="44.1114023" lon="8.1086872"><ele>388.0</ele><time>2026-04-28T08:39:40.45Z</time></trkpt><trkpt lat="44.1113418" lon="8.1088215"><ele>388.0</ele><time>2026-04-28T08:39:42.452Z</time></trkpt><trkpt lat="44.1112767" lon="8.1089073"><ele>388.0</ele><time>2026-04-28T08:39:44.451Z</time></trkpt><trkpt lat="44.111234" lon="8.1090111"><ele>388.0</ele><time>2026-04-28T08:39:46.452Z</time></trkpt><trkpt lat="44.1112133" lon="8.1091672"><ele>388.0</ele><time>2026-04-28T08:39:48.452Z</time></trkpt><trkpt lat="44.1111919" lon="8.1092555"><ele>388.0</ele><time>2026-04-28T08:39:49.45Z</time></trkpt><trkpt lat="44.1111451" lon="8.1093944"><ele>385.59999999999997</ele><time>2026-04-28T08:39:51.452Z</time></trkpt><trkpt lat="44.111066" lon="8.1094807"><ele>383.2</ele><time>2026-04-28T08:39:53.451Z</time></trkpt><trkpt lat="44.1109789" lon="8.109491"><ele>380.8</ele><time>2026-04-28T08:39:54.451Z</time></trkpt><trkpt lat="44.1108773" lon="8.1094896"><ele>378.4</ele><time>2026-04-28T08:39:55.452Z</time></trkpt><trkpt lat="44.1107585" lon="8.109494"><ele>376.0</ele><time>2026-04-28T08:39:56.451Z</time></trkpt><trkpt lat="44.1106705" lon="8.1094898"><ele>376.0</ele><time>2026-04-28T08:39:57.451Z</time></trkpt><trkpt lat="44.1106033" lon="8.10948"><ele>376.0</ele><time>2026-04-28T08:39:58.451Z</time></trkpt><trkpt lat="44.1105047" lon="8.1094923"><ele>376.0</ele><time>2026-04-28T08:40:00.452Z</time></trkpt><trkpt lat="44.1104296" lon="8.1095568"><ele>376.0</ele><time>2026-04-28T08:40:02.451Z</time></trkpt><trkpt lat="44.1103482" lon="8.109663"><ele>376.0</ele><time>2026-04-28T08:40:04.452Z</time></trkpt><trkpt lat="44.1102915" lon="8.109717"><ele>376.0</ele><time>2026-04-28T08:40:05.451Z</time></trkpt><trkpt lat="44.1102203" lon="8.1097703"><ele>376.0</ele><time>2026-04-28T08:40:06.452Z</time></trkpt><trkpt lat="44.1101491" lon="8.1098152"><ele>376.0</ele><time>2026-04-28T08:40:07.45Z</time></trkpt><trkpt lat="44.1100909" lon="8.1098664"><ele>376.0</ele><time>2026-04-28T08:40:08.451Z</time></trkpt><trkpt lat="44.1100402" lon="8.1099266"><ele>376.0</ele><time>2026-04-28T08:40:09.452Z</time></trkpt><trkpt lat="44.1100033" lon="8.1099992"><ele>376.0</ele><time>2026-04-28T08:40:10.452Z</time></trkpt><trkpt lat="44.1099668" lon="8.1100935"><ele>376.0</ele><time>2026-04-28T08:40:11.452Z</time></trkpt><trkpt lat="44.1099299" lon="8.1102012"><ele>376.0</ele><time>2026-04-28T08:40:12.451Z</time></trkpt><trkpt lat="44.1098939" lon="8.1103252"><ele>376.4</ele><time>2026-04-28T08:40:13.45Z</time></trkpt><trkpt lat="44.1098566" lon="8.1104512"><ele>376.8</ele><time>2026-04-28T08:40:14.451Z</time></trkpt><trkpt lat="44.1098135" lon="8.1105764"><ele>377.2</ele><time>2026-04-28T08:40:15.452Z</time></trkpt><trkpt lat="44.1097625" lon="8.1106976"><ele>377.59999999999997</ele><time>2026-04-28T08:40:16.452Z</time></trkpt><trkpt lat="44.1097121" lon="8.1108142"><ele>378.0</ele><time>2026-04-28T08:40:17.452Z</time></trkpt><trkpt lat="44.1096693" lon="8.1109223"><ele>370.2</ele><time>2026-04-28T08:40:18.452Z</time></trkpt><trkpt lat="44.1096373" lon="8.1110109"><ele>362.4</ele><time>2026-04-28T08:40:19.451Z</time></trkpt><trkpt lat="44.109561" lon="8.1111376"><ele>354.59999999999997</ele><time>2026-04-28T08:40:21.452Z</time></trkpt><trkpt lat="44.1094517" lon="8.1111734"><ele>346.79999999999995</ele><time>2026-04-28T08:40:23.452Z</time></trkpt><trkpt lat="44.1093254" lon="8.1111157"><ele>339.0</ele><time>2026-04-28T08:40:25.45Z</time></trkpt><trkpt lat="44.1092571" lon="8.1110611"><ele>339.0</ele><time>2026-04-28T08:40:26.452Z</time></trkpt><trkpt lat="44.1091907" lon="8.1109971"><ele>339.0</ele><time>2026-04-28T08:40:27.452Z</time></trkpt><trkpt lat="44.1091328" lon="8.110937"><ele>339.0</ele><time>2026-04-28T08:40:28.452Z</time></trkpt><trkpt lat="44.1090746" lon="8.1108795"><ele>339.0</ele><time>2026-04-28T08:40:29.452Z</time></trkpt><trkpt lat="44.1090088" lon="8.1108472"><ele>339.0</ele><time>2026-04-28T08:40:30.451Z</time></trkpt><trkpt lat="44.1089382" lon="8.1108394"><ele>339.0</ele><time>2026-04-28T08:40:31.452Z</time></trkpt><trkpt lat="44.1088616" lon="8.1108521"><ele>339.0</ele><time>2026-04-28T08:40:32.452Z</time></trkpt><trkpt lat="44.1087834" lon="8.1108731"><ele>339.8333333333333</ele><time>2026-04-28T08:40:33.45Z</time></trkpt><trkpt lat="44.1087031" lon="8.1108869"><ele>340.6666666666667</ele><time>2026-04-28T08:40:34.452Z</time></trkpt><trkpt lat="44.1086144" lon="8.1108966"><ele>341.5</ele><time>2026-04-28T08:40:35.451Z</time></trkpt><trkpt lat="44.1085295" lon="8.1108898"><ele>342.33333333333337</ele><time>2026-04-28T08:40:36.452Z</time></trkpt><trkpt lat="44.1084541" lon="8.1108698"><ele>343.1666666666667</ele><time>2026-04-28T08:40:37.451Z</time></trkpt><trkpt lat="44.1083883" lon="8.110861"><ele>344.0</ele><time>2026-04-28T08:40:38.452Z</time></trkpt><trkpt lat="44.1082628" lon="8.1108725"><ele>354.4</ele><time>2026-04-28T08:40:40.452Z</time></trkpt><trkpt lat="44.1081567" lon="8.1109298"><ele>364.79999999999995</ele><time>2026-04-28T08:40:42.452Z</time></trkpt><trkpt lat="44.1080932" lon="8.1110627"><ele>375.20000000000005</ele><time>2026-04-28T08:40:44.451Z</time></trkpt><trkpt lat="44.108066" lon="8.1111582"><ele>385.6</ele><time>2026-04-28T08:40:45.452Z</time></trkpt><trkpt lat="44.1080252" lon="8.1112601"><ele>396.0</ele><time>2026-04-28T08:40:46.45Z</time></trkpt><trkpt lat="44.1079763" lon="8.1113647"><ele>396.0</ele><time>2026-04-28T08:40:47.452Z</time></trkpt><trkpt lat="44.1079194" lon="8.1114717"><ele>396.0</ele><time>2026-04-28T08:40:48.451Z</time></trkpt><trkpt lat="44.1078547" lon="8.1115749"><ele>396.0</ele><time>2026-04-28T08:40:49.451Z</time></trkpt><trkpt lat="44.1077898" lon="8.1116672"><ele>396.0</ele><time>2026-04-28T08:40:50.45Z</time></trkpt><trkpt lat="44.1077279" lon="8.1117421"><ele>396.0</ele><time>2026-04-28T08:40:51.452Z</time></trkpt><trkpt lat="44.1076644" lon="8.1118171"><ele>397.6666666666667</ele><time>2026-04-28T08:40:52.451Z</time></trkpt><trkpt lat="44.1075952" lon="8.1118931"><ele>399.33333333333337</ele><time>2026-04-28T08:40:53.452Z</time></trkpt><trkpt lat="44.1075269" lon="8.1119723"><ele>401.0</ele><time>2026-04-28T08:40:54.45Z</time></trkpt><trkpt lat="44.1074656" lon="8.1120594"><ele>402.6666666666667</ele><time>2026-04-28T08:40:55.451Z</time></trkpt><trkpt lat="44.1074173" lon="8.1121473"><ele>404.33333333333337</ele><time>2026-04-28T08:40:56.452Z</time></trkpt><trkpt lat="44.1073936" lon="8.1122411"><ele>406.0</ele><time>2026-04-28T08:40:57.452Z</time></trkpt><trkpt lat="44.1073854" lon="8.1123371"><ele>401.0</ele><time>2026-04-28T08:40:58.451Z</time></trkpt><trkpt lat="44.107406" lon="8.1124298"><ele>396.0</ele><time>2026-04-28T08:40:59.452Z</time></trkpt><trkpt lat="44.1074272" lon="8.1125212"><ele>391.0</ele><time>2026-04-28T08:41:00.451Z</time></trkpt><trkpt lat="44.1074367" lon="8.112614"><ele>386.0</ele><time>2026-04-28T08:41:01.452Z</time></trkpt><trkpt lat="44.1074281" lon="8.1127151"><ele>381.0</ele><time>2026-04-28T08:41:02.451Z</time></trkpt><trkpt lat="44.1074148" lon="8.1128155"><ele>376.0</ele><time>2026-04-28T08:41:03.452Z</time></trkpt><trkpt lat="44.1073991" lon="8.1129071"><ele>371.0</ele><time>2026-04-28T08:41:04.451Z</time></trkpt><trkpt lat="44.1073784" lon="8.1129902"><ele>371.0</ele><time>2026-04-28T08:41:05.451Z</time></trkpt><trkpt lat="44.1073322" lon="8.1130695"><ele>371.0</ele><time>2026-04-28T08:41:06.451Z</time></trkpt><trkpt lat="44.1072771" lon="8.1131452"><ele>371.0</ele><time>2026-04-28T08:41:07.451Z</time></trkpt><trkpt lat="44.1072218" lon="8.1132075"><ele>371.0</ele><time>2026-04-28T08:41:08.452Z</time></trkpt><trkpt lat="44.1071654" lon="8.1132525"><ele>371.0</ele><time>2026-04-28T08:41:09.451Z</time></trkpt><trkpt lat="44.1070413" lon="8.1132826"><ele>371.0</ele><time>2026-04-28T08:41:11.452Z</time></trkpt><trkpt lat="44.1069745" lon="8.1132739"><ele>365.33333333333337</ele><time>2026-04-28T08:41:12.451Z</time></trkpt><trkpt lat="44.1069081" lon="8.1132573"><ele>359.6666666666667</ele><time>2026-04-28T08:41:13.452Z</time></trkpt><trkpt lat="44.106838" lon="8.1132425"><ele>354.0</ele><time>2026-04-28T08:41:14.452Z</time></trkpt><trkpt lat="44.1067696" lon="8.1132444"><ele>348.3333333333333</ele><time>2026-04-28T08:41:15.452Z</time></trkpt><trkpt lat="44.1066495" lon="8.1132704"><ele>342.66666666666663</ele><time>2026-04-28T08:41:17.451Z</time></trkpt><trkpt lat="44.1065308" lon="8.1132973"><ele>337.0</ele><time>2026-04-28T08:41:19.451Z</time></trkpt><trkpt lat="44.1064121" lon="8.1133343"><ele>337.0</ele><time>2026-04-28T08:41:21.451Z</time></trkpt><trkpt lat="44.1063491" lon="8.1133343"><ele>337.0</ele><time>2026-04-28T08:41:22.451Z</time></trkpt><trkpt lat="44.1062316" lon="8.1133163"><ele>337.0</ele><time>2026-04-28T08:41:24.452Z</time></trkpt><trkpt lat="44.1061148" lon="8.1133292"><ele>337.0</ele><time>2026-04-28T08:41:26.451Z</time></trkpt><trkpt lat="44.1060362" lon="8.1133914"><ele>337.0</ele><time>2026-04-28T08:41:28.452Z</time></trkpt><trkpt lat="44.1060062" lon="8.1134758"><ele>337.0</ele><time>2026-04-28T08:41:30.452Z</time></trkpt><trkpt lat="44.105976" lon="8.1136118"><ele>337.0</ele><time>2026-04-28T08:41:32.451Z</time></trkpt><trkpt lat="44.1059322" lon="8.1137623"><ele>337.0</ele><time>2026-04-28T08:41:34.451Z</time></trkpt><trkpt lat="44.1058864" lon="8.1138688"><ele>337.0</ele><time>2026-04-28T08:41:36.452Z</time></trkpt><trkpt lat="44.1058615" lon="8.1140055"><ele>337.0</ele><time>2026-04-28T08:41:38.451Z</time></trkpt><trkpt lat="44.1058718" lon="8.1140994"><ele>333.8</ele><time>2026-04-28T08:41:39.45Z</time></trkpt><trkpt lat="44.1058788" lon="8.1141909"><ele>330.6</ele><time>2026-04-28T08:41:40.451Z</time></trkpt><trkpt lat="44.105907" lon="8.1143472"><ele>327.40000000000003</ele><time>2026-04-28T08:41:42.451Z</time></trkpt><trkpt lat="44.1059474" lon="8.1144994"><ele>324.20000000000005</ele><time>2026-04-28T08:41:44.451Z</time></trkpt><trkpt lat="44.1059644" lon="8.1146543"><ele>321.0</ele><time>2026-04-28T08:41:46.451Z</time></trkpt><trkpt lat="44.1059427" lon="8.1147843"><ele>318.3333333333333</ele><time>2026-04-28T08:41:48.451Z</time></trkpt><trkpt lat="44.10589" lon="8.1149279"><ele>315.6666666666667</ele><time>2026-04-28T08:41:50.451Z</time></trkpt><trkpt lat="44.1058502" lon="8.1150176"><ele>313.0</ele><time>2026-04-28T08:41:51.452Z</time></trkpt><trkpt lat="44.1058133" lon="8.1151095"><ele>310.33333333333337</ele><time>2026-04-28T08:41:52.45Z</time></trkpt><trkpt lat="44.1057803" lon="8.1152035"><ele>307.6666666666667</ele><time>2026-04-28T08:41:53.451Z</time></trkpt><trkpt lat="44.1057554" lon="8.1153036"><ele>305.0</ele><time>2026-04-28T08:41:54.451Z</time></trkpt><trkpt lat="44.1057268" lon="8.1154043"><ele>306.0</ele><time>2026-04-28T08:41:55.452Z</time></trkpt><trkpt lat="44.1056954" lon="8.1155053"><ele>307.0</ele><time>2026-04-28T08:41:56.451Z</time></trkpt><trkpt lat="44.105676" lon="8.1155959"><ele>308.0</ele><time>2026-04-28T08:41:57.452Z</time></trkpt><trkpt lat="44.1056538" lon="8.11569"><ele>309.0</ele><time>2026-04-28T08:41:58.451Z</time></trkpt><trkpt lat="44.1056325" lon="8.1157811"><ele>310.0</ele><time>2026-04-28T08:41:59.452Z</time></trkpt><trkpt lat="44.1055882" lon="8.115918"><ele>311.0</ele><time>2026-04-28T08:42:01.452Z</time></trkpt><trkpt lat="44.1055327" lon="8.115965"><ele>311.0</ele><time>2026-04-28T08:42:02.451Z</time></trkpt><trkpt lat="44.1054713" lon="8.1160049"><ele>311.0</ele><time>2026-04-28T08:42:03.452Z</time></trkpt><trkpt lat="44.105391" lon="8.1160169"><ele>311.0</ele><time>2026-04-28T08:42:04.452Z</time></trkpt><trkpt lat="44.105315" lon="8.1160252"><ele>311.0</ele><time>2026-04-28T08:42:05.452Z</time></trkpt><trkpt lat="44.1052353" lon="8.1160333"><ele>311.0</ele><time>2026-04-28T08:42:06.451Z</time></trkpt><trkpt lat="44.1051631" lon="8.1160464"><ele>311.0</ele><time>2026-04-28T08:42:07.451Z</time></trkpt><trkpt lat="44.1050883" lon="8.1160693"><ele>311.0</ele><time>2026-04-28T08:42:08.452Z</time></trkpt><trkpt lat="44.105019" lon="8.116103"><ele>311.0</ele><time>2026-04-28T08:42:09.451Z</time></trkpt><trkpt lat="44.1049404" lon="8.1161508"><ele>311.0</ele><time>2026-04-28T08:42:10.451Z</time></trkpt><trkpt lat="44.1048677" lon="8.1161875"><ele>311.0</ele><time>2026-04-28T08:42:11.451Z</time></trkpt><trkpt lat="44.104798" lon="8.1162248"><ele>311.0</ele><time>2026-04-28T08:42:12.452Z</time></trkpt><trkpt lat="44.1047235" lon="8.1162669"><ele>311.0</ele><time>2026-04-28T08:42:13.452Z</time></trkpt><trkpt lat="44.1046495" lon="8.1163146"><ele>312.8</ele><time>2026-04-28T08:42:14.452Z</time></trkpt><trkpt lat="44.1045664" lon="8.1164336"><ele>314.6</ele><time>2026-04-28T08:42:16.452Z</time></trkpt><trkpt lat="44.1044805" lon="8.1165416"><ele>316.4</ele><time>2026-04-28T08:42:18.452Z</time></trkpt><trkpt lat="44.1044165" lon="8.1166127"><ele>318.2</ele><time>2026-04-28T08:42:20.452Z</time></trkpt><trkpt lat="44.1044483" lon="8.1167037"><ele>320.0</ele><time>2026-04-28T08:42:22.452Z</time></trkpt><trkpt lat="44.1045483" lon="8.1165983"><ele>320.0</ele><time>2026-04-28T08:42:27.452Z</time></trkpt><trkpt lat="44.1046499" lon="8.1165309"><ele>320.0</ele><time>2026-04-28T08:42:29.452Z</time></trkpt><trkpt lat="44.104735" lon="8.1164825"><ele>320.0</ele><time>2026-04-28T08:42:31.452Z</time></trkpt><trkpt lat="44.1046936" lon="8.1165559"><ele>320.0</ele><time>2026-04-28T08:42:32.452Z</time></trkpt><trkpt lat="44.1048004" lon="8.1165065"><ele>320.0</ele><time>2026-04-28T08:42:33.452Z</time></trkpt><trkpt lat="44.1048715" lon="8.1164706"><ele>318.5</ele><time>2026-04-28T08:42:34.45Z</time></trkpt><trkpt lat="44.1049361" lon="8.1164384"><ele>317.0</ele><time>2026-04-28T08:42:35.451Z</time></trkpt><trkpt lat="44.1050012" lon="8.1164111"><ele>315.5</ele><time>2026-04-28T08:42:36.452Z</time></trkpt><trkpt lat="44.1051163" lon="8.1164181"><ele>314.0</ele><time>2026-04-28T08:42:39.452Z</time></trkpt><trkpt lat="44.1051162" lon="8.1165102"><ele>312.5</ele><time>2026-04-28T08:42:42.451Z</time></trkpt><trkpt lat="44.1050356" lon="8.1165623"><ele>311.0</ele><time>2026-04-28T08:42:45.451Z</time></trkpt><trkpt lat="44.1049532" lon="8.1166054"><ele>309.33333333333337</ele><time>2026-04-28T08:42:48.452Z</time></trkpt><trkpt lat="44.1049036" lon="8.1166859"><ele>307.6666666666667</ele><time>2026-04-28T08:42:50.452Z</time></trkpt><trkpt lat="44.1048607" lon="8.1167719"><ele>306.0</ele><time>2026-04-28T08:42:51.451Z</time></trkpt><trkpt lat="44.1048085" lon="8.1168654"><ele>304.3333333333333</ele><time>2026-04-28T08:42:52.451Z</time></trkpt><trkpt lat="44.1047549" lon="8.1169551"><ele>302.66666666666663</ele><time>2026-04-28T08:42:53.451Z</time></trkpt><trkpt lat="44.1047161" lon="8.1170289"><ele>301.0</ele><time>2026-04-28T08:42:54.452Z</time></trkpt><trkpt lat="44.1046736" lon="8.1170978"><ele>301.0</ele><time>2026-04-28T08:42:55.452Z</time></trkpt><trkpt lat="44.1046002" lon="8.1172205"><ele>301.0</ele><time>2026-04-28T08:42:57.452Z</time></trkpt><trkpt lat="44.1045768" lon="8.1173343"><ele>301.0</ele><time>2026-04-28T08:42:59.451Z</time></trkpt><trkpt lat="44.1046375" lon="8.1174592"><ele>301.0</ele><time>2026-04-28T08:43:01.451Z</time></trkpt><trkpt lat="44.1047148" lon="8.1175693"><ele>301.0</ele><time>2026-04-28T08:43:03.451Z</time></trkpt><trkpt lat="44.1047057" lon="8.1176823"><ele>298.40000000000003</ele><time>2026-04-28T08:43:05.451Z</time></trkpt><trkpt lat="44.1046148" lon="8.1177947"><ele>295.8</ele><time>2026-04-28T08:43:07.452Z</time></trkpt><trkpt lat="44.1045518" lon="8.1178565"><ele>293.20000000000005</ele><time>2026-04-28T08:43:08.451Z</time></trkpt><trkpt lat="44.104488" lon="8.1179311"><ele>290.6</ele><time>2026-04-28T08:43:09.451Z</time></trkpt><trkpt lat="44.1044327" lon="8.1180214"><ele>288.0</ele><time>2026-04-28T08:43:10.452Z</time></trkpt><trkpt lat="44.1043815" lon="8.1181141"><ele>288.0</ele><time>2026-04-28T08:43:11.451Z</time></trkpt><trkpt lat="44.1043446" lon="8.1181988"><ele>288.0</ele><time>2026-04-28T08:43:12.45Z</time></trkpt><trkpt lat="44.1043163" lon="8.1182903"><ele>288.0</ele><time>2026-04-28T08:43:13.452Z</time></trkpt><trkpt lat="44.1043018" lon="8.1183957"><ele>288.0</ele><time>2026-04-28T08:43:14.451Z</time></trkpt><trkpt lat="44.1042933" lon="8.1184958"><ele>288.0</ele><time>2026-04-28T08:43:15.451Z</time></trkpt><trkpt lat="44.1042747" lon="8.1185796"><ele>288.0</ele><time>2026-04-28T08:43:16.452Z</time></trkpt><trkpt lat="44.1041887" lon="8.1186776"><ele>288.4</ele><time>2026-04-28T08:43:18.452Z</time></trkpt><trkpt lat="44.1041055" lon="8.1187022"><ele>288.8</ele><time>2026-04-28T08:43:19.451Z</time></trkpt><trkpt lat="44.103995" lon="8.1187212"><ele>289.2</ele><time>2026-04-28T08:43:20.451Z</time></trkpt><trkpt lat="44.1038773" lon="8.1187519"><ele>289.6</ele><time>2026-04-28T08:43:21.452Z</time></trkpt><trkpt lat="44.1037608" lon="8.1188142"><ele>290.0</ele><time>2026-04-28T08:43:22.452Z</time></trkpt><trkpt lat="44.103648" lon="8.1188966"><ele>290.0</ele><time>2026-04-28T08:43:23.451Z</time></trkpt><trkpt lat="44.1035494" lon="8.1189876"><ele>290.0</ele><time>2026-04-28T08:43:24.452Z</time></trkpt><trkpt lat="44.1034643" lon="8.1190673"><ele>290.0</ele><time>2026-04-28T08:43:25.451Z</time></trkpt><trkpt lat="44.1033812" lon="8.1191369"><ele>290.0</ele><time>2026-04-28T08:43:26.451Z</time></trkpt><trkpt lat="44.103287" lon="8.1191951"><ele>290.0</ele><time>2026-04-28T08:43:27.451Z</time></trkpt><trkpt lat="44.1031912" lon="8.1192405"><ele>287.33333333333337</ele><time>2026-04-28T08:43:28.452Z</time></trkpt><trkpt lat="44.1031044" lon="8.1192808"><ele>284.6666666666667</ele><time>2026-04-28T08:43:29.451Z</time></trkpt><trkpt lat="44.1030245" lon="8.1193149"><ele>282.0</ele><time>2026-04-28T08:43:30.452Z</time></trkpt><trkpt lat="44.1029429" lon="8.1193391"><ele>279.3333333333333</ele><time>2026-04-28T08:43:31.452Z</time></trkpt><trkpt lat="44.1028688" lon="8.1193521"><ele>276.66666666666663</ele><time>2026-04-28T08:43:32.451Z</time></trkpt><trkpt lat="44.1027949" lon="8.1193396"><ele>274.0</ele><time>2026-04-28T08:43:33.452Z</time></trkpt><trkpt lat="44.1027182" lon="8.1193166"><ele>274.0</ele><time>2026-04-28T08:43:34.451Z</time></trkpt><trkpt lat="44.1025932" lon="8.1192749"><ele>274.0</ele><time>2026-04-28T08:43:36.452Z</time></trkpt><trkpt lat="44.1025175" lon="8.1192365"><ele>274.0</ele><time>2026-04-28T08:43:37.451Z</time></trkpt><trkpt lat="44.1024403" lon="8.119176"><ele>274.0</ele><time>2026-04-28T08:43:38.45Z</time></trkpt><trkpt lat="44.1023571" lon="8.119122"><ele>274.0</ele><time>2026-04-28T08:43:39.451Z</time></trkpt><trkpt lat="44.1022692" lon="8.1190724"><ele>280.66666666666663</ele><time>2026-04-28T08:43:40.452Z</time></trkpt><trkpt lat="44.1021823" lon="8.1190121"><ele>287.3333333333333</ele><time>2026-04-28T08:43:41.452Z</time></trkpt><trkpt lat="44.1020997" lon="8.1189583"><ele>294.0</ele><time>2026-04-28T08:43:42.451Z</time></trkpt><trkpt lat="44.1020253" lon="8.11892"><ele>300.6666666666667</ele><time>2026-04-28T08:43:43.451Z</time></trkpt><trkpt lat="44.1019541" lon="8.1188881"><ele>307.33333333333337</ele><time>2026-04-28T08:43:44.452Z</time></trkpt><trkpt lat="44.101882" lon="8.1188829"><ele>314.0</ele><time>2026-04-28T08:43:45.452Z</time></trkpt><trkpt lat="44.1018094" lon="8.1189207"><ele>314.0</ele><time>2026-04-28T08:43:46.451Z</time></trkpt><trkpt lat="44.1017372" lon="8.1189914"><ele>314.0</ele><time>2026-04-28T08:43:47.451Z</time></trkpt><trkpt lat="44.1016576" lon="8.1190763"><ele>314.0</ele><time>2026-04-28T08:43:48.451Z</time></trkpt><trkpt lat="44.1015651" lon="8.1191652"><ele>314.0</ele><time>2026-04-28T08:43:49.451Z</time></trkpt><trkpt lat="44.1014716" lon="8.1192675"><ele>314.0</ele><time>2026-04-28T08:43:50.452Z</time></trkpt><trkpt lat="44.1013878" lon="8.1193676"><ele>307.4</ele><time>2026-04-28T08:43:51.452Z</time></trkpt><trkpt lat="44.1013113" lon="8.1194535"><ele>300.79999999999995</ele><time>2026-04-28T08:43:52.452Z</time></trkpt><trkpt lat="44.1012462" lon="8.1195201"><ele>294.20000000000005</ele><time>2026-04-28T08:43:53.452Z</time></trkpt><trkpt lat="44.1011399" lon="8.1195493"><ele>287.6</ele><time>2026-04-28T08:43:55.452Z</time></trkpt><trkpt lat="44.1011272" lon="8.1196445"><ele>281.0</ele><time>2026-04-28T08:43:58.452Z</time></trkpt><trkpt lat="44.1012508" lon="8.1196636"><ele>281.0</ele><time>2026-04-28T08:44:00.451Z</time></trkpt><trkpt lat="44.1013458" lon="8.1195932"><ele>281.0</ele><time>2026-04-28T08:44:01.452Z</time></trkpt><trkpt lat="44.1014439" lon="8.1195068"><ele>281.0</ele><time>2026-04-28T08:44:02.451Z</time></trkpt><trkpt lat="44.101548" lon="8.1194294"><ele>281.0</ele><time>2026-04-28T08:44:03.451Z</time></trkpt><trkpt lat="44.1016556" lon="8.1193508"><ele>278.40000000000003</ele><time>2026-04-28T08:44:04.451Z</time></trkpt><trkpt lat="44.1017544" lon="8.1192774"><ele>275.8</ele><time>2026-04-28T08:44:05.451Z</time></trkpt><trkpt lat="44.101842" lon="8.1192314"><ele>273.20000000000005</ele><time>2026-04-28T08:44:06.451Z</time></trkpt><trkpt lat="44.1019244" lon="8.1192253"><ele>270.6</ele><time>2026-04-28T08:44:07.452Z</time></trkpt><trkpt lat="44.1020034" lon="8.119269"><ele>268.0</ele><time>2026-04-28T08:44:08.452Z</time></trkpt><trkpt lat="44.1020827" lon="8.1193552"><ele>268.0</ele><time>2026-04-28T08:44:09.451Z</time></trkpt><trkpt lat="44.1021709" lon="8.1194517"><ele>268.0</ele><time>2026-04-28T08:44:10.451Z</time></trkpt><trkpt lat="44.1022722" lon="8.1195448"><ele>268.0</ele><time>2026-04-28T08:44:11.451Z</time></trkpt><trkpt lat="44.1023863" lon="8.1196721"><ele>268.0</ele><time>2026-04-28T08:44:12.451Z</time></trkpt><trkpt lat="44.1025005" lon="8.1198109"><ele>261.5</ele><time>2026-04-28T08:44:13.452Z</time></trkpt><trkpt lat="44.1025968" lon="8.1199511"><ele>255.0</ele><time>2026-04-28T08:44:14.452Z</time></trkpt><trkpt lat="44.1026818" lon="8.1200989"><ele>248.5</ele><time>2026-04-28T08:44:15.451Z</time></trkpt><trkpt lat="44.1027589" lon="8.120247"><ele>242.0</ele><time>2026-04-28T08:44:16.452Z</time></trkpt><trkpt lat="44.1028365" lon="8.1203909"><ele>242.0</ele><time>2026-04-28T08:44:17.451Z</time></trkpt><trkpt lat="44.1029142" lon="8.1205223"><ele>242.0</ele><time>2026-04-28T08:44:18.451Z</time></trkpt><trkpt lat="44.1029874" lon="8.1206184"><ele>242.0</ele><time>2026-04-28T08:44:19.451Z</time></trkpt><trkpt lat="44.1030873" lon="8.120621"><ele>242.0</ele><time>2026-04-28T08:44:20.452Z</time></trkpt><trkpt lat="44.1031894" lon="8.1205924"><ele>242.0</ele><time>2026-04-28T08:44:21.451Z</time></trkpt><trkpt lat="44.1033056" lon="8.1205587"><ele>244.75</ele><time>2026-04-28T08:44:22.451Z</time></trkpt><trkpt lat="44.103454" lon="8.1205208"><ele>247.5</ele><time>2026-04-28T08:44:23.452Z</time></trkpt><trkpt lat="44.1035968" lon="8.1204803"><ele>250.25</ele><time>2026-04-28T08:44:24.451Z</time></trkpt><trkpt lat="44.1037412" lon="8.1204245"><ele>253.0</ele><time>2026-04-28T08:44:25.45Z</time></trkpt><trkpt lat="44.1038898" lon="8.1203555"><ele>253.0</ele><time>2026-04-28T08:44:26.452Z</time></trkpt><trkpt lat="44.1040393" lon="8.1202719"><ele>253.0</ele><time>2026-04-28T08:44:27.451Z</time></trkpt><trkpt lat="44.1041813" lon="8.1201937"><ele>253.0</ele><time>2026-04-28T08:44:28.452Z</time></trkpt><trkpt lat="44.1043281" lon="8.1201213"><ele>246.66666666666666</ele><time>2026-04-28T08:44:29.45Z</time></trkpt><trkpt lat="44.1044735" lon="8.1200663"><ele>240.33333333333331</ele><time>2026-04-28T08:44:30.452Z</time></trkpt><trkpt lat="44.1046258" lon="8.1200203"><ele>234.0</ele><time>2026-04-28T08:44:31.45Z</time></trkpt><trkpt lat="44.1047737" lon="8.1199841"><ele>233.0</ele><time>2026-04-28T08:44:32.45Z</time></trkpt><trkpt lat="44.1049251" lon="8.1199459"><ele>232.0</ele><time>2026-04-28T08:44:33.451Z</time></trkpt><trkpt lat="44.1050691" lon="8.1198961"><ele>231.0</ele><time>2026-04-28T08:44:34.451Z</time></trkpt><trkpt lat="44.1052128" lon="8.1198365"><ele>231.0</ele><time>2026-04-28T08:44:35.451Z</time></trkpt><trkpt lat="44.1053524" lon="8.1197871"><ele>231.0</ele><time>2026-04-28T08:44:36.45Z</time></trkpt><trkpt lat="44.1054932" lon="8.1197662"><ele>231.0</ele><time>2026-04-28T08:44:37.452Z</time></trkpt><trkpt lat="44.1056347" lon="8.1197498"><ele>231.0</ele><time>2026-04-28T08:44:38.452Z</time></trkpt><trkpt lat="44.1057764" lon="8.119721"><ele>226.4</ele><time>2026-04-28T08:44:39.452Z</time></trkpt><trkpt lat="44.1059033" lon="8.1196688"><ele>221.8</ele><time>2026-04-28T08:44:40.45Z</time></trkpt><trkpt lat="44.1059971" lon="8.1195938"><ele>217.20000000000002</ele><time>2026-04-28T08:44:41.451Z</time></trkpt><trkpt lat="44.1060689" lon="8.1195258"><ele>212.60000000000002</ele><time>2026-04-28T08:44:42.45Z</time></trkpt><trkpt lat="44.106144" lon="8.1195138"><ele>208.0</ele><time>2026-04-28T08:44:43.452Z</time></trkpt><trkpt lat="44.1062007" lon="8.1195877"><ele>208.0</ele><time>2026-04-28T08:44:44.452Z</time></trkpt><trkpt lat="44.1062015" lon="8.1196896"><ele>208.0</ele><time>2026-04-28T08:44:45.452Z</time></trkpt><trkpt lat="44.1062121" lon="8.1197952"><ele>208.0</ele><time>2026-04-28T08:44:46.451Z</time></trkpt><trkpt lat="44.1061663" lon="8.1199143"><ele>208.0</ele><time>2026-04-28T08:44:47.451Z</time></trkpt><trkpt lat="44.1060935" lon="8.1199747"><ele>208.0</ele><time>2026-04-28T08:44:48.451Z</time></trkpt><trkpt lat="44.1059322" lon="8.1200806"><ele>208.25</ele><time>2026-04-28T08:44:49.451Z</time></trkpt><trkpt lat="44.1058525" lon="8.1201625"><ele>208.5</ele><time>2026-04-28T08:44:50.452Z</time></trkpt><trkpt lat="44.1057455" lon="8.1202395"><ele>208.75</ele><time>2026-04-28T08:44:51.452Z</time></trkpt><trkpt lat="44.105622" lon="8.120233"><ele>209.0</ele><time>2026-04-28T08:44:52.452Z</time></trkpt><trkpt lat="44.105493" lon="8.120257"><ele>209.0</ele><time>2026-04-28T08:44:53.452Z</time></trkpt><trkpt lat="44.1053901" lon="8.1203001"><ele>209.0</ele><time>2026-04-28T08:44:54.45Z</time></trkpt><trkpt lat="44.1052586" lon="8.1203579"><ele>209.0</ele><time>2026-04-28T08:44:55.452Z</time></trkpt><trkpt lat="44.1051427" lon="8.1204354"><ele>209.0</ele><time>2026-04-28T08:44:56.452Z</time></trkpt><trkpt lat="44.1050292" lon="8.12053"><ele>209.0</ele><time>2026-04-28T08:44:57.452Z</time></trkpt><trkpt lat="44.1049335" lon="8.1206571"><ele>209.0</ele><time>2026-04-28T08:44:58.451Z</time></trkpt><trkpt lat="44.1048412" lon="8.120805"><ele>209.0</ele><time>2026-04-28T08:44:59.451Z</time></trkpt><trkpt lat="44.1047644" lon="8.1209445"><ele>209.0</ele><time>2026-04-28T08:45:00.452Z</time></trkpt><trkpt lat="44.1046842" lon="8.1210801"><ele>206.25</ele><time>2026-04-28T08:45:01.452Z</time></trkpt><trkpt lat="44.1045954" lon="8.1212153"><ele>203.5</ele><time>2026-04-28T08:45:02.451Z</time></trkpt><trkpt lat="44.1045081" lon="8.1213325"><ele>200.75</ele><time>2026-04-28T08:45:03.451Z</time></trkpt><trkpt lat="44.104407" lon="8.1214618"><ele>198.0</ele><time>2026-04-28T08:45:04.452Z</time></trkpt><trkpt lat="44.1043134" lon="8.1215881"><ele>194.75</ele><time>2026-04-28T08:45:05.452Z</time></trkpt><trkpt lat="44.1042392" lon="8.1217322"><ele>191.5</ele><time>2026-04-28T08:45:06.45Z</time></trkpt><trkpt lat="44.1041599" lon="8.1218759"><ele>188.25</ele><time>2026-04-28T08:45:07.451Z</time></trkpt><trkpt lat="44.1040647" lon="8.1220051"><ele>185.0</ele><time>2026-04-28T08:45:08.451Z</time></trkpt><trkpt lat="44.1039636" lon="8.12211"><ele>185.0</ele><time>2026-04-28T08:45:09.451Z</time></trkpt><trkpt lat="44.1038399" lon="8.1222081"><ele>185.0</ele><time>2026-04-28T08:45:10.452Z</time></trkpt><trkpt lat="44.1037236" lon="8.1222959"><ele>185.0</ele><time>2026-04-28T08:45:11.452Z</time></trkpt><trkpt lat="44.1035911" lon="8.1224322"><ele>185.0</ele><time>2026-04-28T08:45:12.451Z</time></trkpt><trkpt lat="44.1034764" lon="8.1225239"><ele>176.25</ele><time>2026-04-28T08:45:13.452Z</time></trkpt><trkpt lat="44.1033517" lon="8.1225792"><ele>167.5</ele><time>2026-04-28T08:45:14.452Z</time></trkpt><trkpt lat="44.1032404" lon="8.1225938"><ele>158.75</ele><time>2026-04-28T08:45:15.451Z</time></trkpt><trkpt lat="44.1031306" lon="8.1225631"><ele>150.0</ele><time>2026-04-28T08:45:16.451Z</time></trkpt><trkpt lat="44.1030145" lon="8.1224959"><ele>154.5</ele><time>2026-04-28T08:45:17.452Z</time></trkpt><trkpt lat="44.1028943" lon="8.1224413"><ele>159.0</ele><time>2026-04-28T08:45:18.451Z</time></trkpt><trkpt lat="44.1027684" lon="8.1223939"><ele>163.5</ele><time>2026-04-28T08:45:19.451Z</time></trkpt><trkpt lat="44.1026507" lon="8.122317"><ele>168.0</ele><time>2026-04-28T08:45:20.451Z</time></trkpt><trkpt lat="44.102544" lon="8.12222"><ele>168.0</ele><time>2026-04-28T08:45:21.452Z</time></trkpt><trkpt lat="44.102432" lon="8.1221062"><ele>168.0</ele><time>2026-04-28T08:45:22.452Z</time></trkpt><trkpt lat="44.1023181" lon="8.1219902"><ele>168.0</ele><time>2026-04-28T08:45:23.451Z</time></trkpt><trkpt lat="44.1022107" lon="8.1218795"><ele>168.0</ele><time>2026-04-28T08:45:24.452Z</time></trkpt><trkpt lat="44.1021096" lon="8.1217803"><ele>162.6</ele><time>2026-04-28T08:45:25.452Z</time></trkpt><trkpt lat="44.1020294" lon="8.1217029"><ele>157.20000000000002</ele><time>2026-04-28T08:45:26.45Z</time></trkpt><trkpt lat="44.1019571" lon="8.1216424"><ele>151.8</ele><time>2026-04-28T08:45:27.451Z</time></trkpt><trkpt lat="44.1018312" lon="8.1216479"><ele>146.4</ele><time>2026-04-28T08:45:29.452Z</time></trkpt><trkpt lat="44.1017638" lon="8.1217089"><ele>141.0</ele><time>2026-04-28T08:45:30.452Z</time></trkpt><trkpt lat="44.1016766" lon="8.12175"><ele>136.75</ele><time>2026-04-28T08:45:31.452Z</time></trkpt><trkpt lat="44.101561" lon="8.1217837"><ele>132.5</ele><time>2026-04-28T08:45:32.452Z</time></trkpt><trkpt lat="44.1014285" lon="8.1217819"><ele>128.25</ele><time>2026-04-28T08:45:33.451Z</time></trkpt><trkpt lat="44.1012939" lon="8.1217877"><ele>124.0</ele><time>2026-04-28T08:45:34.451Z</time></trkpt><trkpt lat="44.1011569" lon="8.1217961"><ele>124.0</ele><time>2026-04-28T08:45:35.452Z</time></trkpt><trkpt lat="44.1010222" lon="8.1218085"><ele>124.0</ele><time>2026-04-28T08:45:36.452Z</time></trkpt><trkpt lat="44.1008916" lon="8.1218255"><ele>124.0</ele><time>2026-04-28T08:45:37.451Z</time></trkpt><trkpt lat="44.1007788" lon="8.1218594"><ele>124.0</ele><time>2026-04-28T08:45:38.45Z</time></trkpt><trkpt lat="44.1006782" lon="8.1219075"><ele>121.25</ele><time>2026-04-28T08:45:39.452Z</time></trkpt><trkpt lat="44.1005785" lon="8.1219516"><ele>118.5</ele><time>2026-04-28T08:45:40.452Z</time></trkpt><trkpt lat="44.1004688" lon="8.1219762"><ele>115.75</ele><time>2026-04-28T08:45:41.452Z</time></trkpt><trkpt lat="44.1003519" lon="8.1219761"><ele>113.0</ele><time>2026-04-28T08:45:42.452Z</time></trkpt><trkpt lat="44.1002348" lon="8.1219661"><ele>113.0</ele><time>2026-04-28T08:45:43.452Z</time></trkpt><trkpt lat="44.1001334" lon="8.121962"><ele>113.00000000000001</ele><time>2026-04-28T08:45:44.451Z</time></trkpt><trkpt lat="44.1000442" lon="8.1219811"><ele>113.00000000000001</ele><time>2026-04-28T08:45:45.452Z</time></trkpt><trkpt lat="44.0999683" lon="8.1220484"><ele>113.0</ele><time>2026-04-28T08:45:46.45Z</time></trkpt><trkpt lat="44.0999113" lon="8.1221616"><ele>113.0</ele><time>2026-04-28T08:45:47.452Z</time></trkpt><trkpt lat="44.0998405" lon="8.1222871"><ele>112.0</ele><time>2026-04-28T08:45:48.45Z</time></trkpt><trkpt lat="44.099754" lon="8.1224014"><ele>111.0</ele><time>2026-04-28T08:45:49.452Z</time></trkpt><trkpt lat="44.0996636" lon="8.122519"><ele>110.0</ele><time>2026-04-28T08:45:50.452Z</time></trkpt><trkpt lat="44.0995736" lon="8.1226417"><ele>109.0</ele><time>2026-04-28T08:45:51.451Z</time></trkpt><trkpt lat="44.0994915" lon="8.1227674"><ele>109.0</ele><time>2026-04-28T08:45:52.452Z</time></trkpt><trkpt lat="44.0994277" lon="8.1228999"><ele>109.0</ele><time>2026-04-28T08:45:53.452Z</time></trkpt><trkpt lat="44.0993872" lon="8.1230453"><ele>109.0</ele><time>2026-04-28T08:45:54.452Z</time></trkpt><trkpt lat="44.0993638" lon="8.1231791"><ele>109.0</ele><time>2026-04-28T08:45:55.452Z</time></trkpt><trkpt lat="44.0993309" lon="8.1233142"><ele>109.0</ele><time>2026-04-28T08:45:56.451Z</time></trkpt><trkpt lat="44.0992719" lon="8.1234303"><ele>109.6</ele><time>2026-04-28T08:45:57.452Z</time></trkpt><trkpt lat="44.0991999" lon="8.1235564"><ele>110.2</ele><time>2026-04-28T08:45:58.452Z</time></trkpt><trkpt lat="44.099137" lon="8.1236792"><ele>110.79999999999998</ele><time>2026-04-28T08:45:59.452Z</time></trkpt><trkpt lat="44.0990628" lon="8.1237926"><ele>111.39999999999999</ele><time>2026-04-28T08:46:00.451Z</time></trkpt><trkpt lat="44.0989741" lon="8.1238895"><ele>112.0</ele><time>2026-04-28T08:46:01.451Z</time></trkpt><trkpt lat="44.0988714" lon="8.1239322"><ele>112.00000000000001</ele><time>2026-04-28T08:46:02.452Z</time></trkpt><trkpt lat="44.098773" lon="8.1239373"><ele>112.0</ele><time>2026-04-28T08:46:03.452Z</time></trkpt><trkpt lat="44.0986714" lon="8.1239238"><ele>112.0</ele><time>2026-04-28T08:46:04.452Z</time></trkpt><trkpt lat="44.0985768" lon="8.1239081"><ele>112.0</ele><time>2026-04-28T08:46:05.45Z</time></trkpt><trkpt lat="44.0984976" lon="8.1239103"><ele>112.00000000000001</ele><time>2026-04-28T08:46:06.452Z</time></trkpt><trkpt lat="44.0984341" lon="8.1239463"><ele>112.0</ele><time>2026-04-28T08:46:07.452Z</time></trkpt><trkpt lat="44.098375" lon="8.1239889"><ele>108.0</ele><time>2026-04-28T08:46:08.451Z</time></trkpt><trkpt lat="44.0983698" lon="8.1241298"><ele>104.0</ele><time>2026-04-28T08:46:10.451Z</time></trkpt><trkpt lat="44.0984841" lon="8.1241506"><ele>100.0</ele><time>2026-04-28T08:46:11.452Z</time></trkpt><trkpt lat="44.0986609" lon="8.1240715"><ele>96.0</ele><time>2026-04-28T08:46:12.451Z</time></trkpt><trkpt lat="44.0987608" lon="8.1240885"><ele>96.0</ele><time>2026-04-28T08:46:13.45Z</time></trkpt><trkpt lat="44.0988604" lon="8.1240929"><ele>96.0</ele><time>2026-04-28T08:46:14.452Z</time></trkpt><trkpt lat="44.0989568" lon="8.1241183"><ele>96.0</ele><time>2026-04-28T08:46:15.452Z</time></trkpt><trkpt lat="44.0990367" lon="8.1241834"><ele>96.0</ele><time>2026-04-28T08:46:16.451Z</time></trkpt><trkpt lat="44.0991" lon="8.124273"><ele>96.0</ele><time>2026-04-28T08:46:17.452Z</time></trkpt><trkpt lat="44.0991362" lon="8.1243719"><ele>96.0</ele><time>2026-04-28T08:46:18.452Z</time></trkpt><trkpt lat="44.0991686" lon="8.1244572"><ele>96.0</ele><time>2026-04-28T08:46:19.451Z</time></trkpt><trkpt lat="44.099171" lon="8.1246059"><ele>96.0</ele><time>2026-04-28T08:46:21.452Z</time></trkpt><trkpt lat="44.0991257" lon="8.1246915"><ele>96.0</ele><time>2026-04-28T08:46:22.451Z</time></trkpt><trkpt lat="44.0990588" lon="8.1247795"><ele>96.0</ele><time>2026-04-28T08:46:23.452Z</time></trkpt><trkpt lat="44.0989719" lon="8.1248825"><ele>95.0</ele><time>2026-04-28T08:46:24.451Z</time></trkpt><trkpt lat="44.098879" lon="8.1249919"><ele>94.0</ele><time>2026-04-28T08:46:25.451Z</time></trkpt><trkpt lat="44.098778" lon="8.1251091"><ele>93.0</ele><time>2026-04-28T08:46:26.451Z</time></trkpt><trkpt lat="44.0986483" lon="8.1252078"><ele>92.0</ele><time>2026-04-28T08:46:27.451Z</time></trkpt><trkpt lat="44.0985026" lon="8.1252665"><ele>92.0</ele><time>2026-04-28T08:46:28.452Z</time></trkpt><trkpt lat="44.0983519" lon="8.1252979"><ele>92.0</ele><time>2026-04-28T08:46:29.452Z</time></trkpt><trkpt lat="44.0981876" lon="8.1253031"><ele>92.0</ele><time>2026-04-28T08:46:30.452Z</time></trkpt><trkpt lat="44.0980371" lon="8.1252728"><ele>92.25</ele><time>2026-04-28T08:46:31.452Z</time></trkpt><trkpt lat="44.0978919" lon="8.1252284"><ele>92.5</ele><time>2026-04-28T08:46:32.451Z</time></trkpt><trkpt lat="44.097757" lon="8.1251803"><ele>92.75</ele><time>2026-04-28T08:46:33.452Z</time></trkpt><trkpt lat="44.0976327" lon="8.1251439"><ele>93.0</ele><time>2026-04-28T08:46:34.452Z</time></trkpt><trkpt lat="44.0975077" lon="8.1251174"><ele>90.75</ele><time>2026-04-28T08:46:35.452Z</time></trkpt><trkpt lat="44.0973902" lon="8.1251022"><ele>88.5</ele><time>2026-04-28T08:46:36.451Z</time></trkpt><trkpt lat="44.0972758" lon="8.1251185"><ele>86.25</ele><time>2026-04-28T08:46:37.451Z</time></trkpt><trkpt lat="44.0971668" lon="8.1251641"><ele>84.0</ele><time>2026-04-28T08:46:38.451Z</time></trkpt><trkpt lat="44.0970583" lon="8.1252473"><ele>84.0</ele><time>2026-04-28T08:46:39.452Z</time></trkpt><trkpt lat="44.0969611" lon="8.125349"><ele>84.0</ele><time>2026-04-28T08:46:40.451Z</time></trkpt><trkpt lat="44.0968685" lon="8.1254753"><ele>84.0</ele><time>2026-04-28T08:46:41.45Z</time></trkpt><trkpt lat="44.0967737" lon="8.1256114"><ele>84.0</ele><time>2026-04-28T08:46:42.451Z</time></trkpt><trkpt lat="44.096679" lon="8.125751"><ele>84.33333333333333</ele><time>2026-04-28T08:46:43.452Z</time></trkpt><trkpt lat="44.0965857" lon="8.1259064"><ele>84.66666666666666</ele><time>2026-04-28T08:46:44.452Z</time></trkpt><trkpt lat="44.096486" lon="8.1260879"><ele>85.0</ele><time>2026-04-28T08:46:45.451Z</time></trkpt><trkpt lat="44.0963809" lon="8.1262752"><ele>85.0</ele><time>2026-04-28T08:46:46.451Z</time></trkpt><trkpt lat="44.096273" lon="8.1264685"><ele>85.0</ele><time>2026-04-28T08:46:47.452Z</time></trkpt><trkpt lat="44.0961571" lon="8.1266589"><ele>85.0</ele><time>2026-04-28T08:46:48.452Z</time></trkpt><trkpt lat="44.096049" lon="8.1268524"><ele>84.0</ele><time>2026-04-28T08:46:49.452Z</time></trkpt><trkpt lat="44.0959368" lon="8.1270382"><ele>83.0</ele><time>2026-04-28T08:46:50.452Z</time></trkpt><trkpt lat="44.0958226" lon="8.1272161"><ele>82.0</ele><time>2026-04-28T08:46:51.451Z</time></trkpt><trkpt lat="44.0956962" lon="8.1273673"><ele>80.33333333333333</ele><time>2026-04-28T08:46:52.451Z</time></trkpt><trkpt lat="44.0955619" lon="8.1274974"><ele>78.66666666666667</ele><time>2026-04-28T08:46:53.451Z</time></trkpt><trkpt lat="44.0954166" lon="8.1275941"><ele>77.0</ele><time>2026-04-28T08:46:54.452Z</time></trkpt><trkpt lat="44.0952644" lon="8.127677"><ele>77.0</ele><time>2026-04-28T08:46:55.452Z</time></trkpt><trkpt lat="44.0951102" lon="8.1277646"><ele>77.0</ele><time>2026-04-28T08:46:56.451Z</time></trkpt><trkpt lat="44.0949509" lon="8.1278412"><ele>77.0</ele><time>2026-04-28T08:46:57.452Z</time></trkpt><trkpt lat="44.094788" lon="8.1279122"><ele>76.66666666666667</ele><time>2026-04-28T08:46:58.45Z</time></trkpt><trkpt lat="44.0946157" lon="8.1279667"><ele>76.33333333333333</ele><time>2026-04-28T08:46:59.452Z</time></trkpt><trkpt lat="44.0944418" lon="8.1279946"><ele>76.0</ele><time>2026-04-28T08:47:00.452Z</time></trkpt><trkpt lat="44.0942671" lon="8.1279926"><ele>76.0</ele><time>2026-04-28T08:47:01.452Z</time></trkpt><trkpt lat="44.0940888" lon="8.1279685"><ele>76.0</ele><time>2026-04-28T08:47:02.452Z</time></trkpt><trkpt lat="44.0939137" lon="8.127943"><ele>76.0</ele><time>2026-04-28T08:47:03.451Z</time></trkpt><trkpt lat="44.0937422" lon="8.1279303"><ele>76.0</ele><time>2026-04-28T08:47:04.451Z</time></trkpt><trkpt lat="44.0935818" lon="8.1279486"><ele>76.0</ele><time>2026-04-28T08:47:05.452Z</time></trkpt><trkpt lat="44.0934382" lon="8.1279803"><ele>76.0</ele><time>2026-04-28T08:47:06.452Z</time></trkpt><trkpt lat="44.0933104" lon="8.1280164"><ele>76.0</ele><time>2026-04-28T08:47:07.451Z</time></trkpt><trkpt lat="44.0932153" lon="8.128042"><ele>75.66666666666666</ele><time>2026-04-28T08:47:08.451Z</time></trkpt><trkpt lat="44.093128" lon="8.1280642"><ele>75.33333333333333</ele><time>2026-04-28T08:47:09.452Z</time></trkpt><trkpt lat="44.0930514" lon="8.1280881"><ele>75.0</ele><time>2026-04-28T08:47:10.452Z</time></trkpt><trkpt lat="44.0929726" lon="8.128115"><ele>74.66666666666667</ele><time>2026-04-28T08:47:11.452Z</time></trkpt><trkpt lat="44.0929099" lon="8.1281331"><ele>74.33333333333334</ele><time>2026-04-28T08:47:12.451Z</time></trkpt><trkpt lat="44.0927971" lon="8.128172"><ele>74.0</ele><time>2026-04-28T08:47:14.452Z</time></trkpt><trkpt lat="44.0927046" lon="8.1282057"><ele>74.0</ele><time>2026-04-28T08:47:16.451Z</time></trkpt><trkpt lat="44.0926189" lon="8.1281422"><ele>74.0</ele><time>2026-04-28T08:47:18.452Z</time></trkpt><trkpt lat="44.092604" lon="8.1280563"><ele>74.0</ele><time>2026-04-28T08:47:19.452Z</time></trkpt><trkpt lat="44.0925831" lon="8.12797"><ele>74.0</ele><time>2026-04-28T08:47:20.451Z</time></trkpt><trkpt lat="44.0924727" lon="8.1278731"><ele>74.0</ele><time>2026-04-28T08:47:22.451Z</time></trkpt><trkpt lat="44.0923809" lon="8.1278625"><ele>74.0</ele><time>2026-04-28T08:47:23.451Z</time></trkpt><trkpt lat="44.0922742" lon="8.1278505"><ele>73.60000000000001</ele><time>2026-04-28T08:47:24.451Z</time></trkpt><trkpt lat="44.0921745" lon="8.1278443"><ele>73.2</ele><time>2026-04-28T08:47:25.452Z</time></trkpt><trkpt lat="44.0920674" lon="8.1278582"><ele>72.80000000000001</ele><time>2026-04-28T08:47:26.45Z</time></trkpt><trkpt lat="44.0919547" lon="8.1278848"><ele>72.4</ele><time>2026-04-28T08:47:27.452Z</time></trkpt><trkpt lat="44.0918352" lon="8.127914"><ele>72.0</ele><time>2026-04-28T08:47:28.452Z</time></trkpt><trkpt lat="44.0917258" lon="8.1279222"><ele>72.0</ele><time>2026-04-28T08:47:29.451Z</time></trkpt><trkpt lat="44.0916145" lon="8.1279051"><ele>72.0</ele><time>2026-04-28T08:47:30.452Z</time></trkpt><trkpt lat="44.0915014" lon="8.1278498"><ele>72.0</ele><time>2026-04-28T08:47:31.452Z</time></trkpt><trkpt lat="44.0913947" lon="8.1277588"><ele>72.0</ele><time>2026-04-28T08:47:32.452Z</time></trkpt><trkpt lat="44.0912863" lon="8.1276669"><ele>71.5</ele><time>2026-04-28T08:47:33.452Z</time></trkpt><trkpt lat="44.0911801" lon="8.1275932"><ele>71.0</ele><time>2026-04-28T08:47:34.451Z</time></trkpt><trkpt lat="44.0910648" lon="8.1275317"><ele>70.5</ele><time>2026-04-28T08:47:35.451Z</time></trkpt><trkpt lat="44.0909443" lon="8.1274826"><ele>70.0</ele><time>2026-04-28T08:47:36.451Z</time></trkpt><trkpt lat="44.0908227" lon="8.1274541"><ele>70.0</ele><time>2026-04-28T08:47:37.452Z</time></trkpt><trkpt lat="44.090701" lon="8.1274571"><ele>70.0</ele><time>2026-04-28T08:47:38.452Z</time></trkpt><trkpt lat="44.0905784" lon="8.1274777"><ele>70.0</ele><time>2026-04-28T08:47:39.451Z</time></trkpt><trkpt lat="44.0904556" lon="8.1275143"><ele>70.0</ele><time>2026-04-28T08:47:40.452Z</time></trkpt><trkpt lat="44.0903459" lon="8.1275505"><ele>70.0</ele><time>2026-04-28T08:47:41.452Z</time></trkpt><trkpt lat="44.0902293" lon="8.1275823"><ele>70.0</ele><time>2026-04-28T08:47:42.452Z</time></trkpt><trkpt lat="44.0901113" lon="8.1275991"><ele>70.0</ele><time>2026-04-28T08:47:43.451Z</time></trkpt><trkpt lat="44.0900037" lon="8.1275828"><ele>70.0</ele><time>2026-04-28T08:47:44.451Z</time></trkpt><trkpt lat="44.0899133" lon="8.1275256"><ele>70.0</ele><time>2026-04-28T08:47:45.451Z</time></trkpt><trkpt lat="44.0898297" lon="8.1274959"><ele>77.5</ele><time>2026-04-28T08:47:46.452Z</time></trkpt><trkpt lat="44.0897542" lon="8.127503"><ele>85.0</ele><time>2026-04-28T08:47:47.451Z</time></trkpt><trkpt lat="44.089682" lon="8.1275391"><ele>92.5</ele><time>2026-04-28T08:47:48.452Z</time></trkpt><trkpt lat="44.0896469" lon="8.1276872"><ele>100.0</ele><time>2026-04-28T08:47:50.451Z</time></trkpt><trkpt lat="44.0896883" lon="8.1277881"><ele>107.50000000000001</ele><time>2026-04-28T08:47:51.451Z</time></trkpt><trkpt lat="44.0897196" lon="8.1279221"><ele>115.0</ele><time>2026-04-28T08:47:52.452Z</time></trkpt><trkpt lat="44.0897557" lon="8.1280763"><ele>116.5</ele><time>2026-04-28T08:47:53.452Z</time></trkpt><trkpt lat="44.0897924" lon="8.1282288"><ele>118.0</ele><time>2026-04-28T08:47:54.452Z</time></trkpt><trkpt lat="44.0898285" lon="8.1283991"><ele>119.5</ele><time>2026-04-28T08:47:55.451Z</time></trkpt><trkpt lat="44.089867" lon="8.1285698"><ele>121.0</ele><time>2026-04-28T08:47:56.452Z</time></trkpt><trkpt lat="44.0899076" lon="8.1287512"><ele>114.00000000000001</ele><time>2026-04-28T08:47:57.452Z</time></trkpt><trkpt lat="44.0899471" lon="8.1289101"><ele>107.0</ele><time>2026-04-28T08:47:58.452Z</time></trkpt><trkpt lat="44.0899776" lon="8.1290328"><ele>100.0</ele><time>2026-04-28T08:47:59.452Z</time></trkpt><trkpt lat="44.0899994" lon="8.1291382"><ele>93.0</ele><time>2026-04-28T08:48:00.452Z</time></trkpt><trkpt lat="44.0900213" lon="8.129228"><ele>86.0</ele><time>2026-04-28T08:48:01.451Z</time></trkpt><trkpt lat="44.0900405" lon="8.1293334"><ele>79.0</ele><time>2026-04-28T08:48:02.451Z</time></trkpt><trkpt lat="44.090053" lon="8.129437"><ele>79.00000000000001</ele><time>2026-04-28T08:48:03.451Z</time></trkpt><trkpt lat="44.0900657" lon="8.129547"><ele>79.0</ele><time>2026-04-28T08:48:04.45Z</time></trkpt><trkpt lat="44.0900667" lon="8.1296517"><ele>79.0</ele><time>2026-04-28T08:48:05.452Z</time></trkpt><trkpt lat="44.0900519" lon="8.1297469"><ele>79.0</ele><time>2026-04-28T08:48:06.451Z</time></trkpt><trkpt lat="44.0900392" lon="8.1298434"><ele>79.0</ele><time>2026-04-28T08:48:07.451Z</time></trkpt><trkpt lat="44.0900648" lon="8.1299346"><ele>79.00000000000001</ele><time>2026-04-28T08:48:08.452Z</time></trkpt><trkpt lat="44.0901263" lon="8.1300094"><ele>79.0</ele><time>2026-04-28T08:48:09.452Z</time></trkpt><trkpt lat="44.0901928" lon="8.1300791"><ele>79.0</ele><time>2026-04-28T08:48:10.451Z</time></trkpt><trkpt lat="44.0902528" lon="8.1301667"><ele>79.0</ele><time>2026-04-28T08:48:11.451Z</time></trkpt><trkpt lat="44.0902961" lon="8.1302622"><ele>79.0</ele><time>2026-04-28T08:48:12.451Z</time></trkpt><trkpt lat="44.0903136" lon="8.1303721"><ele>79.0</ele><time>2026-04-28T08:48:13.451Z</time></trkpt><trkpt lat="44.0903147" lon="8.1304997"><ele>79.0</ele><time>2026-04-28T08:48:14.45Z</time></trkpt><trkpt lat="44.0902969" lon="8.1306417"><ele>79.0</ele><time>2026-04-28T08:48:15.452Z</time></trkpt><trkpt lat="44.0902612" lon="8.1308032"><ele>78.25</ele><time>2026-04-28T08:48:16.452Z</time></trkpt><trkpt lat="44.0902276" lon="8.1309663"><ele>77.5</ele><time>2026-04-28T08:48:17.452Z</time></trkpt><trkpt lat="44.0901973" lon="8.1311401"><ele>76.75</ele><time>2026-04-28T08:48:18.452Z</time></trkpt><trkpt lat="44.0901549" lon="8.1313255"><ele>76.0</ele><time>2026-04-28T08:48:19.452Z</time></trkpt><trkpt lat="44.0901143" lon="8.1315084"><ele>75.25</ele><time>2026-04-28T08:48:20.451Z</time></trkpt><trkpt lat="44.0900789" lon="8.1316907"><ele>74.5</ele><time>2026-04-28T08:48:21.452Z</time></trkpt><trkpt lat="44.0900435" lon="8.1318514"><ele>73.75</ele><time>2026-04-28T08:48:22.452Z</time></trkpt><trkpt lat="44.0900121" lon="8.1319881"><ele>73.0</ele><time>2026-04-28T08:48:23.452Z</time></trkpt><trkpt lat="44.0899752" lon="8.1321033"><ele>74.83333333333333</ele><time>2026-04-28T08:48:24.452Z</time></trkpt><trkpt lat="44.0899199" lon="8.1321754"><ele>76.66666666666666</ele><time>2026-04-28T08:48:25.452Z</time></trkpt><trkpt lat="44.0898484" lon="8.1321903"><ele>78.5</ele><time>2026-04-28T08:48:26.451Z</time></trkpt><trkpt lat="44.0897801" lon="8.1321621"><ele>80.33333333333333</ele><time>2026-04-28T08:48:27.451Z</time></trkpt><trkpt lat="44.0896952" lon="8.1320996"><ele>82.16666666666667</ele><time>2026-04-28T08:48:28.451Z</time></trkpt><trkpt lat="44.0896047" lon="8.1320252"><ele>84.0</ele><time>2026-04-28T08:48:29.451Z</time></trkpt><trkpt lat="44.0895155" lon="8.1319533"><ele>84.0</ele><time>2026-04-28T08:48:30.451Z</time></trkpt><trkpt lat="44.0894284" lon="8.1318837"><ele>84.0</ele><time>2026-04-28T08:48:31.452Z</time></trkpt><trkpt lat="44.0893557" lon="8.1318278"><ele>84.0</ele><time>2026-04-28T08:48:32.451Z</time></trkpt><trkpt lat="44.0892907" lon="8.1318178"><ele>84.0</ele><time>2026-04-28T08:48:33.452Z</time></trkpt><trkpt lat="44.0892262" lon="8.1318479"><ele>84.0</ele><time>2026-04-28T08:48:34.452Z</time></trkpt><trkpt lat="44.0891716" lon="8.1319043"><ele>84.0</ele><time>2026-04-28T08:48:35.451Z</time></trkpt><trkpt lat="44.0891068" lon="8.1319803"><ele>85.83333333333333</ele><time>2026-04-28T08:48:36.451Z</time></trkpt><trkpt lat="44.0890391" lon="8.1320657"><ele>87.66666666666667</ele><time>2026-04-28T08:48:37.452Z</time></trkpt><trkpt lat="44.0889683" lon="8.1321525"><ele>89.5</ele><time>2026-04-28T08:48:38.451Z</time></trkpt><trkpt lat="44.088904" lon="8.132228"><ele>91.33333333333334</ele><time>2026-04-28T08:48:39.452Z</time></trkpt><trkpt lat="44.0888391" lon="8.1322828"><ele>93.16666666666667</ele><time>2026-04-28T08:48:40.452Z</time></trkpt><trkpt lat="44.0887813" lon="8.1323412"><ele>95.0</ele><time>2026-04-28T08:48:42.452Z</time></trkpt><trkpt lat="44.0887034" lon="8.1324664"><ele>95.0</ele><time>2026-04-28T08:48:44.452Z</time></trkpt><trkpt lat="44.0886705" lon="8.1326183"><ele>95.0</ele><time>2026-04-28T08:48:45.452Z</time></trkpt><trkpt lat="44.0886319" lon="8.1327533"><ele>95.0</ele><time>2026-04-28T08:48:46.452Z</time></trkpt><trkpt lat="44.0886085" lon="8.1329025"><ele>95.0</ele><time>2026-04-28T08:48:47.452Z</time></trkpt><trkpt lat="44.0885847" lon="8.1330772"><ele>94.75</ele><time>2026-04-28T08:48:48.452Z</time></trkpt><trkpt lat="44.0885663" lon="8.1332604"><ele>94.5</ele><time>2026-04-28T08:48:49.451Z</time></trkpt><trkpt lat="44.0885448" lon="8.1334481"><ele>94.25</ele><time>2026-04-28T08:48:50.452Z</time></trkpt><trkpt lat="44.0885227" lon="8.1336255"><ele>94.0</ele><time>2026-04-28T08:48:51.451Z</time></trkpt><trkpt lat="44.088508" lon="8.1337998"><ele>94.0</ele><time>2026-04-28T08:48:52.452Z</time></trkpt><trkpt lat="44.0885081" lon="8.1339726"><ele>94.0</ele><time>2026-04-28T08:48:53.451Z</time></trkpt><trkpt lat="44.0885318" lon="8.1341493"><ele>94.0</ele><time>2026-04-28T08:48:54.451Z</time></trkpt><trkpt lat="44.0885664" lon="8.1343253"><ele>94.0</ele><time>2026-04-28T08:48:55.451Z</time></trkpt><trkpt lat="44.0886076" lon="8.1345067"><ele>93.0</ele><time>2026-04-28T08:48:56.452Z</time></trkpt><trkpt lat="44.0886571" lon="8.1346908"><ele>92.0</ele><time>2026-04-28T08:48:57.451Z</time></trkpt><trkpt lat="44.0886951" lon="8.134883"><ele>91.0</ele><time>2026-04-28T08:48:58.452Z</time></trkpt><trkpt lat="44.0887283" lon="8.135082"><ele>90.0</ele><time>2026-04-28T08:48:59.452Z</time></trkpt><trkpt lat="44.0887545" lon="8.1352877"><ele>87.33333333333333</ele><time>2026-04-28T08:49:00.451Z</time></trkpt><trkpt lat="44.0887829" lon="8.1355049"><ele>84.66666666666666</ele><time>2026-04-28T08:49:01.451Z</time></trkpt><trkpt lat="44.0888092" lon="8.135723"><ele>82.0</ele><time>2026-04-28T08:49:02.451Z</time></trkpt><trkpt lat="44.0888294" lon="8.1359312"><ele>80.75</ele><time>2026-04-28T08:49:03.45Z</time></trkpt><trkpt lat="44.0888285" lon="8.1361341"><ele>79.5</ele><time>2026-04-28T08:49:04.452Z</time></trkpt><trkpt lat="44.0887947" lon="8.1363329"><ele>78.25</ele><time>2026-04-28T08:49:05.452Z</time></trkpt><trkpt lat="44.0887256" lon="8.1365099"><ele>77.0</ele><time>2026-04-28T08:49:06.451Z</time></trkpt><trkpt lat="44.0886339" lon="8.1366703"><ele>76.0</ele><time>2026-04-28T08:49:07.451Z</time></trkpt><trkpt lat="44.0885544" lon="8.136846"><ele>75.0</ele><time>2026-04-28T08:49:08.45Z</time></trkpt><trkpt lat="44.0885046" lon="8.1370243"><ele>74.0</ele><time>2026-04-28T08:49:09.451Z</time></trkpt><trkpt lat="44.0884749" lon="8.1372599"><ele>70.66666666666667</ele><time>2026-04-28T08:49:10.452Z</time></trkpt><trkpt lat="44.0884131" lon="8.1374656"><ele>67.33333333333333</ele><time>2026-04-28T08:49:11.451Z</time></trkpt><trkpt lat="44.0883545" lon="8.1376729"><ele>64.0</ele><time>2026-04-28T08:49:12.45Z</time></trkpt><trkpt lat="44.0882964" lon="8.1378904"><ele>74.0</ele><time>2026-04-28T08:49:13.451Z</time></trkpt><trkpt lat="44.0882353" lon="8.1381079"><ele>84.0</ele><time>2026-04-28T08:49:14.452Z</time></trkpt><trkpt lat="44.0881615" lon="8.1383262"><ele>94.0</ele><time>2026-04-28T08:49:15.452Z</time></trkpt><trkpt lat="44.0880876" lon="8.1385372"><ele>94.0</ele><time>2026-04-28T08:49:16.452Z</time></trkpt><trkpt lat="44.0880113" lon="8.1387505"><ele>94.0</ele><time>2026-04-28T08:49:17.451Z</time></trkpt><trkpt lat="44.0879453" lon="8.1389617"><ele>94.0</ele><time>2026-04-28T08:49:18.451Z</time></trkpt><trkpt lat="44.0878877" lon="8.1391668"><ele>89.25</ele><time>2026-04-28T08:49:19.451Z</time></trkpt><trkpt lat="44.0878353" lon="8.1393607"><ele>84.5</ele><time>2026-04-28T08:49:20.452Z</time></trkpt><trkpt lat="44.0877789" lon="8.1395353"><ele>79.75</ele><time>2026-04-28T08:49:21.451Z</time></trkpt><trkpt lat="44.0877329" lon="8.1397167"><ele>75.0</ele><time>2026-04-28T08:49:22.452Z</time></trkpt><trkpt lat="44.0877021" lon="8.1399058"><ele>73.5</ele><time>2026-04-28T08:49:23.452Z</time></trkpt><trkpt lat="44.0876898" lon="8.1401001"><ele>72.0</ele><time>2026-04-28T08:49:24.451Z</time></trkpt><trkpt lat="44.0876952" lon="8.1403076"><ele>70.5</ele><time>2026-04-28T08:49:25.452Z</time></trkpt><trkpt lat="44.0877073" lon="8.1405153"><ele>69.0</ele><time>2026-04-28T08:49:26.452Z</time></trkpt><trkpt lat="44.0877199" lon="8.1407062"><ele>68.75</ele><time>2026-04-28T08:49:27.452Z</time></trkpt><trkpt lat="44.0877344" lon="8.1408865"><ele>68.5</ele><time>2026-04-28T08:49:28.452Z</time></trkpt><trkpt lat="44.0877505" lon="8.1410558"><ele>68.25</ele><time>2026-04-28T08:49:29.452Z</time></trkpt><trkpt lat="44.0877603" lon="8.1412135"><ele>68.0</ele><time>2026-04-28T08:49:30.452Z</time></trkpt><trkpt lat="44.0877594" lon="8.1413669"><ele>68.0</ele><time>2026-04-28T08:49:31.452Z</time></trkpt><trkpt lat="44.0877444" lon="8.1415171"><ele>68.0</ele><time>2026-04-28T08:49:32.452Z</time></trkpt><trkpt lat="44.0877156" lon="8.141662"><ele>68.0</ele><time>2026-04-28T08:49:33.451Z</time></trkpt><trkpt lat="44.087692" lon="8.1418005"><ele>68.0</ele><time>2026-04-28T08:49:34.451Z</time></trkpt><trkpt lat="44.0876642" lon="8.1419501"><ele>68.0</ele><time>2026-04-28T08:49:35.451Z</time></trkpt><trkpt lat="44.0876278" lon="8.1421074"><ele>68.0</ele><time>2026-04-28T08:49:36.45Z</time></trkpt><trkpt lat="44.0875802" lon="8.1422642"><ele>68.0</ele><time>2026-04-28T08:49:37.451Z</time></trkpt><trkpt lat="44.0875205" lon="8.1424198"><ele>68.0</ele><time>2026-04-28T08:49:38.452Z</time></trkpt><trkpt lat="44.0874503" lon="8.1425502"><ele>68.0</ele><time>2026-04-28T08:49:39.452Z</time></trkpt><trkpt lat="44.0873613" lon="8.1426683"><ele>73.5</ele><time>2026-04-28T08:49:40.451Z</time></trkpt><trkpt lat="44.0872586" lon="8.1427731"><ele>79.0</ele><time>2026-04-28T08:49:41.45Z</time></trkpt><trkpt lat="44.0871545" lon="8.1428829"><ele>84.5</ele><time>2026-04-28T08:49:42.451Z</time></trkpt><trkpt lat="44.0870511" lon="8.1429977"><ele>90.0</ele><time>2026-04-28T08:49:43.452Z</time></trkpt><trkpt lat="44.0869475" lon="8.1431139"><ele>91.75</ele><time>2026-04-28T08:49:44.451Z</time></trkpt><trkpt lat="44.0868433" lon="8.1432417"><ele>93.5</ele><time>2026-04-28T08:49:45.451Z</time></trkpt><trkpt lat="44.0867359" lon="8.1433794"><ele>95.25</ele><time>2026-04-28T08:49:46.451Z</time></trkpt><trkpt lat="44.0866361" lon="8.1435363"><ele>97.0</ele><time>2026-04-28T08:49:47.451Z</time></trkpt><trkpt lat="44.0865299" lon="8.1436976"><ele>97.0</ele><time>2026-04-28T08:49:48.452Z</time></trkpt><trkpt lat="44.0864232" lon="8.1438577"><ele>97.0</ele><time>2026-04-28T08:49:49.452Z</time></trkpt><trkpt lat="44.0863144" lon="8.1440168"><ele>97.0</ele><time>2026-04-28T08:49:50.451Z</time></trkpt><trkpt lat="44.0862064" lon="8.1441698"><ele>91.0</ele><time>2026-04-28T08:49:51.451Z</time></trkpt><trkpt lat="44.086103" lon="8.1443162"><ele>85.0</ele><time>2026-04-28T08:49:52.452Z</time></trkpt><trkpt lat="44.0860068" lon="8.1444598"><ele>79.0</ele><time>2026-04-28T08:49:53.452Z</time></trkpt><trkpt lat="44.0859128" lon="8.1446019"><ele>73.0</ele><time>2026-04-28T08:49:54.451Z</time></trkpt><trkpt lat="44.085821" lon="8.1447411"><ele>78.25</ele><time>2026-04-28T08:49:55.452Z</time></trkpt><trkpt lat="44.0857325" lon="8.1448847"><ele>83.5</ele><time>2026-04-28T08:49:56.452Z</time></trkpt><trkpt lat="44.0856403" lon="8.1450273"><ele>88.75</ele><time>2026-04-28T08:49:57.451Z</time></trkpt><trkpt lat="44.0855513" lon="8.1451765"><ele>94.0</ele><time>2026-04-28T08:49:58.451Z</time></trkpt><trkpt lat="44.0854685" lon="8.1453287"><ele>94.0</ele><time>2026-04-28T08:49:59.452Z</time></trkpt><trkpt lat="44.0853804" lon="8.1454798"><ele>94.0</ele><time>2026-04-28T08:50:00.451Z</time></trkpt><trkpt lat="44.0852884" lon="8.1456374"><ele>94.0</ele><time>2026-04-28T08:50:01.452Z</time></trkpt><trkpt lat="44.0852019" lon="8.1457998"><ele>94.0</ele><time>2026-04-28T08:50:02.451Z</time></trkpt><trkpt lat="44.0851117" lon="8.1459684"><ele>91.5</ele><time>2026-04-28T08:50:03.451Z</time></trkpt><trkpt lat="44.085026" lon="8.1461392"><ele>89.0</ele><time>2026-04-28T08:50:04.452Z</time></trkpt><trkpt lat="44.0849285" lon="8.146304"><ele>86.5</ele><time>2026-04-28T08:50:05.451Z</time></trkpt><trkpt lat="44.0848397" lon="8.1464591"><ele>84.0</ele><time>2026-04-28T08:50:06.451Z</time></trkpt><trkpt lat="44.0847628" lon="8.1466051"><ele>84.0</ele><time>2026-04-28T08:50:07.452Z</time></trkpt><trkpt lat="44.0846839" lon="8.1467201"><ele>84.0</ele><time>2026-04-28T08:50:08.452Z</time></trkpt><trkpt lat="44.0845863" lon="8.1468087"><ele>84.0</ele><time>2026-04-28T08:50:09.452Z</time></trkpt><trkpt lat="44.0844808" lon="8.14689"><ele>84.0</ele><time>2026-04-28T08:50:10.451Z</time></trkpt><trkpt lat="44.0843625" lon="8.1469577"><ele>84.0</ele><time>2026-04-28T08:50:11.451Z</time></trkpt><trkpt lat="44.084244" lon="8.1470232"><ele>84.0</ele><time>2026-04-28T08:50:12.452Z</time></trkpt><trkpt lat="44.0841113" lon="8.1471022"><ele>84.0</ele><time>2026-04-28T08:50:13.452Z</time></trkpt><trkpt lat="44.0839819" lon="8.1471729"><ele>84.0</ele><time>2026-04-28T08:50:14.45Z</time></trkpt><trkpt lat="44.0838434" lon="8.147243"><ele>82.5</ele><time>2026-04-28T08:50:15.451Z</time></trkpt><trkpt lat="44.083714" lon="8.1473228"><ele>81.0</ele><time>2026-04-28T08:50:16.452Z</time></trkpt><trkpt lat="44.0835796" lon="8.1474368"><ele>79.5</ele><time>2026-04-28T08:50:17.452Z</time></trkpt><trkpt lat="44.0834609" lon="8.1475646"><ele>78.0</ele><time>2026-04-28T08:50:18.45Z</time></trkpt><trkpt lat="44.0833585" lon="8.1476923"><ele>78.0</ele><time>2026-04-28T08:50:19.451Z</time></trkpt><trkpt lat="44.083273" lon="8.1478366"><ele>78.0</ele><time>2026-04-28T08:50:20.451Z</time></trkpt><trkpt lat="44.0831873" lon="8.1479632"><ele>78.0</ele><time>2026-04-28T08:50:21.452Z</time></trkpt><trkpt lat="44.0830927" lon="8.1480698"><ele>78.0</ele><time>2026-04-28T08:50:22.451Z</time></trkpt><trkpt lat="44.082974" lon="8.1481545"><ele>77.25</ele><time>2026-04-28T08:50:23.451Z</time></trkpt><trkpt lat="44.0828439" lon="8.1482423"><ele>76.5</ele><time>2026-04-28T08:50:24.452Z</time></trkpt><trkpt lat="44.082714" lon="8.1483339"><ele>75.75</ele><time>2026-04-28T08:50:25.451Z</time></trkpt><trkpt lat="44.0825867" lon="8.14845"><ele>75.0</ele><time>2026-04-28T08:50:26.452Z</time></trkpt><trkpt lat="44.0824668" lon="8.1485715"><ele>74.25</ele><time>2026-04-28T08:50:27.452Z</time></trkpt><trkpt lat="44.0823534" lon="8.1486781"><ele>73.5</ele><time>2026-04-28T08:50:28.452Z</time></trkpt><trkpt lat="44.0822435" lon="8.148799"><ele>72.75</ele><time>2026-04-28T08:50:29.451Z</time></trkpt><trkpt lat="44.0821349" lon="8.1489214"><ele>72.0</ele><time>2026-04-28T08:50:30.451Z</time></trkpt><trkpt lat="44.0820717" lon="8.1490657"><ele>72.0</ele><time>2026-04-28T08:50:31.452Z</time></trkpt><trkpt lat="44.0819953" lon="8.1491759"><ele>72.0</ele><time>2026-04-28T08:50:32.452Z</time></trkpt><trkpt lat="44.0819035" lon="8.1492514"><ele>72.0</ele><time>2026-04-28T08:50:33.452Z</time></trkpt><trkpt lat="44.0818075" lon="8.1493004"><ele>72.0</ele><time>2026-04-28T08:50:34.452Z</time></trkpt><trkpt lat="44.0817041" lon="8.1493454"><ele>72.0</ele><time>2026-04-28T08:50:35.452Z</time></trkpt><trkpt lat="44.0816113" lon="8.1493721"><ele>79.4</ele><time>2026-04-28T08:50:36.451Z</time></trkpt><trkpt lat="44.0815219" lon="8.1493938"><ele>86.80000000000001</ele><time>2026-04-28T08:50:37.451Z</time></trkpt><trkpt lat="44.0814391" lon="8.1494245"><ele>94.2</ele><time>2026-04-28T08:50:38.452Z</time></trkpt><trkpt lat="44.0813633" lon="8.1494917"><ele>101.60000000000001</ele><time>2026-04-28T08:50:39.451Z</time></trkpt><trkpt lat="44.081289" lon="8.1495766"><ele>109.0</ele><time>2026-04-28T08:50:40.451Z</time></trkpt><trkpt lat="44.0812164" lon="8.1496746"><ele>109.0</ele><time>2026-04-28T08:50:41.451Z</time></trkpt><trkpt lat="44.0811391" lon="8.1497847"><ele>109.0</ele><time>2026-04-28T08:50:42.451Z</time></trkpt><trkpt lat="44.0810528" lon="8.1498825"><ele>109.0</ele><time>2026-04-28T08:50:43.451Z</time></trkpt><trkpt lat="44.0809672" lon="8.1500032"><ele>109.0</ele><time>2026-04-28T08:50:44.451Z</time></trkpt><trkpt lat="44.0808849" lon="8.1501406"><ele>111.75</ele><time>2026-04-28T08:50:45.451Z</time></trkpt><trkpt lat="44.0808031" lon="8.1502865"><ele>114.5</ele><time>2026-04-28T08:50:46.452Z</time></trkpt><trkpt lat="44.0807159" lon="8.150428"><ele>117.25</ele><time>2026-04-28T08:50:47.452Z</time></trkpt><trkpt lat="44.0806193" lon="8.1505636"><ele>120.0</ele><time>2026-04-28T08:50:48.452Z</time></trkpt><trkpt lat="44.0805145" lon="8.1506851"><ele>112.75</ele><time>2026-04-28T08:50:49.452Z</time></trkpt><trkpt lat="44.0804157" lon="8.1507958"><ele>105.5</ele><time>2026-04-28T08:50:50.451Z</time></trkpt><trkpt lat="44.080334" lon="8.1509252"><ele>98.25</ele><time>2026-04-28T08:50:51.451Z</time></trkpt><trkpt lat="44.0802779" lon="8.151071"><ele>91.0</ele><time>2026-04-28T08:50:52.451Z</time></trkpt><trkpt lat="44.0802192" lon="8.1512126"><ele>91.0</ele><time>2026-04-28T08:50:53.451Z</time></trkpt><trkpt lat="44.0801442" lon="8.1513511"><ele>91.0</ele><time>2026-04-28T08:50:54.451Z</time></trkpt><trkpt lat="44.0800575" lon="8.1514956"><ele>91.0</ele><time>2026-04-28T08:50:55.451Z</time></trkpt><trkpt lat="44.079965" lon="8.1516413"><ele>91.0</ele><time>2026-04-28T08:50:56.452Z</time></trkpt><trkpt lat="44.0798601" lon="8.1517884"><ele>93.33333333333333</ele><time>2026-04-28T08:50:57.452Z</time></trkpt><trkpt lat="44.0797495" lon="8.1519412"><ele>95.66666666666666</ele><time>2026-04-28T08:50:58.452Z</time></trkpt><trkpt lat="44.0796293" lon="8.1520853"><ele>98.0</ele><time>2026-04-28T08:50:59.451Z</time></trkpt><trkpt lat="44.0795107" lon="8.1522265"><ele>98.0</ele><time>2026-04-28T08:51:00.452Z</time></trkpt><trkpt lat="44.0794062" lon="8.1523641"><ele>98.0</ele><time>2026-04-28T08:51:01.451Z</time></trkpt><trkpt lat="44.079328" lon="8.1525133"><ele>98.0</ele><time>2026-04-28T08:51:02.452Z</time></trkpt><trkpt lat="44.0792772" lon="8.1526732"><ele>98.0</ele><time>2026-04-28T08:51:03.451Z</time></trkpt><trkpt lat="44.0792355" lon="8.1528299"><ele>99.5</ele><time>2026-04-28T08:51:04.451Z</time></trkpt><trkpt lat="44.079164" lon="8.1529664"><ele>101.0</ele><time>2026-04-28T08:51:05.452Z</time></trkpt><trkpt lat="44.0790808" lon="8.153097"><ele>102.5</ele><time>2026-04-28T08:51:06.45Z</time></trkpt><trkpt lat="44.0789844" lon="8.1532261"><ele>104.0</ele><time>2026-04-28T08:51:07.451Z</time></trkpt><trkpt lat="44.0788835" lon="8.1533541"><ele>99.5</ele><time>2026-04-28T08:51:08.451Z</time></trkpt><trkpt lat="44.0787731" lon="8.1534522"><ele>95.0</ele><time>2026-04-28T08:51:09.452Z</time></trkpt><trkpt lat="44.0786503" lon="8.1535115"><ele>90.5</ele><time>2026-04-28T08:51:10.451Z</time></trkpt><trkpt lat="44.0785192" lon="8.1535617"><ele>86.0</ele><time>2026-04-28T08:51:11.452Z</time></trkpt><trkpt lat="44.0783947" lon="8.1536171"><ele>86.0</ele><time>2026-04-28T08:51:12.451Z</time></trkpt><trkpt lat="44.0782761" lon="8.1537612"><ele>86.0</ele><time>2026-04-28T08:51:13.452Z</time></trkpt><trkpt lat="44.078145" lon="8.1538432"><ele>86.0</ele><time>2026-04-28T08:51:14.451Z</time></trkpt><trkpt lat="44.0780019" lon="8.153887"><ele>86.0</ele><time>2026-04-28T08:51:15.451Z</time></trkpt><trkpt lat="44.0778459" lon="8.1539282"><ele>87.0</ele><time>2026-04-28T08:51:16.452Z</time></trkpt><trkpt lat="44.0776847" lon="8.1539858"><ele>88.0</ele><time>2026-04-28T08:51:17.45Z</time></trkpt><trkpt lat="44.0775291" lon="8.1540529"><ele>89.0</ele><time>2026-04-28T08:51:18.451Z</time></trkpt><trkpt lat="44.0773534" lon="8.1541092"><ele>89.0</ele><time>2026-04-28T08:51:19.451Z</time></trkpt><trkpt lat="44.0771798" lon="8.1541567"><ele>89.0</ele><time>2026-04-28T08:51:20.451Z</time></trkpt><trkpt lat="44.0770114" lon="8.1542216"><ele>89.0</ele><time>2026-04-28T08:51:21.451Z</time></trkpt><trkpt lat="44.0768488" lon="8.1542959"><ele>89.0</ele><time>2026-04-28T08:51:22.451Z</time></trkpt><trkpt lat="44.0766864" lon="8.1543718"><ele>89.0</ele><time>2026-04-28T08:51:23.451Z</time></trkpt><trkpt lat="44.0765308" lon="8.1544744"><ele>89.0</ele><time>2026-04-28T08:51:24.451Z</time></trkpt><trkpt lat="44.0763772" lon="8.1545833"><ele>92.0</ele><time>2026-04-28T08:51:25.451Z</time></trkpt><trkpt lat="44.0762277" lon="8.1546807"><ele>95.0</ele><time>2026-04-28T08:51:26.452Z</time></trkpt><trkpt lat="44.0760858" lon="8.1547613"><ele>98.0</ele><time>2026-04-28T08:51:27.451Z</time></trkpt><trkpt lat="44.0759529" lon="8.1548311"><ele>90.25</ele><time>2026-04-28T08:51:28.452Z</time></trkpt><trkpt lat="44.0758153" lon="8.1548713"><ele>82.5</ele><time>2026-04-28T08:51:29.451Z</time></trkpt><trkpt lat="44.0756856" lon="8.1548717"><ele>74.75</ele><time>2026-04-28T08:51:30.451Z</time></trkpt><trkpt lat="44.0755503" lon="8.154847"><ele>67.0</ele><time>2026-04-28T08:51:31.451Z</time></trkpt><trkpt lat="44.0754106" lon="8.15478"><ele>67.0</ele><time>2026-04-28T08:51:32.452Z</time></trkpt><trkpt lat="44.0752882" lon="8.1547154"><ele>67.0</ele><time>2026-04-28T08:51:33.452Z</time></trkpt><trkpt lat="44.0752001" lon="8.1546178"><ele>67.0</ele><time>2026-04-28T08:51:34.451Z</time></trkpt><trkpt lat="44.0751569" lon="8.1545162"><ele>67.0</ele><time>2026-04-28T08:51:35.452Z</time></trkpt><trkpt lat="44.075173" lon="8.1543928"><ele>67.0</ele><time>2026-04-28T08:51:36.451Z</time></trkpt><trkpt lat="44.075202" lon="8.1542801"><ele>67.0</ele><time>2026-04-28T08:51:37.452Z</time></trkpt><trkpt lat="44.0752374" lon="8.1541427"><ele>67.0</ele><time>2026-04-28T08:51:38.452Z</time></trkpt><trkpt lat="44.0752785" lon="8.1539874"><ele>67.0</ele><time>2026-04-28T08:51:39.451Z</time></trkpt><trkpt lat="44.0753442" lon="8.153821"><ele>67.0</ele><time>2026-04-28T08:51:40.452Z</time></trkpt><trkpt lat="44.0754279" lon="8.1536406"><ele>66.5</ele><time>2026-04-28T08:51:41.451Z</time></trkpt><trkpt lat="44.0755102" lon="8.1534805"><ele>66.0</ele><time>2026-04-28T08:51:42.452Z</time></trkpt><trkpt lat="44.0755772" lon="8.1533289"><ele>65.5</ele><time>2026-04-28T08:51:43.451Z</time></trkpt><trkpt lat="44.0756091" lon="8.1531497"><ele>65.0</ele><time>2026-04-28T08:51:44.452Z</time></trkpt><trkpt lat="44.0756103" lon="8.1529591"><ele>65.0</ele><time>2026-04-28T08:51:45.451Z</time></trkpt><trkpt lat="44.0756261" lon="8.1527664"><ele>65.0</ele><time>2026-04-28T08:51:46.451Z</time></trkpt><trkpt lat="44.0756343" lon="8.1525759"><ele>65.0</ele><time>2026-04-28T08:51:47.452Z</time></trkpt><trkpt lat="44.0756031" lon="8.1524013"><ele>65.0</ele><time>2026-04-28T08:51:48.45Z</time></trkpt><trkpt lat="44.0755703" lon="8.1522133"><ele>68.5</ele><time>2026-04-28T08:51:49.452Z</time></trkpt><trkpt lat="44.075411" lon="8.152176"><ele>72.0</ele><time>2026-04-28T08:51:50.452Z</time></trkpt><trkpt lat="44.0753186" lon="8.1520743"><ele>75.5</ele><time>2026-04-28T08:51:51.451Z</time></trkpt><trkpt lat="44.0752417" lon="8.1519841"><ele>79.0</ele><time>2026-04-28T08:51:52.451Z</time></trkpt><trkpt lat="44.0751884" lon="8.1518497"><ele>79.0</ele><time>2026-04-28T08:51:53.451Z</time></trkpt><trkpt lat="44.0751618" lon="8.1517208"><ele>79.0</ele><time>2026-04-28T08:51:54.451Z</time></trkpt><trkpt lat="44.0751381" lon="8.1516104"><ele>79.0</ele><time>2026-04-28T08:51:55.452Z</time></trkpt><trkpt lat="44.0751204" lon="8.1515259"><ele>79.0</ele><time>2026-04-28T08:51:56.452Z</time></trkpt><trkpt lat="44.0751029" lon="8.1514311"><ele>79.0</ele><time>2026-04-28T08:51:58.451Z</time></trkpt><trkpt lat="44.0750648" lon="8.151352"><ele>79.0</ele><time>2026-04-28T08:52:00.452Z</time></trkpt><trkpt lat="44.0749891" lon="8.1511712"><ele>76.2</ele><time>2026-04-28T08:52:02.452Z</time></trkpt><trkpt lat="44.074946" lon="8.1510571"><ele>73.4</ele><time>2026-04-28T08:52:03.451Z</time></trkpt><trkpt lat="44.0748924" lon="8.1509169"><ele>70.6</ele><time>2026-04-28T08:52:04.451Z</time></trkpt><trkpt lat="44.0748359" lon="8.1507876"><ele>67.8</ele><time>2026-04-28T08:52:05.451Z</time></trkpt><trkpt lat="44.074796" lon="8.1506545"><ele>65.0</ele><time>2026-04-28T08:52:06.451Z</time></trkpt><trkpt lat="44.0747871" lon="8.1505171"><ele>65.0</ele><time>2026-04-28T08:52:07.451Z</time></trkpt><trkpt lat="44.0748056" lon="8.1504246"><ele>65.0</ele><time>2026-04-28T08:52:08.451Z</time></trkpt><trkpt lat="44.0748329" lon="8.1503281"><ele>65.0</ele><time>2026-04-28T08:52:10.451Z</time></trkpt><trkpt lat="44.0748371" lon="8.1502108"><ele>65.0</ele><time>2026-04-28T08:53:20.451Z</time></trkpt><trkpt lat="44.0748594" lon="8.1500102"><ele>65.0</ele><time>2026-04-28T08:53:22.452Z</time></trkpt><trkpt lat="44.0748884" lon="8.1498927"><ele>66.0</ele><time>2026-04-28T08:53:23.452Z</time></trkpt><trkpt lat="44.0749279" lon="8.1497511"><ele>67.0</ele><time>2026-04-28T08:53:24.451Z</time></trkpt><trkpt lat="44.0749675" lon="8.1495938"><ele>68.0</ele><time>2026-04-28T08:53:25.451Z</time></trkpt><trkpt lat="44.0750061" lon="8.1494396"><ele>69.0</ele><time>2026-04-28T08:53:26.451Z</time></trkpt><trkpt lat="44.0750447" lon="8.1492903"><ele>73.5</ele><time>2026-04-28T08:53:27.452Z</time></trkpt><trkpt lat="44.0750806" lon="8.1491433"><ele>78.0</ele><time>2026-04-28T08:53:28.451Z</time></trkpt><trkpt lat="44.0750811" lon="8.1490155"><ele>82.5</ele><time>2026-04-28T08:53:29.452Z</time></trkpt><trkpt lat="44.0750725" lon="8.1488775"><ele>87.0</ele><time>2026-04-28T08:53:30.451Z</time></trkpt><trkpt lat="44.0749433" lon="8.1487363"><ele>85.5</ele><time>2026-04-28T08:53:31.451Z</time></trkpt><trkpt lat="44.0748975" lon="8.1485908"><ele>84.0</ele><time>2026-04-28T08:53:32.451Z</time></trkpt><trkpt lat="44.0748688" lon="8.1484351"><ele>82.5</ele><time>2026-04-28T08:53:33.452Z</time></trkpt><trkpt lat="44.0748702" lon="8.1482627"><ele>81.0</ele><time>2026-04-28T08:53:34.452Z</time></trkpt><trkpt lat="44.0748821" lon="8.1480818"><ele>81.0</ele><time>2026-04-28T08:53:35.452Z</time></trkpt><trkpt lat="44.0749033" lon="8.1478885"><ele>81.0</ele><time>2026-04-28T08:53:36.451Z</time></trkpt><trkpt lat="44.0749352" lon="8.1476964"><ele>81.0</ele><time>2026-04-28T08:53:37.452Z</time></trkpt><trkpt lat="44.0749726" lon="8.1475208"><ele>81.0</ele><time>2026-04-28T08:53:38.451Z</time></trkpt><trkpt lat="44.0749897" lon="8.1473508"><ele>82.0</ele><time>2026-04-28T08:53:39.452Z</time></trkpt><trkpt lat="44.0749711" lon="8.147176"><ele>83.0</ele><time>2026-04-28T08:53:40.451Z</time></trkpt><trkpt lat="44.0749133" lon="8.1470058"><ele>84.0</ele><time>2026-04-28T08:53:41.451Z</time></trkpt><trkpt lat="44.0748393" lon="8.1468384"><ele>85.0</ele><time>2026-04-28T08:53:42.452Z</time></trkpt><trkpt lat="44.0747522" lon="8.1466878"><ele>90.66666666666666</ele><time>2026-04-28T08:53:43.451Z</time></trkpt><trkpt lat="44.0746387" lon="8.1465367"><ele>96.33333333333333</ele><time>2026-04-28T08:53:44.452Z</time></trkpt><trkpt lat="44.0745174" lon="8.1463907"><ele>102.0</ele><time>2026-04-28T08:53:45.451Z</time></trkpt><trkpt lat="44.0743962" lon="8.1462388"><ele>102.0</ele><time>2026-04-28T08:53:46.451Z</time></trkpt><trkpt lat="44.074285" lon="8.1460645"><ele>102.0</ele><time>2026-04-28T08:53:47.452Z</time></trkpt><trkpt lat="44.0741731" lon="8.1458864"><ele>102.0</ele><time>2026-04-28T08:53:48.452Z</time></trkpt><trkpt lat="44.0740498" lon="8.1457231"><ele>99.33333333333333</ele><time>2026-04-28T08:53:49.452Z</time></trkpt><trkpt lat="44.0739238" lon="8.1455675"><ele>96.66666666666666</ele><time>2026-04-28T08:53:50.452Z</time></trkpt><trkpt lat="44.0737916" lon="8.1454334"><ele>94.0</ele><time>2026-04-28T08:53:51.452Z</time></trkpt><trkpt lat="44.0736295" lon="8.1454274"><ele>94.0</ele><time>2026-04-28T08:53:52.451Z</time></trkpt><trkpt lat="44.0734853" lon="8.1454222"><ele>94.0</ele><time>2026-04-28T08:53:53.452Z</time></trkpt><trkpt lat="44.0733417" lon="8.1454099"><ele>94.0</ele><time>2026-04-28T08:53:54.451Z</time></trkpt><trkpt lat="44.073211" lon="8.1453737"><ele>94.0</ele><time>2026-04-28T08:53:55.451Z</time></trkpt><trkpt lat="44.0730855" lon="8.1453393"><ele>91.2</ele><time>2026-04-28T08:53:56.45Z</time></trkpt><trkpt lat="44.0729799" lon="8.1453013"><ele>88.4</ele><time>2026-04-28T08:53:57.451Z</time></trkpt><trkpt lat="44.0729025" lon="8.1452359"><ele>85.6</ele><time>2026-04-28T08:53:58.452Z</time></trkpt><trkpt lat="44.072883" lon="8.1451179"><ele>82.8</ele><time>2026-04-28T08:53:59.452Z</time></trkpt><trkpt lat="44.072887" lon="8.1449916"><ele>80.0</ele><time>2026-04-28T08:54:00.452Z</time></trkpt><trkpt lat="44.0729029" lon="8.1448503"><ele>80.0</ele><time>2026-04-28T08:54:01.452Z</time></trkpt><trkpt lat="44.0729388" lon="8.1447145"><ele>80.0</ele><time>2026-04-28T08:54:02.451Z</time></trkpt><trkpt lat="44.072964" lon="8.1445799"><ele>80.0</ele><time>2026-04-28T08:54:03.451Z</time></trkpt><trkpt lat="44.0729549" lon="8.1444601"><ele>80.0</ele><time>2026-04-28T08:54:04.452Z</time></trkpt><trkpt lat="44.0729199" lon="8.1443869"><ele>80.0</ele><time>2026-04-28T08:54:05.451Z</time></trkpt><trkpt lat="44.0728431" lon="8.1443834"><ele>80.0</ele><time>2026-04-28T08:54:08.45Z</time></trkpt><trkpt lat="44.0727172" lon="8.1445405"><ele>80.0</ele><time>2026-04-28T08:54:10.451Z</time></trkpt><trkpt lat="44.0726527" lon="8.1446247"><ele>80.0</ele><time>2026-04-28T08:54:11.451Z</time></trkpt><trkpt lat="44.0725663" lon="8.1447514"><ele>80.0</ele><time>2026-04-28T08:54:12.452Z</time></trkpt><trkpt lat="44.0724794" lon="8.1448789"><ele>80.0</ele><time>2026-04-28T08:54:13.451Z</time></trkpt><trkpt lat="44.072398" lon="8.1450251"><ele>81.0</ele><time>2026-04-28T08:54:14.452Z</time></trkpt><trkpt lat="44.0723224" lon="8.1451863"><ele>82.0</ele><time>2026-04-28T08:54:15.451Z</time></trkpt><trkpt lat="44.0722769" lon="8.1453683"><ele>83.0</ele><time>2026-04-28T08:54:16.452Z</time></trkpt><trkpt lat="44.0722524" lon="8.1455751"><ele>84.0</ele><time>2026-04-28T08:54:17.451Z</time></trkpt><trkpt lat="44.0722393" lon="8.1457872"><ele>84.0</ele><time>2026-04-28T08:54:18.451Z</time></trkpt><trkpt lat="44.0722134" lon="8.1460013"><ele>84.0</ele><time>2026-04-28T08:54:19.451Z</time></trkpt><trkpt lat="44.072182" lon="8.1462128"><ele>84.0</ele><time>2026-04-28T08:54:20.451Z</time></trkpt><trkpt lat="44.0721601" lon="8.1464157"><ele>86.75</ele><time>2026-04-28T08:54:21.452Z</time></trkpt><trkpt lat="44.0721582" lon="8.146607"><ele>89.5</ele><time>2026-04-28T08:54:22.452Z</time></trkpt><trkpt lat="44.0721925" lon="8.1467938"><ele>92.25</ele><time>2026-04-28T08:54:23.452Z</time></trkpt><trkpt lat="44.072254" lon="8.1469652"><ele>95.0</ele><time>2026-04-28T08:54:24.452Z</time></trkpt><trkpt lat="44.0723221" lon="8.1471368"><ele>95.0</ele><time>2026-04-28T08:54:25.451Z</time></trkpt><trkpt lat="44.072378" lon="8.1473176"><ele>95.0</ele><time>2026-04-28T08:54:26.452Z</time></trkpt><trkpt lat="44.0724191" lon="8.1474992"><ele>95.0</ele><time>2026-04-28T08:54:27.452Z</time></trkpt><trkpt lat="44.0724294" lon="8.1476969"><ele>95.0</ele><time>2026-04-28T08:54:28.45Z</time></trkpt><trkpt lat="44.0724281" lon="8.1478873"><ele>98.5</ele><time>2026-04-28T08:54:29.451Z</time></trkpt><trkpt lat="44.0724209" lon="8.1480716"><ele>102.0</ele><time>2026-04-28T08:54:30.451Z</time></trkpt><trkpt lat="44.0724119" lon="8.1482461"><ele>105.5</ele><time>2026-04-28T08:54:31.451Z</time></trkpt><trkpt lat="44.0724003" lon="8.1484169"><ele>109.0</ele><time>2026-04-28T08:54:32.451Z</time></trkpt><trkpt lat="44.0723862" lon="8.1485748"><ele>109.16666666666667</ele><time>2026-04-28T08:54:33.451Z</time></trkpt><trkpt lat="44.0723652" lon="8.1487171"><ele>109.33333333333334</ele><time>2026-04-28T08:54:34.451Z</time></trkpt><trkpt lat="44.0723411" lon="8.1488337"><ele>109.5</ele><time>2026-04-28T08:54:35.45Z</time></trkpt><trkpt lat="44.0723288" lon="8.1489616"><ele>109.66666666666666</ele><time>2026-04-28T08:54:36.451Z</time></trkpt><trkpt lat="44.0723363" lon="8.1490767"><ele>109.83333333333333</ele><time>2026-04-28T08:54:37.451Z</time></trkpt><trkpt lat="44.0723541" lon="8.1491852"><ele>110.0</ele><time>2026-04-28T08:54:38.451Z</time></trkpt><trkpt lat="44.0723678" lon="8.1492956"><ele>108.8</ele><time>2026-04-28T08:54:39.451Z</time></trkpt><trkpt lat="44.0724134" lon="8.1493648"><ele>107.6</ele><time>2026-04-28T08:54:40.451Z</time></trkpt><trkpt lat="44.0724484" lon="8.1494549"><ele>106.4</ele><time>2026-04-28T08:54:41.451Z</time></trkpt><trkpt lat="44.0724835" lon="8.1497608"><ele>105.2</ele><time>2026-04-28T08:54:44.452Z</time></trkpt><trkpt lat="44.0724595" lon="8.1498643"><ele>104.0</ele><time>2026-04-28T08:54:45.451Z</time></trkpt><trkpt lat="44.0724277" lon="8.1499712"><ele>103.83333333333333</ele><time>2026-04-28T08:54:46.45Z</time></trkpt><trkpt lat="44.0723949" lon="8.1500829"><ele>103.66666666666666</ele><time>2026-04-28T08:54:47.45Z</time></trkpt><trkpt lat="44.0723687" lon="8.1502015"><ele>103.5</ele><time>2026-04-28T08:54:48.451Z</time></trkpt><trkpt lat="44.0723557" lon="8.1503231"><ele>103.33333333333334</ele><time>2026-04-28T08:54:49.452Z</time></trkpt><trkpt lat="44.0723513" lon="8.1504363"><ele>103.16666666666667</ele><time>2026-04-28T08:54:50.451Z</time></trkpt><trkpt lat="44.0723533" lon="8.1505472"><ele>103.0</ele><time>2026-04-28T08:54:51.451Z</time></trkpt><trkpt lat="44.0723579" lon="8.1506523"><ele>101.83333333333334</ele><time>2026-04-28T08:54:52.452Z</time></trkpt><trkpt lat="44.0723553" lon="8.1507507"><ele>100.66666666666667</ele><time>2026-04-28T08:54:53.452Z</time></trkpt><trkpt lat="44.0723523" lon="8.1508467"><ele>99.5</ele><time>2026-04-28T08:54:54.451Z</time></trkpt><trkpt lat="44.0723414" lon="8.1509526"><ele>98.33333333333334</ele><time>2026-04-28T08:54:55.451Z</time></trkpt><trkpt lat="44.0723294" lon="8.1510681"><ele>97.16666666666667</ele><time>2026-04-28T08:54:56.452Z</time></trkpt><trkpt lat="44.072321" lon="8.1511842"><ele>96.0</ele><time>2026-04-28T08:54:57.452Z</time></trkpt><trkpt lat="44.0723084" lon="8.151294"><ele>96.0</ele><time>2026-04-28T08:54:58.451Z</time></trkpt><trkpt lat="44.0722903" lon="8.1514027"><ele>96.0</ele><time>2026-04-28T08:54:59.452Z</time></trkpt><trkpt lat="44.0722668" lon="8.1515054"><ele>96.0</ele><time>2026-04-28T08:55:00.452Z</time></trkpt><trkpt lat="44.0722391" lon="8.1516086"><ele>96.0</ele><time>2026-04-28T08:55:01.451Z</time></trkpt><trkpt lat="44.0722085" lon="8.1517175"><ele>96.0</ele><time>2026-04-28T08:55:02.451Z</time></trkpt><trkpt lat="44.0721754" lon="8.1518328"><ele>96.0</ele><time>2026-04-28T08:55:03.452Z</time></trkpt><trkpt lat="44.072143" lon="8.1519509"><ele>95.16666666666667</ele><time>2026-04-28T08:55:04.452Z</time></trkpt><trkpt lat="44.0721157" lon="8.1520691"><ele>94.33333333333333</ele><time>2026-04-28T08:55:05.451Z</time></trkpt><trkpt lat="44.0720962" lon="8.1521896"><ele>93.5</ele><time>2026-04-28T08:55:06.451Z</time></trkpt><trkpt lat="44.0720841" lon="8.1523126"><ele>92.66666666666666</ele><time>2026-04-28T08:55:07.45Z</time></trkpt><trkpt lat="44.0720715" lon="8.1524366"><ele>91.83333333333333</ele><time>2026-04-28T08:55:08.452Z</time></trkpt><trkpt lat="44.0720578" lon="8.1525582"><ele>91.0</ele><time>2026-04-28T08:55:09.452Z</time></trkpt><trkpt lat="44.072041" lon="8.1526799"><ele>90.83333333333333</ele><time>2026-04-28T08:55:10.451Z</time></trkpt><trkpt lat="44.0720197" lon="8.152802"><ele>90.66666666666666</ele><time>2026-04-28T08:55:11.451Z</time></trkpt><trkpt lat="44.0720001" lon="8.152923"><ele>90.5</ele><time>2026-04-28T08:55:12.452Z</time></trkpt><trkpt lat="44.0719708" lon="8.1530368"><ele>90.33333333333333</ele><time>2026-04-28T08:55:13.452Z</time></trkpt><trkpt lat="44.0719272" lon="8.1531407"><ele>90.16666666666667</ele><time>2026-04-28T08:55:14.451Z</time></trkpt><trkpt lat="44.0718675" lon="8.1532343"><ele>90.0</ele><time>2026-04-28T08:55:15.452Z</time></trkpt><trkpt lat="44.0717976" lon="8.1533157"><ele>88.66666666666667</ele><time>2026-04-28T08:55:16.452Z</time></trkpt><trkpt lat="44.0717232" lon="8.1533866"><ele>87.33333333333333</ele><time>2026-04-28T08:55:17.452Z</time></trkpt><trkpt lat="44.0716593" lon="8.1534562"><ele>86.0</ele><time>2026-04-28T08:55:18.451Z</time></trkpt><trkpt lat="44.0715941" lon="8.1535187"><ele>84.66666666666666</ele><time>2026-04-28T08:55:19.452Z</time></trkpt><trkpt lat="44.0715315" lon="8.1535768"><ele>83.33333333333333</ele><time>2026-04-28T08:55:20.452Z</time></trkpt><trkpt lat="44.0714827" lon="8.1536367"><ele>82.0</ele><time>2026-04-28T08:55:21.451Z</time></trkpt><trkpt lat="44.071488" lon="8.1538105"><ele>80.5</ele><time>2026-04-28T08:55:23.452Z</time></trkpt><trkpt lat="44.0715368" lon="8.1539053"><ele>79.0</ele><time>2026-04-28T08:55:24.452Z</time></trkpt><trkpt lat="44.0715789" lon="8.1539937"><ele>77.5</ele><time>2026-04-28T08:55:25.451Z</time></trkpt><trkpt lat="44.0716213" lon="8.1540946"><ele>76.0</ele><time>2026-04-28T08:55:26.451Z</time></trkpt><trkpt lat="44.0716638" lon="8.1542086"><ele>74.5</ele><time>2026-04-28T08:55:27.451Z</time></trkpt><trkpt lat="44.0717103" lon="8.1543248"><ele>73.0</ele><time>2026-04-28T08:55:28.452Z</time></trkpt><trkpt lat="44.07175" lon="8.1544454"><ele>73.0</ele><time>2026-04-28T08:55:29.452Z</time></trkpt><trkpt lat="44.0717788" lon="8.1545738"><ele>73.0</ele><time>2026-04-28T08:55:30.452Z</time></trkpt><trkpt lat="44.0717986" lon="8.154702"><ele>73.0</ele><time>2026-04-28T08:55:31.451Z</time></trkpt><trkpt lat="44.0718169" lon="8.1548282"><ele>73.0</ele><time>2026-04-28T08:55:32.452Z</time></trkpt><trkpt lat="44.0718324" lon="8.1549578"><ele>73.0</ele><time>2026-04-28T08:55:33.452Z</time></trkpt><trkpt lat="44.0718502" lon="8.1550857"><ele>72.8</ele><time>2026-04-28T08:55:34.452Z</time></trkpt><trkpt lat="44.0718709" lon="8.1552141"><ele>72.6</ele><time>2026-04-28T08:55:35.452Z</time></trkpt><trkpt lat="44.0718884" lon="8.1553378"><ele>72.4</ele><time>2026-04-28T08:55:36.45Z</time></trkpt><trkpt lat="44.0719003" lon="8.1554631"><ele>72.2</ele><time>2026-04-28T08:55:37.451Z</time></trkpt><trkpt lat="44.0718981" lon="8.155596"><ele>72.0</ele><time>2026-04-28T08:55:38.451Z</time></trkpt><trkpt lat="44.0718931" lon="8.1557249"><ele>70.0</ele><time>2026-04-28T08:55:39.452Z</time></trkpt><trkpt lat="44.0718887" lon="8.1558521"><ele>68.0</ele><time>2026-04-28T08:55:40.451Z</time></trkpt><trkpt lat="44.0718824" lon="8.1559753"><ele>66.0</ele><time>2026-04-28T08:55:41.452Z</time></trkpt><trkpt lat="44.0718764" lon="8.1560871"><ele>64.0</ele><time>2026-04-28T08:55:42.452Z</time></trkpt><trkpt lat="44.0718678" lon="8.1561914"><ele>62.0</ele><time>2026-04-28T08:55:43.451Z</time></trkpt><trkpt lat="44.0718314" lon="8.1562832"><ele>60.0</ele><time>2026-04-28T08:55:44.452Z</time></trkpt><trkpt lat="44.0717744" lon="8.1563485"><ele>60.0</ele><time>2026-04-28T08:55:45.451Z</time></trkpt><trkpt lat="44.071703" lon="8.1563921"><ele>60.0</ele><time>2026-04-28T08:55:46.451Z</time></trkpt><trkpt lat="44.0716248" lon="8.1564019"><ele>60.0</ele><time>2026-04-28T08:55:47.451Z</time></trkpt><trkpt lat="44.0715545" lon="8.1563724"><ele>60.0</ele><time>2026-04-28T08:55:48.452Z</time></trkpt><trkpt lat="44.0714849" lon="8.1563057"><ele>60.0</ele><time>2026-04-28T08:55:49.452Z</time></trkpt><trkpt lat="44.0714116" lon="8.1562269"><ele>60.0</ele><time>2026-04-28T08:55:50.452Z</time></trkpt><trkpt lat="44.0713393" lon="8.1561506"><ele>60.4</ele><time>2026-04-28T08:55:51.451Z</time></trkpt><trkpt lat="44.0712602" lon="8.1560802"><ele>60.8</ele><time>2026-04-28T08:55:52.452Z</time></trkpt><trkpt lat="44.0711559" lon="8.1560341"><ele>61.2</ele><time>2026-04-28T08:55:53.452Z</time></trkpt><trkpt lat="44.071038" lon="8.1560395"><ele>61.6</ele><time>2026-04-28T08:55:54.452Z</time></trkpt><trkpt lat="44.0709542" lon="8.1561267"><ele>62.0</ele><time>2026-04-28T08:55:55.452Z</time></trkpt><trkpt lat="44.0709152" lon="8.1562618"><ele>62.0</ele><time>2026-04-28T08:55:56.451Z</time></trkpt><trkpt lat="44.0709359" lon="8.1564111"><ele>62.0</ele><time>2026-04-28T08:55:57.452Z</time></trkpt><trkpt lat="44.0709985" lon="8.1565656"><ele>62.0</ele><time>2026-04-28T08:55:58.45Z</time></trkpt><trkpt lat="44.0710689" lon="8.1567213"><ele>62.0</ele><time>2026-04-28T08:55:59.452Z</time></trkpt><trkpt lat="44.0711204" lon="8.1568618"><ele>60.25</ele><time>2026-04-28T08:56:00.451Z</time></trkpt><trkpt lat="44.0711561" lon="8.1570043"><ele>58.5</ele><time>2026-04-28T08:56:01.451Z</time></trkpt><trkpt lat="44.0711659" lon="8.1571559"><ele>56.75</ele><time>2026-04-28T08:56:02.452Z</time></trkpt><trkpt lat="44.0711516" lon="8.1573263"><ele>55.0</ele><time>2026-04-28T08:56:03.452Z</time></trkpt><trkpt lat="44.0711166" lon="8.1575175"><ele>53.666666666666664</ele><time>2026-04-28T08:56:04.452Z</time></trkpt><trkpt lat="44.0710716" lon="8.15772"><ele>52.33333333333333</ele><time>2026-04-28T08:56:05.451Z</time></trkpt><trkpt lat="44.0710234" lon="8.1579294"><ele>51.0</ele><time>2026-04-28T08:56:06.451Z</time></trkpt><trkpt lat="44.0709792" lon="8.1581456"><ele>50.66666666666667</ele><time>2026-04-28T08:56:07.451Z</time></trkpt><trkpt lat="44.0709345" lon="8.1583753"><ele>50.333333333333336</ele><time>2026-04-28T08:56:08.451Z</time></trkpt><trkpt lat="44.0708883" lon="8.1586035"><ele>50.0</ele><time>2026-04-28T08:56:09.452Z</time></trkpt><trkpt lat="44.0708378" lon="8.1588314"><ele>47.0</ele><time>2026-04-28T08:56:10.452Z</time></trkpt><trkpt lat="44.070793" lon="8.1590695"><ele>44.0</ele><time>2026-04-28T08:56:11.451Z</time></trkpt><trkpt lat="44.0707466" lon="8.1593017"><ele>41.0</ele><time>2026-04-28T08:56:12.451Z</time></trkpt><trkpt lat="44.0706998" lon="8.1595237"><ele>46.0</ele><time>2026-04-28T08:56:13.451Z</time></trkpt><trkpt lat="44.070659" lon="8.1597379"><ele>51.0</ele><time>2026-04-28T08:56:14.451Z</time></trkpt><trkpt lat="44.070628" lon="8.1599512"><ele>56.0</ele><time>2026-04-28T08:56:15.451Z</time></trkpt><trkpt lat="44.070612" lon="8.1601606"><ele>56.0</ele><time>2026-04-28T08:56:16.452Z</time></trkpt><trkpt lat="44.0705986" lon="8.1603639"><ele>56.0</ele><time>2026-04-28T08:56:17.452Z</time></trkpt><trkpt lat="44.0705687" lon="8.1605475"><ele>56.0</ele><time>2026-04-28T08:56:18.452Z</time></trkpt><trkpt lat="44.0705181" lon="8.1607119"><ele>56.0</ele><time>2026-04-28T08:56:19.45Z</time></trkpt><trkpt lat="44.0704509" lon="8.1608528"><ele>51.5</ele><time>2026-04-28T08:56:20.451Z</time></trkpt><trkpt lat="44.070369" lon="8.1609771"><ele>47.0</ele><time>2026-04-28T08:56:21.452Z</time></trkpt><trkpt lat="44.0702517" lon="8.1610818"><ele>42.5</ele><time>2026-04-28T08:56:22.452Z</time></trkpt><trkpt lat="44.0701219" lon="8.1611829"><ele>38.0</ele><time>2026-04-28T08:56:23.451Z</time></trkpt><trkpt lat="44.0700126" lon="8.1613294"><ele>38.0</ele><time>2026-04-28T08:56:24.451Z</time></trkpt><trkpt lat="44.0699151" lon="8.1614953"><ele>38.0</ele><time>2026-04-28T08:56:25.451Z</time></trkpt><trkpt lat="44.0698181" lon="8.1616508"><ele>38.0</ele><time>2026-04-28T08:56:26.451Z</time></trkpt><trkpt lat="44.0697249" lon="8.1617744"><ele>38.0</ele><time>2026-04-28T08:56:27.451Z</time></trkpt><trkpt lat="44.0696271" lon="8.1618574"><ele>38.0</ele><time>2026-04-28T08:56:28.452Z</time></trkpt><trkpt lat="44.0695144" lon="8.1619032"><ele>38.0</ele><time>2026-04-28T08:56:29.452Z</time></trkpt><trkpt lat="44.0693922" lon="8.161922"><ele>38.0</ele><time>2026-04-28T08:56:30.451Z</time></trkpt><trkpt lat="44.0692738" lon="8.16194"><ele>38.0</ele><time>2026-04-28T08:56:31.452Z</time></trkpt><trkpt lat="44.0691671" lon="8.1619664"><ele>39.5</ele><time>2026-04-28T08:56:32.451Z</time></trkpt><trkpt lat="44.0690714" lon="8.1620076"><ele>41.0</ele><time>2026-04-28T08:56:33.452Z</time></trkpt><trkpt lat="44.0689912" lon="8.1620687"><ele>42.5</ele><time>2026-04-28T08:56:34.452Z</time></trkpt><trkpt lat="44.068922" lon="8.1621361"><ele>44.0</ele><time>2026-04-28T08:56:35.451Z</time></trkpt><trkpt lat="44.0688583" lon="8.162203"><ele>45.5</ele><time>2026-04-28T08:56:36.451Z</time></trkpt><trkpt lat="44.0687936" lon="8.1622687"><ele>47.0</ele><time>2026-04-28T08:56:37.452Z</time></trkpt><trkpt lat="44.0687197" lon="8.1623389"><ele>43.25</ele><time>2026-04-28T08:56:38.451Z</time></trkpt><trkpt lat="44.0686281" lon="8.1624074"><ele>39.5</ele><time>2026-04-28T08:56:39.452Z</time></trkpt><trkpt lat="44.0685182" lon="8.1624679"><ele>35.75</ele><time>2026-04-28T08:56:40.452Z</time></trkpt><trkpt lat="44.0683972" lon="8.1625236"><ele>32.0</ele><time>2026-04-28T08:56:41.452Z</time></trkpt><trkpt lat="44.0682734" lon="8.1625904"><ele>32.0</ele><time>2026-04-28T08:56:42.452Z</time></trkpt><trkpt lat="44.0681505" lon="8.1626796"><ele>32.0</ele><time>2026-04-28T08:56:43.452Z</time></trkpt><trkpt lat="44.0680372" lon="8.1627828"><ele>32.0</ele><time>2026-04-28T08:56:44.452Z</time></trkpt><trkpt lat="44.0679361" lon="8.1628802"><ele>32.0</ele><time>2026-04-28T08:56:45.45Z</time></trkpt><trkpt lat="44.0678347" lon="8.1629528"><ele>32.0</ele><time>2026-04-28T08:56:46.45Z</time></trkpt><trkpt lat="44.0677214" lon="8.163001"><ele>32.0</ele><time>2026-04-28T08:56:47.451Z</time></trkpt><trkpt lat="44.067601" lon="8.16306"><ele>32.0</ele><time>2026-04-28T08:56:48.451Z</time></trkpt><trkpt lat="44.0674897" lon="8.163136"><ele>32.0</ele><time>2026-04-28T08:56:49.452Z</time></trkpt><trkpt lat="44.067383" lon="8.163206"><ele>31.5</ele><time>2026-04-28T08:56:50.451Z</time></trkpt><trkpt lat="44.0672679" lon="8.1632446"><ele>31.0</ele><time>2026-04-28T08:56:51.452Z</time></trkpt><trkpt lat="44.0671466" lon="8.1632559"><ele>30.5</ele><time>2026-04-28T08:56:52.452Z</time></trkpt><trkpt lat="44.0670285" lon="8.1632652"><ele>30.0</ele><time>2026-04-28T08:56:53.451Z</time></trkpt><trkpt lat="44.0669266" lon="8.1632809"><ele>30.0</ele><time>2026-04-28T08:56:54.451Z</time></trkpt><trkpt lat="44.066858" lon="8.163333"><ele>30.0</ele><time>2026-04-28T08:56:55.452Z</time></trkpt><trkpt lat="44.0668249" lon="8.1634381"><ele>30.0</ele><time>2026-04-28T08:56:56.452Z</time></trkpt><trkpt lat="44.0668261" lon="8.1635776"><ele>30.0</ele><time>2026-04-28T08:56:57.452Z</time></trkpt><trkpt lat="44.0668462" lon="8.1637408"><ele>30.0</ele><time>2026-04-28T08:56:58.451Z</time></trkpt><trkpt lat="44.0668566" lon="8.1639194"><ele>29.0</ele><time>2026-04-28T08:56:59.451Z</time></trkpt><trkpt lat="44.0668566" lon="8.1641125"><ele>28.0</ele><time>2026-04-28T08:57:00.45Z</time></trkpt><trkpt lat="44.0668484" lon="8.1643089"><ele>27.0</ele><time>2026-04-28T08:57:01.452Z</time></trkpt><trkpt lat="44.0668309" lon="8.1644975"><ele>26.0</ele><time>2026-04-28T08:57:02.452Z</time></trkpt><trkpt lat="44.0667936" lon="8.1646965"><ele>25.333333333333332</ele><time>2026-04-28T08:57:03.451Z</time></trkpt><trkpt lat="44.066744" lon="8.1649075"><ele>24.666666666666664</ele><time>2026-04-28T08:57:04.451Z</time></trkpt><trkpt lat="44.0666854" lon="8.165126"><ele>24.0</ele><time>2026-04-28T08:57:05.452Z</time></trkpt><trkpt lat="44.0666221" lon="8.1653552"><ele>24.333333333333336</ele><time>2026-04-28T08:57:06.451Z</time></trkpt><trkpt lat="44.0665562" lon="8.1655988"><ele>24.666666666666668</ele><time>2026-04-28T08:57:07.451Z</time></trkpt><trkpt lat="44.0664899" lon="8.1658508"><ele>25.0</ele><time>2026-04-28T08:57:08.451Z</time></trkpt><trkpt lat="44.0664243" lon="8.1660982"><ele>25.0</ele><time>2026-04-28T08:57:09.451Z</time></trkpt><trkpt lat="44.0663571" lon="8.1663528"><ele>25.0</ele><time>2026-04-28T08:57:10.452Z</time></trkpt><trkpt lat="44.0662882" lon="8.166619"><ele>25.0</ele><time>2026-04-28T08:57:11.452Z</time></trkpt><trkpt lat="44.0662151" lon="8.1668828"><ele>23.666666666666668</ele><time>2026-04-28T08:57:12.451Z</time></trkpt><trkpt lat="44.0661308" lon="8.1671531"><ele>22.333333333333336</ele><time>2026-04-28T08:57:13.452Z</time></trkpt><trkpt lat="44.0660478" lon="8.167431"><ele>21.0</ele><time>2026-04-28T08:57:14.452Z</time></trkpt><trkpt lat="44.0659672" lon="8.1676946"><ele>20.666666666666668</ele><time>2026-04-28T08:57:15.452Z</time></trkpt><trkpt lat="44.065891" lon="8.1679354"><ele>20.333333333333336</ele><time>2026-04-28T08:57:16.451Z</time></trkpt><trkpt lat="44.0658197" lon="8.1681633"><ele>20.0</ele><time>2026-04-28T08:57:17.452Z</time></trkpt><trkpt lat="44.0657461" lon="8.1683828"><ele>20.666666666666668</ele><time>2026-04-28T08:57:18.452Z</time></trkpt><trkpt lat="44.0656542" lon="8.168584"><ele>21.333333333333332</ele><time>2026-04-28T08:57:19.451Z</time></trkpt><trkpt lat="44.0655346" lon="8.1687574"><ele>22.0</ele><time>2026-04-28T08:57:20.452Z</time></trkpt><trkpt lat="44.0653918" lon="8.1689029"><ele>21.0</ele><time>2026-04-28T08:57:21.451Z</time></trkpt><trkpt lat="44.0652347" lon="8.1690322"><ele>20.0</ele><time>2026-04-28T08:57:22.45Z</time></trkpt><trkpt lat="44.0650728" lon="8.1691631"><ele>19.0</ele><time>2026-04-28T08:57:23.452Z</time></trkpt><trkpt lat="44.0649143" lon="8.1693118"><ele>19.0</ele><time>2026-04-28T08:57:24.451Z</time></trkpt><trkpt lat="44.0647599" lon="8.1694723"><ele>19.0</ele><time>2026-04-28T08:57:25.451Z</time></trkpt><trkpt lat="44.0646122" lon="8.1696423"><ele>19.0</ele><time>2026-04-28T08:57:26.452Z</time></trkpt><trkpt lat="44.0644686" lon="8.1698095"><ele>18.666666666666664</ele><time>2026-04-28T08:57:27.451Z</time></trkpt><trkpt lat="44.0643235" lon="8.1699681"><ele>18.333333333333332</ele><time>2026-04-28T08:57:28.451Z</time></trkpt><trkpt lat="44.0641805" lon="8.1701222"><ele>18.0</ele><time>2026-04-28T08:57:29.451Z</time></trkpt><trkpt lat="44.0640391" lon="8.1702749"><ele>18.0</ele><time>2026-04-28T08:57:30.452Z</time></trkpt><trkpt lat="44.0638974" lon="8.1704262"><ele>18.0</ele><time>2026-04-28T08:57:31.451Z</time></trkpt><trkpt lat="44.063758" lon="8.1705755"><ele>18.0</ele><time>2026-04-28T08:57:32.452Z</time></trkpt><trkpt lat="44.0636197" lon="8.1707239"><ele>17.666666666666668</ele><time>2026-04-28T08:57:33.451Z</time></trkpt><trkpt lat="44.0634855" lon="8.1708721"><ele>17.333333333333336</ele><time>2026-04-28T08:57:34.452Z</time></trkpt><trkpt lat="44.0633562" lon="8.1710155"><ele>17.0</ele><time>2026-04-28T08:57:35.45Z</time></trkpt><trkpt lat="44.0632339" lon="8.1711519"><ele>17.0</ele><time>2026-04-28T08:57:36.452Z</time></trkpt><trkpt lat="44.063112" lon="8.1712937"><ele>17.0</ele><time>2026-04-28T08:57:37.45Z</time></trkpt><trkpt lat="44.0629826" lon="8.1714443"><ele>17.0</ele><time>2026-04-28T08:57:38.451Z</time></trkpt><trkpt lat="44.062846" lon="8.1715925"><ele>17.0</ele><time>2026-04-28T08:57:39.451Z</time></trkpt><trkpt lat="44.0627077" lon="8.1717359"><ele>17.0</ele><time>2026-04-28T08:57:40.452Z</time></trkpt><trkpt lat="44.0625694" lon="8.1718938"><ele>17.0</ele><time>2026-04-28T08:57:41.452Z</time></trkpt><trkpt lat="44.0624205" lon="8.1720404"><ele>17.0</ele><time>2026-04-28T08:57:42.452Z</time></trkpt><trkpt lat="44.0622824" lon="8.1721851"><ele>17.0</ele><time>2026-04-28T08:57:43.452Z</time></trkpt><trkpt lat="44.0621452" lon="8.1723277"><ele>17.0</ele><time>2026-04-28T08:57:44.451Z</time></trkpt><trkpt lat="44.0620079" lon="8.1724705"><ele>16.333333333333336</ele><time>2026-04-28T08:57:45.451Z</time></trkpt><trkpt lat="44.0618813" lon="8.1726035"><ele>15.666666666666668</ele><time>2026-04-28T08:57:46.452Z</time></trkpt><trkpt lat="44.0617621" lon="8.1727327"><ele>15.0</ele><time>2026-04-28T08:57:47.452Z</time></trkpt><trkpt lat="44.0616485" lon="8.1728563"><ele>15.0</ele><time>2026-04-28T08:57:48.452Z</time></trkpt><trkpt lat="44.0615503" lon="8.1729806"><ele>15.0</ele><time>2026-04-28T08:57:49.451Z</time></trkpt><trkpt lat="44.0614705" lon="8.1731179"><ele>15.0</ele><time>2026-04-28T08:57:50.45Z</time></trkpt><trkpt lat="44.0614036" lon="8.1732592"><ele>15.0</ele><time>2026-04-28T08:57:51.452Z</time></trkpt><trkpt lat="44.061344" lon="8.1734033"><ele>15.0</ele><time>2026-04-28T08:57:52.451Z</time></trkpt><trkpt lat="44.0612866" lon="8.1735585"><ele>15.0</ele><time>2026-04-28T08:57:53.451Z</time></trkpt><trkpt lat="44.0612266" lon="8.1737274"><ele>15.0</ele><time>2026-04-28T08:57:54.452Z</time></trkpt><trkpt lat="44.0611513" lon="8.1739018"><ele>15.0</ele><time>2026-04-28T08:57:55.452Z</time></trkpt><trkpt lat="44.0610665" lon="8.1740812"><ele>15.0</ele><time>2026-04-28T08:57:56.451Z</time></trkpt><trkpt lat="44.0609767" lon="8.1742713"><ele>15.0</ele><time>2026-04-28T08:57:57.451Z</time></trkpt><trkpt lat="44.0608881" lon="8.1744719"><ele>15.0</ele><time>2026-04-28T08:57:58.452Z</time></trkpt><trkpt lat="44.0608011" lon="8.1746867"><ele>14.666666666666668</ele><time>2026-04-28T08:57:59.452Z</time></trkpt><trkpt lat="44.0607121" lon="8.1749096"><ele>14.333333333333334</ele><time>2026-04-28T08:58:00.451Z</time></trkpt><trkpt lat="44.0606179" lon="8.1751363"><ele>14.0</ele><time>2026-04-28T08:58:01.451Z</time></trkpt><trkpt lat="44.0605252" lon="8.1753605"><ele>14.0</ele><time>2026-04-28T08:58:02.45Z</time></trkpt><trkpt lat="44.0604354" lon="8.1755806"><ele>14.0</ele><time>2026-04-28T08:58:03.452Z</time></trkpt><trkpt lat="44.0603415" lon="8.1758065"><ele>14.0</ele><time>2026-04-28T08:58:04.451Z</time></trkpt><trkpt lat="44.0602425" lon="8.1760301"><ele>14.666666666666668</ele><time>2026-04-28T08:58:05.451Z</time></trkpt><trkpt lat="44.0601346" lon="8.176249"><ele>15.333333333333332</ele><time>2026-04-28T08:58:06.452Z</time></trkpt><trkpt lat="44.0600152" lon="8.176457"><ele>16.0</ele><time>2026-04-28T08:58:07.451Z</time></trkpt><trkpt lat="44.0598901" lon="8.1766602"><ele>14.333333333333332</ele><time>2026-04-28T08:58:08.451Z</time></trkpt><trkpt lat="44.0597706" lon="8.1768729"><ele>12.666666666666666</ele><time>2026-04-28T08:58:09.452Z</time></trkpt><trkpt lat="44.0596659" lon="8.1771006"><ele>11.0</ele><time>2026-04-28T08:58:10.452Z</time></trkpt><trkpt lat="44.059572" lon="8.1773314"><ele>11.333333333333332</ele><time>2026-04-28T08:58:11.451Z</time></trkpt><trkpt lat="44.05948" lon="8.1775518"><ele>11.666666666666666</ele><time>2026-04-28T08:58:12.452Z</time></trkpt><trkpt lat="44.0593933" lon="8.1777579"><ele>12.0</ele><time>2026-04-28T08:58:13.451Z</time></trkpt><trkpt lat="44.0593112" lon="8.177951"><ele>12.0</ele><time>2026-04-28T08:58:14.452Z</time></trkpt><trkpt lat="44.0592348" lon="8.178134"><ele>12.0</ele><time>2026-04-28T08:58:15.452Z</time></trkpt><trkpt lat="44.0591626" lon="8.1783031"><ele>12.0</ele><time>2026-04-28T08:58:16.452Z</time></trkpt><trkpt lat="44.0590919" lon="8.1784606"><ele>12.0</ele><time>2026-04-28T08:58:17.451Z</time></trkpt><trkpt lat="44.0590254" lon="8.1786093"><ele>12.2</ele><time>2026-04-28T08:58:18.452Z</time></trkpt><trkpt lat="44.0589644" lon="8.1787469"><ele>12.399999999999999</ele><time>2026-04-28T08:58:19.451Z</time></trkpt><trkpt lat="44.0589176" lon="8.1788573"><ele>12.600000000000001</ele><time>2026-04-28T08:58:20.451Z</time></trkpt><trkpt lat="44.058856" lon="8.1789557"><ele>12.8</ele><time>2026-04-28T08:58:22.452Z</time></trkpt><trkpt lat="44.0588139" lon="8.1790467"><ele>13.0</ele><time>2026-04-28T08:58:25.451Z</time></trkpt><trkpt lat="44.0587535" lon="8.1791208"><ele>13.0</ele><time>2026-04-28T08:58:27.451Z</time></trkpt><trkpt lat="44.0586762" lon="8.179074"><ele>13.0</ele><time>2026-04-28T08:58:29.452Z</time></trkpt><trkpt lat="44.0586227" lon="8.1789914"><ele>13.0</ele><time>2026-04-28T08:58:30.452Z</time></trkpt><trkpt lat="44.058558" lon="8.178885"><ele>13.0</ele><time>2026-04-28T08:58:31.452Z</time></trkpt><trkpt lat="44.0584863" lon="8.178768"><ele>13.0</ele><time>2026-04-28T08:58:32.452Z</time></trkpt><trkpt lat="44.0584006" lon="8.1786362"><ele>13.0</ele><time>2026-04-28T08:58:33.452Z</time></trkpt><trkpt lat="44.0583174" lon="8.1784941"><ele>13.0</ele><time>2026-04-28T08:58:34.452Z</time></trkpt><trkpt lat="44.0582381" lon="8.1783402"><ele>13.0</ele><time>2026-04-28T08:58:35.452Z</time></trkpt><trkpt lat="44.0581539" lon="8.1781606"><ele>13.0</ele><time>2026-04-28T08:58:36.451Z</time></trkpt><trkpt lat="44.0580754" lon="8.1779682"><ele>13.0</ele><time>2026-04-28T08:58:37.451Z</time></trkpt><trkpt lat="44.0580044" lon="8.1777688"><ele>13.0</ele><time>2026-04-28T08:58:38.452Z</time></trkpt><trkpt lat="44.0579375" lon="8.1775567"><ele>13.0</ele><time>2026-04-28T08:58:39.451Z</time></trkpt><trkpt lat="44.0578746" lon="8.1773296"><ele>12.666666666666666</ele><time>2026-04-28T08:58:40.451Z</time></trkpt><trkpt lat="44.0578121" lon="8.1770937"><ele>12.333333333333332</ele><time>2026-04-28T08:58:41.452Z</time></trkpt><trkpt lat="44.0577517" lon="8.1768561"><ele>12.0</ele><time>2026-04-28T08:58:42.452Z</time></trkpt><trkpt lat="44.0576893" lon="8.1766173"><ele>12.333333333333332</ele><time>2026-04-28T08:58:43.451Z</time></trkpt><trkpt lat="44.0576272" lon="8.1763727"><ele>12.666666666666666</ele><time>2026-04-28T08:58:44.45Z</time></trkpt><trkpt lat="44.0575643" lon="8.176124"><ele>13.0</ele><time>2026-04-28T08:58:45.451Z</time></trkpt><trkpt lat="44.0575008" lon="8.1758712"><ele>13.333333333333332</ele><time>2026-04-28T08:58:46.452Z</time></trkpt><trkpt lat="44.0574337" lon="8.1756183"><ele>13.666666666666668</ele><time>2026-04-28T08:58:47.45Z</time></trkpt><trkpt lat="44.0573652" lon="8.1753694"><ele>14.0</ele><time>2026-04-28T08:58:48.451Z</time></trkpt><trkpt lat="44.0572945" lon="8.1751264"><ele>14.0</ele><time>2026-04-28T08:58:49.451Z</time></trkpt><trkpt lat="44.05723" lon="8.1748897"><ele>14.0</ele><time>2026-04-28T08:58:50.452Z</time></trkpt><trkpt lat="44.0571674" lon="8.1746576"><ele>14.0</ele><time>2026-04-28T08:58:51.45Z</time></trkpt><trkpt lat="44.0571051" lon="8.1744295"><ele>14.333333333333334</ele><time>2026-04-28T08:58:52.452Z</time></trkpt><trkpt lat="44.0570433" lon="8.1742048"><ele>14.666666666666668</ele><time>2026-04-28T08:58:53.451Z</time></trkpt><trkpt lat="44.0569851" lon="8.1739843"><ele>15.0</ele><time>2026-04-28T08:58:54.451Z</time></trkpt><trkpt lat="44.0569269" lon="8.1737742"><ele>16.0</ele><time>2026-04-28T08:58:55.452Z</time></trkpt><trkpt lat="44.0568717" lon="8.1735726"><ele>17.0</ele><time>2026-04-28T08:58:56.452Z</time></trkpt><trkpt lat="44.0568155" lon="8.1733753"><ele>18.0</ele><time>2026-04-28T08:58:57.452Z</time></trkpt><trkpt lat="44.0567548" lon="8.1731757"><ele>19.0</ele><time>2026-04-28T08:58:58.451Z</time></trkpt><trkpt lat="44.0566927" lon="8.1729697"><ele>20.0</ele><time>2026-04-28T08:58:59.451Z</time></trkpt><trkpt lat="44.0566327" lon="8.1727609"><ele>21.0</ele><time>2026-04-28T08:59:00.452Z</time></trkpt><trkpt lat="44.0565817" lon="8.1725567"><ele>19.25</ele><time>2026-04-28T08:59:01.452Z</time></trkpt><trkpt lat="44.0565483" lon="8.1723602"><ele>17.5</ele><time>2026-04-28T08:59:02.452Z</time></trkpt><trkpt lat="44.0565341" lon="8.1721705"><ele>15.75</ele><time>2026-04-28T08:59:03.452Z</time></trkpt><trkpt lat="44.0565445" lon="8.1720049"><ele>14.0</ele><time>2026-04-28T08:59:04.452Z</time></trkpt><trkpt lat="44.0565486" lon="8.1718434"><ele>14.0</ele><time>2026-04-28T08:59:05.452Z</time></trkpt><trkpt lat="44.0565632" lon="8.1716759"><ele>14.0</ele><time>2026-04-28T08:59:06.451Z</time></trkpt><trkpt lat="44.0565645" lon="8.1715072"><ele>14.0</ele><time>2026-04-28T08:59:07.451Z</time></trkpt><trkpt lat="44.056561" lon="8.1713391"><ele>14.0</ele><time>2026-04-28T08:59:08.452Z</time></trkpt><trkpt lat="44.0565697" lon="8.1711535"><ele>13.75</ele><time>2026-04-28T08:59:09.452Z</time></trkpt><trkpt lat="44.0565799" lon="8.1709731"><ele>13.5</ele><time>2026-04-28T08:59:10.451Z</time></trkpt><trkpt lat="44.0566037" lon="8.1707831"><ele>13.25</ele><time>2026-04-28T08:59:11.451Z</time></trkpt><trkpt lat="44.0566333" lon="8.1705857"><ele>13.0</ele><time>2026-04-28T08:59:12.452Z</time></trkpt><trkpt lat="44.0566751" lon="8.1703772"><ele>15.0</ele><time>2026-04-28T08:59:13.451Z</time></trkpt><trkpt lat="44.0567241" lon="8.1701506"><ele>17.0</ele><time>2026-04-28T08:59:14.452Z</time></trkpt><trkpt lat="44.0567822" lon="8.1699108"><ele>19.0</ele><time>2026-04-28T08:59:15.452Z</time></trkpt><trkpt lat="44.056841" lon="8.1696757"><ele>19.0</ele><time>2026-04-28T08:59:16.452Z</time></trkpt><trkpt lat="44.0569052" lon="8.1694354"><ele>19.0</ele><time>2026-04-28T08:59:17.451Z</time></trkpt><trkpt lat="44.0569665" lon="8.1691898"><ele>19.0</ele><time>2026-04-28T08:59:18.452Z</time></trkpt><trkpt lat="44.0570274" lon="8.1689414"><ele>18.333333333333332</ele><time>2026-04-28T08:59:19.452Z</time></trkpt><trkpt lat="44.0570853" lon="8.1686859"><ele>17.666666666666668</ele><time>2026-04-28T08:59:20.452Z</time></trkpt><trkpt lat="44.0571418" lon="8.1684213"><ele>17.0</ele><time>2026-04-28T08:59:21.452Z</time></trkpt><trkpt lat="44.0571911" lon="8.1681523"><ele>17.0</ele><time>2026-04-28T08:59:22.451Z</time></trkpt><trkpt lat="44.0572399" lon="8.1678807"><ele>17.0</ele><time>2026-04-28T08:59:23.451Z</time></trkpt><trkpt lat="44.0572852" lon="8.1676033"><ele>17.0</ele><time>2026-04-28T08:59:24.452Z</time></trkpt><trkpt lat="44.0573299" lon="8.1673313"><ele>18.666666666666668</ele><time>2026-04-28T08:59:25.451Z</time></trkpt><trkpt lat="44.0573735" lon="8.1670661"><ele>20.333333333333332</ele><time>2026-04-28T08:59:26.452Z</time></trkpt><trkpt lat="44.0574163" lon="8.166815"><ele>22.0</ele><time>2026-04-28T08:59:27.451Z</time></trkpt><trkpt lat="44.0574556" lon="8.166557"><ele>22.333333333333332</ele><time>2026-04-28T08:59:28.451Z</time></trkpt><trkpt lat="44.0574934" lon="8.1663227"><ele>22.666666666666668</ele><time>2026-04-28T08:59:29.452Z</time></trkpt><trkpt lat="44.0575258" lon="8.1660919"><ele>23.0</ele><time>2026-04-28T08:59:30.452Z</time></trkpt><trkpt lat="44.0575463" lon="8.1658678"><ele>23.333333333333336</ele><time>2026-04-28T08:59:31.451Z</time></trkpt><trkpt lat="44.0575325" lon="8.1656358"><ele>23.666666666666668</ele><time>2026-04-28T08:59:32.451Z</time></trkpt><trkpt lat="44.0575052" lon="8.165414"><ele>24.0</ele><time>2026-04-28T08:59:33.452Z</time></trkpt><trkpt lat="44.0574622" lon="8.1651971"><ele>22.0</ele><time>2026-04-28T08:59:34.452Z</time></trkpt><trkpt lat="44.0574087" lon="8.1649828"><ele>20.0</ele><time>2026-04-28T08:59:35.452Z</time></trkpt><trkpt lat="44.0573394" lon="8.1647655"><ele>18.0</ele><time>2026-04-28T08:59:36.45Z</time></trkpt><trkpt lat="44.057256" lon="8.164555"><ele>18.0</ele><time>2026-04-28T08:59:37.452Z</time></trkpt><trkpt lat="44.0571708" lon="8.1643479"><ele>18.0</ele><time>2026-04-28T08:59:38.452Z</time></trkpt><trkpt lat="44.0570922" lon="8.1641499"><ele>18.0</ele><time>2026-04-28T08:59:39.452Z</time></trkpt><trkpt lat="44.0570173" lon="8.1639565"><ele>19.0</ele><time>2026-04-28T08:59:40.452Z</time></trkpt><trkpt lat="44.0569513" lon="8.1637669"><ele>20.0</ele><time>2026-04-28T08:59:41.452Z</time></trkpt><trkpt lat="44.0568996" lon="8.1635702"><ele>21.0</ele><time>2026-04-28T08:59:42.452Z</time></trkpt><trkpt lat="44.0568584" lon="8.1633683"><ele>22.333333333333336</ele><time>2026-04-28T08:59:43.451Z</time></trkpt><trkpt lat="44.0568296" lon="8.1631555"><ele>23.666666666666668</ele><time>2026-04-28T08:59:44.451Z</time></trkpt><trkpt lat="44.056812" lon="8.1629386"><ele>25.0</ele><time>2026-04-28T08:59:45.452Z</time></trkpt><trkpt lat="44.0567988" lon="8.1627289"><ele>25.0</ele><time>2026-04-28T08:59:46.452Z</time></trkpt><trkpt lat="44.0567813" lon="8.1625276"><ele>25.0</ele><time>2026-04-28T08:59:47.451Z</time></trkpt><trkpt lat="44.0567708" lon="8.1623575"><ele>25.0</ele><time>2026-04-28T08:59:48.452Z</time></trkpt><trkpt lat="44.056756" lon="8.1621891"><ele>25.0</ele><time>2026-04-28T08:59:49.451Z</time></trkpt><trkpt lat="44.0567434" lon="8.1620412"><ele>25.2</ele><time>2026-04-28T08:59:50.452Z</time></trkpt><trkpt lat="44.0567252" lon="8.1619075"><ele>25.4</ele><time>2026-04-28T08:59:51.451Z</time></trkpt><trkpt lat="44.056703" lon="8.1617897"><ele>25.6</ele><time>2026-04-28T08:59:52.451Z</time></trkpt><trkpt lat="44.0566197" lon="8.1617196"><ele>25.8</ele><time>2026-04-28T08:59:53.452Z</time></trkpt><trkpt lat="44.0565355" lon="8.1616591"><ele>26.0</ele><time>2026-04-28T08:59:54.452Z</time></trkpt><trkpt lat="44.0564345" lon="8.1616539"><ele>24.400000000000002</ele><time>2026-04-28T08:59:55.452Z</time></trkpt><trkpt lat="44.0563403" lon="8.1616841"><ele>22.8</ele><time>2026-04-28T08:59:56.452Z</time></trkpt><trkpt lat="44.0562287" lon="8.1617487"><ele>21.200000000000003</ele><time>2026-04-28T08:59:57.452Z</time></trkpt><trkpt lat="44.0561381" lon="8.1618089"><ele>19.6</ele><time>2026-04-28T08:59:58.452Z</time></trkpt><trkpt lat="44.056063" lon="8.1618857"><ele>18.0</ele><time>2026-04-28T08:59:59.452Z</time></trkpt><trkpt lat="44.0559948" lon="8.1619796"><ele>18.0</ele><time>2026-04-28T09:00:00.452Z</time></trkpt><trkpt lat="44.055943" lon="8.1620806"><ele>18.0</ele><time>2026-04-28T09:00:01.451Z</time></trkpt><trkpt lat="44.0558649" lon="8.1621895"><ele>18.0</ele><time>2026-04-28T09:00:02.45Z</time></trkpt><trkpt lat="44.0557627" lon="8.1622836"><ele>18.0</ele><time>2026-04-28T09:00:03.451Z</time></trkpt><trkpt lat="44.0556388" lon="8.1623558"><ele>18.25</ele><time>2026-04-28T09:00:04.452Z</time></trkpt><trkpt lat="44.0554995" lon="8.1623802"><ele>18.5</ele><time>2026-04-28T09:00:05.452Z</time></trkpt><trkpt lat="44.0553555" lon="8.1623499"><ele>18.75</ele><time>2026-04-28T09:00:06.451Z</time></trkpt><trkpt lat="44.0552061" lon="8.1622775"><ele>19.0</ele><time>2026-04-28T09:00:07.452Z</time></trkpt><trkpt lat="44.0550589" lon="8.1621813"><ele>19.666666666666664</ele><time>2026-04-28T09:00:08.452Z</time></trkpt><trkpt lat="44.0549168" lon="8.1620715"><ele>20.333333333333332</ele><time>2026-04-28T09:00:09.451Z</time></trkpt><trkpt lat="44.0547709" lon="8.1619378"><ele>21.0</ele><time>2026-04-28T09:00:10.452Z</time></trkpt><trkpt lat="44.0546241" lon="8.1617859"><ele>21.0</ele><time>2026-04-28T09:00:11.452Z</time></trkpt><trkpt lat="44.0544807" lon="8.1616037"><ele>21.0</ele><time>2026-04-28T09:00:12.451Z</time></trkpt><trkpt lat="44.0543339" lon="8.1614098"><ele>21.0</ele><time>2026-04-28T09:00:13.451Z</time></trkpt><trkpt lat="44.054194" lon="8.1611919"><ele>20.0</ele><time>2026-04-28T09:00:14.452Z</time></trkpt><trkpt lat="44.0540637" lon="8.1609407"><ele>19.0</ele><time>2026-04-28T09:00:15.452Z</time></trkpt><trkpt lat="44.0539442" lon="8.1606656"><ele>18.5</ele><time>2026-04-28T09:00:16.451Z</time></trkpt><trkpt lat="44.0538373" lon="8.1603783"><ele>18.0</ele><time>2026-04-28T09:00:17.452Z</time></trkpt><trkpt lat="44.0537325" lon="8.160099"><ele>19.0</ele><time>2026-04-28T09:00:18.452Z</time></trkpt><trkpt lat="44.053628" lon="8.1598029"><ele>20.0</ele><time>2026-04-28T09:00:19.452Z</time></trkpt><trkpt lat="44.0535184" lon="8.1595063"><ele>20.0</ele><time>2026-04-28T09:00:20.452Z</time></trkpt><trkpt lat="44.053403" lon="8.1592084"><ele>20.0</ele><time>2026-04-28T09:00:21.451Z</time></trkpt><trkpt lat="44.0532913" lon="8.158908"><ele>20.0</ele><time>2026-04-28T09:00:22.452Z</time></trkpt><trkpt lat="44.0531799" lon="8.1586045"><ele>20.0</ele><time>2026-04-28T09:00:23.451Z</time></trkpt><trkpt lat="44.0530658" lon="8.1582993"><ele>20.5</ele><time>2026-04-28T09:00:24.452Z</time></trkpt><trkpt lat="44.0529528" lon="8.1579922"><ele>21.0</ele><time>2026-04-28T09:00:25.451Z</time></trkpt><trkpt lat="44.0528346" lon="8.1576839"><ele>21.0</ele><time>2026-04-28T09:00:26.452Z</time></trkpt><trkpt lat="44.0527181" lon="8.1573761"><ele>21.0</ele><time>2026-04-28T09:00:27.452Z</time></trkpt><trkpt lat="44.0525969" lon="8.157066"><ele>21.5</ele><time>2026-04-28T09:00:28.452Z</time></trkpt><trkpt lat="44.0524761" lon="8.1567533"><ele>22.0</ele><time>2026-04-28T09:00:29.451Z</time></trkpt><trkpt lat="44.0523535" lon="8.1564426"><ele>22.0</ele><time>2026-04-28T09:00:30.452Z</time></trkpt><trkpt lat="44.0522241" lon="8.156138"><ele>22.0</ele><time>2026-04-28T09:00:31.451Z</time></trkpt><trkpt lat="44.0520908" lon="8.1558314"><ele>22.0</ele><time>2026-04-28T09:00:32.451Z</time></trkpt><trkpt lat="44.0519563" lon="8.1555237"><ele>22.0</ele><time>2026-04-28T09:00:33.451Z</time></trkpt><trkpt lat="44.051819" lon="8.1552197"><ele>22.0</ele><time>2026-04-28T09:00:34.451Z</time></trkpt><trkpt lat="44.051678" lon="8.1549157"><ele>22.0</ele><time>2026-04-28T09:00:35.451Z</time></trkpt><trkpt lat="44.0515362" lon="8.1546141"><ele>22.0</ele><time>2026-04-28T09:00:36.451Z</time></trkpt><trkpt lat="44.0513941" lon="8.1543176"><ele>22.0</ele><time>2026-04-28T09:00:37.452Z</time></trkpt><trkpt lat="44.0512502" lon="8.1540257"><ele>22.0</ele><time>2026-04-28T09:00:38.452Z</time></trkpt><trkpt lat="44.0511045" lon="8.1537366"><ele>22.0</ele><time>2026-04-28T09:00:39.452Z</time></trkpt><trkpt lat="44.0509607" lon="8.1534519"><ele>22.0</ele><time>2026-04-28T09:00:40.452Z</time></trkpt><trkpt lat="44.0508111" lon="8.1531682"><ele>22.0</ele><time>2026-04-28T09:00:41.451Z</time></trkpt><trkpt lat="44.0506624" lon="8.1528899"><ele>22.0</ele><time>2026-04-28T09:00:42.452Z</time></trkpt><trkpt lat="44.0505096" lon="8.1526153"><ele>22.0</ele><time>2026-04-28T09:00:43.452Z</time></trkpt><trkpt lat="44.0503577" lon="8.1523423"><ele>23.0</ele><time>2026-04-28T09:00:44.452Z</time></trkpt><trkpt lat="44.050203" lon="8.1520654"><ele>24.0</ele><time>2026-04-28T09:00:45.451Z</time></trkpt><trkpt lat="44.0500463" lon="8.151792"><ele>24.5</ele><time>2026-04-28T09:00:46.451Z</time></trkpt><trkpt lat="44.0498886" lon="8.1515223"><ele>25.0</ele><time>2026-04-28T09:00:47.451Z</time></trkpt><trkpt lat="44.0497272" lon="8.1512544"><ele>25.0</ele><time>2026-04-28T09:00:48.452Z</time></trkpt><trkpt lat="44.049562" lon="8.150989"><ele>25.0</ele><time>2026-04-28T09:00:49.451Z</time></trkpt><trkpt lat="44.0493937" lon="8.1507296"><ele>25.0</ele><time>2026-04-28T09:00:50.451Z</time></trkpt><trkpt lat="44.0492238" lon="8.1504731"><ele>25.0</ele><time>2026-04-28T09:00:51.452Z</time></trkpt><trkpt lat="44.0490535" lon="8.1502141"><ele>25.0</ele><time>2026-04-28T09:00:52.451Z</time></trkpt><trkpt lat="44.0488844" lon="8.1499566"><ele>25.0</ele><time>2026-04-28T09:00:53.451Z</time></trkpt><trkpt lat="44.0487137" lon="8.1496993"><ele>25.5</ele><time>2026-04-28T09:00:54.452Z</time></trkpt><trkpt lat="44.0485419" lon="8.1494415"><ele>26.0</ele><time>2026-04-28T09:00:55.451Z</time></trkpt><trkpt lat="44.048368" lon="8.1491858"><ele>26.0</ele><time>2026-04-28T09:00:56.451Z</time></trkpt><trkpt lat="44.0481944" lon="8.1489302"><ele>26.0</ele><time>2026-04-28T09:00:57.451Z</time></trkpt><trkpt lat="44.0480217" lon="8.1486752"><ele>26.0</ele><time>2026-04-28T09:00:58.452Z</time></trkpt><trkpt lat="44.0478486" lon="8.1484189"><ele>26.0</ele><time>2026-04-28T09:00:59.451Z</time></trkpt><trkpt lat="44.0476751" lon="8.1481616"><ele>24.5</ele><time>2026-04-28T09:01:00.452Z</time></trkpt><trkpt lat="44.0475008" lon="8.1479066"><ele>23.0</ele><time>2026-04-28T09:01:01.452Z</time></trkpt><trkpt lat="44.0473254" lon="8.1476518"><ele>27.5</ele><time>2026-04-28T09:01:02.451Z</time></trkpt><trkpt lat="44.0471489" lon="8.1473962"><ele>32.0</ele><time>2026-04-28T09:01:03.452Z</time></trkpt><trkpt lat="44.0469695" lon="8.1471433"><ele>32.0</ele><time>2026-04-28T09:01:04.452Z</time></trkpt><trkpt lat="44.0467911" lon="8.1468902"><ele>32.0</ele><time>2026-04-28T09:01:05.452Z</time></trkpt><trkpt lat="44.0466151" lon="8.1466324"><ele>37.5</ele><time>2026-04-28T09:01:06.452Z</time></trkpt><trkpt lat="44.0464397" lon="8.1463739"><ele>43.0</ele><time>2026-04-28T09:01:07.45Z</time></trkpt><trkpt lat="44.0462648" lon="8.1461139"><ele>43.0</ele><time>2026-04-28T09:01:08.451Z</time></trkpt><trkpt lat="44.0460905" lon="8.1458531"><ele>43.0</ele><time>2026-04-28T09:01:09.451Z</time></trkpt><trkpt lat="44.0459134" lon="8.1455951"><ele>46.0</ele><time>2026-04-28T09:01:10.452Z</time></trkpt><trkpt lat="44.0457375" lon="8.145336"><ele>49.0</ele><time>2026-04-28T09:01:11.452Z</time></trkpt><trkpt lat="44.0455582" lon="8.1450851"><ele>43.0</ele><time>2026-04-28T09:01:12.451Z</time></trkpt><trkpt lat="44.0453809" lon="8.1448338"><ele>37.0</ele><time>2026-04-28T09:01:13.451Z</time></trkpt><trkpt lat="44.0452068" lon="8.1445785"><ele>37.0</ele><time>2026-04-28T09:01:14.45Z</time></trkpt><trkpt lat="44.0450363" lon="8.1443193"><ele>37.0</ele><time>2026-04-28T09:01:15.452Z</time></trkpt><trkpt lat="44.0448691" lon="8.1440592"><ele>39.0</ele><time>2026-04-28T09:01:16.452Z</time></trkpt><trkpt lat="44.0447099" lon="8.1437925"><ele>41.0</ele><time>2026-04-28T09:01:17.451Z</time></trkpt><trkpt lat="44.0445557" lon="8.1435182"><ele>41.0</ele><time>2026-04-28T09:01:18.451Z</time></trkpt><trkpt lat="44.0444045" lon="8.1432423"><ele>41.0</ele><time>2026-04-28T09:01:19.451Z</time></trkpt><trkpt lat="44.0442554" lon="8.1429642"><ele>45.5</ele><time>2026-04-28T09:01:20.452Z</time></trkpt><trkpt lat="44.0441064" lon="8.1426859"><ele>50.0</ele><time>2026-04-28T09:01:21.451Z</time></trkpt><trkpt lat="44.0439617" lon="8.1424034"><ele>49.0</ele><time>2026-04-28T09:01:22.451Z</time></trkpt><trkpt lat="44.0438214" lon="8.1421165"><ele>48.0</ele><time>2026-04-28T09:01:23.451Z</time></trkpt><trkpt lat="44.0436865" lon="8.1418246"><ele>44.0</ele><time>2026-04-28T09:01:24.451Z</time></trkpt><trkpt lat="44.04356" lon="8.1415245"><ele>40.0</ele><time>2026-04-28T09:01:25.451Z</time></trkpt><trkpt lat="44.0434368" lon="8.1412194"><ele>40.0</ele><time>2026-04-28T09:01:26.451Z</time></trkpt><trkpt lat="44.0433165" lon="8.1409095"><ele>40.0</ele><time>2026-04-28T09:01:27.452Z</time></trkpt><trkpt lat="44.0432008" lon="8.1405925"><ele>51.5</ele><time>2026-04-28T09:01:28.451Z</time></trkpt><trkpt lat="44.0430894" lon="8.140268"><ele>63.0</ele><time>2026-04-28T09:01:29.451Z</time></trkpt><trkpt lat="44.0429829" lon="8.1399366"><ele>55.0</ele><time>2026-04-28T09:01:30.452Z</time></trkpt><trkpt lat="44.0428779" lon="8.1396035"><ele>47.0</ele><time>2026-04-28T09:01:31.451Z</time></trkpt><trkpt lat="44.0427727" lon="8.1392681"><ele>43.5</ele><time>2026-04-28T09:01:32.451Z</time></trkpt><trkpt lat="44.0426725" lon="8.1389324"><ele>40.0</ele><time>2026-04-28T09:01:33.45Z</time></trkpt><trkpt lat="44.042571" lon="8.1385989"><ele>40.0</ele><time>2026-04-28T09:01:34.452Z</time></trkpt><trkpt lat="44.0424669" lon="8.138271"><ele>40.0</ele><time>2026-04-28T09:01:35.452Z</time></trkpt><trkpt lat="44.0423649" lon="8.1379432"><ele>43.0</ele><time>2026-04-28T09:01:36.45Z</time></trkpt><trkpt lat="44.0422624" lon="8.137616"><ele>46.0</ele><time>2026-04-28T09:01:37.452Z</time></trkpt><trkpt lat="44.0421586" lon="8.1372892"><ele>46.0</ele><time>2026-04-28T09:01:38.451Z</time></trkpt><trkpt lat="44.0420525" lon="8.136964"><ele>46.0</ele><time>2026-04-28T09:01:39.451Z</time></trkpt><trkpt lat="44.04194" lon="8.1366443"><ele>43.5</ele><time>2026-04-28T09:01:40.451Z</time></trkpt><trkpt lat="44.0418179" lon="8.1363351"><ele>41.0</ele><time>2026-04-28T09:01:41.451Z</time></trkpt><trkpt lat="44.0416846" lon="8.1360356"><ele>50.0</ele><time>2026-04-28T09:01:42.451Z</time></trkpt><trkpt lat="44.0415412" lon="8.1357485"><ele>59.0</ele><time>2026-04-28T09:01:43.452Z</time></trkpt><trkpt lat="44.041391" lon="8.1354727"><ele>59.0</ele><time>2026-04-28T09:01:44.452Z</time></trkpt><trkpt lat="44.0412367" lon="8.1352113"><ele>59.0</ele><time>2026-04-28T09:01:45.451Z</time></trkpt><trkpt lat="44.0410806" lon="8.1349672"><ele>57.0</ele><time>2026-04-28T09:01:46.452Z</time></trkpt><trkpt lat="44.0409154" lon="8.1347362"><ele>55.0</ele><time>2026-04-28T09:01:47.452Z</time></trkpt><trkpt lat="44.040749" lon="8.1345084"><ele>56.0</ele><time>2026-04-28T09:01:48.451Z</time></trkpt><trkpt lat="44.0405832" lon="8.134282"><ele>57.0</ele><time>2026-04-28T09:01:49.452Z</time></trkpt><trkpt lat="44.0404187" lon="8.1340519"><ele>51.0</ele><time>2026-04-28T09:01:50.452Z</time></trkpt><trkpt lat="44.0392657" lon="8.1330153"><ele>55.5</ele><time>2026-04-28T09:01:56.452Z</time></trkpt><trkpt lat="44.0390397" lon="8.132899"><ele>60.0</ele><time>2026-04-28T09:01:57.452Z</time></trkpt><trkpt lat="44.0388177" lon="8.1327454"><ele>60.0</ele><time>2026-04-28T09:01:58.452Z</time></trkpt><trkpt lat="44.0385959" lon="8.132613"><ele>60.0</ele><time>2026-04-28T09:01:59.452Z</time></trkpt><trkpt lat="44.0383733" lon="8.1325007"><ele>64.0</ele><time>2026-04-28T09:02:00.45Z</time></trkpt><trkpt lat="44.038146" lon="8.1324048"><ele>68.0</ele><time>2026-04-28T09:02:01.451Z</time></trkpt><trkpt lat="44.0379164" lon="8.1323181"><ele>68.0</ele><time>2026-04-28T09:02:02.451Z</time></trkpt><trkpt lat="44.0376861" lon="8.1322413"><ele>68.0</ele><time>2026-04-28T09:02:03.45Z</time></trkpt><trkpt lat="44.0374457" lon="8.1321778"><ele>65.5</ele><time>2026-04-28T09:02:04.451Z</time></trkpt><trkpt lat="44.0372064" lon="8.1321159"><ele>63.0</ele><time>2026-04-28T09:02:05.452Z</time></trkpt><trkpt lat="44.0369693" lon="8.1320519"><ele>63.0</ele><time>2026-04-28T09:02:06.452Z</time></trkpt><trkpt lat="44.0367335" lon="8.1319892"><ele>63.0</ele><time>2026-04-28T09:02:07.451Z</time></trkpt><trkpt lat="44.0364933" lon="8.1319394"><ele>64.5</ele><time>2026-04-28T09:02:08.451Z</time></trkpt><trkpt lat="44.0362513" lon="8.131908"><ele>66.0</ele><time>2026-04-28T09:02:09.452Z</time></trkpt><trkpt lat="44.0360121" lon="8.1319113"><ele>65.5</ele><time>2026-04-28T09:02:10.452Z</time></trkpt><trkpt lat="44.0357761" lon="8.1319387"><ele>65.0</ele><time>2026-04-28T09:02:11.451Z</time></trkpt><trkpt lat="44.0355412" lon="8.1319903"><ele>65.0</ele><time>2026-04-28T09:02:12.451Z</time></trkpt><trkpt lat="44.0353065" lon="8.1320617"><ele>65.0</ele><time>2026-04-28T09:02:13.451Z</time></trkpt><trkpt lat="44.035079" lon="8.1321581"><ele>63.5</ele><time>2026-04-28T09:02:14.451Z</time></trkpt><trkpt lat="44.0348601" lon="8.1322777"><ele>62.0</ele><time>2026-04-28T09:02:15.452Z</time></trkpt><trkpt lat="44.0346591" lon="8.1324045"><ele>64.0</ele><time>2026-04-28T09:02:16.452Z</time></trkpt><trkpt lat="44.0344658" lon="8.1325357"><ele>66.0</ele><time>2026-04-28T09:02:17.452Z</time></trkpt><trkpt lat="44.0342694" lon="8.1326615"><ele>68.0</ele><time>2026-04-28T09:02:18.451Z</time></trkpt><trkpt lat="44.0340617" lon="8.1327762"><ele>68.0</ele><time>2026-04-28T09:02:19.45Z</time></trkpt><trkpt lat="44.0338406" lon="8.1328733"><ele>68.0</ele><time>2026-04-28T09:02:20.451Z</time></trkpt><trkpt lat="44.033611" lon="8.1329462"><ele>68.0</ele><time>2026-04-28T09:02:21.452Z</time></trkpt><trkpt lat="44.0333735" lon="8.1329991"><ele>68.0</ele><time>2026-04-28T09:02:22.45Z</time></trkpt><trkpt lat="44.0331291" lon="8.1330256"><ele>71.5</ele><time>2026-04-28T09:02:23.451Z</time></trkpt><trkpt lat="44.0328794" lon="8.1330319"><ele>75.0</ele><time>2026-04-28T09:02:24.452Z</time></trkpt><trkpt lat="44.0326358" lon="8.1330176"><ele>84.0</ele><time>2026-04-28T09:02:25.451Z</time></trkpt><trkpt lat="44.0323963" lon="8.1329758"><ele>93.0</ele><time>2026-04-28T09:02:26.451Z</time></trkpt><trkpt lat="44.0321579" lon="8.1329181"><ele>93.0</ele><time>2026-04-28T09:02:27.451Z</time></trkpt><trkpt lat="44.0319208" lon="8.1328405"><ele>93.0</ele><time>2026-04-28T09:02:28.452Z</time></trkpt><trkpt lat="44.031685" lon="8.1327426"><ele>96.0</ele><time>2026-04-28T09:02:29.452Z</time></trkpt><trkpt lat="44.0314506" lon="8.1326341"><ele>99.0</ele><time>2026-04-28T09:02:30.451Z</time></trkpt><trkpt lat="44.0312236" lon="8.1325337"><ele>99.0</ele><time>2026-04-28T09:02:31.452Z</time></trkpt><trkpt lat="44.0310139" lon="8.1324433"><ele>99.0</ele><time>2026-04-28T09:02:32.451Z</time></trkpt><trkpt lat="44.0308194" lon="8.1323602"><ele>99.0</ele><time>2026-04-28T09:02:33.451Z</time></trkpt><trkpt lat="44.0306425" lon="8.1322821"><ele>98.66666666666666</ele><time>2026-04-28T09:02:34.452Z</time></trkpt><trkpt lat="44.030482" lon="8.1322139"><ele>98.33333333333333</ele><time>2026-04-28T09:02:35.452Z</time></trkpt><trkpt lat="44.0303286" lon="8.1321481"><ele>98.0</ele><time>2026-04-28T09:02:36.451Z</time></trkpt><trkpt lat="44.0301686" lon="8.132082"><ele>98.0</ele><time>2026-04-28T09:02:37.451Z</time></trkpt><trkpt lat="44.0299962" lon="8.1320089"><ele>98.0</ele><time>2026-04-28T09:02:38.452Z</time></trkpt><trkpt lat="44.0298082" lon="8.1319308"><ele>98.0</ele><time>2026-04-28T09:02:39.452Z</time></trkpt><trkpt lat="44.0296057" lon="8.1318398"><ele>97.5</ele><time>2026-04-28T09:02:40.452Z</time></trkpt><trkpt lat="44.0293914" lon="8.1317405"><ele>97.0</ele><time>2026-04-28T09:02:41.452Z</time></trkpt><trkpt lat="44.0291635" lon="8.1316449"><ele>99.5</ele><time>2026-04-28T09:02:42.451Z</time></trkpt><trkpt lat="44.0289223" lon="8.1315456"><ele>102.0</ele><time>2026-04-28T09:02:43.452Z</time></trkpt><trkpt lat="44.0286774" lon="8.1314408"><ele>102.0</ele><time>2026-04-28T09:02:44.452Z</time></trkpt><trkpt lat="44.0284326" lon="8.131329"><ele>102.0</ele><time>2026-04-28T09:02:45.451Z</time></trkpt><trkpt lat="44.0281773" lon="8.1312114"><ele>103.5</ele><time>2026-04-28T09:02:46.452Z</time></trkpt><trkpt lat="44.0279211" lon="8.1310908"><ele>105.0</ele><time>2026-04-28T09:02:47.452Z</time></trkpt><trkpt lat="44.0276611" lon="8.1309829"><ele>108.5</ele><time>2026-04-28T09:02:48.451Z</time></trkpt><trkpt lat="44.027405" lon="8.1308692"><ele>112.0</ele><time>2026-04-28T09:02:49.451Z</time></trkpt><trkpt lat="44.0271381" lon="8.1307532"><ele>106.0</ele><time>2026-04-28T09:02:50.451Z</time></trkpt><trkpt lat="44.0268589" lon="8.1306422"><ele>100.0</ele><time>2026-04-28T09:02:51.452Z</time></trkpt><trkpt lat="44.0265781" lon="8.1305192"><ele>100.0</ele><time>2026-04-28T09:02:52.452Z</time></trkpt><trkpt lat="44.0262928" lon="8.1304009"><ele>100.0</ele><time>2026-04-28T09:02:53.451Z</time></trkpt><trkpt lat="44.0260098" lon="8.130287"><ele>105.0</ele><time>2026-04-28T09:02:54.451Z</time></trkpt><trkpt lat="44.0257123" lon="8.1302089"><ele>110.0</ele><time>2026-04-28T09:02:55.451Z</time></trkpt><trkpt lat="44.0254113" lon="8.1301607"><ele>110.0</ele><time>2026-04-28T09:02:56.452Z</time></trkpt><trkpt lat="44.0251102" lon="8.130136"><ele>110.0</ele><time>2026-04-28T09:02:57.451Z</time></trkpt><trkpt lat="44.0248075" lon="8.1301267"><ele>111.5</ele><time>2026-04-28T09:02:58.451Z</time></trkpt><trkpt lat="44.0245032" lon="8.1301164"><ele>113.0</ele><time>2026-04-28T09:02:59.452Z</time></trkpt><trkpt lat="44.024207" lon="8.1300934"><ele>113.5</ele><time>2026-04-28T09:03:00.452Z</time></trkpt><trkpt lat="44.0239255" lon="8.1300667"><ele>114.0</ele><time>2026-04-28T09:03:01.451Z</time></trkpt><trkpt lat="44.0236559" lon="8.1300545"><ele>114.0</ele><time>2026-04-28T09:03:02.451Z</time></trkpt><trkpt lat="44.0234075" lon="8.1300557"><ele>114.0</ele><time>2026-04-28T09:03:03.451Z</time></trkpt><trkpt lat="44.0231695" lon="8.1300843"><ele>114.0</ele><time>2026-04-28T09:03:04.451Z</time></trkpt><trkpt lat="44.0229363" lon="8.1301372"><ele>114.0</ele><time>2026-04-28T09:03:05.451Z</time></trkpt><trkpt lat="44.0227085" lon="8.1302174"><ele>114.0</ele><time>2026-04-28T09:03:06.451Z</time></trkpt><trkpt lat="44.0224902" lon="8.1303184"><ele>114.0</ele><time>2026-04-28T09:03:07.451Z</time></trkpt><trkpt lat="44.0222763" lon="8.130435"><ele>119.0</ele><time>2026-04-28T09:03:08.452Z</time></trkpt><trkpt lat="44.0220618" lon="8.1305568"><ele>124.0</ele><time>2026-04-28T09:03:09.452Z</time></trkpt><trkpt lat="44.0218457" lon="8.1306745"><ele>88.0</ele><time>2026-04-28T09:03:10.452Z</time></trkpt><trkpt lat="44.0073155" lon="8.1538094"><ele>88.0</ele><time>2026-04-28T09:04:54.451Z</time></trkpt><trkpt lat="44.0072736" lon="8.154112"><ele>88.0</ele><time>2026-04-28T09:04:55.452Z</time></trkpt><trkpt lat="44.0072592" lon="8.154439"><ele>88.0</ele><time>2026-04-28T09:04:56.452Z</time></trkpt><trkpt lat="44.0072651" lon="8.1547663"><ele>88.0</ele><time>2026-04-28T09:04:57.452Z</time></trkpt><trkpt lat="44.0072794" lon="8.1551013"><ele>87.5</ele><time>2026-04-28T09:04:58.451Z</time></trkpt><trkpt lat="44.0072893" lon="8.1554304"><ele>87.0</ele><time>2026-04-28T09:04:59.452Z</time></trkpt><trkpt lat="44.0073035" lon="8.1557559"><ele>87.66666666666667</ele><time>2026-04-28T09:05:00.451Z</time></trkpt><trkpt lat="44.0073113" lon="8.15606"><ele>88.33333333333334</ele><time>2026-04-28T09:05:01.452Z</time></trkpt><trkpt lat="44.0073157" lon="8.1563593"><ele>89.0</ele><time>2026-04-28T09:05:02.451Z</time></trkpt><trkpt lat="44.007324" lon="8.1566591"><ele>90.66666666666667</ele><time>2026-04-28T09:05:03.451Z</time></trkpt><trkpt lat="44.0073311" lon="8.1569585"><ele>92.33333333333333</ele><time>2026-04-28T09:05:04.452Z</time></trkpt><trkpt lat="44.0073381" lon="8.1572588"><ele>94.0</ele><time>2026-04-28T09:05:05.452Z</time></trkpt><trkpt lat="44.0068729" lon="8.1588837"><ele>84.5</ele><time>2026-04-28T09:05:11.452Z</time></trkpt><trkpt lat="44.0067327" lon="8.1591543"><ele>75.0</ele><time>2026-04-28T09:05:12.452Z</time></trkpt><trkpt lat="44.006652" lon="8.1594433"><ele>75.0</ele><time>2026-04-28T09:05:13.451Z</time></trkpt><trkpt lat="44.0065618" lon="8.1597526"><ele>75.0</ele><time>2026-04-28T09:05:14.451Z</time></trkpt><trkpt lat="44.0064647" lon="8.1600568"><ele>70.0</ele><time>2026-04-28T09:05:15.451Z</time></trkpt><trkpt lat="44.0063789" lon="8.1603518"><ele>65.0</ele><time>2026-04-28T09:05:16.452Z</time></trkpt><trkpt lat="44.0062948" lon="8.1606439"><ele>59.66666666666667</ele><time>2026-04-28T09:05:17.452Z</time></trkpt><trkpt lat="44.0062215" lon="8.16093"><ele>54.33333333333333</ele><time>2026-04-28T09:05:18.451Z</time></trkpt><trkpt lat="44.0061486" lon="8.1612099"><ele>49.0</ele><time>2026-04-28T09:05:19.451Z</time></trkpt><trkpt lat="44.0060759" lon="8.1614882"><ele>49.666666666666664</ele><time>2026-04-28T09:05:20.451Z</time></trkpt><trkpt lat="44.0060006" lon="8.1617525"><ele>50.33333333333333</ele><time>2026-04-28T09:05:21.451Z</time></trkpt><trkpt lat="44.0059022" lon="8.1619719"><ele>51.0</ele><time>2026-04-28T09:05:22.452Z</time></trkpt><trkpt lat="44.0057171" lon="8.1620598"><ele>51.0</ele><time>2026-04-28T09:05:23.452Z</time></trkpt><trkpt lat="44.0055935" lon="8.1622029"><ele>51.0</ele><time>2026-04-28T09:05:24.451Z</time></trkpt><trkpt lat="44.0055009" lon="8.1623457"><ele>51.0</ele><time>2026-04-28T09:05:25.451Z</time></trkpt><trkpt lat="44.0054287" lon="8.1624708"><ele>51.0</ele><time>2026-04-28T09:05:26.451Z</time></trkpt><trkpt lat="44.0053724" lon="8.1625946"><ele>45.0</ele><time>2026-04-28T09:05:27.452Z</time></trkpt><trkpt lat="44.0053118" lon="8.1627289"><ele>39.0</ele><time>2026-04-28T09:05:28.451Z</time></trkpt><trkpt lat="44.0052379" lon="8.1628811"><ele>33.0</ele><time>2026-04-28T09:05:29.451Z</time></trkpt><trkpt lat="44.0051526" lon="8.1630347"><ele>27.0</ele><time>2026-04-28T09:05:30.451Z</time></trkpt><trkpt lat="44.0050596" lon="8.1631715"><ele>26.0</ele><time>2026-04-28T09:05:31.452Z</time></trkpt><trkpt lat="44.0049601" lon="8.1632843"><ele>25.0</ele><time>2026-04-28T09:05:32.452Z</time></trkpt><trkpt lat="44.0048677" lon="8.1633791"><ele>24.0</ele><time>2026-04-28T09:05:33.451Z</time></trkpt><trkpt lat="44.004788" lon="8.1634689"><ele>23.0</ele><time>2026-04-28T09:05:34.452Z</time></trkpt><trkpt lat="44.0047281" lon="8.1635867"><ele>23.0</ele><time>2026-04-28T09:05:35.452Z</time></trkpt><trkpt lat="44.0046843" lon="8.1637255"><ele>23.0</ele><time>2026-04-28T09:05:36.452Z</time></trkpt><trkpt lat="44.0046436" lon="8.1638566"><ele>23.0</ele><time>2026-04-28T09:05:37.451Z</time></trkpt><trkpt lat="44.0045917" lon="8.1639658"><ele>23.0</ele><time>2026-04-28T09:05:38.452Z</time></trkpt><trkpt lat="44.0045327" lon="8.1640653"><ele>23.0</ele><time>2026-04-28T09:05:39.451Z</time></trkpt><trkpt lat="44.0044713" lon="8.1641742"><ele>21.4</ele><time>2026-04-28T09:05:40.451Z</time></trkpt><trkpt lat="44.0044012" lon="8.164286"><ele>19.799999999999997</ele><time>2026-04-28T09:05:41.45Z</time></trkpt><trkpt lat="44.0043243" lon="8.1643922"><ele>18.2</ele><time>2026-04-28T09:05:42.452Z</time></trkpt><trkpt lat="44.0042389" lon="8.1644952"><ele>16.6</ele><time>2026-04-28T09:05:43.452Z</time></trkpt><trkpt lat="44.0041592" lon="8.1645987"><ele>15.0</ele><time>2026-04-28T09:05:44.451Z</time></trkpt><trkpt lat="44.0040974" lon="8.1647036"><ele>15.0</ele><time>2026-04-28T09:05:45.451Z</time></trkpt><trkpt lat="44.0040498" lon="8.1648119"><ele>15.0</ele><time>2026-04-28T09:05:46.451Z</time></trkpt><trkpt lat="44.0040135" lon="8.1649262"><ele>15.0</ele><time>2026-04-28T09:05:47.452Z</time></trkpt><trkpt lat="44.0039789" lon="8.1650366"><ele>15.0</ele><time>2026-04-28T09:05:48.451Z</time></trkpt><trkpt lat="44.0039423" lon="8.165137"><ele>15.0</ele><time>2026-04-28T09:05:49.451Z</time></trkpt><trkpt lat="44.0039071" lon="8.1652207"><ele>15.0</ele><time>2026-04-28T09:05:50.451Z</time></trkpt><trkpt lat="44.0038665" lon="8.1652898"><ele>14.2</ele><time>2026-04-28T09:05:51.452Z</time></trkpt><trkpt lat="44.0037567" lon="8.1653275"><ele>13.4</ele><time>2026-04-28T09:05:53.451Z</time></trkpt><trkpt lat="44.0036636" lon="8.165238"><ele>12.600000000000001</ele><time>2026-04-28T09:05:55.452Z</time></trkpt><trkpt lat="44.00359" lon="8.165178"><ele>11.8</ele><time>2026-04-28T09:05:57.452Z</time></trkpt><trkpt lat="44.0035059" lon="8.1651723"><ele>11.0</ele><time>2026-04-28T09:05:59.451Z</time></trkpt><trkpt lat="44.0034486" lon="8.1652268"><ele>11.0</ele><time>2026-04-28T09:06:00.452Z</time></trkpt><trkpt lat="44.003389" lon="8.1653072"><ele>11.0</ele><time>2026-04-28T09:06:01.452Z</time></trkpt><trkpt lat="44.0033332" lon="8.1654389"><ele>11.0</ele><time>2026-04-28T09:06:02.451Z</time></trkpt><trkpt lat="44.0032636" lon="8.1655767"><ele>11.0</ele><time>2026-04-28T09:06:03.452Z</time></trkpt><trkpt lat="44.0031969" lon="8.1657069"><ele>11.0</ele><time>2026-04-28T09:06:04.451Z</time></trkpt><trkpt lat="44.0031408" lon="8.1658264"><ele>11.0</ele><time>2026-04-28T09:06:05.45Z</time></trkpt><trkpt lat="44.0030863" lon="8.1659296"><ele>11.0</ele><time>2026-04-28T09:06:06.451Z</time></trkpt><trkpt lat="44.0030296" lon="8.1660249"><ele>11.0</ele><time>2026-04-28T09:06:07.451Z</time></trkpt><trkpt lat="44.002972" lon="8.1661253"><ele>11.0</ele><time>2026-04-28T09:06:08.451Z</time></trkpt><trkpt lat="44.0029144" lon="8.1662317"><ele>11.0</ele><time>2026-04-28T09:06:09.45Z</time></trkpt><trkpt lat="44.0028598" lon="8.1663435"><ele>11.0</ele><time>2026-04-28T09:06:10.451Z</time></trkpt><trkpt lat="44.0028071" lon="8.16646"><ele>11.0</ele><time>2026-04-28T09:06:11.452Z</time></trkpt><trkpt lat="44.0027532" lon="8.1665673"><ele>11.0</ele><time>2026-04-28T09:06:12.452Z</time></trkpt><trkpt lat="44.0027032" lon="8.1666626"><ele>11.0</ele><time>2026-04-28T09:06:13.451Z</time></trkpt><trkpt lat="44.0026404" lon="8.166768"><ele>11.0</ele><time>2026-04-28T09:06:15.452Z</time></trkpt><trkpt lat="44.0025346" lon="8.1667792"><ele>10.75</ele><time>2026-04-28T09:06:18.451Z</time></trkpt><trkpt lat="44.0024039" lon="8.166704"><ele>10.5</ele><time>2026-04-28T09:06:20.452Z</time></trkpt><trkpt lat="44.002314" lon="8.1666411"><ele>10.25</ele><time>2026-04-28T09:06:21.452Z</time></trkpt><trkpt lat="44.0022064" lon="8.1665641"><ele>10.0</ele><time>2026-04-28T09:06:22.451Z</time></trkpt><trkpt lat="44.0020958" lon="8.1664866"><ele>10.5</ele><time>2026-04-28T09:06:23.451Z</time></trkpt><trkpt lat="44.001983" lon="8.166407"><ele>11.0</ele><time>2026-04-28T09:06:24.451Z</time></trkpt><trkpt lat="44.0018672" lon="8.166327"><ele>11.5</ele><time>2026-04-28T09:06:25.451Z</time></trkpt><trkpt lat="44.0017394" lon="8.1662407"><ele>12.0</ele><time>2026-04-28T09:06:26.451Z</time></trkpt><trkpt lat="44.001625" lon="8.1661583"><ele>12.0</ele><time>2026-04-28T09:06:27.451Z</time></trkpt><trkpt lat="44.0015216" lon="8.1660768"><ele>12.0</ele><time>2026-04-28T09:06:28.451Z</time></trkpt><trkpt lat="44.0014149" lon="8.1659965"><ele>12.0</ele><time>2026-04-28T09:06:29.452Z</time></trkpt><trkpt lat="44.0013144" lon="8.1659196"><ele>12.0</ele><time>2026-04-28T09:06:30.452Z</time></trkpt><trkpt lat="44.0012194" lon="8.1658497"><ele>12.0</ele><time>2026-04-28T09:06:31.452Z</time></trkpt><trkpt lat="44.001122" lon="8.1657879"><ele>12.0</ele><time>2026-04-28T09:06:32.451Z</time></trkpt><trkpt lat="44.0010285" lon="8.1657337"><ele>12.0</ele><time>2026-04-28T09:06:33.451Z</time></trkpt><trkpt lat="44.0009326" lon="8.1656922"><ele>12.0</ele><time>2026-04-28T09:06:34.452Z</time></trkpt><trkpt lat="44.0008415" lon="8.165654"><ele>12.0</ele><time>2026-04-28T09:06:35.452Z</time></trkpt><trkpt lat="44.0007571" lon="8.165619"><ele>11.833333333333334</ele><time>2026-04-28T09:06:36.451Z</time></trkpt><trkpt lat="44.0006739" lon="8.165588"><ele>11.666666666666666</ele><time>2026-04-28T09:06:37.451Z</time></trkpt><trkpt lat="44.0005812" lon="8.1655565"><ele>11.5</ele><time>2026-04-28T09:06:38.452Z</time></trkpt><trkpt lat="44.0005016" lon="8.1655228"><ele>11.333333333333332</ele><time>2026-04-28T09:06:39.451Z</time></trkpt><trkpt lat="44.0004105" lon="8.1654877"><ele>11.166666666666666</ele><time>2026-04-28T09:06:40.452Z</time></trkpt><trkpt lat="44.0003253" lon="8.1654584"><ele>11.0</ele><time>2026-04-28T09:06:41.452Z</time></trkpt><trkpt lat="44.0002315" lon="8.1654297"><ele>11.0</ele><time>2026-04-28T09:06:42.452Z</time></trkpt><trkpt lat="44.0001275" lon="8.1653906"><ele>11.0</ele><time>2026-04-28T09:06:43.452Z</time></trkpt><trkpt lat="44.0000072" lon="8.1653289"><ele>11.0</ele><time>2026-04-28T09:06:44.451Z</time></trkpt><trkpt lat="43.9998901" lon="8.1652665"><ele>11.0</ele><time>2026-04-28T09:06:45.451Z</time></trkpt><trkpt lat="43.9997747" lon="8.1652126"><ele>11.0</ele><time>2026-04-28T09:06:46.452Z</time></trkpt><trkpt lat="43.999658" lon="8.1651758"><ele>11.0</ele><time>2026-04-28T09:06:47.452Z</time></trkpt><trkpt lat="43.9995373" lon="8.1651567"><ele>11.0</ele><time>2026-04-28T09:06:48.451Z</time></trkpt><trkpt lat="43.9994078" lon="8.1651552"><ele>11.0</ele><time>2026-04-28T09:06:49.452Z</time></trkpt><trkpt lat="43.9992681" lon="8.1651638"><ele>11.666666666666666</ele><time>2026-04-28T09:06:50.452Z</time></trkpt><trkpt lat="43.9991085" lon="8.165177"><ele>12.333333333333332</ele><time>2026-04-28T09:06:51.45Z</time></trkpt><trkpt lat="43.9989445" lon="8.1651848"><ele>13.0</ele><time>2026-04-28T09:06:52.452Z</time></trkpt><trkpt lat="43.9987773" lon="8.1651928"><ele>13.0</ele><time>2026-04-28T09:06:53.452Z</time></trkpt><trkpt lat="43.9986077" lon="8.1652051"><ele>13.0</ele><time>2026-04-28T09:06:54.451Z</time></trkpt><trkpt lat="43.9984327" lon="8.1652265"><ele>13.0</ele><time>2026-04-28T09:06:55.452Z</time></trkpt><trkpt lat="43.9982665" lon="8.1652426"><ele>13.333333333333332</ele><time>2026-04-28T09:06:56.451Z</time></trkpt><trkpt lat="43.998109" lon="8.1652591"><ele>13.666666666666668</ele><time>2026-04-28T09:06:57.45Z</time></trkpt><trkpt lat="43.9979547" lon="8.1652794"><ele>14.0</ele><time>2026-04-28T09:06:58.452Z</time></trkpt><trkpt lat="43.9978014" lon="8.1653001"><ele>14.0</ele><time>2026-04-28T09:06:59.452Z</time></trkpt><trkpt lat="43.997647" lon="8.1653202"><ele>14.0</ele><time>2026-04-28T09:07:00.452Z</time></trkpt><trkpt lat="43.9974968" lon="8.1653368"><ele>14.0</ele><time>2026-04-28T09:07:01.451Z</time></trkpt><trkpt lat="43.9973438" lon="8.1653408"><ele>13.333333333333334</ele><time>2026-04-28T09:07:02.451Z</time></trkpt><trkpt lat="43.9971889" lon="8.1653182"><ele>12.666666666666668</ele><time>2026-04-28T09:07:03.451Z</time></trkpt><trkpt lat="43.9970325" lon="8.165252"><ele>12.0</ele><time>2026-04-28T09:07:04.452Z</time></trkpt><trkpt lat="43.9968741" lon="8.1651516"><ele>12.0</ele><time>2026-04-28T09:07:05.451Z</time></trkpt><trkpt lat="43.9967103" lon="8.1650335"><ele>12.0</ele><time>2026-04-28T09:07:06.45Z</time></trkpt><trkpt lat="43.9965345" lon="8.1649214"><ele>12.0</ele><time>2026-04-28T09:07:07.452Z</time></trkpt><trkpt lat="43.996351" lon="8.1648246"><ele>12.333333333333332</ele><time>2026-04-28T09:07:08.452Z</time></trkpt><trkpt lat="43.9961772" lon="8.1647337"><ele>12.666666666666666</ele><time>2026-04-28T09:07:09.452Z</time></trkpt><trkpt lat="43.9959956" lon="8.1646371"><ele>13.0</ele><time>2026-04-28T09:07:10.452Z</time></trkpt><trkpt lat="43.9958086" lon="8.1645313"><ele>11.666666666666666</ele><time>2026-04-28T09:07:11.451Z</time></trkpt><trkpt lat="43.9956233" lon="8.1644209"><ele>10.333333333333332</ele><time>2026-04-28T09:07:12.45Z</time></trkpt><trkpt lat="43.9954406" lon="8.1643118"><ele>9.0</ele><time>2026-04-28T09:07:13.452Z</time></trkpt><trkpt lat="43.9952543" lon="8.1642035"><ele>9.0</ele><time>2026-04-28T09:07:14.452Z</time></trkpt><trkpt lat="43.9950654" lon="8.164095"><ele>9.0</ele><time>2026-04-28T09:07:15.451Z</time></trkpt><trkpt lat="43.9948751" lon="8.1639856"><ele>9.0</ele><time>2026-04-28T09:07:16.451Z</time></trkpt><trkpt lat="43.9946858" lon="8.1638709"><ele>9.333333333333334</ele><time>2026-04-28T09:07:17.452Z</time></trkpt><trkpt lat="43.9944987" lon="8.1637563"><ele>9.666666666666668</ele><time>2026-04-28T09:07:18.452Z</time></trkpt><trkpt lat="43.9943151" lon="8.163648"><ele>10.0</ele><time>2026-04-28T09:07:19.452Z</time></trkpt><trkpt lat="43.9941346" lon="8.1635468"><ele>10.0</ele><time>2026-04-28T09:07:20.45Z</time></trkpt><trkpt lat="43.9939631" lon="8.1634514"><ele>10.0</ele><time>2026-04-28T09:07:21.452Z</time></trkpt><trkpt lat="43.9938006" lon="8.1633616"><ele>10.0</ele><time>2026-04-28T09:07:22.451Z</time></trkpt><trkpt lat="43.9936473" lon="8.1632814"><ele>10.0</ele><time>2026-04-28T09:07:23.451Z</time></trkpt><trkpt lat="43.9934997" lon="8.163212"><ele>10.0</ele><time>2026-04-28T09:07:24.452Z</time></trkpt><trkpt lat="43.9933593" lon="8.1631458"><ele>10.0</ele><time>2026-04-28T09:07:25.451Z</time></trkpt><trkpt lat="43.993227" lon="8.1630836"><ele>10.0</ele><time>2026-04-28T09:07:26.451Z</time></trkpt><trkpt lat="43.9931047" lon="8.16303"><ele>13.166666666666668</ele><time>2026-04-28T09:07:27.451Z</time></trkpt><trkpt lat="43.9930017" lon="8.1629928"><ele>16.333333333333332</ele><time>2026-04-28T09:07:28.451Z</time></trkpt><trkpt lat="43.9929183" lon="8.1629609"><ele>19.5</ele><time>2026-04-28T09:07:29.451Z</time></trkpt><trkpt lat="43.9928526" lon="8.1629354"><ele>22.666666666666664</ele><time>2026-04-28T09:07:30.45Z</time></trkpt><trkpt lat="43.992789" lon="8.1629127"><ele>25.833333333333332</ele><time>2026-04-28T09:07:32.452Z</time></trkpt><trkpt lat="43.9927133" lon="8.1628842"><ele>29.0</ele><time>2026-04-28T09:09:08.451Z</time></trkpt><trkpt lat="43.9926411" lon="8.1628663"><ele>29.0</ele><time>2026-04-28T09:09:09.452Z</time></trkpt><trkpt lat="43.9925445" lon="8.1628479"><ele>29.0</ele><time>2026-04-28T09:09:10.452Z</time></trkpt><trkpt lat="43.9924423" lon="8.1628315"><ele>29.0</ele><time>2026-04-28T09:09:11.451Z</time></trkpt><trkpt lat="43.9923138" lon="8.1628104"><ele>29.0</ele><time>2026-04-28T09:09:12.452Z</time></trkpt><trkpt lat="43.9921674" lon="8.1627892"><ele>29.0</ele><time>2026-04-28T09:09:13.451Z</time></trkpt><trkpt lat="43.9920174" lon="8.162773"><ele>29.0</ele><time>2026-04-28T09:09:14.45Z</time></trkpt><trkpt lat="43.9918556" lon="8.1627579"><ele>29.0</ele><time>2026-04-28T09:09:15.452Z</time></trkpt><trkpt lat="43.9916842" lon="8.1627418"><ele>27.666666666666664</ele><time>2026-04-28T09:09:16.45Z</time></trkpt><trkpt lat="43.9915148" lon="8.1627156"><ele>26.333333333333336</ele><time>2026-04-28T09:09:17.452Z</time></trkpt><trkpt lat="43.9913437" lon="8.1626772"><ele>25.0</ele><time>2026-04-28T09:09:18.452Z</time></trkpt><trkpt lat="43.9911659" lon="8.1626258"><ele>25.0</ele><time>2026-04-28T09:09:19.452Z</time></trkpt><trkpt lat="43.9909829" lon="8.1625552"><ele>25.0</ele><time>2026-04-28T09:09:20.451Z</time></trkpt><trkpt lat="43.9907987" lon="8.1624754"><ele>25.0</ele><time>2026-04-28T09:09:21.452Z</time></trkpt><trkpt lat="43.9906064" lon="8.1623786"><ele>38.66666666666667</ele><time>2026-04-28T09:09:22.452Z</time></trkpt><trkpt lat="43.9904217" lon="8.1622742"><ele>52.333333333333336</ele><time>2026-04-28T09:09:23.452Z</time></trkpt><trkpt lat="43.9902348" lon="8.1621538"><ele>66.0</ele><time>2026-04-28T09:09:24.452Z</time></trkpt><trkpt lat="43.9900469" lon="8.1620319"><ele>52.666666666666664</ele><time>2026-04-28T09:09:25.451Z</time></trkpt><trkpt lat="43.9898535" lon="8.1619065"><ele>39.33333333333333</ele><time>2026-04-28T09:09:26.452Z</time></trkpt><trkpt lat="43.9896587" lon="8.1617897"><ele>26.0</ele><time>2026-04-28T09:09:27.451Z</time></trkpt><trkpt lat="43.9894617" lon="8.1616733"><ele>26.0</ele><time>2026-04-28T09:09:28.452Z</time></trkpt><trkpt lat="43.9892602" lon="8.1615619"><ele>26.0</ele><time>2026-04-28T09:09:29.452Z</time></trkpt><trkpt lat="43.9890566" lon="8.1614497"><ele>26.0</ele><time>2026-04-28T09:09:30.451Z</time></trkpt><trkpt lat="43.9888491" lon="8.1613411"><ele>23.0</ele><time>2026-04-28T09:09:31.45Z</time></trkpt><trkpt lat="43.9886395" lon="8.1612283"><ele>20.0</ele><time>2026-04-28T09:09:32.451Z</time></trkpt><trkpt lat="43.9884303" lon="8.1611215"><ele>17.0</ele><time>2026-04-28T09:09:33.451Z</time></trkpt><trkpt lat="43.9882209" lon="8.1610169"><ele>17.0</ele><time>2026-04-28T09:09:34.452Z</time></trkpt><trkpt lat="43.9880095" lon="8.1609019"><ele>17.0</ele><time>2026-04-28T09:09:35.451Z</time></trkpt><trkpt lat="43.9877999" lon="8.1607874"><ele>20.5</ele><time>2026-04-28T09:09:36.452Z</time></trkpt><trkpt lat="43.9875878" lon="8.1606739"><ele>24.0</ele><time>2026-04-28T09:09:37.452Z</time></trkpt><trkpt lat="43.9873746" lon="8.1605587"><ele>24.0</ele><time>2026-04-28T09:09:38.451Z</time></trkpt><trkpt lat="43.9871626" lon="8.1604541"><ele>24.0</ele><time>2026-04-28T09:09:39.452Z</time></trkpt><trkpt lat="43.9869512" lon="8.1603462"><ele>24.0</ele><time>2026-04-28T09:09:40.452Z</time></trkpt><trkpt lat="43.9867331" lon="8.1602506"><ele>24.0</ele><time>2026-04-28T09:09:41.452Z</time></trkpt><trkpt lat="43.9865136" lon="8.1601631"><ele>18.5</ele><time>2026-04-28T09:09:42.451Z</time></trkpt><trkpt lat="43.986292" lon="8.1600864"><ele>13.0</ele><time>2026-04-28T09:09:43.452Z</time></trkpt><trkpt lat="43.9860624" lon="8.1600153"><ele>10.5</ele><time>2026-04-28T09:09:44.451Z</time></trkpt><trkpt lat="43.9858357" lon="8.1599567"><ele>8.0</ele><time>2026-04-28T09:09:45.452Z</time></trkpt><trkpt lat="43.9856024" lon="8.1598965"><ele>17.0</ele><time>2026-04-28T09:09:46.451Z</time></trkpt><trkpt lat="43.9853701" lon="8.159841"><ele>26.0</ele><time>2026-04-28T09:09:47.451Z</time></trkpt><trkpt lat="43.9851352" lon="8.1597817"><ele>23.5</ele><time>2026-04-28T09:09:48.452Z</time></trkpt><trkpt lat="43.9849038" lon="8.1597206"><ele>21.0</ele><time>2026-04-28T09:09:49.451Z</time></trkpt><trkpt lat="43.9846677" lon="8.1596671"><ele>21.0</ele><time>2026-04-28T09:09:50.452Z</time></trkpt><trkpt lat="43.9844381" lon="8.1596103"><ele>21.0</ele><time>2026-04-28T09:09:51.452Z</time></trkpt><trkpt lat="43.9842054" lon="8.1595531"><ele>16.5</ele><time>2026-04-28T09:09:52.451Z</time></trkpt><trkpt lat="43.9839749" lon="8.1594951"><ele>12.0</ele><time>2026-04-28T09:09:53.452Z</time></trkpt><trkpt lat="43.9837444" lon="8.1594359"><ele>12.0</ele><time>2026-04-28T09:09:54.452Z</time></trkpt><trkpt lat="43.9835147" lon="8.1593864"><ele>12.0</ele><time>2026-04-28T09:09:55.452Z</time></trkpt><trkpt lat="43.9832944" lon="8.1593326"><ele>11.666666666666666</ele><time>2026-04-28T09:09:56.452Z</time></trkpt><trkpt lat="43.9830768" lon="8.1592802"><ele>11.333333333333332</ele><time>2026-04-28T09:09:57.451Z</time></trkpt><trkpt lat="43.9828607" lon="8.1592347"><ele>11.0</ele><time>2026-04-28T09:09:58.452Z</time></trkpt><trkpt lat="43.9826491" lon="8.1591872"><ele>10.333333333333332</ele><time>2026-04-28T09:09:59.45Z</time></trkpt><trkpt lat="43.9824414" lon="8.1591395"><ele>9.666666666666666</ele><time>2026-04-28T09:10:00.451Z</time></trkpt><trkpt lat="43.9822395" lon="8.1590889"><ele>9.0</ele><time>2026-04-28T09:10:01.45Z</time></trkpt><trkpt lat="43.9820413" lon="8.1590386"><ele>12.666666666666668</ele><time>2026-04-28T09:10:02.452Z</time></trkpt><trkpt lat="43.9818475" lon="8.1589924"><ele>16.333333333333336</ele><time>2026-04-28T09:10:03.451Z</time></trkpt><trkpt lat="43.9816561" lon="8.1589535"><ele>20.0</ele><time>2026-04-28T09:10:04.45Z</time></trkpt><trkpt lat="43.9814675" lon="8.1589203"><ele>20.0</ele><time>2026-04-28T09:10:05.451Z</time></trkpt><trkpt lat="43.9812848" lon="8.1588818"><ele>20.0</ele><time>2026-04-28T09:10:06.452Z</time></trkpt><trkpt lat="43.9811117" lon="8.1588169"><ele>20.0</ele><time>2026-04-28T09:10:07.452Z</time></trkpt><trkpt lat="43.9809438" lon="8.158726"><ele>16.666666666666668</ele><time>2026-04-28T09:10:08.45Z</time></trkpt><trkpt lat="43.9807737" lon="8.1586255"><ele>13.333333333333334</ele><time>2026-04-28T09:10:09.451Z</time></trkpt><trkpt lat="43.9805916" lon="8.1585413"><ele>10.0</ele><time>2026-04-28T09:10:10.452Z</time></trkpt><trkpt lat="43.9804018" lon="8.1584775"><ele>10.0</ele><time>2026-04-28T09:10:11.451Z</time></trkpt><trkpt lat="43.9802057" lon="8.1584253"><ele>10.0</ele><time>2026-04-28T09:10:12.452Z</time></trkpt><trkpt lat="43.9800147" lon="8.1583656"><ele>10.0</ele><time>2026-04-28T09:10:13.452Z</time></trkpt><trkpt lat="43.9798335" lon="8.1583054"><ele>10.0</ele><time>2026-04-28T09:10:14.452Z</time></trkpt><trkpt lat="43.9796653" lon="8.1582463"><ele>10.0</ele><time>2026-04-28T09:10:15.451Z</time></trkpt><trkpt lat="43.9795074" lon="8.1581944"><ele>10.0</ele><time>2026-04-28T09:10:16.451Z</time></trkpt><trkpt lat="43.9793637" lon="8.1581492"><ele>12.75</ele><time>2026-04-28T09:10:17.452Z</time></trkpt><trkpt lat="43.9792314" lon="8.1581101"><ele>15.5</ele><time>2026-04-28T09:10:18.451Z</time></trkpt><trkpt lat="43.9791115" lon="8.158076"><ele>18.25</ele><time>2026-04-28T09:10:19.451Z</time></trkpt><trkpt lat="43.9790069" lon="8.1580439"><ele>21.0</ele><time>2026-04-28T09:10:20.452Z</time></trkpt><trkpt lat="43.9789133" lon="8.1580124"><ele>21.0</ele><time>2026-04-28T09:10:21.451Z</time></trkpt><trkpt lat="43.9788427" lon="8.1579895"><ele>21.0</ele><time>2026-04-28T09:10:22.451Z</time></trkpt><trkpt lat="43.9787367" lon="8.1579598"><ele>21.0</ele><time>2026-04-28T09:10:24.452Z</time></trkpt><trkpt lat="43.9786481" lon="8.157932"><ele>21.0</ele><time>2026-04-28T09:10:26.451Z</time></trkpt><trkpt lat="43.9785572" lon="8.1579065"><ele>21.0</ele><time>2026-04-28T09:10:28.452Z</time></trkpt><trkpt lat="43.9784377" lon="8.1578756"><ele>19.333333333333332</ele><time>2026-04-28T09:10:30.452Z</time></trkpt><trkpt lat="43.9783484" lon="8.1578572"><ele>17.666666666666668</ele><time>2026-04-28T09:10:31.451Z</time></trkpt><trkpt lat="43.9782614" lon="8.157835"><ele>16.0</ele><time>2026-04-28T09:10:32.45Z</time></trkpt><trkpt lat="43.9781765" lon="8.1578019"><ele>14.333333333333332</ele><time>2026-04-28T09:10:33.452Z</time></trkpt><trkpt lat="43.9780976" lon="8.1577747"><ele>12.666666666666666</ele><time>2026-04-28T09:10:34.451Z</time></trkpt><trkpt lat="43.9780187" lon="8.1577552"><ele>11.0</ele><time>2026-04-28T09:10:35.451Z</time></trkpt><trkpt lat="43.9779507" lon="8.1577444"><ele>11.0</ele><time>2026-04-28T09:10:36.451Z</time></trkpt><trkpt lat="43.9778623" lon="8.1577465"><ele>11.0</ele><time>2026-04-28T09:10:38.452Z</time></trkpt><trkpt lat="43.9777894" lon="8.1577473"><ele>11.0</ele><time>2026-04-28T09:10:40.451Z</time></trkpt><trkpt lat="43.9776927" lon="8.1577339"><ele>11.0</ele><time>2026-04-28T09:10:42.452Z</time></trkpt><trkpt lat="43.9776121" lon="8.157739"><ele>11.0</ele><time>2026-04-28T09:10:43.452Z</time></trkpt><trkpt lat="43.9775114" lon="8.1577602"><ele>11.0</ele><time>2026-04-28T09:10:44.451Z</time></trkpt><trkpt lat="43.9773937" lon="8.1577791"><ele>11.0</ele><time>2026-04-28T09:10:45.451Z</time></trkpt><trkpt lat="43.9772797" lon="8.157804"><ele>11.0</ele><time>2026-04-28T09:10:46.452Z</time></trkpt><trkpt lat="43.9771486" lon="8.1578355"><ele>11.0</ele><time>2026-04-28T09:10:47.451Z</time></trkpt><trkpt lat="43.9770122" lon="8.1578607"><ele>11.0</ele><time>2026-04-28T09:10:48.452Z</time></trkpt><trkpt lat="43.9768738" lon="8.1578962"><ele>11.0</ele><time>2026-04-28T09:10:49.45Z</time></trkpt><trkpt lat="43.9767418" lon="8.1579198"><ele>11.0</ele><time>2026-04-28T09:10:50.451Z</time></trkpt><trkpt lat="43.9766121" lon="8.1579431"><ele>11.0</ele><time>2026-04-28T09:10:51.452Z</time></trkpt><trkpt lat="43.9764829" lon="8.1579658"><ele>11.0</ele><time>2026-04-28T09:10:52.451Z</time></trkpt><trkpt lat="43.9763611" lon="8.1579743"><ele>11.0</ele><time>2026-04-28T09:10:53.452Z</time></trkpt><trkpt lat="43.9762432" lon="8.1579945"><ele>11.0</ele><time>2026-04-28T09:10:54.451Z</time></trkpt><trkpt lat="43.9761259" lon="8.1580152"><ele>11.0</ele><time>2026-04-28T09:10:55.451Z</time></trkpt><trkpt lat="43.9760024" lon="8.1580402"><ele>11.0</ele><time>2026-04-28T09:10:56.452Z</time></trkpt><trkpt lat="43.9758824" lon="8.1580688"><ele>11.0</ele><time>2026-04-28T09:10:57.452Z</time></trkpt><trkpt lat="43.9757572" lon="8.1580917"><ele>11.0</ele><time>2026-04-28T09:10:58.451Z</time></trkpt><trkpt lat="43.975637" lon="8.1581129"><ele>11.0</ele><time>2026-04-28T09:10:59.451Z</time></trkpt><trkpt lat="43.9755148" lon="8.1581349"><ele>11.0</ele><time>2026-04-28T09:11:00.452Z</time></trkpt><trkpt lat="43.9753938" lon="8.1581635"><ele>11.0</ele><time>2026-04-28T09:11:01.452Z</time></trkpt><trkpt lat="43.9752749" lon="8.1581936"><ele>11.0</ele><time>2026-04-28T09:11:02.451Z</time></trkpt><trkpt lat="43.9751623" lon="8.158259"><ele>11.0</ele><time>2026-04-28T09:11:03.451Z</time></trkpt><trkpt lat="43.9750622" lon="8.1583536"><ele>11.0</ele><time>2026-04-28T09:11:04.45Z</time></trkpt><trkpt lat="43.974972" lon="8.1584895"><ele>10.75</ele><time>2026-04-28T09:11:05.452Z</time></trkpt><trkpt lat="43.9748921" lon="8.1586521"><ele>10.5</ele><time>2026-04-28T09:11:06.452Z</time></trkpt><trkpt lat="43.9748082" lon="8.1588147"><ele>10.25</ele><time>2026-04-28T09:11:07.451Z</time></trkpt><trkpt lat="43.9747244" lon="8.1589877"><ele>10.0</ele><time>2026-04-28T09:11:08.451Z</time></trkpt><trkpt lat="43.9746213" lon="8.1591377"><ele>9.0</ele><time>2026-04-28T09:11:09.451Z</time></trkpt><trkpt lat="43.9745051" lon="8.1592589"><ele>8.0</ele><time>2026-04-28T09:11:10.452Z</time></trkpt><trkpt lat="43.9743765" lon="8.1593526"><ele>7.0</ele><time>2026-04-28T09:11:11.452Z</time></trkpt><trkpt lat="43.9742319" lon="8.1594193"><ele>6.0</ele><time>2026-04-28T09:11:12.451Z</time></trkpt><trkpt lat="43.9740792" lon="8.1594686"><ele>6.0</ele><time>2026-04-28T09:11:13.452Z</time></trkpt><trkpt lat="43.9739202" lon="8.1595102"><ele>6.0</ele><time>2026-04-28T09:11:14.451Z</time></trkpt><trkpt lat="43.9737575" lon="8.1595521"><ele>6.0</ele><time>2026-04-28T09:11:15.451Z</time></trkpt><trkpt lat="43.9735887" lon="8.1595927"><ele>6.0</ele><time>2026-04-28T09:11:16.452Z</time></trkpt><trkpt lat="43.9734105" lon="8.1596354"><ele>6.0</ele><time>2026-04-28T09:11:17.452Z</time></trkpt><trkpt lat="43.9732395" lon="8.1596863"><ele>6.0</ele><time>2026-04-28T09:11:18.452Z</time></trkpt><trkpt lat="43.9730694" lon="8.1597239"><ele>5.666666666666667</ele><time>2026-04-28T09:11:19.452Z</time></trkpt><trkpt lat="43.972897" lon="8.159761"><ele>5.333333333333334</ele><time>2026-04-28T09:11:20.45Z</time></trkpt><trkpt lat="43.9727198" lon="8.1597999"><ele>5.0</ele><time>2026-04-28T09:11:21.452Z</time></trkpt><trkpt lat="43.9725475" lon="8.1598447"><ele>4.333333333333334</ele><time>2026-04-28T09:11:22.45Z</time></trkpt><trkpt lat="43.9723659" lon="8.1598981"><ele>3.666666666666667</ele><time>2026-04-28T09:11:23.452Z</time></trkpt><trkpt lat="43.9721866" lon="8.1599705"><ele>3.0</ele><time>2026-04-28T09:11:24.452Z</time></trkpt><trkpt lat="43.9720157" lon="8.1600528"><ele>3.0</ele><time>2026-04-28T09:11:25.452Z</time></trkpt><trkpt lat="43.9718444" lon="8.1601439"><ele>3.0</ele><time>2026-04-28T09:11:26.451Z</time></trkpt><trkpt lat="43.9716758" lon="8.1602466"><ele>3.0</ele><time>2026-04-28T09:11:27.451Z</time></trkpt><trkpt lat="43.9715059" lon="8.1603489"><ele>4.0</ele><time>2026-04-28T09:11:28.452Z</time></trkpt><trkpt lat="43.9713383" lon="8.160446"><ele>5.0</ele><time>2026-04-28T09:11:29.451Z</time></trkpt><trkpt lat="43.9711609" lon="8.1605406"><ele>6.0</ele><time>2026-04-28T09:11:30.451Z</time></trkpt><trkpt lat="43.9709841" lon="8.1606304"><ele>6.333333333333334</ele><time>2026-04-28T09:11:31.451Z</time></trkpt><trkpt lat="43.9707993" lon="8.1607164"><ele>6.666666666666667</ele><time>2026-04-28T09:11:32.451Z</time></trkpt><trkpt lat="43.9706063" lon="8.1607923"><ele>7.0</ele><time>2026-04-28T09:11:33.452Z</time></trkpt><trkpt lat="43.970414" lon="8.1608558"><ele>7.0</ele><time>2026-04-28T09:11:34.451Z</time></trkpt><trkpt lat="43.970221" lon="8.1609178"><ele>7.0</ele><time>2026-04-28T09:11:35.451Z</time></trkpt><trkpt lat="43.9700317" lon="8.1609997"><ele>7.0</ele><time>2026-04-28T09:11:36.451Z</time></trkpt><trkpt lat="43.9698583" lon="8.1611214"><ele>6.666666666666667</ele><time>2026-04-28T09:11:37.452Z</time></trkpt><trkpt lat="43.9696999" lon="8.1612498"><ele>6.333333333333334</ele><time>2026-04-28T09:11:38.451Z</time></trkpt><trkpt lat="43.9695529" lon="8.161416"><ele>6.0</ele><time>2026-04-28T09:11:39.451Z</time></trkpt><trkpt lat="43.969417" lon="8.1615874"><ele>6.0</ele><time>2026-04-28T09:11:40.452Z</time></trkpt><trkpt lat="43.9692802" lon="8.1617676"><ele>6.0</ele><time>2026-04-28T09:11:41.451Z</time></trkpt><trkpt lat="43.9691465" lon="8.1619422"><ele>6.0</ele><time>2026-04-28T09:11:42.451Z</time></trkpt><trkpt lat="43.9690138" lon="8.1621283"><ele>7.333333333333334</ele><time>2026-04-28T09:11:43.451Z</time></trkpt><trkpt lat="43.968902" lon="8.1623298"><ele>8.666666666666668</ele><time>2026-04-28T09:11:44.452Z</time></trkpt><trkpt lat="43.9687935" lon="8.1625493"><ele>10.0</ele><time>2026-04-28T09:11:45.452Z</time></trkpt><trkpt lat="43.9686939" lon="8.1627765"><ele>10.0</ele><time>2026-04-28T09:11:46.452Z</time></trkpt><trkpt lat="43.9685853" lon="8.1630038"><ele>10.0</ele><time>2026-04-28T09:11:47.452Z</time></trkpt><trkpt lat="43.9684761" lon="8.1632121"><ele>10.0</ele><time>2026-04-28T09:11:48.452Z</time></trkpt><trkpt lat="43.9683317" lon="8.1634017"><ele>15.333333333333332</ele><time>2026-04-28T09:11:49.452Z</time></trkpt><trkpt lat="43.9681863" lon="8.1635787"><ele>20.666666666666664</ele><time>2026-04-28T09:11:50.452Z</time></trkpt><trkpt lat="43.9680284" lon="8.1637411"><ele>26.0</ele><time>2026-04-28T09:11:51.452Z</time></trkpt><trkpt lat="43.9678649" lon="8.1638762"><ele>26.0</ele><time>2026-04-28T09:11:52.452Z</time></trkpt><trkpt lat="43.967686" lon="8.1639964"><ele>26.0</ele><time>2026-04-28T09:11:53.451Z</time></trkpt><trkpt lat="43.967493" lon="8.1640848"><ele>26.0</ele><time>2026-04-28T09:11:54.451Z</time></trkpt><trkpt lat="43.9673011" lon="8.1641647"><ele>25.0</ele><time>2026-04-28T09:11:55.451Z</time></trkpt><trkpt lat="43.9671164" lon="8.1642515"><ele>24.0</ele><time>2026-04-28T09:11:56.452Z</time></trkpt><trkpt lat="43.9669391" lon="8.1643572"><ele>23.0</ele><time>2026-04-28T09:11:57.451Z</time></trkpt><trkpt lat="43.966793" lon="8.1645397"><ele>22.333333333333336</ele><time>2026-04-28T09:11:58.452Z</time></trkpt><trkpt lat="43.9666348" lon="8.1646883"><ele>21.666666666666668</ele><time>2026-04-28T09:11:59.451Z</time></trkpt><trkpt lat="43.9664622" lon="8.1648084"><ele>21.0</ele><time>2026-04-28T09:12:00.452Z</time></trkpt><trkpt lat="43.9662835" lon="8.1649168"><ele>21.0</ele><time>2026-04-28T09:12:01.451Z</time></trkpt><trkpt lat="43.9660987" lon="8.1650189"><ele>21.0</ele><time>2026-04-28T09:12:02.451Z</time></trkpt><trkpt lat="43.9659202" lon="8.1651487"><ele>21.0</ele><time>2026-04-28T09:12:03.452Z</time></trkpt><trkpt lat="43.9657657" lon="8.1653135"><ele>20.0</ele><time>2026-04-28T09:12:04.452Z</time></trkpt><trkpt lat="43.9656381" lon="8.1654793"><ele>19.0</ele><time>2026-04-28T09:12:05.452Z</time></trkpt><trkpt lat="43.9654813" lon="8.165616"><ele>18.0</ele><time>2026-04-28T09:12:06.451Z</time></trkpt><trkpt lat="43.9653165" lon="8.1657139"><ele>18.0</ele><time>2026-04-28T09:12:07.452Z</time></trkpt><trkpt lat="43.9651399" lon="8.1657858"><ele>18.0</ele><time>2026-04-28T09:12:08.451Z</time></trkpt><trkpt lat="43.9649791" lon="8.1658834"><ele>18.0</ele><time>2026-04-28T09:12:09.451Z</time></trkpt><trkpt lat="43.9648208" lon="8.1659987"><ele>29.666666666666668</ele><time>2026-04-28T09:12:10.452Z</time></trkpt><trkpt lat="43.9646524" lon="8.1661202"><ele>41.333333333333336</ele><time>2026-04-28T09:12:11.452Z</time></trkpt><trkpt lat="43.9644878" lon="8.1662516"><ele>53.0</ele><time>2026-04-28T09:12:12.452Z</time></trkpt><trkpt lat="43.9643061" lon="8.1663832"><ele>49.0</ele><time>2026-04-28T09:12:13.452Z</time></trkpt><trkpt lat="43.9641173" lon="8.166503"><ele>45.0</ele><time>2026-04-28T09:12:14.451Z</time></trkpt><trkpt lat="43.9639123" lon="8.1666119"><ele>41.0</ele><time>2026-04-28T09:12:15.452Z</time></trkpt><trkpt lat="43.9637104" lon="8.1667171"><ele>41.0</ele><time>2026-04-28T09:12:16.452Z</time></trkpt><trkpt lat="43.9634966" lon="8.1668187"><ele>41.0</ele><time>2026-04-28T09:12:17.451Z</time></trkpt><trkpt lat="43.9632816" lon="8.1669104"><ele>57.0</ele><time>2026-04-28T09:12:18.452Z</time></trkpt><trkpt lat="43.9630608" lon="8.1670448"><ele>73.0</ele><time>2026-04-28T09:12:19.451Z</time></trkpt><trkpt lat="43.9628479" lon="8.1671848"><ele>73.0</ele><time>2026-04-28T09:12:20.45Z</time></trkpt><trkpt lat="43.9626231" lon="8.1673406"><ele>73.0</ele><time>2026-04-28T09:12:21.452Z</time></trkpt><trkpt lat="43.9624409" lon="8.167565"><ele>65.5</ele><time>2026-04-28T09:12:22.451Z</time></trkpt><trkpt lat="43.9622691" lon="8.1677619"><ele>58.0</ele><time>2026-04-28T09:12:23.452Z</time></trkpt><trkpt lat="43.9621374" lon="8.1680194"><ele>68.0</ele><time>2026-04-28T09:12:24.452Z</time></trkpt><trkpt lat="43.9619971" lon="8.1682518"><ele>78.0</ele><time>2026-04-28T09:12:25.452Z</time></trkpt><trkpt lat="43.9618466" lon="8.1684783"><ele>88.0</ele><time>2026-04-28T09:12:26.452Z</time></trkpt><trkpt lat="43.9616873" lon="8.1686832"><ele>88.0</ele><time>2026-04-28T09:12:27.45Z</time></trkpt><trkpt lat="43.9615312" lon="8.1688663"><ele>88.0</ele><time>2026-04-28T09:12:28.451Z</time></trkpt><trkpt lat="43.9613637" lon="8.1690278"><ele>88.0</ele><time>2026-04-28T09:12:29.452Z</time></trkpt><trkpt lat="43.9611929" lon="8.1691782"><ele>89.66666666666666</ele><time>2026-04-28T09:12:30.451Z</time></trkpt><trkpt lat="43.9610276" lon="8.1693273"><ele>91.33333333333333</ele><time>2026-04-28T09:12:31.451Z</time></trkpt><trkpt lat="43.9608666" lon="8.1694637"><ele>93.0</ele><time>2026-04-28T09:12:32.45Z</time></trkpt><trkpt lat="43.9607239" lon="8.169599"><ele>93.0</ele><time>2026-04-28T09:12:33.452Z</time></trkpt><trkpt lat="43.9605916" lon="8.1697392"><ele>93.0</ele><time>2026-04-28T09:12:34.451Z</time></trkpt><trkpt lat="43.9604658" lon="8.169902"><ele>93.0</ele><time>2026-04-28T09:12:35.451Z</time></trkpt><trkpt lat="43.9603384" lon="8.1700837"><ele>96.33333333333334</ele><time>2026-04-28T09:12:36.452Z</time></trkpt><trkpt lat="43.9602009" lon="8.1702593"><ele>99.66666666666667</ele><time>2026-04-28T09:12:37.452Z</time></trkpt><trkpt lat="43.9600631" lon="8.170432"><ele>103.0</ele><time>2026-04-28T09:12:38.452Z</time></trkpt><trkpt lat="43.9599095" lon="8.1706162"><ele>90.33333333333334</ele><time>2026-04-28T09:12:39.452Z</time></trkpt><trkpt lat="43.959767" lon="8.1708025"><ele>77.66666666666667</ele><time>2026-04-28T09:12:40.452Z</time></trkpt><trkpt lat="43.9596189" lon="8.1709863"><ele>65.0</ele><time>2026-04-28T09:12:41.451Z</time></trkpt><trkpt lat="43.9594796" lon="8.1711865"><ele>65.0</ele><time>2026-04-28T09:12:42.451Z</time></trkpt><trkpt lat="43.9593416" lon="8.1713487"><ele>65.0</ele><time>2026-04-28T09:12:43.45Z</time></trkpt><trkpt lat="43.9592153" lon="8.1715327"><ele>65.0</ele><time>2026-04-28T09:12:44.451Z</time></trkpt><trkpt lat="43.9591118" lon="8.1717279"><ele>69.66666666666667</ele><time>2026-04-28T09:12:45.451Z</time></trkpt><trkpt lat="43.9590043" lon="8.1719158"><ele>74.33333333333333</ele><time>2026-04-28T09:12:46.451Z</time></trkpt><trkpt lat="43.9589031" lon="8.1721263"><ele>79.0</ele><time>2026-04-28T09:12:47.451Z</time></trkpt><trkpt lat="43.9588104" lon="8.1723176"><ele>79.75</ele><time>2026-04-28T09:12:48.451Z</time></trkpt><trkpt lat="43.9587309" lon="8.1724639"><ele>80.5</ele><time>2026-04-28T09:12:49.452Z</time></trkpt><trkpt lat="43.958603" lon="8.1725388"><ele>81.25</ele><time>2026-04-28T09:12:50.452Z</time></trkpt><trkpt lat="43.9584886" lon="8.1726439"><ele>82.0</ele><time>2026-04-28T09:12:51.452Z</time></trkpt><trkpt lat="43.9583455" lon="8.1726911"><ele>82.0</ele><time>2026-04-28T09:12:52.452Z</time></trkpt><trkpt lat="43.9582075" lon="8.1727094"><ele>82.0</ele><time>2026-04-28T09:12:53.451Z</time></trkpt><trkpt lat="43.9580651" lon="8.172713"><ele>82.0</ele><time>2026-04-28T09:12:54.452Z</time></trkpt><trkpt lat="43.9579118" lon="8.1727081"><ele>82.0</ele><time>2026-04-28T09:12:55.452Z</time></trkpt><trkpt lat="43.9577672" lon="8.1727081"><ele>82.0</ele><time>2026-04-28T09:12:56.451Z</time></trkpt><trkpt lat="43.9576323" lon="8.1727454"><ele>82.0</ele><time>2026-04-28T09:12:57.451Z</time></trkpt><trkpt lat="43.957495" lon="8.1728938"><ele>82.0</ele><time>2026-04-28T09:12:58.452Z</time></trkpt><trkpt lat="43.9573543" lon="8.1729315"><ele>85.5</ele><time>2026-04-28T09:12:59.452Z</time></trkpt><trkpt lat="43.9572054" lon="8.1729729"><ele>89.0</ele><time>2026-04-28T09:13:00.451Z</time></trkpt><trkpt lat="43.9570651" lon="8.172999"><ele>92.5</ele><time>2026-04-28T09:13:01.452Z</time></trkpt><trkpt lat="43.9569253" lon="8.1730109"><ele>96.0</ele><time>2026-04-28T09:13:02.452Z</time></trkpt><trkpt lat="43.9567953" lon="8.1730059"><ele>97.25</ele><time>2026-04-28T09:13:03.452Z</time></trkpt><trkpt lat="43.9566536" lon="8.1729973"><ele>98.5</ele><time>2026-04-28T09:13:04.452Z</time></trkpt><trkpt lat="43.95652" lon="8.1729386"><ele>99.75</ele><time>2026-04-28T09:13:05.452Z</time></trkpt><trkpt lat="43.9563891" lon="8.1728768"><ele>101.0</ele><time>2026-04-28T09:13:06.452Z</time></trkpt><trkpt lat="43.956248" lon="8.1728129"><ele>101.0</ele><time>2026-04-28T09:13:07.45Z</time></trkpt><trkpt lat="43.9561116" lon="8.1727305"><ele>101.0</ele><time>2026-04-28T09:13:08.45Z</time></trkpt><trkpt lat="43.955978" lon="8.1726976"><ele>101.0</ele><time>2026-04-28T09:13:09.452Z</time></trkpt><trkpt lat="43.9558198" lon="8.1726214"><ele>95.75</ele><time>2026-04-28T09:13:10.452Z</time></trkpt><trkpt lat="43.9557192" lon="8.1725606"><ele>90.5</ele><time>2026-04-28T09:13:11.452Z</time></trkpt><trkpt lat="43.9555777" lon="8.1725635"><ele>85.25</ele><time>2026-04-28T09:13:12.451Z</time></trkpt><trkpt lat="43.955458" lon="8.1725364"><ele>80.0</ele><time>2026-04-28T09:13:13.451Z</time></trkpt><trkpt lat="43.9553328" lon="8.1724964"><ele>80.0</ele><time>2026-04-28T09:13:14.451Z</time></trkpt><trkpt lat="43.9552075" lon="8.172423"><ele>80.0</ele><time>2026-04-28T09:13:15.452Z</time></trkpt><trkpt lat="43.9550928" lon="8.1723228"><ele>80.0</ele><time>2026-04-28T09:13:16.451Z</time></trkpt><trkpt lat="43.9549819" lon="8.1721962"><ele>80.0</ele><time>2026-04-28T09:13:17.452Z</time></trkpt><trkpt lat="43.9548703" lon="8.17206"><ele>80.5</ele><time>2026-04-28T09:13:18.452Z</time></trkpt><trkpt lat="43.9547619" lon="8.1719224"><ele>81.0</ele><time>2026-04-28T09:13:19.451Z</time></trkpt><trkpt lat="43.9546621" lon="8.1717781"><ele>81.5</ele><time>2026-04-28T09:13:20.451Z</time></trkpt><trkpt lat="43.9545856" lon="8.1716091"><ele>82.0</ele><time>2026-04-28T09:13:21.451Z</time></trkpt><trkpt lat="43.9545197" lon="8.1714213"><ele>84.66666666666666</ele><time>2026-04-28T09:13:22.451Z</time></trkpt><trkpt lat="43.9544537" lon="8.1712202"><ele>87.33333333333333</ele><time>2026-04-28T09:13:23.452Z</time></trkpt><trkpt lat="43.9543818" lon="8.1710046"><ele>90.0</ele><time>2026-04-28T09:13:24.451Z</time></trkpt><trkpt lat="43.9543135" lon="8.1707727"><ele>90.33333333333333</ele><time>2026-04-28T09:13:25.452Z</time></trkpt><trkpt lat="43.9542534" lon="8.1705279"><ele>90.66666666666666</ele><time>2026-04-28T09:13:26.452Z</time></trkpt><trkpt lat="43.9542164" lon="8.170277"><ele>91.0</ele><time>2026-04-28T09:13:27.451Z</time></trkpt><trkpt lat="43.9541914" lon="8.1700375"><ele>82.0</ele><time>2026-04-28T09:13:28.451Z</time></trkpt><trkpt lat="43.9541769" lon="8.1698069"><ele>73.0</ele><time>2026-04-28T09:13:29.451Z</time></trkpt><trkpt lat="43.9541596" lon="8.1695959"><ele>64.0</ele><time>2026-04-28T09:13:30.452Z</time></trkpt><trkpt lat="43.9541425" lon="8.169407"><ele>64.0</ele><time>2026-04-28T09:13:31.452Z</time></trkpt><trkpt lat="43.9541059" lon="8.1692292"><ele>64.0</ele><time>2026-04-28T09:13:32.451Z</time></trkpt><trkpt lat="43.9540438" lon="8.1690809"><ele>64.0</ele><time>2026-04-28T09:13:33.451Z</time></trkpt><trkpt lat="43.9539717" lon="8.1689523"><ele>64.0</ele><time>2026-04-28T09:13:34.452Z</time></trkpt><trkpt lat="43.9538761" lon="8.1688509"><ele>69.0</ele><time>2026-04-28T09:13:35.451Z</time></trkpt><trkpt lat="43.9537654" lon="8.1687595"><ele>74.0</ele><time>2026-04-28T09:13:36.451Z</time></trkpt><trkpt lat="43.9536546" lon="8.1686687"><ele>79.0</ele><time>2026-04-28T09:13:37.452Z</time></trkpt><trkpt lat="43.9535495" lon="8.1685768"><ele>84.0</ele><time>2026-04-28T09:13:38.452Z</time></trkpt><trkpt lat="43.9534483" lon="8.1684674"><ele>79.25</ele><time>2026-04-28T09:13:39.451Z</time></trkpt><trkpt lat="43.953357" lon="8.1683416"><ele>74.5</ele><time>2026-04-28T09:13:40.452Z</time></trkpt><trkpt lat="43.9532786" lon="8.1681946"><ele>69.75</ele><time>2026-04-28T09:13:41.452Z</time></trkpt><trkpt lat="43.9532029" lon="8.1680175"><ele>65.0</ele><time>2026-04-28T09:13:42.452Z</time></trkpt><trkpt lat="43.9531363" lon="8.1678493"><ele>65.0</ele><time>2026-04-28T09:13:43.451Z</time></trkpt><trkpt lat="43.9530809" lon="8.1676769"><ele>65.0</ele><time>2026-04-28T09:13:44.451Z</time></trkpt><trkpt lat="43.9530303" lon="8.1674934"><ele>65.0</ele><time>2026-04-28T09:13:45.451Z</time></trkpt><trkpt lat="43.953" lon="8.1672817"><ele>65.0</ele><time>2026-04-28T09:13:46.452Z</time></trkpt><trkpt lat="43.9529826" lon="8.1670453"><ele>65.66666666666667</ele><time>2026-04-28T09:13:47.452Z</time></trkpt><trkpt lat="43.9529543" lon="8.1667883"><ele>66.33333333333333</ele><time>2026-04-28T09:13:48.452Z</time></trkpt><trkpt lat="43.9529114" lon="8.1665343"><ele>67.0</ele><time>2026-04-28T09:13:49.452Z</time></trkpt><trkpt lat="43.9528495" lon="8.1662842"><ele>67.0</ele><time>2026-04-28T09:13:50.451Z</time></trkpt><trkpt lat="43.9527772" lon="8.1660243"><ele>67.0</ele><time>2026-04-28T09:13:51.452Z</time></trkpt><trkpt lat="43.9527122" lon="8.1657545"><ele>67.0</ele><time>2026-04-28T09:13:52.452Z</time></trkpt><trkpt lat="43.9526624" lon="8.1654682"><ele>68.33333333333333</ele><time>2026-04-28T09:13:53.452Z</time></trkpt><trkpt lat="43.9526223" lon="8.1651855"><ele>69.66666666666667</ele><time>2026-04-28T09:13:54.451Z</time></trkpt><trkpt lat="43.952592" lon="8.1648996"><ele>71.0</ele><time>2026-04-28T09:13:55.452Z</time></trkpt><trkpt lat="43.9525835" lon="8.1646142"><ele>68.33333333333334</ele><time>2026-04-28T09:13:56.451Z</time></trkpt><trkpt lat="43.9526071" lon="8.1643279"><ele>65.66666666666667</ele><time>2026-04-28T09:13:57.451Z</time></trkpt><trkpt lat="43.952652" lon="8.1640442"><ele>63.0</ele><time>2026-04-28T09:13:58.452Z</time></trkpt><trkpt lat="43.9527053" lon="8.1637655"><ele>58.33333333333333</ele><time>2026-04-28T09:13:59.452Z</time></trkpt><trkpt lat="43.9527596" lon="8.1634992"><ele>53.666666666666664</ele><time>2026-04-28T09:14:00.452Z</time></trkpt><trkpt lat="43.9528116" lon="8.163238"><ele>49.0</ele><time>2026-04-28T09:14:01.451Z</time></trkpt><trkpt lat="43.952866" lon="8.1629828"><ele>45.0</ele><time>2026-04-28T09:14:02.452Z</time></trkpt><trkpt lat="43.9529173" lon="8.1627341"><ele>41.0</ele><time>2026-04-28T09:14:03.452Z</time></trkpt><trkpt lat="43.9529676" lon="8.1624874"><ele>37.0</ele><time>2026-04-28T09:14:04.452Z</time></trkpt><trkpt lat="43.9530186" lon="8.1622534"><ele>36.66666666666667</ele><time>2026-04-28T09:14:05.451Z</time></trkpt><trkpt lat="43.9530663" lon="8.162023"><ele>36.333333333333336</ele><time>2026-04-28T09:14:06.451Z</time></trkpt><trkpt lat="43.9531142" lon="8.1617964"><ele>36.0</ele><time>2026-04-28T09:14:07.452Z</time></trkpt><trkpt lat="43.9531622" lon="8.1615731"><ele>33.0</ele><time>2026-04-28T09:14:08.452Z</time></trkpt><trkpt lat="43.9532115" lon="8.1613534"><ele>30.0</ele><time>2026-04-28T09:14:09.451Z</time></trkpt><trkpt lat="43.9532567" lon="8.1611418"><ele>27.0</ele><time>2026-04-28T09:14:10.45Z</time></trkpt><trkpt lat="43.9532939" lon="8.1609367"><ele>27.0</ele><time>2026-04-28T09:14:11.452Z</time></trkpt><trkpt lat="43.9533207" lon="8.1607234"><ele>27.0</ele><time>2026-04-28T09:14:12.451Z</time></trkpt><trkpt lat="43.953319" lon="8.1605204"><ele>27.0</ele><time>2026-04-28T09:14:13.452Z</time></trkpt><trkpt lat="43.953292" lon="8.1603104"><ele>26.333333333333336</ele><time>2026-04-28T09:14:14.452Z</time></trkpt><trkpt lat="43.9532384" lon="8.1601049"><ele>25.666666666666668</ele><time>2026-04-28T09:14:15.451Z</time></trkpt><trkpt lat="43.9531726" lon="8.1599018"><ele>25.0</ele><time>2026-04-28T09:14:16.452Z</time></trkpt><trkpt lat="43.9531007" lon="8.1597137"><ele>27.0</ele><time>2026-04-28T09:14:17.451Z</time></trkpt><trkpt lat="43.9530304" lon="8.1595289"><ele>29.0</ele><time>2026-04-28T09:14:18.451Z</time></trkpt><trkpt lat="43.952963" lon="8.1593488"><ele>31.0</ele><time>2026-04-28T09:14:19.452Z</time></trkpt><trkpt lat="43.9529087" lon="8.1591647"><ele>33.0</ele><time>2026-04-28T09:14:20.451Z</time></trkpt><trkpt lat="43.9528669" lon="8.1589694"><ele>34.666666666666664</ele><time>2026-04-28T09:14:21.452Z</time></trkpt><trkpt lat="43.9528382" lon="8.1587586"><ele>36.33333333333333</ele><time>2026-04-28T09:14:22.452Z</time></trkpt><trkpt lat="43.952827" lon="8.1585353"><ele>38.0</ele><time>2026-04-28T09:14:23.451Z</time></trkpt><trkpt lat="43.9528321" lon="8.1583012"><ele>39.666666666666664</ele><time>2026-04-28T09:14:24.451Z</time></trkpt><trkpt lat="43.952841" lon="8.1580708"><ele>41.333333333333336</ele><time>2026-04-28T09:14:25.451Z</time></trkpt><trkpt lat="43.9528312" lon="8.1578416"><ele>43.0</ele><time>2026-04-28T09:14:26.451Z</time></trkpt><trkpt lat="43.9527992" lon="8.1576091"><ele>43.0</ele><time>2026-04-28T09:14:27.452Z</time></trkpt><trkpt lat="43.9527492" lon="8.157369"><ele>43.0</ele><time>2026-04-28T09:14:28.451Z</time></trkpt><trkpt lat="43.952692" lon="8.1571208"><ele>43.0</ele><time>2026-04-28T09:14:29.451Z</time></trkpt><trkpt lat="43.9526338" lon="8.1568688"><ele>45.66666666666667</ele><time>2026-04-28T09:14:30.452Z</time></trkpt><trkpt lat="43.9525739" lon="8.1566133"><ele>48.333333333333336</ele><time>2026-04-28T09:14:31.452Z</time></trkpt><trkpt lat="43.9525168" lon="8.1563488"><ele>51.0</ele><time>2026-04-28T09:14:32.452Z</time></trkpt><trkpt lat="43.9524664" lon="8.1560786"><ele>40.333333333333336</ele><time>2026-04-28T09:14:33.451Z</time></trkpt><trkpt lat="43.9524235" lon="8.1558014"><ele>29.666666666666664</ele><time>2026-04-28T09:14:34.451Z</time></trkpt><trkpt lat="43.9523935" lon="8.1555197"><ele>19.0</ele><time>2026-04-28T09:14:35.451Z</time></trkpt><trkpt lat="43.9523603" lon="8.1552399"><ele>19.0</ele><time>2026-04-28T09:14:36.452Z</time></trkpt><trkpt lat="43.9523181" lon="8.1549603"><ele>19.0</ele><time>2026-04-28T09:14:37.452Z</time></trkpt><trkpt lat="43.9522666" lon="8.154686"><ele>19.0</ele><time>2026-04-28T09:14:38.451Z</time></trkpt><trkpt lat="43.9522048" lon="8.1544196"><ele>17.0</ele><time>2026-04-28T09:14:39.452Z</time></trkpt><trkpt lat="43.9521383" lon="8.1541625"><ele>15.0</ele><time>2026-04-28T09:14:40.451Z</time></trkpt><trkpt lat="43.9520726" lon="8.1539176"><ele>13.0</ele><time>2026-04-28T09:14:41.452Z</time></trkpt><trkpt lat="43.9520117" lon="8.153682"><ele>12.666666666666666</ele><time>2026-04-28T09:14:42.451Z</time></trkpt><trkpt lat="43.9519513" lon="8.1534491"><ele>12.333333333333332</ele><time>2026-04-28T09:14:43.452Z</time></trkpt><trkpt lat="43.9518939" lon="8.1532189"><ele>12.0</ele><time>2026-04-28T09:14:44.451Z</time></trkpt><trkpt lat="43.951838" lon="8.1530006"><ele>11.5</ele><time>2026-04-28T09:14:45.451Z</time></trkpt><trkpt lat="43.9517832" lon="8.1527983"><ele>11.0</ele><time>2026-04-28T09:14:46.452Z</time></trkpt><trkpt lat="43.9517301" lon="8.1526078"><ele>10.5</ele><time>2026-04-28T09:14:47.45Z</time></trkpt><trkpt lat="43.9516797" lon="8.1524315"><ele>10.0</ele><time>2026-04-28T09:14:48.452Z</time></trkpt><trkpt lat="43.9516326" lon="8.1522637"><ele>9.25</ele><time>2026-04-28T09:14:49.452Z</time></trkpt><trkpt lat="43.9515915" lon="8.1521037"><ele>8.5</ele><time>2026-04-28T09:14:50.452Z</time></trkpt><trkpt lat="43.9515545" lon="8.151945"><ele>7.75</ele><time>2026-04-28T09:14:51.451Z</time></trkpt><trkpt lat="43.9515213" lon="8.1517897"><ele>7.0</ele><time>2026-04-28T09:14:52.452Z</time></trkpt><trkpt lat="43.9514965" lon="8.1516529"><ele>6.8</ele><time>2026-04-28T09:14:53.452Z</time></trkpt><trkpt lat="43.9514943" lon="8.1515265"><ele>6.6</ele><time>2026-04-28T09:14:54.452Z</time></trkpt><trkpt lat="43.9515124" lon="8.1514057"><ele>6.3999999999999995</ele><time>2026-04-28T09:14:55.451Z</time></trkpt><trkpt lat="43.9515095" lon="8.1512868"><ele>6.199999999999999</ele><time>2026-04-28T09:14:56.451Z</time></trkpt><trkpt lat="43.9514579" lon="8.1511701"><ele>6.0</ele><time>2026-04-28T09:14:57.452Z</time></trkpt><trkpt lat="43.951371" lon="8.1510503"><ele>6.0</ele><time>2026-04-28T09:14:58.452Z</time></trkpt><trkpt lat="43.9512937" lon="8.1508981"><ele>6.0</ele><time>2026-04-28T09:14:59.451Z</time></trkpt><trkpt lat="43.9512429" lon="8.1507015"><ele>6.0</ele><time>2026-04-28T09:15:00.451Z</time></trkpt><trkpt lat="43.9511961" lon="8.1504787"><ele>6.333333333333334</ele><time>2026-04-28T09:15:01.452Z</time></trkpt><trkpt lat="43.9511352" lon="8.1502425"><ele>6.666666666666667</ele><time>2026-04-28T09:15:02.452Z</time></trkpt><trkpt lat="43.9510701" lon="8.1500078"><ele>7.0</ele><time>2026-04-28T09:15:03.451Z</time></trkpt><trkpt lat="43.9510097" lon="8.1497684"><ele>7.0</ele><time>2026-04-28T09:15:04.452Z</time></trkpt><trkpt lat="43.9509497" lon="8.1495062"><ele>7.0</ele><time>2026-04-28T09:15:05.452Z</time></trkpt><trkpt lat="43.950887" lon="8.1492317"><ele>7.0</ele><time>2026-04-28T09:15:06.451Z</time></trkpt><trkpt lat="43.9508224" lon="8.1489602"><ele>7.0</ele><time>2026-04-28T09:15:07.452Z</time></trkpt><trkpt lat="43.9507583" lon="8.148706"><ele>7.0</ele><time>2026-04-28T09:15:08.452Z</time></trkpt><trkpt lat="43.950694" lon="8.1484532"><ele>7.0</ele><time>2026-04-28T09:15:09.452Z</time></trkpt><trkpt lat="43.9506338" lon="8.1482072"><ele>7.0</ele><time>2026-04-28T09:15:10.451Z</time></trkpt><trkpt lat="43.9505745" lon="8.1479686"><ele>7.0</ele><time>2026-04-28T09:15:11.452Z</time></trkpt><trkpt lat="43.950515" lon="8.1477409"><ele>7.0</ele><time>2026-04-28T09:15:12.451Z</time></trkpt><trkpt lat="43.9504562" lon="8.1475168"><ele>7.333333333333334</ele><time>2026-04-28T09:15:13.451Z</time></trkpt><trkpt lat="43.9503946" lon="8.1472831"><ele>7.666666666666666</ele><time>2026-04-28T09:15:14.451Z</time></trkpt><trkpt lat="43.9503335" lon="8.1470408"><ele>8.0</ele><time>2026-04-28T09:15:15.452Z</time></trkpt><trkpt lat="43.9502776" lon="8.146796"><ele>8.0</ele><time>2026-04-28T09:15:16.452Z</time></trkpt><trkpt lat="43.9502247" lon="8.1465522"><ele>8.0</ele><time>2026-04-28T09:15:17.452Z</time></trkpt><trkpt lat="43.9501708" lon="8.146309"><ele>8.0</ele><time>2026-04-28T09:15:18.45Z</time></trkpt><trkpt lat="43.9501166" lon="8.1460722"><ele>8.333333333333332</ele><time>2026-04-28T09:15:19.451Z</time></trkpt><trkpt lat="43.9500612" lon="8.1458444"><ele>8.666666666666666</ele><time>2026-04-28T09:15:20.452Z</time></trkpt><trkpt lat="43.9500071" lon="8.1456297"><ele>9.0</ele><time>2026-04-28T09:15:21.45Z</time></trkpt><trkpt lat="43.9499577" lon="8.1454267"><ele>8.75</ele><time>2026-04-28T09:15:22.451Z</time></trkpt><trkpt lat="43.9499127" lon="8.1452353"><ele>8.5</ele><time>2026-04-28T09:15:23.451Z</time></trkpt><trkpt lat="43.9498695" lon="8.1450565"><ele>8.25</ele><time>2026-04-28T09:15:24.451Z</time></trkpt><trkpt lat="43.949831" lon="8.1448903"><ele>8.0</ele><time>2026-04-28T09:15:25.452Z</time></trkpt><trkpt lat="43.9497963" lon="8.1447374"><ele>8.0</ele><time>2026-04-28T09:15:26.451Z</time></trkpt><trkpt lat="43.9497629" lon="8.1445944"><ele>8.0</ele><time>2026-04-28T09:15:27.451Z</time></trkpt><trkpt lat="43.9497249" lon="8.1444439"><ele>8.0</ele><time>2026-04-28T09:15:28.452Z</time></trkpt><trkpt lat="43.9496856" lon="8.1442701"><ele>8.0</ele><time>2026-04-28T09:15:29.452Z</time></trkpt><trkpt lat="43.9496472" lon="8.144083"><ele>7.25</ele><time>2026-04-28T09:15:30.452Z</time></trkpt><trkpt lat="43.9496081" lon="8.1439043"><ele>6.5</ele><time>2026-04-28T09:15:31.451Z</time></trkpt><trkpt lat="43.9495729" lon="8.1437551"><ele>5.75</ele><time>2026-04-28T09:15:32.452Z</time></trkpt><trkpt lat="43.9495361" lon="8.1436071"><ele>5.0</ele><time>2026-04-28T09:15:33.452Z</time></trkpt><trkpt lat="43.9494908" lon="8.1434297"><ele>5.0</ele><time>2026-04-28T09:15:34.452Z</time></trkpt><trkpt lat="43.9494358" lon="8.1432291"><ele>5.0</ele><time>2026-04-28T09:15:35.45Z</time></trkpt><trkpt lat="43.9493752" lon="8.1430117"><ele>5.0</ele><time>2026-04-28T09:15:36.451Z</time></trkpt><trkpt lat="43.9493195" lon="8.1427886"><ele>5.333333333333334</ele><time>2026-04-28T09:15:37.451Z</time></trkpt><trkpt lat="43.9492728" lon="8.1425608"><ele>5.666666666666667</ele><time>2026-04-28T09:15:38.451Z</time></trkpt><trkpt lat="43.9492345" lon="8.1423165"><ele>6.0</ele><time>2026-04-28T09:15:39.451Z</time></trkpt><trkpt lat="43.949205" lon="8.1420585"><ele>6.333333333333334</ele><time>2026-04-28T09:15:40.451Z</time></trkpt><trkpt lat="43.9491804" lon="8.1417971"><ele>6.666666666666667</ele><time>2026-04-28T09:15:41.452Z</time></trkpt><trkpt lat="43.9491595" lon="8.1415349"><ele>7.0</ele><time>2026-04-28T09:15:42.452Z</time></trkpt><trkpt lat="43.9491341" lon="8.141271"><ele>7.666666666666667</ele><time>2026-04-28T09:15:43.451Z</time></trkpt><trkpt lat="43.9491075" lon="8.1410027"><ele>8.333333333333334</ele><time>2026-04-28T09:15:44.452Z</time></trkpt><trkpt lat="43.9490781" lon="8.1407314"><ele>9.0</ele><time>2026-04-28T09:15:45.451Z</time></trkpt><trkpt lat="43.9490483" lon="8.1404591"><ele>10.333333333333332</ele><time>2026-04-28T09:15:46.452Z</time></trkpt><trkpt lat="43.9490185" lon="8.1401943"><ele>11.666666666666666</ele><time>2026-04-28T09:15:47.451Z</time></trkpt><trkpt lat="43.9489885" lon="8.1399515"><ele>13.0</ele><time>2026-04-28T09:15:48.451Z</time></trkpt><trkpt lat="43.9489594" lon="8.1397308"><ele>16.25</ele><time>2026-04-28T09:15:49.451Z</time></trkpt><trkpt lat="43.9489356" lon="8.1395313"><ele>19.5</ele><time>2026-04-28T09:15:50.451Z</time></trkpt><trkpt lat="43.9489139" lon="8.1393429"><ele>22.75</ele><time>2026-04-28T09:15:51.452Z</time></trkpt><trkpt lat="43.9488745" lon="8.1391676"><ele>26.0</ele><time>2026-04-28T09:15:52.451Z</time></trkpt><trkpt lat="43.9488038" lon="8.1390073"><ele>27.75</ele><time>2026-04-28T09:15:53.451Z</time></trkpt><trkpt lat="43.9487043" lon="8.1388692"><ele>29.5</ele><time>2026-04-28T09:15:54.452Z</time></trkpt><trkpt lat="43.9485773" lon="8.1387713"><ele>31.25</ele><time>2026-04-28T09:15:55.452Z</time></trkpt><trkpt lat="43.9484244" lon="8.1387181"><ele>33.0</ele><time>2026-04-28T09:15:56.452Z</time></trkpt><trkpt lat="43.9482566" lon="8.1386869"><ele>33.0</ele><time>2026-04-28T09:15:57.451Z</time></trkpt><trkpt lat="43.9480826" lon="8.1386397"><ele>33.0</ele><time>2026-04-28T09:15:58.452Z</time></trkpt><trkpt lat="43.9479112" lon="8.13857"><ele>33.0</ele><time>2026-04-28T09:15:59.45Z</time></trkpt><trkpt lat="43.9477489" lon="8.138453"><ele>33.0</ele><time>2026-04-28T09:16:00.451Z</time></trkpt><trkpt lat="43.9475936" lon="8.1383066"><ele>33.0</ele><time>2026-04-28T09:16:01.452Z</time></trkpt><trkpt lat="43.9474449" lon="8.1381464"><ele>33.0</ele><time>2026-04-28T09:16:02.452Z</time></trkpt><trkpt lat="43.9472993" lon="8.137983"><ele>35.333333333333336</ele><time>2026-04-28T09:16:03.452Z</time></trkpt><trkpt lat="43.9471515" lon="8.1378363"><ele>37.66666666666667</ele><time>2026-04-28T09:16:04.451Z</time></trkpt><trkpt lat="43.9470003" lon="8.1377149"><ele>40.0</ele><time>2026-04-28T09:16:05.452Z</time></trkpt><trkpt lat="43.946842" lon="8.1376401"><ele>38.66666666666667</ele><time>2026-04-28T09:16:06.452Z</time></trkpt><trkpt lat="43.9466758" lon="8.1376238"><ele>37.333333333333336</ele><time>2026-04-28T09:16:07.452Z</time></trkpt><trkpt lat="43.9465028" lon="8.1377114"><ele>36.0</ele><time>2026-04-28T09:16:08.452Z</time></trkpt><trkpt lat="43.9463359" lon="8.1378305"><ele>36.0</ele><time>2026-04-28T09:16:09.451Z</time></trkpt><trkpt lat="43.9461687" lon="8.1379316"><ele>36.0</ele><time>2026-04-28T09:16:10.451Z</time></trkpt><trkpt lat="43.9459957" lon="8.1379759"><ele>36.0</ele><time>2026-04-28T09:16:11.452Z</time></trkpt><trkpt lat="43.9458215" lon="8.137994"><ele>36.666666666666664</ele><time>2026-04-28T09:16:12.451Z</time></trkpt><trkpt lat="43.9456527" lon="8.1379296"><ele>37.33333333333333</ele><time>2026-04-28T09:16:13.451Z</time></trkpt><trkpt lat="43.9454923" lon="8.137803"><ele>38.0</ele><time>2026-04-28T09:16:14.452Z</time></trkpt><trkpt lat="43.9453325" lon="8.1376716"><ele>38.0</ele><time>2026-04-28T09:16:15.452Z</time></trkpt><trkpt lat="43.9451623" lon="8.1375625"><ele>38.0</ele><time>2026-04-28T09:16:16.451Z</time></trkpt><trkpt lat="43.9449885" lon="8.1374766"><ele>38.0</ele><time>2026-04-28T09:16:17.451Z</time></trkpt><trkpt lat="43.9448238" lon="8.1373996"><ele>42.666666666666664</ele><time>2026-04-28T09:16:18.452Z</time></trkpt><trkpt lat="43.9446769" lon="8.1373047"><ele>47.33333333333333</ele><time>2026-04-28T09:16:19.451Z</time></trkpt><trkpt lat="43.9445573" lon="8.1371671"><ele>52.0</ele><time>2026-04-28T09:16:20.452Z</time></trkpt><trkpt lat="43.9444591" lon="8.1370089"><ele>52.0</ele><time>2026-04-28T09:16:21.451Z</time></trkpt><trkpt lat="43.9443468" lon="8.1368947"><ele>52.0</ele><time>2026-04-28T09:16:22.451Z</time></trkpt><trkpt lat="43.944211" lon="8.1368396"><ele>52.0</ele><time>2026-04-28T09:16:23.452Z</time></trkpt><trkpt lat="43.9440704" lon="8.1368185"><ele>52.0</ele><time>2026-04-28T09:16:24.451Z</time></trkpt><trkpt lat="43.9439417" lon="8.1367842"><ele>53.25</ele><time>2026-04-28T09:16:25.451Z</time></trkpt><trkpt lat="43.9438315" lon="8.1367093"><ele>54.5</ele><time>2026-04-28T09:16:26.452Z</time></trkpt><trkpt lat="43.9437431" lon="8.1365964"><ele>55.75</ele><time>2026-04-28T09:16:27.452Z</time></trkpt><trkpt lat="43.9436798" lon="8.1364627"><ele>57.0</ele><time>2026-04-28T09:16:28.452Z</time></trkpt><trkpt lat="43.9436362" lon="8.1363317"><ele>57.0</ele><time>2026-04-28T09:16:29.451Z</time></trkpt><trkpt lat="43.9435923" lon="8.1362056"><ele>57.0</ele><time>2026-04-28T09:16:30.452Z</time></trkpt><trkpt lat="43.9435262" lon="8.1360839"><ele>57.0</ele><time>2026-04-28T09:16:31.452Z</time></trkpt><trkpt lat="43.9434307" lon="8.1359817"><ele>57.0</ele><time>2026-04-28T09:16:32.452Z</time></trkpt><trkpt lat="43.9433225" lon="8.1359113"><ele>54.6</ele><time>2026-04-28T09:16:33.451Z</time></trkpt><trkpt lat="43.9432129" lon="8.1358837"><ele>52.2</ele><time>2026-04-28T09:16:34.452Z</time></trkpt><trkpt lat="43.9431011" lon="8.1358815"><ele>49.8</ele><time>2026-04-28T09:16:35.452Z</time></trkpt><trkpt lat="43.9429921" lon="8.1358778"><ele>47.4</ele><time>2026-04-28T09:16:36.452Z</time></trkpt><trkpt lat="43.9428824" lon="8.1358476"><ele>45.0</ele><time>2026-04-28T09:16:37.451Z</time></trkpt><trkpt lat="43.9427786" lon="8.1357757"><ele>50.5</ele><time>2026-04-28T09:16:38.452Z</time></trkpt><trkpt lat="43.9426786" lon="8.1356781"><ele>56.0</ele><time>2026-04-28T09:16:39.452Z</time></trkpt><trkpt lat="43.9425783" lon="8.1355807"><ele>61.5</ele><time>2026-04-28T09:16:40.452Z</time></trkpt><trkpt lat="43.9424711" lon="8.1354984"><ele>67.0</ele><time>2026-04-28T09:16:41.451Z</time></trkpt><trkpt lat="43.942341" lon="8.1354429"><ele>67.0</ele><time>2026-04-28T09:16:42.451Z</time></trkpt><trkpt lat="43.9421785" lon="8.1354089"><ele>67.0</ele><time>2026-04-28T09:16:43.452Z</time></trkpt><trkpt lat="43.9420259" lon="8.1353611"><ele>67.0</ele><time>2026-04-28T09:16:44.451Z</time></trkpt><trkpt lat="43.9418831" lon="8.1352735"><ele>67.0</ele><time>2026-04-28T09:16:45.451Z</time></trkpt><trkpt lat="43.9417543" lon="8.1351372"><ele>67.0</ele><time>2026-04-28T09:16:46.451Z</time></trkpt><trkpt lat="43.9416277" lon="8.1350061"><ele>67.0</ele><time>2026-04-28T09:16:47.452Z</time></trkpt><trkpt lat="43.9414897" lon="8.1348936"><ele>67.75</ele><time>2026-04-28T09:16:48.452Z</time></trkpt><trkpt lat="43.9413507" lon="8.1348171"><ele>68.5</ele><time>2026-04-28T09:16:49.452Z</time></trkpt><trkpt lat="43.9412047" lon="8.134757"><ele>69.25</ele><time>2026-04-28T09:16:50.452Z</time></trkpt><trkpt lat="43.941076" lon="8.1346789"><ele>70.0</ele><time>2026-04-28T09:16:51.452Z</time></trkpt><trkpt lat="43.9409853" lon="8.134548"><ele>70.0</ele><time>2026-04-28T09:16:52.451Z</time></trkpt><trkpt lat="43.9409364" lon="8.13439"><ele>70.0</ele><time>2026-04-28T09:16:53.451Z</time></trkpt><trkpt lat="43.940891" lon="8.1342324"><ele>70.0</ele><time>2026-04-28T09:16:54.452Z</time></trkpt><trkpt lat="43.9409022" lon="8.13402"><ele>70.0</ele><time>2026-04-28T09:16:55.451Z</time></trkpt><trkpt lat="43.9408695" lon="8.1338283"><ele>68.5</ele><time>2026-04-28T09:16:56.452Z</time></trkpt><trkpt lat="43.9407974" lon="8.1336589"><ele>67.0</ele><time>2026-04-28T09:16:57.451Z</time></trkpt><trkpt lat="43.9407001" lon="8.1335221"><ele>65.5</ele><time>2026-04-28T09:16:58.451Z</time></trkpt><trkpt lat="43.9405984" lon="8.133415"><ele>64.0</ele><time>2026-04-28T09:16:59.451Z</time></trkpt><trkpt lat="43.9404723" lon="8.1333353"><ele>64.0</ele><time>2026-04-28T09:17:00.45Z</time></trkpt><trkpt lat="43.9403215" lon="8.1334577"><ele>64.0</ele><time>2026-04-28T09:17:01.451Z</time></trkpt><trkpt lat="43.9401676" lon="8.133547"><ele>64.0</ele><time>2026-04-28T09:17:02.452Z</time></trkpt><trkpt lat="43.9399971" lon="8.1336087"><ele>67.66666666666666</ele><time>2026-04-28T09:17:03.451Z</time></trkpt><trkpt lat="43.939838" lon="8.1336465"><ele>71.33333333333333</ele><time>2026-04-28T09:17:04.452Z</time></trkpt><trkpt lat="43.9396712" lon="8.1337176"><ele>75.0</ele><time>2026-04-28T09:17:05.452Z</time></trkpt><trkpt lat="43.9395134" lon="8.1338138"><ele>75.0</ele><time>2026-04-28T09:17:06.451Z</time></trkpt><trkpt lat="43.9393528" lon="8.1339155"><ele>75.0</ele><time>2026-04-28T09:17:07.452Z</time></trkpt><trkpt lat="43.9392007" lon="8.1340105"><ele>75.0</ele><time>2026-04-28T09:17:08.451Z</time></trkpt><trkpt lat="43.9390424" lon="8.1340947"><ele>67.33333333333333</ele><time>2026-04-28T09:17:09.451Z</time></trkpt><trkpt lat="43.9388836" lon="8.1341542"><ele>59.666666666666664</ele><time>2026-04-28T09:17:10.451Z</time></trkpt><trkpt lat="43.9387209" lon="8.1342231"><ele>52.0</ele><time>2026-04-28T09:17:11.451Z</time></trkpt><trkpt lat="43.9385766" lon="8.1341377"><ele>61.666666666666664</ele><time>2026-04-28T09:17:12.451Z</time></trkpt><trkpt lat="43.9384628" lon="8.1339823"><ele>71.33333333333333</ele><time>2026-04-28T09:17:13.452Z</time></trkpt><trkpt lat="43.9383292" lon="8.1338686"><ele>81.0</ele><time>2026-04-28T09:17:14.452Z</time></trkpt><trkpt lat="43.9381783" lon="8.1337937"><ele>81.0</ele><time>2026-04-28T09:17:15.451Z</time></trkpt><trkpt lat="43.9380206" lon="8.1337643"><ele>81.0</ele><time>2026-04-28T09:17:16.451Z</time></trkpt><trkpt lat="43.9378659" lon="8.1337255"><ele>81.0</ele><time>2026-04-28T09:17:17.452Z</time></trkpt><trkpt lat="43.9377158" lon="8.1336511"><ele>81.0</ele><time>2026-04-28T09:17:18.451Z</time></trkpt><trkpt lat="43.9375792" lon="8.1335476"><ele>81.0</ele><time>2026-04-28T09:17:19.452Z</time></trkpt><trkpt lat="43.9374369" lon="8.1334263"><ele>81.0</ele><time>2026-04-28T09:17:20.451Z</time></trkpt><trkpt lat="43.9372892" lon="8.1332999"><ele>84.33333333333333</ele><time>2026-04-28T09:17:21.451Z</time></trkpt><trkpt lat="43.9371496" lon="8.1331638"><ele>87.66666666666666</ele><time>2026-04-28T09:17:22.452Z</time></trkpt><trkpt lat="43.9370081" lon="8.1330188"><ele>91.0</ele><time>2026-04-28T09:17:23.451Z</time></trkpt><trkpt lat="43.9368724" lon="8.1328557"><ele>91.0</ele><time>2026-04-28T09:17:24.451Z</time></trkpt><trkpt lat="43.9367442" lon="8.1326895"><ele>91.0</ele><time>2026-04-28T09:17:25.452Z</time></trkpt><trkpt lat="43.9366087" lon="8.1325388"><ele>91.0</ele><time>2026-04-28T09:17:26.452Z</time></trkpt><trkpt lat="43.9364571" lon="8.1324457"><ele>85.33333333333333</ele><time>2026-04-28T09:17:27.452Z</time></trkpt><trkpt lat="43.9362996" lon="8.1324026"><ele>79.66666666666667</ele><time>2026-04-28T09:17:28.451Z</time></trkpt><trkpt lat="43.936136" lon="8.1324634"><ele>74.0</ele><time>2026-04-28T09:17:29.452Z</time></trkpt><trkpt lat="43.9359761" lon="8.1325304"><ele>70.66666666666667</ele><time>2026-04-28T09:17:30.451Z</time></trkpt><trkpt lat="43.9358117" lon="8.1325584"><ele>67.33333333333333</ele><time>2026-04-28T09:17:31.451Z</time></trkpt><trkpt lat="43.9356445" lon="8.1325854"><ele>64.0</ele><time>2026-04-28T09:17:32.452Z</time></trkpt><trkpt lat="43.9354941" lon="8.1324836"><ele>73.66666666666666</ele><time>2026-04-28T09:17:33.452Z</time></trkpt><trkpt lat="43.9353588" lon="8.1323768"><ele>83.33333333333333</ele><time>2026-04-28T09:17:34.451Z</time></trkpt><trkpt lat="43.9352397" lon="8.1322296"><ele>93.0</ele><time>2026-04-28T09:17:35.451Z</time></trkpt><trkpt lat="43.9351203" lon="8.132065"><ele>87.33333333333333</ele><time>2026-04-28T09:17:36.452Z</time></trkpt><trkpt lat="43.9349868" lon="8.131917"><ele>81.66666666666666</ele><time>2026-04-28T09:17:37.451Z</time></trkpt><trkpt lat="43.9348354" lon="8.1318009"><ele>76.0</ele><time>2026-04-28T09:17:38.452Z</time></trkpt><trkpt lat="43.9346647" lon="8.1317135"><ele>76.0</ele><time>2026-04-28T09:17:39.452Z</time></trkpt><trkpt lat="43.9344772" lon="8.131665"><ele>76.0</ele><time>2026-04-28T09:17:40.452Z</time></trkpt><trkpt lat="43.9342813" lon="8.1316358"><ele>76.0</ele><time>2026-04-28T09:17:41.452Z</time></trkpt><trkpt lat="43.9340791" lon="8.1316182"><ele>71.66666666666666</ele><time>2026-04-28T09:17:42.451Z</time></trkpt><trkpt lat="43.9338758" lon="8.1316211"><ele>67.33333333333333</ele><time>2026-04-28T09:17:43.451Z</time></trkpt><trkpt lat="43.9336779" lon="8.1316378"><ele>63.0</ele><time>2026-04-28T09:17:44.452Z</time></trkpt><trkpt lat="43.9334936" lon="8.1316661"><ele>63.33333333333333</ele><time>2026-04-28T09:17:45.451Z</time></trkpt><trkpt lat="43.9333181" lon="8.1316852"><ele>63.666666666666664</ele><time>2026-04-28T09:17:46.452Z</time></trkpt><trkpt lat="43.9331465" lon="8.1316682"><ele>64.0</ele><time>2026-04-28T09:17:47.452Z</time></trkpt><trkpt lat="43.9329909" lon="8.1316023"><ele>72.0</ele><time>2026-04-28T09:17:48.452Z</time></trkpt><trkpt lat="43.9328575" lon="8.1314959"><ele>80.0</ele><time>2026-04-28T09:17:49.451Z</time></trkpt><trkpt lat="43.9327227" lon="8.1313941"><ele>88.0</ele><time>2026-04-28T09:17:50.452Z</time></trkpt><trkpt lat="43.9325701" lon="8.1313471"><ele>87.0</ele><time>2026-04-28T09:17:51.452Z</time></trkpt><trkpt lat="43.9324289" lon="8.1313602"><ele>86.0</ele><time>2026-04-28T09:17:52.452Z</time></trkpt><trkpt lat="43.9323026" lon="8.1314246"><ele>85.0</ele><time>2026-04-28T09:17:53.452Z</time></trkpt><trkpt lat="43.932177" lon="8.1314781"><ele>84.0</ele><time>2026-04-28T09:17:54.451Z</time></trkpt><trkpt lat="43.9320484" lon="8.1314612"><ele>84.0</ele><time>2026-04-28T09:17:55.451Z</time></trkpt><trkpt lat="43.9319297" lon="8.1313788"><ele>84.0</ele><time>2026-04-28T09:17:56.45Z</time></trkpt><trkpt lat="43.9318306" lon="8.1312557"><ele>84.0</ele><time>2026-04-28T09:17:57.452Z</time></trkpt><trkpt lat="43.9317098" lon="8.1311281"><ele>84.0</ele><time>2026-04-28T09:17:58.451Z</time></trkpt><trkpt lat="43.9315956" lon="8.1310042"><ele>80.66666666666667</ele><time>2026-04-28T09:17:59.451Z</time></trkpt><trkpt lat="43.9314231" lon="8.1309782"><ele>77.33333333333334</ele><time>2026-04-28T09:18:00.452Z</time></trkpt><trkpt lat="43.9312643" lon="8.1309026"><ele>74.0</ele><time>2026-04-28T09:18:01.452Z</time></trkpt><trkpt lat="43.9310984" lon="8.1307978"><ele>77.66666666666667</ele><time>2026-04-28T09:18:02.452Z</time></trkpt><trkpt lat="43.930944" lon="8.1306696"><ele>81.33333333333333</ele><time>2026-04-28T09:18:03.451Z</time></trkpt><trkpt lat="43.9307892" lon="8.1305503"><ele>85.0</ele><time>2026-04-28T09:18:04.451Z</time></trkpt><trkpt lat="43.930626" lon="8.130462"><ele>85.0</ele><time>2026-04-28T09:18:05.452Z</time></trkpt><trkpt lat="43.9304707" lon="8.1303761"><ele>85.0</ele><time>2026-04-28T09:18:06.451Z</time></trkpt><trkpt lat="43.9303276" lon="8.1302767"><ele>85.0</ele><time>2026-04-28T09:18:07.451Z</time></trkpt><trkpt lat="43.9302022" lon="8.1301602"><ele>85.0</ele><time>2026-04-28T09:18:08.451Z</time></trkpt><trkpt lat="43.9301012" lon="8.1300026"><ele>85.0</ele><time>2026-04-28T09:18:09.452Z</time></trkpt><trkpt lat="43.9299953" lon="8.1298498"><ele>85.0</ele><time>2026-04-28T09:18:10.452Z</time></trkpt><trkpt lat="43.929865" lon="8.1297568"><ele>85.0</ele><time>2026-04-28T09:18:11.451Z</time></trkpt><trkpt lat="43.9297258" lon="8.1297175"><ele>85.0</ele><time>2026-04-28T09:18:12.451Z</time></trkpt><trkpt lat="43.9295836" lon="8.1296838"><ele>85.0</ele><time>2026-04-28T09:18:13.451Z</time></trkpt><trkpt lat="43.9294478" lon="8.1296065"><ele>85.0</ele><time>2026-04-28T09:18:14.452Z</time></trkpt><trkpt lat="43.9293415" lon="8.12948"><ele>85.0</ele><time>2026-04-28T09:18:15.451Z</time></trkpt><trkpt lat="43.9292622" lon="8.1293338"><ele>85.0</ele><time>2026-04-28T09:18:16.452Z</time></trkpt><trkpt lat="43.9291809" lon="8.1291896"><ele>85.0</ele><time>2026-04-28T09:18:17.451Z</time></trkpt><trkpt lat="43.9290799" lon="8.1290682"><ele>85.0</ele><time>2026-04-28T09:18:18.451Z</time></trkpt><trkpt lat="43.9289652" lon="8.1289802"><ele>83.75</ele><time>2026-04-28T09:18:19.452Z</time></trkpt><trkpt lat="43.9288371" lon="8.1289353"><ele>82.5</ele><time>2026-04-28T09:18:20.452Z</time></trkpt><trkpt lat="43.9287092" lon="8.128861"><ele>81.25</ele><time>2026-04-28T09:18:21.452Z</time></trkpt><trkpt lat="43.9285752" lon="8.1287572"><ele>80.0</ele><time>2026-04-28T09:18:22.451Z</time></trkpt><trkpt lat="43.9284452" lon="8.1286235"><ele>70.66666666666667</ele><time>2026-04-28T09:18:23.451Z</time></trkpt><trkpt lat="43.9283277" lon="8.1284757"><ele>61.33333333333333</ele><time>2026-04-28T09:18:24.452Z</time></trkpt><trkpt lat="43.928238" lon="8.1283059"><ele>52.0</ele><time>2026-04-28T09:18:25.452Z</time></trkpt><trkpt lat="43.9281434" lon="8.1281398"><ele>52.0</ele><time>2026-04-28T09:18:26.452Z</time></trkpt><trkpt lat="43.9281781" lon="8.1279011"><ele>52.0</ele><time>2026-04-28T09:18:27.451Z</time></trkpt><trkpt lat="43.9281818" lon="8.1276867"><ele>52.0</ele><time>2026-04-28T09:18:28.452Z</time></trkpt><trkpt lat="43.9281431" lon="8.1274684"><ele>52.666666666666664</ele><time>2026-04-28T09:18:29.45Z</time></trkpt><trkpt lat="43.9280624" lon="8.1272683"><ele>53.33333333333333</ele><time>2026-04-28T09:18:30.452Z</time></trkpt><trkpt lat="43.9279497" lon="8.1270882"><ele>54.0</ele><time>2026-04-28T09:18:31.452Z</time></trkpt><trkpt lat="43.9278271" lon="8.1268919"><ele>54.0</ele><time>2026-04-28T09:18:32.452Z</time></trkpt><trkpt lat="43.9277127" lon="8.1266788"><ele>54.0</ele><time>2026-04-28T09:18:33.451Z</time></trkpt><trkpt lat="43.9275914" lon="8.1264648"><ele>54.0</ele><time>2026-04-28T09:18:34.451Z</time></trkpt><trkpt lat="43.927461" lon="8.1262544"><ele>53.33333333333333</ele><time>2026-04-28T09:18:35.451Z</time></trkpt><trkpt lat="43.9273366" lon="8.1260393"><ele>52.666666666666664</ele><time>2026-04-28T09:18:36.451Z</time></trkpt><trkpt lat="43.927228" lon="8.1258115"><ele>52.0</ele><time>2026-04-28T09:18:37.451Z</time></trkpt><trkpt lat="43.9271251" lon="8.1255719"><ele>52.0</ele><time>2026-04-28T09:18:38.451Z</time></trkpt><trkpt lat="43.9270288" lon="8.1253293"><ele>52.0</ele><time>2026-04-28T09:18:39.451Z</time></trkpt><trkpt lat="43.926934" lon="8.1250842"><ele>52.0</ele><time>2026-04-28T09:18:40.451Z</time></trkpt><trkpt lat="43.9268555" lon="8.124834"><ele>58.0</ele><time>2026-04-28T09:18:41.452Z</time></trkpt><trkpt lat="43.9268012" lon="8.1245733"><ele>64.0</ele><time>2026-04-28T09:18:42.452Z</time></trkpt><trkpt lat="43.9267731" lon="8.1243055"><ele>70.0</ele><time>2026-04-28T09:18:43.451Z</time></trkpt><trkpt lat="43.9267521" lon="8.1240327"><ele>72.0</ele><time>2026-04-28T09:18:44.45Z</time></trkpt><trkpt lat="43.9267416" lon="8.1237512"><ele>74.0</ele><time>2026-04-28T09:18:45.451Z</time></trkpt><trkpt lat="43.9267261" lon="8.1234803"><ele>76.0</ele><time>2026-04-28T09:18:46.451Z</time></trkpt><trkpt lat="43.9266838" lon="8.123226"><ele>62.33333333333333</ele><time>2026-04-28T09:18:47.452Z</time></trkpt><trkpt lat="43.9265978" lon="8.1229855"><ele>48.666666666666664</ele><time>2026-04-28T09:18:48.452Z</time></trkpt><trkpt lat="43.9265135" lon="8.1227483"><ele>35.0</ele><time>2026-04-28T09:18:49.452Z</time></trkpt><trkpt lat="43.9264394" lon="8.1224976"><ele>38.666666666666664</ele><time>2026-04-28T09:18:50.451Z</time></trkpt><trkpt lat="43.9263825" lon="8.1222441"><ele>42.333333333333336</ele><time>2026-04-28T09:18:51.451Z</time></trkpt><trkpt lat="43.9263517" lon="8.1219834"><ele>46.0</ele><time>2026-04-28T09:18:52.452Z</time></trkpt><trkpt lat="43.9262809" lon="8.1217492"><ele>49.0</ele><time>2026-04-28T09:18:53.451Z</time></trkpt><trkpt lat="43.9262066" lon="8.1215328"><ele>52.0</ele><time>2026-04-28T09:18:54.452Z</time></trkpt><trkpt lat="43.9261601" lon="8.1213048"><ele>55.0</ele><time>2026-04-28T09:18:55.451Z</time></trkpt><trkpt lat="43.9261486" lon="8.1210599"><ele>55.0</ele><time>2026-04-28T09:18:56.452Z</time></trkpt><trkpt lat="43.926127" lon="8.1208208"><ele>55.0</ele><time>2026-04-28T09:18:57.451Z</time></trkpt><trkpt lat="43.926065" lon="8.1205906"><ele>55.0</ele><time>2026-04-28T09:18:58.452Z</time></trkpt><trkpt lat="43.9259884" lon="8.120377"><ele>57.666666666666664</ele><time>2026-04-28T09:18:59.452Z</time></trkpt><trkpt lat="43.9259111" lon="8.1201806"><ele>60.33333333333333</ele><time>2026-04-28T09:19:00.451Z</time></trkpt><trkpt lat="43.9258146" lon="8.1200033"><ele>63.0</ele><time>2026-04-28T09:19:01.452Z</time></trkpt><trkpt lat="43.9257086" lon="8.119852"><ele>54.5</ele><time>2026-04-28T09:19:02.451Z</time></trkpt><trkpt lat="43.9256104" lon="8.1197027"><ele>46.0</ele><time>2026-04-28T09:19:03.452Z</time></trkpt><trkpt lat="43.9255252" lon="8.1195355"><ele>37.5</ele><time>2026-04-28T09:19:04.451Z</time></trkpt><trkpt lat="43.9254634" lon="8.1193492"><ele>29.0</ele><time>2026-04-28T09:19:05.451Z</time></trkpt><trkpt lat="43.9254149" lon="8.1191562"><ele>29.5</ele><time>2026-04-28T09:19:06.451Z</time></trkpt><trkpt lat="43.9253769" lon="8.1189623"><ele>30.0</ele><time>2026-04-28T09:19:07.451Z</time></trkpt><trkpt lat="43.9253549" lon="8.1187617"><ele>30.5</ele><time>2026-04-28T09:19:08.451Z</time></trkpt><trkpt lat="43.9253541" lon="8.1185655"><ele>31.0</ele><time>2026-04-28T09:19:09.451Z</time></trkpt><trkpt lat="43.9253841" lon="8.1183688"><ele>28.75</ele><time>2026-04-28T09:19:10.452Z</time></trkpt><trkpt lat="43.9254323" lon="8.1181969"><ele>26.5</ele><time>2026-04-28T09:19:11.452Z</time></trkpt><trkpt lat="43.9254951" lon="8.1180141"><ele>24.25</ele><time>2026-04-28T09:19:12.451Z</time></trkpt><trkpt lat="43.9255648" lon="8.1178264"><ele>22.0</ele><time>2026-04-28T09:19:13.452Z</time></trkpt><trkpt lat="43.9256059" lon="8.1176361"><ele>22.0</ele><time>2026-04-28T09:19:14.451Z</time></trkpt><trkpt lat="43.9256224" lon="8.1174335"><ele>22.0</ele><time>2026-04-28T09:19:15.451Z</time></trkpt><trkpt lat="43.9255971" lon="8.1172289"><ele>22.0</ele><time>2026-04-28T09:19:16.451Z</time></trkpt><trkpt lat="43.925536" lon="8.1170293"><ele>23.0</ele><time>2026-04-28T09:19:17.451Z</time></trkpt><trkpt lat="43.9254681" lon="8.1168347"><ele>24.0</ele><time>2026-04-28T09:19:18.452Z</time></trkpt><trkpt lat="43.9253925" lon="8.1166396"><ele>25.0</ele><time>2026-04-28T09:19:19.451Z</time></trkpt><trkpt lat="43.9253191" lon="8.1164417"><ele>33.333333333333336</ele><time>2026-04-28T09:19:20.45Z</time></trkpt><trkpt lat="43.9252438" lon="8.1162434"><ele>41.66666666666667</ele><time>2026-04-28T09:19:21.451Z</time></trkpt><trkpt lat="43.9251689" lon="8.1160432"><ele>50.0</ele><time>2026-04-28T09:19:22.452Z</time></trkpt><trkpt lat="43.9250963" lon="8.1158462"><ele>42.0</ele><time>2026-04-28T09:19:23.452Z</time></trkpt><trkpt lat="43.9250257" lon="8.1156563"><ele>34.0</ele><time>2026-04-28T09:19:24.452Z</time></trkpt><trkpt lat="43.924953" lon="8.1154665"><ele>26.0</ele><time>2026-04-28T09:19:25.451Z</time></trkpt><trkpt lat="43.9248831" lon="8.1152765"><ele>26.0</ele><time>2026-04-28T09:19:26.451Z</time></trkpt><trkpt lat="43.9248221" lon="8.115076"><ele>26.0</ele><time>2026-04-28T09:19:27.451Z</time></trkpt><trkpt lat="43.9247822" lon="8.1148775"><ele>26.0</ele><time>2026-04-28T09:19:28.451Z</time></trkpt><trkpt lat="43.9247605" lon="8.1146709"><ele>25.5</ele><time>2026-04-28T09:19:29.452Z</time></trkpt><trkpt lat="43.9247462" lon="8.1144667"><ele>25.0</ele><time>2026-04-28T09:19:30.452Z</time></trkpt><trkpt lat="43.9247298" lon="8.1142611"><ele>24.5</ele><time>2026-04-28T09:19:31.451Z</time></trkpt><trkpt lat="43.9247131" lon="8.1140627"><ele>24.0</ele><time>2026-04-28T09:19:32.451Z</time></trkpt><trkpt lat="43.924687" lon="8.1138584"><ele>23.0</ele><time>2026-04-28T09:19:33.452Z</time></trkpt><trkpt lat="43.9246625" lon="8.113651"><ele>22.0</ele><time>2026-04-28T09:19:34.452Z</time></trkpt><trkpt lat="43.9246342" lon="8.1134517"><ele>21.0</ele><time>2026-04-28T09:19:35.452Z</time></trkpt><trkpt lat="43.9245965" lon="8.1132595"><ele>20.0</ele><time>2026-04-28T09:19:36.451Z</time></trkpt><trkpt lat="43.924557" lon="8.1130741"><ele>20.0</ele><time>2026-04-28T09:19:37.451Z</time></trkpt><trkpt lat="43.9245207" lon="8.1128939"><ele>20.0</ele><time>2026-04-28T09:19:38.452Z</time></trkpt><trkpt lat="43.9244875" lon="8.1127215"><ele>20.0</ele><time>2026-04-28T09:19:39.452Z</time></trkpt><trkpt lat="43.9244566" lon="8.1125572"><ele>20.0</ele><time>2026-04-28T09:19:40.451Z</time></trkpt><trkpt lat="43.9244312" lon="8.1123973"><ele>19.0</ele><time>2026-04-28T09:19:41.452Z</time></trkpt><trkpt lat="43.9244081" lon="8.1122355"><ele>18.0</ele><time>2026-04-28T09:19:42.45Z</time></trkpt><trkpt lat="43.92439" lon="8.1120692"><ele>17.0</ele><time>2026-04-28T09:19:43.451Z</time></trkpt><trkpt lat="43.9243785" lon="8.111896"><ele>16.0</ele><time>2026-04-28T09:19:44.452Z</time></trkpt><trkpt lat="43.9243655" lon="8.1117096"><ele>14.666666666666666</ele><time>2026-04-28T09:19:45.452Z</time></trkpt><trkpt lat="43.9243477" lon="8.111511"><ele>13.333333333333332</ele><time>2026-04-28T09:19:46.452Z</time></trkpt><trkpt lat="43.9243293" lon="8.1112933"><ele>12.0</ele><time>2026-04-28T09:19:47.451Z</time></trkpt><trkpt lat="43.9243127" lon="8.1110615"><ele>12.0</ele><time>2026-04-28T09:19:48.452Z</time></trkpt><trkpt lat="43.9242961" lon="8.11083"><ele>12.0</ele><time>2026-04-28T09:19:49.451Z</time></trkpt><trkpt lat="43.9242851" lon="8.1106007"><ele>12.0</ele><time>2026-04-28T09:19:50.451Z</time></trkpt><trkpt lat="43.9242711" lon="8.1103795"><ele>11.666666666666666</ele><time>2026-04-28T09:19:51.451Z</time></trkpt><trkpt lat="43.9242573" lon="8.1101644"><ele>11.333333333333332</ele><time>2026-04-28T09:19:52.451Z</time></trkpt><trkpt lat="43.9242397" lon="8.109948"><ele>11.0</ele><time>2026-04-28T09:19:53.451Z</time></trkpt><trkpt lat="43.9242201" lon="8.1097319"><ele>10.0</ele><time>2026-04-28T09:19:54.451Z</time></trkpt><trkpt lat="43.924203" lon="8.1095213"><ele>9.0</ele><time>2026-04-28T09:19:55.451Z</time></trkpt><trkpt lat="43.9241659" lon="8.1093268"><ele>8.0</ele><time>2026-04-28T09:19:56.452Z</time></trkpt><trkpt lat="43.9241093" lon="8.1091403"><ele>7.0</ele><time>2026-04-28T09:19:57.452Z</time></trkpt><trkpt lat="43.9240245" lon="8.1089848"><ele>7.0</ele><time>2026-04-28T09:19:58.45Z</time></trkpt><trkpt lat="43.9239143" lon="8.1088692"><ele>7.0</ele><time>2026-04-28T09:19:59.451Z</time></trkpt><trkpt lat="43.9238063" lon="8.1087376"><ele>7.0</ele><time>2026-04-28T09:20:00.451Z</time></trkpt><trkpt lat="43.9236672" lon="8.1086244"><ele>7.0</ele><time>2026-04-28T09:20:01.452Z</time></trkpt><trkpt lat="43.9235594" lon="8.10851"><ele>7.0</ele><time>2026-04-28T09:20:02.451Z</time></trkpt><trkpt lat="43.9234672" lon="8.1083531"><ele>7.0</ele><time>2026-04-28T09:20:03.451Z</time></trkpt><trkpt lat="43.9233941" lon="8.1081776"><ele>7.0</ele><time>2026-04-28T09:20:04.452Z</time></trkpt><trkpt lat="43.9233448" lon="8.10799"><ele>7.0</ele><time>2026-04-28T09:20:05.452Z</time></trkpt><trkpt lat="43.9233069" lon="8.1077892"><ele>7.0</ele><time>2026-04-28T09:20:06.451Z</time></trkpt><trkpt lat="43.9232745" lon="8.1075861"><ele>7.0</ele><time>2026-04-28T09:20:07.452Z</time></trkpt><trkpt lat="43.9232312" lon="8.1073808"><ele>7.0</ele><time>2026-04-28T09:20:08.451Z</time></trkpt><trkpt lat="43.9231811" lon="8.1071859"><ele>6.666666666666667</ele><time>2026-04-28T09:20:09.451Z</time></trkpt><trkpt lat="43.923116" lon="8.1069925"><ele>6.333333333333334</ele><time>2026-04-28T09:20:10.451Z</time></trkpt><trkpt lat="43.9230499" lon="8.1068008"><ele>6.0</ele><time>2026-04-28T09:20:11.451Z</time></trkpt><trkpt lat="43.922981" lon="8.1066074"><ele>5.0</ele><time>2026-04-28T09:20:12.451Z</time></trkpt><trkpt lat="43.9229184" lon="8.1064076"><ele>4.0</ele><time>2026-04-28T09:20:13.451Z</time></trkpt><trkpt lat="43.922851" lon="8.106213"><ele>3.0</ele><time>2026-04-28T09:20:14.451Z</time></trkpt><trkpt lat="43.9227863" lon="8.1060162"><ele>3.0</ele><time>2026-04-28T09:20:15.451Z</time></trkpt><trkpt lat="43.9227238" lon="8.1058218"><ele>3.0</ele><time>2026-04-28T09:20:16.451Z</time></trkpt><trkpt lat="43.9226563" lon="8.1056306"><ele>3.0</ele><time>2026-04-28T09:20:17.451Z</time></trkpt><trkpt lat="43.9225928" lon="8.1054332"><ele>4.0</ele><time>2026-04-28T09:20:18.452Z</time></trkpt><trkpt lat="43.92253" lon="8.1052447"><ele>5.0</ele><time>2026-04-28T09:20:19.452Z</time></trkpt><trkpt lat="43.9224707" lon="8.1050641"><ele>6.0</ele><time>2026-04-28T09:20:20.452Z</time></trkpt><trkpt lat="43.9224164" lon="8.1048842"><ele>7.0</ele><time>2026-04-28T09:20:21.452Z</time></trkpt><trkpt lat="43.922363" lon="8.1047057"><ele>7.0</ele><time>2026-04-28T09:20:22.451Z</time></trkpt><trkpt lat="43.9223112" lon="8.1045338"><ele>7.0</ele><time>2026-04-28T09:20:23.452Z</time></trkpt><trkpt lat="43.9222588" lon="8.1043719"><ele>7.0</ele><time>2026-04-28T09:20:24.451Z</time></trkpt><trkpt lat="43.922209" lon="8.1042199"><ele>7.0</ele><time>2026-04-28T09:20:25.451Z</time></trkpt><trkpt lat="43.9221575" lon="8.1040765"><ele>7.0</ele><time>2026-04-28T09:20:26.45Z</time></trkpt><trkpt lat="43.9221101" lon="8.1039496"><ele>6.999999999999999</ele><time>2026-04-28T09:20:27.452Z</time></trkpt><trkpt lat="43.9220714" lon="8.1038335"><ele>6.999999999999999</ele><time>2026-04-28T09:20:28.452Z</time></trkpt><trkpt lat="43.9220503" lon="8.1037318"><ele>7.0</ele><time>2026-04-28T09:20:29.451Z</time></trkpt><trkpt lat="43.9220507" lon="8.1036057"><ele>7.0</ele><time>2026-04-28T09:20:31.452Z</time></trkpt><trkpt lat="43.9220762" lon="8.1034744"><ele>7.000000000000001</ele><time>2026-04-28T09:20:33.451Z</time></trkpt><trkpt lat="43.9221062" lon="8.103391"><ele>7.0</ele><time>2026-04-28T09:20:34.451Z</time></trkpt><trkpt lat="43.9221623" lon="8.1033322"><ele>7.0</ele><time>2026-04-28T09:20:35.451Z</time></trkpt><trkpt lat="43.92223" lon="8.1032758"><ele>7.0</ele><time>2026-04-28T09:20:36.451Z</time></trkpt><trkpt lat="43.9222967" lon="8.1032266"><ele>7.000000000000001</ele><time>2026-04-28T09:20:37.452Z</time></trkpt><trkpt lat="43.9223811" lon="8.1031681"><ele>7.0</ele><time>2026-04-28T09:20:38.451Z</time></trkpt><trkpt lat="43.9224826" lon="8.1030937"><ele>8.25</ele><time>2026-04-28T09:20:39.452Z</time></trkpt><trkpt lat="43.9226105" lon="8.1030195"><ele>9.5</ele><time>2026-04-28T09:20:40.452Z</time></trkpt><trkpt lat="43.9227238" lon="8.1029612"><ele>10.75</ele><time>2026-04-28T09:20:41.452Z</time></trkpt><trkpt lat="43.9228468" lon="8.1029096"><ele>12.0</ele><time>2026-04-28T09:20:42.452Z</time></trkpt><trkpt lat="43.922955" lon="8.1028545"><ele>12.0</ele><time>2026-04-28T09:20:43.452Z</time></trkpt><trkpt lat="43.9230661" lon="8.1027839"><ele>12.0</ele><time>2026-04-28T09:20:44.452Z</time></trkpt><trkpt lat="43.9231755" lon="8.1027265"><ele>12.0</ele><time>2026-04-28T09:20:45.45Z</time></trkpt><trkpt lat="43.9232853" lon="8.1026734"><ele>12.0</ele><time>2026-04-28T09:20:46.451Z</time></trkpt><trkpt lat="43.9233942" lon="8.1026142"><ele>12.0</ele><time>2026-04-28T09:20:47.451Z</time></trkpt><trkpt lat="43.9234826" lon="8.102568"><ele>12.0</ele><time>2026-04-28T09:20:48.452Z</time></trkpt><trkpt lat="43.923557" lon="8.102528"><ele>12.0</ele><time>2026-04-28T09:20:49.452Z</time></trkpt><trkpt lat="43.9236496" lon="8.1025407"><ele>12.0</ele><time>2026-04-28T09:20:51.451Z</time></trkpt><trkpt lat="43.9236846" lon="8.1026319"><ele>12.0</ele><time>2026-04-28T09:20:53.452Z</time></trkpt><trkpt lat="43.9236229" lon="8.1025569"><ele>12.0</ele><time>2026-04-28T09:23:21.451Z</time></trkpt><trkpt lat="43.9237457" lon="8.1026228"><ele>12.0</ele><time>2026-04-28T09:28:53.452Z</time></trkpt><trkpt lat="43.9236639" lon="8.10256"><ele>12.0</ele><time>2026-04-28T09:29:55.451Z</time></trkpt><trkpt lat="43.9237733" lon="8.1024722"><ele>12.0</ele><time>2026-04-28T09:30:23.451Z</time></trkpt><trkpt lat="43.9238611" lon="8.1024069"><ele>12.0</ele><time>2026-04-28T09:30:24.451Z</time></trkpt><trkpt lat="43.9240151" lon="8.1023695"><ele>12.0</ele><time>2026-04-28T09:30:25.452Z</time></trkpt><trkpt lat="43.9241005" lon="8.1022928"><ele>12.0</ele><time>2026-04-28T09:30:26.452Z</time></trkpt><trkpt lat="43.9241936" lon="8.1022154"><ele>12.0</ele><time>2026-04-28T09:30:27.45Z</time></trkpt><trkpt lat="43.9243014" lon="8.1021432"><ele>12.0</ele><time>2026-04-28T09:30:28.451Z</time></trkpt><trkpt lat="43.9243996" lon="8.102083"><ele>12.0</ele><time>2026-04-28T09:30:29.45Z</time></trkpt><trkpt lat="43.9244789" lon="8.1020164"><ele>12.333333333333334</ele><time>2026-04-28T09:30:30.451Z</time></trkpt><trkpt lat="43.9245651" lon="8.101976"><ele>12.666666666666668</ele><time>2026-04-28T09:30:31.451Z</time></trkpt><trkpt lat="43.9246467" lon="8.1019554"><ele>13.0</ele><time>2026-04-28T09:30:32.451Z</time></trkpt><trkpt lat="43.9247403" lon="8.1019104"><ele>13.333333333333334</ele><time>2026-04-28T09:30:33.451Z</time></trkpt><trkpt lat="43.9248185" lon="8.10188"><ele>13.666666666666668</ele><time>2026-04-28T09:30:34.452Z</time></trkpt><trkpt lat="43.9248865" lon="8.1018509"><ele>14.0</ele><time>2026-04-28T09:30:35.452Z</time></trkpt><trkpt lat="43.9249838" lon="8.1018015"><ele>14.000000000000002</ele><time>2026-04-28T09:30:37.452Z</time></trkpt><trkpt lat="43.9250613" lon="8.1017837"><ele>14.0</ele><time>2026-04-28T09:30:38.451Z</time></trkpt><trkpt lat="43.9251412" lon="8.1017767"><ele>14.0</ele><time>2026-04-28T09:30:39.451Z</time></trkpt><trkpt lat="43.9252236" lon="8.1017605"><ele>14.0</ele><time>2026-04-28T09:30:40.451Z</time></trkpt><trkpt lat="43.9253198" lon="8.1017429"><ele>14.000000000000002</ele><time>2026-04-28T09:30:41.452Z</time></trkpt><trkpt lat="43.9254215" lon="8.1017355"><ele>14.0</ele><time>2026-04-28T09:30:42.452Z</time></trkpt><trkpt lat="43.9255427" lon="8.1017294"><ele>14.75</ele><time>2026-04-28T09:30:43.452Z</time></trkpt><trkpt lat="43.9256661" lon="8.1017062"><ele>15.5</ele><time>2026-04-28T09:30:44.451Z</time></trkpt><trkpt lat="43.9257925" lon="8.1016711"><ele>16.25</ele><time>2026-04-28T09:30:45.452Z</time></trkpt><trkpt lat="43.9259401" lon="8.1016348"><ele>17.0</ele><time>2026-04-28T09:30:46.452Z</time></trkpt><trkpt lat="43.9261001" lon="8.1016089"><ele>17.333333333333336</ele><time>2026-04-28T09:30:47.451Z</time></trkpt><trkpt lat="43.9262446" lon="8.1015889"><ele>17.666666666666668</ele><time>2026-04-28T09:30:48.45Z</time></trkpt><trkpt lat="43.9264276" lon="8.1015667"><ele>18.0</ele><time>2026-04-28T09:30:49.452Z</time></trkpt><trkpt lat="43.9265863" lon="8.101529"><ele>19.333333333333332</ele><time>2026-04-28T09:30:50.451Z</time></trkpt><trkpt lat="43.9267516" lon="8.1014911"><ele>20.666666666666664</ele><time>2026-04-28T09:30:51.452Z</time></trkpt><trkpt lat="43.9269036" lon="8.1014485"><ele>22.0</ele><time>2026-04-28T09:30:52.452Z</time></trkpt><trkpt lat="43.9270541" lon="8.1014179"><ele>22.0</ele><time>2026-04-28T09:30:53.452Z</time></trkpt><trkpt lat="43.927197" lon="8.1014003"><ele>22.0</ele><time>2026-04-28T09:30:54.452Z</time></trkpt><trkpt lat="43.9273211" lon="8.1013784"><ele>22.0</ele><time>2026-04-28T09:30:55.451Z</time></trkpt><trkpt lat="43.9274519" lon="8.1013712"><ele>22.0</ele><time>2026-04-28T09:30:56.452Z</time></trkpt><trkpt lat="43.9275747" lon="8.1013561"><ele>21.8</ele><time>2026-04-28T09:30:57.451Z</time></trkpt><trkpt lat="43.9276981" lon="8.101336"><ele>21.6</ele><time>2026-04-28T09:30:58.451Z</time></trkpt><trkpt lat="43.9278075" lon="8.1013316"><ele>21.400000000000002</ele><time>2026-04-28T09:30:59.451Z</time></trkpt><trkpt lat="43.9279274" lon="8.1013167"><ele>21.200000000000003</ele><time>2026-04-28T09:31:00.451Z</time></trkpt><trkpt lat="43.9280078" lon="8.101307"><ele>21.0</ele><time>2026-04-28T09:31:01.451Z</time></trkpt><trkpt lat="43.9281415" lon="8.1012977"><ele>21.0</ele><time>2026-04-28T09:31:03.452Z</time></trkpt><trkpt lat="43.9282328" lon="8.1013124"><ele>21.0</ele><time>2026-04-28T09:31:05.452Z</time></trkpt><trkpt lat="43.9282935" lon="8.1012472"><ele>21.0</ele><time>2026-04-28T09:31:07.452Z</time></trkpt><trkpt lat="43.9283544" lon="8.1010712"><ele>21.0</ele><time>2026-04-28T09:31:09.45Z</time></trkpt><trkpt lat="43.928406" lon="8.1009772"><ele>21.0</ele><time>2026-04-28T09:31:10.451Z</time></trkpt><trkpt lat="43.9284898" lon="8.1008874"><ele>21.25</ele><time>2026-04-28T09:31:11.451Z</time></trkpt><trkpt lat="43.928568" lon="8.100816"><ele>21.5</ele><time>2026-04-28T09:31:12.451Z</time></trkpt><trkpt lat="43.9286966" lon="8.1007562"><ele>21.75</ele><time>2026-04-28T09:31:13.452Z</time></trkpt><trkpt lat="43.9288527" lon="8.1006958"><ele>22.0</ele><time>2026-04-28T09:31:14.452Z</time></trkpt><trkpt lat="43.9289744" lon="8.1006331"><ele>24.666666666666664</ele><time>2026-04-28T09:31:15.452Z</time></trkpt><trkpt lat="43.929112" lon="8.1004828"><ele>27.333333333333332</ele><time>2026-04-28T09:31:16.452Z</time></trkpt><trkpt lat="43.9292498" lon="8.1003439"><ele>30.0</ele><time>2026-04-28T09:31:17.452Z</time></trkpt><trkpt lat="43.9293859" lon="8.1002194"><ele>30.0</ele><time>2026-04-28T09:31:18.452Z</time></trkpt><trkpt lat="43.929521" lon="8.100071"><ele>30.0</ele><time>2026-04-28T09:31:19.452Z</time></trkpt><trkpt lat="43.9296652" lon="8.0999254"><ele>30.0</ele><time>2026-04-28T09:31:20.451Z</time></trkpt><trkpt lat="43.9298034" lon="8.0997806"><ele>32.666666666666664</ele><time>2026-04-28T09:31:21.451Z</time></trkpt><trkpt lat="43.9299308" lon="8.0996419"><ele>35.33333333333333</ele><time>2026-04-28T09:31:22.452Z</time></trkpt><trkpt lat="43.9300696" lon="8.0995024"><ele>38.0</ele><time>2026-04-28T09:31:23.451Z</time></trkpt><trkpt lat="43.9301971" lon="8.0993695"><ele>38.0</ele><time>2026-04-28T09:31:24.451Z</time></trkpt><trkpt lat="43.9303326" lon="8.0992392"><ele>38.0</ele><time>2026-04-28T09:31:25.452Z</time></trkpt><trkpt lat="43.9306396" lon="8.0990633"><ele>40.666666666666664</ele><time>2026-04-28T09:31:27.452Z</time></trkpt><trkpt lat="43.9308066" lon="8.0989913"><ele>43.333333333333336</ele><time>2026-04-28T09:31:28.451Z</time></trkpt><trkpt lat="43.9309393" lon="8.0989139"><ele>46.0</ele><time>2026-04-28T09:31:29.452Z</time></trkpt><trkpt lat="43.9310798" lon="8.0988293"><ele>46.0</ele><time>2026-04-28T09:31:30.452Z</time></trkpt><trkpt lat="43.9312221" lon="8.0987496"><ele>46.0</ele><time>2026-04-28T09:31:31.452Z</time></trkpt><trkpt lat="43.9313845" lon="8.0986754"><ele>46.0</ele><time>2026-04-28T09:31:32.451Z</time></trkpt><trkpt lat="43.9315401" lon="8.0986057"><ele>46.0</ele><time>2026-04-28T09:31:33.452Z</time></trkpt><trkpt lat="43.9316679" lon="8.0985625"><ele>46.0</ele><time>2026-04-28T09:31:34.451Z</time></trkpt><trkpt lat="43.9318222" lon="8.0985222"><ele>46.0</ele><time>2026-04-28T09:31:35.452Z</time></trkpt><trkpt lat="43.9319582" lon="8.0985127"><ele>46.0</ele><time>2026-04-28T09:31:36.452Z</time></trkpt><trkpt lat="43.9320976" lon="8.0985035"><ele>44.75</ele><time>2026-04-28T09:31:37.451Z</time></trkpt><trkpt lat="43.9322218" lon="8.0985021"><ele>43.5</ele><time>2026-04-28T09:31:38.452Z</time></trkpt><trkpt lat="43.9323354" lon="8.0984825"><ele>42.25</ele><time>2026-04-28T09:31:39.452Z</time></trkpt><trkpt lat="43.9324293" lon="8.0984335"><ele>41.0</ele><time>2026-04-28T09:31:40.452Z</time></trkpt><trkpt lat="43.9325338" lon="8.0983778"><ele>41.4</ele><time>2026-04-28T09:31:41.451Z</time></trkpt><trkpt lat="43.9326343" lon="8.0983318"><ele>41.8</ele><time>2026-04-28T09:31:42.451Z</time></trkpt><trkpt lat="43.9327268" lon="8.0982994"><ele>42.199999999999996</ele><time>2026-04-28T09:31:43.45Z</time></trkpt><trkpt lat="43.9328346" lon="8.0982851"><ele>42.599999999999994</ele><time>2026-04-28T09:31:44.451Z</time></trkpt><trkpt lat="43.9329325" lon="8.0982883"><ele>43.0</ele><time>2026-04-28T09:31:45.452Z</time></trkpt><trkpt lat="43.9330335" lon="8.0982853"><ele>43.0</ele><time>2026-04-28T09:31:46.452Z</time></trkpt><trkpt lat="43.9331349" lon="8.0982902"><ele>43.0</ele><time>2026-04-28T09:31:47.452Z</time></trkpt><trkpt lat="43.9332388" lon="8.0982726"><ele>43.0</ele><time>2026-04-28T09:31:48.452Z</time></trkpt><trkpt lat="43.9333482" lon="8.0982105"><ele>43.0</ele><time>2026-04-28T09:31:49.451Z</time></trkpt><trkpt lat="43.9334421" lon="8.0981292"><ele>43.0</ele><time>2026-04-28T09:31:50.451Z</time></trkpt><trkpt lat="43.9335315" lon="8.0980471"><ele>43.5</ele><time>2026-04-28T09:31:51.451Z</time></trkpt><trkpt lat="43.9336341" lon="8.0979584"><ele>44.0</ele><time>2026-04-28T09:31:52.451Z</time></trkpt><trkpt lat="43.9337363" lon="8.0978992"><ele>44.5</ele><time>2026-04-28T09:31:53.45Z</time></trkpt><trkpt lat="43.9339332" lon="8.0978883"><ele>45.0</ele><time>2026-04-28T09:31:55.452Z</time></trkpt><trkpt lat="43.934033" lon="8.0979197"><ele>45.0</ele><time>2026-04-28T09:31:56.451Z</time></trkpt><trkpt lat="43.934135" lon="8.0979415"><ele>45.0</ele><time>2026-04-28T09:31:57.451Z</time></trkpt><trkpt lat="43.9342237" lon="8.0979692"><ele>45.0</ele><time>2026-04-28T09:31:58.452Z</time></trkpt><trkpt lat="43.9343101" lon="8.0979925"><ele>45.0</ele><time>2026-04-28T09:31:59.451Z</time></trkpt><trkpt lat="43.9343989" lon="8.0980047"><ele>45.0</ele><time>2026-04-28T09:32:00.452Z</time></trkpt><trkpt lat="43.9344798" lon="8.0980029"><ele>46.25</ele><time>2026-04-28T09:32:01.452Z</time></trkpt><trkpt lat="43.9346929" lon="8.0979194"><ele>47.5</ele><time>2026-04-28T09:32:03.45Z</time></trkpt><trkpt lat="43.9348008" lon="8.0978711"><ele>48.75</ele><time>2026-04-28T09:32:04.451Z</time></trkpt><trkpt lat="43.9349054" lon="8.097826"><ele>50.0</ele><time>2026-04-28T09:32:05.452Z</time></trkpt><trkpt lat="43.9350184" lon="8.0977877"><ele>51.4</ele><time>2026-04-28T09:32:06.452Z</time></trkpt><trkpt lat="43.9351132" lon="8.0977521"><ele>52.8</ele><time>2026-04-28T09:32:07.45Z</time></trkpt><trkpt lat="43.9351971" lon="8.097732"><ele>54.2</ele><time>2026-04-28T09:32:08.451Z</time></trkpt><trkpt lat="43.9352717" lon="8.0977164"><ele>55.6</ele><time>2026-04-28T09:32:09.451Z</time></trkpt><trkpt lat="43.9354088" lon="8.0976796"><ele>57.0</ele><time>2026-04-28T09:32:11.452Z</time></trkpt><trkpt lat="43.9354917" lon="8.0976643"><ele>57.0</ele><time>2026-04-28T09:32:12.452Z</time></trkpt><trkpt lat="43.9355785" lon="8.0976649"><ele>57.0</ele><time>2026-04-28T09:32:13.451Z</time></trkpt><trkpt lat="43.9356788" lon="8.0976799"><ele>57.0</ele><time>2026-04-28T09:32:14.451Z</time></trkpt><trkpt lat="43.935802" lon="8.0976861"><ele>57.0</ele><time>2026-04-28T09:32:15.451Z</time></trkpt><trkpt lat="43.9359193" lon="8.0976857"><ele>57.0</ele><time>2026-04-28T09:32:16.45Z</time></trkpt><trkpt lat="43.9360465" lon="8.0976791"><ele>59.0</ele><time>2026-04-28T09:32:17.452Z</time></trkpt><trkpt lat="43.9362152" lon="8.097637"><ele>61.0</ele><time>2026-04-28T09:32:18.451Z</time></trkpt><trkpt lat="43.9363674" lon="8.0976014"><ele>63.0</ele><time>2026-04-28T09:32:19.45Z</time></trkpt><trkpt lat="43.9365277" lon="8.0975588"><ele>63.0</ele><time>2026-04-28T09:32:20.451Z</time></trkpt><trkpt lat="43.9366832" lon="8.097529"><ele>63.0</ele><time>2026-04-28T09:32:21.451Z</time></trkpt><trkpt lat="43.9368243" lon="8.0974936"><ele>63.0</ele><time>2026-04-28T09:32:22.45Z</time></trkpt><trkpt lat="43.9369776" lon="8.0974578"><ele>65.0</ele><time>2026-04-28T09:32:23.451Z</time></trkpt><trkpt lat="43.9371546" lon="8.0974152"><ele>67.0</ele><time>2026-04-28T09:32:24.451Z</time></trkpt><trkpt lat="43.9373324" lon="8.0973954"><ele>69.0</ele><time>2026-04-28T09:32:25.452Z</time></trkpt><trkpt lat="43.9374858" lon="8.0973836"><ele>70.33333333333333</ele><time>2026-04-28T09:32:26.452Z</time></trkpt><trkpt lat="43.9376341" lon="8.0973911"><ele>71.66666666666666</ele><time>2026-04-28T09:32:27.452Z</time></trkpt><trkpt lat="43.9377966" lon="8.0973961"><ele>73.0</ele><time>2026-04-28T09:32:28.451Z</time></trkpt><trkpt lat="43.9379553" lon="8.0973576"><ele>73.0</ele><time>2026-04-28T09:32:29.451Z</time></trkpt><trkpt lat="43.9381155" lon="8.0973065"><ele>73.0</ele><time>2026-04-28T09:32:30.452Z</time></trkpt><trkpt lat="43.9382858" lon="8.097247"><ele>73.0</ele><time>2026-04-28T09:32:31.451Z</time></trkpt><trkpt lat="43.9384512" lon="8.0972198"><ele>74.66666666666666</ele><time>2026-04-28T09:32:32.45Z</time></trkpt><trkpt lat="43.9386039" lon="8.097204"><ele>76.33333333333333</ele><time>2026-04-28T09:32:33.452Z</time></trkpt><trkpt lat="43.9387739" lon="8.0972001"><ele>78.0</ele><time>2026-04-28T09:32:34.45Z</time></trkpt><trkpt lat="43.9389371" lon="8.0972248"><ele>82.0</ele><time>2026-04-28T09:32:35.452Z</time></trkpt><trkpt lat="43.9392468" lon="8.0972938"><ele>86.0</ele><time>2026-04-28T09:32:37.452Z</time></trkpt><trkpt lat="43.9394022" lon="8.097323"><ele>86.0</ele><time>2026-04-28T09:32:38.452Z</time></trkpt><trkpt lat="43.9395706" lon="8.0973395"><ele>86.0</ele><time>2026-04-28T09:32:39.452Z</time></trkpt><trkpt lat="43.9397286" lon="8.097337"><ele>86.0</ele><time>2026-04-28T09:32:40.451Z</time></trkpt><trkpt lat="43.9399081" lon="8.0973114"><ele>88.66666666666667</ele><time>2026-04-28T09:32:41.45Z</time></trkpt><trkpt lat="43.9400646" lon="8.097259"><ele>91.33333333333333</ele><time>2026-04-28T09:32:42.452Z</time></trkpt><trkpt lat="43.9402346" lon="8.0972071"><ele>94.0</ele><time>2026-04-28T09:32:43.452Z</time></trkpt><trkpt lat="43.9403729" lon="8.0971639"><ele>94.0</ele><time>2026-04-28T09:32:44.452Z</time></trkpt><trkpt lat="43.9406689" lon="8.0969679"><ele>94.0</ele><time>2026-04-28T09:32:46.452Z</time></trkpt><trkpt lat="43.9407758" lon="8.0968372"><ele>94.0</ele><time>2026-04-28T09:32:47.451Z</time></trkpt><trkpt lat="43.940871" lon="8.0967012"><ele>94.0</ele><time>2026-04-28T09:32:48.451Z</time></trkpt><trkpt lat="43.9409631" lon="8.0965732"><ele>94.0</ele><time>2026-04-28T09:32:49.451Z</time></trkpt><trkpt lat="43.9410369" lon="8.0964806"><ele>94.0</ele><time>2026-04-28T09:32:50.451Z</time></trkpt><trkpt lat="43.9411194" lon="8.0963963"><ele>95.4</ele><time>2026-04-28T09:32:51.451Z</time></trkpt><trkpt lat="43.9412301" lon="8.096345"><ele>96.80000000000001</ele><time>2026-04-28T09:32:52.451Z</time></trkpt><trkpt lat="43.9413151" lon="8.096316"><ele>98.19999999999999</ele><time>2026-04-28T09:32:53.451Z</time></trkpt><trkpt lat="43.9414097" lon="8.0963071"><ele>99.6</ele><time>2026-04-28T09:32:54.452Z</time></trkpt><trkpt lat="43.9415247" lon="8.0962633"><ele>101.0</ele><time>2026-04-28T09:32:55.451Z</time></trkpt><trkpt lat="43.9416712" lon="8.0962258"><ele>102.75</ele><time>2026-04-28T09:32:56.451Z</time></trkpt><trkpt lat="43.9417924" lon="8.0962301"><ele>104.5</ele><time>2026-04-28T09:32:57.452Z</time></trkpt><trkpt lat="43.9419127" lon="8.0962148"><ele>106.25</ele><time>2026-04-28T09:32:58.452Z</time></trkpt><trkpt lat="43.9420554" lon="8.0961776"><ele>108.0</ele><time>2026-04-28T09:32:59.451Z</time></trkpt><trkpt lat="43.9421846" lon="8.0961736"><ele>108.0</ele><time>2026-04-28T09:33:00.451Z</time></trkpt><trkpt lat="43.9422982" lon="8.0961669"><ele>108.0</ele><time>2026-04-28T09:33:01.451Z</time></trkpt><trkpt lat="43.9425723" lon="8.0961427"><ele>108.0</ele><time>2026-04-28T09:33:03.451Z</time></trkpt><trkpt lat="43.942693" lon="8.0961256"><ele>108.0</ele><time>2026-04-28T09:33:04.451Z</time></trkpt><trkpt lat="43.9427976" lon="8.0960985"><ele>108.00000000000001</ele><time>2026-04-28T09:33:05.452Z</time></trkpt><trkpt lat="43.942902" lon="8.0960651"><ele>108.00000000000001</ele><time>2026-04-28T09:33:06.452Z</time></trkpt><trkpt lat="43.9429885" lon="8.0960345"><ele>108.0</ele><time>2026-04-28T09:33:07.452Z</time></trkpt><trkpt lat="43.9430895" lon="8.0960148"><ele>108.0</ele><time>2026-04-28T09:33:08.452Z</time></trkpt><trkpt lat="43.9431668" lon="8.0960111"><ele>108.0</ele><time>2026-04-28T09:33:09.452Z</time></trkpt><trkpt lat="43.9432721" lon="8.0958977"><ele>108.00000000000001</ele><time>2026-04-28T09:33:12.451Z</time></trkpt><trkpt lat="43.9432768" lon="8.0958025"><ele>108.00000000000001</ele><time>2026-04-28T09:33:13.452Z</time></trkpt><trkpt lat="43.9432723" lon="8.0956764"><ele>108.0</ele><time>2026-04-28T09:33:14.452Z</time></trkpt><trkpt lat="43.9432861" lon="8.0955676"><ele>108.0</ele><time>2026-04-28T09:33:15.452Z</time></trkpt><trkpt lat="43.9433107" lon="8.0953967"><ele>109.0</ele><time>2026-04-28T09:33:16.451Z</time></trkpt><trkpt lat="43.9433479" lon="8.095235"><ele>110.0</ele><time>2026-04-28T09:33:17.45Z</time></trkpt><trkpt lat="43.9433833" lon="8.0950892"><ele>111.0</ele><time>2026-04-28T09:33:18.452Z</time></trkpt><trkpt lat="43.9433992" lon="8.0949317"><ele>112.0</ele><time>2026-04-28T09:33:19.452Z</time></trkpt><trkpt lat="43.9434649" lon="8.0946754"><ele>110.33333333333334</ele><time>2026-04-28T09:33:21.452Z</time></trkpt><trkpt lat="43.9434672" lon="8.094538"><ele>108.66666666666667</ele><time>2026-04-28T09:33:22.451Z</time></trkpt><trkpt lat="43.9434641" lon="8.094426"><ele>107.0</ele><time>2026-04-28T09:33:23.452Z</time></trkpt><trkpt lat="43.943461" lon="8.0943259"><ele>105.33333333333334</ele><time>2026-04-28T09:33:24.452Z</time></trkpt><trkpt lat="43.9434527" lon="8.0942257"><ele>103.66666666666667</ele><time>2026-04-28T09:33:27.452Z</time></trkpt><trkpt lat="43.9433877" lon="8.0942495"><ele>102.0</ele><time>2026-04-28T09:34:33.452Z</time></trkpt><trkpt lat="43.9434445" lon="8.0942919"><ele>102.0</ele><time>2026-04-28T09:34:53.452Z</time></trkpt><trkpt lat="43.9433871" lon="8.0942103"><ele>102.0</ele><time>2026-04-28T09:35:00.452Z</time></trkpt><trkpt lat="43.9432828" lon="8.0942269"><ele>102.0</ele><time>2026-04-28T09:35:32.451Z</time></trkpt><trkpt lat="43.9432186" lon="8.0942519"><ele>102.0</ele><time>2026-04-28T09:35:51.498Z</time></trkpt><trkpt lat="43.943152" lon="8.0942242"><ele>102.0</ele><time>2026-04-28T09:36:00.451Z</time></trkpt><trkpt lat="43.9430748" lon="8.0941113"><ele>102.0</ele><time>2026-04-28T09:37:31.451Z</time></trkpt><trkpt lat="43.9430451" lon="8.0942023"><ele>119.0</ele><time>2026-04-28T09:37:42.452Z</time></trkpt><trkpt lat="43.9431105" lon="8.0941964"><ele>119.0</ele><time>2026-04-28T09:38:12.536Z</time></trkpt><trkpt lat="43.9431729" lon="8.0940207"><ele>126.0</ele><time>2026-04-28T09:41:36.59Z</time></trkpt><trkpt lat="43.9430767" lon="8.0937861"><ele>126.0</ele><time>2026-04-28T09:42:25.533Z</time></trkpt></trkseg></trk></gpx>